<?xml version="1.0" encoding="UTF-8"?>
<gpx version="1.1" creator="https://www.youtrack.es" xsi:schemaLocation="http://www.topografix.com/GPX/1/1 http://www.topografix.com/GPX/1/1/gpx.xsd http://www.garmin.com/xmlschemas/GpxExtensions/v3 http://www.garmin.com/xmlschemas/GpxExtensionsv3.xsd http://www.garmin.com/xmlschemas/TrackPointExtension/v1 http://www.garmin.com/xmlschemas/TrackPointExtensionv1.xsd" xmlns:gpxtpx="http://www.garmin.com/xmlschemas/TrackPointExtension/v1" xmlns:gpxx="http://www.garmin.com/xmlschemas/GpxExtensions/v3" xmlns:xsi="http://www.w3.org/2001/XMLSchema-instance">
  <metadata>
    <link href="https://www.youtrack.es">
      <text>YouTrack.es</text>
    </link>
    <time>2026-05-09T04:13:49Z</time>
  </metadata>
  <trk>
    <src>https://www.youtrack.es</src>
    <link href="https://www.youtrack.es/ruta/39935-orpesa-les-santes-la-pobla-tornesa-bartolo-benicassim-orpesa">
      <text>YouTrack.es</text>
    </link>
    <trkseg>
      <trkpt lat="40.08284342475235462188720703125" lon="0.129282474517822265625">
        <ele>33</ele>
        <time>2023-01-27T07:52:57.000Z</time>
      </trkpt>
      <trkpt lat="40.08284476585686206817626953125" lon="0.12928322888910770416259765625">
        <ele>33</ele>
        <time>2023-01-27T07:52:58.000Z</time>
      </trkpt>
      <trkpt lat="40.08284778334200382232666015625" lon="0.1292849890887737274169921875">
        <ele>33</ele>
        <time>2023-01-27T07:53:00.000Z</time>
      </trkpt>
      <trkpt lat="40.0828780420124530792236328125" lon="0.12932212091982364654541015625">
        <ele>32.799999237060546875</ele>
        <time>2023-01-27T07:53:02.000Z</time>
      </trkpt>
      <trkpt lat="40.082898996770381927490234375" lon="0.12934508733451366424560546875">
        <ele>32.59999847412109375</ele>
        <time>2023-01-27T07:53:03.000Z</time>
      </trkpt>
      <trkpt lat="40.08307007141411304473876953125" lon="0.12949713505804538726806640625">
        <ele>32</ele>
        <time>2023-01-27T07:53:08.000Z</time>
      </trkpt>
      <trkpt lat="40.08317886851727962493896484375" lon="0.1295582391321659088134765625">
        <ele>32.40000152587890625</ele>
        <time>2023-01-27T07:53:11.000Z</time>
      </trkpt>
      <trkpt lat="40.08321591652929782867431640625" lon="0.12956419028341770172119140625">
        <ele>32.40000152587890625</ele>
        <time>2023-01-27T07:53:12.000Z</time>
      </trkpt>
      <trkpt lat="40.08324625901877880096435546875" lon="0.12955798767507076263427734375">
        <ele>32.200000762939453125</ele>
        <time>2023-01-27T07:53:13.000Z</time>
      </trkpt>
      <trkpt lat="40.08328967727720737457275390625" lon="0.1295461691915988922119140625">
        <ele>32</ele>
        <time>2023-01-27T07:53:14.000Z</time>
      </trkpt>
      <trkpt lat="40.08333695121109485626220703125" lon="0.12953116558492183685302734375">
        <ele>31.6000003814697265625</ele>
        <time>2023-01-27T07:53:15.000Z</time>
      </trkpt>
      <trkpt lat="40.08339755237102508544921875" lon="0.12951071374118328094482421875">
        <ele>31.200000762939453125</ele>
        <time>2023-01-27T07:53:16.000Z</time>
      </trkpt>
      <trkpt lat="40.08345111273229122161865234375" lon="0.12948967516422271728515625">
        <ele>31</ele>
        <time>2023-01-27T07:53:17.000Z</time>
      </trkpt>
      <trkpt lat="40.08349704556167125701904296875" lon="0.12947115115821361541748046875">
        <ele>30.799999237060546875</ele>
        <time>2023-01-27T07:53:18.000Z</time>
      </trkpt>
      <trkpt lat="40.0836847163736820220947265625" lon="0.12939638458192348480224609375">
        <ele>30.3999996185302734375</ele>
        <time>2023-01-27T07:53:21.000Z</time>
      </trkpt>
      <trkpt lat="40.083786137402057647705078125" lon="0.12935447506606578826904296875">
        <ele>30.200000762939453125</ele>
        <time>2023-01-27T07:53:23.000Z</time>
      </trkpt>
      <trkpt lat="40.0839145481586456298828125" lon="0.12932580895721912384033203125">
        <ele>30</ele>
        <time>2023-01-27T07:53:25.000Z</time>
      </trkpt>
      <trkpt lat="40.08402896113693714141845703125" lon="0.12934039346873760223388671875">
        <ele>29.799999237060546875</ele>
        <time>2023-01-27T07:53:27.000Z</time>
      </trkpt>
      <trkpt lat="40.08424253202974796295166015625" lon="0.12939152307808399200439453125">
        <ele>29.6000003814697265625</ele>
        <time>2023-01-27T07:53:30.000Z</time>
      </trkpt>
      <trkpt lat="40.084312856197357177734375" lon="0.129403173923492431640625">
        <ele>29.3999996185302734375</ele>
        <time>2023-01-27T07:53:31.000Z</time>
      </trkpt>
      <trkpt lat="40.08458769880235195159912109375" lon="0.12944701127707958221435546875">
        <ele>28.3999996185302734375</ele>
        <time>2023-01-27T07:53:35.000Z</time>
      </trkpt>
      <trkpt lat="40.08465928025543689727783203125" lon="0.129460506141185760498046875">
        <ele>28.200000762939453125</ele>
        <time>2023-01-27T07:53:36.000Z</time>
      </trkpt>
      <trkpt lat="40.08499807678163051605224609375" lon="0.1295386254787445068359375">
        <ele>27.200000762939453125</ele>
        <time>2023-01-27T07:53:41.000Z</time>
      </trkpt>
      <trkpt lat="40.08506781421601772308349609375" lon="0.1295522041618824005126953125">
        <ele>27</ele>
        <time>2023-01-27T07:53:42.000Z</time>
      </trkpt>
      <trkpt lat="40.0852796249091625213623046875" lon="0.12959352694451808929443359375">
        <ele>26.799999237060546875</ele>
        <time>2023-01-27T07:53:45.000Z</time>
      </trkpt>
      <trkpt lat="40.085330419242382049560546875" lon="0.1296055130660533905029296875">
        <ele>26.6000003814697265625</ele>
        <time>2023-01-27T07:53:46.000Z</time>
      </trkpt>
      <trkpt lat="40.0854633562266826629638671875" lon="0.12962806038558483123779296875">
        <ele>26.200000762939453125</ele>
        <time>2023-01-27T07:53:48.000Z</time>
      </trkpt>
      <trkpt lat="40.0854633562266826629638671875" lon="0.12962806038558483123779296875">
        <ele>26</ele>
        <time>2023-01-27T07:53:49.000Z</time>
      </trkpt>
      <trkpt lat="40.08558212779462337493896484375" lon="0.12965337373316287994384765625">
        <ele>25.6000003814697265625</ele>
        <time>2023-01-27T07:53:50.000Z</time>
      </trkpt>
      <trkpt lat="40.08562780916690826416015625" lon="0.1296620070934295654296875">
        <ele>25.6000003814697265625</ele>
        <time>2023-01-27T07:53:51.000Z</time>
      </trkpt>
      <trkpt lat="40.08568338118493556976318359375" lon="0.129673741757869720458984375">
        <ele>25.200000762939453125</ele>
        <time>2023-01-27T07:53:52.000Z</time>
      </trkpt>
      <trkpt lat="40.085745491087436676025390625" lon="0.12969159521162509918212890625">
        <ele>25</ele>
        <time>2023-01-27T07:53:53.000Z</time>
      </trkpt>
      <trkpt lat="40.08584951050579547882080078125" lon="0.12972126714885234832763671875">
        <ele>25</ele>
        <time>2023-01-27T07:53:55.000Z</time>
      </trkpt>
      <trkpt lat="40.0858928449451923370361328125" lon="0.1297290623188018798828125">
        <ele>25</ele>
        <time>2023-01-27T07:53:56.000Z</time>
      </trkpt>
      <trkpt lat="40.0859458185732364654541015625" lon="0.12973777949810028076171875">
        <ele>24.799999237060546875</ele>
        <time>2023-01-27T07:53:57.000Z</time>
      </trkpt>
      <trkpt lat="40.08600507862865924835205078125" lon="0.129748173058032989501953125">
        <ele>24.799999237060546875</ele>
        <time>2023-01-27T07:53:58.000Z</time>
      </trkpt>
      <trkpt lat="40.0860536098480224609375" lon="0.1297585666179656982421875">
        <ele>24.799999237060546875</ele>
        <time>2023-01-27T07:53:59.000Z</time>
      </trkpt>
      <trkpt lat="40.08610348217189311981201171875" lon="0.12976652942597866058349609375">
        <ele>24.799999237060546875</ele>
        <time>2023-01-27T07:54:00.000Z</time>
      </trkpt>
      <trkpt lat="40.08614673279225826263427734375" lon="0.129774324595928192138671875">
        <ele>24.799999237060546875</ele>
        <time>2023-01-27T07:54:01.000Z</time>
      </trkpt>
      <trkpt lat="40.086210854351520538330078125" lon="0.12978664599359035491943359375">
        <ele>24.799999237060546875</ele>
        <time>2023-01-27T07:54:02.000Z</time>
      </trkpt>
      <trkpt lat="40.0862686894834041595458984375" lon="0.129799135029315948486328125">
        <ele>24.799999237060546875</ele>
        <time>2023-01-27T07:54:03.000Z</time>
      </trkpt>
      <trkpt lat="40.08632627315819263458251953125" lon="0.1298110373318195343017578125">
        <ele>24.799999237060546875</ele>
        <time>2023-01-27T07:54:04.000Z</time>
      </trkpt>
      <trkpt lat="40.0864358246326446533203125" lon="0.1298321597278118133544921875">
        <ele>24.799999237060546875</ele>
        <time>2023-01-27T07:54:06.000Z</time>
      </trkpt>
      <trkpt lat="40.0866237469017505645751953125" lon="0.1298730634152889251708984375">
        <ele>24.799999237060546875</ele>
        <time>2023-01-27T07:54:09.000Z</time>
      </trkpt>
      <trkpt lat="40.08668635971844196319580078125" lon="0.12988756410777568817138671875">
        <ele>24.799999237060546875</ele>
        <time>2023-01-27T07:54:10.000Z</time>
      </trkpt>
      <trkpt lat="40.0869727693498134613037109375" lon="0.1299481652677059173583984375">
        <ele>25</ele>
        <time>2023-01-27T07:54:15.000Z</time>
      </trkpt>
      <trkpt lat="40.08702465333044528961181640625" lon="0.1299481652677059173583984375">
        <ele>25</ele>
        <time>2023-01-27T07:54:16.000Z</time>
      </trkpt>
      <trkpt lat="40.08707754313945770263671875" lon="0.12994389049708843231201171875">
        <ele>25.200000762939453125</ele>
        <time>2023-01-27T07:54:17.000Z</time>
      </trkpt>
      <trkpt lat="40.0871330313384532928466796875" lon="0.12993852607905864715576171875">
        <ele>25.200000762939453125</ele>
        <time>2023-01-27T07:54:18.000Z</time>
      </trkpt>
      <trkpt lat="40.08719480596482753753662109375" lon="0.1299314014613628387451171875">
        <ele>25.3999996185302734375</ele>
        <time>2023-01-27T07:54:19.000Z</time>
      </trkpt>
      <trkpt lat="40.08731919340789318084716796875" lon="0.1298904977738857269287109375">
        <ele>25.6000003814697265625</ele>
        <time>2023-01-27T07:54:21.000Z</time>
      </trkpt>
      <trkpt lat="40.08745581842958927154541015625" lon="0.12985889799892902374267578125">
        <ele>25.799999237060546875</ele>
        <time>2023-01-27T07:54:23.000Z</time>
      </trkpt>
      <trkpt lat="40.0875973887741565704345703125" lon="0.12987633235752582550048828125">
        <ele>26</ele>
        <time>2023-01-27T07:54:25.000Z</time>
      </trkpt>
      <trkpt lat="40.08766469545662403106689453125" lon="0.12990516610443592071533203125">
        <ele>26</ele>
        <time>2023-01-27T07:54:26.000Z</time>
      </trkpt>
      <trkpt lat="40.0877204351127147674560546875" lon="0.129950009286403656005859375">
        <ele>26</ele>
        <time>2023-01-27T07:54:27.000Z</time>
      </trkpt>
      <trkpt lat="40.08777081035077571868896484375" lon="0.13001136481761932373046875">
        <ele>26.200000762939453125</ele>
        <time>2023-01-27T07:54:28.000Z</time>
      </trkpt>
      <trkpt lat="40.0878293998539447784423828125" lon="0.13006660155951976776123046875">
        <ele>26.200000762939453125</ele>
        <time>2023-01-27T07:54:29.000Z</time>
      </trkpt>
      <trkpt lat="40.08789251558482646942138671875" lon="0.130107589066028594970703125">
        <ele>26.3999996185302734375</ele>
        <time>2023-01-27T07:54:30.000Z</time>
      </trkpt>
      <trkpt lat="40.0879561342298984527587890625" lon="0.1301114447414875030517578125">
        <ele>26.3999996185302734375</ele>
        <time>2023-01-27T07:54:31.000Z</time>
      </trkpt>
      <trkpt lat="40.0880785100162029266357421875" lon="0.13004916720092296600341796875">
        <ele>26.6000003814697265625</ele>
        <time>2023-01-27T07:54:33.000Z</time>
      </trkpt>
      <trkpt lat="40.08813642896711826324462890625" lon="0.13000993989408016204833984375">
        <ele>26.6000003814697265625</ele>
        <time>2023-01-27T07:54:34.000Z</time>
      </trkpt>
      <trkpt lat="40.088197030127048492431640625" lon="0.1299904100596904754638671875">
        <ele>26.6000003814697265625</ele>
        <time>2023-01-27T07:54:35.000Z</time>
      </trkpt>
      <trkpt lat="40.08826014585793018341064453125" lon="0.12999937869608402252197265625">
        <ele>26.6000003814697265625</ele>
        <time>2023-01-27T07:54:36.000Z</time>
      </trkpt>
      <trkpt lat="40.0883229263126850128173828125" lon="0.13002469204366207122802734375">
        <ele>26.6000003814697265625</ele>
        <time>2023-01-27T07:54:37.000Z</time>
      </trkpt>
      <trkpt lat="40.08838369511067867279052734375" lon="0.1300536096096038818359375">
        <ele>26.799999237060546875</ele>
        <time>2023-01-27T07:54:38.000Z</time>
      </trkpt>
      <trkpt lat="40.0884439609944820404052734375" lon="0.13007548637688159942626953125">
        <ele>26.799999237060546875</ele>
        <time>2023-01-27T07:54:39.000Z</time>
      </trkpt>
      <trkpt lat="40.0885046459734439849853515625" lon="0.13010432012379169464111328125">
        <ele>26.6000003814697265625</ele>
        <time>2023-01-27T07:54:40.000Z</time>
      </trkpt>
      <trkpt lat="40.089051313698291778564453125" lon="0.1303085871040821075439453125">
        <ele>26.6000003814697265625</ele>
        <time>2023-01-27T07:54:48.000Z</time>
      </trkpt>
      <trkpt lat="40.08955858647823333740234375" lon="0.13044655323028564453125">
        <ele>25.799999237060546875</ele>
        <time>2023-01-27T07:54:55.000Z</time>
      </trkpt>
      <trkpt lat="40.08975061587989330291748046875" lon="0.1304933242499828338623046875">
        <ele>25.3999996185302734375</ele>
        <time>2023-01-27T07:54:58.000Z</time>
      </trkpt>
      <trkpt lat="40.0898179225623607635498046875" lon="0.13051151297986507415771484375">
        <ele>25.200000762939453125</ele>
        <time>2023-01-27T07:54:59.000Z</time>
      </trkpt>
      <trkpt lat="40.089886151254177093505859375" lon="0.13052626512944698333740234375">
        <ele>25</ele>
        <time>2023-01-27T07:55:00.000Z</time>
      </trkpt>
      <trkpt lat="40.0899563916027545928955078125" lon="0.13054135255515575408935546875">
        <ele>25</ele>
        <time>2023-01-27T07:55:01.000Z</time>
      </trkpt>
      <trkpt lat="40.09010014124214649200439453125" lon="0.13056733645498752593994140625">
        <ele>24.6000003814697265625</ele>
        <time>2023-01-27T07:55:03.000Z</time>
      </trkpt>
      <trkpt lat="40.0902437232434749603271484375" lon="0.1306002773344516754150390625">
        <ele>24.6000003814697265625</ele>
        <time>2023-01-27T07:55:05.000Z</time>
      </trkpt>
      <trkpt lat="40.0904564559459686279296875" lon="0.13064260594546794891357421875">
        <ele>24.200000762939453125</ele>
        <time>2023-01-27T07:55:08.000Z</time>
      </trkpt>
      <trkpt lat="40.0906039774417877197265625" lon="0.13065375387668609619140625">
        <ele>24</ele>
        <time>2023-01-27T07:55:10.000Z</time>
      </trkpt>
      <trkpt lat="40.09075761772692203521728515625" lon="0.13068015687167644500732421875">
        <ele>23.3999996185302734375</ele>
        <time>2023-01-27T07:55:12.000Z</time>
      </trkpt>
      <trkpt lat="40.090896002948284149169921875" lon="0.13073212467133998870849609375">
        <ele>22.799999237060546875</ele>
        <time>2023-01-27T07:55:14.000Z</time>
      </trkpt>
      <trkpt lat="40.09095744229853153228759765625" lon="0.13076498173177242279052734375">
        <ele>22.3999996185302734375</ele>
        <time>2023-01-27T07:55:15.000Z</time>
      </trkpt>
      <trkpt lat="40.09141509421169757843017578125" lon="0.13099498115479946136474609375">
        <ele>22.200000762939453125</ele>
        <time>2023-01-27T07:55:22.000Z</time>
      </trkpt>
      <trkpt lat="40.09147636592388153076171875" lon="0.13102658092975616455078125">
        <ele>22.200000762939453125</ele>
        <time>2023-01-27T07:55:23.000Z</time>
      </trkpt>
      <trkpt lat="40.09154140949249267578125" lon="0.13104829005897045135498046875">
        <ele>22.200000762939453125</ele>
        <time>2023-01-27T07:55:24.000Z</time>
      </trkpt>
      <trkpt lat="40.09161181747913360595703125" lon="0.131042338907718658447265625">
        <ele>22.3999996185302734375</ele>
        <time>2023-01-27T07:55:25.000Z</time>
      </trkpt>
      <trkpt lat="40.09167862124741077423095703125" lon="0.13101023621857166290283203125">
        <ele>22.3999996185302734375</ele>
        <time>2023-01-27T07:55:26.000Z</time>
      </trkpt>
      <trkpt lat="40.09173980914056301116943359375" lon="0.13095642440021038055419921875">
        <ele>22.3999996185302734375</ele>
        <time>2023-01-27T07:55:27.000Z</time>
      </trkpt>
      <trkpt lat="40.0917702354490756988525390625" lon="0.1308815740048885345458984375">
        <ele>22.3999996185302734375</ele>
        <time>2023-01-27T07:55:28.000Z</time>
      </trkpt>
      <trkpt lat="40.09177987463772296905517578125" lon="0.1307990960776805877685546875">
        <ele>22.3999996185302734375</ele>
        <time>2023-01-27T07:55:29.000Z</time>
      </trkpt>
      <trkpt lat="40.0917880050837993621826171875" lon="0.1307169534265995025634765625">
        <ele>22.3999996185302734375</ele>
        <time>2023-01-27T07:55:30.000Z</time>
      </trkpt>
      <trkpt lat="40.091797225177288055419921875" lon="0.13063497841358184814453125">
        <ele>22.3999996185302734375</ele>
        <time>2023-01-27T07:55:31.000Z</time>
      </trkpt>
      <trkpt lat="40.09180736728012561798095703125" lon="0.13055375777184963226318359375">
        <ele>22.6000003814697265625</ele>
        <time>2023-01-27T07:55:32.000Z</time>
      </trkpt>
      <trkpt lat="40.09181625209748744964599609375" lon="0.13047429732978343963623046875">
        <ele>22.6000003814697265625</ele>
        <time>2023-01-27T07:55:33.000Z</time>
      </trkpt>
      <trkpt lat="40.09182446636259555816650390625" lon="0.130398608744144439697265625">
        <ele>22.6000003814697265625</ele>
        <time>2023-01-27T07:55:34.000Z</time>
      </trkpt>
      <trkpt lat="40.09183603338897228240966796875" lon="0.13032275252044200897216796875">
        <ele>22.6000003814697265625</ele>
        <time>2023-01-27T07:55:35.000Z</time>
      </trkpt>
      <trkpt lat="40.0918538868427276611328125" lon="0.13024714775383472442626953125">
        <ele>22.6000003814697265625</ele>
        <time>2023-01-27T07:55:36.000Z</time>
      </trkpt>
      <trkpt lat="40.09187727235257625579833984375" lon="0.130172632634639739990234375">
        <ele>22.799999237060546875</ele>
        <time>2023-01-27T07:55:37.000Z</time>
      </trkpt>
      <trkpt lat="40.091911219060420989990234375" lon="0.13008956797420978546142578125">
        <ele>22.799999237060546875</ele>
        <time>2023-01-27T07:55:38.000Z</time>
      </trkpt>
      <trkpt lat="40.09195723570883274078369140625" lon="0.13002972118556499481201171875">
        <ele>23</ele>
        <time>2023-01-27T07:55:39.000Z</time>
      </trkpt>
      <trkpt lat="40.092011131346225738525390625" lon="0.1299919188022613525390625">
        <ele>23</ele>
        <time>2023-01-27T07:55:40.000Z</time>
      </trkpt>
      <trkpt lat="40.0920693017542362213134765625" lon="0.12997842393815517425537109375">
        <ele>23.200000762939453125</ele>
        <time>2023-01-27T07:55:41.000Z</time>
      </trkpt>
      <trkpt lat="40.09212956763803958892822265625" lon="0.12999527156352996826171875">
        <ele>23.3999996185302734375</ele>
        <time>2023-01-27T07:55:42.000Z</time>
      </trkpt>
      <trkpt lat="40.09217667393386363983154296875" lon="0.1300447247922420501708984375">
        <ele>23.6000003814697265625</ele>
        <time>2023-01-27T07:55:43.000Z</time>
      </trkpt>
      <trkpt lat="40.09223115630447864532470703125" lon="0.1300950162112712860107421875">
        <ele>23.6000003814697265625</ele>
        <time>2023-01-27T07:55:44.000Z</time>
      </trkpt>
      <trkpt lat="40.0922728143632411956787109375" lon="0.13015209697186946868896484375">
        <ele>23.799999237060546875</ele>
        <time>2023-01-27T07:55:45.000Z</time>
      </trkpt>
      <trkpt lat="40.092314891517162322998046875" lon="0.13021596707403659820556640625">
        <ele>23.799999237060546875</ele>
        <time>2023-01-27T07:55:46.000Z</time>
      </trkpt>
      <trkpt lat="40.09236308746039867401123046875" lon="0.13028084300458431243896484375">
        <ele>23.799999237060546875</ele>
        <time>2023-01-27T07:55:47.000Z</time>
      </trkpt>
      <trkpt lat="40.09251429699361324310302734375" lon="0.13049927540123462677001953125">
        <ele>23.799999237060546875</ele>
        <time>2023-01-27T07:55:50.000Z</time>
      </trkpt>
      <trkpt lat="40.0926868803799152374267578125" lon="0.13083639554679393768310546875">
        <ele>23.3999996185302734375</ele>
        <time>2023-01-27T07:55:54.000Z</time>
      </trkpt>
      <trkpt lat="40.09268470108509063720703125" lon="0.13093144632875919342041015625">
        <ele>23.3999996185302734375</ele>
        <time>2023-01-27T07:55:55.000Z</time>
      </trkpt>
      <trkpt lat="40.092679671943187713623046875" lon="0.13104711659252643585205078125">
        <ele>23.200000762939453125</ele>
        <time>2023-01-27T07:55:56.000Z</time>
      </trkpt>
      <trkpt lat="40.0926932506263256072998046875" lon="0.1311280019581317901611328125">
        <ele>23</ele>
        <time>2023-01-27T07:55:57.000Z</time>
      </trkpt>
      <trkpt lat="40.09271965362131595611572265625" lon="0.1312128268182277679443359375">
        <ele>22.799999237060546875</ele>
        <time>2023-01-27T07:55:58.000Z</time>
      </trkpt>
      <trkpt lat="40.09284571744501590728759765625" lon="0.13133763335645198822021484375">
        <ele>22.200000762939453125</ele>
        <time>2023-01-27T07:56:00.000Z</time>
      </trkpt>
      <trkpt lat="40.0928892195224761962890625" lon="0.131380297243595123291015625">
        <ele>21.799999237060546875</ele>
        <time>2023-01-27T07:56:01.000Z</time>
      </trkpt>
      <trkpt lat="40.09295199997723102569580078125" lon="0.131425894796848297119140625">
        <ele>21.6000003814697265625</ele>
        <time>2023-01-27T07:56:02.000Z</time>
      </trkpt>
      <trkpt lat="40.09303900413215160369873046875" lon="0.131454057991504669189453125">
        <ele>21.3999996185302734375</ele>
        <time>2023-01-27T07:56:03.000Z</time>
      </trkpt>
      <trkpt lat="40.09310991503298282623291015625" lon="0.1314733363687992095947265625">
        <ele>21.3999996185302734375</ele>
        <time>2023-01-27T07:56:04.000Z</time>
      </trkpt>
      <trkpt lat="40.09317546151578426361083984375" lon="0.1315055228769779205322265625">
        <ele>20.799999237060546875</ele>
        <time>2023-01-27T07:56:05.000Z</time>
      </trkpt>
      <trkpt lat="40.09322558529675006866455078125" lon="0.13155522756278514862060546875">
        <ele>20.6000003814697265625</ele>
        <time>2023-01-27T07:56:06.000Z</time>
      </trkpt>
      <trkpt lat="40.0933299399912357330322265625" lon="0.13169084675610065460205078125">
        <ele>20.3999996185302734375</ele>
        <time>2023-01-27T07:56:08.000Z</time>
      </trkpt>
      <trkpt lat="40.09338970296084880828857421875" lon="0.1317760907113552093505859375">
        <ele>20.200000762939453125</ele>
        <time>2023-01-27T07:56:09.000Z</time>
      </trkpt>
      <trkpt lat="40.0934375636279582977294921875" lon="0.13184926472604274749755859375">
        <ele>20</ele>
        <time>2023-01-27T07:56:10.000Z</time>
      </trkpt>
      <trkpt lat="40.0935237295925617218017578125" lon="0.131982453167438507080078125">
        <ele>19.3999996185302734375</ele>
        <time>2023-01-27T07:56:12.000Z</time>
      </trkpt>
      <trkpt lat="40.09363445453345775604248046875" lon="0.13213693164288997650146484375">
        <ele>19</ele>
        <time>2023-01-27T07:56:14.000Z</time>
      </trkpt>
      <trkpt lat="40.09372967295348644256591796875" lon="0.1322635821998119354248046875">
        <ele>18.3999996185302734375</ele>
        <time>2023-01-27T07:56:16.000Z</time>
      </trkpt>
      <trkpt lat="40.093842409551143646240234375" lon="0.13241604901850223541259765625">
        <ele>18.200000762939453125</ele>
        <time>2023-01-27T07:56:18.000Z</time>
      </trkpt>
      <trkpt lat="40.09393234737217426300048828125" lon="0.13254881836473941802978515625">
        <ele>17.799999237060546875</ele>
        <time>2023-01-27T07:56:20.000Z</time>
      </trkpt>
      <trkpt lat="40.09403276257216930389404296875" lon="0.13269566930830478668212890625">
        <ele>17.200000762939453125</ele>
        <time>2023-01-27T07:56:22.000Z</time>
      </trkpt>
      <trkpt lat="40.09414994157850742340087890625" lon="0.13284981250762939453125">
        <ele>16.799999237060546875</ele>
        <time>2023-01-27T07:56:24.000Z</time>
      </trkpt>
      <trkpt lat="40.09425739757716655731201171875" lon="0.13296171091496944427490234375">
        <ele>16</ele>
        <time>2023-01-27T07:56:26.000Z</time>
      </trkpt>
      <trkpt lat="40.09433685801923274993896484375" lon="0.1330296881496906280517578125">
        <ele>15.80000019073486328125</ele>
        <time>2023-01-27T07:56:27.000Z</time>
      </trkpt>
      <trkpt lat="40.0944824516773223876953125" lon="0.133126415312290191650390625">
        <ele>15</ele>
        <time>2023-01-27T07:56:29.000Z</time>
      </trkpt>
      <trkpt lat="40.0945453159511089324951171875" lon="0.13315013609826564788818359375">
        <ele>14.80000019073486328125</ele>
        <time>2023-01-27T07:56:30.000Z</time>
      </trkpt>
      <trkpt lat="40.0946234352886676788330078125" lon="0.1331758685410022735595703125">
        <ele>14.3999996185302734375</ele>
        <time>2023-01-27T07:56:31.000Z</time>
      </trkpt>
      <trkpt lat="40.09486961178481578826904296875" lon="0.13324736617505550384521484375">
        <ele>13.80000019073486328125</ele>
        <time>2023-01-27T07:56:34.000Z</time>
      </trkpt>
      <trkpt lat="40.09516415186226367950439453125" lon="0.13331777416169643402099609375">
        <ele>13</ele>
        <time>2023-01-27T07:56:38.000Z</time>
      </trkpt>
      <trkpt lat="40.09522114880383014678955078125" lon="0.13333386741578578948974609375">
        <ele>12.80000019073486328125</ele>
        <time>2023-01-27T07:56:39.000Z</time>
      </trkpt>
      <trkpt lat="40.09528719820082187652587890625" lon="0.13335406780242919921875">
        <ele>12.6000003814697265625</ele>
        <time>2023-01-27T07:56:40.000Z</time>
      </trkpt>
      <trkpt lat="40.09535425342619419097900390625" lon="0.133378542959690093994140625">
        <ele>12.3999996185302734375</ele>
        <time>2023-01-27T07:56:41.000Z</time>
      </trkpt>
      <trkpt lat="40.095405466854572296142578125" lon="0.13339740224182605743408203125">
        <ele>12</ele>
        <time>2023-01-27T07:56:42.000Z</time>
      </trkpt>
      <trkpt lat="40.0954492203891277313232421875" lon="0.133403353393077850341796875">
        <ele>11.80000019073486328125</ele>
        <time>2023-01-27T07:56:43.000Z</time>
      </trkpt>
      <trkpt lat="40.0954797305166721343994140625" lon="0.13338851742446422576904296875">
        <ele>11.6000003814697265625</ele>
        <time>2023-01-27T07:56:44.000Z</time>
      </trkpt>
      <trkpt lat="40.0955132581293582916259765625" lon="0.13334803283214569091796875">
        <ele>11.3999996185302734375</ele>
        <time>2023-01-27T07:56:45.000Z</time>
      </trkpt>
      <trkpt lat="40.0955373980104923248291015625" lon="0.13328273780643939971923828125">
        <ele>11.19999980926513671875</ele>
        <time>2023-01-27T07:56:46.000Z</time>
      </trkpt>
      <trkpt lat="40.095544941723346710205078125" lon="0.1332201249897480010986328125">
        <ele>11.19999980926513671875</ele>
        <time>2023-01-27T07:56:47.000Z</time>
      </trkpt>
      <trkpt lat="40.09555357508361339569091796875" lon="0.133158601820468902587890625">
        <ele>11</ele>
        <time>2023-01-27T07:56:48.000Z</time>
      </trkpt>
      <trkpt lat="40.09557469747960567474365234375" lon="0.13305139727890491485595703125">
        <ele>10.80000019073486328125</ele>
        <time>2023-01-27T07:56:50.000Z</time>
      </trkpt>
      <trkpt lat="40.095594227313995361328125" lon="0.13298098929226398468017578125">
        <ele>10.80000019073486328125</ele>
        <time>2023-01-27T07:56:51.000Z</time>
      </trkpt>
      <trkpt lat="40.09564627893269062042236328125" lon="0.13280086219310760498046875">
        <ele>10.6000003814697265625</ele>
        <time>2023-01-27T07:56:54.000Z</time>
      </trkpt>
      <trkpt lat="40.095670334994792938232421875" lon="0.1327202282845973968505859375">
        <ele>10.6000003814697265625</ele>
        <time>2023-01-27T07:56:55.000Z</time>
      </trkpt>
      <trkpt lat="40.09569145739078521728515625" lon="0.1326521672308444976806640625">
        <ele>10.3999996185302734375</ele>
        <time>2023-01-27T07:56:56.000Z</time>
      </trkpt>
      <trkpt lat="40.0957202911376953125" lon="0.13252417556941509246826171875">
        <ele>10.3999996185302734375</ele>
        <time>2023-01-27T07:56:58.000Z</time>
      </trkpt>
      <trkpt lat="40.095782987773418426513671875" lon="0.13235318474471569061279296875">
        <ele>10.3999996185302734375</ele>
        <time>2023-01-27T07:57:00.000Z</time>
      </trkpt>
      <trkpt lat="40.09583361446857452392578125" lon="0.13227523304522037506103515625">
        <ele>10.3999996185302734375</ele>
        <time>2023-01-27T07:57:01.000Z</time>
      </trkpt>
      <trkpt lat="40.09588700719177722930908203125" lon="0.13223089277744293212890625">
        <ele>10.3999996185302734375</ele>
        <time>2023-01-27T07:57:02.000Z</time>
      </trkpt>
      <trkpt lat="40.09593327529728412628173828125" lon="0.1322102732956409454345703125">
        <ele>10.3999996185302734375</ele>
        <time>2023-01-27T07:57:03.000Z</time>
      </trkpt>
      <trkpt lat="40.0959943793714046478271484375" lon="0.1321847923099994659423828125">
        <ele>10.3999996185302734375</ele>
        <time>2023-01-27T07:57:04.000Z</time>
      </trkpt>
      <trkpt lat="40.0960530526936054229736328125" lon="0.132171213626861572265625">
        <ele>10.3999996185302734375</ele>
        <time>2023-01-27T07:57:05.000Z</time>
      </trkpt>
      <trkpt lat="40.09611533023416996002197265625" lon="0.13217196799814701080322265625">
        <ele>10.6000003814697265625</ele>
        <time>2023-01-27T07:57:06.000Z</time>
      </trkpt>
      <trkpt lat="40.09617961943149566650390625" lon="0.13218688778579235076904296875">
        <ele>10.6000003814697265625</ele>
        <time>2023-01-27T07:57:07.000Z</time>
      </trkpt>
      <trkpt lat="40.096235610544681549072265625" lon="0.13222360052168369293212890625">
        <ele>10.6000003814697265625</ele>
        <time>2023-01-27T07:57:08.000Z</time>
      </trkpt>
      <trkpt lat="40.0962822139263153076171875" lon="0.13227674178779125213623046875">
        <ele>10.6000003814697265625</ele>
        <time>2023-01-27T07:57:09.000Z</time>
      </trkpt>
      <trkpt lat="40.0963289849460124969482421875" lon="0.1323306374251842498779296875">
        <ele>10.80000019073486328125</ele>
        <time>2023-01-27T07:57:10.000Z</time>
      </trkpt>
      <trkpt lat="40.0963841378688812255859375" lon="0.132370032370090484619140625">
        <ele>10.80000019073486328125</ele>
        <time>2023-01-27T07:57:11.000Z</time>
      </trkpt>
      <trkpt lat="40.09644574485719203948974609375" lon="0.13238185085356235504150390625">
        <ele>11</ele>
        <time>2023-01-27T07:57:12.000Z</time>
      </trkpt>
      <trkpt lat="40.096506513655185699462890625" lon="0.13237397186458110809326171875">
        <ele>11</ele>
        <time>2023-01-27T07:57:13.000Z</time>
      </trkpt>
      <trkpt lat="40.096562169492244720458984375" lon="0.13234731741249561309814453125">
        <ele>11.19999980926513671875</ele>
        <time>2023-01-27T07:57:14.000Z</time>
      </trkpt>
      <trkpt lat="40.0966478325426578521728515625" lon="0.1322317309677600860595703125">
        <ele>11.6000003814697265625</ele>
        <time>2023-01-27T07:57:16.000Z</time>
      </trkpt>
      <trkpt lat="40.0966706313192844390869140625" lon="0.1320677809417247772216796875">
        <ele>11.6000003814697265625</ele>
        <time>2023-01-27T07:57:18.000Z</time>
      </trkpt>
      <trkpt lat="40.0966528616845607757568359375" lon="0.1319856382906436920166015625">
        <ele>11.80000019073486328125</ele>
        <time>2023-01-27T07:57:19.000Z</time>
      </trkpt>
      <trkpt lat="40.096600390970706939697265625" lon="0.1318236999213695526123046875">
        <ele>11.80000019073486328125</ele>
        <time>2023-01-27T07:57:21.000Z</time>
      </trkpt>
      <trkpt lat="40.0965945236384868621826171875" lon="0.131646506488323211669921875">
        <ele>12</ele>
        <time>2023-01-27T07:57:23.000Z</time>
      </trkpt>
      <trkpt lat="40.09661841206252574920654296875" lon="0.13156444765627384185791015625">
        <ele>12</ele>
        <time>2023-01-27T07:57:24.000Z</time>
      </trkpt>
      <trkpt lat="40.09665931575000286102294921875" lon="0.13149739243090152740478515625">
        <ele>12.19999980926513671875</ele>
        <time>2023-01-27T07:57:25.000Z</time>
      </trkpt>
      <trkpt lat="40.0967135466635227203369140625" lon="0.131453387439250946044921875">
        <ele>12.19999980926513671875</ele>
        <time>2023-01-27T07:57:26.000Z</time>
      </trkpt>
      <trkpt lat="40.09677515365183353424072265625" lon="0.131433941423892974853515625">
        <ele>12.19999980926513671875</ele>
        <time>2023-01-27T07:57:27.000Z</time>
      </trkpt>
      <trkpt lat="40.09689937345683574676513671875" lon="0.13144525699317455291748046875">
        <ele>12.3999996185302734375</ele>
        <time>2023-01-27T07:57:29.000Z</time>
      </trkpt>
      <trkpt lat="40.09696056134998798370361328125" lon="0.1314465142786502838134765625">
        <ele>12.3999996185302734375</ele>
        <time>2023-01-27T07:57:30.000Z</time>
      </trkpt>
      <trkpt lat="40.097077153623104095458984375" lon="0.13138624839484691619873046875">
        <ele>12.80000019073486328125</ele>
        <time>2023-01-27T07:57:32.000Z</time>
      </trkpt>
      <trkpt lat="40.0971319712698459625244140625" lon="0.13133780099451541900634765625">
        <ele>13</ele>
        <time>2023-01-27T07:57:33.000Z</time>
      </trkpt>
      <trkpt lat="40.0971946679055690765380859375" lon="0.131275355815887451171875">
        <ele>13.3999996185302734375</ele>
        <time>2023-01-27T07:57:34.000Z</time>
      </trkpt>
      <trkpt lat="40.09724671952426433563232421875" lon="0.1312245614826679229736328125">
        <ele>13.3999996185302734375</ele>
        <time>2023-01-27T07:57:35.000Z</time>
      </trkpt>
      <trkpt lat="40.09728737175464630126953125" lon="0.131183154881000518798828125">
        <ele>13.6000003814697265625</ele>
        <time>2023-01-27T07:57:36.000Z</time>
      </trkpt>
      <trkpt lat="40.09739625267684459686279296875" lon="0.13106882572174072265625">
        <ele>13.80000019073486328125</ele>
        <time>2023-01-27T07:57:38.000Z</time>
      </trkpt>
      <trkpt lat="40.0975346378982067108154296875" lon="0.13090990483760833740234375">
        <ele>14.3999996185302734375</ele>
        <time>2023-01-27T07:57:41.000Z</time>
      </trkpt>
      <trkpt lat="40.097580738365650177001953125" lon="0.13086296617984771728515625">
        <ele>14.6000003814697265625</ele>
        <time>2023-01-27T07:57:42.000Z</time>
      </trkpt>
      <trkpt lat="40.09762533009052276611328125" lon="0.1308145187795162200927734375">
        <ele>14.6000003814697265625</ele>
        <time>2023-01-27T07:57:43.000Z</time>
      </trkpt>
      <trkpt lat="40.09766581468284130096435546875" lon="0.13076305389404296875">
        <ele>15</ele>
        <time>2023-01-27T07:57:44.000Z</time>
      </trkpt>
      <trkpt lat="40.097706131637096405029296875" lon="0.130712091922760009765625">
        <ele>15.3999996185302734375</ele>
        <time>2023-01-27T07:57:45.000Z</time>
      </trkpt>
      <trkpt lat="40.0977465324103832244873046875" lon="0.130662806332111358642578125">
        <ele>15.3999996185302734375</ele>
        <time>2023-01-27T07:57:46.000Z</time>
      </trkpt>
      <trkpt lat="40.09778819046914577484130859375" lon="0.1306123472750186920166015625">
        <ele>15.80000019073486328125</ele>
        <time>2023-01-27T07:57:47.000Z</time>
      </trkpt>
      <trkpt lat="40.0978293456137180328369140625" lon="0.1305610500276088714599609375">
        <ele>16</ele>
        <time>2023-01-27T07:57:48.000Z</time>
      </trkpt>
      <trkpt lat="40.097869746387004852294921875" lon="0.13051067478954792022705078125">
        <ele>16.3999996185302734375</ele>
        <time>2023-01-27T07:57:49.000Z</time>
      </trkpt>
      <trkpt lat="40.09791140444576740264892578125" lon="0.13046004809439182281494140625">
        <ele>16.799999237060546875</ele>
        <time>2023-01-27T07:57:50.000Z</time>
      </trkpt>
      <trkpt lat="40.09794392623007297515869140625" lon="0.13042015023529529571533203125">
        <ele>17</ele>
        <time>2023-01-27T07:57:51.000Z</time>
      </trkpt>
      <trkpt lat="40.0979916192591190338134765625" lon="0.130361728370189666748046875">
        <ele>17.200000762939453125</ele>
        <time>2023-01-27T07:57:52.000Z</time>
      </trkpt>
      <trkpt lat="40.09803143329918384552001953125" lon="0.13031621463596820831298828125">
        <ele>17.3999996185302734375</ele>
        <time>2023-01-27T07:57:53.000Z</time>
      </trkpt>
      <trkpt lat="40.0980712473392486572265625" lon="0.1302737183868885040283203125">
        <ele>17.6000003814697265625</ele>
        <time>2023-01-27T07:57:54.000Z</time>
      </trkpt>
      <trkpt lat="40.09810276329517364501953125" lon="0.1302401907742023468017578125">
        <ele>17.799999237060546875</ele>
        <time>2023-01-27T07:57:55.000Z</time>
      </trkpt>
      <trkpt lat="40.09814660064876079559326171875" lon="0.130186714231967926025390625">
        <ele>18</ele>
        <time>2023-01-27T07:57:56.000Z</time>
      </trkpt>
      <trkpt lat="40.09818322956562042236328125" lon="0.13014279305934906005859375">
        <ele>18.200000762939453125</ele>
        <time>2023-01-27T07:57:57.000Z</time>
      </trkpt>
      <trkpt lat="40.09821617044508457183837890625" lon="0.1300965249538421630859375">
        <ele>18.3999996185302734375</ele>
        <time>2023-01-27T07:57:58.000Z</time>
      </trkpt>
      <trkpt lat="40.0982511229813098907470703125" lon="0.1300527714192867279052734375">
        <ele>18.3999996185302734375</ele>
        <time>2023-01-27T07:57:59.000Z</time>
      </trkpt>
      <trkpt lat="40.09827920235693454742431640625" lon="0.13001781888306140899658203125">
        <ele>18.799999237060546875</ele>
        <time>2023-01-27T07:58:00.000Z</time>
      </trkpt>
      <trkpt lat="40.09832211770117282867431640625" lon="0.1299662701785564422607421875">
        <ele>18.799999237060546875</ele>
        <time>2023-01-27T07:58:01.000Z</time>
      </trkpt>
      <trkpt lat="40.09835681878030300140380859375" lon="0.1299257017672061920166015625">
        <ele>19.3999996185302734375</ele>
        <time>2023-01-27T07:58:02.000Z</time>
      </trkpt>
      <trkpt lat="40.09839118458330631256103515625" lon="0.12988530099391937255859375">
        <ele>19.6000003814697265625</ele>
        <time>2023-01-27T07:58:03.000Z</time>
      </trkpt>
      <trkpt lat="40.09842471219599246978759765625" lon="0.1298435591161251068115234375">
        <ele>19.799999237060546875</ele>
        <time>2023-01-27T07:58:04.000Z</time>
      </trkpt>
      <trkpt lat="40.09845639578998088836669921875" lon="0.12980290688574314117431640625">
        <ele>20.200000762939453125</ele>
        <time>2023-01-27T07:58:05.000Z</time>
      </trkpt>
      <trkpt lat="40.09849059395492076873779296875" lon="0.12976233847439289093017578125">
        <ele>20.3999996185302734375</ele>
        <time>2023-01-27T07:58:06.000Z</time>
      </trkpt>
      <trkpt lat="40.098526887595653533935546875" lon="0.129721350967884063720703125">
        <ele>20.6000003814697265625</ele>
        <time>2023-01-27T07:58:07.000Z</time>
      </trkpt>
      <trkpt lat="40.09855605661869049072265625" lon="0.1296866498887538909912109375">
        <ele>20.799999237060546875</ele>
        <time>2023-01-27T07:58:08.000Z</time>
      </trkpt>
      <trkpt lat="40.09859821759164333343505859375" lon="0.12963476590812206268310546875">
        <ele>21</ele>
        <time>2023-01-27T07:58:09.000Z</time>
      </trkpt>
      <trkpt lat="40.09863384068012237548828125" lon="0.12959168292582035064697265625">
        <ele>21.6000003814697265625</ele>
        <time>2023-01-27T07:58:10.000Z</time>
      </trkpt>
      <trkpt lat="40.09866870939731597900390625" lon="0.1295481808483600616455078125">
        <ele>21.799999237060546875</ele>
        <time>2023-01-27T07:58:11.000Z</time>
      </trkpt>
      <trkpt lat="40.0987044163048267364501953125" lon="0.12950618751347064971923828125">
        <ele>22</ele>
        <time>2023-01-27T07:58:12.000Z</time>
      </trkpt>
      <trkpt lat="40.09874045848846435546875" lon="0.1294650323688983917236328125">
        <ele>22.200000762939453125</ele>
        <time>2023-01-27T07:58:13.000Z</time>
      </trkpt>
      <trkpt lat="40.09877490811049938201904296875" lon="0.12942438013851642608642578125">
        <ele>22.3999996185302734375</ele>
        <time>2023-01-27T07:58:14.000Z</time>
      </trkpt>
      <trkpt lat="40.09880625642836093902587890625" lon="0.1293855719268321990966796875">
        <ele>22.799999237060546875</ele>
        <time>2023-01-27T07:58:15.000Z</time>
      </trkpt>
      <trkpt lat="40.09884028695523738861083984375" lon="0.129346512258052825927734375">
        <ele>23</ele>
        <time>2023-01-27T07:58:16.000Z</time>
      </trkpt>
      <trkpt lat="40.09887549094855785369873046875" lon="0.12930770404636859893798828125">
        <ele>23.200000762939453125</ele>
        <time>2023-01-27T07:58:17.000Z</time>
      </trkpt>
      <trkpt lat="40.0989126227796077728271484375" lon="0.1292717456817626953125">
        <ele>23.6000003814697265625</ele>
        <time>2023-01-27T07:58:18.000Z</time>
      </trkpt>
      <trkpt lat="40.09894975461065769195556640625" lon="0.1292400620877742767333984375">
        <ele>23.799999237060546875</ele>
        <time>2023-01-27T07:58:19.000Z</time>
      </trkpt>
      <trkpt lat="40.098989903926849365234375" lon="0.129214413464069366455078125">
        <ele>24</ele>
        <time>2023-01-27T07:58:20.000Z</time>
      </trkpt>
      <trkpt lat="40.099031142890453338623046875" lon="0.12919354252517223358154296875">
        <ele>24.200000762939453125</ele>
        <time>2023-01-27T07:58:21.000Z</time>
      </trkpt>
      <trkpt lat="40.09907179512083530426025390625" lon="0.1291756890714168548583984375">
        <ele>24.3999996185302734375</ele>
        <time>2023-01-27T07:58:22.000Z</time>
      </trkpt>
      <trkpt lat="40.09911823086440563201904296875" lon="0.1291703246533870697021484375">
        <ele>24.799999237060546875</ele>
        <time>2023-01-27T07:58:23.000Z</time>
      </trkpt>
      <trkpt lat="40.09916751645505428314208984375" lon="0.12917409650981426239013671875">
        <ele>25.200000762939453125</ele>
        <time>2023-01-27T07:58:24.000Z</time>
      </trkpt>
      <trkpt lat="40.09921814315021038055419921875" lon="0.1291854120790958404541015625">
        <ele>25.200000762939453125</ele>
        <time>2023-01-27T07:58:25.000Z</time>
      </trkpt>
      <trkpt lat="40.0992700271308422088623046875" lon="0.12920293025672435760498046875">
        <ele>25.799999237060546875</ele>
        <time>2023-01-27T07:58:26.000Z</time>
      </trkpt>
      <trkpt lat="40.09932207874953746795654296875" lon="0.1292232982814311981201171875">
        <ele>26</ele>
        <time>2023-01-27T07:58:27.000Z</time>
      </trkpt>
      <trkpt lat="40.09936918504536151885986328125" lon="0.12924467213451862335205078125">
        <ele>26.3999996185302734375</ele>
        <time>2023-01-27T07:58:28.000Z</time>
      </trkpt>
      <trkpt lat="40.09941679425537586212158203125" lon="0.12927015312016010284423828125">
        <ele>26.3999996185302734375</ele>
        <time>2023-01-27T07:58:29.000Z</time>
      </trkpt>
      <trkpt lat="40.09946524165570735931396484375" lon="0.129296220839023590087890625">
        <ele>26.6000003814697265625</ele>
        <time>2023-01-27T07:58:30.000Z</time>
      </trkpt>
      <trkpt lat="40.0995164550840854644775390625" lon="0.12932312674820423126220703125">
        <ele>26.799999237060546875</ele>
        <time>2023-01-27T07:58:31.000Z</time>
      </trkpt>
      <trkpt lat="40.0995707698166370391845703125" lon="0.1293490268290042877197265625">
        <ele>26.799999237060546875</ele>
        <time>2023-01-27T07:58:32.000Z</time>
      </trkpt>
      <trkpt lat="40.09962634183466434478759765625" lon="0.12937568128108978271484375">
        <ele>27</ele>
        <time>2023-01-27T07:58:33.000Z</time>
      </trkpt>
      <trkpt lat="40.0996847636997699737548828125" lon="0.129402168095111846923828125">
        <ele>27</ele>
        <time>2023-01-27T07:58:34.000Z</time>
      </trkpt>
      <trkpt lat="40.09974570013582706451416015625" lon="0.12943309731781482696533203125">
        <ele>27</ele>
        <time>2023-01-27T07:58:35.000Z</time>
      </trkpt>
      <trkpt lat="40.09979515336453914642333984375" lon="0.12945891357958316802978515625">
        <ele>27</ele>
        <time>2023-01-27T07:58:36.000Z</time>
      </trkpt>
      <trkpt lat="40.09987159632146358489990234375" lon="0.12949730269610881805419921875">
        <ele>27</ele>
        <time>2023-01-27T07:58:37.000Z</time>
      </trkpt>
      <trkpt lat="40.09993747808039188385009765625" lon="0.12952865101397037506103515625">
        <ele>27</ele>
        <time>2023-01-27T07:58:38.000Z</time>
      </trkpt>
      <trkpt lat="40.10000671260058879852294921875" lon="0.12955631129443645477294921875">
        <ele>27</ele>
        <time>2023-01-27T07:58:39.000Z</time>
      </trkpt>
      <trkpt lat="40.10007745586335659027099609375" lon="0.1295827142894268035888671875">
        <ele>27</ele>
        <time>2023-01-27T07:58:40.000Z</time>
      </trkpt>
      <trkpt lat="40.10014870204031467437744140625" lon="0.12961179949343204498291015625">
        <ele>26.799999237060546875</ele>
        <time>2023-01-27T07:58:41.000Z</time>
      </trkpt>
      <trkpt lat="40.1002222113311290740966796875" lon="0.129642225801944732666015625">
        <ele>26.799999237060546875</ele>
        <time>2023-01-27T07:58:42.000Z</time>
      </trkpt>
      <trkpt lat="40.10029681026935577392578125" lon="0.12966829352080821990966796875">
        <ele>26.6000003814697265625</ele>
        <time>2023-01-27T07:58:43.000Z</time>
      </trkpt>
      <trkpt lat="40.10037249885499477386474609375" lon="0.1296873204410076141357421875">
        <ele>26.3999996185302734375</ele>
        <time>2023-01-27T07:58:44.000Z</time>
      </trkpt>
      <trkpt lat="40.1004450023174285888671875" lon="0.1297030784189701080322265625">
        <ele>26.200000762939453125</ele>
        <time>2023-01-27T07:58:45.000Z</time>
      </trkpt>
      <trkpt lat="40.1005155779421329498291015625" lon="0.129718668758869171142578125">
        <ele>26.200000762939453125</ele>
        <time>2023-01-27T07:58:46.000Z</time>
      </trkpt>
      <trkpt lat="40.10058372281491756439208984375" lon="0.12973736040294170379638671875">
        <ele>26</ele>
        <time>2023-01-27T07:58:47.000Z</time>
      </trkpt>
      <trkpt lat="40.10065128095448017120361328125" lon="0.12975529767572879791259765625">
        <ele>26</ele>
        <time>2023-01-27T07:58:48.000Z</time>
      </trkpt>
      <trkpt lat="40.1007170788943767547607421875" lon="0.12977105565369129180908203125">
        <ele>25.799999237060546875</ele>
        <time>2023-01-27T07:58:49.000Z</time>
      </trkpt>
      <trkpt lat="40.10091061703860759735107421875" lon="0.1298462413251399993896484375">
        <ele>25.6000003814697265625</ele>
        <time>2023-01-27T07:58:52.000Z</time>
      </trkpt>
      <trkpt lat="40.10097817517817020416259765625" lon="0.12987649999558925628662109375">
        <ele>25.6000003814697265625</ele>
        <time>2023-01-27T07:58:53.000Z</time>
      </trkpt>
      <trkpt lat="40.1010483317077159881591796875" lon="0.1299092732369899749755859375">
        <ele>25.6000003814697265625</ele>
        <time>2023-01-27T07:58:54.000Z</time>
      </trkpt>
      <trkpt lat="40.101189315319061279296875" lon="0.12998311780393123626708984375">
        <ele>25.3999996185302734375</ele>
        <time>2023-01-27T07:58:56.000Z</time>
      </trkpt>
      <trkpt lat="40.10140866972506046295166015625" lon="0.13009845279157161712646484375">
        <ele>25</ele>
        <time>2023-01-27T07:58:59.000Z</time>
      </trkpt>
      <trkpt lat="40.10155870579183101654052734375" lon="0.130175314843654632568359375">
        <ele>24.6000003814697265625</ele>
        <time>2023-01-27T07:59:01.000Z</time>
      </trkpt>
      <trkpt lat="40.101634562015533447265625" lon="0.1302120275795459747314453125">
        <ele>24.3999996185302734375</ele>
        <time>2023-01-27T07:59:02.000Z</time>
      </trkpt>
      <trkpt lat="40.10194075293838977813720703125" lon="0.1303459703922271728515625">
        <ele>23.200000762939453125</ele>
        <time>2023-01-27T07:59:06.000Z</time>
      </trkpt>
      <trkpt lat="40.1022528111934661865234375" lon="0.13046205975115299224853515625">
        <ele>22</ele>
        <time>2023-01-27T07:59:10.000Z</time>
      </trkpt>
      <trkpt lat="40.1023257337510585784912109375" lon="0.13046340085566043853759765625">
        <ele>21.3999996185302734375</ele>
        <time>2023-01-27T07:59:11.000Z</time>
      </trkpt>
      <trkpt lat="40.10239639319479465484619140625" lon="0.13043188489973545074462890625">
        <ele>21.200000762939453125</ele>
        <time>2023-01-27T07:59:12.000Z</time>
      </trkpt>
      <trkpt lat="40.10245892219245433807373046875" lon="0.130366422235965728759765625">
        <ele>20.799999237060546875</ele>
        <time>2023-01-27T07:59:13.000Z</time>
      </trkpt>
      <trkpt lat="40.10250954888761043548583984375" lon="0.13028486631810665130615234375">
        <ele>20.6000003814697265625</ele>
        <time>2023-01-27T07:59:14.000Z</time>
      </trkpt>
      <trkpt lat="40.10258012451231479644775390625" lon="0.1301085948944091796875">
        <ele>20</ele>
        <time>2023-01-27T07:59:16.000Z</time>
      </trkpt>
      <trkpt lat="40.102782882750034332275390625" lon="0.12959402985870838165283203125">
        <ele>19.200000762939453125</ele>
        <time>2023-01-27T07:59:24.000Z</time>
      </trkpt>
      <trkpt lat="40.10283141396939754486083984375" lon="0.12959897518157958984375">
        <ele>19.200000762939453125</ele>
        <time>2023-01-27T07:59:25.000Z</time>
      </trkpt>
      <trkpt lat="40.1028863154351711273193359375" lon="0.1296165771782398223876953125">
        <ele>19.200000762939453125</ele>
        <time>2023-01-27T07:59:26.000Z</time>
      </trkpt>
      <trkpt lat="40.10294280946254730224609375" lon="0.1296378672122955322265625">
        <ele>19.200000762939453125</ele>
        <time>2023-01-27T07:59:27.000Z</time>
      </trkpt>
      <trkpt lat="40.10298463515937328338623046875" lon="0.12965655885636806488037109375">
        <ele>19.799999237060546875</ele>
        <time>2023-01-27T07:59:28.000Z</time>
      </trkpt>
      <trkpt lat="40.1031679473817348480224609375" lon="0.12972612865269184112548828125">
        <ele>20.6000003814697265625</ele>
        <time>2023-01-27T07:59:31.000Z</time>
      </trkpt>
      <trkpt lat="40.10345569811761379241943359375" lon="0.129807852208614349365234375">
        <ele>21.3999996185302734375</ele>
        <time>2023-01-27T07:59:36.000Z</time>
      </trkpt>
      <trkpt lat="40.10364395566284656524658203125" lon="0.1298529468476772308349609375">
        <ele>21.799999237060546875</ele>
        <time>2023-01-27T07:59:39.000Z</time>
      </trkpt>
      <trkpt lat="40.10403312742710113525390625" lon="0.1299421302974224090576171875">
        <ele>21.799999237060546875</ele>
        <time>2023-01-27T07:59:45.000Z</time>
      </trkpt>
      <trkpt lat="40.104504190385341644287109375" lon="0.1300375163555145263671875">
        <ele>20.6000003814697265625</ele>
        <time>2023-01-27T07:59:52.000Z</time>
      </trkpt>
      <trkpt lat="40.1049001514911651611328125" lon="0.130114965140819549560546875">
        <ele>20</ele>
        <time>2023-01-27T07:59:58.000Z</time>
      </trkpt>
      <trkpt lat="40.10503065772354602813720703125" lon="0.13014254160225391387939453125">
        <ele>20</ele>
        <time>2023-01-27T08:00:00.000Z</time>
      </trkpt>
      <trkpt lat="40.1052255369722843170166015625" lon="0.1301942579448223114013671875">
        <ele>19.799999237060546875</ele>
        <time>2023-01-27T08:00:03.000Z</time>
      </trkpt>
      <trkpt lat="40.1054961048066616058349609375" lon="0.13023491017520427703857421875">
        <ele>19.3999996185302734375</ele>
        <time>2023-01-27T08:00:07.000Z</time>
      </trkpt>
      <trkpt lat="40.1056372560560703277587890625" lon="0.13025167398154735565185546875">
        <ele>19.200000762939453125</ele>
        <time>2023-01-27T08:00:09.000Z</time>
      </trkpt>
      <trkpt lat="40.10607655160129070281982421875" lon="0.1302609778940677642822265625">
        <ele>18.200000762939453125</ele>
        <time>2023-01-27T08:00:15.000Z</time>
      </trkpt>
      <trkpt lat="40.10629498399794101715087890625" lon="0.13026257045567035675048828125">
        <ele>17.6000003814697265625</ele>
        <time>2023-01-27T08:00:18.000Z</time>
      </trkpt>
      <trkpt lat="40.1064358837902545928955078125" lon="0.13025050051510334014892578125">
        <ele>17.3999996185302734375</ele>
        <time>2023-01-27T08:00:20.000Z</time>
      </trkpt>
      <trkpt lat="40.10650201700627803802490234375" lon="0.130231641232967376708984375">
        <ele>17.200000762939453125</ele>
        <time>2023-01-27T08:00:21.000Z</time>
      </trkpt>
      <trkpt lat="40.10662682354450225830078125" lon="0.13018964789807796478271484375">
        <ele>16.799999237060546875</ele>
        <time>2023-01-27T08:00:23.000Z</time>
      </trkpt>
      <trkpt lat="40.10668977163732051849365234375" lon="0.1301707886159420013427734375">
        <ele>16.200000762939453125</ele>
        <time>2023-01-27T08:00:24.000Z</time>
      </trkpt>
      <trkpt lat="40.10675280354917049407958984375" lon="0.1301540248095989227294921875">
        <ele>16.200000762939453125</ele>
        <time>2023-01-27T08:00:25.000Z</time>
      </trkpt>
      <trkpt lat="40.10681382380425930023193359375" lon="0.13013550080358982086181640625">
        <ele>15.6000003814697265625</ele>
        <time>2023-01-27T08:00:26.000Z</time>
      </trkpt>
      <trkpt lat="40.1068727485835552215576171875" lon="0.13011119328439235687255859375">
        <ele>15.6000003814697265625</ele>
        <time>2023-01-27T08:00:27.000Z</time>
      </trkpt>
      <trkpt lat="40.1069280691444873809814453125" lon="0.1300782524049282073974609375">
        <ele>15.6000003814697265625</ele>
        <time>2023-01-27T08:00:28.000Z</time>
      </trkpt>
      <trkpt lat="40.10697559453547000885009765625" lon="0.13003374449908733367919921875">
        <ele>15.6000003814697265625</ele>
        <time>2023-01-27T08:00:29.000Z</time>
      </trkpt>
      <trkpt lat="40.10702353902161121368408203125" lon="0.129984878003597259521484375">
        <ele>15.6000003814697265625</ele>
        <time>2023-01-27T08:00:30.000Z</time>
      </trkpt>
      <trkpt lat="40.10707383044064044952392578125" lon="0.12993249110877513885498046875">
        <ele>15.6000003814697265625</ele>
        <time>2023-01-27T08:00:31.000Z</time>
      </trkpt>
      <trkpt lat="40.107124038040637969970703125" lon="0.1298737339675426483154296875">
        <ele>15.6000003814697265625</ele>
        <time>2023-01-27T08:00:32.000Z</time>
      </trkpt>
      <trkpt lat="40.1071746647357940673828125" lon="0.12981631793081760406494140625">
        <ele>15.6000003814697265625</ele>
        <time>2023-01-27T08:00:33.000Z</time>
      </trkpt>
      <trkpt lat="40.1072774268686771392822265625" lon="0.1297008991241455078125">
        <ele>15.6000003814697265625</ele>
        <time>2023-01-27T08:00:35.000Z</time>
      </trkpt>
      <trkpt lat="40.10768227279186248779296875" lon="0.1292437501251697540283203125">
        <ele>15.6000003814697265625</ele>
        <time>2023-01-27T08:00:43.000Z</time>
      </trkpt>
      <trkpt lat="40.10796633549034595489501953125" lon="0.12892372906208038330078125">
        <ele>16.200000762939453125</ele>
        <time>2023-01-27T08:00:49.000Z</time>
      </trkpt>
      <trkpt lat="40.1080106757581233978271484375" lon="0.12887008488178253173828125">
        <ele>16.6000003814697265625</ele>
        <time>2023-01-27T08:00:50.000Z</time>
      </trkpt>
      <trkpt lat="40.108056105673313140869140625" lon="0.128815434873104095458984375">
        <ele>16.6000003814697265625</ele>
        <time>2023-01-27T08:00:51.000Z</time>
      </trkpt>
      <trkpt lat="40.10810203850269317626953125" lon="0.1287636347115039825439453125">
        <ele>16.799999237060546875</ele>
        <time>2023-01-27T08:00:52.000Z</time>
      </trkpt>
      <trkpt lat="40.10814771987497806549072265625" lon="0.1287113316357135772705078125">
        <ele>16.799999237060546875</ele>
        <time>2023-01-27T08:00:53.000Z</time>
      </trkpt>
      <trkpt lat="40.10818392969667911529541015625" lon="0.1286677457392215728759765625">
        <ele>17.200000762939453125</ele>
        <time>2023-01-27T08:00:54.000Z</time>
      </trkpt>
      <trkpt lat="40.108234472572803497314453125" lon="0.128598846495151519775390625">
        <ele>17.200000762939453125</ele>
        <time>2023-01-27T08:00:55.000Z</time>
      </trkpt>
      <trkpt lat="40.1082748733460903167724609375" lon="0.12853958643972873687744140625">
        <ele>17.200000762939453125</ele>
        <time>2023-01-27T08:00:56.000Z</time>
      </trkpt>
      <trkpt lat="40.108308233320713043212890625" lon="0.12849315069615840911865234375">
        <ele>17.3999996185302734375</ele>
        <time>2023-01-27T08:00:57.000Z</time>
      </trkpt>
      <trkpt lat="40.1083600334823131561279296875" lon="0.128425173461437225341796875">
        <ele>17.3999996185302734375</ele>
        <time>2023-01-27T08:00:58.000Z</time>
      </trkpt>
      <trkpt lat="40.10855575092136859893798828125" lon="0.128136165440082550048828125">
        <ele>18</ele>
        <time>2023-01-27T08:01:03.000Z</time>
      </trkpt>
      <trkpt lat="40.1085960678756237030029296875" lon="0.12808444909751415252685546875">
        <ele>18.200000762939453125</ele>
        <time>2023-01-27T08:01:04.000Z</time>
      </trkpt>
      <trkpt lat="40.10863504372537136077880859375" lon="0.1280293799936771392822265625">
        <ele>18.200000762939453125</ele>
        <time>2023-01-27T08:01:05.000Z</time>
      </trkpt>
      <trkpt lat="40.10867058299481868743896484375" lon="0.127973221242427825927734375">
        <ele>18.200000762939453125</ele>
        <time>2023-01-27T08:01:06.000Z</time>
      </trkpt>
      <trkpt lat="40.1086976565420627593994140625" lon="0.12792753987014293670654296875">
        <ele>18.799999237060546875</ele>
        <time>2023-01-27T08:01:07.000Z</time>
      </trkpt>
      <trkpt lat="40.10873462073504924774169921875" lon="0.12785914354026317596435546875">
        <ele>18.799999237060546875</ele>
        <time>2023-01-27T08:01:08.000Z</time>
      </trkpt>
      <trkpt lat="40.10876680724322795867919921875" lon="0.12780256569385528564453125">
        <ele>19.200000762939453125</ele>
        <time>2023-01-27T08:01:09.000Z</time>
      </trkpt>
      <trkpt lat="40.108801089227199554443359375" lon="0.12774783186614513397216796875">
        <ele>19.3999996185302734375</ele>
        <time>2023-01-27T08:01:10.000Z</time>
      </trkpt>
      <trkpt lat="40.10883905924856662750244140625" lon="0.1276924274861812591552734375">
        <ele>19.3999996185302734375</ele>
        <time>2023-01-27T08:01:11.000Z</time>
      </trkpt>
      <trkpt lat="40.108876861631870269775390625" lon="0.1276340894401073455810546875">
        <ele>20</ele>
        <time>2023-01-27T08:01:12.000Z</time>
      </trkpt>
      <trkpt lat="40.1089155860245227813720703125" lon="0.1275770924985408782958984375">
        <ele>20.200000762939453125</ele>
        <time>2023-01-27T08:01:13.000Z</time>
      </trkpt>
      <trkpt lat="40.10895556770265102386474609375" lon="0.12752152048051357269287109375">
        <ele>20.6000003814697265625</ele>
        <time>2023-01-27T08:01:14.000Z</time>
      </trkpt>
      <trkpt lat="40.10899722576141357421875" lon="0.12746720574796199798583984375">
        <ele>20.6000003814697265625</ele>
        <time>2023-01-27T08:01:15.000Z</time>
      </trkpt>
      <trkpt lat="40.10903955437242984771728515625" lon="0.12741364538669586181640625">
        <ele>20.799999237060546875</ele>
        <time>2023-01-27T08:01:16.000Z</time>
      </trkpt>
      <trkpt lat="40.10908146388828754425048828125" lon="0.1273594982922077178955078125">
        <ele>20.799999237060546875</ele>
        <time>2023-01-27T08:01:17.000Z</time>
      </trkpt>
      <trkpt lat="40.1091241277754306793212890625" lon="0.127305351197719573974609375">
        <ele>21.200000762939453125</ele>
        <time>2023-01-27T08:01:18.000Z</time>
      </trkpt>
      <trkpt lat="40.1091687195003032684326171875" lon="0.12725346721708774566650390625">
        <ele>21.3999996185302734375</ele>
        <time>2023-01-27T08:01:19.000Z</time>
      </trkpt>
      <trkpt lat="40.10920618660748004913330078125" lon="0.1272119767963886260986328125">
        <ele>21.3999996185302734375</ele>
        <time>2023-01-27T08:01:20.000Z</time>
      </trkpt>
      <trkpt lat="40.109261758625507354736328125" lon="0.1271519623696804046630859375">
        <ele>21.3999996185302734375</ele>
        <time>2023-01-27T08:01:21.000Z</time>
      </trkpt>
      <trkpt lat="40.1093098707497119903564453125" lon="0.127104856073856353759765625">
        <ele>21.799999237060546875</ele>
        <time>2023-01-27T08:01:22.000Z</time>
      </trkpt>
      <trkpt lat="40.10935806669294834136962890625" lon="0.127056576311588287353515625">
        <ele>22</ele>
        <time>2023-01-27T08:01:23.000Z</time>
      </trkpt>
      <trkpt lat="40.10940751992166042327880859375" lon="0.12700997292995452880859375">
        <ele>22</ele>
        <time>2023-01-27T08:01:24.000Z</time>
      </trkpt>
      <trkpt lat="40.10944842360913753509521484375" lon="0.12697384692728519439697265625">
        <ele>22</ele>
        <time>2023-01-27T08:01:25.000Z</time>
      </trkpt>
      <trkpt lat="40.10951061733067035675048828125" lon="0.12691886164247989654541015625">
        <ele>22</ele>
        <time>2023-01-27T08:01:26.000Z</time>
      </trkpt>
      <trkpt lat="40.10956476442515850067138671875" lon="0.12687309645116329193115234375">
        <ele>22</ele>
        <time>2023-01-27T08:01:27.000Z</time>
      </trkpt>
      <trkpt lat="40.1096210069954395294189453125" lon="0.12683018110692501068115234375">
        <ele>22.3999996185302734375</ele>
        <time>2023-01-27T08:01:28.000Z</time>
      </trkpt>
      <trkpt lat="40.10968110524117946624755859375" lon="0.1267935521900653839111328125">
        <ele>22.3999996185302734375</ele>
        <time>2023-01-27T08:01:29.000Z</time>
      </trkpt>
      <trkpt lat="40.10973039083182811737060546875" lon="0.126764886081218719482421875">
        <ele>22.6000003814697265625</ele>
        <time>2023-01-27T08:01:30.000Z</time>
      </trkpt>
      <trkpt lat="40.10980599559843540191650390625" lon="0.1267251558601856231689453125">
        <ele>22.6000003814697265625</ele>
        <time>2023-01-27T08:01:31.000Z</time>
      </trkpt>
      <trkpt lat="40.10985729284584522247314453125" lon="0.12670311145484447479248046875">
        <ele>22.6000003814697265625</ele>
        <time>2023-01-27T08:01:32.000Z</time>
      </trkpt>
      <trkpt lat="40.10991990566253662109375" lon="0.12667226605117321014404296875">
        <ele>22.6000003814697265625</ele>
        <time>2023-01-27T08:01:33.000Z</time>
      </trkpt>
      <trkpt lat="40.1099824346601963043212890625" lon="0.12664091773331165313720703125">
        <ele>22.6000003814697265625</ele>
        <time>2023-01-27T08:01:34.000Z</time>
      </trkpt>
      <trkpt lat="40.11004521511495113372802734375" lon="0.12660856358706951141357421875">
        <ele>22.6000003814697265625</ele>
        <time>2023-01-27T08:01:35.000Z</time>
      </trkpt>
      <trkpt lat="40.11010891757905483245849609375" lon="0.12657604180276393890380859375">
        <ele>22.6000003814697265625</ele>
        <time>2023-01-27T08:01:36.000Z</time>
      </trkpt>
      <trkpt lat="40.1101742126047611236572265625" lon="0.12654997408390045166015625">
        <ele>22.6000003814697265625</ele>
        <time>2023-01-27T08:01:37.000Z</time>
      </trkpt>
      <trkpt lat="40.1102382503449916839599609375" lon="0.12652524746954441070556640625">
        <ele>22.6000003814697265625</ele>
        <time>2023-01-27T08:01:38.000Z</time>
      </trkpt>
      <trkpt lat="40.1103009469807147979736328125" lon="0.1264978386461734771728515625">
        <ele>22.6000003814697265625</ele>
        <time>2023-01-27T08:01:39.000Z</time>
      </trkpt>
      <trkpt lat="40.1103629730641841888427734375" lon="0.12646992690861225128173828125">
        <ele>22.6000003814697265625</ele>
        <time>2023-01-27T08:01:40.000Z</time>
      </trkpt>
      <trkpt lat="40.1104249991476535797119140625" lon="0.1264465413987636566162109375">
        <ele>22.6000003814697265625</ele>
        <time>2023-01-27T08:01:41.000Z</time>
      </trkpt>
      <trkpt lat="40.11048794724047183990478515625" lon="0.12642885558307170867919921875">
        <ele>22.6000003814697265625</ele>
        <time>2023-01-27T08:01:42.000Z</time>
      </trkpt>
      <trkpt lat="40.11067771352827548980712890625" lon="0.12638225220143795013427734375">
        <ele>22.6000003814697265625</ele>
        <time>2023-01-27T08:01:45.000Z</time>
      </trkpt>
      <trkpt lat="40.11074267327785491943359375" lon="0.12637303210794925689697265625">
        <ele>22.6000003814697265625</ele>
        <time>2023-01-27T08:01:46.000Z</time>
      </trkpt>
      <trkpt lat="40.11128447949886322021484375" lon="0.12621561996638774871826171875">
        <ele>22.6000003814697265625</ele>
        <time>2023-01-27T08:01:54.000Z</time>
      </trkpt>
      <trkpt lat="40.11155546642839908599853515625" lon="0.12603289447724819183349609375">
        <ele>22.799999237060546875</ele>
        <time>2023-01-27T08:01:59.000Z</time>
      </trkpt>
      <trkpt lat="40.111610032618045806884765625" lon="0.12599232606589794158935546875">
        <ele>23.200000762939453125</ele>
        <time>2023-01-27T08:02:00.000Z</time>
      </trkpt>
      <trkpt lat="40.1116725616157054901123046875" lon="0.1259422861039638519287109375">
        <ele>23.200000762939453125</ele>
        <time>2023-01-27T08:02:01.000Z</time>
      </trkpt>
      <trkpt lat="40.1117124594748020172119140625" lon="0.12591219507157802581787109375">
        <ele>23.200000762939453125</ele>
        <time>2023-01-27T08:02:02.000Z</time>
      </trkpt>
      <trkpt lat="40.11176048777997493743896484375" lon="0.12587782926857471466064453125">
        <ele>23.3999996185302734375</ele>
        <time>2023-01-27T08:02:03.000Z</time>
      </trkpt>
      <trkpt lat="40.1118093542754650115966796875" lon="0.12584446929395198822021484375">
        <ele>23.3999996185302734375</ele>
        <time>2023-01-27T08:02:04.000Z</time>
      </trkpt>
      <trkpt lat="40.11186324991285800933837890625" lon="0.12580691836774349212646484375">
        <ele>24</ele>
        <time>2023-01-27T08:02:05.000Z</time>
      </trkpt>
      <trkpt lat="40.11190582998096942901611328125" lon="0.12578059919178485870361328125">
        <ele>24.3999996185302734375</ele>
        <time>2023-01-27T08:02:06.000Z</time>
      </trkpt>
      <trkpt lat="40.1119488291442394256591796875" lon="0.125756375491619110107421875">
        <ele>24.6000003814697265625</ele>
        <time>2023-01-27T08:02:07.000Z</time>
      </trkpt>
      <trkpt lat="40.1119840331375598907470703125" lon="0.12573801912367343902587890625">
        <ele>24.6000003814697265625</ele>
        <time>2023-01-27T08:02:08.000Z</time>
      </trkpt>
      <trkpt lat="40.11203742586076259613037109375" lon="0.12571555562317371368408203125">
        <ele>25.200000762939453125</ele>
        <time>2023-01-27T08:02:09.000Z</time>
      </trkpt>
      <trkpt lat="40.11208235286176204681396484375" lon="0.12569678016006946563720703125">
        <ele>25.6000003814697265625</ele>
        <time>2023-01-27T08:02:10.000Z</time>
      </trkpt>
      <trkpt lat="40.11212392710149288177490234375" lon="0.1256801001727581024169921875">
        <ele>25.799999237060546875</ele>
        <time>2023-01-27T08:02:11.000Z</time>
      </trkpt>
      <trkpt lat="40.112166590988636016845703125" lon="0.12566526420414447784423828125">
        <ele>26.3999996185302734375</ele>
        <time>2023-01-27T08:02:12.000Z</time>
      </trkpt>
      <trkpt lat="40.11221009306609630584716796875" lon="0.12565252371132373809814453125">
        <ele>27</ele>
        <time>2023-01-27T08:02:13.000Z</time>
      </trkpt>
      <trkpt lat="40.11225686408579349517822265625" lon="0.12564204633235931396484375">
        <ele>27.6000003814697265625</ele>
        <time>2023-01-27T08:02:14.000Z</time>
      </trkpt>
      <trkpt lat="40.11230430565774440765380859375" lon="0.125635005533695220947265625">
        <ele>27.799999237060546875</ele>
        <time>2023-01-27T08:02:15.000Z</time>
      </trkpt>
      <trkpt lat="40.112341605126857757568359375" lon="0.12563140131533145904541015625">
        <ele>28.200000762939453125</ele>
        <time>2023-01-27T08:02:16.000Z</time>
      </trkpt>
      <trkpt lat="40.1123890466988086700439453125" lon="0.12562603689730167388916015625">
        <ele>28.3999996185302734375</ele>
        <time>2023-01-27T08:02:17.000Z</time>
      </trkpt>
      <trkpt lat="40.11243707500398159027099609375" lon="0.125620253384113311767578125">
        <ele>29</ele>
        <time>2023-01-27T08:02:18.000Z</time>
      </trkpt>
      <trkpt lat="40.1124970056116580963134765625" lon="0.1256163977086544036865234375">
        <ele>29.200000762939453125</ele>
        <time>2023-01-27T08:02:19.000Z</time>
      </trkpt>
      <trkpt lat="40.1125389151275157928466796875" lon="0.1256153918802738189697265625">
        <ele>29.799999237060546875</ele>
        <time>2023-01-27T08:02:20.000Z</time>
      </trkpt>
      <trkpt lat="40.11260270141065120697021484375" lon="0.1256147213280200958251953125">
        <ele>30.200000762939453125</ele>
        <time>2023-01-27T08:02:21.000Z</time>
      </trkpt>
      <trkpt lat="40.11264628730714321136474609375" lon="0.1256137154996395111083984375">
        <ele>30.3999996185302734375</ele>
        <time>2023-01-27T08:02:22.000Z</time>
      </trkpt>
      <trkpt lat="40.11269808746874332427978515625" lon="0.12560985982418060302734375">
        <ele>30.3999996185302734375</ele>
        <time>2023-01-27T08:02:23.000Z</time>
      </trkpt>
      <trkpt lat="40.1127474568784236907958984375" lon="0.12560424394905567169189453125">
        <ele>30.6000003814697265625</ele>
        <time>2023-01-27T08:02:24.000Z</time>
      </trkpt>
      <trkpt lat="40.11280772276222705841064453125" lon="0.1255952753126621246337890625">
        <ele>30.799999237060546875</ele>
        <time>2023-01-27T08:02:25.000Z</time>
      </trkpt>
      <trkpt lat="40.11285600252449512481689453125" lon="0.125588737428188323974609375">
        <ele>31</ele>
        <time>2023-01-27T08:02:26.000Z</time>
      </trkpt>
      <trkpt lat="40.1129053719341754913330078125" lon="0.12558194808661937713623046875">
        <ele>31.200000762939453125</ele>
        <time>2023-01-27T08:02:27.000Z</time>
      </trkpt>
      <trkpt lat="40.112943761050701141357421875" lon="0.1255764998495578765869140625">
        <ele>31.6000003814697265625</ele>
        <time>2023-01-27T08:02:28.000Z</time>
      </trkpt>
      <trkpt lat="40.11300243437290191650390625" lon="0.12557365000247955322265625">
        <ele>31.799999237060546875</ele>
        <time>2023-01-27T08:02:29.000Z</time>
      </trkpt>
      <trkpt lat="40.11305130086839199066162109375" lon="0.12557591311633586883544921875">
        <ele>31.799999237060546875</ele>
        <time>2023-01-27T08:02:30.000Z</time>
      </trkpt>
      <trkpt lat="40.11309857480227947235107421875" lon="0.1255805231630802154541015625">
        <ele>32</ele>
        <time>2023-01-27T08:02:31.000Z</time>
      </trkpt>
      <trkpt lat="40.11314484290778636932373046875" lon="0.12558597140014171600341796875">
        <ele>32.200000762939453125</ele>
        <time>2023-01-27T08:02:32.000Z</time>
      </trkpt>
      <trkpt lat="40.11319060809910297393798828125" lon="0.12559301219880580902099609375">
        <ele>32.40000152587890625</ele>
        <time>2023-01-27T08:02:33.000Z</time>
      </trkpt>
      <trkpt lat="40.11323519982397556304931640625" lon="0.12560105882585048675537109375">
        <ele>32.799999237060546875</ele>
        <time>2023-01-27T08:02:34.000Z</time>
      </trkpt>
      <trkpt lat="40.11328062973916530609130859375" lon="0.1256091892719268798828125">
        <ele>33.200000762939453125</ele>
        <time>2023-01-27T08:02:35.000Z</time>
      </trkpt>
      <trkpt lat="40.11332505382597446441650390625" lon="0.1256172358989715576171875">
        <ele>33.200000762939453125</ele>
        <time>2023-01-27T08:02:36.000Z</time>
      </trkpt>
      <trkpt lat="40.11336796917021274566650390625" lon="0.1256257854402065277099609375">
        <ele>33.59999847412109375</ele>
        <time>2023-01-27T08:02:37.000Z</time>
      </trkpt>
      <trkpt lat="40.113413147628307342529296875" lon="0.12563760392367839813232421875">
        <ele>33.799999237060546875</ele>
        <time>2023-01-27T08:02:38.000Z</time>
      </trkpt>
      <trkpt lat="40.1134605892002582550048828125" lon="0.12564648874104022979736328125">
        <ele>34.40000152587890625</ele>
        <time>2023-01-27T08:02:39.000Z</time>
      </trkpt>
      <trkpt lat="40.11350828222930431365966796875" lon="0.12565302662551403045654296875">
        <ele>34.59999847412109375</ele>
        <time>2023-01-27T08:02:40.000Z</time>
      </trkpt>
      <trkpt lat="40.113555975258350372314453125" lon="0.125659145414829254150390625">
        <ele>35</ele>
        <time>2023-01-27T08:02:41.000Z</time>
      </trkpt>
      <trkpt lat="40.11360350064933300018310546875" lon="0.12566140852868556976318359375">
        <ele>35</ele>
        <time>2023-01-27T08:02:42.000Z</time>
      </trkpt>
      <trkpt lat="40.11365295387804508209228515625" lon="0.12565956450998783111572265625">
        <ele>35.200000762939453125</ele>
        <time>2023-01-27T08:02:43.000Z</time>
      </trkpt>
      <trkpt lat="40.11370190419256687164306640625" lon="0.12565470300614833831787109375">
        <ele>35.799999237060546875</ele>
        <time>2023-01-27T08:02:44.000Z</time>
      </trkpt>
      <trkpt lat="40.11374716646969318389892578125" lon="0.12564875185489654541015625">
        <ele>35.799999237060546875</ele>
        <time>2023-01-27T08:02:45.000Z</time>
      </trkpt>
      <trkpt lat="40.113794691860675811767578125" lon="0.12564028613269329071044921875">
        <ele>36.200000762939453125</ele>
        <time>2023-01-27T08:02:46.000Z</time>
      </trkpt>
      <trkpt lat="40.11384288780391216278076171875" lon="0.125629641115665435791015625">
        <ele>36.200000762939453125</ele>
        <time>2023-01-27T08:02:47.000Z</time>
      </trkpt>
      <trkpt lat="40.11389066465198993682861328125" lon="0.125618241727352142333984375">
        <ele>36.40000152587890625</ele>
        <time>2023-01-27T08:02:48.000Z</time>
      </trkpt>
      <trkpt lat="40.1139390282332897186279296875" lon="0.1256063394248485565185546875">
        <ele>36.40000152587890625</ele>
        <time>2023-01-27T08:02:49.000Z</time>
      </trkpt>
      <trkpt lat="40.11398739181458950042724609375" lon="0.125594772398471832275390625">
        <ele>36.59999847412109375</ele>
        <time>2023-01-27T08:02:50.000Z</time>
      </trkpt>
      <trkpt lat="40.11403634212911128997802734375" lon="0.1255775056779384613037109375">
        <ele>36.799999237060546875</ele>
        <time>2023-01-27T08:02:51.000Z</time>
      </trkpt>
      <trkpt lat="40.11408361606299877166748046875" lon="0.1255587302148342132568359375">
        <ele>36.799999237060546875</ele>
        <time>2023-01-27T08:02:52.000Z</time>
      </trkpt>
      <trkpt lat="40.11412820778787136077880859375" lon="0.1255339197814464569091796875">
        <ele>37</ele>
        <time>2023-01-27T08:02:53.000Z</time>
      </trkpt>
      <trkpt lat="40.1141733862459659576416015625" lon="0.12550785206258296966552734375">
        <ele>37.200000762939453125</ele>
        <time>2023-01-27T08:02:54.000Z</time>
      </trkpt>
      <trkpt lat="40.1142199896275997161865234375" lon="0.12547910213470458984375">
        <ele>37.40000152587890625</ele>
        <time>2023-01-27T08:02:55.000Z</time>
      </trkpt>
      <trkpt lat="40.114265419542789459228515625" lon="0.1254470832645893096923828125">
        <ele>37.40000152587890625</ele>
        <time>2023-01-27T08:02:56.000Z</time>
      </trkpt>
      <trkpt lat="40.11430925689637660980224609375" lon="0.12541229836642742156982421875">
        <ele>37.40000152587890625</ele>
        <time>2023-01-27T08:02:57.000Z</time>
      </trkpt>
      <trkpt lat="40.11435250751674175262451171875" lon="0.125378184020519256591796875">
        <ele>37.799999237060546875</ele>
        <time>2023-01-27T08:02:58.000Z</time>
      </trkpt>
      <trkpt lat="40.11439450085163116455078125" lon="0.12534306384623050689697265625">
        <ele>38</ele>
        <time>2023-01-27T08:02:59.000Z</time>
      </trkpt>
      <trkpt lat="40.1144359074532985687255859375" lon="0.1253072731196880340576171875">
        <ele>38</ele>
        <time>2023-01-27T08:03:00.000Z</time>
      </trkpt>
      <trkpt lat="40.114469267427921295166015625" lon="0.1252804510295391082763671875">
        <ele>38.200000762939453125</ele>
        <time>2023-01-27T08:03:01.000Z</time>
      </trkpt>
      <trkpt lat="40.11451746337115764617919921875" lon="0.12524147517979145050048828125">
        <ele>38.200000762939453125</ele>
        <time>2023-01-27T08:03:02.000Z</time>
      </trkpt>
      <trkpt lat="40.11455970816314220428466796875" lon="0.1252103783190250396728515625">
        <ele>38.40000152587890625</ele>
        <time>2023-01-27T08:03:03.000Z</time>
      </trkpt>
      <trkpt lat="40.1146032102406024932861328125" lon="0.12518364004790782928466796875">
        <ele>38.40000152587890625</ele>
        <time>2023-01-27T08:03:04.000Z</time>
      </trkpt>
      <trkpt lat="40.11464755050837993621826171875" lon="0.1251647807657718658447265625">
        <ele>38.59999847412109375</ele>
        <time>2023-01-27T08:03:05.000Z</time>
      </trkpt>
      <trkpt lat="40.1146937347948551177978515625" lon="0.12515229173004627227783203125">
        <ele>38.799999237060546875</ele>
        <time>2023-01-27T08:03:06.000Z</time>
      </trkpt>
      <trkpt lat="40.11473924852907657623291015625" lon="0.1251399703323841094970703125">
        <ele>39</ele>
        <time>2023-01-27T08:03:07.000Z</time>
      </trkpt>
      <trkpt lat="40.1147832535207271575927734375" lon="0.12512764893472194671630859375">
        <ele>39</ele>
        <time>2023-01-27T08:03:08.000Z</time>
      </trkpt>
      <trkpt lat="40.11483144946396350860595703125" lon="0.12511876411736011505126953125">
        <ele>39.200000762939453125</ele>
        <time>2023-01-27T08:03:09.000Z</time>
      </trkpt>
      <trkpt lat="40.1148848421871662139892578125" lon="0.12511071749031543731689453125">
        <ele>39.200000762939453125</ele>
        <time>2023-01-27T08:03:10.000Z</time>
      </trkpt>
      <trkpt lat="40.11492935009300708770751953125" lon="0.1251020841300487518310546875">
        <ele>39.40000152587890625</ele>
        <time>2023-01-27T08:03:11.000Z</time>
      </trkpt>
      <trkpt lat="40.11499799787998199462890625" lon="0.125093199312686920166015625">
        <ele>39.40000152587890625</ele>
        <time>2023-01-27T08:03:12.000Z</time>
      </trkpt>
      <trkpt lat="40.115056671202182769775390625" lon="0.12508691288530826568603515625">
        <ele>39.59999847412109375</ele>
        <time>2023-01-27T08:03:13.000Z</time>
      </trkpt>
      <trkpt lat="40.115115344524383544921875" lon="0.12508104555308818817138671875">
        <ele>39.59999847412109375</ele>
        <time>2023-01-27T08:03:14.000Z</time>
      </trkpt>
      <trkpt lat="40.11517561040818691253662109375" lon="0.1250742562115192413330078125">
        <ele>39.59999847412109375</ele>
        <time>2023-01-27T08:03:15.000Z</time>
      </trkpt>
      <trkpt lat="40.11523445136845111846923828125" lon="0.1250732503831386566162109375">
        <ele>39.59999847412109375</ele>
        <time>2023-01-27T08:03:16.000Z</time>
      </trkpt>
      <trkpt lat="40.11529563926160335540771484375" lon="0.12507786042988300323486328125">
        <ele>39.59999847412109375</ele>
        <time>2023-01-27T08:03:17.000Z</time>
      </trkpt>
      <trkpt lat="40.1153569109737873077392578125" lon="0.1250861585140228271484375">
        <ele>39.59999847412109375</ele>
        <time>2023-01-27T08:03:18.000Z</time>
      </trkpt>
      <trkpt lat="40.11541918851435184478759765625" lon="0.1250947080552577972412109375">
        <ele>39.59999847412109375</ele>
        <time>2023-01-27T08:03:19.000Z</time>
      </trkpt>
      <trkpt lat="40.115482807159423828125" lon="0.12510384432971477508544921875">
        <ele>39.59999847412109375</ele>
        <time>2023-01-27T08:03:20.000Z</time>
      </trkpt>
      <trkpt lat="40.11554508469998836517333984375" lon="0.12511457316577434539794921875">
        <ele>39.59999847412109375</ele>
        <time>2023-01-27T08:03:21.000Z</time>
      </trkpt>
      <trkpt lat="40.11560954153537750244140625" lon="0.1251302473247051239013671875">
        <ele>39.59999847412109375</ele>
        <time>2023-01-27T08:03:22.000Z</time>
      </trkpt>
      <trkpt lat="40.115663520991802215576171875" lon="0.1251500286161899566650390625">
        <ele>39.59999847412109375</ele>
        <time>2023-01-27T08:03:23.000Z</time>
      </trkpt>
      <trkpt lat="40.1157337613403797149658203125" lon="0.12517743743956089019775390625">
        <ele>39.59999847412109375</ele>
        <time>2023-01-27T08:03:24.000Z</time>
      </trkpt>
      <trkpt lat="40.11580660007894039154052734375" lon="0.1252087019383907318115234375">
        <ele>39.59999847412109375</ele>
        <time>2023-01-27T08:03:25.000Z</time>
      </trkpt>
      <trkpt lat="40.11616970412433147430419921875" lon="0.1253642700612545013427734375">
        <ele>38.799999237060546875</ele>
        <time>2023-01-27T08:03:30.000Z</time>
      </trkpt>
      <trkpt lat="40.11624296195805072784423828125" lon="0.12537390924990177154541015625">
        <ele>38.200000762939453125</ele>
        <time>2023-01-27T08:03:31.000Z</time>
      </trkpt>
      <trkpt lat="40.11640355922281742095947265625" lon="0.1253785192966461181640625">
        <ele>37.799999237060546875</ele>
        <time>2023-01-27T08:03:33.000Z</time>
      </trkpt>
      <trkpt lat="40.1165945827960968017578125" lon="0.12538480572402477264404296875">
        <ele>37.59999847412109375</ele>
        <time>2023-01-27T08:03:36.000Z</time>
      </trkpt>
      <trkpt lat="40.11666004545986652374267578125" lon="0.1253827102482318878173828125">
        <ele>37.59999847412109375</ele>
        <time>2023-01-27T08:03:37.000Z</time>
      </trkpt>
      <trkpt lat="40.1167369075119495391845703125" lon="0.1253820396959781646728515625">
        <ele>37.59999847412109375</ele>
        <time>2023-01-27T08:03:38.000Z</time>
      </trkpt>
      <trkpt lat="40.11691980063915252685546875" lon="0.1253892481327056884765625">
        <ele>37.59999847412109375</ele>
        <time>2023-01-27T08:03:41.000Z</time>
      </trkpt>
      <trkpt lat="40.11698761023581027984619140625" lon="0.1253890804946422576904296875">
        <ele>37.59999847412109375</ele>
        <time>2023-01-27T08:03:42.000Z</time>
      </trkpt>
      <trkpt lat="40.11733395047485828399658203125" lon="0.12539662420749664306640625">
        <ele>37.799999237060546875</ele>
        <time>2023-01-27T08:03:47.000Z</time>
      </trkpt>
      <trkpt lat="40.11788246221840381622314453125" lon="0.12541229836642742156982421875">
        <ele>38</ele>
        <time>2023-01-27T08:03:55.000Z</time>
      </trkpt>
      <trkpt lat="40.1180340908467769622802734375" lon="0.1254132203757762908935546875">
        <ele>38</ele>
        <time>2023-01-27T08:03:57.000Z</time>
      </trkpt>
      <trkpt lat="40.118500627577304840087890625" lon="0.125433169305324554443359375">
        <ele>37.40000152587890625</ele>
        <time>2023-01-27T08:04:04.000Z</time>
      </trkpt>
      <trkpt lat="40.11903715319931507110595703125" lon="0.1254997216165065765380859375">
        <ele>37</ele>
        <time>2023-01-27T08:04:12.000Z</time>
      </trkpt>
      <trkpt lat="40.11911141686141490936279296875" lon="0.125531740486621856689453125">
        <ele>36.799999237060546875</ele>
        <time>2023-01-27T08:04:13.000Z</time>
      </trkpt>
      <trkpt lat="40.11922172270715236663818359375" lon="0.125591754913330078125">
        <ele>36.799999237060546875</ele>
        <time>2023-01-27T08:04:15.000Z</time>
      </trkpt>
      <trkpt lat="40.119279138743877410888671875" lon="0.12562930583953857421875">
        <ele>36.799999237060546875</ele>
        <time>2023-01-27T08:04:16.000Z</time>
      </trkpt>
      <trkpt lat="40.11933454312384128570556640625" lon="0.125673227012157440185546875">
        <ele>36.799999237060546875</ele>
        <time>2023-01-27T08:04:17.000Z</time>
      </trkpt>
      <trkpt lat="40.11938986368477344512939453125" lon="0.12572058476507663726806640625">
        <ele>36.59999847412109375</ele>
        <time>2023-01-27T08:04:18.000Z</time>
      </trkpt>
      <trkpt lat="40.119443424046039581298828125" lon="0.1257699541747570037841796875">
        <ele>36.59999847412109375</ele>
        <time>2023-01-27T08:04:19.000Z</time>
      </trkpt>
      <trkpt lat="40.119664035737514495849609375" lon="0.1259684376418590545654296875">
        <ele>36.40000152587890625</ele>
        <time>2023-01-27T08:04:23.000Z</time>
      </trkpt>
      <trkpt lat="40.11972145177423954010009765625" lon="0.12600724585354328155517578125">
        <ele>36.40000152587890625</ele>
        <time>2023-01-27T08:04:24.000Z</time>
      </trkpt>
      <trkpt lat="40.1200841367244720458984375" lon="0.1261910609900951385498046875">
        <ele>36.799999237060546875</ele>
        <time>2023-01-27T08:04:30.000Z</time>
      </trkpt>
      <trkpt lat="40.120144821703433990478515625" lon="0.126213021576404571533203125">
        <ele>37</ele>
        <time>2023-01-27T08:04:31.000Z</time>
      </trkpt>
      <trkpt lat="40.12020894326269626617431640625" lon="0.12623213231563568115234375">
        <ele>37</ele>
        <time>2023-01-27T08:04:32.000Z</time>
      </trkpt>
      <trkpt lat="40.12027524411678314208984375" lon="0.12624613009393215179443359375">
        <ele>37.200000762939453125</ele>
        <time>2023-01-27T08:04:33.000Z</time>
      </trkpt>
      <trkpt lat="40.12055243365466594696044921875" lon="0.12624093331396579742431640625">
        <ele>37.59999847412109375</ele>
        <time>2023-01-27T08:04:37.000Z</time>
      </trkpt>
      <trkpt lat="40.12100354768335819244384765625" lon="0.12615795247256755828857421875">
        <ele>37.59999847412109375</ele>
        <time>2023-01-27T08:04:44.000Z</time>
      </trkpt>
      <trkpt lat="40.12107051908969879150390625" lon="0.12615434825420379638671875">
        <ele>37.40000152587890625</ele>
        <time>2023-01-27T08:04:45.000Z</time>
      </trkpt>
      <trkpt lat="40.1211357302963733673095703125" lon="0.1261528395116329193115234375">
        <ele>37.40000152587890625</ele>
        <time>2023-01-27T08:04:46.000Z</time>
      </trkpt>
      <trkpt lat="40.1212135143578052520751953125" lon="0.1261541806161403656005859375">
        <ele>37.40000152587890625</ele>
        <time>2023-01-27T08:04:47.000Z</time>
      </trkpt>
      <trkpt lat="40.12132876552641391754150390625" lon="0.1261605508625507354736328125">
        <ele>37.40000152587890625</ele>
        <time>2023-01-27T08:04:49.000Z</time>
      </trkpt>
      <trkpt lat="40.12139238417148590087890625" lon="0.126171112060546875">
        <ele>37.40000152587890625</ele>
        <time>2023-01-27T08:04:50.000Z</time>
      </trkpt>
      <trkpt lat="40.12145541608333587646484375" lon="0.12618108652532100677490234375">
        <ele>37.40000152587890625</ele>
        <time>2023-01-27T08:04:51.000Z</time>
      </trkpt>
      <trkpt lat="40.12151903472840785980224609375" lon="0.12619315646588802337646484375">
        <ele>37.200000762939453125</ele>
        <time>2023-01-27T08:04:52.000Z</time>
      </trkpt>
      <trkpt lat="40.12204206548631191253662109375" lon="0.12624210678040981292724609375">
        <ele>37.40000152587890625</ele>
        <time>2023-01-27T08:05:00.000Z</time>
      </trkpt>
      <trkpt lat="40.1222206838428974151611328125" lon="0.1262582838535308837890625">
        <ele>37.40000152587890625</ele>
        <time>2023-01-27T08:05:03.000Z</time>
      </trkpt>
      <trkpt lat="40.12228212319314479827880859375" lon="0.126261971890926361083984375">
        <ele>37.40000152587890625</ele>
        <time>2023-01-27T08:05:04.000Z</time>
      </trkpt>
      <trkpt lat="40.1223460771143436431884765625" lon="0.126260630786418914794921875">
        <ele>37.59999847412109375</ele>
        <time>2023-01-27T08:05:05.000Z</time>
      </trkpt>
      <trkpt lat="40.12240894138813018798828125" lon="0.12625484727323055267333984375">
        <ele>37.799999237060546875</ele>
        <time>2023-01-27T08:05:06.000Z</time>
      </trkpt>
      <trkpt lat="40.1224684529006481170654296875" lon="0.1262460462749004364013671875">
        <ele>37.799999237060546875</ele>
        <time>2023-01-27T08:05:07.000Z</time>
      </trkpt>
      <trkpt lat="40.1225264556705951690673828125" lon="0.12623724527657032012939453125">
        <ele>37.799999237060546875</ele>
        <time>2023-01-27T08:05:08.000Z</time>
      </trkpt>
      <trkpt lat="40.12258328497409820556640625" lon="0.1262289471924304962158203125">
        <ele>38</ele>
        <time>2023-01-27T08:05:09.000Z</time>
      </trkpt>
      <trkpt lat="40.12264003045856952667236328125" lon="0.12621813453733921051025390625">
        <ele>38</ele>
        <time>2023-01-27T08:05:10.000Z</time>
      </trkpt>
      <trkpt lat="40.12269887141883373260498046875" lon="0.12620707042515277862548828125">
        <ele>38</ele>
        <time>2023-01-27T08:05:11.000Z</time>
      </trkpt>
      <trkpt lat="40.12275922112166881561279296875" lon="0.1262027956545352935791015625">
        <ele>38</ele>
        <time>2023-01-27T08:05:12.000Z</time>
      </trkpt>
      <trkpt lat="40.12314344756305217742919921875" lon="0.12626037932932376861572265625">
        <ele>37.799999237060546875</ele>
        <time>2023-01-27T08:05:18.000Z</time>
      </trkpt>
      <trkpt lat="40.12318820692598819732666015625" lon="0.1262571103870868682861328125">
        <ele>37.799999237060546875</ele>
        <time>2023-01-27T08:05:19.000Z</time>
      </trkpt>
      <trkpt lat="40.1232291944324970245361328125" lon="0.12623406015336513519287109375">
        <ele>37.59999847412109375</ele>
        <time>2023-01-27T08:05:20.000Z</time>
      </trkpt>
      <trkpt lat="40.123265571892261505126953125" lon="0.126190222799777984619140625">
        <ele>37.59999847412109375</ele>
        <time>2023-01-27T08:05:21.000Z</time>
      </trkpt>
      <trkpt lat="40.12329784221947193145751953125" lon="0.12613750062882900238037109375">
        <ele>37.59999847412109375</ele>
        <time>2023-01-27T08:05:22.000Z</time>
      </trkpt>
      <trkpt lat="40.12332969345152378082275390625" lon="0.126082599163055419921875">
        <ele>37.59999847412109375</ele>
        <time>2023-01-27T08:05:23.000Z</time>
      </trkpt>
      <trkpt lat="40.12335819192230701446533203125" lon="0.12602292001247406005859375">
        <ele>37.40000152587890625</ele>
        <time>2023-01-27T08:05:24.000Z</time>
      </trkpt>
      <trkpt lat="40.1233834214508533477783203125" lon="0.125958882272243499755859375">
        <ele>37.40000152587890625</ele>
        <time>2023-01-27T08:05:25.000Z</time>
      </trkpt>
      <trkpt lat="40.12343329377472400665283203125" lon="0.12582468800246715545654296875">
        <ele>37.40000152587890625</ele>
        <time>2023-01-27T08:05:27.000Z</time>
      </trkpt>
      <trkpt lat="40.123698078095912933349609375" lon="0.1251728273928165435791015625">
        <ele>37.59999847412109375</ele>
        <time>2023-01-27T08:05:36.000Z</time>
      </trkpt>
      <trkpt lat="40.12393838725984096527099609375" lon="0.12459757737815380096435546875">
        <ele>39</ele>
        <time>2023-01-27T08:05:44.000Z</time>
      </trkpt>
      <trkpt lat="40.123999826610088348388671875" lon="0.12444988824427127838134765625">
        <ele>39</ele>
        <time>2023-01-27T08:05:46.000Z</time>
      </trkpt>
      <trkpt lat="40.1241776905953884124755859375" lon="0.12398720718920230865478515625">
        <ele>39.59999847412109375</ele>
        <time>2023-01-27T08:05:52.000Z</time>
      </trkpt>
      <trkpt lat="40.12427131645381450653076171875" lon="0.12376156635582447052001953125">
        <ele>39.799999237060546875</ele>
        <time>2023-01-27T08:05:55.000Z</time>
      </trkpt>
      <trkpt lat="40.124301575124263763427734375" lon="0.12368612922728061676025390625">
        <ele>40</ele>
        <time>2023-01-27T08:05:56.000Z</time>
      </trkpt>
      <trkpt lat="40.124420262873172760009765625" lon="0.12338697910308837890625">
        <ele>40.59999847412109375</ele>
        <time>2023-01-27T08:06:00.000Z</time>
      </trkpt>
      <trkpt lat="40.12452847324311733245849609375" lon="0.1231185905635356903076171875">
        <ele>41</ele>
        <time>2023-01-27T08:06:04.000Z</time>
      </trkpt>
      <trkpt lat="40.12456300668418407440185546875" lon="0.1230337657034397125244140625">
        <ele>41.200000762939453125</ele>
        <time>2023-01-27T08:06:05.000Z</time>
      </trkpt>
      <trkpt lat="40.12458479963243007659912109375" lon="0.12297785840928554534912109375">
        <ele>41.40000152587890625</ele>
        <time>2023-01-27T08:06:06.000Z</time>
      </trkpt>
      <trkpt lat="40.1246085204184055328369140625" lon="0.1229056902229785919189453125">
        <ele>41.799999237060546875</ele>
        <time>2023-01-27T08:06:07.000Z</time>
      </trkpt>
      <trkpt lat="40.12463760562241077423095703125" lon="0.1228188537061214447021484375">
        <ele>42</ele>
        <time>2023-01-27T08:06:08.000Z</time>
      </trkpt>
      <trkpt lat="40.1246653497219085693359375" lon="0.122746266424655914306640625">
        <ele>42.200000762939453125</ele>
        <time>2023-01-27T08:06:09.000Z</time>
      </trkpt>
      <trkpt lat="40.12469393201172351837158203125" lon="0.12267409823834896087646484375">
        <ele>42.200000762939453125</ele>
        <time>2023-01-27T08:06:10.000Z</time>
      </trkpt>
      <trkpt lat="40.12471924535930156707763671875" lon="0.12260285206139087677001953125">
        <ele>42.40000152587890625</ele>
        <time>2023-01-27T08:06:11.000Z</time>
      </trkpt>
      <trkpt lat="40.12474020011723041534423828125" lon="0.1225469447672367095947265625">
        <ele>42.59999847412109375</ele>
        <time>2023-01-27T08:06:12.000Z</time>
      </trkpt>
      <trkpt lat="40.12477154843509197235107421875" lon="0.122459270060062408447265625">
        <ele>42.59999847412109375</ele>
        <time>2023-01-27T08:06:13.000Z</time>
      </trkpt>
      <trkpt lat="40.1247979514300823211669921875" lon="0.12238643132150173187255859375">
        <ele>42.799999237060546875</ele>
        <time>2023-01-27T08:06:14.000Z</time>
      </trkpt>
      <trkpt lat="40.12482452206313610076904296875" lon="0.1223119162023067474365234375">
        <ele>42.799999237060546875</ele>
        <time>2023-01-27T08:06:15.000Z</time>
      </trkpt>
      <trkpt lat="40.12484648264944553375244140625" lon="0.1222525723278522491455078125">
        <ele>43</ele>
        <time>2023-01-27T08:06:16.000Z</time>
      </trkpt>
      <trkpt lat="40.12487062253057956695556640625" lon="0.12217587791383266448974609375">
        <ele>43.200000762939453125</ele>
        <time>2023-01-27T08:06:17.000Z</time>
      </trkpt>
      <trkpt lat="40.124896354973316192626953125" lon="0.1220835931599140167236328125">
        <ele>43.200000762939453125</ele>
        <time>2023-01-27T08:06:18.000Z</time>
      </trkpt>
      <trkpt lat="40.124916136264801025390625" lon="0.122006647288799285888671875">
        <ele>43.40000152587890625</ele>
        <time>2023-01-27T08:06:19.000Z</time>
      </trkpt>
      <trkpt lat="40.1249340735375881195068359375" lon="0.1219290308654308319091796875">
        <ele>43.59999847412109375</ele>
        <time>2023-01-27T08:06:20.000Z</time>
      </trkpt>
      <trkpt lat="40.1249505020678043365478515625" lon="0.121848396956920623779296875">
        <ele>43.59999847412109375</ele>
        <time>2023-01-27T08:06:21.000Z</time>
      </trkpt>
      <trkpt lat="40.124961398541927337646484375" lon="0.12178360484540462493896484375">
        <ele>43.59999847412109375</ele>
        <time>2023-01-27T08:06:22.000Z</time>
      </trkpt>
      <trkpt lat="40.12497724033892154693603515625" lon="0.1216869615018367767333984375">
        <ele>43.799999237060546875</ele>
        <time>2023-01-27T08:06:23.000Z</time>
      </trkpt>
      <trkpt lat="40.12499132193624973297119140625" lon="0.1216061599552631378173828125">
        <ele>43.799999237060546875</ele>
        <time>2023-01-27T08:06:24.000Z</time>
      </trkpt>
      <trkpt lat="40.12499995529651641845703125" lon="0.12153969146311283111572265625">
        <ele>43.799999237060546875</ele>
        <time>2023-01-27T08:06:25.000Z</time>
      </trkpt>
      <trkpt lat="40.1250125281512737274169921875" lon="0.1214579679071903228759765625">
        <ele>44</ele>
        <time>2023-01-27T08:06:26.000Z</time>
      </trkpt>
      <trkpt lat="40.12502820231020450592041015625" lon="0.1213600672781467437744140625">
        <ele>44.200000762939453125</ele>
        <time>2023-01-27T08:06:27.000Z</time>
      </trkpt>
      <trkpt lat="40.12504144571721553802490234375" lon="0.121277086436748504638671875">
        <ele>44.200000762939453125</ele>
        <time>2023-01-27T08:06:28.000Z</time>
      </trkpt>
      <trkpt lat="40.125051923096179962158203125" lon="0.12121045030653476715087890625">
        <ele>44.200000762939453125</ele>
        <time>2023-01-27T08:06:29.000Z</time>
      </trkpt>
      <trkpt lat="40.12506432831287384033203125" lon="0.12110936455428600311279296875">
        <ele>44.200000762939453125</ele>
        <time>2023-01-27T08:06:30.000Z</time>
      </trkpt>
      <trkpt lat="40.1250765658915042877197265625" lon="0.12102663516998291015625">
        <ele>44.40000152587890625</ele>
        <time>2023-01-27T08:06:31.000Z</time>
      </trkpt>
      <trkpt lat="40.1250893063843250274658203125" lon="0.120944492518901824951171875">
        <ele>44.40000152587890625</ele>
        <time>2023-01-27T08:06:32.000Z</time>
      </trkpt>
      <trkpt lat="40.1251077465713024139404296875" lon="0.1208631880581378936767578125">
        <ele>44.799999237060546875</ele>
        <time>2023-01-27T08:06:33.000Z</time>
      </trkpt>
      <trkpt lat="40.12512543238699436187744140625" lon="0.12079990468919277191162109375">
        <ele>45</ele>
        <time>2023-01-27T08:06:34.000Z</time>
      </trkpt>
      <trkpt lat="40.12515158392488956451416015625" lon="0.1207230426371097564697265625">
        <ele>45</ele>
        <time>2023-01-27T08:06:35.000Z</time>
      </trkpt>
      <trkpt lat="40.12518460862338542938232421875" lon="0.12063042260706424713134765625">
        <ele>45.200000762939453125</ele>
        <time>2023-01-27T08:06:36.000Z</time>
      </trkpt>
      <trkpt lat="40.12520849704742431640625" lon="0.12057174928486347198486328125">
        <ele>45.200000762939453125</ele>
        <time>2023-01-27T08:06:37.000Z</time>
      </trkpt>
      <trkpt lat="40.125239007174968719482421875" lon="0.12050217948853969573974609375">
        <ele>45.40000152587890625</ele>
        <time>2023-01-27T08:06:38.000Z</time>
      </trkpt>
      <trkpt lat="40.1252723671495914459228515625" lon="0.12043654918670654296875">
        <ele>45.40000152587890625</ele>
        <time>2023-01-27T08:06:39.000Z</time>
      </trkpt>
      <trkpt lat="40.125306732952594757080078125" lon="0.1203663088381290435791015625">
        <ele>45.59999847412109375</ele>
        <time>2023-01-27T08:06:40.000Z</time>
      </trkpt>
      <trkpt lat="40.1253380812704563140869140625" lon="0.1202975772321224212646484375">
        <ele>45.799999237060546875</ele>
        <time>2023-01-27T08:06:41.000Z</time>
      </trkpt>
      <trkpt lat="40.12537186034023761749267578125" lon="0.12021266855299472808837890625">
        <ele>46</ele>
        <time>2023-01-27T08:06:42.000Z</time>
      </trkpt>
      <trkpt lat="40.125400610268115997314453125" lon="0.120140500366687774658203125">
        <ele>46.200000762939453125</ele>
        <time>2023-01-27T08:06:43.000Z</time>
      </trkpt>
      <trkpt lat="40.12542969547212123870849609375" lon="0.12006833218038082122802734375">
        <ele>46.200000762939453125</ele>
        <time>2023-01-27T08:06:44.000Z</time>
      </trkpt>
      <trkpt lat="40.125461630523204803466796875" lon="0.11999733746051788330078125">
        <ele>46.40000152587890625</ele>
        <time>2023-01-27T08:06:45.000Z</time>
      </trkpt>
      <trkpt lat="40.12549272738397121429443359375" lon="0.11992760002613067626953125">
        <ele>46.40000152587890625</ele>
        <time>2023-01-27T08:06:46.000Z</time>
      </trkpt>
      <trkpt lat="40.12552273459732532501220703125" lon="0.1198550127446651458740234375">
        <ele>46.40000152587890625</ele>
        <time>2023-01-27T08:06:47.000Z</time>
      </trkpt>
      <trkpt lat="40.125552155077457427978515625" lon="0.119784772396087646484375">
        <ele>46.59999847412109375</ele>
        <time>2023-01-27T08:06:48.000Z</time>
      </trkpt>
      <trkpt lat="40.12558040209114551544189453125" lon="0.119713358581066131591796875">
        <ele>46.59999847412109375</ele>
        <time>2023-01-27T08:06:49.000Z</time>
      </trkpt>
      <trkpt lat="40.1256012730300426483154296875" lon="0.1196568645536899566650390625">
        <ele>47</ele>
        <time>2023-01-27T08:06:50.000Z</time>
      </trkpt>
      <trkpt lat="40.125631950795650482177734375" lon="0.119569189846515655517578125">
        <ele>47</ele>
        <time>2023-01-27T08:06:51.000Z</time>
      </trkpt>
      <trkpt lat="40.12565785087645053863525390625" lon="0.11949635110795497894287109375">
        <ele>47.40000152587890625</ele>
        <time>2023-01-27T08:06:52.000Z</time>
      </trkpt>
      <trkpt lat="40.1256817393004894256591796875" lon="0.11942443437874317169189453125">
        <ele>47.59999847412109375</ele>
        <time>2023-01-27T08:06:53.000Z</time>
      </trkpt>
      <trkpt lat="40.12569875456392765045166015625" lon="0.11936509050428867340087890625">
        <ele>47.799999237060546875</ele>
        <time>2023-01-27T08:06:54.000Z</time>
      </trkpt>
      <trkpt lat="40.12571744620800018310546875" lon="0.11929065920412540435791015625">
        <ele>47.799999237060546875</ele>
        <time>2023-01-27T08:06:55.000Z</time>
      </trkpt>
      <trkpt lat="40.1257404126226902008056640625" lon="0.11920340359210968017578125">
        <ele>48</ele>
        <time>2023-01-27T08:06:56.000Z</time>
      </trkpt>
      <trkpt lat="40.1257622055709362030029296875" lon="0.119134001433849334716796875">
        <ele>48.200000762939453125</ele>
        <time>2023-01-27T08:06:57.000Z</time>
      </trkpt>
      <trkpt lat="40.12578223831951618194580078125" lon="0.1190647669136524200439453125">
        <ele>48.200000762939453125</ele>
        <time>2023-01-27T08:06:58.000Z</time>
      </trkpt>
      <trkpt lat="40.12579631991684436798095703125" lon="0.11899176053702831268310546875">
        <ele>48.40000152587890625</ele>
        <time>2023-01-27T08:06:59.000Z</time>
      </trkpt>
      <trkpt lat="40.12580587528645992279052734375" lon="0.1189316622912883758544921875">
        <ele>48.59999847412109375</ele>
        <time>2023-01-27T08:07:00.000Z</time>
      </trkpt>
      <trkpt lat="40.12582481838762760162353515625" lon="0.1188448257744312286376953125">
        <ele>48.799999237060546875</ele>
        <time>2023-01-27T08:07:01.000Z</time>
      </trkpt>
      <trkpt lat="40.12584342621266841888427734375" lon="0.11877533979713916778564453125">
        <ele>49</ele>
        <time>2023-01-27T08:07:02.000Z</time>
      </trkpt>
      <trkpt lat="40.1258604414761066436767578125" lon="0.11870493181049823760986328125">
        <ele>49</ele>
        <time>2023-01-27T08:07:03.000Z</time>
      </trkpt>
      <trkpt lat="40.12587301433086395263671875" lon="0.1186312548816204071044921875">
        <ele>49.200000762939453125</ele>
        <time>2023-01-27T08:07:04.000Z</time>
      </trkpt>
      <trkpt lat="40.125883407890796661376953125" lon="0.1185581646859645843505859375">
        <ele>49.40000152587890625</ele>
        <time>2023-01-27T08:07:05.000Z</time>
      </trkpt>
      <trkpt lat="40.12589178979396820068359375" lon="0.118485577404499053955078125">
        <ele>49.59999847412109375</ele>
        <time>2023-01-27T08:07:06.000Z</time>
      </trkpt>
      <trkpt lat="40.125898830592632293701171875" lon="0.11841215193271636962890625">
        <ele>49.799999237060546875</ele>
        <time>2023-01-27T08:07:07.000Z</time>
      </trkpt>
      <trkpt lat="40.12590461410582065582275390625" lon="0.1183405704796314239501953125">
        <ele>49.799999237060546875</ele>
        <time>2023-01-27T08:07:08.000Z</time>
      </trkpt>
      <trkpt lat="40.125905536115169525146484375" lon="0.118281729519367218017578125">
        <ele>50</ele>
        <time>2023-01-27T08:07:09.000Z</time>
      </trkpt>
      <trkpt lat="40.1259005069732666015625" lon="0.11819078586995601654052734375">
        <ele>50</ele>
        <time>2023-01-27T08:07:10.000Z</time>
      </trkpt>
      <trkpt lat="40.12589589692652225494384765625" lon="0.11811568401753902435302734375">
        <ele>50.200000762939453125</ele>
        <time>2023-01-27T08:07:11.000Z</time>
      </trkpt>
      <trkpt lat="40.12588969431817531585693359375" lon="0.11804041452705860137939453125">
        <ele>50.40000152587890625</ele>
        <time>2023-01-27T08:07:12.000Z</time>
      </trkpt>
      <trkpt lat="40.12588240206241607666015625" lon="0.11796195991337299346923828125">
        <ele>50.40000152587890625</ele>
        <time>2023-01-27T08:07:13.000Z</time>
      </trkpt>
      <trkpt lat="40.1258755289018154144287109375" lon="0.1178973354399204254150390625">
        <ele>50.59999847412109375</ele>
        <time>2023-01-27T08:07:14.000Z</time>
      </trkpt>
      <trkpt lat="40.125870667397975921630859375" lon="0.11781670153141021728515625">
        <ele>50.59999847412109375</ele>
        <time>2023-01-27T08:07:15.000Z</time>
      </trkpt>
      <trkpt lat="40.12586806900799274444580078125" lon="0.1177374087274074554443359375">
        <ele>50.59999847412109375</ele>
        <time>2023-01-27T08:07:16.000Z</time>
      </trkpt>
      <trkpt lat="40.1258648000657558441162109375" lon="0.11765736155211925506591796875">
        <ele>50.59999847412109375</ele>
        <time>2023-01-27T08:07:17.000Z</time>
      </trkpt>
      <trkpt lat="40.1258580945432186126708984375" lon="0.11757706291973590850830078125">
        <ele>50.799999237060546875</ele>
        <time>2023-01-27T08:07:18.000Z</time>
      </trkpt>
      <trkpt lat="40.12584577314555644989013671875" lon="0.117499195039272308349609375">
        <ele>50.799999237060546875</ele>
        <time>2023-01-27T08:07:19.000Z</time>
      </trkpt>
      <trkpt lat="40.12583135627210140228271484375" lon="0.11742300353944301605224609375">
        <ele>51</ele>
        <time>2023-01-27T08:07:20.000Z</time>
      </trkpt>
      <trkpt lat="40.12581400573253631591796875" lon="0.11734605766832828521728515625">
        <ele>51.200000762939453125</ele>
        <time>2023-01-27T08:07:21.000Z</time>
      </trkpt>
      <trkpt lat="40.12579179368913173675537109375" lon="0.11726953089237213134765625">
        <ele>51.200000762939453125</ele>
        <time>2023-01-27T08:07:22.000Z</time>
      </trkpt>
      <trkpt lat="40.125764720141887664794921875" lon="0.117196105420589447021484375">
        <ele>51.200000762939453125</ele>
        <time>2023-01-27T08:07:23.000Z</time>
      </trkpt>
      <trkpt lat="40.12573462910950183868408203125" lon="0.11712376959621906280517578125">
        <ele>51.40000152587890625</ele>
        <time>2023-01-27T08:07:24.000Z</time>
      </trkpt>
      <trkpt lat="40.12570126913487911224365234375" lon="0.1170531101524829864501953125">
        <ele>51.40000152587890625</ele>
        <time>2023-01-27T08:07:25.000Z</time>
      </trkpt>
      <trkpt lat="40.12566589750349521636962890625" lon="0.11698597110807895660400390625">
        <ele>51.59999847412109375</ele>
        <time>2023-01-27T08:07:26.000Z</time>
      </trkpt>
      <trkpt lat="40.1256309449672698974609375" lon="0.11691925115883350372314453125">
        <ele>51.59999847412109375</ele>
        <time>2023-01-27T08:07:27.000Z</time>
      </trkpt>
      <trkpt lat="40.125597752630710601806640625" lon="0.11685035191476345062255859375">
        <ele>51.799999237060546875</ele>
        <time>2023-01-27T08:07:28.000Z</time>
      </trkpt>
      <trkpt lat="40.1255633868277072906494140625" lon="0.1167818717658519744873046875">
        <ele>52</ele>
        <time>2023-01-27T08:07:29.000Z</time>
      </trkpt>
      <trkpt lat="40.1255301944911479949951171875" lon="0.116715319454669952392578125">
        <ele>52.200000762939453125</ele>
        <time>2023-01-27T08:07:30.000Z</time>
      </trkpt>
      <trkpt lat="40.1254980079829692840576171875" lon="0.11664851568639278411865234375">
        <ele>52.200000762939453125</ele>
        <time>2023-01-27T08:07:31.000Z</time>
      </trkpt>
      <trkpt lat="40.12546665966510772705078125" lon="0.11657928116619586944580078125">
        <ele>52.40000152587890625</ele>
        <time>2023-01-27T08:07:32.000Z</time>
      </trkpt>
      <trkpt lat="40.12543371878564357757568359375" lon="0.11650979518890380859375">
        <ele>52.40000152587890625</ele>
        <time>2023-01-27T08:07:33.000Z</time>
      </trkpt>
      <trkpt lat="40.12539331801235675811767578125" lon="0.1164274848997592926025390625">
        <ele>52.40000152587890625</ele>
        <time>2023-01-27T08:07:34.000Z</time>
      </trkpt>
      <trkpt lat="40.12535744346678256988525390625" lon="0.11635934002697467803955078125">
        <ele>52.59999847412109375</ele>
        <time>2023-01-27T08:07:35.000Z</time>
      </trkpt>
      <trkpt lat="40.12532944791018962860107421875" lon="0.1163044385612010955810546875">
        <ele>52.59999847412109375</ele>
        <time>2023-01-27T08:07:36.000Z</time>
      </trkpt>
      <trkpt lat="40.1252961717545986175537109375" lon="0.1162370480597019195556640625">
        <ele>52.799999237060546875</ele>
        <time>2023-01-27T08:07:37.000Z</time>
      </trkpt>
      <trkpt lat="40.12526440434157848358154296875" lon="0.116169154644012451171875">
        <ele>52.799999237060546875</ele>
        <time>2023-01-27T08:07:38.000Z</time>
      </trkpt>
      <trkpt lat="40.125225596129894256591796875" lon="0.1160858385264873504638671875">
        <ele>52.799999237060546875</ele>
        <time>2023-01-27T08:07:39.000Z</time>
      </trkpt>
      <trkpt lat="40.125190056860446929931640625" lon="0.11601886712014675140380859375">
        <ele>52.799999237060546875</ele>
        <time>2023-01-27T08:07:40.000Z</time>
      </trkpt>
      <trkpt lat="40.12515644542872905731201171875" lon="0.1159503869712352752685546875">
        <ele>52.799999237060546875</ele>
        <time>2023-01-27T08:07:41.000Z</time>
      </trkpt>
      <trkpt lat="40.12513129971921443939208984375" lon="0.11589447967708110809326171875">
        <ele>53</ele>
        <time>2023-01-27T08:07:42.000Z</time>
      </trkpt>
      <trkpt lat="40.125100202858448028564453125" lon="0.11582591570913791656494140625">
        <ele>53</ele>
        <time>2023-01-27T08:07:43.000Z</time>
      </trkpt>
      <trkpt lat="40.12506273575127124786376953125" lon="0.11574201285839080810546875">
        <ele>53.200000762939453125</ele>
        <time>2023-01-27T08:07:44.000Z</time>
      </trkpt>
      <trkpt lat="40.1248826086521148681640625" lon="0.11533792130649089813232421875">
        <ele>54</ele>
        <time>2023-01-27T08:07:50.000Z</time>
      </trkpt>
      <trkpt lat="40.12482854537665843963623046875" lon="0.115213952958583831787109375">
        <ele>54.200000762939453125</ele>
        <time>2023-01-27T08:07:52.000Z</time>
      </trkpt>
      <trkpt lat="40.12466828338801860809326171875" lon="0.114772729575634002685546875">
        <ele>55</ele>
        <time>2023-01-27T08:07:58.000Z</time>
      </trkpt>
      <trkpt lat="40.12464246712625026702880859375" lon="0.11470156721770763397216796875">
        <ele>55</ele>
        <time>2023-01-27T08:07:59.000Z</time>
      </trkpt>
      <trkpt lat="40.124616734683513641357421875" lon="0.1146297343075275421142578125">
        <ele>55</ele>
        <time>2023-01-27T08:08:00.000Z</time>
      </trkpt>
      <trkpt lat="40.12459494173526763916015625" lon="0.11457231827080249786376953125">
        <ele>55.200000762939453125</ele>
        <time>2023-01-27T08:08:01.000Z</time>
      </trkpt>
      <trkpt lat="40.1245672814548015594482421875" lon="0.11450073681771755218505859375">
        <ele>55.40000152587890625</ele>
        <time>2023-01-27T08:08:02.000Z</time>
      </trkpt>
      <trkpt lat="40.12453769333660602569580078125" lon="0.11441490612924098968505859375">
        <ele>55.40000152587890625</ele>
        <time>2023-01-27T08:08:03.000Z</time>
      </trkpt>
      <trkpt lat="40.12451422400772571563720703125" lon="0.11434416286647319793701171875">
        <ele>55.40000152587890625</ele>
        <time>2023-01-27T08:08:04.000Z</time>
      </trkpt>
      <trkpt lat="40.12448874302208423614501953125" lon="0.1142706535756587982177734375">
        <ele>55.40000152587890625</ele>
        <time>2023-01-27T08:08:05.000Z</time>
      </trkpt>
      <trkpt lat="40.12446896173059940338134765625" lon="0.1142116449773311614990234375">
        <ele>55.59999847412109375</ele>
        <time>2023-01-27T08:08:06.000Z</time>
      </trkpt>
      <trkpt lat="40.1244428940117359161376953125" lon="0.1141385547816753387451171875">
        <ele>55.59999847412109375</ele>
        <time>2023-01-27T08:08:07.000Z</time>
      </trkpt>
      <trkpt lat="40.124411545693874359130859375" lon="0.11405088007450103759765625">
        <ele>55.59999847412109375</ele>
        <time>2023-01-27T08:08:08.000Z</time>
      </trkpt>
      <trkpt lat="40.12438598088920116424560546875" lon="0.1139809750020503997802734375">
        <ele>55.799999237060546875</ele>
        <time>2023-01-27T08:08:09.000Z</time>
      </trkpt>
      <trkpt lat="40.12436368502676486968994140625" lon="0.113925822079181671142578125">
        <ele>55.799999237060546875</ele>
        <time>2023-01-27T08:08:10.000Z</time>
      </trkpt>
      <trkpt lat="40.1243356056511402130126953125" lon="0.11385650373995304107666015625">
        <ele>55.799999237060546875</ele>
        <time>2023-01-27T08:08:11.000Z</time>
      </trkpt>
      <trkpt lat="40.12425304390490055084228515625" lon="0.1136292703449726104736328125">
        <ele>56.200000762939453125</ele>
        <time>2023-01-27T08:08:14.000Z</time>
      </trkpt>
      <trkpt lat="40.1242093741893768310546875" lon="0.11349407024681568145751953125">
        <ele>56.200000762939453125</ele>
        <time>2023-01-27T08:08:16.000Z</time>
      </trkpt>
      <trkpt lat="40.1240439154207706451416015625" lon="0.1130415312945842742919921875">
        <ele>57</ele>
        <time>2023-01-27T08:08:22.000Z</time>
      </trkpt>
      <trkpt lat="40.12391567230224609375" lon="0.11267163790762424468994140625">
        <ele>57.40000152587890625</ele>
        <time>2023-01-27T08:08:27.000Z</time>
      </trkpt>
      <trkpt lat="40.12389094568789005279541015625" lon="0.1125979609787464141845703125">
        <ele>57.40000152587890625</ele>
        <time>2023-01-27T08:08:28.000Z</time>
      </trkpt>
      <trkpt lat="40.12370310723781585693359375" lon="0.1120883412659168243408203125">
        <ele>58.200000762939453125</ele>
        <time>2023-01-27T08:08:35.000Z</time>
      </trkpt>
      <trkpt lat="40.123627670109272003173828125" lon="0.11196336708962917327880859375">
        <ele>58.40000152587890625</ele>
        <time>2023-01-27T08:08:37.000Z</time>
      </trkpt>
      <trkpt lat="40.1234833337366580963134765625" lon="0.11180042289197444915771484375">
        <ele>58.40000152587890625</ele>
        <time>2023-01-27T08:08:40.000Z</time>
      </trkpt>
      <trkpt lat="40.1230850256979465484619140625" lon="0.11147822253406047821044921875">
        <ele>59.40000152587890625</ele>
        <time>2023-01-27T08:08:47.000Z</time>
      </trkpt>
      <trkpt lat="40.1226773299276828765869140625" lon="0.1111341454088687896728515625">
        <ele>59.40000152587890625</ele>
        <time>2023-01-27T08:08:54.000Z</time>
      </trkpt>
      <trkpt lat="40.12244607321918010711669921875" lon="0.11093105189502239227294921875">
        <ele>58.40000152587890625</ele>
        <time>2023-01-27T08:08:58.000Z</time>
      </trkpt>
      <trkpt lat="40.12239209376275539398193359375" lon="0.110885202884674072265625">
        <ele>58.200000762939453125</ele>
        <time>2023-01-27T08:08:59.000Z</time>
      </trkpt>
      <trkpt lat="40.1223380304872989654541015625" lon="0.11083759367465972900390625">
        <ele>58</ele>
        <time>2023-01-27T08:09:00.000Z</time>
      </trkpt>
      <trkpt lat="40.12229603715240955352783203125" lon="0.110799372196197509765625">
        <ele>58</ele>
        <time>2023-01-27T08:09:01.000Z</time>
      </trkpt>
      <trkpt lat="40.1222431473433971405029296875" lon="0.11075167916715145111083984375">
        <ele>58</ele>
        <time>2023-01-27T08:09:02.000Z</time>
      </trkpt>
      <trkpt lat="40.1221801154315471649169921875" lon="0.1106979511678218841552734375">
        <ele>58</ele>
        <time>2023-01-27T08:09:03.000Z</time>
      </trkpt>
      <trkpt lat="40.1221268065273761749267578125" lon="0.11065294034779071807861328125">
        <ele>58</ele>
        <time>2023-01-27T08:09:04.000Z</time>
      </trkpt>
      <trkpt lat="40.12208447791635990142822265625" lon="0.1106168143451213836669921875">
        <ele>58.200000762939453125</ele>
        <time>2023-01-27T08:09:05.000Z</time>
      </trkpt>
      <trkpt lat="40.12203276157379150390625" lon="0.11057381518185138702392578125">
        <ele>58.40000152587890625</ele>
        <time>2023-01-27T08:09:06.000Z</time>
      </trkpt>
      <trkpt lat="40.12196931056678295135498046875" lon="0.1105202548205852508544921875">
        <ele>58.59999847412109375</ele>
        <time>2023-01-27T08:09:07.000Z</time>
      </trkpt>
      <trkpt lat="40.12191809713840484619140625" lon="0.11047641746699810028076171875">
        <ele>58.59999847412109375</ele>
        <time>2023-01-27T08:09:08.000Z</time>
      </trkpt>
      <trkpt lat="40.1218659617006778717041015625" lon="0.11043266393244266510009765625">
        <ele>58.799999237060546875</ele>
        <time>2023-01-27T08:09:09.000Z</time>
      </trkpt>
      <trkpt lat="40.12182463891804218292236328125" lon="0.11039846576750278472900390625">
        <ele>59</ele>
        <time>2023-01-27T08:09:10.000Z</time>
      </trkpt>
      <trkpt lat="40.12171014212071895599365234375" lon="0.11030609719455242156982421875">
        <ele>59.40000152587890625</ele>
        <time>2023-01-27T08:09:12.000Z</time>
      </trkpt>
      <trkpt lat="40.12160570360720157623291015625" lon="0.11022227816283702850341796875">
        <ele>59.799999237060546875</ele>
        <time>2023-01-27T08:09:14.000Z</time>
      </trkpt>
      <trkpt lat="40.12156362645328044891357421875" lon="0.110185481607913970947265625">
        <ele>60</ele>
        <time>2023-01-27T08:09:15.000Z</time>
      </trkpt>
      <trkpt lat="40.1215135864913463592529296875" lon="0.110139548778533935546875">
        <ele>60.200000762939453125</ele>
        <time>2023-01-27T08:09:16.000Z</time>
      </trkpt>
      <trkpt lat="40.1214535720646381378173828125" lon="0.1100860722362995147705078125">
        <ele>60.40000152587890625</ele>
        <time>2023-01-27T08:09:17.000Z</time>
      </trkpt>
      <trkpt lat="40.12125751934945583343505859375" lon="0.109915249049663543701171875">
        <ele>61.200000762939453125</ele>
        <time>2023-01-27T08:09:21.000Z</time>
      </trkpt>
      <trkpt lat="40.12121091596782207489013671875" lon="0.10987543500959873199462890625">
        <ele>61.59999847412109375</ele>
        <time>2023-01-27T08:09:22.000Z</time>
      </trkpt>
      <trkpt lat="40.12112944386899471282958984375" lon="0.10980754159390926361083984375">
        <ele>61.799999237060546875</ele>
        <time>2023-01-27T08:09:24.000Z</time>
      </trkpt>
      <trkpt lat="40.1210891269147396087646484375" lon="0.10976663790643215179443359375">
        <ele>61.799999237060546875</ele>
        <time>2023-01-27T08:09:25.000Z</time>
      </trkpt>
      <trkpt lat="40.12104026041924953460693359375" lon="0.1097119040787220001220703125">
        <ele>62</ele>
        <time>2023-01-27T08:09:26.000Z</time>
      </trkpt>
      <trkpt lat="40.121003799140453338623046875" lon="0.10966421104967594146728515625">
        <ele>62</ele>
        <time>2023-01-27T08:09:27.000Z</time>
      </trkpt>
      <trkpt lat="40.12096834369003772735595703125" lon="0.1096124947071075439453125">
        <ele>62.200000762939453125</ele>
        <time>2023-01-27T08:09:28.000Z</time>
      </trkpt>
      <trkpt lat="40.12094068340957164764404296875" lon="0.109569244086742401123046875">
        <ele>62.200000762939453125</ele>
        <time>2023-01-27T08:09:29.000Z</time>
      </trkpt>
      <trkpt lat="40.12090682052075862884521484375" lon="0.109517611563205718994140625">
        <ele>62.40000152587890625</ele>
        <time>2023-01-27T08:09:30.000Z</time>
      </trkpt>
      <trkpt lat="40.1208661682903766632080078125" lon="0.10945483110845088958740234375">
        <ele>62.799999237060546875</ele>
        <time>2023-01-27T08:09:31.000Z</time>
      </trkpt>
      <trkpt lat="40.1208299584686756134033203125" lon="0.10940219275653362274169921875">
        <ele>63</ele>
        <time>2023-01-27T08:09:32.000Z</time>
      </trkpt>
      <trkpt lat="40.1208034716546535491943359375" lon="0.1093585230410099029541015625">
        <ele>63.200000762939453125</ele>
        <time>2023-01-27T08:09:33.000Z</time>
      </trkpt>
      <trkpt lat="40.1207716204226016998291015625" lon="0.10930160991847515106201171875">
        <ele>63.200000762939453125</ele>
        <time>2023-01-27T08:09:34.000Z</time>
      </trkpt>
      <trkpt lat="40.12073415331542491912841796875" lon="0.10923388414084911346435546875">
        <ele>63.59999847412109375</ele>
        <time>2023-01-27T08:09:35.000Z</time>
      </trkpt>
      <trkpt lat="40.12070079334080219268798828125" lon="0.1091804914176464080810546875">
        <ele>63.59999847412109375</ele>
        <time>2023-01-27T08:09:36.000Z</time>
      </trkpt>
      <trkpt lat="40.120666511356830596923828125" lon="0.109126009047031402587890625">
        <ele>63.59999847412109375</ele>
        <time>2023-01-27T08:09:37.000Z</time>
      </trkpt>
      <trkpt lat="40.1206393539905548095703125" lon="0.1090800762176513671875">
        <ele>63.799999237060546875</ele>
        <time>2023-01-27T08:09:38.000Z</time>
      </trkpt>
      <trkpt lat="40.12060725130140781402587890625" lon="0.10902131907641887664794921875">
        <ele>63.799999237060546875</ele>
        <time>2023-01-27T08:09:39.000Z</time>
      </trkpt>
      <trkpt lat="40.1205758191645145416259765625" lon="0.10896163992583751678466796875">
        <ele>64</ele>
        <time>2023-01-27T08:09:40.000Z</time>
      </trkpt>
      <trkpt lat="40.120538771152496337890625" lon="0.10889659635722637176513671875">
        <ele>64</ele>
        <time>2023-01-27T08:09:41.000Z</time>
      </trkpt>
      <trkpt lat="40.12051102705299854278564453125" lon="0.10884932242333889007568359375">
        <ele>64.40000152587890625</ele>
        <time>2023-01-27T08:09:42.000Z</time>
      </trkpt>
      <trkpt lat="40.1204759068787097930908203125" lon="0.1087892241775989532470703125">
        <ele>64.40000152587890625</ele>
        <time>2023-01-27T08:09:43.000Z</time>
      </trkpt>
      <trkpt lat="40.12043039314448833465576171875" lon="0.10872124694287776947021484375">
        <ele>64.40000152587890625</ele>
        <time>2023-01-27T08:09:44.000Z</time>
      </trkpt>
      <trkpt lat="40.12039653025567531585693359375" lon="0.10867900215089321136474609375">
        <ele>64.8000030517578125</ele>
        <time>2023-01-27T08:09:45.000Z</time>
      </trkpt>
      <trkpt lat="40.12035395018756389617919921875" lon="0.10862745344638824462890625">
        <ele>64.59999847412109375</ele>
        <time>2023-01-27T08:09:46.000Z</time>
      </trkpt>
      <trkpt lat="40.12031338177621364593505859375" lon="0.108578838407993316650390625">
        <ele>64.59999847412109375</ele>
        <time>2023-01-27T08:09:47.000Z</time>
      </trkpt>
      <trkpt lat="40.12027063407003879547119140625" lon="0.10852946899831295013427734375">
        <ele>64.8000030517578125</ele>
        <time>2023-01-27T08:09:48.000Z</time>
      </trkpt>
      <trkpt lat="40.12022738344967365264892578125" lon="0.10848487727344036102294921875">
        <ele>64.8000030517578125</ele>
        <time>2023-01-27T08:09:49.000Z</time>
      </trkpt>
      <trkpt lat="40.1201833784580230712890625" lon="0.10843810625374317169189453125">
        <ele>65</ele>
        <time>2023-01-27T08:09:50.000Z</time>
      </trkpt>
      <trkpt lat="40.120132081210613250732421875" lon="0.10837993584573268890380859375">
        <ele>65</ele>
        <time>2023-01-27T08:09:51.000Z</time>
      </trkpt>
      <trkpt lat="40.120099894702434539794921875" lon="0.10833819396793842315673828125">
        <ele>65.1999969482421875</ele>
        <time>2023-01-27T08:09:52.000Z</time>
      </trkpt>
      <trkpt lat="40.12005932629108428955078125" lon="0.1082886569201946258544921875">
        <ele>65.40000152587890625</ele>
        <time>2023-01-27T08:09:53.000Z</time>
      </trkpt>
      <trkpt lat="40.12000677175819873809814453125" lon="0.1082293130457401275634765625">
        <ele>65.59999847412109375</ele>
        <time>2023-01-27T08:09:54.000Z</time>
      </trkpt>
      <trkpt lat="40.1199619285762310028076171875" lon="0.10817893780767917633056640625">
        <ele>65.8000030517578125</ele>
        <time>2023-01-27T08:09:55.000Z</time>
      </trkpt>
      <trkpt lat="40.11991742067039012908935546875" lon="0.10812680236995220184326171875">
        <ele>66</ele>
        <time>2023-01-27T08:09:56.000Z</time>
      </trkpt>
      <trkpt lat="40.1198824681341648101806640625" lon="0.10808958671987056732177734375">
        <ele>66.1999969482421875</ele>
        <time>2023-01-27T08:09:57.000Z</time>
      </trkpt>
      <trkpt lat="40.1198365353047847747802734375" lon="0.1080407202243804931640625">
        <ele>66.40000152587890625</ele>
        <time>2023-01-27T08:09:58.000Z</time>
      </trkpt>
      <trkpt lat="40.11978305876255035400390625" lon="0.1079791970551013946533203125">
        <ele>66.40000152587890625</ele>
        <time>2023-01-27T08:09:59.000Z</time>
      </trkpt>
      <trkpt lat="40.11973938904702663421630859375" lon="0.10792764835059642791748046875">
        <ele>66.59999847412109375</ele>
        <time>2023-01-27T08:10:00.000Z</time>
      </trkpt>
      <trkpt lat="40.1197034306824207305908203125" lon="0.10788674466311931610107421875">
        <ele>66.59999847412109375</ele>
        <time>2023-01-27T08:10:01.000Z</time>
      </trkpt>
      <trkpt lat="40.11965967714786529541015625" lon="0.107835195958614349365234375">
        <ele>66.59999847412109375</ele>
        <time>2023-01-27T08:10:02.000Z</time>
      </trkpt>
      <trkpt lat="40.11961399577558040618896484375" lon="0.1077844016253948211669921875">
        <ele>66.59999847412109375</ele>
        <time>2023-01-27T08:10:03.000Z</time>
      </trkpt>
      <trkpt lat="40.11956621892750263214111328125" lon="0.10773503221571445465087890625">
        <ele>66.59999847412109375</ele>
        <time>2023-01-27T08:10:04.000Z</time>
      </trkpt>
      <trkpt lat="40.11951911263167858123779296875" lon="0.1076841540634632110595703125">
        <ele>66.8000030517578125</ele>
        <time>2023-01-27T08:10:05.000Z</time>
      </trkpt>
      <trkpt lat="40.11947301216423511505126953125" lon="0.1076318509876728057861328125">
        <ele>66.8000030517578125</ele>
        <time>2023-01-27T08:10:06.000Z</time>
      </trkpt>
      <trkpt lat="40.11942389421164989471435546875" lon="0.10758139193058013916015625">
        <ele>66.8000030517578125</ele>
        <time>2023-01-27T08:10:07.000Z</time>
      </trkpt>
      <trkpt lat="40.11937561444938182830810546875" lon="0.10753101669251918792724609375">
        <ele>67</ele>
        <time>2023-01-27T08:10:08.000Z</time>
      </trkpt>
      <trkpt lat="40.11932716704905033111572265625" lon="0.1074779592454433441162109375">
        <ele>66.59999847412109375</ele>
        <time>2023-01-27T08:10:09.000Z</time>
      </trkpt>
      <trkpt lat="40.11927939020097255706787109375" lon="0.10742456652224063873291015625">
        <ele>67</ele>
        <time>2023-01-27T08:10:10.000Z</time>
      </trkpt>
      <trkpt lat="40.11922222562134265899658203125" lon="0.107362456619739532470703125">
        <ele>67</ele>
        <time>2023-01-27T08:10:11.000Z</time>
      </trkpt>
      <trkpt lat="40.1191743649542331695556640625" lon="0.1073113270103931427001953125">
        <ele>67</ele>
        <time>2023-01-27T08:10:12.000Z</time>
      </trkpt>
      <trkpt lat="40.11902307160198688507080078125" lon="0.1071617938578128814697265625">
        <ele>67.1999969482421875</ele>
        <time>2023-01-27T08:10:15.000Z</time>
      </trkpt>
      <trkpt lat="40.11893472634255886077880859375" lon="0.10707001201808452606201171875">
        <ele>67.40000152587890625</ele>
        <time>2023-01-27T08:10:17.000Z</time>
      </trkpt>
      <trkpt lat="40.11853490956127643585205078125" lon="0.1066501624882221221923828125">
        <ele>67.59999847412109375</ele>
        <time>2023-01-27T08:10:25.000Z</time>
      </trkpt>
      <trkpt lat="40.118186473846435546875" lon="0.1062894053757190704345703125">
        <ele>68.40000152587890625</ele>
        <time>2023-01-27T08:10:32.000Z</time>
      </trkpt>
      <trkpt lat="40.11784122325479984283447265625" lon="0.10592370294034481048583984375">
        <ele>69</ele>
        <time>2023-01-27T08:10:39.000Z</time>
      </trkpt>
      <trkpt lat="40.11774667538702487945556640625" lon="0.1058171689510345458984375">
        <ele>69.40000152587890625</ele>
        <time>2023-01-27T08:10:41.000Z</time>
      </trkpt>
      <trkpt lat="40.11749572120606899261474609375" lon="0.10548164136707782745361328125">
        <ele>69.59999847412109375</ele>
        <time>2023-01-27T08:10:47.000Z</time>
      </trkpt>
      <trkpt lat="40.1174456812441349029541015625" lon="0.1054129935801029205322265625">
        <ele>69.59999847412109375</ele>
        <time>2023-01-27T08:10:48.000Z</time>
      </trkpt>
      <trkpt lat="40.11732959188520908355712890625" lon="0.10524828918278217315673828125">
        <ele>70</ele>
        <time>2023-01-27T08:10:51.000Z</time>
      </trkpt>
      <trkpt lat="40.11727997101843357086181640625" lon="0.1051809825003147125244140625">
        <ele>70.1999969482421875</ele>
        <time>2023-01-27T08:10:52.000Z</time>
      </trkpt>
      <trkpt lat="40.1172007620334625244140625" lon="0.1050700061023235321044921875">
        <ele>70.59999847412109375</ele>
        <time>2023-01-27T08:10:54.000Z</time>
      </trkpt>
      <trkpt lat="40.117162205278873443603515625" lon="0.10501476936042308807373046875">
        <ele>70.8000030517578125</ele>
        <time>2023-01-27T08:10:55.000Z</time>
      </trkpt>
      <trkpt lat="40.11712322942912578582763671875" lon="0.10496011935174465179443359375">
        <ele>71</ele>
        <time>2023-01-27T08:10:56.000Z</time>
      </trkpt>
      <trkpt lat="40.1170842535793781280517578125" lon="0.10490345768630504608154296875">
        <ele>71.1999969482421875</ele>
        <time>2023-01-27T08:10:57.000Z</time>
      </trkpt>
      <trkpt lat="40.11704452335834503173828125" lon="0.10484696365892887115478515625">
        <ele>71.59999847412109375</ele>
        <time>2023-01-27T08:10:58.000Z</time>
      </trkpt>
      <trkpt lat="40.1170041225850582122802734375" lon="0.10479315184056758880615234375">
        <ele>71.59999847412109375</ele>
        <time>2023-01-27T08:10:59.000Z</time>
      </trkpt>
      <trkpt lat="40.116964392364025115966796875" lon="0.10473850183188915252685546875">
        <ele>71.8000030517578125</ele>
        <time>2023-01-27T08:11:00.000Z</time>
      </trkpt>
      <trkpt lat="40.11693111620843410491943359375" lon="0.104694999754428863525390625">
        <ele>72</ele>
        <time>2023-01-27T08:11:01.000Z</time>
      </trkpt>
      <trkpt lat="40.11689188890159130096435546875" lon="0.10463842190802097320556640625">
        <ele>72</ele>
        <time>2023-01-27T08:11:02.000Z</time>
      </trkpt>
      <trkpt lat="40.116852410137653350830078125" lon="0.10458243079483509063720703125">
        <ele>72.1999969482421875</ele>
        <time>2023-01-27T08:11:03.000Z</time>
      </trkpt>
      <trkpt lat="40.116813518106937408447265625" lon="0.104528367519378662109375">
        <ele>72.1999969482421875</ele>
        <time>2023-01-27T08:11:04.000Z</time>
      </trkpt>
      <trkpt lat="40.116773284971714019775390625" lon="0.1044728793203830718994140625">
        <ele>72.1999969482421875</ele>
        <time>2023-01-27T08:11:05.000Z</time>
      </trkpt>
      <trkpt lat="40.11673280037939548492431640625" lon="0.1044182293117046356201171875">
        <ele>72.40000152587890625</ele>
        <time>2023-01-27T08:11:06.000Z</time>
      </trkpt>
      <trkpt lat="40.11669055558741092681884765625" lon="0.10436332784593105316162109375">
        <ele>72.59999847412109375</ele>
        <time>2023-01-27T08:11:07.000Z</time>
      </trkpt>
      <trkpt lat="40.1166490651667118072509765625" lon="0.10431035421788692474365234375">
        <ele>72.8000030517578125</ele>
        <time>2023-01-27T08:11:08.000Z</time>
      </trkpt>
      <trkpt lat="40.11660858057439327239990234375" lon="0.10426006279885768890380859375">
        <ele>72.8000030517578125</ele>
        <time>2023-01-27T08:11:09.000Z</time>
      </trkpt>
      <trkpt lat="40.11656633578240871429443359375" lon="0.10420926846563816070556640625">
        <ele>73</ele>
        <time>2023-01-27T08:11:10.000Z</time>
      </trkpt>
      <trkpt lat="40.1165141165256500244140625" lon="0.10414707474410533905029296875">
        <ele>73.1999969482421875</ele>
        <time>2023-01-27T08:11:11.000Z</time>
      </trkpt>
      <trkpt lat="40.11647229082882404327392578125" lon="0.1040983758866786956787109375">
        <ele>73.40000152587890625</ele>
        <time>2023-01-27T08:11:12.000Z</time>
      </trkpt>
      <trkpt lat="40.11642585508525371551513671875" lon="0.10405034758150577545166015625">
        <ele>73.59999847412109375</ele>
        <time>2023-01-27T08:11:13.000Z</time>
      </trkpt>
      <trkpt lat="40.116377659142017364501953125" lon="0.1040024869143962860107421875">
        <ele>73.8000030517578125</ele>
        <time>2023-01-27T08:11:14.000Z</time>
      </trkpt>
      <trkpt lat="40.11632971465587615966796875" lon="0.10395512916147708892822265625">
        <ele>73.8000030517578125</ele>
        <time>2023-01-27T08:11:15.000Z</time>
      </trkpt>
      <trkpt lat="40.1162903197109699249267578125" lon="0.1039183326065540313720703125">
        <ele>73.8000030517578125</ele>
        <time>2023-01-27T08:11:16.000Z</time>
      </trkpt>
      <trkpt lat="40.11623022146522998809814453125" lon="0.10386544279754161834716796875">
        <ele>74</ele>
        <time>2023-01-27T08:11:17.000Z</time>
      </trkpt>
      <trkpt lat="40.11617959477007389068603515625" lon="0.10382235981523990631103515625">
        <ele>74</ele>
        <time>2023-01-27T08:11:18.000Z</time>
      </trkpt>
      <trkpt lat="40.1161307282745838165283203125" lon="0.10377760045230388641357421875">
        <ele>74.1999969482421875</ele>
        <time>2023-01-27T08:11:19.000Z</time>
      </trkpt>
      <trkpt lat="40.11608169414103031158447265625" lon="0.1037346012890338897705078125">
        <ele>74.1999969482421875</ele>
        <time>2023-01-27T08:11:20.000Z</time>
      </trkpt>
      <trkpt lat="40.1160435564815998077392578125" lon="0.1037000678479671478271484375">
        <ele>74.40000152587890625</ele>
        <time>2023-01-27T08:11:21.000Z</time>
      </trkpt>
      <trkpt lat="40.1159959472715854644775390625" lon="0.10365857742726802825927734375">
        <ele>74.40000152587890625</ele>
        <time>2023-01-27T08:11:22.000Z</time>
      </trkpt>
      <trkpt lat="40.115937106311321258544921875" lon="0.1036085374653339385986328125">
        <ele>74.40000152587890625</ele>
        <time>2023-01-27T08:11:23.000Z</time>
      </trkpt>
      <trkpt lat="40.11589008383452892303466796875" lon="0.1035652868449687957763671875">
        <ele>74.40000152587890625</ele>
        <time>2023-01-27T08:11:24.000Z</time>
      </trkpt>
      <trkpt lat="40.115841887891292572021484375" lon="0.103519521653652191162109375">
        <ele>74.40000152587890625</ele>
        <time>2023-01-27T08:11:25.000Z</time>
      </trkpt>
      <trkpt lat="40.1158028282225131988525390625" lon="0.103480629622936248779296875">
        <ele>74.59999847412109375</ele>
        <time>2023-01-27T08:11:26.000Z</time>
      </trkpt>
      <trkpt lat="40.1157454960048198699951171875" lon="0.10342237539589405059814453125">
        <ele>74.59999847412109375</ele>
        <time>2023-01-27T08:11:27.000Z</time>
      </trkpt>
      <trkpt lat="40.11570802889764308929443359375" lon="0.10338096879422664642333984375">
        <ele>74.59999847412109375</ele>
        <time>2023-01-27T08:11:28.000Z</time>
      </trkpt>
      <trkpt lat="40.11565287597477436065673828125" lon="0.10331667959690093994140625">
        <ele>74.59999847412109375</ele>
        <time>2023-01-27T08:11:29.000Z</time>
      </trkpt>
      <trkpt lat="40.11561146937310695648193359375" lon="0.1032595150172710418701171875">
        <ele>74.59999847412109375</ele>
        <time>2023-01-27T08:11:30.000Z</time>
      </trkpt>
      <trkpt lat="40.11557542718946933746337890625" lon="0.10320226661860942840576171875">
        <ele>74.59999847412109375</ele>
        <time>2023-01-27T08:11:31.000Z</time>
      </trkpt>
      <trkpt lat="40.1155413128435611724853515625" lon="0.10314627550542354583740234375">
        <ele>74.59999847412109375</ele>
        <time>2023-01-27T08:11:32.000Z</time>
      </trkpt>
      <trkpt lat="40.1155082881450653076171875" lon="0.1030935533344745635986328125">
        <ele>74.59999847412109375</ele>
        <time>2023-01-27T08:11:33.000Z</time>
      </trkpt>
      <trkpt lat="40.11547517962753772735595703125" lon="0.1030446030199527740478515625">
        <ele>74.59999847412109375</ele>
        <time>2023-01-27T08:11:34.000Z</time>
      </trkpt>
      <trkpt lat="40.11544584296643733978271484375" lon="0.1029946468770503997802734375">
        <ele>74.8000030517578125</ele>
        <time>2023-01-27T08:11:35.000Z</time>
      </trkpt>
      <trkpt lat="40.11541767977178096771240234375" lon="0.1029463671147823333740234375">
        <ele>74.8000030517578125</ele>
        <time>2023-01-27T08:11:36.000Z</time>
      </trkpt>
      <trkpt lat="40.115389935672283172607421875" lon="0.10289959609508514404296875">
        <ele>75</ele>
        <time>2023-01-27T08:11:37.000Z</time>
      </trkpt>
      <trkpt lat="40.11536101810634136199951171875" lon="0.102852322161197662353515625">
        <ele>75</ele>
        <time>2023-01-27T08:11:38.000Z</time>
      </trkpt>
      <trkpt lat="40.1153321005403995513916015625" lon="0.102805383503437042236328125">
        <ele>75.40000152587890625</ele>
        <time>2023-01-27T08:11:39.000Z</time>
      </trkpt>
      <trkpt lat="40.11527267284691333770751953125" lon="0.1027123443782329559326171875">
        <ele>75.8000030517578125</ele>
        <time>2023-01-27T08:11:41.000Z</time>
      </trkpt>
      <trkpt lat="40.11524098925292491912841796875" lon="0.10266959667205810546875">
        <ele>76</ele>
        <time>2023-01-27T08:11:42.000Z</time>
      </trkpt>
      <trkpt lat="40.1152107305824756622314453125" lon="0.10263271629810333251953125">
        <ele>76.40000152587890625</ele>
        <time>2023-01-27T08:11:43.000Z</time>
      </trkpt>
      <trkpt lat="40.11508726514875888824462890625" lon="0.10246600024402141571044921875">
        <ele>77</ele>
        <time>2023-01-27T08:11:47.000Z</time>
      </trkpt>
      <trkpt lat="40.11505541391670703887939453125" lon="0.10242358781397342681884765625">
        <ele>77.1999969482421875</ele>
        <time>2023-01-27T08:11:48.000Z</time>
      </trkpt>
      <trkpt lat="40.1150233112275600433349609375" lon="0.10238335467875003814697265625">
        <ele>77.59999847412109375</ele>
        <time>2023-01-27T08:11:49.000Z</time>
      </trkpt>
      <trkpt lat="40.11499129235744476318359375" lon="0.10234345681965351104736328125">
        <ele>77.8000030517578125</ele>
        <time>2023-01-27T08:11:50.000Z</time>
      </trkpt>
      <trkpt lat="40.1149664819240570068359375" lon="0.10231311433017253875732421875">
        <ele>78</ele>
        <time>2023-01-27T08:11:51.000Z</time>
      </trkpt>
      <trkpt lat="40.1149294339120388031005859375" lon="0.102263577282428741455078125">
        <ele>78.1999969482421875</ele>
        <time>2023-01-27T08:11:52.000Z</time>
      </trkpt>
      <trkpt lat="40.1148982532322406768798828125" lon="0.10222208686172962188720703125">
        <ele>78.1999969482421875</ele>
        <time>2023-01-27T08:11:53.000Z</time>
      </trkpt>
      <trkpt lat="40.11486656963825225830078125" lon="0.102177076041698455810546875">
        <ele>78.40000152587890625</ele>
        <time>2023-01-27T08:11:54.000Z</time>
      </trkpt>
      <trkpt lat="40.11483245529234409332275390625" lon="0.10213558562099933624267578125">
        <ele>78.59999847412109375</ele>
        <time>2023-01-27T08:11:55.000Z</time>
      </trkpt>
      <trkpt lat="40.11479641310870647430419921875" lon="0.10209552012383937835693359375">
        <ele>79</ele>
        <time>2023-01-27T08:11:56.000Z</time>
      </trkpt>
      <trkpt lat="40.1147604547441005706787109375" lon="0.102053023874759674072265625">
        <ele>79</ele>
        <time>2023-01-27T08:11:57.000Z</time>
      </trkpt>
      <trkpt lat="40.1147235743701457977294921875" lon="0.1020089350640773773193359375">
        <ele>79.1999969482421875</ele>
        <time>2023-01-27T08:11:58.000Z</time>
      </trkpt>
      <trkpt lat="40.11468686163425445556640625" lon="0.10196618735790252685546875">
        <ele>79.1999969482421875</ele>
        <time>2023-01-27T08:11:59.000Z</time>
      </trkpt>
      <trkpt lat="40.11464939452707767486572265625" lon="0.1019231043756008148193359375">
        <ele>79.40000152587890625</ele>
        <time>2023-01-27T08:12:00.000Z</time>
      </trkpt>
      <trkpt lat="40.11461016722023487091064453125" lon="0.10188044048845767974853515625">
        <ele>79.59999847412109375</ele>
        <time>2023-01-27T08:12:01.000Z</time>
      </trkpt>
      <trkpt lat="40.11457093991339206695556640625" lon="0.101838447153568267822265625">
        <ele>79.59999847412109375</ele>
        <time>2023-01-27T08:12:02.000Z</time>
      </trkpt>
      <trkpt lat="40.1145317964255809783935546875" lon="0.1017973758280277252197265625">
        <ele>79.8000030517578125</ele>
        <time>2023-01-27T08:12:03.000Z</time>
      </trkpt>
      <trkpt lat="40.11450103484094142913818359375" lon="0.10176829062402248382568359375">
        <ele>79.8000030517578125</ele>
        <time>2023-01-27T08:12:04.000Z</time>
      </trkpt>
      <trkpt lat="40.11445996351540088653564453125" lon="0.10173149406909942626953125">
        <ele>80</ele>
        <time>2023-01-27T08:12:05.000Z</time>
      </trkpt>
      <trkpt lat="40.114410929381847381591796875" lon="0.10168715380132198333740234375">
        <ele>80</ele>
        <time>2023-01-27T08:12:06.000Z</time>
      </trkpt>
      <trkpt lat="40.1143805868923664093017578125" lon="0.10165781714022159576416015625">
        <ele>80.1999969482421875</ele>
        <time>2023-01-27T08:12:07.000Z</time>
      </trkpt>
      <trkpt lat="40.11433281004428863525390625" lon="0.10161406360566616058349609375">
        <ele>80.1999969482421875</ele>
        <time>2023-01-27T08:12:08.000Z</time>
      </trkpt>
      <trkpt lat="40.11429467238485813140869140625" lon="0.101576261222362518310546875">
        <ele>80.40000152587890625</ele>
        <time>2023-01-27T08:12:09.000Z</time>
      </trkpt>
      <trkpt lat="40.11425544507801532745361328125" lon="0.1015422306954860687255859375">
        <ele>80.8000030517578125</ele>
        <time>2023-01-27T08:12:10.000Z</time>
      </trkpt>
      <trkpt lat="40.11421487666666507720947265625" lon="0.10151096619665622711181640625">
        <ele>81</ele>
        <time>2023-01-27T08:12:11.000Z</time>
      </trkpt>
      <trkpt lat="40.11417715810239315032958984375" lon="0.10147693566977977752685546875">
        <ele>81.1999969482421875</ele>
        <time>2023-01-27T08:12:12.000Z</time>
      </trkpt>
      <trkpt lat="40.11414748616516590118408203125" lon="0.10144650936126708984375">
        <ele>81.40000152587890625</ele>
        <time>2023-01-27T08:12:13.000Z</time>
      </trkpt>
      <trkpt lat="40.11410289444029331207275390625" lon="0.1014020852744579315185546875">
        <ele>81.59999847412109375</ele>
        <time>2023-01-27T08:12:14.000Z</time>
      </trkpt>
      <trkpt lat="40.1140640862286090850830078125" lon="0.10136931203305721282958984375">
        <ele>81.8000030517578125</ele>
        <time>2023-01-27T08:12:15.000Z</time>
      </trkpt>
      <trkpt lat="40.11402511037886142730712890625" lon="0.10133343748748302459716796875">
        <ele>81.8000030517578125</ele>
        <time>2023-01-27T08:12:16.000Z</time>
      </trkpt>
      <trkpt lat="40.11398688890039920806884765625" lon="0.10129831731319427490234375">
        <ele>82.1999969482421875</ele>
        <time>2023-01-27T08:12:17.000Z</time>
      </trkpt>
      <trkpt lat="40.11394632048904895782470703125" lon="0.1012605987489223480224609375">
        <ele>82.40000152587890625</ele>
        <time>2023-01-27T08:12:18.000Z</time>
      </trkpt>
      <trkpt lat="40.11390742845833301544189453125" lon="0.10122212581336498260498046875">
        <ele>82.59999847412109375</ele>
        <time>2023-01-27T08:12:19.000Z</time>
      </trkpt>
      <trkpt lat="40.11387557722628116607666015625" lon="0.101188011467456817626953125">
        <ele>82.8000030517578125</ele>
        <time>2023-01-27T08:12:20.000Z</time>
      </trkpt>
      <trkpt lat="40.11382461525499820709228515625" lon="0.101138390600681304931640625">
        <ele>82.8000030517578125</ele>
        <time>2023-01-27T08:12:21.000Z</time>
      </trkpt>
      <trkpt lat="40.11377985589206218719482421875" lon="0.10109773837029933929443359375">
        <ele>82.8000030517578125</ele>
        <time>2023-01-27T08:12:22.000Z</time>
      </trkpt>
      <trkpt lat="40.11373593471944332122802734375" lon="0.1010527275502681732177734375">
        <ele>82.8000030517578125</ele>
        <time>2023-01-27T08:12:23.000Z</time>
      </trkpt>
      <trkpt lat="40.11369368992745876312255859375" lon="0.10100771673023700714111328125">
        <ele>82.8000030517578125</ele>
        <time>2023-01-27T08:12:24.000Z</time>
      </trkpt>
      <trkpt lat="40.11365211568772792816162109375" lon="0.10096429847180843353271484375">
        <ele>82.8000030517578125</ele>
        <time>2023-01-27T08:12:25.000Z</time>
      </trkpt>
      <trkpt lat="40.1136107929050922393798828125" lon="0.10092146694660186767578125">
        <ele>82.8000030517578125</ele>
        <time>2023-01-27T08:12:26.000Z</time>
      </trkpt>
      <trkpt lat="40.1135665364563465118408203125" lon="0.1008810661733150482177734375">
        <ele>82.8000030517578125</ele>
        <time>2023-01-27T08:12:27.000Z</time>
      </trkpt>
      <trkpt lat="40.1135209389030933380126953125" lon="0.10083957575261592864990234375">
        <ele>82.8000030517578125</ele>
        <time>2023-01-27T08:12:28.000Z</time>
      </trkpt>
      <trkpt lat="40.1134766824543476104736328125" lon="0.10079515166580677032470703125">
        <ele>82.8000030517578125</ele>
        <time>2023-01-27T08:12:29.000Z</time>
      </trkpt>
      <trkpt lat="40.113431923091411590576171875" lon="0.10074703954160213470458984375">
        <ele>82.8000030517578125</ele>
        <time>2023-01-27T08:12:30.000Z</time>
      </trkpt>
      <trkpt lat="40.1133864931762218475341796875" lon="0.1006993465125560760498046875">
        <ele>82.8000030517578125</ele>
        <time>2023-01-27T08:12:31.000Z</time>
      </trkpt>
      <trkpt lat="40.1133425720036029815673828125" lon="0.1006524078547954559326171875">
        <ele>82.8000030517578125</ele>
        <time>2023-01-27T08:12:32.000Z</time>
      </trkpt>
      <trkpt lat="40.11330091394484043121337890625" lon="0.10060354135930538177490234375">
        <ele>82.8000030517578125</ele>
        <time>2023-01-27T08:12:33.000Z</time>
      </trkpt>
      <trkpt lat="40.11326721869409084320068359375" lon="0.10056347586214542388916015625">
        <ele>82.8000030517578125</ele>
        <time>2023-01-27T08:12:34.000Z</time>
      </trkpt>
      <trkpt lat="40.1132190227508544921875" lon="0.10049943812191486358642578125">
        <ele>82.59999847412109375</ele>
        <time>2023-01-27T08:12:35.000Z</time>
      </trkpt>
      <trkpt lat="40.1131813041865825653076171875" lon="0.10044462047517299652099609375">
        <ele>82.59999847412109375</ele>
        <time>2023-01-27T08:12:36.000Z</time>
      </trkpt>
      <trkpt lat="40.113083235919475555419921875" lon="0.1002703607082366943359375">
        <ele>82.59999847412109375</ele>
        <time>2023-01-27T08:12:39.000Z</time>
      </trkpt>
      <trkpt lat="40.11302548460662364959716796875" lon="0.10014832019805908203125">
        <ele>82.8000030517578125</ele>
        <time>2023-01-27T08:12:41.000Z</time>
      </trkpt>
      <trkpt lat="40.1128475368022918701171875" lon="0.0997768342494964599609375">
        <ele>83.40000152587890625</ele>
        <time>2023-01-27T08:12:47.000Z</time>
      </trkpt>
      <trkpt lat="40.11279053986072540283203125" lon="0.09965253062546253204345703125">
        <ele>83.59999847412109375</ele>
        <time>2023-01-27T08:12:49.000Z</time>
      </trkpt>
      <trkpt lat="40.11251569725573062896728515625" lon="0.09907049126923084259033203125">
        <ele>84.1999969482421875</ele>
        <time>2023-01-27T08:12:59.000Z</time>
      </trkpt>
      <trkpt lat="40.11248409748077392578125" lon="0.0990011729300022125244140625">
        <ele>84.1999969482421875</ele>
        <time>2023-01-27T08:13:00.000Z</time>
      </trkpt>
      <trkpt lat="40.11243590153753757476806640625" lon="0.09888139553368091583251953125">
        <ele>84.59999847412109375</ele>
        <time>2023-01-27T08:13:02.000Z</time>
      </trkpt>
      <trkpt lat="40.1124108396470546722412109375" lon="0.09882255457341670989990234375">
        <ele>84.8000030517578125</ele>
        <time>2023-01-27T08:13:03.000Z</time>
      </trkpt>
      <trkpt lat="40.112385861575603485107421875" lon="0.09876505471765995025634765625">
        <ele>85.1999969482421875</ele>
        <time>2023-01-27T08:13:04.000Z</time>
      </trkpt>
      <trkpt lat="40.11236147023737430572509765625" lon="0.098707638680934906005859375">
        <ele>85.40000152587890625</ele>
        <time>2023-01-27T08:13:05.000Z</time>
      </trkpt>
      <trkpt lat="40.112337581813335418701171875" lon="0.09865290485322475433349609375">
        <ele>85.40000152587890625</ele>
        <time>2023-01-27T08:13:06.000Z</time>
      </trkpt>
      <trkpt lat="40.1123132742941379547119140625" lon="0.09859867393970489501953125">
        <ele>85.40000152587890625</ele>
        <time>2023-01-27T08:13:07.000Z</time>
      </trkpt>
      <trkpt lat="40.1122934930026531219482421875" lon="0.09855668060481548309326171875">
        <ele>85.59999847412109375</ele>
        <time>2023-01-27T08:13:08.000Z</time>
      </trkpt>
      <trkpt lat="40.1122601330280303955078125" lon="0.09849582798779010772705078125">
        <ele>85.8000030517578125</ele>
        <time>2023-01-27T08:13:09.000Z</time>
      </trkpt>
      <trkpt lat="40.112232305109500885009765625" lon="0.0984483025968074798583984375">
        <ele>86.40000152587890625</ele>
        <time>2023-01-27T08:13:10.000Z</time>
      </trkpt>
      <trkpt lat="40.11220556683838367462158203125" lon="0.09839993901550769805908203125">
        <ele>86.40000152587890625</ele>
        <time>2023-01-27T08:13:11.000Z</time>
      </trkpt>
      <trkpt lat="40.11217891238629817962646484375" lon="0.09835459291934967041015625">
        <ele>86.59999847412109375</ele>
        <time>2023-01-27T08:13:12.000Z</time>
      </trkpt>
      <trkpt lat="40.1121526770293712615966796875" lon="0.09830824099481105804443359375">
        <ele>86.8000030517578125</ele>
        <time>2023-01-27T08:13:13.000Z</time>
      </trkpt>
      <trkpt lat="40.11212811805307865142822265625" lon="0.0982622243463993072509765625">
        <ele>87.40000152587890625</ele>
        <time>2023-01-27T08:13:14.000Z</time>
      </trkpt>
      <trkpt lat="40.11210146360099315643310546875" lon="0.09821654297411441802978515625">
        <ele>87.40000152587890625</ele>
        <time>2023-01-27T08:13:15.000Z</time>
      </trkpt>
      <trkpt lat="40.11207413859665393829345703125" lon="0.0981720350682735443115234375">
        <ele>88</ele>
        <time>2023-01-27T08:13:16.000Z</time>
      </trkpt>
      <trkpt lat="40.11205150745809078216552734375" lon="0.098124258220195770263671875">
        <ele>88</ele>
        <time>2023-01-27T08:13:17.000Z</time>
      </trkpt>
      <trkpt lat="40.11203415691852569580078125" lon="0.09808645583689212799072265625">
        <ele>88.40000152587890625</ele>
        <time>2023-01-27T08:13:18.000Z</time>
      </trkpt>
      <trkpt lat="40.11200306005775928497314453125" lon="0.09803096763789653778076171875">
        <ele>88.59999847412109375</ele>
        <time>2023-01-27T08:13:19.000Z</time>
      </trkpt>
      <trkpt lat="40.1119769923388957977294921875" lon="0.09798771701753139495849609375">
        <ele>89</ele>
        <time>2023-01-27T08:13:20.000Z</time>
      </trkpt>
      <trkpt lat="40.1119488291442394256591796875" lon="0.09794664569199085235595703125">
        <ele>89.40000152587890625</ele>
        <time>2023-01-27T08:13:21.000Z</time>
      </trkpt>
      <trkpt lat="40.11191957630217075347900390625" lon="0.09790423326194286346435546875">
        <ele>89.8000030517578125</ele>
        <time>2023-01-27T08:13:22.000Z</time>
      </trkpt>
      <trkpt lat="40.11188856326043605804443359375" lon="0.09786416776478290557861328125">
        <ele>90</ele>
        <time>2023-01-27T08:13:23.000Z</time>
      </trkpt>
      <trkpt lat="40.11185520328581333160400390625" lon="0.09782577864825725555419921875">
        <ele>90.40000152587890625</ele>
        <time>2023-01-27T08:13:24.000Z</time>
      </trkpt>
      <trkpt lat="40.11182368732988834381103515625" lon="0.09779023937880992889404296875">
        <ele>90.59999847412109375</ele>
        <time>2023-01-27T08:13:25.000Z</time>
      </trkpt>
      <trkpt lat="40.11179317720234394073486328125" lon="0.09775268845260143280029296875">
        <ele>90.59999847412109375</ele>
        <time>2023-01-27T08:13:26.000Z</time>
      </trkpt>
      <trkpt lat="40.11176325380802154541015625" lon="0.09771094657480716705322265625">
        <ele>91.1999969482421875</ele>
        <time>2023-01-27T08:13:27.000Z</time>
      </trkpt>
      <trkpt lat="40.11173349805176258087158203125" lon="0.0976674444973468780517578125">
        <ele>91.1999969482421875</ele>
        <time>2023-01-27T08:13:28.000Z</time>
      </trkpt>
      <trkpt lat="40.11170022189617156982421875" lon="0.09762310422956943511962890625">
        <ele>91.1999969482421875</ele>
        <time>2023-01-27T08:13:29.000Z</time>
      </trkpt>
      <trkpt lat="40.11166946031153202056884765625" lon="0.09757918305695056915283203125">
        <ele>91.40000152587890625</ele>
        <time>2023-01-27T08:13:30.000Z</time>
      </trkpt>
      <trkpt lat="40.11163643561303615570068359375" lon="0.09753643535077571868896484375">
        <ele>91.8000030517578125</ele>
        <time>2023-01-27T08:13:31.000Z</time>
      </trkpt>
      <trkpt lat="40.111604668200016021728515625" lon="0.09749452583491802215576171875">
        <ele>91.8000030517578125</ele>
        <time>2023-01-27T08:13:32.000Z</time>
      </trkpt>
      <trkpt lat="40.11157357133924961090087890625" lon="0.097453035414218902587890625">
        <ele>92.1999969482421875</ele>
        <time>2023-01-27T08:13:33.000Z</time>
      </trkpt>
      <trkpt lat="40.1115439832210540771484375" lon="0.09741313755512237548828125">
        <ele>92.1999969482421875</ele>
        <time>2023-01-27T08:13:34.000Z</time>
      </trkpt>
      <trkpt lat="40.1115144789218902587890625" lon="0.09737231768667697906494140625">
        <ele>92.59999847412109375</ele>
        <time>2023-01-27T08:13:35.000Z</time>
      </trkpt>
      <trkpt lat="40.111484639346599578857421875" lon="0.0973291508853435516357421875">
        <ele>92.59999847412109375</ele>
        <time>2023-01-27T08:13:36.000Z</time>
      </trkpt>
      <trkpt lat="40.11146276257932186126708984375" lon="0.09729453362524509429931640625">
        <ele>93</ele>
        <time>2023-01-27T08:13:37.000Z</time>
      </trkpt>
      <trkpt lat="40.1114340126514434814453125" lon="0.09725228883326053619384765625">
        <ele>93.1999969482421875</ele>
        <time>2023-01-27T08:13:38.000Z</time>
      </trkpt>
      <trkpt lat="40.11139847338199615478515625" lon="0.09720258414745330810546875">
        <ele>93.1999969482421875</ele>
        <time>2023-01-27T08:13:39.000Z</time>
      </trkpt>
      <trkpt lat="40.11136888526380062103271484375" lon="0.097162015736103057861328125">
        <ele>93.59999847412109375</ele>
        <time>2023-01-27T08:13:40.000Z</time>
      </trkpt>
      <trkpt lat="40.111343823373317718505859375" lon="0.0971179269254207611083984375">
        <ele>93.8000030517578125</ele>
        <time>2023-01-27T08:13:41.000Z</time>
      </trkpt>
      <trkpt lat="40.111319012939929962158203125" lon="0.09707040153443813323974609375">
        <ele>94.1999969482421875</ele>
        <time>2023-01-27T08:13:42.000Z</time>
      </trkpt>
      <trkpt lat="40.11129344813525676727294921875" lon="0.09702245704829692840576171875">
        <ele>94.1999969482421875</ele>
        <time>2023-01-27T08:13:43.000Z</time>
      </trkpt>
      <trkpt lat="40.111266039311885833740234375" lon="0.096975266933441162109375">
        <ele>94.59999847412109375</ele>
        <time>2023-01-27T08:13:44.000Z</time>
      </trkpt>
      <trkpt lat="40.111237876117229461669921875" lon="0.09692690335214138031005859375">
        <ele>94.8000030517578125</ele>
        <time>2023-01-27T08:13:45.000Z</time>
      </trkpt>
      <trkpt lat="40.11121382005512714385986328125" lon="0.09687460027635097503662109375">
        <ele>95</ele>
        <time>2023-01-27T08:13:46.000Z</time>
      </trkpt>
      <trkpt lat="40.11119194328784942626953125" lon="0.0968191958963871002197265625">
        <ele>95.1999969482421875</ele>
        <time>2023-01-27T08:13:47.000Z</time>
      </trkpt>
      <trkpt lat="40.11116889305412769317626953125" lon="0.096766389906406402587890625">
        <ele>95.40000152587890625</ele>
        <time>2023-01-27T08:13:48.000Z</time>
      </trkpt>
      <trkpt lat="40.11114525608718395233154296875" lon="0.096715427935123443603515625">
        <ele>95.59999847412109375</ele>
        <time>2023-01-27T08:13:49.000Z</time>
      </trkpt>
      <trkpt lat="40.111124217510223388671875" lon="0.09666287340223789215087890625">
        <ele>95.59999847412109375</ele>
        <time>2023-01-27T08:13:50.000Z</time>
      </trkpt>
      <trkpt lat="40.1111082918941974639892578125" lon="0.09662196971476078033447265625">
        <ele>95.8000030517578125</ele>
        <time>2023-01-27T08:13:51.000Z</time>
      </trkpt>
      <trkpt lat="40.11108289472758769989013671875" lon="0.096558518707752227783203125">
        <ele>96</ele>
        <time>2023-01-27T08:13:52.000Z</time>
      </trkpt>
      <trkpt lat="40.11106663383543491363525390625" lon="0.09651266969740390777587890625">
        <ele>96.40000152587890625</ele>
        <time>2023-01-27T08:13:53.000Z</time>
      </trkpt>
      <trkpt lat="40.1110405661165714263916015625" lon="0.0964433513581752777099609375">
        <ele>96.8000030517578125</ele>
        <time>2023-01-27T08:13:54.000Z</time>
      </trkpt>
      <trkpt lat="40.11102204211056232452392578125" lon="0.09638375602662563323974609375">
        <ele>97</ele>
        <time>2023-01-27T08:13:55.000Z</time>
      </trkpt>
      <trkpt lat="40.1110080443322658538818359375" lon="0.09633497335016727447509765625">
        <ele>97.1999969482421875</ele>
        <time>2023-01-27T08:13:56.000Z</time>
      </trkpt>
      <trkpt lat="40.11099002324044704437255859375" lon="0.09627277962863445281982421875">
        <ele>97.1999969482421875</ele>
        <time>2023-01-27T08:13:57.000Z</time>
      </trkpt>
      <trkpt lat="40.11096688918769359588623046875" lon="0.09619851596653461456298828125">
        <ele>97.40000152587890625</ele>
        <time>2023-01-27T08:13:58.000Z</time>
      </trkpt>
      <trkpt lat="40.11094844900071620941162109375" lon="0.09613774716854095458984375">
        <ele>97.59999847412109375</ele>
        <time>2023-01-27T08:13:59.000Z</time>
      </trkpt>
      <trkpt lat="40.11092917062342166900634765625" lon="0.0960748828947544097900390625">
        <ele>97.8000030517578125</ele>
        <time>2023-01-27T08:14:00.000Z</time>
      </trkpt>
      <trkpt lat="40.11091257445514202117919921875" lon="0.09601168334484100341796875">
        <ele>97.8000030517578125</ele>
        <time>2023-01-27T08:14:01.000Z</time>
      </trkpt>
      <trkpt lat="40.11089899577200412750244140625" lon="0.0959605537354946136474609375">
        <ele>98</ele>
        <time>2023-01-27T08:14:02.000Z</time>
      </trkpt>
      <trkpt lat="40.110882818698883056640625" lon="0.09589592926204204559326171875">
        <ele>98.1999969482421875</ele>
        <time>2023-01-27T08:14:03.000Z</time>
      </trkpt>
      <trkpt lat="40.11086479760706424713134765625" lon="0.0958205759525299072265625">
        <ele>98.1999969482421875</ele>
        <time>2023-01-27T08:14:04.000Z</time>
      </trkpt>
      <trkpt lat="40.1108514703810214996337890625" lon="0.095752514898777008056640625">
        <ele>98.40000152587890625</ele>
        <time>2023-01-27T08:14:05.000Z</time>
      </trkpt>
      <trkpt lat="40.1108410768210887908935546875" lon="0.0957000441849231719970703125">
        <ele>98.40000152587890625</ele>
        <time>2023-01-27T08:14:06.000Z</time>
      </trkpt>
      <trkpt lat="40.11082221753895282745361328125" lon="0.09561832062900066375732421875">
        <ele>98.59999847412109375</ele>
        <time>2023-01-27T08:14:07.000Z</time>
      </trkpt>
      <trkpt lat="40.1108055375516414642333984375" lon="0.09555160067975521087646484375">
        <ele>98.59999847412109375</ele>
        <time>2023-01-27T08:14:08.000Z</time>
      </trkpt>
      <trkpt lat="40.110787935554981231689453125" lon="0.09548538364470005035400390625">
        <ele>98.59999847412109375</ele>
        <time>2023-01-27T08:14:09.000Z</time>
      </trkpt>
      <trkpt lat="40.11076739989221096038818359375" lon="0.09541891515254974365234375">
        <ele>98.8000030517578125</ele>
        <time>2023-01-27T08:14:10.000Z</time>
      </trkpt>
      <trkpt lat="40.1107512228190898895263671875" lon="0.095365606248378753662109375">
        <ele>99</ele>
        <time>2023-01-27T08:14:11.000Z</time>
      </trkpt>
      <trkpt lat="40.11073186062276363372802734375" lon="0.09528723545372486114501953125">
        <ele>99</ele>
        <time>2023-01-27T08:14:12.000Z</time>
      </trkpt>
      <trkpt lat="40.110716857016086578369140625" lon="0.09522378444671630859375">
        <ele>99.1999969482421875</ele>
        <time>2023-01-27T08:14:13.000Z</time>
      </trkpt>
      <trkpt lat="40.11070135049521923065185546875" lon="0.095159076154232025146484375">
        <ele>99.40000152587890625</ele>
        <time>2023-01-27T08:14:14.000Z</time>
      </trkpt>
      <trkpt lat="40.1106883585453033447265625" lon="0.09509260766208171844482421875">
        <ele>99.59999847412109375</ele>
        <time>2023-01-27T08:14:15.000Z</time>
      </trkpt>
      <trkpt lat="40.11067888699471950531005859375" lon="0.0950304977595806121826171875">
        <ele>99.59999847412109375</ele>
        <time>2023-01-27T08:14:16.000Z</time>
      </trkpt>
      <trkpt lat="40.11066748760640621185302734375" lon="0.0949703156948089599609375">
        <ele>100</ele>
        <time>2023-01-27T08:14:17.000Z</time>
      </trkpt>
      <trkpt lat="40.11065206490457057952880859375" lon="0.094910301268100738525390625">
        <ele>100.1999969482421875</ele>
        <time>2023-01-27T08:14:18.000Z</time>
      </trkpt>
      <trkpt lat="40.1106373965740203857421875" lon="0.09485120885074138641357421875">
        <ele>100.40000152587890625</ele>
        <time>2023-01-27T08:14:19.000Z</time>
      </trkpt>
      <trkpt lat="40.11062473990023136138916015625" lon="0.09479203261435031890869140625">
        <ele>100.40000152587890625</ele>
        <time>2023-01-27T08:14:20.000Z</time>
      </trkpt>
      <trkpt lat="40.1106134243309497833251953125" lon="0.09473168291151523590087890625">
        <ele>100.59999847412109375</ele>
        <time>2023-01-27T08:14:21.000Z</time>
      </trkpt>
      <trkpt lat="40.11060512624680995941162109375" lon="0.09467267431318759918212890625">
        <ele>100.8000030517578125</ele>
        <time>2023-01-27T08:14:22.000Z</time>
      </trkpt>
      <trkpt lat="40.1105980016291141510009765625" lon="0.09461349807679653167724609375">
        <ele>101</ele>
        <time>2023-01-27T08:14:23.000Z</time>
      </trkpt>
      <trkpt lat="40.11058987118303775787353515625" lon="0.09455516003072261810302734375">
        <ele>101.40000152587890625</ele>
        <time>2023-01-27T08:14:24.000Z</time>
      </trkpt>
      <trkpt lat="40.11058551259338855743408203125" lon="0.09449749253690242767333984375">
        <ele>101.40000152587890625</ele>
        <time>2023-01-27T08:14:25.000Z</time>
      </trkpt>
      <trkpt lat="40.11058735661208629608154296875" lon="0.09445139206945896148681640625">
        <ele>101.8000030517578125</ele>
        <time>2023-01-27T08:14:26.000Z</time>
      </trkpt>
      <trkpt lat="40.1106000132858753204345703125" lon="0.094385258853435516357421875">
        <ele>102</ele>
        <time>2023-01-27T08:14:27.000Z</time>
      </trkpt>
      <trkpt lat="40.11062574572861194610595703125" lon="0.094343014061450958251953125">
        <ele>102.1999969482421875</ele>
        <time>2023-01-27T08:14:28.000Z</time>
      </trkpt>
      <trkpt lat="40.1106613688170909881591796875" lon="0.09431543760001659393310546875">
        <ele>102.40000152587890625</ele>
        <time>2023-01-27T08:14:29.000Z</time>
      </trkpt>
      <trkpt lat="40.1106992550194263458251953125" lon="0.09428660385310649871826171875">
        <ele>102.8000030517578125</ele>
        <time>2023-01-27T08:14:30.000Z</time>
      </trkpt>
      <trkpt lat="40.11073638685047626495361328125" lon="0.09425039403140544891357421875">
        <ele>103</ele>
        <time>2023-01-27T08:14:31.000Z</time>
      </trkpt>
      <trkpt lat="40.1107689924538135528564453125" lon="0.0942053832113742828369140625">
        <ele>103.40000152587890625</ele>
        <time>2023-01-27T08:14:32.000Z</time>
      </trkpt>
      <trkpt lat="40.11079455725848674774169921875" lon="0.0941524095833301544189453125">
        <ele>103.40000152587890625</ele>
        <time>2023-01-27T08:14:33.000Z</time>
      </trkpt>
      <trkpt lat="40.11081081815063953399658203125" lon="0.09409231133759021759033203125">
        <ele>103.59999847412109375</ele>
        <time>2023-01-27T08:14:34.000Z</time>
      </trkpt>
      <trkpt lat="40.110816098749637603759765625" lon="0.0940263457596302032470703125">
        <ele>103.8000030517578125</ele>
        <time>2023-01-27T08:14:35.000Z</time>
      </trkpt>
      <trkpt lat="40.11081065051257610321044921875" lon="0.0939599610865116119384765625">
        <ele>104</ele>
        <time>2023-01-27T08:14:36.000Z</time>
      </trkpt>
      <trkpt lat="40.11079522781074047088623046875" lon="0.09389818646013736724853515625">
        <ele>104.1999969482421875</ele>
        <time>2023-01-27T08:14:37.000Z</time>
      </trkpt>
      <trkpt lat="40.11076815426349639892578125" lon="0.09384236298501491546630859375">
        <ele>104.1999969482421875</ele>
        <time>2023-01-27T08:14:38.000Z</time>
      </trkpt>
      <trkpt lat="40.110730268061161041259765625" lon="0.093793831765651702880859375">
        <ele>104.40000152587890625</ele>
        <time>2023-01-27T08:14:39.000Z</time>
      </trkpt>
      <trkpt lat="40.1106829941272735595703125" lon="0.09375401772558689117431640625">
        <ele>104.40000152587890625</ele>
        <time>2023-01-27T08:14:40.000Z</time>
      </trkpt>
      <trkpt lat="40.11064133606851100921630859375" lon="0.09372585453093051910400390625">
        <ele>104.40000152587890625</ele>
        <time>2023-01-27T08:14:41.000Z</time>
      </trkpt>
      <trkpt lat="40.11057880707085132598876953125" lon="0.09368486702442169189453125">
        <ele>104.40000152587890625</ele>
        <time>2023-01-27T08:14:42.000Z</time>
      </trkpt>
      <trkpt lat="40.1105259172618389129638671875" lon="0.09364924393594264984130859375">
        <ele>104.59999847412109375</ele>
        <time>2023-01-27T08:14:43.000Z</time>
      </trkpt>
      <trkpt lat="40.1104732789099216461181640625" lon="0.09360766969621181488037109375">
        <ele>104.59999847412109375</ele>
        <time>2023-01-27T08:14:44.000Z</time>
      </trkpt>
      <trkpt lat="40.11042080819606781005859375" lon="0.0935609824955463409423828125">
        <ele>104.59999847412109375</ele>
        <time>2023-01-27T08:14:45.000Z</time>
      </trkpt>
      <trkpt lat="40.11036775074899196624755859375" lon="0.09351446293294429779052734375">
        <ele>104.59999847412109375</ele>
        <time>2023-01-27T08:14:46.000Z</time>
      </trkpt>
      <trkpt lat="40.1103136874735355377197265625" lon="0.09346148930490016937255859375">
        <ele>104.59999847412109375</ele>
        <time>2023-01-27T08:14:47.000Z</time>
      </trkpt>
      <trkpt lat="40.110260881483554840087890625" lon="0.0934050790965557098388671875">
        <ele>104.59999847412109375</ele>
        <time>2023-01-27T08:14:48.000Z</time>
      </trkpt>
      <trkpt lat="40.1102134399116039276123046875" lon="0.09334531612694263458251953125">
        <ele>104.40000152587890625</ele>
        <time>2023-01-27T08:14:49.000Z</time>
      </trkpt>
      <trkpt lat="40.11016842909157276153564453125" lon="0.09327993728220462799072265625">
        <ele>104.40000152587890625</ele>
        <time>2023-01-27T08:14:50.000Z</time>
      </trkpt>
      <trkpt lat="40.1101242564618587493896484375" lon="0.09321355260908603668212890625">
        <ele>104.40000152587890625</ele>
        <time>2023-01-27T08:14:51.000Z</time>
      </trkpt>
      <trkpt lat="40.1100816763937473297119140625" lon="0.09314649738371372222900390625">
        <ele>104.1999969482421875</ele>
        <time>2023-01-27T08:14:52.000Z</time>
      </trkpt>
      <trkpt lat="40.110040269792079925537109375" lon="0.093075335025787353515625">
        <ele>104.1999969482421875</ele>
        <time>2023-01-27T08:14:53.000Z</time>
      </trkpt>
      <trkpt lat="40.1100025512278079986572265625" lon="0.0929997302591800689697265625">
        <ele>104</ele>
        <time>2023-01-27T08:14:54.000Z</time>
      </trkpt>
      <trkpt lat="40.10997246019542217254638671875" lon="0.09293694980442523956298828125">
        <ele>103.8000030517578125</ele>
        <time>2023-01-27T08:14:55.000Z</time>
      </trkpt>
      <trkpt lat="40.10989777743816375732421875" lon="0.09276486933231353759765625">
        <ele>103.59999847412109375</ele>
        <time>2023-01-27T08:14:57.000Z</time>
      </trkpt>
      <trkpt lat="40.1096609048545360565185546875" lon="0.0921883620321750640869140625">
        <ele>103.1999969482421875</ele>
        <time>2023-01-27T08:15:05.000Z</time>
      </trkpt>
      <trkpt lat="40.1096262037754058837890625" lon="0.092108063399791717529296875">
        <ele>103.1999969482421875</ele>
        <time>2023-01-27T08:15:06.000Z</time>
      </trkpt>
      <trkpt lat="40.10959778912365436553955078125" lon="0.09204695932567119598388671875">
        <ele>103.40000152587890625</ele>
        <time>2023-01-27T08:15:07.000Z</time>
      </trkpt>
      <trkpt lat="40.10957180522382259368896484375" lon="0.0919835083186626434326171875">
        <ele>103.40000152587890625</ele>
        <time>2023-01-27T08:15:08.000Z</time>
      </trkpt>
      <trkpt lat="40.1095459051430225372314453125" lon="0.0919224880635738372802734375">
        <ele>103.59999847412109375</ele>
        <time>2023-01-27T08:15:09.000Z</time>
      </trkpt>
      <trkpt lat="40.10951799340546131134033203125" lon="0.09186230599880218505859375">
        <ele>103.8000030517578125</ele>
        <time>2023-01-27T08:15:10.000Z</time>
      </trkpt>
      <trkpt lat="40.10949142277240753173828125" lon="0.09180488996207714080810546875">
        <ele>104</ele>
        <time>2023-01-27T08:15:11.000Z</time>
      </trkpt>
      <trkpt lat="40.10944356210529804229736328125" lon="0.0916901417076587677001953125">
        <ele>105</ele>
        <time>2023-01-27T08:15:13.000Z</time>
      </trkpt>
      <trkpt lat="40.10942126624286174774169921875" lon="0.09163297712802886962890625">
        <ele>105.1999969482421875</ele>
        <time>2023-01-27T08:15:14.000Z</time>
      </trkpt>
      <trkpt lat="40.10940114967525005340576171875" lon="0.091576315462589263916015625">
        <ele>105.59999847412109375</ele>
        <time>2023-01-27T08:15:15.000Z</time>
      </trkpt>
      <trkpt lat="40.10938405059278011322021484375" lon="0.0915315560996532440185546875">
        <ele>105.8000030517578125</ele>
        <time>2023-01-27T08:15:16.000Z</time>
      </trkpt>
      <trkpt lat="40.1093591563403606414794921875" lon="0.09146668016910552978515625">
        <ele>106.1999969482421875</ele>
        <time>2023-01-27T08:15:17.000Z</time>
      </trkpt>
      <trkpt lat="40.10933962650597095489501953125" lon="0.09141462855041027069091796875">
        <ele>106.40000152587890625</ele>
        <time>2023-01-27T08:15:18.000Z</time>
      </trkpt>
      <trkpt lat="40.10932110249996185302734375" lon="0.0913612358272075653076171875">
        <ele>107</ele>
        <time>2023-01-27T08:15:19.000Z</time>
      </trkpt>
      <trkpt lat="40.10930291377007961273193359375" lon="0.09130977094173431396484375">
        <ele>107.1999969482421875</ele>
        <time>2023-01-27T08:15:20.000Z</time>
      </trkpt>
      <trkpt lat="40.10928547941148281097412109375" lon="0.0912576355040073394775390625">
        <ele>107.59999847412109375</ele>
        <time>2023-01-27T08:15:21.000Z</time>
      </trkpt>
      <trkpt lat="40.10927106253802776336669921875" lon="0.091204158961772918701171875">
        <ele>107.8000030517578125</ele>
        <time>2023-01-27T08:15:22.000Z</time>
      </trkpt>
      <trkpt lat="40.10925731621682643890380859375" lon="0.091151185333728790283203125">
        <ele>108.1999969482421875</ele>
        <time>2023-01-27T08:15:23.000Z</time>
      </trkpt>
      <trkpt lat="40.1092424802482128143310546875" lon="0.09109913371503353118896484375">
        <ele>108.1999969482421875</ele>
        <time>2023-01-27T08:15:24.000Z</time>
      </trkpt>
      <trkpt lat="40.1092297397553920745849609375" lon="0.09105898439884185791015625">
        <ele>108.59999847412109375</ele>
        <time>2023-01-27T08:15:25.000Z</time>
      </trkpt>
      <trkpt lat="40.10920979082584381103515625" lon="0.090991593897342681884765625">
        <ele>109</ele>
        <time>2023-01-27T08:15:26.000Z</time>
      </trkpt>
      <trkpt lat="40.10919445194303989410400390625" lon="0.090933926403522491455078125">
        <ele>109.40000152587890625</ele>
        <time>2023-01-27T08:15:27.000Z</time>
      </trkpt>
      <trkpt lat="40.1091760955750942230224609375" lon="0.090874917805194854736328125">
        <ele>109.40000152587890625</ele>
        <time>2023-01-27T08:15:28.000Z</time>
      </trkpt>
      <trkpt lat="40.10915958322584629058837890625" lon="0.090816579759120941162109375">
        <ele>109.8000030517578125</ele>
        <time>2023-01-27T08:15:29.000Z</time>
      </trkpt>
      <trkpt lat="40.1091425679624080657958984375" lon="0.09075782261788845062255859375">
        <ele>109.8000030517578125</ele>
        <time>2023-01-27T08:15:30.000Z</time>
      </trkpt>
      <trkpt lat="40.10912253521382808685302734375" lon="0.090699903666973114013671875">
        <ele>110</ele>
        <time>2023-01-27T08:15:31.000Z</time>
      </trkpt>
      <trkpt lat="40.109101831912994384765625" lon="0.09064047597348690032958984375">
        <ele>110</ele>
        <time>2023-01-27T08:15:32.000Z</time>
      </trkpt>
      <trkpt lat="40.10907961986958980560302734375" lon="0.090582557022571563720703125">
        <ele>110</ele>
        <time>2023-01-27T08:15:33.000Z</time>
      </trkpt>
      <trkpt lat="40.10905799455940723419189453125" lon="0.09052463807165622711181640625">
        <ele>110.1999969482421875</ele>
        <time>2023-01-27T08:15:34.000Z</time>
      </trkpt>
      <trkpt lat="40.10903678834438323974609375" lon="0.090465880930423736572265625">
        <ele>110.1999969482421875</ele>
        <time>2023-01-27T08:15:35.000Z</time>
      </trkpt>
      <trkpt lat="40.1090178452432155609130859375" lon="0.09040628559887409210205078125">
        <ele>110.1999969482421875</ele>
        <time>2023-01-27T08:15:36.000Z</time>
      </trkpt>
      <trkpt lat="40.1090017519891262054443359375" lon="0.090342499315738677978515625">
        <ele>110.40000152587890625</ele>
        <time>2023-01-27T08:15:37.000Z</time>
      </trkpt>
      <trkpt lat="40.10898674838244915008544921875" lon="0.090276114642620086669921875">
        <ele>110.40000152587890625</ele>
        <time>2023-01-27T08:15:38.000Z</time>
      </trkpt>
      <trkpt lat="40.10897534899413585662841796875" lon="0.090204365551471710205078125">
        <ele>110.40000152587890625</ele>
        <time>2023-01-27T08:15:39.000Z</time>
      </trkpt>
      <trkpt lat="40.10896679945290088653564453125" lon="0.090127922594547271728515625">
        <ele>110.40000152587890625</ele>
        <time>2023-01-27T08:15:40.000Z</time>
      </trkpt>
      <trkpt lat="40.108959674835205078125" lon="0.09004645049571990966796875">
        <ele>110.40000152587890625</ele>
        <time>2023-01-27T08:15:41.000Z</time>
      </trkpt>
      <trkpt lat="40.10895372368395328521728515625" lon="0.08995793759822845458984375">
        <ele>110.40000152587890625</ele>
        <time>2023-01-27T08:15:42.000Z</time>
      </trkpt>
      <trkpt lat="40.10895355604588985443115234375" lon="0.0898647308349609375">
        <ele>110.40000152587890625</ele>
        <time>2023-01-27T08:15:43.000Z</time>
      </trkpt>
      <trkpt lat="40.1089534722268581390380859375" lon="0.08978736586868762969970703125">
        <ele>110.40000152587890625</ele>
        <time>2023-01-27T08:15:44.000Z</time>
      </trkpt>
      <trkpt lat="40.1089585013687610626220703125" lon="0.08966767229139804840087890625">
        <ele>110.40000152587890625</ele>
        <time>2023-01-27T08:15:45.000Z</time>
      </trkpt>
      <trkpt lat="40.1089636981487274169921875" lon="0.08956742472946643829345703125">
        <ele>110.1999969482421875</ele>
        <time>2023-01-27T08:15:46.000Z</time>
      </trkpt>
      <trkpt lat="40.10896998457610607147216796875" lon="0.08946734480559825897216796875">
        <ele>110</ele>
        <time>2023-01-27T08:15:47.000Z</time>
      </trkpt>
      <trkpt lat="40.108978450298309326171875" lon="0.08936760015785694122314453125">
        <ele>109.8000030517578125</ele>
        <time>2023-01-27T08:15:48.000Z</time>
      </trkpt>
      <trkpt lat="40.10898373089730739593505859375" lon="0.08928847499191761016845703125">
        <ele>109.40000152587890625</ele>
        <time>2023-01-27T08:15:49.000Z</time>
      </trkpt>
      <trkpt lat="40.108992196619510650634765625" lon="0.0891903229057788848876953125">
        <ele>109.1999969482421875</ele>
        <time>2023-01-27T08:15:50.000Z</time>
      </trkpt>
      <trkpt lat="40.109008289873600006103515625" lon="0.08897331543266773223876953125">
        <ele>108.59999847412109375</ele>
        <time>2023-01-27T08:15:52.000Z</time>
      </trkpt>
      <trkpt lat="40.1090161688625812530517578125" lon="0.0886974669992923736572265625">
        <ele>107.8000030517578125</ele>
        <time>2023-01-27T08:15:55.000Z</time>
      </trkpt>
      <trkpt lat="40.10901273228228092193603515625" lon="0.08857903070747852325439453125">
        <ele>107.59999847412109375</ele>
        <time>2023-01-27T08:15:56.000Z</time>
      </trkpt>
      <trkpt lat="40.10898984968662261962890625" lon="0.08839161135256290435791015625">
        <ele>107.1999969482421875</ele>
        <time>2023-01-27T08:15:58.000Z</time>
      </trkpt>
      <trkpt lat="40.1089574955403804779052734375" lon="0.08830779232084751129150390625">
        <ele>107</ele>
        <time>2023-01-27T08:15:59.000Z</time>
      </trkpt>
      <trkpt lat="40.108913742005825042724609375" lon="0.0882344506680965423583984375">
        <ele>106.8000030517578125</ele>
        <time>2023-01-27T08:16:00.000Z</time>
      </trkpt>
      <trkpt lat="40.1088602654635906219482421875" lon="0.08817099966108798980712890625">
        <ele>106.40000152587890625</ele>
        <time>2023-01-27T08:16:01.000Z</time>
      </trkpt>
      <trkpt lat="40.1087989099323749542236328125" lon="0.08811794221401214599609375">
        <ele>106.40000152587890625</ele>
        <time>2023-01-27T08:16:02.000Z</time>
      </trkpt>
      <trkpt lat="40.1087335310876369476318359375" lon="0.08807343430817127227783203125">
        <ele>106.1999969482421875</ele>
        <time>2023-01-27T08:16:03.000Z</time>
      </trkpt>
      <trkpt lat="40.10866756550967693328857421875" lon="0.08803035132586956024169921875">
        <ele>106</ele>
        <time>2023-01-27T08:16:04.000Z</time>
      </trkpt>
      <trkpt lat="40.1083253324031829833984375" lon="0.08777788840234279632568359375">
        <ele>105.40000152587890625</ele>
        <time>2023-01-27T08:16:09.000Z</time>
      </trkpt>
      <trkpt lat="40.10825752280652523040771484375" lon="0.08772927336394786834716796875">
        <ele>105.40000152587890625</ele>
        <time>2023-01-27T08:16:10.000Z</time>
      </trkpt>
      <trkpt lat="40.1080646552145481109619140625" lon="0.08757722564041614532470703125">
        <ele>104.59999847412109375</ele>
        <time>2023-01-27T08:16:13.000Z</time>
      </trkpt>
      <trkpt lat="40.10799516923725605010986328125" lon="0.08752651512622833251953125">
        <ele>104.40000152587890625</ele>
        <time>2023-01-27T08:16:14.000Z</time>
      </trkpt>
      <trkpt lat="40.10777740739285945892333984375" lon="0.0873737968504428863525390625">
        <ele>104</ele>
        <time>2023-01-27T08:16:17.000Z</time>
      </trkpt>
      <trkpt lat="40.10763340629637241363525390625" lon="0.08726743049919605255126953125">
        <ele>103.40000152587890625</ele>
        <time>2023-01-27T08:16:19.000Z</time>
      </trkpt>
      <trkpt lat="40.10756216011941432952880859375" lon="0.08721596561372280120849609375">
        <ele>102.8000030517578125</ele>
        <time>2023-01-27T08:16:20.000Z</time>
      </trkpt>
      <trkpt lat="40.1073528639972209930419921875" lon="0.08705855347216129302978515625">
        <ele>102</ele>
        <time>2023-01-27T08:16:23.000Z</time>
      </trkpt>
      <trkpt lat="40.107284970581531524658203125" lon="0.08700423873960971832275390625">
        <ele>101.8000030517578125</ele>
        <time>2023-01-27T08:16:24.000Z</time>
      </trkpt>
      <trkpt lat="40.10708305053412914276123046875" lon="0.086840204894542694091796875">
        <ele>101</ele>
        <time>2023-01-27T08:16:27.000Z</time>
      </trkpt>
      <trkpt lat="40.10701968334615230560302734375" lon="0.0867924280464649200439453125">
        <ele>100.59999847412109375</ele>
        <time>2023-01-27T08:16:28.000Z</time>
      </trkpt>
      <trkpt lat="40.1069619320333003997802734375" lon="0.08674272336065769195556640625">
        <ele>100.40000152587890625</ele>
        <time>2023-01-27T08:16:29.000Z</time>
      </trkpt>
      <trkpt lat="40.106913484632968902587890625" lon="0.08668354712426662445068359375">
        <ele>100.1999969482421875</ele>
        <time>2023-01-27T08:16:30.000Z</time>
      </trkpt>
      <trkpt lat="40.10687584988772869110107421875" lon="0.08661263622343540191650390625">
        <ele>100</ele>
        <time>2023-01-27T08:16:31.000Z</time>
      </trkpt>
      <trkpt lat="40.10685137473046779632568359375" lon="0.08653284050524234771728515625">
        <ele>100</ele>
        <time>2023-01-27T08:16:32.000Z</time>
      </trkpt>
      <trkpt lat="40.1068462617695331573486328125" lon="0.08644801564514636993408203125">
        <ele>100</ele>
        <time>2023-01-27T08:16:33.000Z</time>
      </trkpt>
      <trkpt lat="40.106855817139148712158203125" lon="0.08635967038571834564208984375">
        <ele>99.8000030517578125</ele>
        <time>2023-01-27T08:16:34.000Z</time>
      </trkpt>
      <trkpt lat="40.10687551461160182952880859375" lon="0.08626746945083141326904296875">
        <ele>99.8000030517578125</ele>
        <time>2023-01-27T08:16:35.000Z</time>
      </trkpt>
      <trkpt lat="40.10690518654882907867431640625" lon="0.08617308922111988067626953125">
        <ele>99.8000030517578125</ele>
        <time>2023-01-27T08:16:36.000Z</time>
      </trkpt>
      <trkpt lat="40.10694022290408611297607421875" lon="0.0860787928104400634765625">
        <ele>99.8000030517578125</ele>
        <time>2023-01-27T08:16:37.000Z</time>
      </trkpt>
      <trkpt lat="40.10697844438254833221435546875" lon="0.08599229156970977783203125">
        <ele>99.8000030517578125</ele>
        <time>2023-01-27T08:16:38.000Z</time>
      </trkpt>
      <trkpt lat="40.1070239581167697906494140625" lon="0.08591526187956333160400390625">
        <ele>99.40000152587890625</ele>
        <time>2023-01-27T08:16:39.000Z</time>
      </trkpt>
      <trkpt lat="40.107076428830623626708984375" lon="0.0858489610254764556884765625">
        <ele>99.40000152587890625</ele>
        <time>2023-01-27T08:16:40.000Z</time>
      </trkpt>
      <trkpt lat="40.10713635943830013275146484375" lon="0.085804201662540435791015625">
        <ele>99.1999969482421875</ele>
        <time>2023-01-27T08:16:41.000Z</time>
      </trkpt>
      <trkpt lat="40.10719872079789638519287109375" lon="0.08578014560043811798095703125">
        <ele>99.1999969482421875</ele>
        <time>2023-01-27T08:16:42.000Z</time>
      </trkpt>
      <trkpt lat="40.10724800638854503631591796875" lon="0.08576891385018825531005859375">
        <ele>99</ele>
        <time>2023-01-27T08:16:43.000Z</time>
      </trkpt>
      <trkpt lat="40.10730567388236522674560546875" lon="0.0857569277286529541015625">
        <ele>99</ele>
        <time>2023-01-27T08:16:44.000Z</time>
      </trkpt>
      <trkpt lat="40.10736367665231227874755859375" lon="0.085749216377735137939453125">
        <ele>99</ele>
        <time>2023-01-27T08:16:45.000Z</time>
      </trkpt>
      <trkpt lat="40.10742251761257648468017578125" lon="0.085745863616466522216796875">
        <ele>99</ele>
        <time>2023-01-27T08:16:46.000Z</time>
      </trkpt>
      <trkpt lat="40.1074819453060626983642578125" lon="0.08574326522648334503173828125">
        <ele>99</ele>
        <time>2023-01-27T08:16:47.000Z</time>
      </trkpt>
      <trkpt lat="40.10753835551440715789794921875" lon="0.08573655970394611358642578125">
        <ele>99.1999969482421875</ele>
        <time>2023-01-27T08:16:48.000Z</time>
      </trkpt>
      <trkpt lat="40.1076495833694934844970703125" lon="0.0857195444405078887939453125">
        <ele>99.59999847412109375</ele>
        <time>2023-01-27T08:16:50.000Z</time>
      </trkpt>
      <trkpt lat="40.10770431719720363616943359375" lon="0.08570956997573375701904296875">
        <ele>99.8000030517578125</ele>
        <time>2023-01-27T08:16:51.000Z</time>
      </trkpt>
      <trkpt lat="40.10775712318718433380126953125" lon="0.0856950692832469940185546875">
        <ele>100.1999969482421875</ele>
        <time>2023-01-27T08:16:52.000Z</time>
      </trkpt>
      <trkpt lat="40.10786332190036773681640625" lon="0.08564419113099575042724609375">
        <ele>100.59999847412109375</ele>
        <time>2023-01-27T08:16:54.000Z</time>
      </trkpt>
      <trkpt lat="40.1079211570322513580322265625" lon="0.0856013596057891845703125">
        <ele>100.59999847412109375</ele>
        <time>2023-01-27T08:16:55.000Z</time>
      </trkpt>
      <trkpt lat="40.1080032996833324432373046875" lon="0.08553086780011653900146484375">
        <ele>101.1999969482421875</ele>
        <time>2023-01-27T08:16:57.000Z</time>
      </trkpt>
      <trkpt lat="40.10804160498082637786865234375" lon="0.08548242039978504180908203125">
        <ele>101.40000152587890625</ele>
        <time>2023-01-27T08:16:58.000Z</time>
      </trkpt>
      <trkpt lat="40.10808619670569896697998046875" lon="0.08542207069694995880126953125">
        <ele>101.59999847412109375</ele>
        <time>2023-01-27T08:16:59.000Z</time>
      </trkpt>
      <trkpt lat="40.108179487287998199462890625" lon="0.08528192527592182159423828125">
        <ele>102.40000152587890625</ele>
        <time>2023-01-27T08:17:02.000Z</time>
      </trkpt>
      <trkpt lat="40.10821276344358921051025390625" lon="0.08523196913301944732666015625">
        <ele>102.40000152587890625</ele>
        <time>2023-01-27T08:17:03.000Z</time>
      </trkpt>
      <trkpt lat="40.10825282894074916839599609375" lon="0.085177235305309295654296875">
        <ele>102.8000030517578125</ele>
        <time>2023-01-27T08:17:04.000Z</time>
      </trkpt>
      <trkpt lat="40.10828652419149875640869140625" lon="0.0851338170468807220458984375">
        <ele>103</ele>
        <time>2023-01-27T08:17:05.000Z</time>
      </trkpt>
      <trkpt lat="40.10831166990101337432861328125" lon="0.08509685285389423370361328125">
        <ele>103.1999969482421875</ele>
        <time>2023-01-27T08:17:06.000Z</time>
      </trkpt>
      <trkpt lat="40.10834000073373317718505859375" lon="0.08504857309162616729736328125">
        <ele>103.40000152587890625</ele>
        <time>2023-01-27T08:17:07.000Z</time>
      </trkpt>
      <trkpt lat="40.10836799629032611846923828125" lon="0.0850000418722629547119140625">
        <ele>103.59999847412109375</ele>
        <time>2023-01-27T08:17:08.000Z</time>
      </trkpt>
      <trkpt lat="40.10839951224625110626220703125" lon="0.0849413685500621795654296875">
        <ele>104</ele>
        <time>2023-01-27T08:17:09.000Z</time>
      </trkpt>
      <trkpt lat="40.10842524468898773193359375" lon="0.08489216677844524383544921875">
        <ele>104.1999969482421875</ele>
        <time>2023-01-27T08:17:10.000Z</time>
      </trkpt>
      <trkpt lat="40.10844712145626544952392578125" lon="0.08485243655741214752197265625">
        <ele>104.59999847412109375</ele>
        <time>2023-01-27T08:17:11.000Z</time>
      </trkpt>
      <trkpt lat="40.1084723509848117828369140625" lon="0.08479979820549488067626953125">
        <ele>104.8000030517578125</ele>
        <time>2023-01-27T08:17:12.000Z</time>
      </trkpt>
      <trkpt lat="40.10849506594240665435791015625" lon="0.08474565111100673675537109375">
        <ele>105</ele>
        <time>2023-01-27T08:17:13.000Z</time>
      </trkpt>
      <trkpt lat="40.108517445623874664306640625" lon="0.08469033055007457733154296875">
        <ele>105.1999969482421875</ele>
        <time>2023-01-27T08:17:14.000Z</time>
      </trkpt>
      <trkpt lat="40.10853697545826435089111328125" lon="0.08463182486593723297119140625">
        <ele>105.40000152587890625</ele>
        <time>2023-01-27T08:17:15.000Z</time>
      </trkpt>
      <trkpt lat="40.1085533201694488525390625" lon="0.08457113988697528839111328125">
        <ele>105.59999847412109375</ele>
        <time>2023-01-27T08:17:16.000Z</time>
      </trkpt>
      <trkpt lat="40.10856966488063335418701171875" lon="0.08450944907963275909423828125">
        <ele>106</ele>
        <time>2023-01-27T08:17:17.000Z</time>
      </trkpt>
      <trkpt lat="40.108586512506008148193359375" lon="0.0844475068151950836181640625">
        <ele>106</ele>
        <time>2023-01-27T08:17:18.000Z</time>
      </trkpt>
      <trkpt lat="40.1086017675697803497314453125" lon="0.08438304997980594635009765625">
        <ele>106.40000152587890625</ele>
        <time>2023-01-27T08:17:19.000Z</time>
      </trkpt>
      <trkpt lat="40.108619034290313720703125" lon="0.08431859314441680908203125">
        <ele>106.59999847412109375</ele>
        <time>2023-01-27T08:17:20.000Z</time>
      </trkpt>
      <trkpt lat="40.1086352951824665069580078125" lon="0.0842557288706302642822265625">
        <ele>106.59999847412109375</ele>
        <time>2023-01-27T08:17:21.000Z</time>
      </trkpt>
      <trkpt lat="40.10865063406527042388916015625" lon="0.08419252932071685791015625">
        <ele>106.8000030517578125</ele>
        <time>2023-01-27T08:17:22.000Z</time>
      </trkpt>
      <trkpt lat="40.1086617819964885711669921875" lon="0.0841276533901691436767578125">
        <ele>106.8000030517578125</ele>
        <time>2023-01-27T08:17:23.000Z</time>
      </trkpt>
      <trkpt lat="40.1086688227951526641845703125" lon="0.0840642862021923065185546875">
        <ele>107</ele>
        <time>2023-01-27T08:17:24.000Z</time>
      </trkpt>
      <trkpt lat="40.10867443867027759552001953125" lon="0.08400184102356433868408203125">
        <ele>107</ele>
        <time>2023-01-27T08:17:25.000Z</time>
      </trkpt>
      <trkpt lat="40.1086755283176898956298828125" lon="0.083942078053951263427734375">
        <ele>107.40000152587890625</ele>
        <time>2023-01-27T08:17:26.000Z</time>
      </trkpt>
      <trkpt lat="40.10867091827094554901123046875" lon="0.08388030342757701873779296875">
        <ele>107.40000152587890625</ele>
        <time>2023-01-27T08:17:27.000Z</time>
      </trkpt>
      <trkpt lat="40.1086641289293766021728515625" lon="0.08382095955312252044677734375">
        <ele>107.1999969482421875</ele>
        <time>2023-01-27T08:17:28.000Z</time>
      </trkpt>
      <trkpt lat="40.10865650139749050140380859375" lon="0.083760358393192291259765625">
        <ele>107.40000152587890625</ele>
        <time>2023-01-27T08:17:29.000Z</time>
      </trkpt>
      <trkpt lat="40.10864694602787494659423828125" lon="0.0836984999477863311767578125">
        <ele>107.8000030517578125</ele>
        <time>2023-01-27T08:17:30.000Z</time>
      </trkpt>
      <trkpt lat="40.10863487608730792999267578125" lon="0.08363739587366580963134765625">
        <ele>107.8000030517578125</ele>
        <time>2023-01-27T08:17:31.000Z</time>
      </trkpt>
      <trkpt lat="40.10861861519515514373779296875" lon="0.08357838727533817291259765625">
        <ele>108</ele>
        <time>2023-01-27T08:17:32.000Z</time>
      </trkpt>
      <trkpt lat="40.1086044497787952423095703125" lon="0.0835063867270946502685546875">
        <ele>108</ele>
        <time>2023-01-27T08:17:33.000Z</time>
      </trkpt>
      <trkpt lat="40.1085943914949893951416015625" lon="0.08344561792910099029541015625">
        <ele>108.1999969482421875</ele>
        <time>2023-01-27T08:17:34.000Z</time>
      </trkpt>
      <trkpt lat="40.10858508758246898651123046875" lon="0.0833833403885364532470703125">
        <ele>108.40000152587890625</ele>
        <time>2023-01-27T08:17:35.000Z</time>
      </trkpt>
      <trkpt lat="40.1085769571363925933837890625" lon="0.08333413861691951751708984375">
        <ele>108.59999847412109375</ele>
        <time>2023-01-27T08:17:36.000Z</time>
      </trkpt>
      <trkpt lat="40.10856698267161846160888671875" lon="0.08326976560056209564208984375">
        <ele>108.8000030517578125</ele>
        <time>2023-01-27T08:17:37.000Z</time>
      </trkpt>
      <trkpt lat="40.108555667102336883544921875" lon="0.08320690132677555084228515625">
        <ele>109.1999969482421875</ele>
        <time>2023-01-27T08:17:38.000Z</time>
      </trkpt>
      <trkpt lat="40.10854619555175304412841796875" lon="0.0831459648907184600830078125">
        <ele>109.40000152587890625</ele>
        <time>2023-01-27T08:17:39.000Z</time>
      </trkpt>
      <trkpt lat="40.10853094048798084259033203125" lon="0.08307396434247493743896484375">
        <ele>109.40000152587890625</ele>
        <time>2023-01-27T08:17:40.000Z</time>
      </trkpt>
      <trkpt lat="40.1085172779858112335205078125" lon="0.0830130279064178466796875">
        <ele>109.59999847412109375</ele>
        <time>2023-01-27T08:17:41.000Z</time>
      </trkpt>
      <trkpt lat="40.10850378312170505523681640625" lon="0.0829504989087581634521484375">
        <ele>109.59999847412109375</ele>
        <time>2023-01-27T08:17:42.000Z</time>
      </trkpt>
      <trkpt lat="40.1084911264479160308837890625" lon="0.08288872428238391876220703125">
        <ele>109.8000030517578125</ele>
        <time>2023-01-27T08:17:43.000Z</time>
      </trkpt>
      <trkpt lat="40.1084787212312221527099609375" lon="0.082827620208263397216796875">
        <ele>110.1999969482421875</ele>
        <time>2023-01-27T08:17:44.000Z</time>
      </trkpt>
      <trkpt lat="40.10846606455743312835693359375" lon="0.08276534266769886016845703125">
        <ele>110.40000152587890625</ele>
        <time>2023-01-27T08:17:45.000Z</time>
      </trkpt>
      <trkpt lat="40.10845248587429523468017578125" lon="0.082701556384563446044921875">
        <ele>110.59999847412109375</ele>
        <time>2023-01-27T08:17:46.000Z</time>
      </trkpt>
      <trkpt lat="40.10844008065760135650634765625" lon="0.08263693191111087799072265625">
        <ele>110.8000030517578125</ele>
        <time>2023-01-27T08:17:47.000Z</time>
      </trkpt>
      <trkpt lat="40.10842801071703433990478515625" lon="0.08257138542830944061279296875">
        <ele>110.8000030517578125</ele>
        <time>2023-01-27T08:17:48.000Z</time>
      </trkpt>
      <trkpt lat="40.1084160245954990386962890625" lon="0.0825042463839054107666015625">
        <ele>111</ele>
        <time>2023-01-27T08:17:49.000Z</time>
      </trkpt>
      <trkpt lat="40.108404457569122314453125" lon="0.08243593387305736541748046875">
        <ele>111.1999969482421875</ele>
        <time>2023-01-27T08:17:50.000Z</time>
      </trkpt>
      <trkpt lat="40.1083952374756336212158203125" lon="0.08238296024501323699951171875">
        <ele>111.59999847412109375</ele>
        <time>2023-01-27T08:17:51.000Z</time>
      </trkpt>
      <trkpt lat="40.10838274843990802764892578125" lon="0.08231540210545063018798828125">
        <ele>111.59999847412109375</ele>
        <time>2023-01-27T08:17:52.000Z</time>
      </trkpt>
      <trkpt lat="40.1083682477474212646484375" lon="0.08223460055887699127197265625">
        <ele>111.8000030517578125</ele>
        <time>2023-01-27T08:17:53.000Z</time>
      </trkpt>
      <trkpt lat="40.10835475288331508636474609375" lon="0.08216855116188526153564453125">
        <ele>112</ele>
        <time>2023-01-27T08:17:54.000Z</time>
      </trkpt>
      <trkpt lat="40.10833966545760631561279296875" lon="0.08209998719394207000732421875">
        <ele>112.40000152587890625</ele>
        <time>2023-01-27T08:17:55.000Z</time>
      </trkpt>
      <trkpt lat="40.10832876898348331451416015625" lon="0.08203041739761829376220703125">
        <ele>112.40000152587890625</ele>
        <time>2023-01-27T08:17:56.000Z</time>
      </trkpt>
      <trkpt lat="40.10832088999450206756591796875" lon="0.0819621048867702484130859375">
        <ele>112.59999847412109375</ele>
        <time>2023-01-27T08:17:57.000Z</time>
      </trkpt>
      <trkpt lat="40.1083107478916645050048828125" lon="0.08189580403268337249755859375">
        <ele>112.59999847412109375</ele>
        <time>2023-01-27T08:17:58.000Z</time>
      </trkpt>
      <trkpt lat="40.10830161161720752716064453125" lon="0.08182941935956478118896484375">
        <ele>112.8000030517578125</ele>
        <time>2023-01-27T08:17:59.000Z</time>
      </trkpt>
      <trkpt lat="40.10829255916178226470947265625" lon="0.08176186122000217437744140625">
        <ele>113</ele>
        <time>2023-01-27T08:18:00.000Z</time>
      </trkpt>
      <trkpt lat="40.10828250087797641754150390625" lon="0.0816958956420421600341796875">
        <ele>113.1999969482421875</ele>
        <time>2023-01-27T08:18:01.000Z</time>
      </trkpt>
      <trkpt lat="40.10827344842255115509033203125" lon="0.081643424928188323974609375">
        <ele>113.40000152587890625</ele>
        <time>2023-01-27T08:18:02.000Z</time>
      </trkpt>
      <trkpt lat="40.1082621328532695770263671875" lon="0.081562958657741546630859375">
        <ele>113.59999847412109375</ele>
        <time>2023-01-27T08:18:03.000Z</time>
      </trkpt>
      <trkpt lat="40.10825299657881259918212890625" lon="0.081497244536876678466796875">
        <ele>113.8000030517578125</ele>
        <time>2023-01-27T08:18:04.000Z</time>
      </trkpt>
      <trkpt lat="40.1082440279424190521240234375" lon="0.0814296863973140716552734375">
        <ele>113.8000030517578125</ele>
        <time>2023-01-27T08:18:05.000Z</time>
      </trkpt>
      <trkpt lat="40.1082349754869937896728515625" lon="0.08136279881000518798828125">
        <ele>114.1999969482421875</ele>
        <time>2023-01-27T08:18:06.000Z</time>
      </trkpt>
      <trkpt lat="40.1082287728786468505859375" lon="0.08131049573421478271484375">
        <ele>114.1999969482421875</ele>
        <time>2023-01-27T08:18:07.000Z</time>
      </trkpt>
      <trkpt lat="40.108219720423221588134765625" lon="0.0812342204153537750244140625">
        <ele>114.59999847412109375</ele>
        <time>2023-01-27T08:18:08.000Z</time>
      </trkpt>
      <trkpt lat="40.1082158647477626800537109375" lon="0.08116708137094974517822265625">
        <ele>114.8000030517578125</ele>
        <time>2023-01-27T08:18:09.000Z</time>
      </trkpt>
      <trkpt lat="40.10820924304425716400146484375" lon="0.08110304363071918487548828125">
        <ele>115</ele>
        <time>2023-01-27T08:18:10.000Z</time>
      </trkpt>
      <trkpt lat="40.10820069350302219390869140625" lon="0.08104034699499607086181640625">
        <ele>115</ele>
        <time>2023-01-27T08:18:11.000Z</time>
      </trkpt>
      <trkpt lat="40.1081923954188823699951171875" lon="0.080991648137569427490234375">
        <ele>115.40000152587890625</ele>
        <time>2023-01-27T08:18:12.000Z</time>
      </trkpt>
      <trkpt lat="40.10818074457347393035888671875" lon="0.0809197314083576202392578125">
        <ele>115.40000152587890625</ele>
        <time>2023-01-27T08:18:13.000Z</time>
      </trkpt>
      <trkpt lat="40.108170099556446075439453125" lon="0.0808600522577762603759765625">
        <ele>115.59999847412109375</ele>
        <time>2023-01-27T08:18:14.000Z</time>
      </trkpt>
      <trkpt lat="40.10815693996846675872802734375" lon="0.08080112747848033905029296875">
        <ele>115.8000030517578125</ele>
        <time>2023-01-27T08:18:15.000Z</time>
      </trkpt>
      <trkpt lat="40.10814436711370944976806640625" lon="0.0807527638971805572509765625">
        <ele>116.1999969482421875</ele>
        <time>2023-01-27T08:18:16.000Z</time>
      </trkpt>
      <trkpt lat="40.1081253401935100555419921875" lon="0.0806823559105396270751953125">
        <ele>116.1999969482421875</ele>
        <time>2023-01-27T08:18:17.000Z</time>
      </trkpt>
      <trkpt lat="40.10810882784426212310791015625" lon="0.08062678389251232147216796875">
        <ele>116.59999847412109375</ele>
        <time>2023-01-27T08:18:18.000Z</time>
      </trkpt>
      <trkpt lat="40.10809038765728473663330078125" lon="0.0805710442364215850830078125">
        <ele>116.59999847412109375</ele>
        <time>2023-01-27T08:18:19.000Z</time>
      </trkpt>
      <trkpt lat="40.10807060636579990386962890625" lon="0.0805143825709819793701171875">
        <ele>117</ele>
        <time>2023-01-27T08:18:20.000Z</time>
      </trkpt>
      <trkpt lat="40.10805065743625164031982421875" lon="0.080459229648113250732421875">
        <ele>117.1999969482421875</ele>
        <time>2023-01-27T08:18:21.000Z</time>
      </trkpt>
      <trkpt lat="40.1080281101167201995849609375" lon="0.08040248416364192962646484375">
        <ele>117.40000152587890625</ele>
        <time>2023-01-27T08:18:22.000Z</time>
      </trkpt>
      <trkpt lat="40.10800640098750591278076171875" lon="0.08034448139369487762451171875">
        <ele>117.40000152587890625</ele>
        <time>2023-01-27T08:18:23.000Z</time>
      </trkpt>
      <trkpt lat="40.107986368238925933837890625" lon="0.08028480224311351776123046875">
        <ele>117.8000030517578125</ele>
        <time>2023-01-27T08:18:24.000Z</time>
      </trkpt>
      <trkpt lat="40.10796667076647281646728515625" lon="0.08022411726415157318115234375">
        <ele>117.8000030517578125</ele>
        <time>2023-01-27T08:18:25.000Z</time>
      </trkpt>
      <trkpt lat="40.10794990696012973785400390625" lon="0.08018036372959613800048828125">
        <ele>118.1999969482421875</ele>
        <time>2023-01-27T08:18:26.000Z</time>
      </trkpt>
      <trkpt lat="40.107928700745105743408203125" lon="0.08012370206415653228759765625">
        <ele>118.1999969482421875</ele>
        <time>2023-01-27T08:18:27.000Z</time>
      </trkpt>
      <trkpt lat="40.10790447704493999481201171875" lon="0.08005647920072078704833984375">
        <ele>118.40000152587890625</ele>
        <time>2023-01-27T08:18:28.000Z</time>
      </trkpt>
      <trkpt lat="40.10788838379085063934326171875" lon="0.0800128094851970672607421875">
        <ele>118.59999847412109375</ele>
        <time>2023-01-27T08:18:29.000Z</time>
      </trkpt>
      <trkpt lat="40.1078681834042072296142578125" lon="0.07995857857167720794677734375">
        <ele>118.8000030517578125</ele>
        <time>2023-01-27T08:18:30.000Z</time>
      </trkpt>
      <trkpt lat="40.10783507488667964935302734375" lon="0.07989697158336639404296875">
        <ele>119</ele>
        <time>2023-01-27T08:18:31.000Z</time>
      </trkpt>
      <trkpt lat="40.1078048162162303924560546875" lon="0.07984869182109832763671875">
        <ele>119.1999969482421875</ele>
        <time>2023-01-27T08:18:32.000Z</time>
      </trkpt>
      <trkpt lat="40.10776902548968791961669921875" lon="0.079800076782703399658203125">
        <ele>119.40000152587890625</ele>
        <time>2023-01-27T08:18:33.000Z</time>
      </trkpt>
      <trkpt lat="40.10774069465696811676025390625" lon="0.0797469355165958404541015625">
        <ele>119.40000152587890625</ele>
        <time>2023-01-27T08:18:34.000Z</time>
      </trkpt>
      <trkpt lat="40.107710771262645721435546875" lon="0.07969454862177371978759765625">
        <ele>119.8000030517578125</ele>
        <time>2023-01-27T08:18:35.000Z</time>
      </trkpt>
      <trkpt lat="40.10768621228635311126708984375" lon="0.07965289056301116943359375">
        <ele>119.8000030517578125</ele>
        <time>2023-01-27T08:18:36.000Z</time>
      </trkpt>
      <trkpt lat="40.10764715261757373809814453125" lon="0.079590193927288055419921875">
        <ele>120</ele>
        <time>2023-01-27T08:18:37.000Z</time>
      </trkpt>
      <trkpt lat="40.10761320590972900390625" lon="0.0795357115566730499267578125">
        <ele>120</ele>
        <time>2023-01-27T08:18:38.000Z</time>
      </trkpt>
      <trkpt lat="40.10757808573544025421142578125" lon="0.07948198355734348297119140625">
        <ele>120</ele>
        <time>2023-01-27T08:18:39.000Z</time>
      </trkpt>
      <trkpt lat="40.1075412891805171966552734375" lon="0.07942632772028446197509765625">
        <ele>120</ele>
        <time>2023-01-27T08:18:40.000Z</time>
      </trkpt>
      <trkpt lat="40.10750449262559413909912109375" lon="0.079369582235813140869140625">
        <ele>120</ele>
        <time>2023-01-27T08:18:41.000Z</time>
      </trkpt>
      <trkpt lat="40.1074658520519733428955078125" lon="0.07931166328489780426025390625">
        <ele>120.1999969482421875</ele>
        <time>2023-01-27T08:18:42.000Z</time>
      </trkpt>
      <trkpt lat="40.107425116002559661865234375" lon="0.07925282232463359832763671875">
        <ele>120.1999969482421875</ele>
        <time>2023-01-27T08:18:43.000Z</time>
      </trkpt>
      <trkpt lat="40.10738245211541652679443359375" lon="0.07919364608824253082275390625">
        <ele>120.1999969482421875</ele>
        <time>2023-01-27T08:18:44.000Z</time>
      </trkpt>
      <trkpt lat="40.1073371060192584991455078125" lon="0.0791374035179615020751953125">
        <ele>120.1999969482421875</ele>
        <time>2023-01-27T08:18:45.000Z</time>
      </trkpt>
      <trkpt lat="40.10730081237852573394775390625" lon="0.07908962666988372802734375">
        <ele>120.1999969482421875</ele>
        <time>2023-01-27T08:18:46.000Z</time>
      </trkpt>
      <trkpt lat="40.107256136834621429443359375" lon="0.07902986370027065277099609375">
        <ele>120.1999969482421875</ele>
        <time>2023-01-27T08:18:47.000Z</time>
      </trkpt>
      <trkpt lat="40.1072110421955585479736328125" lon="0.07897253148257732391357421875">
        <ele>120</ele>
        <time>2023-01-27T08:18:48.000Z</time>
      </trkpt>
      <trkpt lat="40.10716460645198822021484375" lon="0.07891972549259662628173828125">
        <ele>120</ele>
        <time>2023-01-27T08:18:49.000Z</time>
      </trkpt>
      <trkpt lat="40.1071185059845447540283203125" lon="0.0788688473403453826904296875">
        <ele>120</ele>
        <time>2023-01-27T08:18:50.000Z</time>
      </trkpt>
      <trkpt lat="40.1070722378790378570556640625" lon="0.078819729387760162353515625">
        <ele>120</ele>
        <time>2023-01-27T08:18:51.000Z</time>
      </trkpt>
      <trkpt lat="40.107026807963848114013671875" lon="0.07877354510128498077392578125">
        <ele>119.8000030517578125</ele>
        <time>2023-01-27T08:18:52.000Z</time>
      </trkpt>
      <trkpt lat="40.10698364116251468658447265625" lon="0.07873247377574443817138671875">
        <ele>119.59999847412109375</ele>
        <time>2023-01-27T08:18:53.000Z</time>
      </trkpt>
      <trkpt lat="40.10690082795917987823486328125" lon="0.0786437094211578369140625">
        <ele>119.40000152587890625</ele>
        <time>2023-01-27T08:18:55.000Z</time>
      </trkpt>
      <trkpt lat="40.10686361230909824371337890625" lon="0.07860305719077587127685546875">
        <ele>119.1999969482421875</ele>
        <time>2023-01-27T08:18:56.000Z</time>
      </trkpt>
      <trkpt lat="40.1068271510303020477294921875" lon="0.07856131531298160552978515625">
        <ele>119.1999969482421875</ele>
        <time>2023-01-27T08:18:57.000Z</time>
      </trkpt>
      <trkpt lat="40.1067892648279666900634765625" lon="0.0785117782652378082275390625">
        <ele>119</ele>
        <time>2023-01-27T08:18:58.000Z</time>
      </trkpt>
      <trkpt lat="40.10665724985301494598388671875" lon="0.07835897617042064666748046875">
        <ele>118.8000030517578125</ele>
        <time>2023-01-27T08:19:01.000Z</time>
      </trkpt>
      <trkpt lat="40.10650838725268840789794921875" lon="0.0781614147126674652099609375">
        <ele>118.40000152587890625</ele>
        <time>2023-01-27T08:19:04.000Z</time>
      </trkpt>
      <trkpt lat="40.10641702450811862945556640625" lon="0.07803912274539470672607421875">
        <ele>118</ele>
        <time>2023-01-27T08:19:06.000Z</time>
      </trkpt>
      <trkpt lat="40.10635600425302982330322265625" lon="0.0779418088495731353759765625">
        <ele>117.8000030517578125</ele>
        <time>2023-01-27T08:19:07.000Z</time>
      </trkpt>
      <trkpt lat="40.10627947747707366943359375" lon="0.077772326767444610595703125">
        <ele>117</ele>
        <time>2023-01-27T08:19:09.000Z</time>
      </trkpt>
      <trkpt lat="40.10625089518725872039794921875" lon="0.07764550857245922088623046875">
        <ele>116.8000030517578125</ele>
        <time>2023-01-27T08:19:10.000Z</time>
      </trkpt>
      <trkpt lat="40.10623455047607421875" lon="0.07746479474008083343505859375">
        <ele>116</ele>
        <time>2023-01-27T08:19:12.000Z</time>
      </trkpt>
      <trkpt lat="40.10623044334352016448974609375" lon="0.07737795822322368621826171875">
        <ele>115.40000152587890625</ele>
        <time>2023-01-27T08:19:13.000Z</time>
      </trkpt>
      <trkpt lat="40.1062283478677272796630859375" lon="0.07729615084826946258544921875">
        <ele>115</ele>
        <time>2023-01-27T08:19:14.000Z</time>
      </trkpt>
      <trkpt lat="40.1062249951064586639404296875" lon="0.0772192887961864471435546875">
        <ele>114.59999847412109375</ele>
        <time>2023-01-27T08:19:15.000Z</time>
      </trkpt>
      <trkpt lat="40.1062224805355072021484375" lon="0.07714636623859405517578125">
        <ele>114.59999847412109375</ele>
        <time>2023-01-27T08:19:16.000Z</time>
      </trkpt>
      <trkpt lat="40.10622021742165088653564453125" lon="0.0770767964422702789306640625">
        <ele>114.40000152587890625</ele>
        <time>2023-01-27T08:19:17.000Z</time>
      </trkpt>
      <trkpt lat="40.10622180998325347900390625" lon="0.0770094059407711029052734375">
        <ele>114.1999969482421875</ele>
        <time>2023-01-27T08:19:18.000Z</time>
      </trkpt>
      <trkpt lat="40.1062296889722347259521484375" lon="0.07694025523960590362548828125">
        <ele>114.1999969482421875</ele>
        <time>2023-01-27T08:19:19.000Z</time>
      </trkpt>
      <trkpt lat="40.1062414236366748809814453125" lon="0.07686196826398372650146484375">
        <ele>114.1999969482421875</ele>
        <time>2023-01-27T08:19:20.000Z</time>
      </trkpt>
      <trkpt lat="40.1062561757862567901611328125" lon="0.0767971761524677276611328125">
        <ele>114.40000152587890625</ele>
        <time>2023-01-27T08:19:21.000Z</time>
      </trkpt>
      <trkpt lat="40.106297247111797332763671875" lon="0.07667069323360919952392578125">
        <ele>114.8000030517578125</ele>
        <time>2023-01-27T08:19:23.000Z</time>
      </trkpt>
      <trkpt lat="40.106346867978572845458984375" lon="0.07654529996216297149658203125">
        <ele>115.40000152587890625</ele>
        <time>2023-01-27T08:19:25.000Z</time>
      </trkpt>
      <trkpt lat="40.1065042801201343536376953125" lon="0.0762458145618438720703125">
        <ele>116.40000152587890625</ele>
        <time>2023-01-27T08:19:30.000Z</time>
      </trkpt>
      <trkpt lat="40.10657594539225101470947265625" lon="0.0761504285037517547607421875">
        <ele>116.8000030517578125</ele>
        <time>2023-01-27T08:19:32.000Z</time>
      </trkpt>
      <trkpt lat="40.10681348852813243865966796875" lon="0.0759132206439971923828125">
        <ele>117.59999847412109375</ele>
        <time>2023-01-27T08:19:37.000Z</time>
      </trkpt>
      <trkpt lat="40.10686218738555908203125" lon="0.0758744962513446807861328125">
        <ele>117.8000030517578125</ele>
        <time>2023-01-27T08:19:38.000Z</time>
      </trkpt>
      <trkpt lat="40.10722353123128414154052734375" lon="0.0756200216710567474365234375">
        <ele>118.59999847412109375</ele>
        <time>2023-01-27T08:19:45.000Z</time>
      </trkpt>
      <trkpt lat="40.10727633722126483917236328125" lon="0.0755824707448482513427734375">
        <ele>118.8000030517578125</ele>
        <time>2023-01-27T08:19:46.000Z</time>
      </trkpt>
      <trkpt lat="40.10732897557318210601806640625" lon="0.07554751820862293243408203125">
        <ele>119</ele>
        <time>2023-01-27T08:19:47.000Z</time>
      </trkpt>
      <trkpt lat="40.1073830388486385345458984375" lon="0.07551415823400020599365234375">
        <ele>119</ele>
        <time>2023-01-27T08:19:48.000Z</time>
      </trkpt>
      <trkpt lat="40.10743685066699981689453125" lon="0.0754788704216480255126953125">
        <ele>119.1999969482421875</ele>
        <time>2023-01-27T08:19:49.000Z</time>
      </trkpt>
      <trkpt lat="40.10748957283794879913330078125" lon="0.07544291205704212188720703125">
        <ele>119.40000152587890625</ele>
        <time>2023-01-27T08:19:50.000Z</time>
      </trkpt>
      <trkpt lat="40.1075312308967113494873046875" lon="0.07541357539594173431396484375">
        <ele>119.59999847412109375</ele>
        <time>2023-01-27T08:19:51.000Z</time>
      </trkpt>
      <trkpt lat="40.10758965276181697845458984375" lon="0.07536680437624454498291015625">
        <ele>119.59999847412109375</ele>
        <time>2023-01-27T08:19:52.000Z</time>
      </trkpt>
      <trkpt lat="40.10764229111373424530029296875" lon="0.07533109746873378753662109375">
        <ele>119.59999847412109375</ele>
        <time>2023-01-27T08:19:53.000Z</time>
      </trkpt>
      <trkpt lat="40.10768436826765537261962890625" lon="0.0753043591976165771484375">
        <ele>119.8000030517578125</ele>
        <time>2023-01-27T08:19:54.000Z</time>
      </trkpt>
      <trkpt lat="40.107736252248287200927734375" lon="0.07527150213718414306640625">
        <ele>119.8000030517578125</ele>
        <time>2023-01-27T08:19:55.000Z</time>
      </trkpt>
      <trkpt lat="40.1077880524098873138427734375" lon="0.0752346217632293701171875">
        <ele>119.8000030517578125</ele>
        <time>2023-01-27T08:19:56.000Z</time>
      </trkpt>
      <trkpt lat="40.10783859528601169586181640625" lon="0.075193382799625396728515625">
        <ele>119.8000030517578125</ele>
        <time>2023-01-27T08:19:57.000Z</time>
      </trkpt>
      <trkpt lat="40.10788519866764545440673828125" lon="0.075145773589611053466796875">
        <ele>120</ele>
        <time>2023-01-27T08:19:58.000Z</time>
      </trkpt>
      <trkpt lat="40.1079268567264080047607421875" lon="0.0750949792563915252685546875">
        <ele>120</ele>
        <time>2023-01-27T08:19:59.000Z</time>
      </trkpt>
      <trkpt lat="40.107964240014553070068359375" lon="0.07504141889512538909912109375">
        <ele>120</ele>
        <time>2023-01-27T08:20:00.000Z</time>
      </trkpt>
      <trkpt lat="40.1079965941607952117919921875" lon="0.07498106919229030609130859375">
        <ele>120</ele>
        <time>2023-01-27T08:20:01.000Z</time>
      </trkpt>
      <trkpt lat="40.10802266187965869903564453125" lon="0.0749156065285205841064453125">
        <ele>120.1999969482421875</ele>
        <time>2023-01-27T08:20:02.000Z</time>
      </trkpt>
      <trkpt lat="40.10804839432239532470703125" lon="0.07483120076358318328857421875">
        <ele>120.40000152587890625</ele>
        <time>2023-01-27T08:20:03.000Z</time>
      </trkpt>
      <trkpt lat="40.10806758888065814971923828125" lon="0.0747570209205150604248046875">
        <ele>120.40000152587890625</ele>
        <time>2023-01-27T08:20:04.000Z</time>
      </trkpt>
      <trkpt lat="40.10808502323925495147705078125" lon="0.0746849365532398223876953125">
        <ele>120.8000030517578125</ele>
        <time>2023-01-27T08:20:05.000Z</time>
      </trkpt>
      <trkpt lat="40.108103044331073760986328125" lon="0.0746108405292034149169921875">
        <ele>120.8000030517578125</ele>
        <time>2023-01-27T08:20:06.000Z</time>
      </trkpt>
      <trkpt lat="40.108115784823894500732421875" lon="0.07455174811184406280517578125">
        <ele>121</ele>
        <time>2023-01-27T08:20:07.000Z</time>
      </trkpt>
      <trkpt lat="40.1081317104399204254150390625" lon="0.07445921190083026885986328125">
        <ele>121.1999969482421875</ele>
        <time>2023-01-27T08:20:08.000Z</time>
      </trkpt>
      <trkpt lat="40.1081431098282337188720703125" lon="0.0743811763823032379150390625">
        <ele>121.1999969482421875</ele>
        <time>2023-01-27T08:20:09.000Z</time>
      </trkpt>
      <trkpt lat="40.1081528328359127044677734375" lon="0.07430196739733219146728515625">
        <ele>121.40000152587890625</ele>
        <time>2023-01-27T08:20:10.000Z</time>
      </trkpt>
      <trkpt lat="40.10815761052072048187255859375" lon="0.0742376782000064849853515625">
        <ele>121.59999847412109375</ele>
        <time>2023-01-27T08:20:11.000Z</time>
      </trkpt>
      <trkpt lat="40.10815442539751529693603515625" lon="0.074160732328891754150390625">
        <ele>121.8000030517578125</ele>
        <time>2023-01-27T08:20:12.000Z</time>
      </trkpt>
      <trkpt lat="40.10814151726663112640380859375" lon="0.074083618819713592529296875">
        <ele>121.8000030517578125</ele>
        <time>2023-01-27T08:20:13.000Z</time>
      </trkpt>
      <trkpt lat="40.108121819794178009033203125" lon="0.07400826551020145416259765625">
        <ele>121.59999847412109375</ele>
        <time>2023-01-27T08:20:14.000Z</time>
      </trkpt>
      <trkpt lat="40.10809608735144138336181640625" lon="0.07393517531454563140869140625">
        <ele>121.59999847412109375</ele>
        <time>2023-01-27T08:20:15.000Z</time>
      </trkpt>
      <trkpt lat="40.1080683432519435882568359375" lon="0.073860995471477508544921875">
        <ele>121.8000030517578125</ele>
        <time>2023-01-27T08:20:16.000Z</time>
      </trkpt>
      <trkpt lat="40.10803892277181148529052734375" lon="0.073787905275821685791015625">
        <ele>122</ele>
        <time>2023-01-27T08:20:17.000Z</time>
      </trkpt>
      <trkpt lat="40.10800137184560298919677734375" lon="0.07370316423475742340087890625">
        <ele>122</ele>
        <time>2023-01-27T08:20:18.000Z</time>
      </trkpt>
      <trkpt lat="40.10796868242323398590087890625" lon="0.07363409735262393951416015625">
        <ele>122</ele>
        <time>2023-01-27T08:20:19.000Z</time>
      </trkpt>
      <trkpt lat="40.10794001631438732147216796875" lon="0.07357961498200893402099609375">
        <ele>122.1999969482421875</ele>
        <time>2023-01-27T08:20:20.000Z</time>
      </trkpt>
      <trkpt lat="40.107904560863971710205078125" lon="0.07351188920438289642333984375">
        <ele>122.1999969482421875</ele>
        <time>2023-01-27T08:20:21.000Z</time>
      </trkpt>
      <trkpt lat="40.107861645519733428955078125" lon="0.07343418896198272705078125">
        <ele>122.1999969482421875</ele>
        <time>2023-01-27T08:20:22.000Z</time>
      </trkpt>
      <trkpt lat="40.1078252680599689483642578125" lon="0.07337174378335475921630859375">
        <ele>122.1999969482421875</ele>
        <time>2023-01-27T08:20:23.000Z</time>
      </trkpt>
      <trkpt lat="40.10778679512441158294677734375" lon="0.07330988533794879913330078125">
        <ele>122.40000152587890625</ele>
        <time>2023-01-27T08:20:24.000Z</time>
      </trkpt>
      <trkpt lat="40.10774991475045680999755859375" lon="0.07324702106416225433349609375">
        <ele>122.59999847412109375</ele>
        <time>2023-01-27T08:20:25.000Z</time>
      </trkpt>
      <trkpt lat="40.1077164709568023681640625" lon="0.0731818936765193939208984375">
        <ele>122.8000030517578125</ele>
        <time>2023-01-27T08:20:26.000Z</time>
      </trkpt>
      <trkpt lat="40.10768604464828968048095703125" lon="0.073118694126605987548828125">
        <ele>122.8000030517578125</ele>
        <time>2023-01-27T08:20:27.000Z</time>
      </trkpt>
      <trkpt lat="40.10765436105430126190185546875" lon="0.073059014976024627685546875">
        <ele>123</ele>
        <time>2023-01-27T08:20:28.000Z</time>
      </trkpt>
      <trkpt lat="40.107616893947124481201171875" lon="0.07300176657736301422119140625">
        <ele>123.1999969482421875</ele>
        <time>2023-01-27T08:20:29.000Z</time>
      </trkpt>
      <trkpt lat="40.10758110322058200836181640625" lon="0.0729451887309551239013671875">
        <ele>123.40000152587890625</ele>
        <time>2023-01-27T08:20:30.000Z</time>
      </trkpt>
      <trkpt lat="40.10754757560789585113525390625" lon="0.0728888623416423797607421875">
        <ele>123.8000030517578125</ele>
        <time>2023-01-27T08:20:31.000Z</time>
      </trkpt>
      <trkpt lat="40.1075153052806854248046875" lon="0.07283345796167850494384765625">
        <ele>124</ele>
        <time>2023-01-27T08:20:32.000Z</time>
      </trkpt>
      <trkpt lat="40.10748219676315784454345703125" lon="0.0727765448391437530517578125">
        <ele>124.1999969482421875</ele>
        <time>2023-01-27T08:20:33.000Z</time>
      </trkpt>
      <trkpt lat="40.107450596988201141357421875" lon="0.07272315211594104766845703125">
        <ele>124.1999969482421875</ele>
        <time>2023-01-27T08:20:34.000Z</time>
      </trkpt>
      <trkpt lat="40.10741950012743473052978515625" lon="0.072674453258514404296875">
        <ele>124.1999969482421875</ele>
        <time>2023-01-27T08:20:35.000Z</time>
      </trkpt>
      <trkpt lat="40.107386223971843719482421875" lon="0.07262156344950199127197265625">
        <ele>124.40000152587890625</ele>
        <time>2023-01-27T08:20:36.000Z</time>
      </trkpt>
      <trkpt lat="40.107352696359157562255859375" lon="0.0725606270134449005126953125">
        <ele>124.59999847412109375</ele>
        <time>2023-01-27T08:20:37.000Z</time>
      </trkpt>
      <trkpt lat="40.107319839298725128173828125" lon="0.0725022889673709869384765625">
        <ele>124.8000030517578125</ele>
        <time>2023-01-27T08:20:38.000Z</time>
      </trkpt>
      <trkpt lat="40.10728907771408557891845703125" lon="0.0724416039884090423583984375">
        <ele>125</ele>
        <time>2023-01-27T08:20:39.000Z</time>
      </trkpt>
      <trkpt lat="40.10726384818553924560546875" lon="0.07237982936203479766845703125">
        <ele>125</ele>
        <time>2023-01-27T08:20:40.000Z</time>
      </trkpt>
      <trkpt lat="40.107245407998561859130859375" lon="0.07232911884784698486328125">
        <ele>125</ele>
        <time>2023-01-27T08:20:41.000Z</time>
      </trkpt>
      <trkpt lat="40.10721682570874691009521484375" lon="0.07225259207189083099365234375">
        <ele>125.59999847412109375</ele>
        <time>2023-01-27T08:20:42.000Z</time>
      </trkpt>
      <trkpt lat="40.1071988046169281005859375" lon="0.07220012135803699493408203125">
        <ele>126.40000152587890625</ele>
        <time>2023-01-27T08:20:43.000Z</time>
      </trkpt>
      <trkpt lat="40.10717173106968402862548828125" lon="0.07212124764919281005859375">
        <ele>126.59999847412109375</ele>
        <time>2023-01-27T08:20:44.000Z</time>
      </trkpt>
      <trkpt lat="40.1071527041494846343994140625" lon="0.07206835784018039703369140625">
        <ele>126.59999847412109375</ele>
        <time>2023-01-27T08:20:45.000Z</time>
      </trkpt>
      <trkpt lat="40.10713200084865093231201171875" lon="0.0719990395009517669677734375">
        <ele>126.8000030517578125</ele>
        <time>2023-01-27T08:20:46.000Z</time>
      </trkpt>
      <trkpt lat="40.1071097888052463531494140625" lon="0.07191739976406097412109375">
        <ele>127</ele>
        <time>2023-01-27T08:20:47.000Z</time>
      </trkpt>
      <trkpt lat="40.10710048489272594451904296875" lon="0.0718629173934459686279296875">
        <ele>127</ele>
        <time>2023-01-27T08:20:48.000Z</time>
      </trkpt>
      <trkpt lat="40.10709352791309356689453125" lon="0.07179141975939273834228515625">
        <ele>127</ele>
        <time>2023-01-27T08:20:49.000Z</time>
      </trkpt>
      <trkpt lat="40.1070896722376346588134765625" lon="0.0717194192111492156982421875">
        <ele>127</ele>
        <time>2023-01-27T08:20:50.000Z</time>
      </trkpt>
      <trkpt lat="40.1070906780660152435302734375" lon="0.071646831929683685302734375">
        <ele>127</ele>
        <time>2023-01-27T08:20:51.000Z</time>
      </trkpt>
      <trkpt lat="40.10710132308304309844970703125" lon="0.071564018726348876953125">
        <ele>127</ele>
        <time>2023-01-27T08:20:52.000Z</time>
      </trkpt>
      <trkpt lat="40.10711590759456157684326171875" lon="0.07149788551032543182373046875">
        <ele>127.1999969482421875</ele>
        <time>2023-01-27T08:20:53.000Z</time>
      </trkpt>
      <trkpt lat="40.10713485069572925567626953125" lon="0.0714351050555706024169921875">
        <ele>127.1999969482421875</ele>
        <time>2023-01-27T08:20:54.000Z</time>
      </trkpt>
      <trkpt lat="40.10715815238654613494873046875" lon="0.071376264095306396484375">
        <ele>127.40000152587890625</ele>
        <time>2023-01-27T08:20:55.000Z</time>
      </trkpt>
      <trkpt lat="40.10718329809606075286865234375" lon="0.07131750695407390594482421875">
        <ele>127.8000030517578125</ele>
        <time>2023-01-27T08:20:56.000Z</time>
      </trkpt>
      <trkpt lat="40.1072076894342899322509765625" lon="0.07125967182219028472900390625">
        <ele>127.8000030517578125</ele>
        <time>2023-01-27T08:20:57.000Z</time>
      </trkpt>
      <trkpt lat="40.10723166167736053466796875" lon="0.071201585233211517333984375">
        <ele>128.1999969482421875</ele>
        <time>2023-01-27T08:20:58.000Z</time>
      </trkpt>
      <trkpt lat="40.1072556339204311370849609375" lon="0.07114433683454990386962890625">
        <ele>128.399993896484375</ele>
        <time>2023-01-27T08:20:59.000Z</time>
      </trkpt>
      <trkpt lat="40.1072797738015651702880859375" lon="0.07108482532203197479248046875">
        <ele>128.600006103515625</ele>
        <time>2023-01-27T08:21:00.000Z</time>
      </trkpt>
      <trkpt lat="40.107302404940128326416015625" lon="0.0710250623524188995361328125">
        <ele>128.8000030517578125</ele>
        <time>2023-01-27T08:21:01.000Z</time>
      </trkpt>
      <trkpt lat="40.10732193477451801300048828125" lon="0.07096596993505954742431640625">
        <ele>129.1999969482421875</ele>
        <time>2023-01-27T08:21:02.000Z</time>
      </trkpt>
      <trkpt lat="40.10734431445598602294921875" lon="0.07090612314641475677490234375">
        <ele>129.399993896484375</ele>
        <time>2023-01-27T08:21:03.000Z</time>
      </trkpt>
      <trkpt lat="40.107365436851978302001953125" lon="0.07084493525326251983642578125">
        <ele>129.8000030517578125</ele>
        <time>2023-01-27T08:21:04.000Z</time>
      </trkpt>
      <trkpt lat="40.10738831944763660430908203125" lon="0.07078626193106174468994140625">
        <ele>130</ele>
        <time>2023-01-27T08:21:05.000Z</time>
      </trkpt>
      <trkpt lat="40.10741011239588260650634765625" lon="0.0707244873046875">
        <ele>130.399993896484375</ele>
        <time>2023-01-27T08:21:06.000Z</time>
      </trkpt>
      <trkpt lat="40.10742821730673313140869140625" lon="0.07066271267831325531005859375">
        <ele>130.600006103515625</ele>
        <time>2023-01-27T08:21:07.000Z</time>
      </trkpt>
      <trkpt lat="40.10744799859821796417236328125" lon="0.07059934549033641815185546875">
        <ele>130.8000030517578125</ele>
        <time>2023-01-27T08:21:08.000Z</time>
      </trkpt>
      <trkpt lat="40.10746861808001995086669921875" lon="0.07053312845528125762939453125">
        <ele>131</ele>
        <time>2023-01-27T08:21:09.000Z</time>
      </trkpt>
      <trkpt lat="40.1074849627912044525146484375" lon="0.07048233412206172943115234375">
        <ele>131.1999969482421875</ele>
        <time>2023-01-27T08:21:10.000Z</time>
      </trkpt>
      <trkpt lat="40.1075084321200847625732421875" lon="0.0704044662415981292724609375">
        <ele>131.1999969482421875</ele>
        <time>2023-01-27T08:21:11.000Z</time>
      </trkpt>
      <trkpt lat="40.10752947069704532623291015625" lon="0.070339925587177276611328125">
        <ele>131.399993896484375</ele>
        <time>2023-01-27T08:21:12.000Z</time>
      </trkpt>
      <trkpt lat="40.107550509274005889892578125" lon="0.0702752172946929931640625">
        <ele>131.600006103515625</ele>
        <time>2023-01-27T08:21:13.000Z</time>
      </trkpt>
      <trkpt lat="40.10757288895547389984130859375" lon="0.07020908407866954803466796875">
        <ele>131.600006103515625</ele>
        <time>2023-01-27T08:21:14.000Z</time>
      </trkpt>
      <trkpt lat="40.1075956039130687713623046875" lon="0.07015627808868885040283203125">
        <ele>131.8000030517578125</ele>
        <time>2023-01-27T08:21:15.000Z</time>
      </trkpt>
      <trkpt lat="40.10762485675513744354248046875" lon="0.070094503462314605712890625">
        <ele>131.8000030517578125</ele>
        <time>2023-01-27T08:21:16.000Z</time>
      </trkpt>
      <trkpt lat="40.107659138739109039306640625" lon="0.07001797668635845184326171875">
        <ele>132</ele>
        <time>2023-01-27T08:21:17.000Z</time>
      </trkpt>
      <trkpt lat="40.10768763720989227294921875" lon="0.06995276547968387603759765625">
        <ele>132</ele>
        <time>2023-01-27T08:21:18.000Z</time>
      </trkpt>
      <trkpt lat="40.10771873407065868377685546875" lon="0.069885961711406707763671875">
        <ele>132.1999969482421875</ele>
        <time>2023-01-27T08:21:19.000Z</time>
      </trkpt>
      <trkpt lat="40.1077501662075519561767578125" lon="0.06981764920055866241455078125">
        <ele>132.1999969482421875</ele>
        <time>2023-01-27T08:21:20.000Z</time>
      </trkpt>
      <trkpt lat="40.10777371935546398162841796875" lon="0.0697617419064044952392578125">
        <ele>132.1999969482421875</ele>
        <time>2023-01-27T08:21:21.000Z</time>
      </trkpt>
      <trkpt lat="40.1078038103878498077392578125" lon="0.06967230699956417083740234375">
        <ele>132.1999969482421875</ele>
        <time>2023-01-27T08:21:22.000Z</time>
      </trkpt>
      <trkpt lat="40.10782619006931781768798828125" lon="0.0695947743952274322509765625">
        <ele>132.399993896484375</ele>
        <time>2023-01-27T08:21:23.000Z</time>
      </trkpt>
      <trkpt lat="40.107848234474658966064453125" lon="0.06951640360057353973388671875">
        <ele>132.399993896484375</ele>
        <time>2023-01-27T08:21:24.000Z</time>
      </trkpt>
      <trkpt lat="40.107863657176494598388671875" lon="0.0694516114890575408935546875">
        <ele>132.399993896484375</ele>
        <time>2023-01-27T08:21:25.000Z</time>
      </trkpt>
      <trkpt lat="40.1078879646956920623779296875" lon="0.0693540461361408233642578125">
        <ele>132.399993896484375</ele>
        <time>2023-01-27T08:21:26.000Z</time>
      </trkpt>
      <trkpt lat="40.107902549207210540771484375" lon="0.06928875111043453216552734375">
        <ele>132.600006103515625</ele>
        <time>2023-01-27T08:21:27.000Z</time>
      </trkpt>
      <trkpt lat="40.1079203188419342041015625" lon="0.06920644082129001617431640625">
        <ele>132.600006103515625</ele>
        <time>2023-01-27T08:21:28.000Z</time>
      </trkpt>
      <trkpt lat="40.107937417924404144287109375" lon="0.06912480108439922332763671875">
        <ele>132.600006103515625</ele>
        <time>2023-01-27T08:21:29.000Z</time>
      </trkpt>
      <trkpt lat="40.10795074515044689178466796875" lon="0.06904114969074726104736328125">
        <ele>132.600006103515625</ele>
        <time>2023-01-27T08:21:30.000Z</time>
      </trkpt>
      <trkpt lat="40.107963569462299346923828125" lon="0.0689584203064441680908203125">
        <ele>132.600006103515625</ele>
        <time>2023-01-27T08:21:31.000Z</time>
      </trkpt>
      <trkpt lat="40.10797505266964435577392578125" lon="0.06887418217957019805908203125">
        <ele>132.600006103515625</ele>
        <time>2023-01-27T08:21:32.000Z</time>
      </trkpt>
      <trkpt lat="40.1079885475337505340576171875" lon="0.06877326406538486480712890625">
        <ele>132.600006103515625</ele>
        <time>2023-01-27T08:21:33.000Z</time>
      </trkpt>
      <trkpt lat="40.10799751617014408111572265625" lon="0.06870570592582225799560546875">
        <ele>132.600006103515625</ele>
        <time>2023-01-27T08:21:34.000Z</time>
      </trkpt>
      <trkpt lat="40.10800757445394992828369140625" lon="0.06862171925604343414306640625">
        <ele>132.600006103515625</ele>
        <time>2023-01-27T08:21:35.000Z</time>
      </trkpt>
      <trkpt lat="40.10810011066496372222900390625" lon="0.06794613786041736602783203125">
        <ele>133</ele>
        <time>2023-01-27T08:21:43.000Z</time>
      </trkpt>
      <trkpt lat="40.10812223888933658599853515625" lon="0.06780498661100864410400390625">
        <ele>133.399993896484375</ele>
        <time>2023-01-27T08:21:45.000Z</time>
      </trkpt>
      <trkpt lat="40.10813615284860134124755859375" lon="0.06771127693355083465576171875">
        <ele>133.600006103515625</ele>
        <time>2023-01-27T08:21:46.000Z</time>
      </trkpt>
      <trkpt lat="40.10814704932272434234619140625" lon="0.0676354207098484039306640625">
        <ele>133.600006103515625</ele>
        <time>2023-01-27T08:21:47.000Z</time>
      </trkpt>
      <trkpt lat="40.10817353613674640655517578125" lon="0.06748261861503124237060546875">
        <ele>134</ele>
        <time>2023-01-27T08:21:49.000Z</time>
      </trkpt>
      <trkpt lat="40.1081890426576137542724609375" lon="0.06740852259099483489990234375">
        <ele>134.1999969482421875</ele>
        <time>2023-01-27T08:21:50.000Z</time>
      </trkpt>
      <trkpt lat="40.1082058064639568328857421875" lon="0.0673363544046878814697265625">
        <ele>134.399993896484375</ele>
        <time>2023-01-27T08:21:51.000Z</time>
      </trkpt>
      <trkpt lat="40.1082426868379116058349609375" lon="0.06719268858432769775390625">
        <ele>134.8000030517578125</ele>
        <time>2023-01-27T08:21:53.000Z</time>
      </trkpt>
      <trkpt lat="40.10826070792973041534423828125" lon="0.067123286426067352294921875">
        <ele>135</ele>
        <time>2023-01-27T08:21:54.000Z</time>
      </trkpt>
      <trkpt lat="40.1082819141447544097900390625" lon="0.06707198917865753173828125">
        <ele>135</ele>
        <time>2023-01-27T08:21:55.000Z</time>
      </trkpt>
      <trkpt lat="40.10831703431904315948486328125" lon="0.06699630059301853179931640625">
        <ele>135.600006103515625</ele>
        <time>2023-01-27T08:21:56.000Z</time>
      </trkpt>
      <trkpt lat="40.10834586806595325469970703125" lon="0.0669356994330883026123046875">
        <ele>135.600006103515625</ele>
        <time>2023-01-27T08:21:57.000Z</time>
      </trkpt>
      <trkpt lat="40.10837906040251255035400390625" lon="0.06687509827315807342529296875">
        <ele>135.8000030517578125</ele>
        <time>2023-01-27T08:21:58.000Z</time>
      </trkpt>
      <trkpt lat="40.108406133949756622314453125" lon="0.06682732142508029937744140625">
        <ele>136.1999969482421875</ele>
        <time>2023-01-27T08:21:59.000Z</time>
      </trkpt>
      <trkpt lat="40.1084398292005062103271484375" lon="0.0667670555412769317626953125">
        <ele>136.399993896484375</ele>
        <time>2023-01-27T08:22:00.000Z</time>
      </trkpt>
      <trkpt lat="40.1084814034402370452880859375" lon="0.0666976533830165863037109375">
        <ele>136.600006103515625</ele>
        <time>2023-01-27T08:22:01.000Z</time>
      </trkpt>
      <trkpt lat="40.1085169427096843719482421875" lon="0.06664107553660869598388671875">
        <ele>136.8000030517578125</ele>
        <time>2023-01-27T08:22:02.000Z</time>
      </trkpt>
      <trkpt lat="40.10855172760784626007080078125" lon="0.06658240221440792083740234375">
        <ele>137.1999969482421875</ele>
        <time>2023-01-27T08:22:03.000Z</time>
      </trkpt>
      <trkpt lat="40.10858642868697643280029296875" lon="0.06652691401541233062744140625">
        <ele>137.399993896484375</ele>
        <time>2023-01-27T08:22:04.000Z</time>
      </trkpt>
      <trkpt lat="40.10862431488931179046630859375" lon="0.06647243164479732513427734375">
        <ele>137.600006103515625</ele>
        <time>2023-01-27T08:22:05.000Z</time>
      </trkpt>
      <trkpt lat="40.10866387747228145599365234375" lon="0.06641543470323085784912109375">
        <ele>137.8000030517578125</ele>
        <time>2023-01-27T08:22:06.000Z</time>
      </trkpt>
      <trkpt lat="40.10870344005525112152099609375" lon="0.06635827012360095977783203125">
        <ele>138</ele>
        <time>2023-01-27T08:22:07.000Z</time>
      </trkpt>
      <trkpt lat="40.108742080628871917724609375" lon="0.06630043499171733856201171875">
        <ele>138</ele>
        <time>2023-01-27T08:22:08.000Z</time>
      </trkpt>
      <trkpt lat="40.10877921245992183685302734375" lon="0.06624075584113597869873046875">
        <ele>138.1999969482421875</ele>
        <time>2023-01-27T08:22:09.000Z</time>
      </trkpt>
      <trkpt lat="40.108812488615512847900390625" lon="0.0661746226251125335693359375">
        <ele>138.399993896484375</ele>
        <time>2023-01-27T08:22:10.000Z</time>
      </trkpt>
      <trkpt lat="40.1088414900004863739013671875" lon="0.06610530428588390350341796875">
        <ele>138.399993896484375</ele>
        <time>2023-01-27T08:22:11.000Z</time>
      </trkpt>
      <trkpt lat="40.10886370204389095306396484375" lon="0.06604914553463459014892578125">
        <ele>138.600006103515625</ele>
        <time>2023-01-27T08:22:12.000Z</time>
      </trkpt>
      <trkpt lat="40.108896307647228240966796875" lon="0.06596147082746028900146484375">
        <ele>138.600006103515625</ele>
        <time>2023-01-27T08:22:13.000Z</time>
      </trkpt>
      <trkpt lat="40.10892271064221858978271484375" lon="0.065884776413440704345703125">
        <ele>138.600006103515625</ele>
        <time>2023-01-27T08:22:14.000Z</time>
      </trkpt>
      <trkpt lat="40.1089440844953060150146484375" lon="0.06580464541912078857421875">
        <ele>138.8000030517578125</ele>
        <time>2023-01-27T08:22:15.000Z</time>
      </trkpt>
      <trkpt lat="40.1089631952345371246337890625" lon="0.0657193176448345184326171875">
        <ele>138.8000030517578125</ele>
        <time>2023-01-27T08:22:16.000Z</time>
      </trkpt>
      <trkpt lat="40.108980797231197357177734375" lon="0.06563122384250164031982421875">
        <ele>138.8000030517578125</ele>
        <time>2023-01-27T08:22:17.000Z</time>
      </trkpt>
      <trkpt lat="40.10899831540882587432861328125" lon="0.065541453659534454345703125">
        <ele>138.8000030517578125</ele>
        <time>2023-01-27T08:22:18.000Z</time>
      </trkpt>
      <trkpt lat="40.10901759378612041473388671875" lon="0.06545193493366241455078125">
        <ele>138.8000030517578125</ele>
        <time>2023-01-27T08:22:19.000Z</time>
      </trkpt>
      <trkpt lat="40.1090329326689243316650390625" lon="0.06538211368024349212646484375">
        <ele>138.8000030517578125</ele>
        <time>2023-01-27T08:22:20.000Z</time>
      </trkpt>
      <trkpt lat="40.109055899083614349365234375" lon="0.06527516059577465057373046875">
        <ele>138.8000030517578125</ele>
        <time>2023-01-27T08:22:21.000Z</time>
      </trkpt>
      <trkpt lat="40.10907509364187717437744140625" lon="0.06520106457173824310302734375">
        <ele>138.600006103515625</ele>
        <time>2023-01-27T08:22:22.000Z</time>
      </trkpt>
      <trkpt lat="40.1090993173420429229736328125" lon="0.065105594694614410400390625">
        <ele>138.600006103515625</ele>
        <time>2023-01-27T08:22:23.000Z</time>
      </trkpt>
      <trkpt lat="40.10912756435573101043701171875" lon="0.0650095380842685699462890625">
        <ele>138.600006103515625</ele>
        <time>2023-01-27T08:22:24.000Z</time>
      </trkpt>
      <trkpt lat="40.1091600023210048675537109375" lon="0.064914487302303314208984375">
        <ele>138.399993896484375</ele>
        <time>2023-01-27T08:22:25.000Z</time>
      </trkpt>
      <trkpt lat="40.1091997325420379638671875" lon="0.0648217834532260894775390625">
        <ele>138.399993896484375</ele>
        <time>2023-01-27T08:22:26.000Z</time>
      </trkpt>
      <trkpt lat="40.1092454977333545684814453125" lon="0.06473402492702007293701171875">
        <ele>138.1999969482421875</ele>
        <time>2023-01-27T08:22:27.000Z</time>
      </trkpt>
      <trkpt lat="40.10929830372333526611328125" lon="0.06465573795139789581298828125">
        <ele>137.8000030517578125</ele>
        <time>2023-01-27T08:22:28.000Z</time>
      </trkpt>
      <trkpt lat="40.1093564741313457489013671875" lon="0.064596645534038543701171875">
        <ele>137.600006103515625</ele>
        <time>2023-01-27T08:22:29.000Z</time>
      </trkpt>
      <trkpt lat="40.10941791348159313201904296875" lon="0.0645606033504009246826171875">
        <ele>137.1999969482421875</ele>
        <time>2023-01-27T08:22:30.000Z</time>
      </trkpt>
      <trkpt lat="40.10947960428893566131591796875" lon="0.06454023532569408416748046875">
        <ele>137</ele>
        <time>2023-01-27T08:22:31.000Z</time>
      </trkpt>
      <trkpt lat="40.10955202393233776092529296875" lon="0.06451852619647979736328125">
        <ele>136.8000030517578125</ele>
        <time>2023-01-27T08:22:32.000Z</time>
      </trkpt>
      <trkpt lat="40.109614469110965728759765625" lon="0.06450201384723186492919921875">
        <ele>136.8000030517578125</ele>
        <time>2023-01-27T08:22:33.000Z</time>
      </trkpt>
      <trkpt lat="40.10966283269226551055908203125" lon="0.0644915364682674407958984375">
        <ele>136.8000030517578125</ele>
        <time>2023-01-27T08:22:34.000Z</time>
      </trkpt>
      <trkpt lat="40.10972150601446628570556640625" lon="0.0644764490425586700439453125">
        <ele>136.8000030517578125</ele>
        <time>2023-01-27T08:22:35.000Z</time>
      </trkpt>
      <trkpt lat="40.10984488762915134429931640625" lon="0.06444786675274372100830078125">
        <ele>136.8000030517578125</ele>
        <time>2023-01-27T08:22:37.000Z</time>
      </trkpt>
      <trkpt lat="40.10989769361913204193115234375" lon="0.0644345395267009735107421875">
        <ele>137</ele>
        <time>2023-01-27T08:22:38.000Z</time>
      </trkpt>
      <trkpt lat="40.10995066724717617034912109375" lon="0.06442272104322910308837890625">
        <ele>137.1999969482421875</ele>
        <time>2023-01-27T08:22:39.000Z</time>
      </trkpt>
      <trkpt lat="40.11000372469425201416015625" lon="0.06441601552069187164306640625">
        <ele>137.600006103515625</ele>
        <time>2023-01-27T08:22:40.000Z</time>
      </trkpt>
      <trkpt lat="40.1100541837513446807861328125" lon="0.06441081874072551727294921875">
        <ele>137.8000030517578125</ele>
        <time>2023-01-27T08:22:41.000Z</time>
      </trkpt>
      <trkpt lat="40.1101021282374858856201171875" lon="0.064407885074615478515625">
        <ele>138.1999969482421875</ele>
        <time>2023-01-27T08:22:42.000Z</time>
      </trkpt>
      <trkpt lat="40.1101899705827236175537109375" lon="0.064399503171443939208984375">
        <ele>138.600006103515625</ele>
        <time>2023-01-27T08:22:44.000Z</time>
      </trkpt>
      <trkpt lat="40.11024788953363895416259765625" lon="0.06438852287828922271728515625">
        <ele>139.1999969482421875</ele>
        <time>2023-01-27T08:22:45.000Z</time>
      </trkpt>
      <trkpt lat="40.1102969236671924591064453125" lon="0.0643743574619293212890625">
        <ele>139.399993896484375</ele>
        <time>2023-01-27T08:22:46.000Z</time>
      </trkpt>
      <trkpt lat="40.1103455387055873870849609375" lon="0.06435097195208072662353515625">
        <ele>140</ele>
        <time>2023-01-27T08:22:47.000Z</time>
      </trkpt>
      <trkpt lat="40.11039323173463344573974609375" lon="0.06431912072002887725830078125">
        <ele>140.1999969482421875</ele>
        <time>2023-01-27T08:22:48.000Z</time>
      </trkpt>
      <trkpt lat="40.11047822423279285430908203125" lon="0.0642295181751251220703125">
        <ele>140.8000030517578125</ele>
        <time>2023-01-27T08:22:50.000Z</time>
      </trkpt>
      <trkpt lat="40.110593140125274658203125" lon="0.0640657357871532440185546875">
        <ele>141.399993896484375</ele>
        <time>2023-01-27T08:22:53.000Z</time>
      </trkpt>
      <trkpt lat="40.11062960140407085418701171875" lon="0.0640084035694599151611328125">
        <ele>141.399993896484375</ele>
        <time>2023-01-27T08:22:54.000Z</time>
      </trkpt>
      <trkpt lat="40.11066623032093048095703125" lon="0.0639497302472591400146484375">
        <ele>141.399993896484375</ele>
        <time>2023-01-27T08:22:55.000Z</time>
      </trkpt>
      <trkpt lat="40.11069967411458492279052734375" lon="0.063889883458614349365234375">
        <ele>141.399993896484375</ele>
        <time>2023-01-27T08:22:56.000Z</time>
      </trkpt>
      <trkpt lat="40.11073051951825618743896484375" lon="0.06382542662322521209716796875">
        <ele>141.600006103515625</ele>
        <time>2023-01-27T08:22:57.000Z</time>
      </trkpt>
      <trkpt lat="40.11075675487518310546875" lon="0.06375770084559917449951171875">
        <ele>141.600006103515625</ele>
        <time>2023-01-27T08:22:58.000Z</time>
      </trkpt>
      <trkpt lat="40.11078164912760257720947265625" lon="0.06368863396346569061279296875">
        <ele>141.600006103515625</ele>
        <time>2023-01-27T08:22:59.000Z</time>
      </trkpt>
      <trkpt lat="40.11080360971391201019287109375" lon="0.063618980348110198974609375">
        <ele>141.8000030517578125</ele>
        <time>2023-01-27T08:23:00.000Z</time>
      </trkpt>
      <trkpt lat="40.1108212955296039581298828125" lon="0.06354748271405696868896484375">
        <ele>141.8000030517578125</ele>
        <time>2023-01-27T08:23:01.000Z</time>
      </trkpt>
      <trkpt lat="40.1108367182314395904541015625" lon="0.06347791291773319244384765625">
        <ele>141.8000030517578125</ele>
        <time>2023-01-27T08:23:02.000Z</time>
      </trkpt>
      <trkpt lat="40.1108497940003871917724609375" lon="0.06340716965496540069580078125">
        <ele>142</ele>
        <time>2023-01-27T08:23:03.000Z</time>
      </trkpt>
      <trkpt lat="40.11085960082709789276123046875" lon="0.06334103643894195556640625">
        <ele>142</ele>
        <time>2023-01-27T08:23:04.000Z</time>
      </trkpt>
      <trkpt lat="40.11086647398769855499267578125" lon="0.06327305920422077178955078125">
        <ele>142</ele>
        <time>2023-01-27T08:23:05.000Z</time>
      </trkpt>
      <trkpt lat="40.1108715869486331939697265625" lon="0.0632057525217533111572265625">
        <ele>142</ele>
        <time>2023-01-27T08:23:06.000Z</time>
      </trkpt>
      <trkpt lat="40.110879130661487579345703125" lon="0.06314230151474475860595703125">
        <ele>142.1999969482421875</ele>
        <time>2023-01-27T08:23:07.000Z</time>
      </trkpt>
      <trkpt lat="40.11088759638369083404541015625" lon="0.0630800239741802215576171875">
        <ele>142.399993896484375</ele>
        <time>2023-01-27T08:23:08.000Z</time>
      </trkpt>
      <trkpt lat="40.11089581064879894256591796875" lon="0.06301875226199626922607421875">
        <ele>142.399993896484375</ele>
        <time>2023-01-27T08:23:09.000Z</time>
      </trkpt>
      <trkpt lat="40.11090218089520931243896484375" lon="0.06295924074947834014892578125">
        <ele>142.399993896484375</ele>
        <time>2023-01-27T08:23:10.000Z</time>
      </trkpt>
      <trkpt lat="40.11090821586549282073974609375" lon="0.0628999806940555572509765625">
        <ele>142.600006103515625</ele>
        <time>2023-01-27T08:23:11.000Z</time>
      </trkpt>
      <trkpt lat="40.1109121553599834442138671875" lon="0.06284172646701335906982421875">
        <ele>142.8000030517578125</ele>
        <time>2023-01-27T08:23:12.000Z</time>
      </trkpt>
      <trkpt lat="40.11091425083577632904052734375" lon="0.0627859868109226226806640625">
        <ele>143</ele>
        <time>2023-01-27T08:23:13.000Z</time>
      </trkpt>
      <trkpt lat="40.11091844178736209869384765625" lon="0.06273276172578334808349609375">
        <ele>143.399993896484375</ele>
        <time>2023-01-27T08:23:14.000Z</time>
      </trkpt>
      <trkpt lat="40.11092313565313816070556640625" lon="0.062677860260009765625">
        <ele>143.600006103515625</ele>
        <time>2023-01-27T08:23:15.000Z</time>
      </trkpt>
      <trkpt lat="40.1109270751476287841796875" lon="0.06262488663196563720703125">
        <ele>143.8000030517578125</ele>
        <time>2023-01-27T08:23:16.000Z</time>
      </trkpt>
      <trkpt lat="40.110930092632770538330078125" lon="0.06257333792746067047119140625">
        <ele>144</ele>
        <time>2023-01-27T08:23:17.000Z</time>
      </trkpt>
      <trkpt lat="40.11093579232692718505859375" lon="0.0625207833945751190185546875">
        <ele>144.399993896484375</ele>
        <time>2023-01-27T08:23:18.000Z</time>
      </trkpt>
      <trkpt lat="40.110940821468830108642578125" lon="0.06246864795684814453125">
        <ele>144.600006103515625</ele>
        <time>2023-01-27T08:23:19.000Z</time>
      </trkpt>
      <trkpt lat="40.11094610206782817840576171875" lon="0.06241969764232635498046875">
        <ele>145</ele>
        <time>2023-01-27T08:23:20.000Z</time>
      </trkpt>
      <trkpt lat="40.11095180176198482513427734375" lon="0.0623712502419948577880859375">
        <ele>145.399993896484375</ele>
        <time>2023-01-27T08:23:21.000Z</time>
      </trkpt>
      <trkpt lat="40.11095481924712657928466796875" lon="0.062332190573215484619140625">
        <ele>145.8000030517578125</ele>
        <time>2023-01-27T08:23:22.000Z</time>
      </trkpt>
      <trkpt lat="40.11095968075096607208251953125" lon="0.062274523079395294189453125">
        <ele>146</ele>
        <time>2023-01-27T08:23:23.000Z</time>
      </trkpt>
      <trkpt lat="40.110960938036441802978515625" lon="0.06222699768841266632080078125">
        <ele>146.399993896484375</ele>
        <time>2023-01-27T08:23:24.000Z</time>
      </trkpt>
      <trkpt lat="40.1109597645699977874755859375" lon="0.062183998525142669677734375">
        <ele>146.399993896484375</ele>
        <time>2023-01-27T08:23:25.000Z</time>
      </trkpt>
      <trkpt lat="40.1109611056745052337646484375" lon="0.06213982589542865753173828125">
        <ele>147</ele>
        <time>2023-01-27T08:23:26.000Z</time>
      </trkpt>
      <trkpt lat="40.110963284969329833984375" lon="0.0620956532657146453857421875">
        <ele>147.1999969482421875</ele>
        <time>2023-01-27T08:23:27.000Z</time>
      </trkpt>
      <trkpt lat="40.110964961349964141845703125" lon="0.06206053309142589569091796875">
        <ele>147.600006103515625</ele>
        <time>2023-01-27T08:23:28.000Z</time>
      </trkpt>
      <trkpt lat="40.11096789501607418060302734375" lon="0.0620057992637157440185546875">
        <ele>147.8000030517578125</ele>
        <time>2023-01-27T08:23:29.000Z</time>
      </trkpt>
      <trkpt lat="40.1109735108911991119384765625" lon="0.0619590282440185546875">
        <ele>148.600006103515625</ele>
        <time>2023-01-27T08:23:30.000Z</time>
      </trkpt>
      <trkpt lat="40.11097895912826061248779296875" lon="0.06191317923367023468017578125">
        <ele>149.1999969482421875</ele>
        <time>2023-01-27T08:23:31.000Z</time>
      </trkpt>
      <trkpt lat="40.11098717339336872100830078125" lon="0.0618690066039562225341796875">
        <ele>149.600006103515625</ele>
        <time>2023-01-27T08:23:32.000Z</time>
      </trkpt>
      <trkpt lat="40.11099806986749172210693359375" lon="0.06182164885103702545166015625">
        <ele>150</ele>
        <time>2023-01-27T08:23:33.000Z</time>
      </trkpt>
      <trkpt lat="40.11100997216999530792236328125" lon="0.0617761351168155670166015625">
        <ele>150.399993896484375</ele>
        <time>2023-01-27T08:23:34.000Z</time>
      </trkpt>
      <trkpt lat="40.11102120392024517059326171875" lon="0.0617308728396892547607421875">
        <ele>150.8000030517578125</ele>
        <time>2023-01-27T08:23:35.000Z</time>
      </trkpt>
      <trkpt lat="40.11103293858468532562255859375" lon="0.061685107648372650146484375">
        <ele>151.1999969482421875</ele>
        <time>2023-01-27T08:23:36.000Z</time>
      </trkpt>
      <trkpt lat="40.111046768724918365478515625" lon="0.06163909099996089935302734375">
        <ele>151.600006103515625</ele>
        <time>2023-01-27T08:23:37.000Z</time>
      </trkpt>
      <trkpt lat="40.111063532531261444091796875" lon="0.06159357726573944091796875">
        <ele>152</ele>
        <time>2023-01-27T08:23:38.000Z</time>
      </trkpt>
      <trkpt lat="40.11108105070888996124267578125" lon="0.061547644436359405517578125">
        <ele>152.600006103515625</ele>
        <time>2023-01-27T08:23:39.000Z</time>
      </trkpt>
      <trkpt lat="40.11110049672424793243408203125" lon="0.061501376330852508544921875">
        <ele>152.8000030517578125</ele>
        <time>2023-01-27T08:23:40.000Z</time>
      </trkpt>
      <trkpt lat="40.1111166737973690032958984375" lon="0.0614655017852783203125">
        <ele>153.1999969482421875</ele>
        <time>2023-01-27T08:23:41.000Z</time>
      </trkpt>
      <trkpt lat="40.1111414842307567596435546875" lon="0.061410181224346160888671875">
        <ele>153.399993896484375</ele>
        <time>2023-01-27T08:23:42.000Z</time>
      </trkpt>
      <trkpt lat="40.1111629419028759002685546875" lon="0.061362572014331817626953125">
        <ele>153.8000030517578125</ele>
        <time>2023-01-27T08:23:43.000Z</time>
      </trkpt>
      <trkpt lat="40.11118657886981964111328125" lon="0.06131689064204692840576171875">
        <ele>153.8000030517578125</ele>
        <time>2023-01-27T08:23:44.000Z</time>
      </trkpt>
      <trkpt lat="40.1112122274935245513916015625" lon="0.06126576103270053863525390625">
        <ele>154.1999969482421875</ele>
        <time>2023-01-27T08:23:45.000Z</time>
      </trkpt>
      <trkpt lat="40.1112326793372631072998046875" lon="0.06122318096458911895751953125">
        <ele>154.1999969482421875</ele>
        <time>2023-01-27T08:23:46.000Z</time>
      </trkpt>
      <trkpt lat="40.11126344092190265655517578125" lon="0.06115847267210483551025390625">
        <ele>154.399993896484375</ele>
        <time>2023-01-27T08:23:47.000Z</time>
      </trkpt>
      <trkpt lat="40.11128976009786128997802734375" lon="0.06110365502536296844482421875">
        <ele>154.600006103515625</ele>
        <time>2023-01-27T08:23:48.000Z</time>
      </trkpt>
      <trkpt lat="40.11131876148283481597900390625" lon="0.0610499270260334014892578125">
        <ele>154.8000030517578125</ele>
        <time>2023-01-27T08:23:49.000Z</time>
      </trkpt>
      <trkpt lat="40.11134793050587177276611328125" lon="0.06099619902670383453369140625">
        <ele>154.8000030517578125</ele>
        <time>2023-01-27T08:23:50.000Z</time>
      </trkpt>
      <trkpt lat="40.1113750040531158447265625" lon="0.0609409622848033905029296875">
        <ele>155</ele>
        <time>2023-01-27T08:23:51.000Z</time>
      </trkpt>
      <trkpt lat="40.111402161419391632080078125" lon="0.06088689900934696197509765625">
        <ele>155</ele>
        <time>2023-01-27T08:23:52.000Z</time>
      </trkpt>
      <trkpt lat="40.11142839677631855010986328125" lon="0.06083375774323940277099609375">
        <ele>155</ele>
        <time>2023-01-27T08:23:53.000Z</time>
      </trkpt>
      <trkpt lat="40.11145521886646747589111328125" lon="0.06077793426811695098876953125">
        <ele>155</ele>
        <time>2023-01-27T08:23:54.000Z</time>
      </trkpt>
      <trkpt lat="40.11148354969918727874755859375" lon="0.06072294898331165313720703125">
        <ele>155</ele>
        <time>2023-01-27T08:23:55.000Z</time>
      </trkpt>
      <trkpt lat="40.11150710284709930419921875" lon="0.060677267611026763916015625">
        <ele>155.1999969482421875</ele>
        <time>2023-01-27T08:23:56.000Z</time>
      </trkpt>
      <trkpt lat="40.11154406704008579254150390625" lon="0.06060878746211528778076171875">
        <ele>155.1999969482421875</ele>
        <time>2023-01-27T08:23:57.000Z</time>
      </trkpt>
      <trkpt lat="40.1115763373672962188720703125" lon="0.06055179052054882049560546875">
        <ele>155.1999969482421875</ele>
        <time>2023-01-27T08:23:58.000Z</time>
      </trkpt>
      <trkpt lat="40.1116088591516017913818359375" lon="0.0604953803122043609619140625">
        <ele>155.1999969482421875</ele>
        <time>2023-01-27T08:23:59.000Z</time>
      </trkpt>
      <trkpt lat="40.111637525260448455810546875" lon="0.060453303158283233642578125">
        <ele>155.1999969482421875</ele>
        <time>2023-01-27T08:24:00.000Z</time>
      </trkpt>
      <trkpt lat="40.11168488301336765289306640625" lon="0.06039270199835300445556640625">
        <ele>155.1999969482421875</ele>
        <time>2023-01-27T08:24:01.000Z</time>
      </trkpt>
      <trkpt lat="40.111726038157939910888671875" lon="0.0603421591222286224365234375">
        <ele>155.1999969482421875</ele>
        <time>2023-01-27T08:24:02.000Z</time>
      </trkpt>
      <trkpt lat="40.11176819913089275360107421875" lon="0.06028792820870876312255859375">
        <ele>155.1999969482421875</ele>
        <time>2023-01-27T08:24:03.000Z</time>
      </trkpt>
      <trkpt lat="40.11180214583873748779296875" lon="0.0602445937693119049072265625">
        <ele>155</ele>
        <time>2023-01-27T08:24:04.000Z</time>
      </trkpt>
      <trkpt lat="40.11185176670551300048828125" lon="0.06017812527716159820556640625">
        <ele>155</ele>
        <time>2023-01-27T08:24:05.000Z</time>
      </trkpt>
      <trkpt lat="40.111889652907848358154296875" lon="0.0601205416023731231689453125">
        <ele>155</ele>
        <time>2023-01-27T08:24:06.000Z</time>
      </trkpt>
      <trkpt lat="40.1119275391101837158203125" lon="0.06006069481372833251953125">
        <ele>155</ele>
        <time>2023-01-27T08:24:07.000Z</time>
      </trkpt>
      <trkpt lat="40.1119652576744556427001953125" lon="0.0599958188831806182861328125">
        <ele>154.8000030517578125</ele>
        <time>2023-01-27T08:24:08.000Z</time>
      </trkpt>
      <trkpt lat="40.111999623477458953857421875" lon="0.05992365069687366485595703125">
        <ele>154.8000030517578125</ele>
        <time>2023-01-27T08:24:09.000Z</time>
      </trkpt>
      <trkpt lat="40.112030468881130218505859375" lon="0.05984486080706119537353515625">
        <ele>154.600006103515625</ele>
        <time>2023-01-27T08:24:10.000Z</time>
      </trkpt>
      <trkpt lat="40.11208587326109409332275390625" lon="0.0596752949059009552001953125">
        <ele>154.399993896484375</ele>
        <time>2023-01-27T08:24:12.000Z</time>
      </trkpt>
      <trkpt lat="40.11211671866476535797119140625" lon="0.0595810823142528533935546875">
        <ele>154.1999969482421875</ele>
        <time>2023-01-27T08:24:13.000Z</time>
      </trkpt>
      <trkpt lat="40.11219768784940242767333984375" lon="0.05940749309957027435302734375">
        <ele>154</ele>
        <time>2023-01-27T08:24:15.000Z</time>
      </trkpt>
      <trkpt lat="40.1122381724417209625244140625" lon="0.0593370012938976287841796875">
        <ele>153.600006103515625</ele>
        <time>2023-01-27T08:24:16.000Z</time>
      </trkpt>
      <trkpt lat="40.11228016577661037445068359375" lon="0.0592835247516632080078125">
        <ele>153</ele>
        <time>2023-01-27T08:24:17.000Z</time>
      </trkpt>
      <trkpt lat="40.1123236678540706634521484375" lon="0.0592384301126003265380859375">
        <ele>152.8000030517578125</ele>
        <time>2023-01-27T08:24:18.000Z</time>
      </trkpt>
      <trkpt lat="40.11235878802835941314697265625" lon="0.05920708179473876953125">
        <ele>152.600006103515625</ele>
        <time>2023-01-27T08:24:19.000Z</time>
      </trkpt>
      <trkpt lat="40.112411342561244964599609375" lon="0.0591655075550079345703125">
        <ele>152.600006103515625</ele>
        <time>2023-01-27T08:24:20.000Z</time>
      </trkpt>
      <trkpt lat="40.11245392262935638427734375" lon="0.05913390778005123138427734375">
        <ele>152.399993896484375</ele>
        <time>2023-01-27T08:24:21.000Z</time>
      </trkpt>
      <trkpt lat="40.11249641887843608856201171875" lon="0.0591066665947437286376953125">
        <ele>152.1999969482421875</ele>
        <time>2023-01-27T08:24:22.000Z</time>
      </trkpt>
      <trkpt lat="40.1125389151275157928466796875" lon="0.05908244289457798004150390625">
        <ele>152</ele>
        <time>2023-01-27T08:24:23.000Z</time>
      </trkpt>
      <trkpt lat="40.1125814951956272125244140625" lon="0.059059895575046539306640625">
        <ele>152.1999969482421875</ele>
        <time>2023-01-27T08:24:24.000Z</time>
      </trkpt>
      <trkpt lat="40.1126240752637386322021484375" lon="0.05903885699808597564697265625">
        <ele>152.399993896484375</ele>
        <time>2023-01-27T08:24:25.000Z</time>
      </trkpt>
      <trkpt lat="40.112705715000629425048828125" lon="0.05899895913898944854736328125">
        <ele>152.8000030517578125</ele>
        <time>2023-01-27T08:24:27.000Z</time>
      </trkpt>
      <trkpt lat="40.1127451099455356597900390625" lon="0.0589777529239654541015625">
        <ele>152.8000030517578125</ele>
        <time>2023-01-27T08:24:28.000Z</time>
      </trkpt>
      <trkpt lat="40.1127831637859344482421875" lon="0.05895604379475116729736328125">
        <ele>153</ele>
        <time>2023-01-27T08:24:29.000Z</time>
      </trkpt>
      <trkpt lat="40.112823732197284698486328125" lon="0.05893609486520290374755859375">
        <ele>153</ele>
        <time>2023-01-27T08:24:30.000Z</time>
      </trkpt>
      <trkpt lat="40.112864971160888671875" lon="0.05891832523047924041748046875">
        <ele>153.1999969482421875</ele>
        <time>2023-01-27T08:24:31.000Z</time>
      </trkpt>
      <trkpt lat="40.11290662921965122222900390625" lon="0.0588994659483432769775390625">
        <ele>153.399993896484375</ele>
        <time>2023-01-27T08:24:32.000Z</time>
      </trkpt>
      <trkpt lat="40.112948454916477203369140625" lon="0.05888127721846103668212890625">
        <ele>154</ele>
        <time>2023-01-27T08:24:33.000Z</time>
      </trkpt>
      <trkpt lat="40.1129901967942714691162109375" lon="0.058862082660198211669921875">
        <ele>154.1999969482421875</ele>
        <time>2023-01-27T08:24:34.000Z</time>
      </trkpt>
      <trkpt lat="40.11303118430078029632568359375" lon="0.05884557031095027923583984375">
        <ele>154.600006103515625</ele>
        <time>2023-01-27T08:24:35.000Z</time>
      </trkpt>
      <trkpt lat="40.11307259090244770050048828125" lon="0.058831237256526947021484375">
        <ele>154.600006103515625</ele>
        <time>2023-01-27T08:24:36.000Z</time>
      </trkpt>
      <trkpt lat="40.11315406300127506256103515625" lon="0.05880801938474178314208984375">
        <ele>154.8000030517578125</ele>
        <time>2023-01-27T08:24:38.000Z</time>
      </trkpt>
      <trkpt lat="40.11319429613649845123291015625" lon="0.0587978772819042205810546875">
        <ele>155.399993896484375</ele>
        <time>2023-01-27T08:24:39.000Z</time>
      </trkpt>
      <trkpt lat="40.11327677406370639801025390625" lon="0.05878019146621227264404296875">
        <ele>156</ele>
        <time>2023-01-27T08:24:41.000Z</time>
      </trkpt>
      <trkpt lat="40.11331030167639255523681640625" lon="0.05877465941011905670166015625">
        <ele>156.600006103515625</ele>
        <time>2023-01-27T08:24:42.000Z</time>
      </trkpt>
      <trkpt lat="40.113400407135486602783203125" lon="0.05876443348824977874755859375">
        <ele>157</ele>
        <time>2023-01-27T08:24:44.000Z</time>
      </trkpt>
      <trkpt lat="40.11343829333782196044921875" lon="0.0587631762027740478515625">
        <ele>157.1999969482421875</ele>
        <time>2023-01-27T08:24:45.000Z</time>
      </trkpt>
      <trkpt lat="40.11347852647304534912109375" lon="0.0587636791169643402099609375">
        <ele>157.399993896484375</ele>
        <time>2023-01-27T08:24:46.000Z</time>
      </trkpt>
      <trkpt lat="40.11350945569574832916259765625" lon="0.05876711569726467132568359375">
        <ele>157.600006103515625</ele>
        <time>2023-01-27T08:24:47.000Z</time>
      </trkpt>
      <trkpt lat="40.1135467551648616790771484375" lon="0.0587680377066135406494140625">
        <ele>158</ele>
        <time>2023-01-27T08:24:48.000Z</time>
      </trkpt>
      <trkpt lat="40.11358422227203845977783203125" lon="0.05876518785953521728515625">
        <ele>158.1999969482421875</ele>
        <time>2023-01-27T08:24:49.000Z</time>
      </trkpt>
      <trkpt lat="40.11362428776919841766357421875" lon="0.0587586499750614166259765625">
        <ele>158.600006103515625</ele>
        <time>2023-01-27T08:24:50.000Z</time>
      </trkpt>
      <trkpt lat="40.11366569437086582183837890625" lon="0.05875051952898502349853515625">
        <ele>158.600006103515625</ele>
        <time>2023-01-27T08:24:51.000Z</time>
      </trkpt>
      <trkpt lat="40.11370710097253322601318359375" lon="0.05874029360711574554443359375">
        <ele>159</ele>
        <time>2023-01-27T08:24:52.000Z</time>
      </trkpt>
      <trkpt lat="40.113748423755168914794921875" lon="0.05872897803783416748046875">
        <ele>159.1999969482421875</ele>
        <time>2023-01-27T08:24:53.000Z</time>
      </trkpt>
      <trkpt lat="40.11378672905266284942626953125" lon="0.0587190873920917510986328125">
        <ele>159.600006103515625</ele>
        <time>2023-01-27T08:24:54.000Z</time>
      </trkpt>
      <trkpt lat="40.1138267107307910919189453125" lon="0.05870844237506389617919921875">
        <ele>159.8000030517578125</ele>
        <time>2023-01-27T08:24:55.000Z</time>
      </trkpt>
      <trkpt lat="40.1138667762279510498046875" lon="0.058696456253528594970703125">
        <ele>160.1999969482421875</ele>
        <time>2023-01-27T08:24:56.000Z</time>
      </trkpt>
      <trkpt lat="40.1139071770012378692626953125" lon="0.0586845539510250091552734375">
        <ele>160.399993896484375</ele>
        <time>2023-01-27T08:24:57.000Z</time>
      </trkpt>
      <trkpt lat="40.1139477454125881195068359375" lon="0.0586708076298236846923828125">
        <ele>160.8000030517578125</ele>
        <time>2023-01-27T08:24:58.000Z</time>
      </trkpt>
      <trkpt lat="40.11398739181458950042724609375" lon="0.05865094251930713653564453125">
        <ele>161</ele>
        <time>2023-01-27T08:24:59.000Z</time>
      </trkpt>
      <trkpt lat="40.1140223443508148193359375" lon="0.0586356036365032196044921875">
        <ele>161.399993896484375</ele>
        <time>2023-01-27T08:25:00.000Z</time>
      </trkpt>
      <trkpt lat="40.114060230553150177001953125" lon="0.05862294696271419525146484375">
        <ele>161.8000030517578125</ele>
        <time>2023-01-27T08:25:01.000Z</time>
      </trkpt>
      <trkpt lat="40.11409870348870754241943359375" lon="0.0586094520986080169677734375">
        <ele>162.1999969482421875</ele>
        <time>2023-01-27T08:25:02.000Z</time>
      </trkpt>
      <trkpt lat="40.11413700878620147705078125" lon="0.0585973821580410003662109375">
        <ele>162.600006103515625</ele>
        <time>2023-01-27T08:25:03.000Z</time>
      </trkpt>
      <trkpt lat="40.11417347006499767303466796875" lon="0.0585802830755710601806640625">
        <ele>162.8000030517578125</ele>
        <time>2023-01-27T08:25:04.000Z</time>
      </trkpt>
      <trkpt lat="40.114217810332775115966796875" lon="0.05855597555637359619140625">
        <ele>163</ele>
        <time>2023-01-27T08:25:05.000Z</time>
      </trkpt>
      <trkpt lat="40.1142474822700023651123046875" lon="0.05853854119777679443359375">
        <ele>163.1999969482421875</ele>
        <time>2023-01-27T08:25:06.000Z</time>
      </trkpt>
      <trkpt lat="40.11428293772041797637939453125" lon="0.0585135631263256072998046875">
        <ele>163.8000030517578125</ele>
        <time>2023-01-27T08:25:07.000Z</time>
      </trkpt>
      <trkpt lat="40.11432015337049961090087890625" lon="0.058489255607128143310546875">
        <ele>164</ele>
        <time>2023-01-27T08:25:08.000Z</time>
      </trkpt>
      <trkpt lat="40.11435703374445438385009765625" lon="0.058465786278247833251953125">
        <ele>164.1999969482421875</ele>
        <time>2023-01-27T08:25:09.000Z</time>
      </trkpt>
      <trkpt lat="40.11440045200288295745849609375" lon="0.05842731334269046783447265625">
        <ele>164.399993896484375</ele>
        <time>2023-01-27T08:25:10.000Z</time>
      </trkpt>
      <trkpt lat="40.1144288666546344757080078125" lon="0.058400072157382965087890625">
        <ele>165</ele>
        <time>2023-01-27T08:25:11.000Z</time>
      </trkpt>
      <trkpt lat="40.11446465738117694854736328125" lon="0.05836579017341136932373046875">
        <ele>165</ele>
        <time>2023-01-27T08:25:12.000Z</time>
      </trkpt>
      <trkpt lat="40.1144999451935291290283203125" lon="0.058326981961727142333984375">
        <ele>165.600006103515625</ele>
        <time>2023-01-27T08:25:13.000Z</time>
      </trkpt>
      <trkpt lat="40.114531628787517547607421875" lon="0.058281384408473968505859375">
        <ele>165.8000030517578125</ele>
        <time>2023-01-27T08:25:14.000Z</time>
      </trkpt>
      <trkpt lat="40.11456607840955257415771484375" lon="0.05822128616273403167724609375">
        <ele>166</ele>
        <time>2023-01-27T08:25:15.000Z</time>
      </trkpt>
      <trkpt lat="40.11458988301455974578857421875" lon="0.0581786222755908966064453125">
        <ele>166</ele>
        <time>2023-01-27T08:25:16.000Z</time>
      </trkpt>
      <trkpt lat="40.114618130028247833251953125" lon="0.0581212900578975677490234375">
        <ele>166.399993896484375</ele>
        <time>2023-01-27T08:25:17.000Z</time>
      </trkpt>
      <trkpt lat="40.11464503593742847442626953125" lon="0.058062113821506500244140625">
        <ele>166.399993896484375</ele>
        <time>2023-01-27T08:25:18.000Z</time>
      </trkpt>
      <trkpt lat="40.114671103656291961669921875" lon="0.0579995848238468170166015625">
        <ele>166.399993896484375</ele>
        <time>2023-01-27T08:25:19.000Z</time>
      </trkpt>
      <trkpt lat="40.1146940700709819793701171875" lon="0.0579345412552356719970703125">
        <ele>166.600006103515625</ele>
        <time>2023-01-27T08:25:20.000Z</time>
      </trkpt>
      <trkpt lat="40.11471242643892765045166015625" lon="0.05786505527794361114501953125">
        <ele>166.600006103515625</ele>
        <time>2023-01-27T08:25:21.000Z</time>
      </trkpt>
      <trkpt lat="40.1147239096462726593017578125" lon="0.05779288709163665771484375">
        <ele>166.600006103515625</ele>
        <time>2023-01-27T08:25:22.000Z</time>
      </trkpt>
      <trkpt lat="40.11473136954009532928466796875" lon="0.0577182881534099578857421875">
        <ele>166.8000030517578125</ele>
        <time>2023-01-27T08:25:23.000Z</time>
      </trkpt>
      <trkpt lat="40.11473757214844226837158203125" lon="0.05764310248196125030517578125">
        <ele>166.8000030517578125</ele>
        <time>2023-01-27T08:25:24.000Z</time>
      </trkpt>
      <trkpt lat="40.1147420145571231842041015625" lon="0.05756615661084651947021484375">
        <ele>166.8000030517578125</ele>
        <time>2023-01-27T08:25:25.000Z</time>
      </trkpt>
      <trkpt lat="40.11474427767097949981689453125" lon="0.05748921073973178863525390625">
        <ele>166.8000030517578125</ele>
        <time>2023-01-27T08:25:26.000Z</time>
      </trkpt>
      <trkpt lat="40.114744193851947784423828125" lon="0.05741125904023647308349609375">
        <ele>166.8000030517578125</ele>
        <time>2023-01-27T08:25:27.000Z</time>
      </trkpt>
      <trkpt lat="40.114738829433917999267578125" lon="0.05733515135943889617919921875">
        <ele>166.8000030517578125</ele>
        <time>2023-01-27T08:25:28.000Z</time>
      </trkpt>
      <trkpt lat="40.1147275976836681365966796875" lon="0.05726273171603679656982421875">
        <ele>166.8000030517578125</ele>
        <time>2023-01-27T08:25:29.000Z</time>
      </trkpt>
      <trkpt lat="40.11470907367765903472900390625" lon="0.05719131790101528167724609375">
        <ele>167</ele>
        <time>2023-01-27T08:25:30.000Z</time>
      </trkpt>
      <trkpt lat="40.1146890409290790557861328125" lon="0.0571221671998500823974609375">
        <ele>167</ele>
        <time>2023-01-27T08:25:31.000Z</time>
      </trkpt>
      <trkpt lat="40.11466733179986476898193359375" lon="0.0570547766983509063720703125">
        <ele>167</ele>
        <time>2023-01-27T08:25:32.000Z</time>
      </trkpt>
      <trkpt lat="40.1146478019654750823974609375" lon="0.05698814056813716888427734375">
        <ele>167</ele>
        <time>2023-01-27T08:25:33.000Z</time>
      </trkpt>
      <trkpt lat="40.114627517759799957275390625" lon="0.05690935067832469940185546875">
        <ele>167.1999969482421875</ele>
        <time>2023-01-27T08:25:34.000Z</time>
      </trkpt>
      <trkpt lat="40.11461351998150348663330078125" lon="0.05685813724994659423828125">
        <ele>167.1999969482421875</ele>
        <time>2023-01-27T08:25:35.000Z</time>
      </trkpt>
      <trkpt lat="40.1145968399941921234130859375" lon="0.05679468624293804168701171875">
        <ele>167.600006103515625</ele>
        <time>2023-01-27T08:25:36.000Z</time>
      </trkpt>
      <trkpt lat="40.11458066292107105255126953125" lon="0.056732408702373504638671875">
        <ele>167.600006103515625</ele>
        <time>2023-01-27T08:25:37.000Z</time>
      </trkpt>
      <trkpt lat="40.1145686767995357513427734375" lon="0.05666845478117465972900390625">
        <ele>168</ele>
        <time>2023-01-27T08:25:38.000Z</time>
      </trkpt>
      <trkpt lat="40.11455677449703216552734375" lon="0.05660525523126125335693359375">
        <ele>168</ele>
        <time>2023-01-27T08:25:39.000Z</time>
      </trkpt>
      <trkpt lat="40.1145418547093868255615234375" lon="0.0565300695598125457763671875">
        <ele>168.399993896484375</ele>
        <time>2023-01-27T08:25:40.000Z</time>
      </trkpt>
      <trkpt lat="40.1145319640636444091796875" lon="0.05648187361657619476318359375">
        <ele>168.600006103515625</ele>
        <time>2023-01-27T08:25:41.000Z</time>
      </trkpt>
      <trkpt lat="40.1145170442759990692138671875" lon="0.05640677176415920257568359375">
        <ele>168.8000030517578125</ele>
        <time>2023-01-27T08:25:42.000Z</time>
      </trkpt>
      <trkpt lat="40.1145059801638126373291015625" lon="0.0563443265855312347412109375">
        <ele>169</ele>
        <time>2023-01-27T08:25:43.000Z</time>
      </trkpt>
      <trkpt lat="40.11449642479419708251953125" lon="0.05628540180623531341552734375">
        <ele>169.1999969482421875</ele>
        <time>2023-01-27T08:25:44.000Z</time>
      </trkpt>
      <trkpt lat="40.11448544450104236602783203125" lon="0.05622438155114650726318359375">
        <ele>169.1999969482421875</ele>
        <time>2023-01-27T08:25:45.000Z</time>
      </trkpt>
      <trkpt lat="40.114471614360809326171875" lon="0.05616386421024799346923828125">
        <ele>169.399993896484375</ele>
        <time>2023-01-27T08:25:46.000Z</time>
      </trkpt>
      <trkpt lat="40.1144600473344326019287109375" lon="0.05610200576484203338623046875">
        <ele>169.8000030517578125</ele>
        <time>2023-01-27T08:25:47.000Z</time>
      </trkpt>
      <trkpt lat="40.11444923467934131622314453125" lon="0.05604031495749950408935546875">
        <ele>169.8000030517578125</ele>
        <time>2023-01-27T08:25:48.000Z</time>
      </trkpt>
      <trkpt lat="40.11443967930972576141357421875" lon="0.0559761933982372283935546875">
        <ele>170</ele>
        <time>2023-01-27T08:25:49.000Z</time>
      </trkpt>
      <trkpt lat="40.11443163268268108367919921875" lon="0.0559245608747005462646484375">
        <ele>170.1999969482421875</ele>
        <time>2023-01-27T08:25:50.000Z</time>
      </trkpt>
      <trkpt lat="40.11442023329436779022216796875" lon="0.05585859529674053192138671875">
        <ele>170.1999969482421875</ele>
        <time>2023-01-27T08:25:51.000Z</time>
      </trkpt>
      <trkpt lat="40.1144087500870227813720703125" lon="0.05577988922595977783203125">
        <ele>170.1999969482421875</ele>
        <time>2023-01-27T08:25:52.000Z</time>
      </trkpt>
      <trkpt lat="40.11440129019320011138916015625" lon="0.05571509711444377899169921875">
        <ele>170.399993896484375</ele>
        <time>2023-01-27T08:25:53.000Z</time>
      </trkpt>
      <trkpt lat="40.11438737623393535614013671875" lon="0.0556492991745471954345703125">
        <ele>170.399993896484375</ele>
        <time>2023-01-27T08:25:54.000Z</time>
      </trkpt>
      <trkpt lat="40.11437463574111461639404296875" lon="0.0555954873561859130859375">
        <ele>170.600006103515625</ele>
        <time>2023-01-27T08:25:55.000Z</time>
      </trkpt>
      <trkpt lat="40.1143603026866912841796875" lon="0.05552918650209903717041015625">
        <ele>170.8000030517578125</ele>
        <time>2023-01-27T08:25:56.000Z</time>
      </trkpt>
      <trkpt lat="40.11434529908001422882080078125" lon="0.0554506480693817138671875">
        <ele>170.8000030517578125</ele>
        <time>2023-01-27T08:25:57.000Z</time>
      </trkpt>
      <trkpt lat="40.1143339835107326507568359375" lon="0.05538451485335826873779296875">
        <ele>171</ele>
        <time>2023-01-27T08:25:58.000Z</time>
      </trkpt>
      <trkpt lat="40.11432099156081676483154296875" lon="0.05531578324735164642333984375">
        <ele>171.1999969482421875</ele>
        <time>2023-01-27T08:25:59.000Z</time>
      </trkpt>
      <trkpt lat="40.1143125258386135101318359375" lon="0.05525828339159488677978515625">
        <ele>171.1999969482421875</ele>
        <time>2023-01-27T08:26:00.000Z</time>
      </trkpt>
      <trkpt lat="40.114298276603221893310546875" lon="0.0551909767091274261474609375">
        <ele>171.399993896484375</ele>
        <time>2023-01-27T08:26:01.000Z</time>
      </trkpt>
      <trkpt lat="40.11428360827267169952392578125" lon="0.0551232509315013885498046875">
        <ele>171.399993896484375</ele>
        <time>2023-01-27T08:26:02.000Z</time>
      </trkpt>
      <trkpt lat="40.11426709592342376708984375" lon="0.0550548546016216278076171875">
        <ele>171.399993896484375</ele>
        <time>2023-01-27T08:26:03.000Z</time>
      </trkpt>
      <trkpt lat="40.11424873955547809600830078125" lon="0.05498838610947132110595703125">
        <ele>171.399993896484375</ele>
        <time>2023-01-27T08:26:04.000Z</time>
      </trkpt>
      <trkpt lat="40.1142303831875324249267578125" lon="0.054919235408306121826171875">
        <ele>171.600006103515625</ele>
        <time>2023-01-27T08:26:05.000Z</time>
      </trkpt>
      <trkpt lat="40.1142102666199207305908203125" lon="0.05484706722199916839599609375">
        <ele>171.600006103515625</ele>
        <time>2023-01-27T08:26:06.000Z</time>
      </trkpt>
      <trkpt lat="40.11418872512876987457275390625" lon="0.05477607250213623046875">
        <ele>171.600006103515625</ele>
        <time>2023-01-27T08:26:07.000Z</time>
      </trkpt>
      <trkpt lat="40.11415989138185977935791015625" lon="0.05469300784170627593994140625">
        <ele>171.600006103515625</ele>
        <time>2023-01-27T08:26:08.000Z</time>
      </trkpt>
      <trkpt lat="40.1141388528048992156982421875" lon="0.05464053712785243988037109375">
        <ele>171.600006103515625</ele>
        <time>2023-01-27T08:26:09.000Z</time>
      </trkpt>
      <trkpt lat="40.11410909704864025115966796875" lon="0.054576583206653594970703125">
        <ele>171.600006103515625</ele>
        <time>2023-01-27T08:26:10.000Z</time>
      </trkpt>
      <trkpt lat="40.11407154612243175506591796875" lon="0.0544986315071582794189453125">
        <ele>171.600006103515625</ele>
        <time>2023-01-27T08:26:11.000Z</time>
      </trkpt>
      <trkpt lat="40.11404003016650676727294921875" lon="0.05443367175757884979248046875">
        <ele>171.600006103515625</ele>
        <time>2023-01-27T08:26:12.000Z</time>
      </trkpt>
      <trkpt lat="40.11400717310607433319091796875" lon="0.05437114275991916656494140625">
        <ele>171.600006103515625</ele>
        <time>2023-01-27T08:26:13.000Z</time>
      </trkpt>
      <trkpt lat="40.1138743199408054351806640625" lon="0.0541388802230358123779296875">
        <ele>171.399993896484375</ele>
        <time>2023-01-27T08:26:17.000Z</time>
      </trkpt>
      <trkpt lat="40.11384464800357818603515625" lon="0.0540765188634395599365234375">
        <ele>171.399993896484375</ele>
        <time>2023-01-27T08:26:18.000Z</time>
      </trkpt>
      <trkpt lat="40.113755799829959869384765625" lon="0.05390695296227931976318359375">
        <ele>171.600006103515625</ele>
        <time>2023-01-27T08:26:21.000Z</time>
      </trkpt>
      <trkpt lat="40.113722942769527435302734375" lon="0.05385967902839183807373046875">
        <ele>171.8000030517578125</ele>
        <time>2023-01-27T08:26:22.000Z</time>
      </trkpt>
      <trkpt lat="40.1136902533471584320068359375" lon="0.05380586721003055572509765625">
        <ele>172</ele>
        <time>2023-01-27T08:26:23.000Z</time>
      </trkpt>
      <trkpt lat="40.1136630959808826446533203125" lon="0.053750462830066680908203125">
        <ele>172.1999969482421875</ele>
        <time>2023-01-27T08:26:24.000Z</time>
      </trkpt>
      <trkpt lat="40.11363786645233631134033203125" lon="0.0536946393549442291259765625">
        <ele>172.1999969482421875</ele>
        <time>2023-01-27T08:26:25.000Z</time>
      </trkpt>
      <trkpt lat="40.11361422948539257049560546875" lon="0.0536393187940120697021484375">
        <ele>172.600006103515625</ele>
        <time>2023-01-27T08:26:26.000Z</time>
      </trkpt>
      <trkpt lat="40.1135931909084320068359375" lon="0.05358609370887279510498046875">
        <ele>172.8000030517578125</ele>
        <time>2023-01-27T08:26:27.000Z</time>
      </trkpt>
      <trkpt lat="40.1135695539414882659912109375" lon="0.05353412590920925140380859375">
        <ele>173.1999969482421875</ele>
        <time>2023-01-27T08:26:28.000Z</time>
      </trkpt>
      <trkpt lat="40.1135464198887348175048828125" lon="0.05348148755729198455810546875">
        <ele>173.1999969482421875</ele>
        <time>2023-01-27T08:26:29.000Z</time>
      </trkpt>
      <trkpt lat="40.1135269738733768463134765625" lon="0.053438656032085418701171875">
        <ele>173.600006103515625</ele>
        <time>2023-01-27T08:26:30.000Z</time>
      </trkpt>
      <trkpt lat="40.11350057087838649749755859375" lon="0.0533714331686496734619140625">
        <ele>174</ele>
        <time>2023-01-27T08:26:31.000Z</time>
      </trkpt>
      <trkpt lat="40.11348146013915538787841796875" lon="0.05331435240805149078369140625">
        <ele>174.1999969482421875</ele>
        <time>2023-01-27T08:26:32.000Z</time>
      </trkpt>
      <trkpt lat="40.1134626008570194244384765625" lon="0.05325634963810443878173828125">
        <ele>174.399993896484375</ele>
        <time>2023-01-27T08:26:33.000Z</time>
      </trkpt>
      <trkpt lat="40.11344575323164463043212890625" lon="0.05319650284945964813232421875">
        <ele>174.8000030517578125</ele>
        <time>2023-01-27T08:26:34.000Z</time>
      </trkpt>
      <trkpt lat="40.11343200691044330596923828125" lon="0.05313363857567310333251953125">
        <ele>175</ele>
        <time>2023-01-27T08:26:35.000Z</time>
      </trkpt>
      <trkpt lat="40.113420188426971435546875" lon="0.05306876264512538909912109375">
        <ele>175.1999969482421875</ele>
        <time>2023-01-27T08:26:36.000Z</time>
      </trkpt>
      <trkpt lat="40.11341013014316558837890625" lon="0.053004808723926544189453125">
        <ele>175.399993896484375</ele>
        <time>2023-01-27T08:26:37.000Z</time>
      </trkpt>
      <trkpt lat="40.11340283788740634918212890625" lon="0.05294219590723514556884765625">
        <ele>175.399993896484375</ele>
        <time>2023-01-27T08:26:38.000Z</time>
      </trkpt>
      <trkpt lat="40.11339764110743999481201171875" lon="0.05287765525281429290771484375">
        <ele>175.600006103515625</ele>
        <time>2023-01-27T08:26:39.000Z</time>
      </trkpt>
      <trkpt lat="40.113393031060695648193359375" lon="0.0528115220367908477783203125">
        <ele>175.600006103515625</ele>
        <time>2023-01-27T08:26:40.000Z</time>
      </trkpt>
      <trkpt lat="40.11338741518557071685791015625" lon="0.05274689756333827972412109375">
        <ele>176</ele>
        <time>2023-01-27T08:26:41.000Z</time>
      </trkpt>
      <trkpt lat="40.1133777759969234466552734375" lon="0.0526810996234416961669921875">
        <ele>176</ele>
        <time>2023-01-27T08:26:42.000Z</time>
      </trkpt>
      <trkpt lat="40.11336763389408588409423828125" lon="0.052616894245147705078125">
        <ele>176.1999969482421875</ele>
        <time>2023-01-27T08:26:43.000Z</time>
      </trkpt>
      <trkpt lat="40.1133596710860729217529296875" lon="0.05255092866718769073486328125">
        <ele>176.399993896484375</ele>
        <time>2023-01-27T08:26:44.000Z</time>
      </trkpt>
      <trkpt lat="40.11335103772580623626708984375" lon="0.05248052068054676055908203125">
        <ele>176.399993896484375</ele>
        <time>2023-01-27T08:26:45.000Z</time>
      </trkpt>
      <trkpt lat="40.113344080746173858642578125" lon="0.05240608938038349151611328125">
        <ele>176.600006103515625</ele>
        <time>2023-01-27T08:26:46.000Z</time>
      </trkpt>
      <trkpt lat="40.11333662085235118865966796875" lon="0.05233484320342540740966796875">
        <ele>176.8000030517578125</ele>
        <time>2023-01-27T08:26:47.000Z</time>
      </trkpt>
      <trkpt lat="40.1133271493017673492431640625" lon="0.05226175300776958465576171875">
        <ele>176.8000030517578125</ele>
        <time>2023-01-27T08:26:48.000Z</time>
      </trkpt>
      <trkpt lat="40.11332027614116668701171875" lon="0.05218866281211376190185546875">
        <ele>177</ele>
        <time>2023-01-27T08:26:49.000Z</time>
      </trkpt>
      <trkpt lat="40.11331449262797832489013671875" lon="0.05211532115936279296875">
        <ele>177</ele>
        <time>2023-01-27T08:26:50.000Z</time>
      </trkpt>
      <trkpt lat="40.11331491172313690185546875" lon="0.05203996784985065460205078125">
        <ele>177.1999969482421875</ele>
        <time>2023-01-27T08:26:51.000Z</time>
      </trkpt>
      <trkpt lat="40.11331759393215179443359375" lon="0.0519639439880847930908203125">
        <ele>177.1999969482421875</ele>
        <time>2023-01-27T08:26:52.000Z</time>
      </trkpt>
      <trkpt lat="40.11332161724567413330078125" lon="0.05190275609493255615234375">
        <ele>177.1999969482421875</ele>
        <time>2023-01-27T08:26:53.000Z</time>
      </trkpt>
      <trkpt lat="40.1133268140256404876708984375" lon="0.05182773806154727935791015625">
        <ele>177.1999969482421875</ele>
        <time>2023-01-27T08:26:54.000Z</time>
      </trkpt>
      <trkpt lat="40.1133331842720508575439453125" lon="0.0517510436475276947021484375">
        <ele>177.399993896484375</ele>
        <time>2023-01-27T08:26:55.000Z</time>
      </trkpt>
      <trkpt lat="40.11334173381328582763671875" lon="0.05166395567357540130615234375">
        <ele>177.600006103515625</ele>
        <time>2023-01-27T08:26:56.000Z</time>
      </trkpt>
      <trkpt lat="40.11334919370710849761962890625" lon="0.0516048632562160491943359375">
        <ele>177.600006103515625</ele>
        <time>2023-01-27T08:26:57.000Z</time>
      </trkpt>
      <trkpt lat="40.11336109600961208343505859375" lon="0.05152917467057704925537109375">
        <ele>177.600006103515625</ele>
        <time>2023-01-27T08:26:58.000Z</time>
      </trkpt>
      <trkpt lat="40.11337635107338428497314453125" lon="0.05145725794136524200439453125">
        <ele>177.600006103515625</ele>
        <time>2023-01-27T08:26:59.000Z</time>
      </trkpt>
      <trkpt lat="40.113390348851680755615234375" lon="0.0513886101543903350830078125">
        <ele>177.8000030517578125</ele>
        <time>2023-01-27T08:27:00.000Z</time>
      </trkpt>
      <trkpt lat="40.11341256089508533477783203125" lon="0.05130588077008724212646484375">
        <ele>178</ele>
        <time>2023-01-27T08:27:01.000Z</time>
      </trkpt>
      <trkpt lat="40.11343083344399929046630859375" lon="0.0512518174946308135986328125">
        <ele>178</ele>
        <time>2023-01-27T08:27:02.000Z</time>
      </trkpt>
      <trkpt lat="40.113454721868038177490234375" lon="0.05118526518344879150390625">
        <ele>178</ele>
        <time>2023-01-27T08:27:03.000Z</time>
      </trkpt>
      <trkpt lat="40.11348447762429714202880859375" lon="0.0511086545884609222412109375">
        <ele>178.1999969482421875</ele>
        <time>2023-01-27T08:27:04.000Z</time>
      </trkpt>
      <trkpt lat="40.1135048456490039825439453125" lon="0.05105626769363880157470703125">
        <ele>178.1999969482421875</ele>
        <time>2023-01-27T08:27:05.000Z</time>
      </trkpt>
      <trkpt lat="40.11352940462529659271240234375" lon="0.0509963370859622955322265625">
        <ele>178.399993896484375</ele>
        <time>2023-01-27T08:27:06.000Z</time>
      </trkpt>
      <trkpt lat="40.113555975258350372314453125" lon="0.05093791522085666656494140625">
        <ele>178.600006103515625</ele>
        <time>2023-01-27T08:27:07.000Z</time>
      </trkpt>
      <trkpt lat="40.1135843060910701751708984375" lon="0.0508826784789562225341796875">
        <ele>178.8000030517578125</ele>
        <time>2023-01-27T08:27:08.000Z</time>
      </trkpt>
      <trkpt lat="40.1136185042560100555419921875" lon="0.05081973038613796234130859375">
        <ele>179</ele>
        <time>2023-01-27T08:27:09.000Z</time>
      </trkpt>
      <trkpt lat="40.11364943347871303558349609375" lon="0.0507690198719501495361328125">
        <ele>179.1999969482421875</ele>
        <time>2023-01-27T08:27:10.000Z</time>
      </trkpt>
      <trkpt lat="40.1136818714439868927001953125" lon="0.05071981810033321380615234375">
        <ele>179.399993896484375</ele>
        <time>2023-01-27T08:27:11.000Z</time>
      </trkpt>
      <trkpt lat="40.11371464468538761138916015625" lon="0.05067053250968456268310546875">
        <ele>179.8000030517578125</ele>
        <time>2023-01-27T08:27:12.000Z</time>
      </trkpt>
      <trkpt lat="40.11374733410775661468505859375" lon="0.05062066018581390380859375">
        <ele>179.8000030517578125</ele>
        <time>2023-01-27T08:27:13.000Z</time>
      </trkpt>
      <trkpt lat="40.11377968825399875640869140625" lon="0.050571374595165252685546875">
        <ele>180.1999969482421875</ele>
        <time>2023-01-27T08:27:14.000Z</time>
      </trkpt>
      <trkpt lat="40.11381455697119235992431640625" lon="0.0505235977470874786376953125">
        <ele>180.600006103515625</ele>
        <time>2023-01-27T08:27:15.000Z</time>
      </trkpt>
      <trkpt lat="40.11384992860257625579833984375" lon="0.05048093385994434356689453125">
        <ele>180.600006103515625</ele>
        <time>2023-01-27T08:27:16.000Z</time>
      </trkpt>
      <trkpt lat="40.113879181444644927978515625" lon="0.050443969666957855224609375">
        <ele>181</ele>
        <time>2023-01-27T08:27:17.000Z</time>
      </trkpt>
      <trkpt lat="40.113914050161838531494140625" lon="0.05039669573307037353515625">
        <ele>181.1999969482421875</ele>
        <time>2023-01-27T08:27:18.000Z</time>
      </trkpt>
      <trkpt lat="40.113958306610584259033203125" lon="0.0503395311534404754638671875">
        <ele>181.600006103515625</ele>
        <time>2023-01-27T08:27:19.000Z</time>
      </trkpt>
      <trkpt lat="40.1139982044696807861328125" lon="0.0502902455627918243408203125">
        <ele>181.600006103515625</ele>
        <time>2023-01-27T08:27:20.000Z</time>
      </trkpt>
      <trkpt lat="40.1140302233397960662841796875" lon="0.05025009624660015106201171875">
        <ele>182</ele>
        <time>2023-01-27T08:27:21.000Z</time>
      </trkpt>
      <trkpt lat="40.11407188139855861663818359375" lon="0.05020198412239551544189453125">
        <ele>182</ele>
        <time>2023-01-27T08:27:22.000Z</time>
      </trkpt>
      <trkpt lat="40.114114545285701751708984375" lon="0.0501571409404277801513671875">
        <ele>182.1999969482421875</ele>
        <time>2023-01-27T08:27:23.000Z</time>
      </trkpt>
      <trkpt lat="40.11415519751608371734619140625" lon="0.05010978318750858306884765625">
        <ele>182.1999969482421875</ele>
        <time>2023-01-27T08:27:24.000Z</time>
      </trkpt>
      <trkpt lat="40.11419224552810192108154296875" lon="0.0500572286546230316162109375">
        <ele>182.399993896484375</ele>
        <time>2023-01-27T08:27:25.000Z</time>
      </trkpt>
      <trkpt lat="40.114231891930103302001953125" lon="0.0499871559441089630126953125">
        <ele>182.399993896484375</ele>
        <time>2023-01-27T08:27:26.000Z</time>
      </trkpt>
      <trkpt lat="40.11425510980188846588134765625" lon="0.04993711598217487335205078125">
        <ele>182.600006103515625</ele>
        <time>2023-01-27T08:27:27.000Z</time>
      </trkpt>
      <trkpt lat="40.11427891440689563751220703125" lon="0.04987408407032489776611328125">
        <ele>182.600006103515625</ele>
        <time>2023-01-27T08:27:28.000Z</time>
      </trkpt>
      <trkpt lat="40.1142997853457927703857421875" lon="0.0497957132756710052490234375">
        <ele>182.600006103515625</ele>
        <time>2023-01-27T08:27:29.000Z</time>
      </trkpt>
      <trkpt lat="40.11431126855313777923583984375" lon="0.0497313402593135833740234375">
        <ele>182.8000030517578125</ele>
        <time>2023-01-27T08:27:30.000Z</time>
      </trkpt>
      <trkpt lat="40.11432250030338764190673828125" lon="0.04966654814779758453369140625">
        <ele>182.8000030517578125</ele>
        <time>2023-01-27T08:27:31.000Z</time>
      </trkpt>
      <trkpt lat="40.114331133663654327392578125" lon="0.04959798417985439300537109375">
        <ele>182.8000030517578125</ele>
        <time>2023-01-27T08:27:32.000Z</time>
      </trkpt>
      <trkpt lat="40.11434110812842845916748046875" lon="0.0495288334786891937255859375">
        <ele>183</ele>
        <time>2023-01-27T08:27:33.000Z</time>
      </trkpt>
      <trkpt lat="40.1143507473170757293701171875" lon="0.04946219734847545623779296875">
        <ele>183</ele>
        <time>2023-01-27T08:27:34.000Z</time>
      </trkpt>
      <trkpt lat="40.114360637962818145751953125" lon="0.0493987463414669036865234375">
        <ele>183.1999969482421875</ele>
        <time>2023-01-27T08:27:35.000Z</time>
      </trkpt>
      <trkpt lat="40.11436977423727512359619140625" lon="0.0493383966386318206787109375">
        <ele>183.399993896484375</ele>
        <time>2023-01-27T08:27:36.000Z</time>
      </trkpt>
      <trkpt lat="40.1143785752356052398681640625" lon="0.049278549849987030029296875">
        <ele>183.600006103515625</ele>
        <time>2023-01-27T08:27:37.000Z</time>
      </trkpt>
      <trkpt lat="40.11438469402492046356201171875" lon="0.0492207147181034088134765625">
        <ele>183.8000030517578125</ele>
        <time>2023-01-27T08:27:38.000Z</time>
      </trkpt>
      <trkpt lat="40.11439181864261627197265625" lon="0.049166567623615264892578125">
        <ele>184</ele>
        <time>2023-01-27T08:27:39.000Z</time>
      </trkpt>
      <trkpt lat="40.1144047267735004425048828125" lon="0.04911485128104686737060546875">
        <ele>184.399993896484375</ele>
        <time>2023-01-27T08:27:40.000Z</time>
      </trkpt>
      <trkpt lat="40.11442241258919239044189453125" lon="0.049065314233303070068359375">
        <ele>184.399993896484375</ele>
        <time>2023-01-27T08:27:41.000Z</time>
      </trkpt>
      <trkpt lat="40.11444470845162868499755859375" lon="0.04902298562228679656982421875">
        <ele>184.8000030517578125</ele>
        <time>2023-01-27T08:27:42.000Z</time>
      </trkpt>
      <trkpt lat="40.11447169817984104156494140625" lon="0.0489840097725391387939453125">
        <ele>185</ele>
        <time>2023-01-27T08:27:43.000Z</time>
      </trkpt>
      <trkpt lat="40.11450371704995632171630859375" lon="0.048949308693408966064453125">
        <ele>185.399993896484375</ele>
        <time>2023-01-27T08:27:44.000Z</time>
      </trkpt>
      <trkpt lat="40.11453657411038875579833984375" lon="0.04892072640359401702880859375">
        <ele>185.600006103515625</ele>
        <time>2023-01-27T08:27:45.000Z</time>
      </trkpt>
      <trkpt lat="40.1145720295608043670654296875" lon="0.04889692179858684539794921875">
        <ele>186</ele>
        <time>2023-01-27T08:27:46.000Z</time>
      </trkpt>
      <trkpt lat="40.11460840702056884765625" lon="0.04887261427938938140869140625">
        <ele>186.1999969482421875</ele>
        <time>2023-01-27T08:27:47.000Z</time>
      </trkpt>
      <trkpt lat="40.11464620940387248992919921875" lon="0.048848725855350494384765625">
        <ele>186.8000030517578125</ele>
        <time>2023-01-27T08:27:48.000Z</time>
      </trkpt>
      <trkpt lat="40.1146843470633029937744140625" lon="0.0488220714032649993896484375">
        <ele>187.1999969482421875</ele>
        <time>2023-01-27T08:27:49.000Z</time>
      </trkpt>
      <trkpt lat="40.1147229038178920745849609375" lon="0.04879382438957691192626953125">
        <ele>187.600006103515625</ele>
        <time>2023-01-27T08:27:50.000Z</time>
      </trkpt>
      <trkpt lat="40.1147587783634662628173828125" lon="0.04876733757555484771728515625">
        <ele>187.8000030517578125</ele>
        <time>2023-01-27T08:27:51.000Z</time>
      </trkpt>
      <trkpt lat="40.114797167479991912841796875" lon="0.04874043166637420654296875">
        <ele>188</ele>
        <time>2023-01-27T08:27:52.000Z</time>
      </trkpt>
      <trkpt lat="40.1148350536823272705078125" lon="0.04871520213782787322998046875">
        <ele>188.399993896484375</ele>
        <time>2023-01-27T08:27:53.000Z</time>
      </trkpt>
      <trkpt lat="40.11487369425594806671142578125" lon="0.0486906431615352630615234375">
        <ele>188.8000030517578125</ele>
        <time>2023-01-27T08:27:54.000Z</time>
      </trkpt>
      <trkpt lat="40.11491216719150543212890625" lon="0.04866725765168666839599609375">
        <ele>188.8000030517578125</ele>
        <time>2023-01-27T08:27:55.000Z</time>
      </trkpt>
      <trkpt lat="40.11495164595544338226318359375" lon="0.04864412359893321990966796875">
        <ele>189.1999969482421875</ele>
        <time>2023-01-27T08:27:56.000Z</time>
      </trkpt>
      <trkpt lat="40.11499129235744476318359375" lon="0.048620738089084625244140625">
        <ele>189.399993896484375</ele>
        <time>2023-01-27T08:27:57.000Z</time>
      </trkpt>
      <trkpt lat="40.1150306873023509979248046875" lon="0.04859450273215770721435546875">
        <ele>189.8000030517578125</ele>
        <time>2023-01-27T08:27:58.000Z</time>
      </trkpt>
      <trkpt lat="40.1150705851614475250244140625" lon="0.0485739670693874359130859375">
        <ele>190</ele>
        <time>2023-01-27T08:27:59.000Z</time>
      </trkpt>
      <trkpt lat="40.11510956101119518280029296875" lon="0.04855259321630001068115234375">
        <ele>190.1999969482421875</ele>
        <time>2023-01-27T08:28:00.000Z</time>
      </trkpt>
      <trkpt lat="40.115141160786151885986328125" lon="0.04853549413383007049560546875">
        <ele>190.399993896484375</ele>
        <time>2023-01-27T08:28:01.000Z</time>
      </trkpt>
      <trkpt lat="40.1151842437684535980224609375" lon="0.04850816912949085235595703125">
        <ele>190.600006103515625</ele>
        <time>2023-01-27T08:28:02.000Z</time>
      </trkpt>
      <trkpt lat="40.1152204535901546478271484375" lon="0.04848386161029338836669921875">
        <ele>190.600006103515625</ele>
        <time>2023-01-27T08:28:03.000Z</time>
      </trkpt>
      <trkpt lat="40.11525725014507770538330078125" lon="0.048461146652698516845703125">
        <ele>190.8000030517578125</ele>
        <time>2023-01-27T08:28:04.000Z</time>
      </trkpt>
      <trkpt lat="40.11529496870934963226318359375" lon="0.04843742586672306060791015625">
        <ele>191.1999969482421875</ele>
        <time>2023-01-27T08:28:05.000Z</time>
      </trkpt>
      <trkpt lat="40.1153260655701160430908203125" lon="0.04841462709009647369384765625">
        <ele>191.1999969482421875</ele>
        <time>2023-01-27T08:28:06.000Z</time>
      </trkpt>
      <trkpt lat="40.1153719983994960784912109375" lon="0.048384368419647216796875">
        <ele>191.600006103515625</ele>
        <time>2023-01-27T08:28:07.000Z</time>
      </trkpt>
      <trkpt lat="40.11541114188730716705322265625" lon="0.04836047999560832977294921875">
        <ele>191.600006103515625</ele>
        <time>2023-01-27T08:28:08.000Z</time>
      </trkpt>
      <trkpt lat="40.11544995009899139404296875" lon="0.04833768121898174285888671875">
        <ele>191.8000030517578125</ele>
        <time>2023-01-27T08:28:09.000Z</time>
      </trkpt>
      <trkpt lat="40.115486495196819305419921875" lon="0.048315636813640594482421875">
        <ele>191.8000030517578125</ele>
        <time>2023-01-27T08:28:10.000Z</time>
      </trkpt>
      <trkpt lat="40.1155265606939792633056640625" lon="0.048293508589267730712890625">
        <ele>192.1999969482421875</ele>
        <time>2023-01-27T08:28:11.000Z</time>
      </trkpt>
      <trkpt lat="40.11556788347661495208740234375" lon="0.048273392021656036376953125">
        <ele>192.399993896484375</ele>
        <time>2023-01-27T08:28:12.000Z</time>
      </trkpt>
      <trkpt lat="40.11560954153537750244140625" lon="0.0482544489204883575439453125">
        <ele>192.600006103515625</ele>
        <time>2023-01-27T08:28:13.000Z</time>
      </trkpt>
      <trkpt lat="40.11565170250833034515380859375" lon="0.04823843948543071746826171875">
        <ele>192.8000030517578125</ele>
        <time>2023-01-27T08:28:14.000Z</time>
      </trkpt>
      <trkpt lat="40.11569327674806118011474609375" lon="0.04822201095521450042724609375">
        <ele>193</ele>
        <time>2023-01-27T08:28:15.000Z</time>
      </trkpt>
      <trkpt lat="40.11573468334972858428955078125" lon="0.04820575006306171417236328125">
        <ele>193.1999969482421875</ele>
        <time>2023-01-27T08:28:16.000Z</time>
      </trkpt>
      <trkpt lat="40.11577273719012737274169921875" lon="0.0481887347996234893798828125">
        <ele>193.600006103515625</ele>
        <time>2023-01-27T08:28:17.000Z</time>
      </trkpt>
      <trkpt lat="40.11580978520214557647705078125" lon="0.0481709651648998260498046875">
        <ele>193.8000030517578125</ele>
        <time>2023-01-27T08:28:18.000Z</time>
      </trkpt>
      <trkpt lat="40.11584758758544921875" lon="0.04815311171114444732666015625">
        <ele>194.1999969482421875</ele>
        <time>2023-01-27T08:28:19.000Z</time>
      </trkpt>
      <trkpt lat="40.11588606052100658416748046875" lon="0.04813550971448421478271484375">
        <ele>194.1999969482421875</ele>
        <time>2023-01-27T08:28:20.000Z</time>
      </trkpt>
      <trkpt lat="40.11592528782784938812255859375" lon="0.04811681807041168212890625">
        <ele>194.399993896484375</ele>
        <time>2023-01-27T08:28:21.000Z</time>
      </trkpt>
      <trkpt lat="40.11596367694437503814697265625" lon="0.0481015630066394805908203125">
        <ele>194.8000030517578125</ele>
        <time>2023-01-27T08:28:22.000Z</time>
      </trkpt>
      <trkpt lat="40.116000138223171234130859375" lon="0.048086643218994140625">
        <ele>194.8000030517578125</ele>
        <time>2023-01-27T08:28:23.000Z</time>
      </trkpt>
      <trkpt lat="40.11603861115872859954833984375" lon="0.0480692088603973388671875">
        <ele>195.1999969482421875</ele>
        <time>2023-01-27T08:28:24.000Z</time>
      </trkpt>
      <trkpt lat="40.11607649736106395721435546875" lon="0.0480531156063079833984375">
        <ele>195.399993896484375</ele>
        <time>2023-01-27T08:28:25.000Z</time>
      </trkpt>
      <trkpt lat="40.1161153055727481842041015625" lon="0.04803501069545745849609375">
        <ele>195.8000030517578125</ele>
        <time>2023-01-27T08:28:26.000Z</time>
      </trkpt>
      <trkpt lat="40.11615537106990814208984375" lon="0.04801883362233638763427734375">
        <ele>196</ele>
        <time>2023-01-27T08:28:27.000Z</time>
      </trkpt>
      <trkpt lat="40.11619417928159236907958984375" lon="0.04800424911081790924072265625">
        <ele>196.399993896484375</ele>
        <time>2023-01-27T08:28:28.000Z</time>
      </trkpt>
      <trkpt lat="40.11623256839811801910400390625" lon="0.04798983223736286163330078125">
        <ele>196.399993896484375</ele>
        <time>2023-01-27T08:28:29.000Z</time>
      </trkpt>
      <trkpt lat="40.11627095751464366912841796875" lon="0.04797457717359066009521484375">
        <ele>196.600006103515625</ele>
        <time>2023-01-27T08:28:30.000Z</time>
      </trkpt>
      <trkpt lat="40.11630901135504245758056640625" lon="0.04795814864337444305419921875">
        <ele>196.8000030517578125</ele>
        <time>2023-01-27T08:28:31.000Z</time>
      </trkpt>
      <trkpt lat="40.11634874157607555389404296875" lon="0.04794113337993621826171875">
        <ele>196.8000030517578125</ele>
        <time>2023-01-27T08:28:32.000Z</time>
      </trkpt>
      <trkpt lat="40.1163865439593791961669921875" lon="0.04792478866875171661376953125">
        <ele>197.1999969482421875</ele>
        <time>2023-01-27T08:28:33.000Z</time>
      </trkpt>
      <trkpt lat="40.1164204068481922149658203125" lon="0.04790651611983776092529296875">
        <ele>197.600006103515625</ele>
        <time>2023-01-27T08:28:34.000Z</time>
      </trkpt>
      <trkpt lat="40.11645577847957611083984375" lon="0.04788807593286037445068359375">
        <ele>197.8000030517578125</ele>
        <time>2023-01-27T08:28:35.000Z</time>
      </trkpt>
      <trkpt lat="40.11648972518742084503173828125" lon="0.04787097685039043426513671875">
        <ele>198.1999969482421875</ele>
        <time>2023-01-27T08:28:36.000Z</time>
      </trkpt>
      <trkpt lat="40.11652476154267787933349609375" lon="0.0478519499301910400390625">
        <ele>198.1999969482421875</ele>
        <time>2023-01-27T08:28:37.000Z</time>
      </trkpt>
      <trkpt lat="40.11655795387923717498779296875" lon="0.04783376120030879974365234375">
        <ele>198.600006103515625</ele>
        <time>2023-01-27T08:28:38.000Z</time>
      </trkpt>
      <trkpt lat="40.11658946983516216278076171875" lon="0.04781599156558513641357421875">
        <ele>198.8000030517578125</ele>
        <time>2023-01-27T08:28:39.000Z</time>
      </trkpt>
      <trkpt lat="40.1166212372481822967529296875" lon="0.04779956303536891937255859375">
        <ele>199</ele>
        <time>2023-01-27T08:28:40.000Z</time>
      </trkpt>
      <trkpt lat="40.1166504062712192535400390625" lon="0.047780536115169525146484375">
        <ele>199</ele>
        <time>2023-01-27T08:28:41.000Z</time>
      </trkpt>
      <trkpt lat="40.11667127721011638641357421875" lon="0.04774809814989566802978515625">
        <ele>199.600006103515625</ele>
        <time>2023-01-27T08:28:42.000Z</time>
      </trkpt>
      <trkpt lat="40.116678066551685333251953125" lon="0.04771180450916290283203125">
        <ele>199.8000030517578125</ele>
        <time>2023-01-27T08:28:43.000Z</time>
      </trkpt>
      <trkpt lat="40.11667161248624324798583984375" lon="0.04768037237226963043212890625">
        <ele>200</ele>
        <time>2023-01-27T08:28:44.000Z</time>
      </trkpt>
      <trkpt lat="40.11665292084217071533203125" lon="0.04766746424138545989990234375">
        <ele>200.1999969482421875</ele>
        <time>2023-01-27T08:28:45.000Z</time>
      </trkpt>
      <trkpt lat="40.1166222430765628814697265625" lon="0.0476667098701000213623046875">
        <ele>200.399993896484375</ele>
        <time>2023-01-27T08:28:46.000Z</time>
      </trkpt>
      <trkpt lat="40.1165873743593692779541015625" lon="0.04767634905874729156494140625">
        <ele>200.399993896484375</ele>
        <time>2023-01-27T08:28:47.000Z</time>
      </trkpt>
      <trkpt lat="40.1165407709777355194091796875" lon="0.04768707789480686187744140625">
        <ele>200.600006103515625</ele>
        <time>2023-01-27T08:28:48.000Z</time>
      </trkpt>
      <trkpt lat="40.11649978347122669219970703125" lon="0.04768959246575832366943359375">
        <ele>200.8000030517578125</ele>
        <time>2023-01-27T08:28:49.000Z</time>
      </trkpt>
      <trkpt lat="40.116468854248523712158203125" lon="0.04769093357026576995849609375">
        <ele>201</ele>
        <time>2023-01-27T08:28:50.000Z</time>
      </trkpt>
      <trkpt lat="40.11643172241747379302978515625" lon="0.0476921908557415008544921875">
        <ele>201.1999969482421875</ele>
        <time>2023-01-27T08:28:51.000Z</time>
      </trkpt>
      <trkpt lat="40.1163831911981105804443359375" lon="0.04768724553287029266357421875">
        <ele>201.1999969482421875</ele>
        <time>2023-01-27T08:28:52.000Z</time>
      </trkpt>
      <trkpt lat="40.116341114044189453125" lon="0.0476807914674282073974609375">
        <ele>201.399993896484375</ele>
        <time>2023-01-27T08:28:53.000Z</time>
      </trkpt>
      <trkpt lat="40.11629543267190456390380859375" lon="0.04767366684973239898681640625">
        <ele>201.600006103515625</ele>
        <time>2023-01-27T08:28:54.000Z</time>
      </trkpt>
      <trkpt lat="40.11624732054769992828369140625" lon="0.04766293801367282867431640625">
        <ele>201.8000030517578125</ele>
        <time>2023-01-27T08:28:55.000Z</time>
      </trkpt>
      <trkpt lat="40.11620658449828624725341796875" lon="0.04765489138662815093994140625">
        <ele>201.8000030517578125</ele>
        <time>2023-01-27T08:28:56.000Z</time>
      </trkpt>
      <trkpt lat="40.11614640243351459503173828125" lon="0.04764265380799770355224609375">
        <ele>202</ele>
        <time>2023-01-27T08:28:57.000Z</time>
      </trkpt>
      <trkpt lat="40.116096027195453643798828125" lon="0.0476361997425556182861328125">
        <ele>202</ele>
        <time>2023-01-27T08:28:58.000Z</time>
      </trkpt>
      <trkpt lat="40.1160527765750885009765625" lon="0.0476346909999847412109375">
        <ele>202.1999969482421875</ele>
        <time>2023-01-27T08:28:59.000Z</time>
      </trkpt>
      <trkpt lat="40.1159993000328540802001953125" lon="0.0476291589438915252685546875">
        <ele>202.1999969482421875</ele>
        <time>2023-01-27T08:29:00.000Z</time>
      </trkpt>
      <trkpt lat="40.115946494042873382568359375" lon="0.04762052558362483978271484375">
        <ele>202.399993896484375</ele>
        <time>2023-01-27T08:29:01.000Z</time>
      </trkpt>
      <trkpt lat="40.11588312685489654541015625" lon="0.047606192529201507568359375">
        <ele>202.600006103515625</ele>
        <time>2023-01-27T08:29:02.000Z</time>
      </trkpt>
      <trkpt lat="40.11582872830331325531005859375" lon="0.047598145902156829833984375">
        <ele>202.600006103515625</ele>
        <time>2023-01-27T08:29:03.000Z</time>
      </trkpt>
      <trkpt lat="40.1157746650278568267822265625" lon="0.0475932843983173370361328125">
        <ele>202.600006103515625</ele>
        <time>2023-01-27T08:29:04.000Z</time>
      </trkpt>
      <trkpt lat="40.1157320849597454071044921875" lon="0.04758750088512897491455078125">
        <ele>202.8000030517578125</ele>
        <time>2023-01-27T08:29:05.000Z</time>
      </trkpt>
      <trkpt lat="40.1156774349510669708251953125" lon="0.0475808791816234588623046875">
        <ele>202.8000030517578125</ele>
        <time>2023-01-27T08:29:06.000Z</time>
      </trkpt>
      <trkpt lat="40.11561197228729724884033203125" lon="0.0475730001926422119140625">
        <ele>203</ele>
        <time>2023-01-27T08:29:07.000Z</time>
      </trkpt>
      <trkpt lat="40.1155681349337100982666015625" lon="0.0475674681365489959716796875">
        <ele>203</ele>
        <time>2023-01-27T08:29:08.000Z</time>
      </trkpt>
      <trkpt lat="40.1155136525630950927734375" lon="0.0475569069385528564453125">
        <ele>203</ele>
        <time>2023-01-27T08:29:09.000Z</time>
      </trkpt>
      <trkpt lat="40.11545942164957523345947265625" lon="0.04754475317895412445068359375">
        <ele>203</ele>
        <time>2023-01-27T08:29:10.000Z</time>
      </trkpt>
      <trkpt lat="40.11540569365024566650390625" lon="0.04753150977194309234619140625">
        <ele>203</ele>
        <time>2023-01-27T08:29:11.000Z</time>
      </trkpt>
      <trkpt lat="40.11535473167896270751953125" lon="0.0475208647549152374267578125">
        <ele>203</ele>
        <time>2023-01-27T08:29:12.000Z</time>
      </trkpt>
      <trkpt lat="40.115292370319366455078125" lon="0.0475108064711093902587890625">
        <ele>203.1999969482421875</ele>
        <time>2023-01-27T08:29:13.000Z</time>
      </trkpt>
      <trkpt lat="40.11523461900651454925537109375" lon="0.04750435240566730499267578125">
        <ele>203.399993896484375</ele>
        <time>2023-01-27T08:29:14.000Z</time>
      </trkpt>
      <trkpt lat="40.11518801562488079071044921875" lon="0.047495551407337188720703125">
        <ele>203.399993896484375</ele>
        <time>2023-01-27T08:29:15.000Z</time>
      </trkpt>
      <trkpt lat="40.1151312701404094696044921875" lon="0.0474826432764530181884765625">
        <ele>203.600006103515625</ele>
        <time>2023-01-27T08:29:16.000Z</time>
      </trkpt>
      <trkpt lat="40.1150635443627834320068359375" lon="0.0474643707275390625">
        <ele>203.600006103515625</ele>
        <time>2023-01-27T08:29:17.000Z</time>
      </trkpt>
      <trkpt lat="40.11500411666929721832275390625" lon="0.047447942197322845458984375">
        <ele>203.600006103515625</ele>
        <time>2023-01-27T08:29:18.000Z</time>
      </trkpt>
      <trkpt lat="40.1149562560021877288818359375" lon="0.0474306754767894744873046875">
        <ele>203.600006103515625</ele>
        <time>2023-01-27T08:29:19.000Z</time>
      </trkpt>
      <trkpt lat="40.114896409213542938232421875" lon="0.04741081036627292633056640625">
        <ele>203.600006103515625</ele>
        <time>2023-01-27T08:29:20.000Z</time>
      </trkpt>
      <trkpt lat="40.1148345507681369781494140625" lon="0.04739220254123210906982421875">
        <ele>203.600006103515625</ele>
        <time>2023-01-27T08:29:21.000Z</time>
      </trkpt>
      <trkpt lat="40.11462123133242130279541015625" lon="0.04734241403639316558837890625">
        <ele>203.1999969482421875</ele>
        <time>2023-01-27T08:29:24.000Z</time>
      </trkpt>
      <trkpt lat="40.11449969373643398284912109375" lon="0.047295726835727691650390625">
        <ele>202.8000030517578125</ele>
        <time>2023-01-27T08:29:26.000Z</time>
      </trkpt>
      <trkpt lat="40.1143634878098964691162109375" lon="0.0471921265125274658203125">
        <ele>201.8000030517578125</ele>
        <time>2023-01-27T08:29:28.000Z</time>
      </trkpt>
      <trkpt lat="40.11428712867200374603271484375" lon="0.0470866821706295013427734375">
        <ele>201</ele>
        <time>2023-01-27T08:29:30.000Z</time>
      </trkpt>
      <trkpt lat="40.1142508350312709808349609375" lon="0.0470048747956752777099609375">
        <ele>200.1999969482421875</ele>
        <time>2023-01-27T08:29:31.000Z</time>
      </trkpt>
      <trkpt lat="40.11422577314078807830810546875" lon="0.04693974740803241729736328125">
        <ele>200</ele>
        <time>2023-01-27T08:29:32.000Z</time>
      </trkpt>
      <trkpt lat="40.11420138180255889892578125" lon="0.0468774698674678802490234375">
        <ele>199.600006103515625</ele>
        <time>2023-01-27T08:29:33.000Z</time>
      </trkpt>
      <trkpt lat="40.11416944675147533416748046875" lon="0.0468218140304088592529296875">
        <ele>199.399993896484375</ele>
        <time>2023-01-27T08:29:34.000Z</time>
      </trkpt>
      <trkpt lat="40.11413591913878917694091796875" lon="0.04679021425545215606689453125">
        <ele>198.8000030517578125</ele>
        <time>2023-01-27T08:29:35.000Z</time>
      </trkpt>
      <trkpt lat="40.11408177204430103302001953125" lon="0.04676657728850841522216796875">
        <ele>198.600006103515625</ele>
        <time>2023-01-27T08:29:36.000Z</time>
      </trkpt>
      <trkpt lat="40.1140352524816989898681640625" lon="0.04677764140069484710693359375">
        <ele>198</ele>
        <time>2023-01-27T08:29:37.000Z</time>
      </trkpt>
      <trkpt lat="40.11398940347135066986083984375" lon="0.0468040443956851959228515625">
        <ele>197.8000030517578125</ele>
        <time>2023-01-27T08:29:38.000Z</time>
      </trkpt>
      <trkpt lat="40.11391103267669677734375" lon="0.04686414264142513275146484375">
        <ele>196.8000030517578125</ele>
        <time>2023-01-27T08:29:40.000Z</time>
      </trkpt>
      <trkpt lat="40.11386233381927013397216796875" lon="0.04690404050052165985107421875">
        <ele>196.399993896484375</ele>
        <time>2023-01-27T08:29:41.000Z</time>
      </trkpt>
      <trkpt lat="40.11382712982594966888427734375" lon="0.0469411723315715789794921875">
        <ele>196.1999969482421875</ele>
        <time>2023-01-27T08:29:42.000Z</time>
      </trkpt>
      <trkpt lat="40.1137968711555004119873046875" lon="0.04697981290519237518310546875">
        <ele>196.1999969482421875</ele>
        <time>2023-01-27T08:29:43.000Z</time>
      </trkpt>
      <trkpt lat="40.11376912705600261688232421875" lon="0.04701417870819568634033203125">
        <ele>196</ele>
        <time>2023-01-27T08:29:44.000Z</time>
      </trkpt>
      <trkpt lat="40.1137460768222808837890625" lon="0.04703991115093231201171875">
        <ele>196.1999969482421875</ele>
        <time>2023-01-27T08:29:45.000Z</time>
      </trkpt>
      <trkpt lat="40.11371414177119731903076171875" lon="0.04706463776528835296630859375">
        <ele>196.1999969482421875</ele>
        <time>2023-01-27T08:29:46.000Z</time>
      </trkpt>
      <trkpt lat="40.11367323808372020721435546875" lon="0.047081820666790008544921875">
        <ele>196.1999969482421875</ele>
        <time>2023-01-27T08:29:47.000Z</time>
      </trkpt>
      <trkpt lat="40.11364348232746124267578125" lon="0.047090537846088409423828125">
        <ele>196.399993896484375</ele>
        <time>2023-01-27T08:29:48.000Z</time>
      </trkpt>
      <trkpt lat="40.11360601522028446197509765625" lon="0.04709783010184764862060546875">
        <ele>196.600006103515625</ele>
        <time>2023-01-27T08:29:49.000Z</time>
      </trkpt>
      <trkpt lat="40.11356192640960216522216796875" lon="0.047087855637073516845703125">
        <ele>197</ele>
        <time>2023-01-27T08:29:50.000Z</time>
      </trkpt>
      <trkpt lat="40.1135269738733768463134765625" lon="0.04706983454525470733642578125">
        <ele>197.600006103515625</ele>
        <time>2023-01-27T08:29:51.000Z</time>
      </trkpt>
      <trkpt lat="40.11349353007972240447998046875" lon="0.04705357365310192108154296875">
        <ele>198.1999969482421875</ele>
        <time>2023-01-27T08:29:52.000Z</time>
      </trkpt>
      <trkpt lat="40.11346402578055858612060546875" lon="0.0470283441245555877685546875">
        <ele>198.600006103515625</ele>
        <time>2023-01-27T08:29:53.000Z</time>
      </trkpt>
      <trkpt lat="40.11343871243298053741455078125" lon="0.04700462333858013153076171875">
        <ele>199.600006103515625</ele>
        <time>2023-01-27T08:29:54.000Z</time>
      </trkpt>
      <trkpt lat="40.1134200207889080047607421875" lon="0.04698685370385646820068359375">
        <ele>199.8000030517578125</ele>
        <time>2023-01-27T08:29:55.000Z</time>
      </trkpt>
      <trkpt lat="40.11339177377521991729736328125" lon="0.0469592772424221038818359375">
        <ele>200.1999969482421875</ele>
        <time>2023-01-27T08:29:56.000Z</time>
      </trkpt>
      <trkpt lat="40.113366544246673583984375" lon="0.046936310827732086181640625">
        <ele>200.600006103515625</ele>
        <time>2023-01-27T08:29:57.000Z</time>
      </trkpt>
      <trkpt lat="40.1133398897945880889892578125" lon="0.0469133444130420684814453125">
        <ele>201</ele>
        <time>2023-01-27T08:29:58.000Z</time>
      </trkpt>
      <trkpt lat="40.11331759393215179443359375" lon="0.04689834080636501312255859375">
        <ele>201.1999969482421875</ele>
        <time>2023-01-27T08:29:59.000Z</time>
      </trkpt>
      <trkpt lat="40.11329454369843006134033203125" lon="0.04687554202973842620849609375">
        <ele>201.8000030517578125</ele>
        <time>2023-01-27T08:30:00.000Z</time>
      </trkpt>
      <trkpt lat="40.11326688341796398162841796875" lon="0.04684620536863803863525390625">
        <ele>202</ele>
        <time>2023-01-27T08:30:01.000Z</time>
      </trkpt>
      <trkpt lat="40.11324190534651279449462890625" lon="0.0468275137245655059814453125">
        <ele>202.399993896484375</ele>
        <time>2023-01-27T08:30:02.000Z</time>
      </trkpt>
      <trkpt lat="40.11321709491312503814697265625" lon="0.0468032062053680419921875">
        <ele>202.600006103515625</ele>
        <time>2023-01-27T08:30:03.000Z</time>
      </trkpt>
      <trkpt lat="40.11319957673549652099609375" lon="0.04678283818066120147705078125">
        <ele>203</ele>
        <time>2023-01-27T08:30:04.000Z</time>
      </trkpt>
      <trkpt lat="40.1131759397685527801513671875" lon="0.0467557646334171295166015625">
        <ele>203.399993896484375</ele>
        <time>2023-01-27T08:30:05.000Z</time>
      </trkpt>
      <trkpt lat="40.11314970441162586212158203125" lon="0.04671930335462093353271484375">
        <ele>203.8000030517578125</ele>
        <time>2023-01-27T08:30:06.000Z</time>
      </trkpt>
      <trkpt lat="40.11312757618725299835205078125" lon="0.0466927327215671539306640625">
        <ele>204</ele>
        <time>2023-01-27T08:30:07.000Z</time>
      </trkpt>
      <trkpt lat="40.11310947127640247344970703125" lon="0.04666842520236968994140625">
        <ele>204.8000030517578125</ele>
        <time>2023-01-27T08:30:08.000Z</time>
      </trkpt>
      <trkpt lat="40.11308918707072734832763671875" lon="0.04663623869419097900390625">
        <ele>205</ele>
        <time>2023-01-27T08:30:09.000Z</time>
      </trkpt>
      <trkpt lat="40.11306940577924251556396484375" lon="0.0465928204357624053955078125">
        <ele>205.399993896484375</ele>
        <time>2023-01-27T08:30:10.000Z</time>
      </trkpt>
      <trkpt lat="40.113057084381580352783203125" lon="0.04655300639569759368896484375">
        <ele>205.600006103515625</ele>
        <time>2023-01-27T08:30:11.000Z</time>
      </trkpt>
      <trkpt lat="40.11304627172648906707763671875" lon="0.04651017487049102783203125">
        <ele>206</ele>
        <time>2023-01-27T08:30:12.000Z</time>
      </trkpt>
      <trkpt lat="40.1130374707281589508056640625" lon="0.0464640744030475616455078125">
        <ele>206.399993896484375</ele>
        <time>2023-01-27T08:30:13.000Z</time>
      </trkpt>
      <trkpt lat="40.11302414350211620330810546875" lon="0.0464250147342681884765625">
        <ele>206.600006103515625</ele>
        <time>2023-01-27T08:30:14.000Z</time>
      </trkpt>
      <trkpt lat="40.11300939135253429412841796875" lon="0.04638754762709140777587890625">
        <ele>206.8000030517578125</ele>
        <time>2023-01-27T08:30:15.000Z</time>
      </trkpt>
      <trkpt lat="40.11299413628876209259033203125" lon="0.046345554292201995849609375">
        <ele>207</ele>
        <time>2023-01-27T08:30:16.000Z</time>
      </trkpt>
      <trkpt lat="40.11297988705337047576904296875" lon="0.046299956738948822021484375">
        <ele>207.1999969482421875</ele>
        <time>2023-01-27T08:30:17.000Z</time>
      </trkpt>
      <trkpt lat="40.11296488344669342041015625" lon="0.046249330043792724609375">
        <ele>207.399993896484375</ele>
        <time>2023-01-27T08:30:18.000Z</time>
      </trkpt>
      <trkpt lat="40.11295222677290439605712890625" lon="0.0462028943002223968505859375">
        <ele>207.600006103515625</ele>
        <time>2023-01-27T08:30:19.000Z</time>
      </trkpt>
      <trkpt lat="40.1129388995468616485595703125" lon="0.04615486599504947662353515625">
        <ele>207.8000030517578125</ele>
        <time>2023-01-27T08:30:20.000Z</time>
      </trkpt>
      <trkpt lat="40.1129244826734066009521484375" lon="0.04610071890056133270263671875">
        <ele>208</ele>
        <time>2023-01-27T08:30:21.000Z</time>
      </trkpt>
      <trkpt lat="40.11290813796222209930419921875" lon="0.0460441410541534423828125">
        <ele>208</ele>
        <time>2023-01-27T08:30:22.000Z</time>
      </trkpt>
      <trkpt lat="40.112894475460052490234375" lon="0.04599611274898052215576171875">
        <ele>208.1999969482421875</ele>
        <time>2023-01-27T08:30:23.000Z</time>
      </trkpt>
      <trkpt lat="40.11287410743534564971923828125" lon="0.04593844525516033172607421875">
        <ele>208.399993896484375</ele>
        <time>2023-01-27T08:30:24.000Z</time>
      </trkpt>
      <trkpt lat="40.1128502190113067626953125" lon="0.04586116410791873931884765625">
        <ele>208.399993896484375</ele>
        <time>2023-01-27T08:30:25.000Z</time>
      </trkpt>
      <trkpt lat="40.1128249056637287139892578125" lon="0.04579603672027587890625">
        <ele>208.399993896484375</ele>
        <time>2023-01-27T08:30:26.000Z</time>
      </trkpt>
      <trkpt lat="40.1127977482974529266357421875" lon="0.04573166370391845703125">
        <ele>208.399993896484375</ele>
        <time>2023-01-27T08:30:27.000Z</time>
      </trkpt>
      <trkpt lat="40.11277168057858943939208984375" lon="0.0456734932959079742431640625">
        <ele>208.399993896484375</ele>
        <time>2023-01-27T08:30:28.000Z</time>
      </trkpt>
      <trkpt lat="40.11275005526840686798095703125" lon="0.04562144167721271514892578125">
        <ele>208.399993896484375</ele>
        <time>2023-01-27T08:30:29.000Z</time>
      </trkpt>
      <trkpt lat="40.11272373609244823455810546875" lon="0.0455299951136112213134765625">
        <ele>208.399993896484375</ele>
        <time>2023-01-27T08:30:30.000Z</time>
      </trkpt>
      <trkpt lat="40.1127032004296779632568359375" lon="0.04545983858406543731689453125">
        <ele>208.399993896484375</ele>
        <time>2023-01-27T08:30:31.000Z</time>
      </trkpt>
      <trkpt lat="40.11267880909144878387451171875" lon="0.04538959823548793792724609375">
        <ele>208.1999969482421875</ele>
        <time>2023-01-27T08:30:32.000Z</time>
      </trkpt>
      <trkpt lat="40.1126535795629024505615234375" lon="0.04531583748757839202880859375">
        <ele>208</ele>
        <time>2023-01-27T08:30:33.000Z</time>
      </trkpt>
      <trkpt lat="40.112629942595958709716796875" lon="0.045235790312290191650390625">
        <ele>208.1999969482421875</ele>
        <time>2023-01-27T08:30:34.000Z</time>
      </trkpt>
      <trkpt lat="40.11261292733252048492431640625" lon="0.04515373148024082183837890625">
        <ele>208</ele>
        <time>2023-01-27T08:30:35.000Z</time>
      </trkpt>
      <trkpt lat="40.1125932298600673675537109375" lon="0.04506706260144710540771484375">
        <ele>207.8000030517578125</ele>
        <time>2023-01-27T08:30:36.000Z</time>
      </trkpt>
      <trkpt lat="40.11256565339863300323486328125" lon="0.0450005941092967987060546875">
        <ele>208</ele>
        <time>2023-01-27T08:30:37.000Z</time>
      </trkpt>
      <trkpt lat="40.11253229342401027679443359375" lon="0.04494753666222095489501953125">
        <ele>207.8000030517578125</ele>
        <time>2023-01-27T08:30:38.000Z</time>
      </trkpt>
      <trkpt lat="40.1124903000891208648681640625" lon="0.0448758713901042938232421875">
        <ele>207.8000030517578125</ele>
        <time>2023-01-27T08:30:39.000Z</time>
      </trkpt>
      <trkpt lat="40.11245233006775379180908203125" lon="0.0448171980679035186767578125">
        <ele>208</ele>
        <time>2023-01-27T08:30:40.000Z</time>
      </trkpt>
      <trkpt lat="40.11241528205573558807373046875" lon="0.04476062022149562835693359375">
        <ele>207.600006103515625</ele>
        <time>2023-01-27T08:30:41.000Z</time>
      </trkpt>
      <trkpt lat="40.1123414374887943267822265625" lon="0.0446669943630695343017578125">
        <ele>207</ele>
        <time>2023-01-27T08:30:43.000Z</time>
      </trkpt>
      <trkpt lat="40.112259127199649810791015625" lon="0.04456423223018646240234375">
        <ele>207</ele>
        <time>2023-01-27T08:30:45.000Z</time>
      </trkpt>
      <trkpt lat="40.11222727596759796142578125" lon="0.0445177964866161346435546875">
        <ele>207.1999969482421875</ele>
        <time>2023-01-27T08:30:46.000Z</time>
      </trkpt>
      <trkpt lat="40.11219651438295841217041015625" lon="0.04447345621883869171142578125">
        <ele>207.1999969482421875</ele>
        <time>2023-01-27T08:30:47.000Z</time>
      </trkpt>
      <trkpt lat="40.1121711172163486480712890625" lon="0.04443774931132793426513671875">
        <ele>207.399993896484375</ele>
        <time>2023-01-27T08:30:48.000Z</time>
      </trkpt>
      <trkpt lat="40.1121313869953155517578125" lon="0.044383518397808074951171875">
        <ele>207.399993896484375</ele>
        <time>2023-01-27T08:30:49.000Z</time>
      </trkpt>
      <trkpt lat="40.11206508614122867584228515625" lon="0.04429399967193603515625">
        <ele>207.399993896484375</ele>
        <time>2023-01-27T08:30:51.000Z</time>
      </trkpt>
      <trkpt lat="40.11202736757695674896240234375" lon="0.044250749051570892333984375">
        <ele>207.399993896484375</ele>
        <time>2023-01-27T08:30:52.000Z</time>
      </trkpt>
      <trkpt lat="40.11198814027011394500732421875" lon="0.04420389421284198760986328125">
        <ele>207.399993896484375</ele>
        <time>2023-01-27T08:30:53.000Z</time>
      </trkpt>
      <trkpt lat="40.11194773949682712554931640625" lon="0.04416449926793575286865234375">
        <ele>207.600006103515625</ele>
        <time>2023-01-27T08:30:54.000Z</time>
      </trkpt>
      <trkpt lat="40.11186140589416027069091796875" lon="0.0440980307757854461669921875">
        <ele>207.8000030517578125</ele>
        <time>2023-01-27T08:30:56.000Z</time>
      </trkpt>
      <trkpt lat="40.11168890632688999176025390625" lon="0.04397280514240264892578125">
        <ele>208.1999969482421875</ele>
        <time>2023-01-27T08:31:00.000Z</time>
      </trkpt>
      <trkpt lat="40.1116209290921688079833984375" lon="0.04391203634440898895263671875">
        <ele>208.399993896484375</ele>
        <time>2023-01-27T08:31:02.000Z</time>
      </trkpt>
      <trkpt lat="40.11155747808516025543212890625" lon="0.04384028725326061248779296875">
        <ele>209.399993896484375</ele>
        <time>2023-01-27T08:31:04.000Z</time>
      </trkpt>
      <trkpt lat="40.1115324161946773529052734375" lon="0.0438123755156993865966796875">
        <ele>209.8000030517578125</ele>
        <time>2023-01-27T08:31:05.000Z</time>
      </trkpt>
      <trkpt lat="40.11150668375194072723388671875" lon="0.04378882236778736114501953125">
        <ele>209.8000030517578125</ele>
        <time>2023-01-27T08:31:06.000Z</time>
      </trkpt>
      <trkpt lat="40.11148338206112384796142578125" lon="0.04376686178147792816162109375">
        <ele>210.1999969482421875</ele>
        <time>2023-01-27T08:31:07.000Z</time>
      </trkpt>
      <trkpt lat="40.11146360076963901519775390625" lon="0.04374372772872447967529296875">
        <ele>210.1999969482421875</ele>
        <time>2023-01-27T08:31:08.000Z</time>
      </trkpt>
      <trkpt lat="40.11144566349685192108154296875" lon="0.04371690563857555389404296875">
        <ele>210.399993896484375</ele>
        <time>2023-01-27T08:31:09.000Z</time>
      </trkpt>
      <trkpt lat="40.11142470873892307281494140625" lon="0.0436936877667903900146484375">
        <ele>210.600006103515625</ele>
        <time>2023-01-27T08:31:10.000Z</time>
      </trkpt>
      <trkpt lat="40.11140056885778903961181640625" lon="0.0436742417514324188232421875">
        <ele>211</ele>
        <time>2023-01-27T08:31:11.000Z</time>
      </trkpt>
      <trkpt lat="40.11137760244309902191162109375" lon="0.04365052096545696258544921875">
        <ele>211.1999969482421875</ele>
        <time>2023-01-27T08:31:12.000Z</time>
      </trkpt>
      <trkpt lat="40.1113553903996944427490234375" lon="0.04362738691270351409912109375">
        <ele>211.600006103515625</ele>
        <time>2023-01-27T08:31:13.000Z</time>
      </trkpt>
      <trkpt lat="40.11133141815662384033203125" lon="0.04360509105026721954345703125">
        <ele>211.8000030517578125</ele>
        <time>2023-01-27T08:31:14.000Z</time>
      </trkpt>
      <trkpt lat="40.1113071106374263763427734375" lon="0.04358111880719661712646484375">
        <ele>212.399993896484375</ele>
        <time>2023-01-27T08:31:15.000Z</time>
      </trkpt>
      <trkpt lat="40.1112812943756580352783203125" lon="0.04355446435511112213134765625">
        <ele>212.600006103515625</ele>
        <time>2023-01-27T08:31:16.000Z</time>
      </trkpt>
      <trkpt lat="40.1112527959048748016357421875" lon="0.04352663643658161163330078125">
        <ele>213.1999969482421875</ele>
        <time>2023-01-27T08:31:17.000Z</time>
      </trkpt>
      <trkpt lat="40.1112206093966960906982421875" lon="0.0434958748519420623779296875">
        <ele>213.600006103515625</ele>
        <time>2023-01-27T08:31:18.000Z</time>
      </trkpt>
      <trkpt lat="40.11118766851723194122314453125" lon="0.04346963949501514434814453125">
        <ele>213.600006103515625</ele>
        <time>2023-01-27T08:31:19.000Z</time>
      </trkpt>
      <trkpt lat="40.1111542247235774993896484375" lon="0.0434408895671367645263671875">
        <ele>213.8000030517578125</ele>
        <time>2023-01-27T08:31:20.000Z</time>
      </trkpt>
      <trkpt lat="40.1111230440437793731689453125" lon="0.04340878687798976898193359375">
        <ele>214</ele>
        <time>2023-01-27T08:31:21.000Z</time>
      </trkpt>
      <trkpt lat="40.11109110899269580841064453125" lon="0.04338498227298259735107421875">
        <ele>214.1999969482421875</ele>
        <time>2023-01-27T08:31:22.000Z</time>
      </trkpt>
      <trkpt lat="40.111059509217739105224609375" lon="0.04336285404860973358154296875">
        <ele>214.399993896484375</ele>
        <time>2023-01-27T08:31:23.000Z</time>
      </trkpt>
      <trkpt lat="40.11102656833827495574951171875" lon="0.0433419831097126007080078125">
        <ele>214.8000030517578125</ele>
        <time>2023-01-27T08:31:24.000Z</time>
      </trkpt>
      <trkpt lat="40.110994465649127960205078125" lon="0.04332044161856174468994140625">
        <ele>214.8000030517578125</ele>
        <time>2023-01-27T08:31:25.000Z</time>
      </trkpt>
      <trkpt lat="40.1109597645699977874755859375" lon="0.04330267198383808135986328125">
        <ele>215.1999969482421875</ele>
        <time>2023-01-27T08:31:26.000Z</time>
      </trkpt>
      <trkpt lat="40.110925398766994476318359375" lon="0.04328540526330471038818359375">
        <ele>215.1999969482421875</ele>
        <time>2023-01-27T08:31:27.000Z</time>
      </trkpt>
      <trkpt lat="40.1108890213072299957275390625" lon="0.04327065311372280120849609375">
        <ele>215.8000030517578125</ele>
        <time>2023-01-27T08:31:28.000Z</time>
      </trkpt>
      <trkpt lat="40.1108548231422901153564453125" lon="0.0432581640779972076416015625">
        <ele>215.8000030517578125</ele>
        <time>2023-01-27T08:31:29.000Z</time>
      </trkpt>
      <trkpt lat="40.11082045733928680419921875" lon="0.04324718378484249114990234375">
        <ele>216.1999969482421875</ele>
        <time>2023-01-27T08:31:30.000Z</time>
      </trkpt>
      <trkpt lat="40.110787265002727508544921875" lon="0.04323544912040233612060546875">
        <ele>216.399993896484375</ele>
        <time>2023-01-27T08:31:31.000Z</time>
      </trkpt>
      <trkpt lat="40.11075248010456562042236328125" lon="0.04322656430304050445556640625">
        <ele>216.8000030517578125</ele>
        <time>2023-01-27T08:31:32.000Z</time>
      </trkpt>
      <trkpt lat="40.110720880329608917236328125" lon="0.0432159192860126495361328125">
        <ele>217.1999969482421875</ele>
        <time>2023-01-27T08:31:33.000Z</time>
      </trkpt>
      <trkpt lat="40.11068911291658878326416015625" lon="0.043205358088016510009765625">
        <ele>217.600006103515625</ele>
        <time>2023-01-27T08:31:34.000Z</time>
      </trkpt>
      <trkpt lat="40.11065223254263401031494140625" lon="0.0431974790990352630615234375">
        <ele>217.600006103515625</ele>
        <time>2023-01-27T08:31:35.000Z</time>
      </trkpt>
      <trkpt lat="40.11061602272093296051025390625" lon="0.0431894324719905853271484375">
        <ele>217.8000030517578125</ele>
        <time>2023-01-27T08:31:36.000Z</time>
      </trkpt>
      <trkpt lat="40.11058148927986621856689453125" lon="0.043180547654628753662109375">
        <ele>218</ele>
        <time>2023-01-27T08:31:37.000Z</time>
      </trkpt>
      <trkpt lat="40.11054796166718006134033203125" lon="0.0431763567030429840087890625">
        <ele>218.600006103515625</ele>
        <time>2023-01-27T08:31:38.000Z</time>
      </trkpt>
      <trkpt lat="40.110513009130954742431640625" lon="0.04317174665629863739013671875">
        <ele>219</ele>
        <time>2023-01-27T08:31:39.000Z</time>
      </trkpt>
      <trkpt lat="40.1104752905666828155517578125" lon="0.0431636162102222442626953125">
        <ele>219</ele>
        <time>2023-01-27T08:31:40.000Z</time>
      </trkpt>
      <trkpt lat="40.11043690145015716552734375" lon="0.04315481521189212799072265625">
        <ele>219.399993896484375</ele>
        <time>2023-01-27T08:31:41.000Z</time>
      </trkpt>
      <trkpt lat="40.1103975065052509307861328125" lon="0.043148696422576904296875">
        <ele>219.399993896484375</ele>
        <time>2023-01-27T08:31:42.000Z</time>
      </trkpt>
      <trkpt lat="40.1103572733700275421142578125" lon="0.04314341582357883453369140625">
        <ele>219.600006103515625</ele>
        <time>2023-01-27T08:31:43.000Z</time>
      </trkpt>
      <trkpt lat="40.1103183813393115997314453125" lon="0.04313595592975616455078125">
        <ele>219.600006103515625</ele>
        <time>2023-01-27T08:31:44.000Z</time>
      </trkpt>
      <trkpt lat="40.110282003879547119140625" lon="0.0431264005601406097412109375">
        <ele>220</ele>
        <time>2023-01-27T08:31:45.000Z</time>
      </trkpt>
      <trkpt lat="40.11024688370525836944580078125" lon="0.0431139953434467315673828125">
        <ele>220</ele>
        <time>2023-01-27T08:31:46.000Z</time>
      </trkpt>
      <trkpt lat="40.11021285317838191986083984375" lon="0.043100751936435699462890625">
        <ele>220</ele>
        <time>2023-01-27T08:31:47.000Z</time>
      </trkpt>
      <trkpt lat="40.11017882265150547027587890625" lon="0.0430881790816783905029296875">
        <ele>220.1999969482421875</ele>
        <time>2023-01-27T08:31:48.000Z</time>
      </trkpt>
      <trkpt lat="40.11014454066753387451171875" lon="0.04307753406465053558349609375">
        <ele>220.399993896484375</ele>
        <time>2023-01-27T08:31:49.000Z</time>
      </trkpt>
      <trkpt lat="40.11011126451194286346435546875" lon="0.0430642068386077880859375">
        <ele>220.8000030517578125</ele>
        <time>2023-01-27T08:31:50.000Z</time>
      </trkpt>
      <trkpt lat="40.11007857508957386016845703125" lon="0.04305155016481876373291015625">
        <ele>221.1999969482421875</ele>
        <time>2023-01-27T08:31:51.000Z</time>
      </trkpt>
      <trkpt lat="40.11004420928657054901123046875" lon="0.0430395640432834625244140625">
        <ele>221.399993896484375</ele>
        <time>2023-01-27T08:31:52.000Z</time>
      </trkpt>
      <trkpt lat="40.1100097596645355224609375" lon="0.0430295057594776153564453125">
        <ele>221.8000030517578125</ele>
        <time>2023-01-27T08:31:53.000Z</time>
      </trkpt>
      <trkpt lat="40.1099767349660396575927734375" lon="0.04301852546632289886474609375">
        <ele>221.8000030517578125</ele>
        <time>2023-01-27T08:31:54.000Z</time>
      </trkpt>
      <trkpt lat="40.10994496755301952362060546875" lon="0.0430025160312652587890625">
        <ele>222.1999969482421875</ele>
        <time>2023-01-27T08:31:55.000Z</time>
      </trkpt>
      <trkpt lat="40.1099123619496822357177734375" lon="0.04298952408134937286376953125">
        <ele>222.600006103515625</ele>
        <time>2023-01-27T08:31:56.000Z</time>
      </trkpt>
      <trkpt lat="40.10987841524183750152587890625" lon="0.04298231564462184906005859375">
        <ele>223</ele>
        <time>2023-01-27T08:31:57.000Z</time>
      </trkpt>
      <trkpt lat="40.10984413325786590576171875" lon="0.0429772026836872100830078125">
        <ele>223</ele>
        <time>2023-01-27T08:31:58.000Z</time>
      </trkpt>
      <trkpt lat="40.10981136001646518707275390625" lon="0.0429715029895305633544921875">
        <ele>223.399993896484375</ele>
        <time>2023-01-27T08:31:59.000Z</time>
      </trkpt>
      <trkpt lat="40.10977841913700103759765625" lon="0.04296354018151760101318359375">
        <ele>223.399993896484375</ele>
        <time>2023-01-27T08:32:00.000Z</time>
      </trkpt>
      <trkpt lat="40.10974497534334659576416015625" lon="0.04295499064028263092041015625">
        <ele>223.600006103515625</ele>
        <time>2023-01-27T08:32:01.000Z</time>
      </trkpt>
      <trkpt lat="40.10971211828291416168212890625" lon="0.0429433397948741912841796875">
        <ele>223.8000030517578125</ele>
        <time>2023-01-27T08:32:02.000Z</time>
      </trkpt>
      <trkpt lat="40.1096833683550357818603515625" lon="0.04292615689337253570556640625">
        <ele>224</ele>
        <time>2023-01-27T08:32:03.000Z</time>
      </trkpt>
      <trkpt lat="40.1096572168171405792236328125" lon="0.04290436394512653350830078125">
        <ele>224.8000030517578125</ele>
        <time>2023-01-27T08:32:04.000Z</time>
      </trkpt>
      <trkpt lat="40.109627880156040191650390625" lon="0.04288391210138797760009765625">
        <ele>225</ele>
        <time>2023-01-27T08:32:05.000Z</time>
      </trkpt>
      <trkpt lat="40.10959812439978122711181640625" lon="0.04286010749638080596923828125">
        <ele>225.399993896484375</ele>
        <time>2023-01-27T08:32:06.000Z</time>
      </trkpt>
      <trkpt lat="40.10956727899610996246337890625" lon="0.04283596761524677276611328125">
        <ele>225.600006103515625</ele>
        <time>2023-01-27T08:32:07.000Z</time>
      </trkpt>
      <trkpt lat="40.1095334999263286590576171875" lon="0.04280797205865383148193359375">
        <ele>226</ele>
        <time>2023-01-27T08:32:08.000Z</time>
      </trkpt>
      <trkpt lat="40.10949536226689815521240234375" lon="0.04277327097952365875244140625">
        <ele>226</ele>
        <time>2023-01-27T08:32:09.000Z</time>
      </trkpt>
      <trkpt lat="40.1094567216932773590087890625" lon="0.04273119382560253143310546875">
        <ele>226.1999969482421875</ele>
        <time>2023-01-27T08:32:10.000Z</time>
      </trkpt>
      <trkpt lat="40.10941841639578342437744140625" lon="0.042685009539127349853515625">
        <ele>226.1999969482421875</ele>
        <time>2023-01-27T08:32:11.000Z</time>
      </trkpt>
      <trkpt lat="40.10938203893601894378662109375" lon="0.0426402501761913299560546875">
        <ele>226.1999969482421875</ele>
        <time>2023-01-27T08:32:12.000Z</time>
      </trkpt>
      <trkpt lat="40.10934700258076190948486328125" lon="0.0425956584513187408447265625">
        <ele>226.1999969482421875</ele>
        <time>2023-01-27T08:32:13.000Z</time>
      </trkpt>
      <trkpt lat="40.10931364260613918304443359375" lon="0.0425520725548267364501953125">
        <ele>226.1999969482421875</ele>
        <time>2023-01-27T08:32:14.000Z</time>
      </trkpt>
      <trkpt lat="40.1092833839356899261474609375" lon="0.0425041280686855316162109375">
        <ele>226.1999969482421875</ele>
        <time>2023-01-27T08:32:15.000Z</time>
      </trkpt>
      <trkpt lat="40.1092515327036380767822265625" lon="0.04245827905833721160888671875">
        <ele>226</ele>
        <time>2023-01-27T08:32:16.000Z</time>
      </trkpt>
      <trkpt lat="40.1092196814715862274169921875" lon="0.0424162857234477996826171875">
        <ele>226</ele>
        <time>2023-01-27T08:32:17.000Z</time>
      </trkpt>
      <trkpt lat="40.109190009534358978271484375" lon="0.04237462766468524932861328125">
        <ele>226.1999969482421875</ele>
        <time>2023-01-27T08:32:18.000Z</time>
      </trkpt>
      <trkpt lat="40.10916276834905147552490234375" lon="0.0423398427665233612060546875">
        <ele>226.1999969482421875</ele>
        <time>2023-01-27T08:32:19.000Z</time>
      </trkpt>
      <trkpt lat="40.109135694801807403564453125" lon="0.0423066504299640655517578125">
        <ele>226.1999969482421875</ele>
        <time>2023-01-27T08:32:20.000Z</time>
      </trkpt>
      <trkpt lat="40.10910518467426300048828125" lon="0.042270608246326446533203125">
        <ele>226.1999969482421875</ele>
        <time>2023-01-27T08:32:21.000Z</time>
      </trkpt>
      <trkpt lat="40.109068639576435089111328125" lon="0.04222869873046875">
        <ele>226</ele>
        <time>2023-01-27T08:32:22.000Z</time>
      </trkpt>
      <trkpt lat="40.1090292446315288543701171875" lon="0.04218502901494503021240234375">
        <ele>226.399993896484375</ele>
        <time>2023-01-27T08:32:23.000Z</time>
      </trkpt>
      <trkpt lat="40.10899563319981098175048828125" lon="0.04215401597321033477783203125">
        <ele>226.600006103515625</ele>
        <time>2023-01-27T08:32:24.000Z</time>
      </trkpt>
      <trkpt lat="40.1089529693126678466796875" lon="0.0421182252466678619384765625">
        <ele>226.8000030517578125</ele>
        <time>2023-01-27T08:32:25.000Z</time>
      </trkpt>
      <trkpt lat="40.10890862904489040374755859375" lon="0.0420887209475040435791015625">
        <ele>226.8000030517578125</ele>
        <time>2023-01-27T08:32:26.000Z</time>
      </trkpt>
      <trkpt lat="40.10886378586292266845703125" lon="0.04205980338156223297119140625">
        <ele>227</ele>
        <time>2023-01-27T08:32:27.000Z</time>
      </trkpt>
      <trkpt lat="40.10881793685257434844970703125" lon="0.0420315563678741455078125">
        <ele>227</ele>
        <time>2023-01-27T08:32:28.000Z</time>
      </trkpt>
      <trkpt lat="40.1087727583944797515869140625" lon="0.0420045666396617889404296875">
        <ele>227.1999969482421875</ele>
        <time>2023-01-27T08:32:29.000Z</time>
      </trkpt>
      <trkpt lat="40.10873177088797092437744140625" lon="0.04197464324533939361572265625">
        <ele>227.1999969482421875</ele>
        <time>2023-01-27T08:32:30.000Z</time>
      </trkpt>
      <trkpt lat="40.1086805574595928192138671875" lon="0.04193357191979885101318359375">
        <ele>227.1999969482421875</ele>
        <time>2023-01-27T08:32:31.000Z</time>
      </trkpt>
      <trkpt lat="40.10863973759114742279052734375" lon="0.0418925844132900238037109375">
        <ele>227.1999969482421875</ele>
        <time>2023-01-27T08:32:32.000Z</time>
      </trkpt>
      <trkpt lat="40.1086088083684444427490234375" lon="0.04186048172414302825927734375">
        <ele>227.1999969482421875</ele>
        <time>2023-01-27T08:32:33.000Z</time>
      </trkpt>
      <trkpt lat="40.10856463573873043060302734375" lon="0.04181974567472934722900390625">
        <ele>227.1999969482421875</ele>
        <time>2023-01-27T08:32:34.000Z</time>
      </trkpt>
      <trkpt lat="40.1085300184786319732666015625" lon="0.04179242067039012908935546875">
        <ele>227.399993896484375</ele>
        <time>2023-01-27T08:32:35.000Z</time>
      </trkpt>
      <trkpt lat="40.10849623940885066986083984375" lon="0.0417713820934295654296875">
        <ele>227.399993896484375</ele>
        <time>2023-01-27T08:32:36.000Z</time>
      </trkpt>
      <trkpt lat="40.108461119234561920166015625" lon="0.04175403155386447906494140625">
        <ele>227.600006103515625</ele>
        <time>2023-01-27T08:32:37.000Z</time>
      </trkpt>
      <trkpt lat="40.1084284298121929168701171875" lon="0.04173642955720424652099609375">
        <ele>227.600006103515625</ele>
        <time>2023-01-27T08:32:38.000Z</time>
      </trkpt>
      <trkpt lat="40.1083979196846485137939453125" lon="0.04171715117990970611572265625">
        <ele>228.1999969482421875</ele>
        <time>2023-01-27T08:32:39.000Z</time>
      </trkpt>
      <trkpt lat="40.10837168432772159576416015625" lon="0.0417004711925983428955078125">
        <ele>228.600006103515625</ele>
        <time>2023-01-27T08:32:40.000Z</time>
      </trkpt>
      <trkpt lat="40.10834821499884128570556640625" lon="0.04168664105236530303955078125">
        <ele>228.8000030517578125</ele>
        <time>2023-01-27T08:32:41.000Z</time>
      </trkpt>
      <trkpt lat="40.10832189582288265228271484375" lon="0.0416770018637180328369140625">
        <ele>229</ele>
        <time>2023-01-27T08:32:42.000Z</time>
      </trkpt>
      <trkpt lat="40.10829272679984569549560546875" lon="0.04166870377957820892333984375">
        <ele>229.399993896484375</ele>
        <time>2023-01-27T08:32:43.000Z</time>
      </trkpt>
      <trkpt lat="40.10826154612004756927490234375" lon="0.04165797494351863861083984375">
        <ele>229.8000030517578125</ele>
        <time>2023-01-27T08:32:44.000Z</time>
      </trkpt>
      <trkpt lat="40.10823103599250316619873046875" lon="0.04164892248809337615966796875">
        <ele>230.1999969482421875</ele>
        <time>2023-01-27T08:32:45.000Z</time>
      </trkpt>
      <trkpt lat="40.10820304043591022491455078125" lon="0.0416384451091289520263671875">
        <ele>230.399993896484375</ele>
        <time>2023-01-27T08:32:46.000Z</time>
      </trkpt>
      <trkpt lat="40.10817554779350757598876953125" lon="0.04162319004535675048828125">
        <ele>230.600006103515625</ele>
        <time>2023-01-27T08:32:47.000Z</time>
      </trkpt>
      <trkpt lat="40.10814788751304149627685546875" lon="0.0416075997054576873779296875">
        <ele>230.600006103515625</ele>
        <time>2023-01-27T08:32:48.000Z</time>
      </trkpt>
      <trkpt lat="40.108121819794178009033203125" lon="0.0415962003171443939208984375">
        <ele>231</ele>
        <time>2023-01-27T08:32:49.000Z</time>
      </trkpt>
      <trkpt lat="40.1080955006182193756103515625" lon="0.0415764190256595611572265625">
        <ele>231.600006103515625</ele>
        <time>2023-01-27T08:32:50.000Z</time>
      </trkpt>
      <trkpt lat="40.108066834509372711181640625" lon="0.04155873320996761322021484375">
        <ele>231.600006103515625</ele>
        <time>2023-01-27T08:32:51.000Z</time>
      </trkpt>
      <trkpt lat="40.10803766548633575439453125" lon="0.041543729603290557861328125">
        <ele>231.8000030517578125</ele>
        <time>2023-01-27T08:32:52.000Z</time>
      </trkpt>
      <trkpt lat="40.1080093346536159515380859375" lon="0.0415273010730743408203125">
        <ele>232</ele>
        <time>2023-01-27T08:32:53.000Z</time>
      </trkpt>
      <trkpt lat="40.10798058472573757171630859375" lon="0.0415073521435260772705078125">
        <ele>232.1999969482421875</ele>
        <time>2023-01-27T08:32:54.000Z</time>
      </trkpt>
      <trkpt lat="40.10795426554977893829345703125" lon="0.04148681648075580596923828125">
        <ele>232.600006103515625</ele>
        <time>2023-01-27T08:32:55.000Z</time>
      </trkpt>
      <trkpt lat="40.10793699882924556732177734375" lon="0.04145781509578227996826171875">
        <ele>233</ele>
        <time>2023-01-27T08:32:56.000Z</time>
      </trkpt>
      <trkpt lat="40.10792191140353679656982421875" lon="0.04142831079661846160888671875">
        <ele>233</ele>
        <time>2023-01-27T08:32:57.000Z</time>
      </trkpt>
      <trkpt lat="40.1079064048826694488525390625" lon="0.04140115343034267425537109375">
        <ele>233.399993896484375</ele>
        <time>2023-01-27T08:32:58.000Z</time>
      </trkpt>
      <trkpt lat="40.10788905434310436248779296875" lon="0.041375420987606048583984375">
        <ele>233.399993896484375</ele>
        <time>2023-01-27T08:32:59.000Z</time>
      </trkpt>
      <trkpt lat="40.1078701950609683990478515625" lon="0.041350610554218292236328125">
        <ele>233.600006103515625</ele>
        <time>2023-01-27T08:33:00.000Z</time>
      </trkpt>
      <trkpt lat="40.1078520901501178741455078125" lon="0.04132680594921112060546875">
        <ele>233.8000030517578125</ele>
        <time>2023-01-27T08:33:01.000Z</time>
      </trkpt>
      <trkpt lat="40.10783423669636249542236328125" lon="0.04130224697291851043701171875">
        <ele>234.1999969482421875</ele>
        <time>2023-01-27T08:33:02.000Z</time>
      </trkpt>
      <trkpt lat="40.107818059623241424560546875" lon="0.04127374850213527679443359375">
        <ele>234.399993896484375</ele>
        <time>2023-01-27T08:33:03.000Z</time>
      </trkpt>
      <trkpt lat="40.107803642749786376953125" lon="0.04124608822166919708251953125">
        <ele>235</ele>
        <time>2023-01-27T08:33:04.000Z</time>
      </trkpt>
      <trkpt lat="40.10778528638184070587158203125" lon="0.041215158998966217041015625">
        <ele>235.1999969482421875</ele>
        <time>2023-01-27T08:33:05.000Z</time>
      </trkpt>
      <trkpt lat="40.10776382870972156524658203125" lon="0.04117920063436031341552734375">
        <ele>235.600006103515625</ele>
        <time>2023-01-27T08:33:06.000Z</time>
      </trkpt>
      <trkpt lat="40.107744298875331878662109375" lon="0.04114751704037189483642578125">
        <ele>236</ele>
        <time>2023-01-27T08:33:07.000Z</time>
      </trkpt>
      <trkpt lat="40.10772518813610076904296875" lon="0.04111616872251033782958984375">
        <ele>236.399993896484375</ele>
        <time>2023-01-27T08:33:08.000Z</time>
      </trkpt>
      <trkpt lat="40.1077045686542987823486328125" lon="0.04108414985239505767822265625">
        <ele>237</ele>
        <time>2023-01-27T08:33:09.000Z</time>
      </trkpt>
      <trkpt lat="40.107685625553131103515625" lon="0.04104978404939174652099609375">
        <ele>237</ele>
        <time>2023-01-27T08:33:10.000Z</time>
      </trkpt>
      <trkpt lat="40.107664167881011962890625" lon="0.0410188548266887664794921875">
        <ele>237.1999969482421875</ele>
        <time>2023-01-27T08:33:11.000Z</time>
      </trkpt>
      <trkpt lat="40.10763960890471935272216796875" lon="0.040991194546222686767578125">
        <ele>237.399993896484375</ele>
        <time>2023-01-27T08:33:12.000Z</time>
      </trkpt>
      <trkpt lat="40.10761513374745845794677734375" lon="0.04096336662769317626953125">
        <ele>237.600006103515625</ele>
        <time>2023-01-27T08:33:13.000Z</time>
      </trkpt>
      <trkpt lat="40.1075882278382778167724609375" lon="0.04093562252819538116455078125">
        <ele>237.8000030517578125</ele>
        <time>2023-01-27T08:33:14.000Z</time>
      </trkpt>
      <trkpt lat="40.107562243938446044921875" lon="0.0409125722944736480712890625">
        <ele>238.399993896484375</ele>
        <time>2023-01-27T08:33:15.000Z</time>
      </trkpt>
      <trkpt lat="40.1075359247624874114990234375" lon="0.040891282260417938232421875">
        <ele>238.600006103515625</ele>
        <time>2023-01-27T08:33:16.000Z</time>
      </trkpt>
      <trkpt lat="40.10750935412943363189697265625" lon="0.04087644629180431365966796875">
        <ele>238.8000030517578125</ele>
        <time>2023-01-27T08:33:17.000Z</time>
      </trkpt>
      <trkpt lat="40.1074849627912044525146484375" lon="0.04086186178028583526611328125">
        <ele>238.8000030517578125</ele>
        <time>2023-01-27T08:33:18.000Z</time>
      </trkpt>
      <trkpt lat="40.1074621640145778656005859375" lon="0.0408502109348773956298828125">
        <ele>239.1999969482421875</ele>
        <time>2023-01-27T08:33:19.000Z</time>
      </trkpt>
      <trkpt lat="40.10743592865765094757080078125" lon="0.040837638080120086669921875">
        <ele>239.1999969482421875</ele>
        <time>2023-01-27T08:33:20.000Z</time>
      </trkpt>
      <trkpt lat="40.10740675963461399078369140625" lon="0.040825903415679931640625">
        <ele>239.600006103515625</ele>
        <time>2023-01-27T08:33:21.000Z</time>
      </trkpt>
      <trkpt lat="40.10737792588770389556884765625" lon="0.04081408493220806121826171875">
        <ele>239.8000030517578125</ele>
        <time>2023-01-27T08:33:22.000Z</time>
      </trkpt>
      <trkpt lat="40.10735101997852325439453125" lon="0.0407977402210235595703125">
        <ele>240.1999969482421875</ele>
        <time>2023-01-27T08:33:23.000Z</time>
      </trkpt>
      <trkpt lat="40.1073270477354526519775390625" lon="0.04077670164406299591064453125">
        <ele>240.399993896484375</ele>
        <time>2023-01-27T08:33:24.000Z</time>
      </trkpt>
      <trkpt lat="40.10730382986366748809814453125" lon="0.04075423814356327056884765625">
        <ele>240.8000030517578125</ele>
        <time>2023-01-27T08:33:25.000Z</time>
      </trkpt>
      <trkpt lat="40.10727784596383571624755859375" lon="0.04073479212820529937744140625">
        <ele>241.1999969482421875</ele>
        <time>2023-01-27T08:33:26.000Z</time>
      </trkpt>
      <trkpt lat="40.10725219734013080596923828125" lon="0.04071819595992565155029296875">
        <ele>241.600006103515625</ele>
        <time>2023-01-27T08:33:27.000Z</time>
      </trkpt>
      <trkpt lat="40.107229314744472503662109375" lon="0.0406963191926479339599609375">
        <ele>241.600006103515625</ele>
        <time>2023-01-27T08:33:28.000Z</time>
      </trkpt>
      <trkpt lat="40.10720559395849704742431640625" lon="0.040676034986972808837890625">
        <ele>241.8000030517578125</ele>
        <time>2023-01-27T08:33:29.000Z</time>
      </trkpt>
      <trkpt lat="40.10717935860157012939453125" lon="0.04065625369548797607421875">
        <ele>242.600006103515625</ele>
        <time>2023-01-27T08:33:30.000Z</time>
      </trkpt>
      <trkpt lat="40.10715396143496036529541015625" lon="0.04063638858497142791748046875">
        <ele>242.8000030517578125</ele>
        <time>2023-01-27T08:33:31.000Z</time>
      </trkpt>
      <trkpt lat="40.1071263849735260009765625" lon="0.04061945714056491851806640625">
        <ele>243.399993896484375</ele>
        <time>2023-01-27T08:33:32.000Z</time>
      </trkpt>
      <trkpt lat="40.10710165835916996002197265625" lon="0.04060328006744384765625">
        <ele>243.8000030517578125</ele>
        <time>2023-01-27T08:33:33.000Z</time>
      </trkpt>
      <trkpt lat="40.107075758278369903564453125" lon="0.04058425314724445343017578125">
        <ele>244.1999969482421875</ele>
        <time>2023-01-27T08:33:34.000Z</time>
      </trkpt>
      <trkpt lat="40.1070501096546649932861328125" lon="0.0405643880367279052734375">
        <ele>244.399993896484375</ele>
        <time>2023-01-27T08:33:35.000Z</time>
      </trkpt>
      <trkpt lat="40.1070226170122623443603515625" lon="0.0405487976968288421630859375">
        <ele>244.8000030517578125</ele>
        <time>2023-01-27T08:33:36.000Z</time>
      </trkpt>
      <trkpt lat="40.10699487291276454925537109375" lon="0.04053496755659580230712890625">
        <ele>244.8000030517578125</ele>
        <time>2023-01-27T08:33:37.000Z</time>
      </trkpt>
      <trkpt lat="40.1069693081080913543701171875" lon="0.04051770083606243133544921875">
        <ele>245</ele>
        <time>2023-01-27T08:33:38.000Z</time>
      </trkpt>
      <trkpt lat="40.10694826953113079071044921875" lon="0.04049532115459442138671875">
        <ele>245</ele>
        <time>2023-01-27T08:33:39.000Z</time>
      </trkpt>
      <trkpt lat="40.10692832060158252716064453125" lon="0.04046774469316005706787109375">
        <ele>245.399993896484375</ele>
        <time>2023-01-27T08:33:40.000Z</time>
      </trkpt>
      <trkpt lat="40.1069102995097637176513671875" lon="0.04043656401336193084716796875">
        <ele>245.399993896484375</ele>
        <time>2023-01-27T08:33:41.000Z</time>
      </trkpt>
      <trkpt lat="40.10689244605600833892822265625" lon="0.0404089875519275665283203125">
        <ele>245.8000030517578125</ele>
        <time>2023-01-27T08:33:42.000Z</time>
      </trkpt>
      <trkpt lat="40.1068693958222866058349609375" lon="0.04038124345242977142333984375">
        <ele>246</ele>
        <time>2023-01-27T08:33:43.000Z</time>
      </trkpt>
      <trkpt lat="40.10685078799724578857421875" lon="0.04034302197396755218505859375">
        <ele>246.399993896484375</ele>
        <time>2023-01-27T08:33:44.000Z</time>
      </trkpt>
      <trkpt lat="40.106837041676044464111328125" lon="0.04030429758131504058837890625">
        <ele>246.600006103515625</ele>
        <time>2023-01-27T08:33:45.000Z</time>
      </trkpt>
      <trkpt lat="40.10682002641260623931884765625" lon="0.04027043469250202178955078125">
        <ele>247</ele>
        <time>2023-01-27T08:33:46.000Z</time>
      </trkpt>
      <trkpt lat="40.106798820197582244873046875" lon="0.04024646244943141937255859375">
        <ele>247.1999969482421875</ele>
        <time>2023-01-27T08:33:47.000Z</time>
      </trkpt>
      <trkpt lat="40.1067738421261310577392578125" lon="0.0402249209582805633544921875">
        <ele>247.399993896484375</ele>
        <time>2023-01-27T08:33:48.000Z</time>
      </trkpt>
      <trkpt lat="40.10675422847270965576171875" lon="0.040205307304859161376953125">
        <ele>247.600006103515625</ele>
        <time>2023-01-27T08:33:49.000Z</time>
      </trkpt>
      <trkpt lat="40.1067319326102733612060546875" lon="0.0401781499385833740234375">
        <ele>247.8000030517578125</ele>
        <time>2023-01-27T08:33:50.000Z</time>
      </trkpt>
      <trkpt lat="40.10671290569007396697998046875" lon="0.04015342332422733306884765625">
        <ele>248.1999969482421875</ele>
        <time>2023-01-27T08:33:51.000Z</time>
      </trkpt>
      <trkpt lat="40.106695555150508880615234375" lon="0.04012609831988811492919921875">
        <ele>248.1999969482421875</ele>
        <time>2023-01-27T08:33:52.000Z</time>
      </trkpt>
      <trkpt lat="40.106678791344165802001953125" lon="0.0401015393435955047607421875">
        <ele>248.8000030517578125</ele>
        <time>2023-01-27T08:33:53.000Z</time>
      </trkpt>
      <trkpt lat="40.1066623628139495849609375" lon="0.040073208510875701904296875">
        <ele>249.1999969482421875</ele>
        <time>2023-01-27T08:33:54.000Z</time>
      </trkpt>
      <trkpt lat="40.106642581522464752197265625" lon="0.04005250521004199981689453125">
        <ele>249.8000030517578125</ele>
        <time>2023-01-27T08:33:55.000Z</time>
      </trkpt>
      <trkpt lat="40.106619112193584442138671875" lon="0.04003423266112804412841796875">
        <ele>249.8000030517578125</ele>
        <time>2023-01-27T08:33:56.000Z</time>
      </trkpt>
      <trkpt lat="40.1065981574356555938720703125" lon="0.04001327790319919586181640625">
        <ele>250.399993896484375</ele>
        <time>2023-01-27T08:33:57.000Z</time>
      </trkpt>
      <trkpt lat="40.10657711885869503021240234375" lon="0.0399888865649700164794921875">
        <ele>250.600006103515625</ele>
        <time>2023-01-27T08:33:58.000Z</time>
      </trkpt>
      <trkpt lat="40.1065552420914173126220703125" lon="0.0399660877883434295654296875">
        <ele>251</ele>
        <time>2023-01-27T08:33:59.000Z</time>
      </trkpt>
      <trkpt lat="40.10653554461896419525146484375" lon="0.0399426184594631195068359375">
        <ele>251.1999969482421875</ele>
        <time>2023-01-27T08:34:00.000Z</time>
      </trkpt>
      <trkpt lat="40.10651324875652790069580078125" lon="0.03992132842540740966796875">
        <ele>251.399993896484375</ele>
        <time>2023-01-27T08:34:01.000Z</time>
      </trkpt>
      <trkpt lat="40.106491036713123321533203125" lon="0.03989852964878082275390625">
        <ele>251.600006103515625</ele>
        <time>2023-01-27T08:34:02.000Z</time>
      </trkpt>
      <trkpt lat="40.10647284798324108123779296875" lon="0.0398785807192325592041015625">
        <ele>251.8000030517578125</ele>
        <time>2023-01-27T08:34:03.000Z</time>
      </trkpt>
      <trkpt lat="40.1064519770443439483642578125" lon="0.0398576259613037109375">
        <ele>252</ele>
        <time>2023-01-27T08:34:04.000Z</time>
      </trkpt>
      <trkpt lat="40.1064285077154636383056640625" lon="0.03983147442340850830078125">
        <ele>252.1999969482421875</ele>
        <time>2023-01-27T08:34:05.000Z</time>
      </trkpt>
      <trkpt lat="40.1064073853194713592529296875" lon="0.03980934619903564453125">
        <ele>252.399993896484375</ele>
        <time>2023-01-27T08:34:06.000Z</time>
      </trkpt>
      <trkpt lat="40.106387771666049957275390625" lon="0.03978964872658252716064453125">
        <ele>252.600006103515625</ele>
        <time>2023-01-27T08:34:07.000Z</time>
      </trkpt>
      <trkpt lat="40.1063741929829120635986328125" lon="0.0397758185863494873046875">
        <ele>252.8000030517578125</ele>
        <time>2023-01-27T08:34:08.000Z</time>
      </trkpt>
      <trkpt lat="40.10635466314852237701416015625" lon="0.03975176252424716949462890625">
        <ele>253</ele>
        <time>2023-01-27T08:34:09.000Z</time>
      </trkpt>
      <trkpt lat="40.10633856989443302154541015625" lon="0.03973198123276233673095703125">
        <ele>253.1999969482421875</ele>
        <time>2023-01-27T08:34:10.000Z</time>
      </trkpt>
      <trkpt lat="40.10632130317389965057373046875" lon="0.0397166423499584197998046875">
        <ele>253.399993896484375</ele>
        <time>2023-01-27T08:34:11.000Z</time>
      </trkpt>
      <trkpt lat="40.10630336590111255645751953125" lon="0.03969862125813961029052734375">
        <ele>254</ele>
        <time>2023-01-27T08:34:12.000Z</time>
      </trkpt>
      <trkpt lat="40.10628693737089633941650390625" lon="0.03968168981373310089111328125">
        <ele>254.1999969482421875</ele>
        <time>2023-01-27T08:34:13.000Z</time>
      </trkpt>
      <trkpt lat="40.10626480914652347564697265625" lon="0.0396569631993770599365234375">
        <ele>254.399993896484375</ele>
        <time>2023-01-27T08:34:14.000Z</time>
      </trkpt>
      <trkpt lat="40.10624670423567295074462890625" lon="0.03963424824178218841552734375">
        <ele>254.600006103515625</ele>
        <time>2023-01-27T08:34:15.000Z</time>
      </trkpt>
      <trkpt lat="40.10622926987707614898681640625" lon="0.0396153889596462249755859375">
        <ele>255</ele>
        <time>2023-01-27T08:34:16.000Z</time>
      </trkpt>
      <trkpt lat="40.1062139309942722320556640625" lon="0.03959820605814456939697265625">
        <ele>255.399993896484375</ele>
        <time>2023-01-27T08:34:17.000Z</time>
      </trkpt>
      <trkpt lat="40.10620169341564178466796875" lon="0.039581693708896636962890625">
        <ele>255.8000030517578125</ele>
        <time>2023-01-27T08:34:18.000Z</time>
      </trkpt>
      <trkpt lat="40.10617897845804691314697265625" lon="0.03955763764679431915283203125">
        <ele>256</ele>
        <time>2023-01-27T08:34:19.000Z</time>
      </trkpt>
      <trkpt lat="40.106157772243022918701171875" lon="0.039539448916912078857421875">
        <ele>256.20001220703125</ele>
        <time>2023-01-27T08:34:20.000Z</time>
      </trkpt>
      <trkpt lat="40.10613589547574520111083984375" lon="0.03952712751924991607666015625">
        <ele>256.600006103515625</ele>
        <time>2023-01-27T08:34:21.000Z</time>
      </trkpt>
      <trkpt lat="40.106113515794277191162109375" lon="0.03951539285480976104736328125">
        <ele>256.79998779296875</ele>
        <time>2023-01-27T08:34:22.000Z</time>
      </trkpt>
      <trkpt lat="40.1060928963124752044677734375" lon="0.03950550220906734466552734375">
        <ele>257</ele>
        <time>2023-01-27T08:34:23.000Z</time>
      </trkpt>
      <trkpt lat="40.1060724444687366485595703125" lon="0.03948957659304141998291015625">
        <ele>257.399993896484375</ele>
        <time>2023-01-27T08:34:24.000Z</time>
      </trkpt>
      <trkpt lat="40.10604889132082462310791015625" lon="0.0394715555012226104736328125">
        <ele>257.600006103515625</ele>
        <time>2023-01-27T08:34:25.000Z</time>
      </trkpt>
      <trkpt lat="40.10602542199194431304931640625" lon="0.03945722244679927825927734375">
        <ele>258</ele>
        <time>2023-01-27T08:34:26.000Z</time>
      </trkpt>
      <trkpt lat="40.1060020364820957183837890625" lon="0.03944129683077335357666015625">
        <ele>258.20001220703125</ele>
        <time>2023-01-27T08:34:27.000Z</time>
      </trkpt>
      <trkpt lat="40.10598166845738887786865234375" lon="0.039427466690540313720703125">
        <ele>258.399993896484375</ele>
        <time>2023-01-27T08:34:28.000Z</time>
      </trkpt>
      <trkpt lat="40.10595853440463542938232421875" lon="0.03941363655030727386474609375">
        <ele>258.79998779296875</ele>
        <time>2023-01-27T08:34:29.000Z</time>
      </trkpt>
      <trkpt lat="40.105934478342533111572265625" lon="0.0393976271152496337890625">
        <ele>259.600006103515625</ele>
        <time>2023-01-27T08:34:30.000Z</time>
      </trkpt>
      <trkpt lat="40.10591628961265087127685546875" lon="0.039383210241794586181640625">
        <ele>259.79998779296875</ele>
        <time>2023-01-27T08:34:31.000Z</time>
      </trkpt>
      <trkpt lat="40.10589851997792720794677734375" lon="0.03936837427318096160888671875">
        <ele>260</ele>
        <time>2023-01-27T08:34:32.000Z</time>
      </trkpt>
      <trkpt lat="40.10588393546640872955322265625" lon="0.03935613669455051422119140625">
        <ele>260.600006103515625</ele>
        <time>2023-01-27T08:34:33.000Z</time>
      </trkpt>
      <trkpt lat="40.10586105287075042724609375" lon="0.03934322856366634368896484375">
        <ele>261</ele>
        <time>2023-01-27T08:34:34.000Z</time>
      </trkpt>
      <trkpt lat="40.10583959519863128662109375" lon="0.03933132626116275787353515625">
        <ele>261.20001220703125</ele>
        <time>2023-01-27T08:34:35.000Z</time>
      </trkpt>
      <trkpt lat="40.105815120041370391845703125" lon="0.0393163226544857025146484375">
        <ele>261.399993896484375</ele>
        <time>2023-01-27T08:34:36.000Z</time>
      </trkpt>
      <trkpt lat="40.1057986915111541748046875" lon="0.039304085075855255126953125">
        <ele>262.20001220703125</ele>
        <time>2023-01-27T08:34:37.000Z</time>
      </trkpt>
      <trkpt lat="40.10577899403870105743408203125" lon="0.03928472287952899932861328125">
        <ele>262.600006103515625</ele>
        <time>2023-01-27T08:34:38.000Z</time>
      </trkpt>
      <trkpt lat="40.10575803928077220916748046875" lon="0.03926192410290241241455078125">
        <ele>263.20001220703125</ele>
        <time>2023-01-27T08:34:39.000Z</time>
      </trkpt>
      <trkpt lat="40.10573272593319416046142578125" lon="0.03924272954463958740234375">
        <ele>263.399993896484375</ele>
        <time>2023-01-27T08:34:40.000Z</time>
      </trkpt>
      <trkpt lat="40.1057096756994724273681640625" lon="0.03922705538570880889892578125">
        <ele>264</ele>
        <time>2023-01-27T08:34:41.000Z</time>
      </trkpt>
      <trkpt lat="40.1056838594377040863037109375" lon="0.03920727409422397613525390625">
        <ele>264.20001220703125</ele>
        <time>2023-01-27T08:34:42.000Z</time>
      </trkpt>
      <trkpt lat="40.1056630723178386688232421875" lon="0.03919051028788089752197265625">
        <ele>264.600006103515625</ele>
        <time>2023-01-27T08:34:43.000Z</time>
      </trkpt>
      <trkpt lat="40.1056350767612457275390625" lon="0.039168633520603179931640625">
        <ele>264.600006103515625</ele>
        <time>2023-01-27T08:34:44.000Z</time>
      </trkpt>
      <trkpt lat="40.10561185888946056365966796875" lon="0.03915346227586269378662109375">
        <ele>265.20001220703125</ele>
        <time>2023-01-27T08:34:45.000Z</time>
      </trkpt>
      <trkpt lat="40.105593502521514892578125" lon="0.0391329266130924224853515625">
        <ele>265.600006103515625</ele>
        <time>2023-01-27T08:34:46.000Z</time>
      </trkpt>
      <trkpt lat="40.10557472705841064453125" lon="0.03910719417035579681396484375">
        <ele>266</ele>
        <time>2023-01-27T08:34:47.000Z</time>
      </trkpt>
      <trkpt lat="40.105554945766925811767578125" lon="0.039087831974029541015625">
        <ele>266.399993896484375</ele>
        <time>2023-01-27T08:34:48.000Z</time>
      </trkpt>
      <trkpt lat="40.10553273372352123260498046875" lon="0.03905757330358028411865234375">
        <ele>267</ele>
        <time>2023-01-27T08:34:49.000Z</time>
      </trkpt>
      <trkpt lat="40.1055145449936389923095703125" lon="0.039033181965351104736328125">
        <ele>267</ele>
        <time>2023-01-27T08:34:50.000Z</time>
      </trkpt>
      <trkpt lat="40.1054977811872959136962890625" lon="0.03900677897036075592041015625">
        <ele>267.399993896484375</ele>
        <time>2023-01-27T08:34:51.000Z</time>
      </trkpt>
      <trkpt lat="40.10547607205808162689208984375" lon="0.0389837287366390228271484375">
        <ele>267.399993896484375</ele>
        <time>2023-01-27T08:34:52.000Z</time>
      </trkpt>
      <trkpt lat="40.1054578833281993865966796875" lon="0.03896285779774188995361328125">
        <ele>268</ele>
        <time>2023-01-27T08:34:53.000Z</time>
      </trkpt>
      <trkpt lat="40.10543189942836761474609375" lon="0.03893720917403697967529296875">
        <ele>268</ele>
        <time>2023-01-27T08:34:54.000Z</time>
      </trkpt>
      <trkpt lat="40.10541069321334362030029296875" lon="0.03891105763614177703857421875">
        <ele>268.399993896484375</ele>
        <time>2023-01-27T08:34:55.000Z</time>
      </trkpt>
      <trkpt lat="40.10539409704506397247314453125" lon="0.0388885103166103363037109375">
        <ele>268.600006103515625</ele>
        <time>2023-01-27T08:34:56.000Z</time>
      </trkpt>
      <trkpt lat="40.10537079535424709320068359375" lon="0.03886126913130283355712890625">
        <ele>268.79998779296875</ele>
        <time>2023-01-27T08:34:57.000Z</time>
      </trkpt>
      <trkpt lat="40.10534464381635189056396484375" lon="0.03884081728756427764892578125">
        <ele>268.79998779296875</ele>
        <time>2023-01-27T08:34:58.000Z</time>
      </trkpt>
      <trkpt lat="40.10532729327678680419921875" lon="0.03880678676068782806396484375">
        <ele>269</ele>
        <time>2023-01-27T08:34:59.000Z</time>
      </trkpt>
      <trkpt lat="40.1053073443472385406494140625" lon="0.0387805514037609100341796875">
        <ele>269.399993896484375</ele>
        <time>2023-01-27T08:35:00.000Z</time>
      </trkpt>
      <trkpt lat="40.1052825339138507843017578125" lon="0.03874710761010646820068359375">
        <ele>269.399993896484375</ele>
        <time>2023-01-27T08:35:01.000Z</time>
      </trkpt>
      <trkpt lat="40.10526183061301708221435546875" lon="0.0387218780815601348876953125">
        <ele>269.600006103515625</ele>
        <time>2023-01-27T08:35:02.000Z</time>
      </trkpt>
      <trkpt lat="40.105229057371616363525390625" lon="0.03869731910526752471923828125">
        <ele>270</ele>
        <time>2023-01-27T08:35:03.000Z</time>
      </trkpt>
      <trkpt lat="40.105201564729213714599609375" lon="0.0386806391179561614990234375">
        <ele>270.399993896484375</ele>
        <time>2023-01-27T08:35:04.000Z</time>
      </trkpt>
      <trkpt lat="40.1051732338964939117431640625" lon="0.0386600196361541748046875">
        <ele>270.600006103515625</ele>
        <time>2023-01-27T08:35:05.000Z</time>
      </trkpt>
      <trkpt lat="40.10515026748180389404296875" lon="0.0386363826692104339599609375">
        <ele>270.79998779296875</ele>
        <time>2023-01-27T08:35:06.000Z</time>
      </trkpt>
      <trkpt lat="40.10512772016227245330810546875" lon="0.03860914148390293121337890625">
        <ele>271</ele>
        <time>2023-01-27T08:35:07.000Z</time>
      </trkpt>
      <trkpt lat="40.10510265827178955078125" lon="0.03857712261378765106201171875">
        <ele>271.20001220703125</ele>
        <time>2023-01-27T08:35:08.000Z</time>
      </trkpt>
      <trkpt lat="40.10508161969482898712158203125" lon="0.03855071961879730224609375">
        <ele>271.20001220703125</ele>
        <time>2023-01-27T08:35:09.000Z</time>
      </trkpt>
      <trkpt lat="40.1050669513642787933349609375" lon="0.03851911984384059906005859375">
        <ele>271.600006103515625</ele>
        <time>2023-01-27T08:35:10.000Z</time>
      </trkpt>
      <trkpt lat="40.105052702128887176513671875" lon="0.03847754560410976409912109375">
        <ele>271.79998779296875</ele>
        <time>2023-01-27T08:35:11.000Z</time>
      </trkpt>
      <trkpt lat="40.10503753088414669036865234375" lon="0.0384560041129589080810546875">
        <ele>272</ele>
        <time>2023-01-27T08:35:12.000Z</time>
      </trkpt>
      <trkpt lat="40.1050153188407421112060546875" lon="0.038427002727985382080078125">
        <ele>272.20001220703125</ele>
        <time>2023-01-27T08:35:13.000Z</time>
      </trkpt>
      <trkpt lat="40.10499964468181133270263671875" lon="0.03840059973299503326416015625">
        <ele>272.600006103515625</ele>
        <time>2023-01-27T08:35:14.000Z</time>
      </trkpt>
      <trkpt lat="40.10498791001737117767333984375" lon="0.038380734622478485107421875">
        <ele>272.79998779296875</ele>
        <time>2023-01-27T08:35:15.000Z</time>
      </trkpt>
      <trkpt lat="40.104970224201679229736328125" lon="0.0383524037897586822509765625">
        <ele>273.399993896484375</ele>
        <time>2023-01-27T08:35:16.000Z</time>
      </trkpt>
      <trkpt lat="40.104956813156604766845703125" lon="0.03833371214568614959716796875">
        <ele>273.600006103515625</ele>
        <time>2023-01-27T08:35:17.000Z</time>
      </trkpt>
      <trkpt lat="40.104938708245754241943359375" lon="0.03830395638942718505859375">
        <ele>274.20001220703125</ele>
        <time>2023-01-27T08:35:18.000Z</time>
      </trkpt>
      <trkpt lat="40.1049288176000118255615234375" lon="0.03828358836472034454345703125">
        <ele>274.600006103515625</ele>
        <time>2023-01-27T08:35:19.000Z</time>
      </trkpt>
      <trkpt lat="40.1049135625362396240234375" lon="0.03825073130428791046142578125">
        <ele>274.79998779296875</ele>
        <time>2023-01-27T08:35:20.000Z</time>
      </trkpt>
      <trkpt lat="40.10490409098565578460693359375" lon="0.03822742961347103118896484375">
        <ele>275.399993896484375</ele>
        <time>2023-01-27T08:35:21.000Z</time>
      </trkpt>
      <trkpt lat="40.1048882491886615753173828125" lon="0.03819574601948261260986328125">
        <ele>275.600006103515625</ele>
        <time>2023-01-27T08:35:22.000Z</time>
      </trkpt>
      <trkpt lat="40.1048761792480945587158203125" lon="0.0381680019199848175048828125">
        <ele>276</ele>
        <time>2023-01-27T08:35:23.000Z</time>
      </trkpt>
      <trkpt lat="40.10486385785043239593505859375" lon="0.03814327530562877655029296875">
        <ele>276</ele>
        <time>2023-01-27T08:35:24.000Z</time>
      </trkpt>
      <trkpt lat="40.10484307073056697845458984375" lon="0.03810823895037174224853515625">
        <ele>276.20001220703125</ele>
        <time>2023-01-27T08:35:25.000Z</time>
      </trkpt>
      <trkpt lat="40.10482362471520900726318359375" lon="0.0380747951567173004150390625">
        <ele>276.399993896484375</ele>
        <time>2023-01-27T08:35:26.000Z</time>
      </trkpt>
      <trkpt lat="40.1048067770898342132568359375" lon="0.038048811256885528564453125">
        <ele>276.600006103515625</ele>
        <time>2023-01-27T08:35:27.000Z</time>
      </trkpt>
      <trkpt lat="40.10478355921804904937744140625" lon="0.03801151178777217864990234375">
        <ele>276.79998779296875</ele>
        <time>2023-01-27T08:35:28.000Z</time>
      </trkpt>
      <trkpt lat="40.1047638617455959320068359375" lon="0.0379745475947856903076171875">
        <ele>276.79998779296875</ele>
        <time>2023-01-27T08:35:29.000Z</time>
      </trkpt>
      <trkpt lat="40.104745589196681976318359375" lon="0.0379437021911144256591796875">
        <ele>276.79998779296875</ele>
        <time>2023-01-27T08:35:30.000Z</time>
      </trkpt>
      <trkpt lat="40.10472237132489681243896484375" lon="0.03790556453168392181396484375">
        <ele>277.20001220703125</ele>
        <time>2023-01-27T08:35:31.000Z</time>
      </trkpt>
      <trkpt lat="40.10470259003341197967529296875" lon="0.03786818124353885650634765625">
        <ele>277.20001220703125</ele>
        <time>2023-01-27T08:35:32.000Z</time>
      </trkpt>
      <trkpt lat="40.1046827249228954315185546875" lon="0.0378260202705860137939453125">
        <ele>277.399993896484375</ele>
        <time>2023-01-27T08:35:33.000Z</time>
      </trkpt>
      <trkpt lat="40.10466470383107662200927734375" lon="0.03779157064855098724365234375">
        <ele>277.399993896484375</ele>
        <time>2023-01-27T08:35:34.000Z</time>
      </trkpt>
      <trkpt lat="40.10463939048349857330322265625" lon="0.037757456302642822265625">
        <ele>277.600006103515625</ele>
        <time>2023-01-27T08:35:35.000Z</time>
      </trkpt>
      <trkpt lat="40.10462212376296520233154296875" lon="0.037725269794464111328125">
        <ele>277.79998779296875</ele>
        <time>2023-01-27T08:35:36.000Z</time>
      </trkpt>
      <trkpt lat="40.10460301302373409271240234375" lon="0.0376919098198413848876953125">
        <ele>278</ele>
        <time>2023-01-27T08:35:37.000Z</time>
      </trkpt>
      <trkpt lat="40.10457971133291721343994140625" lon="0.03765762783586978912353515625">
        <ele>278</ele>
        <time>2023-01-27T08:35:38.000Z</time>
      </trkpt>
      <trkpt lat="40.1045606844127178192138671875" lon="0.037628374993801116943359375">
        <ele>278.20001220703125</ele>
        <time>2023-01-27T08:35:39.000Z</time>
      </trkpt>
      <trkpt lat="40.104542076587677001953125" lon="0.03759451210498809814453125">
        <ele>278.399993896484375</ele>
        <time>2023-01-27T08:35:40.000Z</time>
      </trkpt>
      <trkpt lat="40.1045273244380950927734375" lon="0.03756492398679256439208984375">
        <ele>278.600006103515625</ele>
        <time>2023-01-27T08:35:41.000Z</time>
      </trkpt>
      <trkpt lat="40.1045130752027034759521484375" lon="0.03752301447093486785888671875">
        <ele>279</ele>
        <time>2023-01-27T08:35:42.000Z</time>
      </trkpt>
      <trkpt lat="40.104504190385341644287109375" lon="0.037492252886295318603515625">
        <ele>279.20001220703125</ele>
        <time>2023-01-27T08:35:43.000Z</time>
      </trkpt>
      <trkpt lat="40.1044999994337558746337890625" lon="0.03744808025658130645751953125">
        <ele>279.600006103515625</ele>
        <time>2023-01-27T08:35:44.000Z</time>
      </trkpt>
      <trkpt lat="40.104492120444774627685546875" lon="0.03740499727427959442138671875">
        <ele>280</ele>
        <time>2023-01-27T08:35:45.000Z</time>
      </trkpt>
      <trkpt lat="40.10448642075061798095703125" lon="0.0373613275587558746337890625">
        <ele>280.399993896484375</ele>
        <time>2023-01-27T08:35:46.000Z</time>
      </trkpt>
      <trkpt lat="40.1044701598584651947021484375" lon="0.0373214296996593475341796875">
        <ele>280.399993896484375</ele>
        <time>2023-01-27T08:35:47.000Z</time>
      </trkpt>
      <trkpt lat="40.10445917956531047821044921875" lon="0.03727977164089679718017578125">
        <ele>280.600006103515625</ele>
        <time>2023-01-27T08:35:48.000Z</time>
      </trkpt>
      <trkpt lat="40.1044574193656444549560546875" lon="0.03722445107996463775634765625">
        <ele>280.600006103515625</ele>
        <time>2023-01-27T08:35:49.000Z</time>
      </trkpt>
      <trkpt lat="40.10445130057632923126220703125" lon="0.03717734478414058685302734375">
        <ele>280.79998779296875</ele>
        <time>2023-01-27T08:35:50.000Z</time>
      </trkpt>
      <trkpt lat="40.10444258339703083038330078125" lon="0.03713183104991912841796875">
        <ele>280.79998779296875</ele>
        <time>2023-01-27T08:35:51.000Z</time>
      </trkpt>
      <trkpt lat="40.10443068109452724456787109375" lon="0.03708916716277599334716796875">
        <ele>281.20001220703125</ele>
        <time>2023-01-27T08:35:52.000Z</time>
      </trkpt>
      <trkpt lat="40.10441509075462818145751953125" lon="0.0370458327233791351318359375">
        <ele>281.399993896484375</ele>
        <time>2023-01-27T08:35:53.000Z</time>
      </trkpt>
      <trkpt lat="40.10440369136631488800048828125" lon="0.0370009057223796844482421875">
        <ele>281.79998779296875</ele>
        <time>2023-01-27T08:35:54.000Z</time>
      </trkpt>
      <trkpt lat="40.1043896935880184173583984375" lon="0.0369714014232158660888671875">
        <ele>282</ele>
        <time>2023-01-27T08:35:55.000Z</time>
      </trkpt>
      <trkpt lat="40.104370750486850738525390625" lon="0.036931000649929046630859375">
        <ele>282.399993896484375</ele>
        <time>2023-01-27T08:35:56.000Z</time>
      </trkpt>
      <trkpt lat="40.10434803552925586700439453125" lon="0.03690761514008045196533203125">
        <ele>282.600006103515625</ele>
        <time>2023-01-27T08:35:57.000Z</time>
      </trkpt>
      <trkpt lat="40.104323811829090118408203125" lon="0.036880709230899810791015625">
        <ele>282.600006103515625</ele>
        <time>2023-01-27T08:35:58.000Z</time>
      </trkpt>
      <trkpt lat="40.104307048022747039794921875" lon="0.036843158304691314697265625">
        <ele>282.79998779296875</ele>
        <time>2023-01-27T08:35:59.000Z</time>
      </trkpt>
      <trkpt lat="40.1042874343693256378173828125" lon="0.0368238799273967742919921875">
        <ele>283.20001220703125</ele>
        <time>2023-01-27T08:36:00.000Z</time>
      </trkpt>
      <trkpt lat="40.1042626239359378814697265625" lon="0.0368138216435909271240234375">
        <ele>283.399993896484375</ele>
        <time>2023-01-27T08:36:01.000Z</time>
      </trkpt>
      <trkpt lat="40.1042223908007144927978515625" lon="0.03681642003357410430908203125">
        <ele>283.600006103515625</ele>
        <time>2023-01-27T08:36:02.000Z</time>
      </trkpt>
      <trkpt lat="40.10419431142508983612060546875" lon="0.0368128158152103424072265625">
        <ele>283.79998779296875</ele>
        <time>2023-01-27T08:36:03.000Z</time>
      </trkpt>
      <trkpt lat="40.1041593588888645172119140625" lon="0.03681558184325695037841796875">
        <ele>284</ele>
        <time>2023-01-27T08:36:04.000Z</time>
      </trkpt>
      <trkpt lat="40.10413262061774730682373046875" lon="0.03682061098515987396240234375">
        <ele>284.20001220703125</ele>
        <time>2023-01-27T08:36:05.000Z</time>
      </trkpt>
      <trkpt lat="40.10410244576632976531982421875" lon="0.03682832233607769012451171875">
        <ele>284.399993896484375</ele>
        <time>2023-01-27T08:36:06.000Z</time>
      </trkpt>
      <trkpt lat="40.10406590066850185394287109375" lon="0.03683838061988353729248046875">
        <ele>284.600006103515625</ele>
        <time>2023-01-27T08:36:07.000Z</time>
      </trkpt>
      <trkpt lat="40.104043185710906982421875" lon="0.03684793598949909210205078125">
        <ele>284.79998779296875</ele>
        <time>2023-01-27T08:36:08.000Z</time>
      </trkpt>
      <trkpt lat="40.1040104962885379791259765625" lon="0.03686235286295413970947265625">
        <ele>285</ele>
        <time>2023-01-27T08:36:09.000Z</time>
      </trkpt>
      <trkpt lat="40.10397202335298061370849609375" lon="0.03686838783323764801025390625">
        <ele>285.20001220703125</ele>
        <time>2023-01-27T08:36:10.000Z</time>
      </trkpt>
      <trkpt lat="40.1039340533316135406494140625" lon="0.03686453215777873992919921875">
        <ele>285.20001220703125</ele>
        <time>2023-01-27T08:36:11.000Z</time>
      </trkpt>
      <trkpt lat="40.10389826260507106781005859375" lon="0.03685288131237030029296875">
        <ele>285.399993896484375</ele>
        <time>2023-01-27T08:36:12.000Z</time>
      </trkpt>
      <trkpt lat="40.10384914465248584747314453125" lon="0.03684139810502529144287109375">
        <ele>285.399993896484375</ele>
        <time>2023-01-27T08:36:13.000Z</time>
      </trkpt>
      <trkpt lat="40.103818215429782867431640625" lon="0.03684072755277156829833984375">
        <ele>285.399993896484375</ele>
        <time>2023-01-27T08:36:14.000Z</time>
      </trkpt>
      <trkpt lat="40.10377588681876659393310546875" lon="0.03684072755277156829833984375">
        <ele>285.600006103515625</ele>
        <time>2023-01-27T08:36:15.000Z</time>
      </trkpt>
      <trkpt lat="40.103740431368350982666015625" lon="0.03684743307530879974365234375">
        <ele>285.79998779296875</ele>
        <time>2023-01-27T08:36:16.000Z</time>
      </trkpt>
      <trkpt lat="40.1037121005356311798095703125" lon="0.0368584133684635162353515625">
        <ele>285.79998779296875</ele>
        <time>2023-01-27T08:36:17.000Z</time>
      </trkpt>
      <trkpt lat="40.10368938557803630828857421875" lon="0.036864615976810455322265625">
        <ele>286</ele>
        <time>2023-01-27T08:36:18.000Z</time>
      </trkpt>
      <trkpt lat="40.1036708615720272064208984375" lon="0.03686822019517421722412109375">
        <ele>286.20001220703125</ele>
        <time>2023-01-27T08:36:19.000Z</time>
      </trkpt>
      <trkpt lat="40.10365334339439868927001953125" lon="0.0368765182793140411376953125">
        <ele>286.399993896484375</ele>
        <time>2023-01-27T08:36:20.000Z</time>
      </trkpt>
      <trkpt lat="40.10363725014030933380126953125" lon="0.036882050335407257080078125">
        <ele>286.600006103515625</ele>
        <time>2023-01-27T08:36:21.000Z</time>
      </trkpt>
      <trkpt lat="40.1036205701529979705810546875" lon="0.0368855707347393035888671875">
        <ele>286.79998779296875</ele>
        <time>2023-01-27T08:36:22.000Z</time>
      </trkpt>
      <trkpt lat="40.10361227206885814666748046875" lon="0.0368869118392467498779296875">
        <ele>287</ele>
        <time>2023-01-27T08:36:23.000Z</time>
      </trkpt>
      <trkpt lat="40.10361227206885814666748046875" lon="0.0368869118392467498779296875">
        <ele>287</ele>
        <time>2023-01-27T08:36:24.000Z</time>
      </trkpt>
      <trkpt lat="40.10361227206885814666748046875" lon="0.0368869118392467498779296875">
        <ele>287.20001220703125</ele>
        <time>2023-01-27T08:36:25.000Z</time>
      </trkpt>
      <trkpt lat="40.10361227206885814666748046875" lon="0.0368869118392467498779296875">
        <ele>287.399993896484375</ele>
        <time>2023-01-27T08:36:26.000Z</time>
      </trkpt>
      <trkpt lat="40.10361227206885814666748046875" lon="0.0368869118392467498779296875">
        <ele>288</ele>
        <time>2023-01-27T08:39:19.000Z</time>
      </trkpt>
      <trkpt lat="40.10361227206885814666748046875" lon="0.0368869118392467498779296875">
        <ele>288</ele>
        <time>2023-01-27T08:39:20.000Z</time>
      </trkpt>
      <trkpt lat="40.10361227206885814666748046875" lon="0.0368869118392467498779296875">
        <ele>288</ele>
        <time>2023-01-27T08:39:27.000Z</time>
      </trkpt>
      <trkpt lat="40.10361227206885814666748046875" lon="0.0368869118392467498779296875">
        <ele>287.79998779296875</ele>
        <time>2023-01-27T08:39:32.000Z</time>
      </trkpt>
      <trkpt lat="40.10360958985984325408935546875" lon="0.03689001314342021942138671875">
        <ele>287.79998779296875</ele>
        <time>2023-01-27T08:39:33.000Z</time>
      </trkpt>
      <trkpt lat="40.103589557111263275146484375" lon="0.0369060225784778594970703125">
        <ele>287.79998779296875</ele>
        <time>2023-01-27T08:39:34.000Z</time>
      </trkpt>
      <trkpt lat="40.10357488878071308135986328125" lon="0.0369160808622837066650390625">
        <ele>287.79998779296875</ele>
        <time>2023-01-27T08:39:35.000Z</time>
      </trkpt>
      <trkpt lat="40.10354924015700817108154296875" lon="0.03692773170769214630126953125">
        <ele>288</ele>
        <time>2023-01-27T08:39:36.000Z</time>
      </trkpt>
      <trkpt lat="40.10351990349590778350830078125" lon="0.0369408912956714630126953125">
        <ele>288</ele>
        <time>2023-01-27T08:39:37.000Z</time>
      </trkpt>
      <trkpt lat="40.10349559597671031951904296875" lon="0.03694835118949413299560546875">
        <ele>288</ele>
        <time>2023-01-27T08:39:38.000Z</time>
      </trkpt>
      <trkpt lat="40.1034210808575153350830078125" lon="0.036970563232898712158203125">
        <ele>288.79998779296875</ele>
        <time>2023-01-27T08:39:41.000Z</time>
      </trkpt>
      <trkpt lat="40.103374980390071868896484375" lon="0.0369610078632831573486328125">
        <ele>289.399993896484375</ele>
        <time>2023-01-27T08:39:43.000Z</time>
      </trkpt>
      <trkpt lat="40.10335729457437992095947265625" lon="0.03694902174174785614013671875">
        <ele>289.600006103515625</ele>
        <time>2023-01-27T08:39:44.000Z</time>
      </trkpt>
      <trkpt lat="40.1033446379005908966064453125" lon="0.03693762235343456268310546875">
        <ele>290</ele>
        <time>2023-01-27T08:39:45.000Z</time>
      </trkpt>
      <trkpt lat="40.103322677314281463623046875" lon="0.0369246304035186767578125">
        <ele>290</ele>
        <time>2023-01-27T08:39:46.000Z</time>
      </trkpt>
      <trkpt lat="40.103297866880893707275390625" lon="0.036914236843585968017578125">
        <ele>290.399993896484375</ele>
        <time>2023-01-27T08:39:47.000Z</time>
      </trkpt>
      <trkpt lat="40.103267692029476165771484375" lon="0.03690526820719242095947265625">
        <ele>290.79998779296875</ele>
        <time>2023-01-27T08:39:48.000Z</time>
      </trkpt>
      <trkpt lat="40.1032470725476741790771484375" lon="0.03689453937113285064697265625">
        <ele>291.20001220703125</ele>
        <time>2023-01-27T08:39:49.000Z</time>
      </trkpt>
      <trkpt lat="40.1032155565917491912841796875" lon="0.03688498400151729583740234375">
        <ele>291.399993896484375</ele>
        <time>2023-01-27T08:39:50.000Z</time>
      </trkpt>
      <trkpt lat="40.10319099761545658111572265625" lon="0.0368775241076946258544921875">
        <ele>291.79998779296875</ele>
        <time>2023-01-27T08:39:51.000Z</time>
      </trkpt>
      <trkpt lat="40.1031728088855743408203125" lon="0.03686436451971530914306640625">
        <ele>291.79998779296875</ele>
        <time>2023-01-27T08:39:52.000Z</time>
      </trkpt>
      <trkpt lat="40.10314992628991603851318359375" lon="0.03685313276946544647216796875">
        <ele>292</ele>
        <time>2023-01-27T08:39:53.000Z</time>
      </trkpt>
      <trkpt lat="40.10312075726687908172607421875" lon="0.03683234564960002899169921875">
        <ele>292.20001220703125</ele>
        <time>2023-01-27T08:39:54.000Z</time>
      </trkpt>
      <trkpt lat="40.10310734622180461883544921875" lon="0.0368108041584491729736328125">
        <ele>292.399993896484375</ele>
        <time>2023-01-27T08:39:55.000Z</time>
      </trkpt>
      <trkpt lat="40.10308337397873401641845703125" lon="0.03678909502923488616943359375">
        <ele>293.20001220703125</ele>
        <time>2023-01-27T08:39:56.000Z</time>
      </trkpt>
      <trkpt lat="40.10306887328624725341796875" lon="0.0367688946425914764404296875">
        <ele>293.600006103515625</ele>
        <time>2023-01-27T08:39:57.000Z</time>
      </trkpt>
      <trkpt lat="40.1030620001256465911865234375" lon="0.0367370434105396270751953125">
        <ele>294.20001220703125</ele>
        <time>2023-01-27T08:39:58.000Z</time>
      </trkpt>
      <trkpt lat="40.103047080338001251220703125" lon="0.03671868704259395599365234375">
        <ele>294.399993896484375</ele>
        <time>2023-01-27T08:39:59.000Z</time>
      </trkpt>
      <trkpt lat="40.1030388660728931427001953125" lon="0.03669974394142627716064453125">
        <ele>295</ele>
        <time>2023-01-27T08:40:00.000Z</time>
      </trkpt>
      <trkpt lat="40.10302335955202579498291015625" lon="0.03667451441287994384765625">
        <ele>295.20001220703125</ele>
        <time>2023-01-27T08:40:01.000Z</time>
      </trkpt>
      <trkpt lat="40.10301254689693450927734375" lon="0.03665314055979251861572265625">
        <ele>295.600006103515625</ele>
        <time>2023-01-27T08:40:02.000Z</time>
      </trkpt>
      <trkpt lat="40.1029996387660503387451171875" lon="0.036633946001529693603515625">
        <ele>295.79998779296875</ele>
        <time>2023-01-27T08:40:03.000Z</time>
      </trkpt>
      <trkpt lat="40.10298446752130985260009765625" lon="0.0366136617958545684814453125">
        <ele>296.20001220703125</ele>
        <time>2023-01-27T08:40:04.000Z</time>
      </trkpt>
      <trkpt lat="40.10296904481947422027587890625" lon="0.03659580834209918975830078125">
        <ele>296.399993896484375</ele>
        <time>2023-01-27T08:40:05.000Z</time>
      </trkpt>
      <trkpt lat="40.102949850261211395263671875" lon="0.0365814752876758575439453125">
        <ele>296.600006103515625</ele>
        <time>2023-01-27T08:40:06.000Z</time>
      </trkpt>
      <trkpt lat="40.10293115861713886260986328125" lon="0.03656831569969654083251953125">
        <ele>296.79998779296875</ele>
        <time>2023-01-27T08:40:07.000Z</time>
      </trkpt>
      <trkpt lat="40.10291070677340030670166015625" lon="0.03655171953141689300537109375">
        <ele>297</ele>
        <time>2023-01-27T08:40:08.000Z</time>
      </trkpt>
      <trkpt lat="40.10288941673934459686279296875" lon="0.03653411753475666046142578125">
        <ele>297.20001220703125</ele>
        <time>2023-01-27T08:40:09.000Z</time>
      </trkpt>
      <trkpt lat="40.10286661796271800994873046875" lon="0.03651785664260387420654296875">
        <ele>297.79998779296875</ele>
        <time>2023-01-27T08:40:10.000Z</time>
      </trkpt>
      <trkpt lat="40.10284415446221828460693359375" lon="0.0365023501217365264892578125">
        <ele>298</ele>
        <time>2023-01-27T08:40:11.000Z</time>
      </trkpt>
      <trkpt lat="40.10282353498041629791259765625" lon="0.03648516722023487091064453125">
        <ele>298.600006103515625</ele>
        <time>2023-01-27T08:40:12.000Z</time>
      </trkpt>
      <trkpt lat="40.102800987660884857177734375" lon="0.03646555356681346893310546875">
        <ele>298.79998779296875</ele>
        <time>2023-01-27T08:40:13.000Z</time>
      </trkpt>
      <trkpt lat="40.10278380475938320159912109375" lon="0.0364471971988677978515625">
        <ele>299.399993896484375</ele>
        <time>2023-01-27T08:40:14.000Z</time>
      </trkpt>
      <trkpt lat="40.10276519693434238433837890625" lon="0.0364235602319240570068359375">
        <ele>299.600006103515625</ele>
        <time>2023-01-27T08:40:15.000Z</time>
      </trkpt>
      <trkpt lat="40.102754049003124237060546875" lon="0.036394894123077392578125">
        <ele>299.79998779296875</ele>
        <time>2023-01-27T08:40:16.000Z</time>
      </trkpt>
      <trkpt lat="40.10275513865053653717041015625" lon="0.0363568402826786041259765625">
        <ele>300.20001220703125</ele>
        <time>2023-01-27T08:40:17.000Z</time>
      </trkpt>
      <trkpt lat="40.10276217944920063018798828125" lon="0.03632071428000926971435546875">
        <ele>300.20001220703125</ele>
        <time>2023-01-27T08:40:18.000Z</time>
      </trkpt>
      <trkpt lat="40.10277022607624530792236328125" lon="0.036292634904384613037109375">
        <ele>300.399993896484375</ele>
        <time>2023-01-27T08:40:19.000Z</time>
      </trkpt>
      <trkpt lat="40.10278045199811458587646484375" lon="0.0362586043775081634521484375">
        <ele>300.600006103515625</ele>
        <time>2023-01-27T08:40:20.000Z</time>
      </trkpt>
      <trkpt lat="40.10278916917741298675537109375" lon="0.03622985444962978363037109375">
        <ele>300.79998779296875</ele>
        <time>2023-01-27T08:40:21.000Z</time>
      </trkpt>
      <trkpt lat="40.10279688052833080291748046875" lon="0.03619951196014881134033203125">
        <ele>301</ele>
        <time>2023-01-27T08:40:22.000Z</time>
      </trkpt>
      <trkpt lat="40.10280509479343891143798828125" lon="0.03616967238485813140869140625">
        <ele>301.600006103515625</ele>
        <time>2023-01-27T08:40:23.000Z</time>
      </trkpt>
      <trkpt lat="40.10281138122081756591796875" lon="0.0361409224569797515869140625">
        <ele>301.79998779296875</ele>
        <time>2023-01-27T08:40:24.000Z</time>
      </trkpt>
      <trkpt lat="40.10281599126756191253662109375" lon="0.03611770458519458770751953125">
        <ele>302.20001220703125</ele>
        <time>2023-01-27T08:40:25.000Z</time>
      </trkpt>
      <trkpt lat="40.1028212718665599822998046875" lon="0.03609138540923595428466796875">
        <ele>302.399993896484375</ele>
        <time>2023-01-27T08:40:26.000Z</time>
      </trkpt>
      <trkpt lat="40.10282521136105060577392578125" lon="0.036069341003894805908203125">
        <ele>302.79998779296875</ele>
        <time>2023-01-27T08:40:27.000Z</time>
      </trkpt>
      <trkpt lat="40.1028309948742389678955078125" lon="0.0360389985144138336181640625">
        <ele>303</ele>
        <time>2023-01-27T08:40:28.000Z</time>
      </trkpt>
      <trkpt lat="40.1028356887400150299072265625" lon="0.03600656054913997650146484375">
        <ele>303.600006103515625</ele>
        <time>2023-01-27T08:40:29.000Z</time>
      </trkpt>
      <trkpt lat="40.1028353534638881683349609375" lon="0.03597714006900787353515625">
        <ele>303.79998779296875</ele>
        <time>2023-01-27T08:40:30.000Z</time>
      </trkpt>
      <trkpt lat="40.10283091105520725250244140625" lon="0.03594973124563694000244140625">
        <ele>304.600006103515625</ele>
        <time>2023-01-27T08:40:31.000Z</time>
      </trkpt>
      <trkpt lat="40.102820098400115966796875" lon="0.03592659719288349151611328125">
        <ele>305</ele>
        <time>2023-01-27T08:40:32.000Z</time>
      </trkpt>
      <trkpt lat="40.1028048433363437652587890625" lon="0.0359072349965572357177734375">
        <ele>305.399993896484375</ele>
        <time>2023-01-27T08:40:33.000Z</time>
      </trkpt>
      <trkpt lat="40.10278497822582721710205078125" lon="0.03589575178921222686767578125">
        <ele>305.600006103515625</ele>
        <time>2023-01-27T08:40:34.000Z</time>
      </trkpt>
      <trkpt lat="40.10276938788592815399169921875" lon="0.03588552586734294891357421875">
        <ele>306</ele>
        <time>2023-01-27T08:40:35.000Z</time>
      </trkpt>
      <trkpt lat="40.10274709202349185943603515625" lon="0.0358664989471435546875">
        <ele>306.20001220703125</ele>
        <time>2023-01-27T08:40:36.000Z</time>
      </trkpt>
      <trkpt lat="40.1027284003794193267822265625" lon="0.03585048951208591461181640625">
        <ele>306.399993896484375</ele>
        <time>2023-01-27T08:40:37.000Z</time>
      </trkpt>
      <trkpt lat="40.102712474763393402099609375" lon="0.03583439625799655914306640625">
        <ele>306.600006103515625</ele>
        <time>2023-01-27T08:40:38.000Z</time>
      </trkpt>
      <trkpt lat="40.10270015336573123931884765625" lon="0.035819895565509796142578125">
        <ele>306.79998779296875</ele>
        <time>2023-01-27T08:40:39.000Z</time>
      </trkpt>
      <trkpt lat="40.10268540121614933013916015625" lon="0.035798437893390655517578125">
        <ele>307.20001220703125</ele>
        <time>2023-01-27T08:40:40.000Z</time>
      </trkpt>
      <trkpt lat="40.10267634876072406768798828125" lon="0.03578326664865016937255859375">
        <ele>307.399993896484375</ele>
        <time>2023-01-27T08:40:41.000Z</time>
      </trkpt>
      <trkpt lat="40.10266863740980625152587890625" lon="0.03576650284230709075927734375">
        <ele>307.79998779296875</ele>
        <time>2023-01-27T08:40:42.000Z</time>
      </trkpt>
      <trkpt lat="40.10266176424920558929443359375" lon="0.03575325943529605865478515625">
        <ele>308</ele>
        <time>2023-01-27T08:40:43.000Z</time>
      </trkpt>
      <trkpt lat="40.10265447199344635009765625" lon="0.03573448397219181060791015625">
        <ele>308.399993896484375</ele>
        <time>2023-01-27T08:40:44.000Z</time>
      </trkpt>
      <trkpt lat="40.1026539690792560577392578125" lon="0.03571570850908756256103515625">
        <ele>308.79998779296875</ele>
        <time>2023-01-27T08:40:45.000Z</time>
      </trkpt>
      <trkpt lat="40.10265086777508258819580078125" lon="0.0357000343501567840576171875">
        <ele>309.20001220703125</ele>
        <time>2023-01-27T08:40:46.000Z</time>
      </trkpt>
      <trkpt lat="40.1026489399373531341552734375" lon="0.03568704240024089813232421875">
        <ele>309.399993896484375</ele>
        <time>2023-01-27T08:40:47.000Z</time>
      </trkpt>
      <trkpt lat="40.1026472635567188262939453125" lon="0.0356725417077541351318359375">
        <ele>310.20001220703125</ele>
        <time>2023-01-27T08:40:48.000Z</time>
      </trkpt>
      <trkpt lat="40.102646760642528533935546875" lon="0.0356532633304595947265625">
        <ele>310</ele>
        <time>2023-01-27T08:40:49.000Z</time>
      </trkpt>
      <trkpt lat="40.10264717973768711090087890625" lon="0.035634823143482208251953125">
        <ele>310.20001220703125</ele>
        <time>2023-01-27T08:40:50.000Z</time>
      </trkpt>
      <trkpt lat="40.10264986194670200347900390625" lon="0.03561395220458507537841796875">
        <ele>310.600006103515625</ele>
        <time>2023-01-27T08:40:51.000Z</time>
      </trkpt>
      <trkpt lat="40.10265572927892208099365234375" lon="0.0355920754373073577880859375">
        <ele>310.600006103515625</ele>
        <time>2023-01-27T08:40:52.000Z</time>
      </trkpt>
      <trkpt lat="40.10265891440212726593017578125" lon="0.03557723946869373321533203125">
        <ele>310.79998779296875</ele>
        <time>2023-01-27T08:40:53.000Z</time>
      </trkpt>
      <trkpt lat="40.1026640273630619049072265625" lon="0.03555678762495517730712890625">
        <ele>311</ele>
        <time>2023-01-27T08:40:54.000Z</time>
      </trkpt>
      <trkpt lat="40.1026730798184871673583984375" lon="0.03552862443029880523681640625">
        <ele>311.20001220703125</ele>
        <time>2023-01-27T08:40:55.000Z</time>
      </trkpt>
      <trkpt lat="40.10267869569361209869384765625" lon="0.0355030596256256103515625">
        <ele>311.600006103515625</ele>
        <time>2023-01-27T08:40:56.000Z</time>
      </trkpt>
      <trkpt lat="40.10268087498843669891357421875" lon="0.0354723818600177764892578125">
        <ele>311.600006103515625</ele>
        <time>2023-01-27T08:40:57.000Z</time>
      </trkpt>
      <trkpt lat="40.10268204845488071441650390625" lon="0.03543977625668048858642578125">
        <ele>311.79998779296875</ele>
        <time>2023-01-27T08:40:58.000Z</time>
      </trkpt>
      <trkpt lat="40.10267995297908782958984375" lon="0.03541915677487850189208984375">
        <ele>312.20001220703125</ele>
        <time>2023-01-27T08:40:59.000Z</time>
      </trkpt>
      <trkpt lat="40.10267819277942180633544921875" lon="0.0353892333805561065673828125">
        <ele>312.399993896484375</ele>
        <time>2023-01-27T08:41:00.000Z</time>
      </trkpt>
      <trkpt lat="40.10266930796205997467041015625" lon="0.03536559641361236572265625">
        <ele>312.79998779296875</ele>
        <time>2023-01-27T08:41:01.000Z</time>
      </trkpt>
      <trkpt lat="40.1026566512882709503173828125" lon="0.0353416241705417633056640625">
        <ele>313</ele>
        <time>2023-01-27T08:41:02.000Z</time>
      </trkpt>
      <trkpt lat="40.1026459224522113800048828125" lon="0.03530700691044330596923828125">
        <ele>313.600006103515625</ele>
        <time>2023-01-27T08:41:03.000Z</time>
      </trkpt>
      <trkpt lat="40.1026449166238307952880859375" lon="0.03526275046169757843017578125">
        <ele>313.79998779296875</ele>
        <time>2023-01-27T08:41:04.000Z</time>
      </trkpt>
      <trkpt lat="40.10262689553201198577880859375" lon="0.0352380238473415374755859375">
        <ele>314.20001220703125</ele>
        <time>2023-01-27T08:41:05.000Z</time>
      </trkpt>
      <trkpt lat="40.102607198059558868408203125" lon="0.0352118723094463348388671875">
        <ele>314.399993896484375</ele>
        <time>2023-01-27T08:41:06.000Z</time>
      </trkpt>
      <trkpt lat="40.1025880873203277587890625" lon="0.03516451455652713775634765625">
        <ele>315.20001220703125</ele>
        <time>2023-01-27T08:41:07.000Z</time>
      </trkpt>
      <trkpt lat="40.10258414782583713531494140625" lon="0.035125873982906341552734375">
        <ele>315.399993896484375</ele>
        <time>2023-01-27T08:41:08.000Z</time>
      </trkpt>
      <trkpt lat="40.1025815494358539581298828125" lon="0.03509796224534511566162109375">
        <ele>316</ele>
        <time>2023-01-27T08:41:09.000Z</time>
      </trkpt>
      <trkpt lat="40.1025859080255031585693359375" lon="0.03505487926304340362548828125">
        <ele>316.399993896484375</ele>
        <time>2023-01-27T08:41:10.000Z</time>
      </trkpt>
      <trkpt lat="40.1025822199881076812744140625" lon="0.0350234471261501312255859375">
        <ele>316.79998779296875</ele>
        <time>2023-01-27T08:41:11.000Z</time>
      </trkpt>
      <trkpt lat="40.10257408954203128814697265625" lon="0.03500207327306270599365234375">
        <ele>317</ele>
        <time>2023-01-27T08:41:12.000Z</time>
      </trkpt>
      <trkpt lat="40.1025738380849361419677734375" lon="0.03497810102999210357666015625">
        <ele>317.79998779296875</ele>
        <time>2023-01-27T08:41:13.000Z</time>
      </trkpt>
      <trkpt lat="40.10257375426590442657470703125" lon="0.03494717180728912353515625">
        <ele>318.20001220703125</ele>
        <time>2023-01-27T08:41:14.000Z</time>
      </trkpt>
      <trkpt lat="40.1025694794952869415283203125" lon="0.0349168293178081512451171875">
        <ele>318.79998779296875</ele>
        <time>2023-01-27T08:41:15.000Z</time>
      </trkpt>
      <trkpt lat="40.10255615226924419403076171875" lon="0.03487718291580677032470703125">
        <ele>319.20001220703125</ele>
        <time>2023-01-27T08:41:16.000Z</time>
      </trkpt>
      <trkpt lat="40.10254106484353542327880859375" lon="0.0348387099802494049072265625">
        <ele>319.600006103515625</ele>
        <time>2023-01-27T08:41:17.000Z</time>
      </trkpt>
      <trkpt lat="40.10252228938043117523193359375" lon="0.03480903804302215576171875">
        <ele>319.600006103515625</ele>
        <time>2023-01-27T08:41:18.000Z</time>
      </trkpt>
      <trkpt lat="40.102508962154388427734375" lon="0.03476151265203952789306640625">
        <ele>319.79998779296875</ele>
        <time>2023-01-27T08:41:19.000Z</time>
      </trkpt>
      <trkpt lat="40.1024937070906162261962890625" lon="0.0347180105745792388916015625">
        <ele>320</ele>
        <time>2023-01-27T08:41:20.000Z</time>
      </trkpt>
      <trkpt lat="40.10248356498777866363525390625" lon="0.03466445021331310272216796875">
        <ele>320</ele>
        <time>2023-01-27T08:41:21.000Z</time>
      </trkpt>
      <trkpt lat="40.1024715788662433624267578125" lon="0.03462933003902435302734375">
        <ele>320.20001220703125</ele>
        <time>2023-01-27T08:41:22.000Z</time>
      </trkpt>
      <trkpt lat="40.10245674289762973785400390625" lon="0.034581720829010009765625">
        <ele>320.399993896484375</ele>
        <time>2023-01-27T08:41:23.000Z</time>
      </trkpt>
      <trkpt lat="40.102439559996128082275390625" lon="0.034523718059062957763671875">
        <ele>320.399993896484375</ele>
        <time>2023-01-27T08:41:24.000Z</time>
      </trkpt>
      <trkpt lat="40.102411396801471710205078125" lon="0.03445389680564403533935546875">
        <ele>320.399993896484375</ele>
        <time>2023-01-27T08:41:25.000Z</time>
      </trkpt>
      <trkpt lat="40.1023860834538936614990234375" lon="0.0343941338360309600830078125">
        <ele>320.399993896484375</ele>
        <time>2023-01-27T08:41:26.000Z</time>
      </trkpt>
      <trkpt lat="40.1023627817630767822265625" lon="0.03435381688177585601806640625">
        <ele>320.399993896484375</ele>
        <time>2023-01-27T08:41:27.000Z</time>
      </trkpt>
      <trkpt lat="40.10233671404421329498291015625" lon="0.034325234591960906982421875">
        <ele>320.399993896484375</ele>
        <time>2023-01-27T08:41:28.000Z</time>
      </trkpt>
      <trkpt lat="40.10231844149529933929443359375" lon="0.034295730292797088623046875">
        <ele>320.399993896484375</ele>
        <time>2023-01-27T08:41:29.000Z</time>
      </trkpt>
      <trkpt lat="40.102296061813831329345703125" lon="0.034272260963916778564453125">
        <ele>320.399993896484375</ele>
        <time>2023-01-27T08:41:30.000Z</time>
      </trkpt>
      <trkpt lat="40.10227384977042675018310546875" lon="0.03424753434956073760986328125">
        <ele>320.20001220703125</ele>
        <time>2023-01-27T08:41:31.000Z</time>
      </trkpt>
      <trkpt lat="40.1022556610405445098876953125" lon="0.034208558499813079833984375">
        <ele>320.399993896484375</ele>
        <time>2023-01-27T08:41:32.000Z</time>
      </trkpt>
      <trkpt lat="40.10223462246358394622802734375" lon="0.03417712636291980743408203125">
        <ele>320.399993896484375</ele>
        <time>2023-01-27T08:41:33.000Z</time>
      </trkpt>
      <trkpt lat="40.1022171042859554290771484375" lon="0.0341480411589145660400390625">
        <ele>320.600006103515625</ele>
        <time>2023-01-27T08:41:34.000Z</time>
      </trkpt>
      <trkpt lat="40.10219715535640716552734375" lon="0.03412281163036823272705078125">
        <ele>320.600006103515625</ele>
        <time>2023-01-27T08:41:35.000Z</time>
      </trkpt>
      <trkpt lat="40.1021777093410491943359375" lon="0.034096240997314453125">
        <ele>320.600006103515625</ele>
        <time>2023-01-27T08:41:36.000Z</time>
      </trkpt>
      <trkpt lat="40.10215868242084980010986328125" lon="0.03406849689781665802001953125">
        <ele>320.600006103515625</ele>
        <time>2023-01-27T08:41:37.000Z</time>
      </trkpt>
      <trkpt lat="40.10213772766292095184326171875" lon="0.03403580747544765472412109375">
        <ele>320.79998779296875</ele>
        <time>2023-01-27T08:41:38.000Z</time>
      </trkpt>
      <trkpt lat="40.102118365466594696044921875" lon="0.0340005196630954742431640625">
        <ele>321</ele>
        <time>2023-01-27T08:41:39.000Z</time>
      </trkpt>
      <trkpt lat="40.1021031104028224945068359375" lon="0.03397009335458278656005859375">
        <ele>322</ele>
        <time>2023-01-27T08:41:40.000Z</time>
      </trkpt>
      <trkpt lat="40.10208207182586193084716796875" lon="0.03392198123037815093994140625">
        <ele>322.600006103515625</ele>
        <time>2023-01-27T08:41:41.000Z</time>
      </trkpt>
      <trkpt lat="40.10206815786659717559814453125" lon="0.03388627432286739349365234375">
        <ele>322.79998779296875</ele>
        <time>2023-01-27T08:41:42.000Z</time>
      </trkpt>
      <trkpt lat="40.10204485617578029632568359375" lon="0.0338385812938213348388671875">
        <ele>323.399993896484375</ele>
        <time>2023-01-27T08:41:43.000Z</time>
      </trkpt>
      <trkpt lat="40.10202440433204174041748046875" lon="0.0337936542928218841552734375">
        <ele>323.600006103515625</ele>
        <time>2023-01-27T08:41:44.000Z</time>
      </trkpt>
      <trkpt lat="40.10200194083154201507568359375" lon="0.0337460450828075408935546875">
        <ele>324</ele>
        <time>2023-01-27T08:41:45.000Z</time>
      </trkpt>
      <trkpt lat="40.1019854284822940826416015625" lon="0.033710002899169921875">
        <ele>324.20001220703125</ele>
        <time>2023-01-27T08:41:46.000Z</time>
      </trkpt>
      <trkpt lat="40.10196623392403125762939453125" lon="0.0336669199168682098388671875">
        <ele>324.600006103515625</ele>
        <time>2023-01-27T08:41:47.000Z</time>
      </trkpt>
      <trkpt lat="40.10194879956543445587158203125" lon="0.0336243398487567901611328125">
        <ele>324.79998779296875</ele>
        <time>2023-01-27T08:41:48.000Z</time>
      </trkpt>
      <trkpt lat="40.1019291020929813385009765625" lon="0.03357580862939357757568359375">
        <ele>325</ele>
        <time>2023-01-27T08:41:49.000Z</time>
      </trkpt>
      <trkpt lat="40.1019175350666046142578125" lon="0.0335458852350711822509765625">
        <ele>325.20001220703125</ele>
        <time>2023-01-27T08:41:50.000Z</time>
      </trkpt>
      <trkpt lat="40.1018985919654369354248046875" lon="0.0335019640624523162841796875">
        <ele>325.600006103515625</ele>
        <time>2023-01-27T08:41:51.000Z</time>
      </trkpt>
      <trkpt lat="40.10188643820583820343017578125" lon="0.03347338177263736724853515625">
        <ele>325.79998779296875</ele>
        <time>2023-01-27T08:41:52.000Z</time>
      </trkpt>
      <trkpt lat="40.10187453590333461761474609375" lon="0.03343918360769748687744140625">
        <ele>326</ele>
        <time>2023-01-27T08:41:53.000Z</time>
      </trkpt>
      <trkpt lat="40.1018623821437358856201171875" lon="0.03340481780469417572021484375">
        <ele>326.20001220703125</ele>
        <time>2023-01-27T08:41:54.000Z</time>
      </trkpt>
      <trkpt lat="40.10184436105191707611083984375" lon="0.03336559049785137176513671875">
        <ele>326.600006103515625</ele>
        <time>2023-01-27T08:41:55.000Z</time>
      </trkpt>
      <trkpt lat="40.10182709433138370513916015625" lon="0.0333386845886707305908203125">
        <ele>327</ele>
        <time>2023-01-27T08:41:56.000Z</time>
      </trkpt>
      <trkpt lat="40.1018033735454082489013671875" lon="0.03330524079501628875732421875">
        <ele>327.399993896484375</ele>
        <time>2023-01-27T08:41:57.000Z</time>
      </trkpt>
      <trkpt lat="40.10177462361752986907958984375" lon="0.03326450474560260772705078125">
        <ele>327.600006103515625</ele>
        <time>2023-01-27T08:41:58.000Z</time>
      </trkpt>
      <trkpt lat="40.1017436943948268890380859375" lon="0.0332344137132167816162109375">
        <ele>328.20001220703125</ele>
        <time>2023-01-27T08:41:59.000Z</time>
      </trkpt>
      <trkpt lat="40.101703964173793792724609375" lon="0.03321312367916107177734375">
        <ele>328.20001220703125</ele>
        <time>2023-01-27T08:42:00.000Z</time>
      </trkpt>
      <trkpt lat="40.10166783817112445831298828125" lon="0.03320239484310150146484375">
        <ele>328.399993896484375</ele>
        <time>2023-01-27T08:42:01.000Z</time>
      </trkpt>
      <trkpt lat="40.1016156189143657684326171875" lon="0.03319979645311832427978515625">
        <ele>328.600006103515625</ele>
        <time>2023-01-27T08:42:02.000Z</time>
      </trkpt>
      <trkpt lat="40.10158301331102848052978515625" lon="0.03321035765111446380615234375">
        <ele>328.79998779296875</ele>
        <time>2023-01-27T08:42:03.000Z</time>
      </trkpt>
      <trkpt lat="40.10154563002288341522216796875" lon="0.0332313962280750274658203125">
        <ele>328.79998779296875</ele>
        <time>2023-01-27T08:42:04.000Z</time>
      </trkpt>
      <trkpt lat="40.1015076600015163421630859375" lon="0.0332642532885074615478515625">
        <ele>328.79998779296875</ele>
        <time>2023-01-27T08:42:05.000Z</time>
      </trkpt>
      <trkpt lat="40.1014768145978450775146484375" lon="0.03328420221805572509765625">
        <ele>329</ele>
        <time>2023-01-27T08:42:06.000Z</time>
      </trkpt>
      <trkpt lat="40.1014508306980133056640625" lon="0.0332917459309101104736328125">
        <ele>329</ele>
        <time>2023-01-27T08:42:07.000Z</time>
      </trkpt>
      <trkpt lat="40.10141168721020221710205078125" lon="0.0332920812070369720458984375">
        <ele>329</ele>
        <time>2023-01-27T08:42:08.000Z</time>
      </trkpt>
      <trkpt lat="40.10138100944459438323974609375" lon="0.03327439539134502410888671875">
        <ele>329</ele>
        <time>2023-01-27T08:42:09.000Z</time>
      </trkpt>
      <trkpt lat="40.1013514213263988494873046875" lon="0.033241622149944305419921875">
        <ele>329</ele>
        <time>2023-01-27T08:42:10.000Z</time>
      </trkpt>
      <trkpt lat="40.1013292931020259857177734375" lon="0.03320901654660701751708984375">
        <ele>329</ele>
        <time>2023-01-27T08:42:11.000Z</time>
      </trkpt>
      <trkpt lat="40.10130397975444793701171875" lon="0.0331749022006988525390625">
        <ele>329</ele>
        <time>2023-01-27T08:42:12.000Z</time>
      </trkpt>
      <trkpt lat="40.10127841494977474212646484375" lon="0.0331373512744903564453125">
        <ele>329.20001220703125</ele>
        <time>2023-01-27T08:42:13.000Z</time>
      </trkpt>
      <trkpt lat="40.10126081295311450958251953125" lon="0.0331078469753265380859375">
        <ele>329.20001220703125</ele>
        <time>2023-01-27T08:42:14.000Z</time>
      </trkpt>
      <trkpt lat="40.10124706663191318511962890625" lon="0.0330785103142261505126953125">
        <ele>329.399993896484375</ele>
        <time>2023-01-27T08:42:15.000Z</time>
      </trkpt>
      <trkpt lat="40.10122426785528659820556640625" lon="0.03304070793092250823974609375">
        <ele>329.399993896484375</ele>
        <time>2023-01-27T08:42:16.000Z</time>
      </trkpt>
      <trkpt lat="40.1011960208415985107421875" lon="0.0330060906708240509033203125">
        <ele>329.600006103515625</ele>
        <time>2023-01-27T08:42:17.000Z</time>
      </trkpt>
      <trkpt lat="40.101156122982501983642578125" lon="0.03298438154160976409912109375">
        <ele>329.79998779296875</ele>
        <time>2023-01-27T08:42:18.000Z</time>
      </trkpt>
      <trkpt lat="40.10112921707332134246826171875" lon="0.0329896621406078338623046875">
        <ele>329.79998779296875</ele>
        <time>2023-01-27T08:42:19.000Z</time>
      </trkpt>
      <trkpt lat="40.10109351016581058502197265625" lon="0.033007599413394927978515625">
        <ele>330</ele>
        <time>2023-01-27T08:42:20.000Z</time>
      </trkpt>
      <trkpt lat="40.10107222013175487518310546875" lon="0.03303165547549724578857421875">
        <ele>330</ele>
        <time>2023-01-27T08:42:21.000Z</time>
      </trkpt>
      <trkpt lat="40.10105377994477748870849609375" lon="0.03305311314761638641357421875">
        <ele>330.20001220703125</ele>
        <time>2023-01-27T08:42:22.000Z</time>
      </trkpt>
      <trkpt lat="40.1010302267968654632568359375" lon="0.0330771692097187042236328125">
        <ele>330.399993896484375</ele>
        <time>2023-01-27T08:42:23.000Z</time>
      </trkpt>
      <trkpt lat="40.10100315324962139129638671875" lon="0.03309954889118671417236328125">
        <ele>330.399993896484375</ele>
        <time>2023-01-27T08:42:24.000Z</time>
      </trkpt>
      <trkpt lat="40.10098152793943881988525390625" lon="0.0331123732030391693115234375">
        <ele>330.600006103515625</ele>
        <time>2023-01-27T08:42:25.000Z</time>
      </trkpt>
      <trkpt lat="40.10095856152474880218505859375" lon="0.03312519751489162445068359375">
        <ele>330.79998779296875</ele>
        <time>2023-01-27T08:42:26.000Z</time>
      </trkpt>
      <trkpt lat="40.1009393669664859771728515625" lon="0.03313274122774600982666015625">
        <ele>331</ele>
        <time>2023-01-27T08:42:27.000Z</time>
      </trkpt>
      <trkpt lat="40.10091229341924190521240234375" lon="0.0331482477486133575439453125">
        <ele>331.20001220703125</ele>
        <time>2023-01-27T08:42:28.000Z</time>
      </trkpt>
      <trkpt lat="40.1008796878159046173095703125" lon="0.03316677175462245941162109375">
        <ele>331.600006103515625</ele>
        <time>2023-01-27T08:42:29.000Z</time>
      </trkpt>
      <trkpt lat="40.1008444838225841522216796875" lon="0.03318269737064838409423828125">
        <ele>331.79998779296875</ele>
        <time>2023-01-27T08:42:30.000Z</time>
      </trkpt>
      <trkpt lat="40.1008179970085620880126953125" lon="0.0331928394734859466552734375">
        <ele>332.20001220703125</ele>
        <time>2023-01-27T08:42:31.000Z</time>
      </trkpt>
      <trkpt lat="40.10079964064061641693115234375" lon="0.033203400671482086181640625">
        <ele>332.399993896484375</ele>
        <time>2023-01-27T08:42:32.000Z</time>
      </trkpt>
      <trkpt lat="40.1007775962352752685546875" lon="0.03321421332657337188720703125">
        <ele>333</ele>
        <time>2023-01-27T08:42:33.000Z</time>
      </trkpt>
      <trkpt lat="40.10075253434479236602783203125" lon="0.03322728909552097320556640625">
        <ele>333.399993896484375</ele>
        <time>2023-01-27T08:42:34.000Z</time>
      </trkpt>
      <trkpt lat="40.100728310644626617431640625" lon="0.03323701210319995880126953125">
        <ele>333.79998779296875</ele>
        <time>2023-01-27T08:42:35.000Z</time>
      </trkpt>
      <trkpt lat="40.100702159106731414794921875" lon="0.033242292702198028564453125">
        <ele>334</ele>
        <time>2023-01-27T08:42:36.000Z</time>
      </trkpt>
      <trkpt lat="40.10068044997751712799072265625" lon="0.03324455581605434417724609375">
        <ele>334.399993896484375</ele>
        <time>2023-01-27T08:42:37.000Z</time>
      </trkpt>
      <trkpt lat="40.1006473414599895477294921875" lon="0.03324329853057861328125">
        <ele>334.600006103515625</ele>
        <time>2023-01-27T08:42:38.000Z</time>
      </trkpt>
      <trkpt lat="40.1006205193698406219482421875" lon="0.03323726356029510498046875">
        <ele>335.20001220703125</ele>
        <time>2023-01-27T08:42:39.000Z</time>
      </trkpt>
      <trkpt lat="40.10059629566967487335205078125" lon="0.0332273729145526885986328125">
        <ele>335.600006103515625</ele>
        <time>2023-01-27T08:42:40.000Z</time>
      </trkpt>
      <trkpt lat="40.10056980885565280914306640625" lon="0.033217482268810272216796875">
        <ele>335.79998779296875</ele>
        <time>2023-01-27T08:42:41.000Z</time>
      </trkpt>
      <trkpt lat="40.10054985992610454559326171875" lon="0.0332075916230678558349609375">
        <ele>336</ele>
        <time>2023-01-27T08:42:42.000Z</time>
      </trkpt>
      <trkpt lat="40.1005201041698455810546875" lon="0.03319426439702510833740234375">
        <ele>336.20001220703125</ele>
        <time>2023-01-27T08:42:43.000Z</time>
      </trkpt>
      <trkpt lat="40.10049789212644100189208984375" lon="0.03318403847515583038330078125">
        <ele>336.79998779296875</ele>
        <time>2023-01-27T08:42:44.000Z</time>
      </trkpt>
      <trkpt lat="40.10047928430140018463134765625" lon="0.0331760756671428680419921875">
        <ele>337</ele>
        <time>2023-01-27T08:42:45.000Z</time>
      </trkpt>
      <trkpt lat="40.10045765899121761322021484375" lon="0.0331641733646392822265625">
        <ele>337.399993896484375</ele>
        <time>2023-01-27T08:42:46.000Z</time>
      </trkpt>
      <trkpt lat="40.1004367880523204803466796875" lon="0.0331532768905162811279296875">
        <ele>337.600006103515625</ele>
        <time>2023-01-27T08:42:47.000Z</time>
      </trkpt>
      <trkpt lat="40.10041541419923305511474609375" lon="0.03314732573926448822021484375">
        <ele>338.399993896484375</ele>
        <time>2023-01-27T08:42:48.000Z</time>
      </trkpt>
      <trkpt lat="40.10038842447102069854736328125" lon="0.03314162604510784149169921875">
        <ele>338.600006103515625</ele>
        <time>2023-01-27T08:42:49.000Z</time>
      </trkpt>
      <trkpt lat="40.100364871323108673095703125" lon="0.03313668072223663330078125">
        <ele>339.399993896484375</ele>
        <time>2023-01-27T08:42:50.000Z</time>
      </trkpt>
      <trkpt lat="40.1003465987741947174072265625" lon="0.03313324414193630218505859375">
        <ele>339.79998779296875</ele>
        <time>2023-01-27T08:42:51.000Z</time>
      </trkpt>
      <trkpt lat="40.10032522492110729217529296875" lon="0.0331271253526210784912109375">
        <ele>340.79998779296875</ele>
        <time>2023-01-27T08:42:52.000Z</time>
      </trkpt>
      <trkpt lat="40.100298486649990081787109375" lon="0.0331207551062107086181640625">
        <ele>341</ele>
        <time>2023-01-27T08:42:53.000Z</time>
      </trkpt>
      <trkpt lat="40.100276358425617218017578125" lon="0.03311656415462493896484375">
        <ele>341.600006103515625</ele>
        <time>2023-01-27T08:42:54.000Z</time>
      </trkpt>
      <trkpt lat="40.10025330819189548492431640625" lon="0.03311295993626117706298828125">
        <ele>341.79998779296875</ele>
        <time>2023-01-27T08:42:55.000Z</time>
      </trkpt>
      <trkpt lat="40.1002362929284572601318359375" lon="0.0331120379269123077392578125">
        <ele>342.399993896484375</ele>
        <time>2023-01-27T08:42:56.000Z</time>
      </trkpt>
      <trkpt lat="40.1002148352563381195068359375" lon="0.0331103615462779998779296875">
        <ele>342.600006103515625</ele>
        <time>2023-01-27T08:42:57.000Z</time>
      </trkpt>
      <trkpt lat="40.10018943808972835540771484375" lon="0.03311111591756343841552734375">
        <ele>343</ele>
        <time>2023-01-27T08:42:58.000Z</time>
      </trkpt>
      <trkpt lat="40.1001672260463237762451171875" lon="0.03311145119369029998779296875">
        <ele>343.399993896484375</ele>
        <time>2023-01-27T08:42:59.000Z</time>
      </trkpt>
      <trkpt lat="40.1001445949077606201171875" lon="0.03310809843242168426513671875">
        <ele>343.79998779296875</ele>
        <time>2023-01-27T08:43:00.000Z</time>
      </trkpt>
      <trkpt lat="40.10011718608438968658447265625" lon="0.03310306929051876068115234375">
        <ele>344</ele>
        <time>2023-01-27T08:43:01.000Z</time>
      </trkpt>
      <trkpt lat="40.1000891067087650299072265625" lon="0.033101141452789306640625">
        <ele>344.399993896484375</ele>
        <time>2023-01-27T08:43:02.000Z</time>
      </trkpt>
      <trkpt lat="40.10006538592278957366943359375" lon="0.0330922566354274749755859375">
        <ele>344.600006103515625</ele>
        <time>2023-01-27T08:43:03.000Z</time>
      </trkpt>
      <trkpt lat="40.1000431738793849945068359375" lon="0.03307406790554523468017578125">
        <ele>345.20001220703125</ele>
        <time>2023-01-27T08:43:04.000Z</time>
      </trkpt>
      <trkpt lat="40.1000341214239597320556640625" lon="0.0330555438995361328125">
        <ele>345.79998779296875</ele>
        <time>2023-01-27T08:43:05.000Z</time>
      </trkpt>
      <trkpt lat="40.100025571882724761962890625" lon="0.0330268777906894683837890625">
        <ele>346</ele>
        <time>2023-01-27T08:43:06.000Z</time>
      </trkpt>
      <trkpt lat="40.100021548569202423095703125" lon="0.03298974595963954925537109375">
        <ele>346.20001220703125</ele>
        <time>2023-01-27T08:43:07.000Z</time>
      </trkpt>
      <trkpt lat="40.10001995600759983062744140625" lon="0.03293660469353199005126953125">
        <ele>346.399993896484375</ele>
        <time>2023-01-27T08:43:08.000Z</time>
      </trkpt>
      <trkpt lat="40.1000197045505046844482421875" lon="0.03289972431957721710205078125">
        <ele>346.79998779296875</ele>
        <time>2023-01-27T08:43:09.000Z</time>
      </trkpt>
      <trkpt lat="40.10002129711210727691650390625" lon="0.03285177983343601226806640625">
        <ele>347</ele>
        <time>2023-01-27T08:43:10.000Z</time>
      </trkpt>
      <trkpt lat="40.1000227220356464385986328125" lon="0.0328002311289310455322265625">
        <ele>347.399993896484375</ele>
        <time>2023-01-27T08:43:11.000Z</time>
      </trkpt>
      <trkpt lat="40.10002364404499530792236328125" lon="0.0327479280531406402587890625">
        <ele>347.399993896484375</ele>
        <time>2023-01-27T08:43:12.000Z</time>
      </trkpt>
      <trkpt lat="40.10002456605434417724609375" lon="0.03268497996032238006591796875">
        <ele>347.79998779296875</ele>
        <time>2023-01-27T08:43:13.000Z</time>
      </trkpt>
      <trkpt lat="40.10003018192946910858154296875" lon="0.032632090151309967041015625">
        <ele>347.79998779296875</ele>
        <time>2023-01-27T08:43:14.000Z</time>
      </trkpt>
      <trkpt lat="40.10003839619457721710205078125" lon="0.03257970325648784637451171875">
        <ele>347.79998779296875</ele>
        <time>2023-01-27T08:43:15.000Z</time>
      </trkpt>
      <trkpt lat="40.10004141367971897125244140625" lon="0.032539553940296173095703125">
        <ele>347.79998779296875</ele>
        <time>2023-01-27T08:43:16.000Z</time>
      </trkpt>
      <trkpt lat="40.10004007257521152496337890625" lon="0.03249404020607471466064453125">
        <ele>347.79998779296875</ele>
        <time>2023-01-27T08:43:17.000Z</time>
      </trkpt>
      <trkpt lat="40.10003319941461086273193359375" lon="0.03245280124247074127197265625">
        <ele>347.79998779296875</ele>
        <time>2023-01-27T08:43:18.000Z</time>
      </trkpt>
      <trkpt lat="40.10002247057855129241943359375" lon="0.0324099697172641754150390625">
        <ele>347.79998779296875</ele>
        <time>2023-01-27T08:43:19.000Z</time>
      </trkpt>
      <trkpt lat="40.10000688023865222930908203125" lon="0.032366216182708740234375">
        <ele>347.79998779296875</ele>
        <time>2023-01-27T08:43:20.000Z</time>
      </trkpt>
      <trkpt lat="40.09998491965234279632568359375" lon="0.03232531249523162841796875">
        <ele>347.79998779296875</ele>
        <time>2023-01-27T08:43:21.000Z</time>
      </trkpt>
      <trkpt lat="40.0999620370566844940185546875" lon="0.03228432498872280120849609375">
        <ele>347.79998779296875</ele>
        <time>2023-01-27T08:43:22.000Z</time>
      </trkpt>
      <trkpt lat="40.0999358855187892913818359375" lon="0.03224526531994342803955078125">
        <ele>348</ele>
        <time>2023-01-27T08:43:23.000Z</time>
      </trkpt>
      <trkpt lat="40.0999087281525135040283203125" lon="0.03220955841243267059326171875">
        <ele>348</ele>
        <time>2023-01-27T08:43:24.000Z</time>
      </trkpt>
      <trkpt lat="40.099877379834651947021484375" lon="0.03217653371393680572509765625">
        <ele>348</ele>
        <time>2023-01-27T08:43:25.000Z</time>
      </trkpt>
      <trkpt lat="40.099842846393585205078125" lon="0.0321350432932376861572265625">
        <ele>348</ele>
        <time>2023-01-27T08:43:26.000Z</time>
      </trkpt>
      <trkpt lat="40.09982080198824405670166015625" lon="0.03210545517504215240478515625">
        <ele>348.20001220703125</ele>
        <time>2023-01-27T08:43:27.000Z</time>
      </trkpt>
      <trkpt lat="40.09979448281228542327880859375" lon="0.03207326866686344146728515625">
        <ele>348.20001220703125</ele>
        <time>2023-01-27T08:43:28.000Z</time>
      </trkpt>
      <trkpt lat="40.099768750369548797607421875" lon="0.03205306828022003173828125">
        <ele>348.20001220703125</ele>
        <time>2023-01-27T08:43:29.000Z</time>
      </trkpt>
      <trkpt lat="40.0997395813465118408203125" lon="0.0320438481867313385009765625">
        <ele>348.600006103515625</ele>
        <time>2023-01-27T08:43:30.000Z</time>
      </trkpt>
      <trkpt lat="40.099709071218967437744140625" lon="0.0320354662835597991943359375">
        <ele>348.600006103515625</ele>
        <time>2023-01-27T08:43:31.000Z</time>
      </trkpt>
      <trkpt lat="40.09967797435820102691650390625" lon="0.03202733583748340606689453125">
        <ele>348.79998779296875</ele>
        <time>2023-01-27T08:43:32.000Z</time>
      </trkpt>
      <trkpt lat="40.09964696131646633148193359375" lon="0.0320161879062652587890625">
        <ele>348.79998779296875</ele>
        <time>2023-01-27T08:43:33.000Z</time>
      </trkpt>
      <trkpt lat="40.0996163673698902130126953125" lon="0.03200436942279338836669921875">
        <ele>349</ele>
        <time>2023-01-27T08:43:34.000Z</time>
      </trkpt>
      <trkpt lat="40.099579989910125732421875" lon="0.0319875217974185943603515625">
        <ele>349</ele>
        <time>2023-01-27T08:43:35.000Z</time>
      </trkpt>
      <trkpt lat="40.0995546765625476837158203125" lon="0.0319741107523441314697265625">
        <ele>349.399993896484375</ele>
        <time>2023-01-27T08:43:36.000Z</time>
      </trkpt>
      <trkpt lat="40.09952508844435214996337890625" lon="0.031958855688571929931640625">
        <ele>349.399993896484375</ele>
        <time>2023-01-27T08:43:37.000Z</time>
      </trkpt>
      <trkpt lat="40.0994936563074588775634765625" lon="0.03193379379808902740478515625">
        <ele>349.79998779296875</ele>
        <time>2023-01-27T08:43:38.000Z</time>
      </trkpt>
      <trkpt lat="40.09947462938725948333740234375" lon="0.03191652707755565643310546875">
        <ele>350</ele>
        <time>2023-01-27T08:43:39.000Z</time>
      </trkpt>
      <trkpt lat="40.0994534231722354888916015625" lon="0.0318899564445018768310546875">
        <ele>350.399993896484375</ele>
        <time>2023-01-27T08:43:40.000Z</time>
      </trkpt>
      <trkpt lat="40.09943238459527492523193359375" lon="0.031861625611782073974609375">
        <ele>350.600006103515625</ele>
        <time>2023-01-27T08:43:41.000Z</time>
      </trkpt>
      <trkpt lat="40.09941478259861469268798828125" lon="0.03183606080710887908935546875">
        <ele>350.79998779296875</ele>
        <time>2023-01-27T08:43:42.000Z</time>
      </trkpt>
      <trkpt lat="40.0993970967829227447509765625" lon="0.0318047963082790374755859375">
        <ele>350.79998779296875</ele>
        <time>2023-01-27T08:43:43.000Z</time>
      </trkpt>
      <trkpt lat="40.09937555529177188873291015625" lon="0.03176716156303882598876953125">
        <ele>351</ele>
        <time>2023-01-27T08:43:44.000Z</time>
      </trkpt>
      <trkpt lat="40.099358372390270233154296875" lon="0.03173480741679668426513671875">
        <ele>351.20001220703125</ele>
        <time>2023-01-27T08:43:45.000Z</time>
      </trkpt>
      <trkpt lat="40.099344290792942047119140625" lon="0.03170647658407688140869140625">
        <ele>351.399993896484375</ele>
        <time>2023-01-27T08:43:46.000Z</time>
      </trkpt>
      <trkpt lat="40.09932593442499637603759765625" lon="0.031663477420806884765625">
        <ele>351.399993896484375</ele>
        <time>2023-01-27T08:43:47.000Z</time>
      </trkpt>
      <trkpt lat="40.09930917061865329742431640625" lon="0.03162869252264499664306640625">
        <ele>352</ele>
        <time>2023-01-27T08:43:48.000Z</time>
      </trkpt>
      <trkpt lat="40.09929274208843708038330078125" lon="0.0315912254154682159423828125">
        <ele>352.399993896484375</ele>
        <time>2023-01-27T08:43:49.000Z</time>
      </trkpt>
      <trkpt lat="40.09928033687174320220947265625" lon="0.03156113438308238983154296875">
        <ele>352.600006103515625</ele>
        <time>2023-01-27T08:43:50.000Z</time>
      </trkpt>
      <trkpt lat="40.099266506731510162353515625" lon="0.03152173943817615509033203125">
        <ele>353</ele>
        <time>2023-01-27T08:43:51.000Z</time>
      </trkpt>
      <trkpt lat="40.09925435297191143035888671875" lon="0.031472705304622650146484375">
        <ele>353.20001220703125</ele>
        <time>2023-01-27T08:43:52.000Z</time>
      </trkpt>
      <trkpt lat="40.099243707954883575439453125" lon="0.03143305890262126922607421875">
        <ele>353.399993896484375</ele>
        <time>2023-01-27T08:43:53.000Z</time>
      </trkpt>
      <trkpt lat="40.09923557750880718231201171875" lon="0.03138930536806583404541015625">
        <ele>353.600006103515625</ele>
        <time>2023-01-27T08:43:54.000Z</time>
      </trkpt>
      <trkpt lat="40.0992251001298427581787109375" lon="0.031343959271907806396484375">
        <ele>353.600006103515625</ele>
        <time>2023-01-27T08:43:55.000Z</time>
      </trkpt>
      <trkpt lat="40.09921713732182979583740234375" lon="0.031307078897953033447265625">
        <ele>353.79998779296875</ele>
        <time>2023-01-27T08:43:56.000Z</time>
      </trkpt>
      <trkpt lat="40.09921143762767314910888671875" lon="0.03125846385955810546875">
        <ele>353.79998779296875</ele>
        <time>2023-01-27T08:43:57.000Z</time>
      </trkpt>
      <trkpt lat="40.0992016308009624481201171875" lon="0.03120507113635540008544921875">
        <ele>353.79998779296875</ele>
        <time>2023-01-27T08:43:58.000Z</time>
      </trkpt>
      <trkpt lat="40.0991972722113132476806640625" lon="0.031166262924671173095703125">
        <ele>354</ele>
        <time>2023-01-27T08:43:59.000Z</time>
      </trkpt>
      <trkpt lat="40.0991925783455371856689453125" lon="0.0311261974275112152099609375">
        <ele>354</ele>
        <time>2023-01-27T08:44:00.000Z</time>
      </trkpt>
      <trkpt lat="40.09918411262333393096923828125" lon="0.0310896523296833038330078125">
        <ele>354.20001220703125</ele>
        <time>2023-01-27T08:44:01.000Z</time>
      </trkpt>
      <trkpt lat="40.099171288311481475830078125" lon="0.0310386903584003448486328125">
        <ele>354.399993896484375</ele>
        <time>2023-01-27T08:44:02.000Z</time>
      </trkpt>
      <trkpt lat="40.0991603918373584747314453125" lon="0.03098345361649990081787109375">
        <ele>354.399993896484375</ele>
        <time>2023-01-27T08:44:03.000Z</time>
      </trkpt>
      <trkpt lat="40.09914538823068141937255859375" lon="0.030922181904315948486328125">
        <ele>354.600006103515625</ele>
        <time>2023-01-27T08:44:04.000Z</time>
      </trkpt>
      <trkpt lat="40.0991241820156574249267578125" lon="0.0308821164071559906005859375">
        <ele>354.600006103515625</ele>
        <time>2023-01-27T08:44:05.000Z</time>
      </trkpt>
      <trkpt lat="40.0991070829331874847412109375" lon="0.03084682859480381011962890625">
        <ele>354.600006103515625</ele>
        <time>2023-01-27T08:44:06.000Z</time>
      </trkpt>
      <trkpt lat="40.099085457623004913330078125" lon="0.03080709837377071380615234375">
        <ele>354.79998779296875</ele>
        <time>2023-01-27T08:44:07.000Z</time>
      </trkpt>
      <trkpt lat="40.09905871935188770294189453125" lon="0.030770637094974517822265625">
        <ele>355</ele>
        <time>2023-01-27T08:44:08.000Z</time>
      </trkpt>
      <trkpt lat="40.09903877042233943939208984375" lon="0.0307475030422210693359375">
        <ele>355</ele>
        <time>2023-01-27T08:44:09.000Z</time>
      </trkpt>
      <trkpt lat="40.0990234315395355224609375" lon="0.0307340919971466064453125">
        <ele>355.20001220703125</ele>
        <time>2023-01-27T08:44:10.000Z</time>
      </trkpt>
      <trkpt lat="40.099003650248050689697265625" lon="0.0307158194482326507568359375">
        <ele>355.20001220703125</ele>
        <time>2023-01-27T08:44:11.000Z</time>
      </trkpt>
      <trkpt lat="40.09897674433887004852294921875" lon="0.03068606369197368621826171875">
        <ele>355.399993896484375</ele>
        <time>2023-01-27T08:44:12.000Z</time>
      </trkpt>
      <trkpt lat="40.0989541970193386077880859375" lon="0.0306604988873004913330078125">
        <ele>355.399993896484375</ele>
        <time>2023-01-27T08:44:13.000Z</time>
      </trkpt>
      <trkpt lat="40.098931230604648590087890625" lon="0.0306299887597560882568359375">
        <ele>355.79998779296875</ele>
        <time>2023-01-27T08:44:14.000Z</time>
      </trkpt>
      <trkpt lat="40.09890876710414886474609375" lon="0.030603669583797454833984375">
        <ele>356</ele>
        <time>2023-01-27T08:44:15.000Z</time>
      </trkpt>
      <trkpt lat="40.098886974155902862548828125" lon="0.03058296628296375274658203125">
        <ele>356.20001220703125</ele>
        <time>2023-01-27T08:44:16.000Z</time>
      </trkpt>
      <trkpt lat="40.09886878542602062225341796875" lon="0.03056804649531841278076171875">
        <ele>356.399993896484375</ele>
        <time>2023-01-27T08:44:17.000Z</time>
      </trkpt>
      <trkpt lat="40.0988410413265228271484375" lon="0.030544660985469818115234375">
        <ele>356.79998779296875</ele>
        <time>2023-01-27T08:44:18.000Z</time>
      </trkpt>
      <trkpt lat="40.09881380014121532440185546875" lon="0.03052379004657268524169921875">
        <ele>357</ele>
        <time>2023-01-27T08:44:19.000Z</time>
      </trkpt>
      <trkpt lat="40.09878798387944698333740234375" lon="0.030501075088977813720703125">
        <ele>357.399993896484375</ele>
        <time>2023-01-27T08:44:20.000Z</time>
      </trkpt>
      <trkpt lat="40.09876753203570842742919921875" lon="0.030479617416858673095703125">
        <ele>357.600006103515625</ele>
        <time>2023-01-27T08:44:21.000Z</time>
      </trkpt>
      <trkpt lat="40.09874506853520870208740234375" lon="0.03045120276510715484619140625">
        <ele>357.79998779296875</ele>
        <time>2023-01-27T08:44:22.000Z</time>
      </trkpt>
      <trkpt lat="40.09872679598629474639892578125" lon="0.0304087065160274505615234375">
        <ele>358</ele>
        <time>2023-01-27T08:44:23.000Z</time>
      </trkpt>
      <trkpt lat="40.0987238623201847076416015625" lon="0.0303761847317218780517578125">
        <ele>358.399993896484375</ele>
        <time>2023-01-27T08:44:24.000Z</time>
      </trkpt>
      <trkpt lat="40.09872528724372386932373046875" lon="0.030336119234561920166015625">
        <ele>358.399993896484375</ele>
        <time>2023-01-27T08:44:25.000Z</time>
      </trkpt>
      <trkpt lat="40.0987309031188488006591796875" lon="0.03030485473573207855224609375">
        <ele>358.79998779296875</ele>
        <time>2023-01-27T08:44:26.000Z</time>
      </trkpt>
      <trkpt lat="40.09873786009848117828369140625" lon="0.0302846543490886688232421875">
        <ele>359</ele>
        <time>2023-01-27T08:44:27.000Z</time>
      </trkpt>
      <trkpt lat="40.0987449847161769866943359375" lon="0.0302615202963352203369140625">
        <ele>359.20001220703125</ele>
        <time>2023-01-27T08:44:28.000Z</time>
      </trkpt>
      <trkpt lat="40.09875378571450710296630859375" lon="0.030240230262279510498046875">
        <ele>359.399993896484375</ele>
        <time>2023-01-27T08:44:29.000Z</time>
      </trkpt>
      <trkpt lat="40.0987637601792812347412109375" lon="0.03020779229700565338134765625">
        <ele>360</ele>
        <time>2023-01-27T08:44:30.000Z</time>
      </trkpt>
      <trkpt lat="40.09876820258796215057373046875" lon="0.03018784336745738983154296875">
        <ele>360.20001220703125</ele>
        <time>2023-01-27T08:44:31.000Z</time>
      </trkpt>
      <trkpt lat="40.09877524338662624359130859375" lon="0.0301574170589447021484375">
        <ele>360.399993896484375</ele>
        <time>2023-01-27T08:44:32.000Z</time>
      </trkpt>
      <trkpt lat="40.09877759031951427459716796875" lon="0.03013084642589092254638671875">
        <ele>360.79998779296875</ele>
        <time>2023-01-27T08:44:33.000Z</time>
      </trkpt>
      <trkpt lat="40.098779015243053436279296875" lon="0.03010486252605915069580078125">
        <ele>361</ele>
        <time>2023-01-27T08:44:34.000Z</time>
      </trkpt>
      <trkpt lat="40.09877842850983142852783203125" lon="0.0300801359117031097412109375">
        <ele>361.600006103515625</ele>
        <time>2023-01-27T08:44:35.000Z</time>
      </trkpt>
      <trkpt lat="40.098769627511501312255859375" lon="0.03005691803991794586181640625">
        <ele>362.20001220703125</ele>
        <time>2023-01-27T08:44:36.000Z</time>
      </trkpt>
      <trkpt lat="40.098753534257411956787109375" lon="0.03002992831170558929443359375">
        <ele>362.79998779296875</ele>
        <time>2023-01-27T08:44:37.000Z</time>
      </trkpt>
      <trkpt lat="40.098732747137546539306640625" lon="0.030000507831573486328125">
        <ele>363.20001220703125</ele>
        <time>2023-01-27T08:44:38.000Z</time>
      </trkpt>
      <trkpt lat="40.09871053509414196014404296875" lon="0.0299889408051967620849609375">
        <ele>363.399993896484375</ele>
        <time>2023-01-27T08:44:39.000Z</time>
      </trkpt>
      <trkpt lat="40.09867943823337554931640625" lon="0.02997427247464656829833984375">
        <ele>363.399993896484375</ele>
        <time>2023-01-27T08:44:40.000Z</time>
      </trkpt>
      <trkpt lat="40.09864431805908679962158203125" lon="0.029952228069305419921875">
        <ele>363.600006103515625</ele>
        <time>2023-01-27T08:44:41.000Z</time>
      </trkpt>
      <trkpt lat="40.09860995225608348846435546875" lon="0.0299269147217273712158203125">
        <ele>363.600006103515625</ele>
        <time>2023-01-27T08:44:42.000Z</time>
      </trkpt>
      <trkpt lat="40.09857106022536754608154296875" lon="0.0299101509153842926025390625">
        <ele>363.600006103515625</ele>
        <time>2023-01-27T08:44:43.000Z</time>
      </trkpt>
      <trkpt lat="40.0985314138233661651611328125" lon="0.02990688197314739227294921875">
        <ele>363.79998779296875</ele>
        <time>2023-01-27T08:44:44.000Z</time>
      </trkpt>
      <trkpt lat="40.09849193505942821502685546875" lon="0.0299091450870037078857421875">
        <ele>364</ele>
        <time>2023-01-27T08:44:45.000Z</time>
      </trkpt>
      <trkpt lat="40.0984553061425685882568359375" lon="0.02991643734276294708251953125">
        <ele>364</ele>
        <time>2023-01-27T08:44:46.000Z</time>
      </trkpt>
      <trkpt lat="40.09841792285442352294921875" lon="0.02992716617882251739501953125">
        <ele>364</ele>
        <time>2023-01-27T08:44:47.000Z</time>
      </trkpt>
      <trkpt lat="40.09838037192821502685546875" lon="0.0299383141100406646728515625">
        <ele>364</ele>
        <time>2023-01-27T08:44:48.000Z</time>
      </trkpt>
      <trkpt lat="40.09834206663072109222412109375" lon="0.029945187270641326904296875">
        <ele>364</ele>
        <time>2023-01-27T08:44:49.000Z</time>
      </trkpt>
      <trkpt lat="40.09830585680902004241943359375" lon="0.02993890084326267242431640625">
        <ele>364</ele>
        <time>2023-01-27T08:44:50.000Z</time>
      </trkpt>
      <trkpt lat="40.09827802889049053192138671875" lon="0.0299252383410930633544921875">
        <ele>364</ele>
        <time>2023-01-27T08:44:51.000Z</time>
      </trkpt>
      <trkpt lat="40.0982568226754665374755859375" lon="0.02990730106830596923828125">
        <ele>364</ele>
        <time>2023-01-27T08:44:52.000Z</time>
      </trkpt>
      <trkpt lat="40.0982375442981719970703125" lon="0.02988156862556934356689453125">
        <ele>364.20001220703125</ele>
        <time>2023-01-27T08:44:53.000Z</time>
      </trkpt>
      <trkpt lat="40.09822539053857326507568359375" lon="0.029859356582164764404296875">
        <ele>364.399993896484375</ele>
        <time>2023-01-27T08:44:54.000Z</time>
      </trkpt>
      <trkpt lat="40.0982175953686237335205078125" lon="0.0298350490629673004150390625">
        <ele>364.399993896484375</ele>
        <time>2023-01-27T08:44:55.000Z</time>
      </trkpt>
      <trkpt lat="40.09821273386478424072265625" lon="0.0298167765140533447265625">
        <ele>364.79998779296875</ele>
        <time>2023-01-27T08:44:56.000Z</time>
      </trkpt>
      <trkpt lat="40.09820275940001010894775390625" lon="0.0297961570322513580322265625">
        <ele>365.20001220703125</ele>
        <time>2023-01-27T08:44:57.000Z</time>
      </trkpt>
      <trkpt lat="40.0981877557933330535888671875" lon="0.029774196445941925048828125">
        <ele>365.600006103515625</ele>
        <time>2023-01-27T08:44:58.000Z</time>
      </trkpt>
      <trkpt lat="40.09817828424274921417236328125" lon="0.02975718118250370025634765625">
        <ele>365.79998779296875</ele>
        <time>2023-01-27T08:44:59.000Z</time>
      </trkpt>
      <trkpt lat="40.09816571138799190521240234375" lon="0.02973295748233795166015625">
        <ele>366.20001220703125</ele>
        <time>2023-01-27T08:45:00.000Z</time>
      </trkpt>
      <trkpt lat="40.0981505401432514190673828125" lon="0.02970856614410877227783203125">
        <ele>366.600006103515625</ele>
        <time>2023-01-27T08:45:01.000Z</time>
      </trkpt>
      <trkpt lat="40.0981361232697963714599609375" lon="0.029684342443943023681640625">
        <ele>367.20001220703125</ele>
        <time>2023-01-27T08:45:02.000Z</time>
      </trkpt>
      <trkpt lat="40.098117850720882415771484375" lon="0.0296531617641448974609375">
        <ele>367.20001220703125</ele>
        <time>2023-01-27T08:45:03.000Z</time>
      </trkpt>
      <trkpt lat="40.09810301475226879119873046875" lon="0.029629357159137725830078125">
        <ele>367.600006103515625</ele>
        <time>2023-01-27T08:45:04.000Z</time>
      </trkpt>
      <trkpt lat="40.09808801114559173583984375" lon="0.02960714511573314666748046875">
        <ele>367.600006103515625</ele>
        <time>2023-01-27T08:45:05.000Z</time>
      </trkpt>
      <trkpt lat="40.09807066060602664947509765625" lon="0.02959189005196094512939453125">
        <ele>368</ele>
        <time>2023-01-27T08:45:06.000Z</time>
      </trkpt>
      <trkpt lat="40.09804970584809780120849609375" lon="0.02957579679787158966064453125">
        <ele>368.20001220703125</ele>
        <time>2023-01-27T08:45:07.000Z</time>
      </trkpt>
      <trkpt lat="40.09802372194826602935791015625" lon="0.029559619724750518798828125">
        <ele>369</ele>
        <time>2023-01-27T08:45:08.000Z</time>
      </trkpt>
      <trkpt lat="40.098002851009368896484375" lon="0.0295430235564708709716796875">
        <ele>369.20001220703125</ele>
        <time>2023-01-27T08:45:09.000Z</time>
      </trkpt>
      <trkpt lat="40.09798633866012096405029296875" lon="0.0295225717127323150634765625">
        <ele>369.79998779296875</ele>
        <time>2023-01-27T08:45:10.000Z</time>
      </trkpt>
      <trkpt lat="40.09797728620469570159912109375" lon="0.0295048020780086517333984375">
        <ele>370</ele>
        <time>2023-01-27T08:45:11.000Z</time>
      </trkpt>
      <trkpt lat="40.09796437807381153106689453125" lon="0.02948242239654064178466796875">
        <ele>370.399993896484375</ele>
        <time>2023-01-27T08:45:12.000Z</time>
      </trkpt>
      <trkpt lat="40.0979450158774852752685546875" lon="0.029453001916408538818359375">
        <ele>370.600006103515625</ele>
        <time>2023-01-27T08:45:13.000Z</time>
      </trkpt>
      <trkpt lat="40.09792665950953960418701171875" lon="0.0294243358075618743896484375">
        <ele>370.600006103515625</ele>
        <time>2023-01-27T08:45:14.000Z</time>
      </trkpt>
      <trkpt lat="40.0979111529886722564697265625" lon="0.02940178848803043365478515625">
        <ele>371.20001220703125</ele>
        <time>2023-01-27T08:45:15.000Z</time>
      </trkpt>
      <trkpt lat="40.09789078496396541595458984375" lon="0.02937479875981807708740234375">
        <ele>371.399993896484375</ele>
        <time>2023-01-27T08:45:16.000Z</time>
      </trkpt>
      <trkpt lat="40.09786672890186309814453125" lon="0.029344372451305389404296875">
        <ele>372</ele>
        <time>2023-01-27T08:45:17.000Z</time>
      </trkpt>
      <trkpt lat="40.09785004891455173492431640625" lon="0.02932433970272541046142578125">
        <ele>372.399993896484375</ele>
        <time>2023-01-27T08:45:18.000Z</time>
      </trkpt>
      <trkpt lat="40.0978325307369232177734375" lon="0.0293056480586528778076171875">
        <ele>372.600006103515625</ele>
        <time>2023-01-27T08:45:19.000Z</time>
      </trkpt>
      <trkpt lat="40.09781752713024616241455078125" lon="0.029287375509738922119140625">
        <ele>372.79998779296875</ele>
        <time>2023-01-27T08:45:20.000Z</time>
      </trkpt>
      <trkpt lat="40.0978021882474422454833984375" lon="0.02926683984696865081787109375">
        <ele>373</ele>
        <time>2023-01-27T08:45:21.000Z</time>
      </trkpt>
      <trkpt lat="40.09778651408851146697998046875" lon="0.02924605272710323333740234375">
        <ele>373.20001220703125</ele>
        <time>2023-01-27T08:45:22.000Z</time>
      </trkpt>
      <trkpt lat="40.0977679900825023651123046875" lon="0.0292211584746837615966796875">
        <ele>373.399993896484375</ele>
        <time>2023-01-27T08:45:23.000Z</time>
      </trkpt>
      <trkpt lat="40.09775365702807903289794921875" lon="0.02919995225965976715087890625">
        <ele>373.600006103515625</ele>
        <time>2023-01-27T08:45:24.000Z</time>
      </trkpt>
      <trkpt lat="40.0977401621639728546142578125" lon="0.029172711074352264404296875">
        <ele>374</ele>
        <time>2023-01-27T08:45:25.000Z</time>
      </trkpt>
      <trkpt lat="40.09773186407983303070068359375" lon="0.029145888984203338623046875">
        <ele>374.20001220703125</ele>
        <time>2023-01-27T08:45:26.000Z</time>
      </trkpt>
      <trkpt lat="40.0977203808724880218505859375" lon="0.029112361371517181396484375">
        <ele>375</ele>
        <time>2023-01-27T08:45:27.000Z</time>
      </trkpt>
      <trkpt lat="40.0977036170661449432373046875" lon="0.0290803425014019012451171875">
        <ele>375.20001220703125</ele>
        <time>2023-01-27T08:45:28.000Z</time>
      </trkpt>
      <trkpt lat="40.097691714763641357421875" lon="0.0290469825267791748046875">
        <ele>375.600006103515625</ele>
        <time>2023-01-27T08:45:29.000Z</time>
      </trkpt>
      <trkpt lat="40.09768492542207241058349609375" lon="0.029013119637966156005859375">
        <ele>375.79998779296875</ele>
        <time>2023-01-27T08:45:30.000Z</time>
      </trkpt>
      <trkpt lat="40.0976818241178989410400390625" lon="0.028984956443309783935546875">
        <ele>376</ele>
        <time>2023-01-27T08:45:31.000Z</time>
      </trkpt>
      <trkpt lat="40.097674615681171417236328125" lon="0.0289469026029109954833984375">
        <ele>376.20001220703125</ele>
        <time>2023-01-27T08:45:32.000Z</time>
      </trkpt>
      <trkpt lat="40.0976700894534587860107421875" lon="0.0288959406316280364990234375">
        <ele>376.600006103515625</ele>
        <time>2023-01-27T08:45:33.000Z</time>
      </trkpt>
      <trkpt lat="40.09767151437699794769287109375" lon="0.02886182628571987152099609375">
        <ele>376.600006103515625</ele>
        <time>2023-01-27T08:45:34.000Z</time>
      </trkpt>
      <trkpt lat="40.097675286233425140380859375" lon="0.02882561646401882171630859375">
        <ele>377.20001220703125</ele>
        <time>2023-01-27T08:45:35.000Z</time>
      </trkpt>
      <trkpt lat="40.0976818241178989410400390625" lon="0.0288010574877262115478515625">
        <ele>377.600006103515625</ele>
        <time>2023-01-27T08:45:36.000Z</time>
      </trkpt>
      <trkpt lat="40.0976908765733242034912109375" lon="0.028767697513103485107421875">
        <ele>378</ele>
        <time>2023-01-27T08:45:37.000Z</time>
      </trkpt>
      <trkpt lat="40.097699426114559173583984375" lon="0.02873492427170276641845703125">
        <ele>378.600006103515625</ele>
        <time>2023-01-27T08:45:38.000Z</time>
      </trkpt>
      <trkpt lat="40.09770956821739673614501953125" lon="0.0287068448960781097412109375">
        <ele>379</ele>
        <time>2023-01-27T08:45:39.000Z</time>
      </trkpt>
      <trkpt lat="40.09771795012056827545166015625" lon="0.02867876552045345306396484375">
        <ele>379.20001220703125</ele>
        <time>2023-01-27T08:45:40.000Z</time>
      </trkpt>
      <trkpt lat="40.0977225601673126220703125" lon="0.02866015769541263580322265625">
        <ele>379.399993896484375</ele>
        <time>2023-01-27T08:45:41.000Z</time>
      </trkpt>
      <trkpt lat="40.09772884659469127655029296875" lon="0.0286377780139446258544921875">
        <ele>379.79998779296875</ele>
        <time>2023-01-27T08:45:42.000Z</time>
      </trkpt>
      <trkpt lat="40.0977386534214019775390625" lon="0.0286055915057659149169921875">
        <ele>380.399993896484375</ele>
        <time>2023-01-27T08:45:43.000Z</time>
      </trkpt>
      <trkpt lat="40.09775047190487384796142578125" lon="0.02857315354049205780029296875">
        <ele>380.600006103515625</ele>
        <time>2023-01-27T08:45:44.000Z</time>
      </trkpt>
      <trkpt lat="40.0977609492838382720947265625" lon="0.0285435654222965240478515625">
        <ele>381</ele>
        <time>2023-01-27T08:45:45.000Z</time>
      </trkpt>
      <trkpt lat="40.097771845757961273193359375" lon="0.02851012162864208221435546875">
        <ele>381.399993896484375</ele>
        <time>2023-01-27T08:45:46.000Z</time>
      </trkpt>
      <trkpt lat="40.09778064675629138946533203125" lon="0.02847994677722454071044921875">
        <ele>381.600006103515625</ele>
        <time>2023-01-27T08:45:47.000Z</time>
      </trkpt>
      <trkpt lat="40.09778894484043121337890625" lon="0.0284389592707157135009765625">
        <ele>381.79998779296875</ele>
        <time>2023-01-27T08:45:48.000Z</time>
      </trkpt>
      <trkpt lat="40.09779389016330242156982421875" lon="0.0284050963819026947021484375">
        <ele>382</ele>
        <time>2023-01-27T08:45:49.000Z</time>
      </trkpt>
      <trkpt lat="40.0977949798107147216796875" lon="0.0283779390156269073486328125">
        <ele>382.20001220703125</ele>
        <time>2023-01-27T08:45:50.000Z</time>
      </trkpt>
      <trkpt lat="40.0977949798107147216796875" lon="0.02835354767739772796630859375">
        <ele>382.399993896484375</ele>
        <time>2023-01-27T08:45:51.000Z</time>
      </trkpt>
      <trkpt lat="40.09779305197298526763916015625" lon="0.028326474130153656005859375">
        <ele>382.600006103515625</ele>
        <time>2023-01-27T08:45:52.000Z</time>
      </trkpt>
      <trkpt lat="40.0977842509746551513671875" lon="0.0282897613942623138427734375">
        <ele>382.600006103515625</ele>
        <time>2023-01-27T08:45:53.000Z</time>
      </trkpt>
      <trkpt lat="40.09777528233826160430908203125" lon="0.02825774252414703369140625">
        <ele>382.79998779296875</ele>
        <time>2023-01-27T08:45:54.000Z</time>
      </trkpt>
      <trkpt lat="40.09776338003575801849365234375" lon="0.02823226153850555419921875">
        <ele>382.79998779296875</ele>
        <time>2023-01-27T08:45:55.000Z</time>
      </trkpt>
      <trkpt lat="40.09775139391422271728515625" lon="0.028214491903781890869140625">
        <ele>383</ele>
        <time>2023-01-27T08:45:56.000Z</time>
      </trkpt>
      <trkpt lat="40.097735635936260223388671875" lon="0.0281938724219799041748046875">
        <ele>383.20001220703125</ele>
        <time>2023-01-27T08:45:57.000Z</time>
      </trkpt>
      <trkpt lat="40.097720883786678314208984375" lon="0.0281730853021144866943359375">
        <ele>383.79998779296875</ele>
        <time>2023-01-27T08:45:58.000Z</time>
      </trkpt>
      <trkpt lat="40.0977113284170627593994140625" lon="0.028152130544185638427734375">
        <ele>384.20001220703125</ele>
        <time>2023-01-27T08:45:59.000Z</time>
      </trkpt>
      <trkpt lat="40.0977056287229061126708984375" lon="0.0281241349875926971435546875">
        <ele>384.600006103515625</ele>
        <time>2023-01-27T08:46:00.000Z</time>
      </trkpt>
      <trkpt lat="40.09770386852324008941650390625" lon="0.02809521742165088653564453125">
        <ele>385</ele>
        <time>2023-01-27T08:46:01.000Z</time>
      </trkpt>
      <trkpt lat="40.09770537726581096649169921875" lon="0.02806889824569225311279296875">
        <ele>385.20001220703125</ele>
        <time>2023-01-27T08:46:02.000Z</time>
      </trkpt>
      <trkpt lat="40.0977037847042083740234375" lon="0.02804442308843135833740234375">
        <ele>385.600006103515625</ele>
        <time>2023-01-27T08:46:03.000Z</time>
      </trkpt>
      <trkpt lat="40.0977059639990329742431640625" lon="0.028025396168231964111328125">
        <ele>386</ele>
        <time>2023-01-27T08:46:04.000Z</time>
      </trkpt>
      <trkpt lat="40.09770981967449188232421875" lon="0.028002262115478515625">
        <ele>386.79998779296875</ele>
        <time>2023-01-27T08:46:05.000Z</time>
      </trkpt>
      <trkpt lat="40.09771090932190418243408203125" lon="0.02797015942633152008056640625">
        <ele>387</ele>
        <time>2023-01-27T08:46:06.000Z</time>
      </trkpt>
      <trkpt lat="40.0977051258087158203125" lon="0.02793847583234310150146484375">
        <ele>387.600006103515625</ele>
        <time>2023-01-27T08:46:07.000Z</time>
      </trkpt>
      <trkpt lat="40.0976962409913539886474609375" lon="0.02789170481264591217041015625">
        <ele>387.600006103515625</ele>
        <time>2023-01-27T08:46:08.000Z</time>
      </trkpt>
      <trkpt lat="40.09768299758434295654296875" lon="0.02784334123134613037109375">
        <ele>388</ele>
        <time>2023-01-27T08:46:09.000Z</time>
      </trkpt>
      <trkpt lat="40.097673274576663970947265625" lon="0.0278052873909473419189453125">
        <ele>388</ele>
        <time>2023-01-27T08:46:10.000Z</time>
      </trkpt>
      <trkpt lat="40.09765684604644775390625" lon="0.02776195295155048370361328125">
        <ele>388.399993896484375</ele>
        <time>2023-01-27T08:46:11.000Z</time>
      </trkpt>
      <trkpt lat="40.097641088068485260009765625" lon="0.027727670967578887939453125">
        <ele>388.399993896484375</ele>
        <time>2023-01-27T08:46:12.000Z</time>
      </trkpt>
      <trkpt lat="40.0976265035569667816162109375" lon="0.02769724465906620025634765625">
        <ele>388.600006103515625</ele>
        <time>2023-01-27T08:46:13.000Z</time>
      </trkpt>
      <trkpt lat="40.0976194627583026885986328125" lon="0.0276644714176654815673828125">
        <ele>388.600006103515625</ele>
        <time>2023-01-27T08:46:14.000Z</time>
      </trkpt>
      <trkpt lat="40.0976177863776683807373046875" lon="0.0276349671185016632080078125">
        <ele>388.79998779296875</ele>
        <time>2023-01-27T08:46:15.000Z</time>
      </trkpt>
      <trkpt lat="40.09761502034962177276611328125" lon="0.027596913278102874755859375">
        <ele>388.79998779296875</ele>
        <time>2023-01-27T08:46:16.000Z</time>
      </trkpt>
      <trkpt lat="40.09760982356965541839599609375" lon="0.02755827270448207855224609375">
        <ele>388.79998779296875</ele>
        <time>2023-01-27T08:46:17.000Z</time>
      </trkpt>
      <trkpt lat="40.09758367203176021575927734375" lon="0.027511753141880035400390625">
        <ele>388.79998779296875</ele>
        <time>2023-01-27T08:46:18.000Z</time>
      </trkpt>
      <trkpt lat="40.09755156934261322021484375" lon="0.02748853527009487152099609375">
        <ele>389</ele>
        <time>2023-01-27T08:46:19.000Z</time>
      </trkpt>
      <trkpt lat="40.09751804172992706298828125" lon="0.02747126854956150054931640625">
        <ele>389.399993896484375</ele>
        <time>2023-01-27T08:46:20.000Z</time>
      </trkpt>
      <trkpt lat="40.0974892079830169677734375" lon="0.02746791578829288482666015625">
        <ele>389.399993896484375</ele>
        <time>2023-01-27T08:46:21.000Z</time>
      </trkpt>
      <trkpt lat="40.09745626710355281829833984375" lon="0.0274646468460559844970703125">
        <ele>389.79998779296875</ele>
        <time>2023-01-27T08:46:22.000Z</time>
      </trkpt>
      <trkpt lat="40.09742106311023235321044921875" lon="0.027469508349895477294921875">
        <ele>389.79998779296875</ele>
        <time>2023-01-27T08:46:23.000Z</time>
      </trkpt>
      <trkpt lat="40.09738619439303874969482421875" lon="0.027488954365253448486328125">
        <ele>390</ele>
        <time>2023-01-27T08:46:24.000Z</time>
      </trkpt>
      <trkpt lat="40.09733875282108783721923828125" lon="0.02751233987510204315185546875">
        <ele>390</ele>
        <time>2023-01-27T08:46:25.000Z</time>
      </trkpt>
      <trkpt lat="40.0973177142441272735595703125" lon="0.027530528604984283447265625">
        <ele>390.399993896484375</ele>
        <time>2023-01-27T08:46:26.000Z</time>
      </trkpt>
      <trkpt lat="40.09729885496199131011962890625" lon="0.02755911089479923248291015625">
        <ele>390.600006103515625</ele>
        <time>2023-01-27T08:46:27.000Z</time>
      </trkpt>
      <trkpt lat="40.0972808338701725006103515625" lon="0.02758995629847049713134765625">
        <ele>390.79998779296875</ele>
        <time>2023-01-27T08:46:28.000Z</time>
      </trkpt>
      <trkpt lat="40.09726189076900482177734375" lon="0.02761828713119029998779296875">
        <ele>390.79998779296875</ele>
        <time>2023-01-27T08:46:29.000Z</time>
      </trkpt>
      <trkpt lat="40.09723934344947338104248046875" lon="0.02763857133686542510986328125">
        <ele>390.79998779296875</ele>
        <time>2023-01-27T08:46:30.000Z</time>
      </trkpt>
      <trkpt lat="40.0972110964357852935791015625" lon="0.0276560895144939422607421875">
        <ele>391</ele>
        <time>2023-01-27T08:46:31.000Z</time>
      </trkpt>
      <trkpt lat="40.0971785746514797210693359375" lon="0.027670003473758697509765625">
        <ele>391</ele>
        <time>2023-01-27T08:46:32.000Z</time>
      </trkpt>
      <trkpt lat="40.09714647196233272552490234375" lon="0.02767327241599559783935546875">
        <ele>391.20001220703125</ele>
        <time>2023-01-27T08:46:33.000Z</time>
      </trkpt>
      <trkpt lat="40.097125433385372161865234375" lon="0.027665980160236358642578125">
        <ele>391.20001220703125</ele>
        <time>2023-01-27T08:46:34.000Z</time>
      </trkpt>
      <trkpt lat="40.0971056520938873291015625" lon="0.02764997072517871856689453125">
        <ele>391.399993896484375</ele>
        <time>2023-01-27T08:46:35.000Z</time>
      </trkpt>
      <trkpt lat="40.09708813391625881195068359375" lon="0.0276289321482181549072265625">
        <ele>391.79998779296875</ele>
        <time>2023-01-27T08:46:36.000Z</time>
      </trkpt>
      <trkpt lat="40.0970850326120853424072265625" lon="0.02760722301900386810302734375">
        <ele>392.20001220703125</ele>
        <time>2023-01-27T08:46:37.000Z</time>
      </trkpt>
      <trkpt lat="40.0970722921192646026611328125" lon="0.02757134847342967987060546875">
        <ele>392.79998779296875</ele>
        <time>2023-01-27T08:46:38.000Z</time>
      </trkpt>
      <trkpt lat="40.09706072509288787841796875" lon="0.02754586748778820037841796875">
        <ele>393.20001220703125</ele>
        <time>2023-01-27T08:46:39.000Z</time>
      </trkpt>
      <trkpt lat="40.09705401957035064697265625" lon="0.02752155996859073638916015625">
        <ele>393.399993896484375</ele>
        <time>2023-01-27T08:46:40.000Z</time>
      </trkpt>
      <trkpt lat="40.09705175645649433135986328125" lon="0.027500353753566741943359375">
        <ele>393.600006103515625</ele>
        <time>2023-01-27T08:46:41.000Z</time>
      </trkpt>
      <trkpt lat="40.0970464758574962615966796875" lon="0.02746422775089740753173828125">
        <ele>394.20001220703125</ele>
        <time>2023-01-27T08:46:42.000Z</time>
      </trkpt>
      <trkpt lat="40.09704018943011760711669921875" lon="0.02743086777627468109130859375">
        <ele>394.600006103515625</ele>
        <time>2023-01-27T08:46:43.000Z</time>
      </trkpt>
      <trkpt lat="40.0970253534615039825439453125" lon="0.02739650197327136993408203125">
        <ele>394.79998779296875</ele>
        <time>2023-01-27T08:46:44.000Z</time>
      </trkpt>
      <trkpt lat="40.097014792263507843017578125" lon="0.0273650698363780975341796875">
        <ele>394.79998779296875</ele>
        <time>2023-01-27T08:46:45.000Z</time>
      </trkpt>
      <trkpt lat="40.09700045920908451080322265625" lon="0.027320645749568939208984375">
        <ele>394.79998779296875</ele>
        <time>2023-01-27T08:46:46.000Z</time>
      </trkpt>
      <trkpt lat="40.0969871319830417633056640625" lon="0.0272906385362148284912109375">
        <ele>395</ele>
        <time>2023-01-27T08:46:47.000Z</time>
      </trkpt>
      <trkpt lat="40.09697129018604755401611328125" lon="0.02726390026509761810302734375">
        <ele>395.20001220703125</ele>
        <time>2023-01-27T08:46:48.000Z</time>
      </trkpt>
      <trkpt lat="40.0969552807509899139404296875" lon="0.02724093385040760040283203125">
        <ele>395.399993896484375</ele>
        <time>2023-01-27T08:46:49.000Z</time>
      </trkpt>
      <trkpt lat="40.09694027714431285858154296875" lon="0.027216710150241851806640625">
        <ele>395.399993896484375</ele>
        <time>2023-01-27T08:46:50.000Z</time>
      </trkpt>
      <trkpt lat="40.096924938261508941650390625" lon="0.02719466574490070343017578125">
        <ele>395.600006103515625</ele>
        <time>2023-01-27T08:46:51.000Z</time>
      </trkpt>
      <trkpt lat="40.09690909646451473236083984375" lon="0.02717538736760616302490234375">
        <ele>395.79998779296875</ele>
        <time>2023-01-27T08:46:52.000Z</time>
      </trkpt>
      <trkpt lat="40.09689065627753734588623046875" lon="0.027157701551914215087890625">
        <ele>396.20001220703125</ele>
        <time>2023-01-27T08:46:53.000Z</time>
      </trkpt>
      <trkpt lat="40.096873305737972259521484375" lon="0.02713968046009540557861328125">
        <ele>396.399993896484375</ele>
        <time>2023-01-27T08:46:54.000Z</time>
      </trkpt>
      <trkpt lat="40.09685411117970943450927734375" lon="0.027126185595989227294921875">
        <ele>396.79998779296875</ele>
        <time>2023-01-27T08:46:55.000Z</time>
      </trkpt>
      <trkpt lat="40.096835084259510040283203125" lon="0.0271132774651050567626953125">
        <ele>397</ele>
        <time>2023-01-27T08:46:56.000Z</time>
      </trkpt>
      <trkpt lat="40.09681823663413524627685546875" lon="0.027097351849079132080078125">
        <ele>397.20001220703125</ele>
        <time>2023-01-27T08:46:57.000Z</time>
      </trkpt>
      <trkpt lat="40.09680113755166530609130859375" lon="0.0270794145762920379638671875">
        <ele>397.399993896484375</ele>
        <time>2023-01-27T08:46:58.000Z</time>
      </trkpt>
      <trkpt lat="40.09678537957370281219482421875" lon="0.02705954946577548980712890625">
        <ele>397.600006103515625</ele>
        <time>2023-01-27T08:46:59.000Z</time>
      </trkpt>
      <trkpt lat="40.0967732258141040802001953125" lon="0.02703339792788028717041015625">
        <ele>397.600006103515625</ele>
        <time>2023-01-27T08:47:00.000Z</time>
      </trkpt>
      <trkpt lat="40.09676031768321990966796875" lon="0.02700607292354106903076171875">
        <ele>398</ele>
        <time>2023-01-27T08:47:01.000Z</time>
      </trkpt>
      <trkpt lat="40.09674464352428913116455078125" lon="0.026975311338901519775390625">
        <ele>398.20001220703125</ele>
        <time>2023-01-27T08:47:02.000Z</time>
      </trkpt>
      <trkpt lat="40.0967247784137725830078125" lon="0.026940442621707916259765625">
        <ele>398.600006103515625</ele>
        <time>2023-01-27T08:47:03.000Z</time>
      </trkpt>
      <trkpt lat="40.0967065058648586273193359375" lon="0.02691236324608325958251953125">
        <ele>398.600006103515625</ele>
        <time>2023-01-27T08:47:04.000Z</time>
      </trkpt>
      <trkpt lat="40.09668295271694660186767578125" lon="0.02689182758331298828125">
        <ele>398.600006103515625</ele>
        <time>2023-01-27T08:47:05.000Z</time>
      </trkpt>
      <trkpt lat="40.09666266851127147674560546875" lon="0.0268671847879886627197265625">
        <ele>399</ele>
        <time>2023-01-27T08:47:06.000Z</time>
      </trkpt>
      <trkpt lat="40.09664523415267467498779296875" lon="0.026838518679141998291015625">
        <ele>399</ele>
        <time>2023-01-27T08:47:07.000Z</time>
      </trkpt>
      <trkpt lat="40.09662947617471218109130859375" lon="0.0268095172941684722900390625">
        <ele>399</ele>
        <time>2023-01-27T08:47:08.000Z</time>
      </trkpt>
      <trkpt lat="40.0966121256351470947265625" lon="0.02678386867046356201171875">
        <ele>399.20001220703125</ele>
        <time>2023-01-27T08:47:09.000Z</time>
      </trkpt>
      <trkpt lat="40.09659527800977230072021484375" lon="0.026763416826725006103515625">
        <ele>399.20001220703125</ele>
        <time>2023-01-27T08:47:10.000Z</time>
      </trkpt>
      <trkpt lat="40.09657382033765316009521484375" lon="0.02673617564141750335693359375">
        <ele>399.20001220703125</ele>
        <time>2023-01-27T08:47:11.000Z</time>
      </trkpt>
      <trkpt lat="40.09654733352363109588623046875" lon="0.02669870853424072265625">
        <ele>399.600006103515625</ele>
        <time>2023-01-27T08:47:12.000Z</time>
      </trkpt>
      <trkpt lat="40.096529982984066009521484375" lon="0.0266609899699687957763671875">
        <ele>399.79998779296875</ele>
        <time>2023-01-27T08:47:13.000Z</time>
      </trkpt>
      <trkpt lat="40.0965182483196258544921875" lon="0.026622600853443145751953125">
        <ele>400.20001220703125</ele>
        <time>2023-01-27T08:47:14.000Z</time>
      </trkpt>
      <trkpt lat="40.09651011787354946136474609375" lon="0.02658915705978870391845703125">
        <ele>400.20001220703125</ele>
        <time>2023-01-27T08:47:15.000Z</time>
      </trkpt>
      <trkpt lat="40.09649343788623809814453125" lon="0.02654322423040866851806640625">
        <ele>400.399993896484375</ele>
        <time>2023-01-27T08:47:16.000Z</time>
      </trkpt>
      <trkpt lat="40.09648044593632221221923828125" lon="0.0265211798250675201416015625">
        <ele>400.399993896484375</ele>
        <time>2023-01-27T08:47:17.000Z</time>
      </trkpt>
      <trkpt lat="40.09646753780543804168701171875" lon="0.0264962017536163330078125">
        <ele>400.600006103515625</ele>
        <time>2023-01-27T08:47:18.000Z</time>
      </trkpt>
      <trkpt lat="40.09646317921578884124755859375" lon="0.02646694891154766082763671875">
        <ele>400.600006103515625</ele>
        <time>2023-01-27T08:47:19.000Z</time>
      </trkpt>
      <trkpt lat="40.09645245037972927093505859375" lon="0.0264323316514492034912109375">
        <ele>401</ele>
        <time>2023-01-27T08:47:20.000Z</time>
      </trkpt>
      <trkpt lat="40.09643719531595706939697265625" lon="0.02639955841004848480224609375">
        <ele>401.20001220703125</ele>
        <time>2023-01-27T08:47:21.000Z</time>
      </trkpt>
      <trkpt lat="40.09642411954700946807861328125" lon="0.0263666175305843353271484375">
        <ele>401.399993896484375</ele>
        <time>2023-01-27T08:47:22.000Z</time>
      </trkpt>
      <trkpt lat="40.09641523472964763641357421875" lon="0.0263325870037078857421875">
        <ele>401.600006103515625</ele>
        <time>2023-01-27T08:47:23.000Z</time>
      </trkpt>
      <trkpt lat="40.09641699492931365966796875" lon="0.02628589980304241180419921875">
        <ele>401.79998779296875</ele>
        <time>2023-01-27T08:47:24.000Z</time>
      </trkpt>
      <trkpt lat="40.09642302989959716796875" lon="0.02623946405947208404541015625">
        <ele>402</ele>
        <time>2023-01-27T08:47:25.000Z</time>
      </trkpt>
      <trkpt lat="40.0964245386421680450439453125" lon="0.0262030027806758880615234375">
        <ele>402.399993896484375</ele>
        <time>2023-01-27T08:47:26.000Z</time>
      </trkpt>
      <trkpt lat="40.09642763994634151458740234375" lon="0.02616855315864086151123046875">
        <ele>402.79998779296875</ele>
        <time>2023-01-27T08:47:27.000Z</time>
      </trkpt>
      <trkpt lat="40.096436105668544769287109375" lon="0.02613133750855922698974609375">
        <ele>402.79998779296875</ele>
        <time>2023-01-27T08:47:28.000Z</time>
      </trkpt>
      <trkpt lat="40.09644557721912860870361328125" lon="0.0261024199426174163818359375">
        <ele>403.20001220703125</ele>
        <time>2023-01-27T08:47:29.000Z</time>
      </trkpt>
      <trkpt lat="40.09645077399909496307373046875" lon="0.0260776095092296600341796875">
        <ele>403.20001220703125</ele>
        <time>2023-01-27T08:47:30.000Z</time>
      </trkpt>
      <trkpt lat="40.09645530022680759429931640625" lon="0.02606059424579143524169921875">
        <ele>403.600006103515625</ele>
        <time>2023-01-27T08:47:31.000Z</time>
      </trkpt>
      <trkpt lat="40.096464939415454864501953125" lon="0.026031844317913055419921875">
        <ele>403.79998779296875</ele>
        <time>2023-01-27T08:47:32.000Z</time>
      </trkpt>
      <trkpt lat="40.09647374041378498077392578125" lon="0.0260058604180812835693359375">
        <ele>404.399993896484375</ele>
        <time>2023-01-27T08:47:33.000Z</time>
      </trkpt>
      <trkpt lat="40.09648413397371768951416015625" lon="0.0259787030518054962158203125">
        <ele>404.600006103515625</ele>
        <time>2023-01-27T08:47:34.000Z</time>
      </trkpt>
      <trkpt lat="40.09649536572396755218505859375" lon="0.0259570777416229248046875">
        <ele>405</ele>
        <time>2023-01-27T08:47:35.000Z</time>
      </trkpt>
      <trkpt lat="40.0965128839015960693359375" lon="0.025928579270839691162109375">
        <ele>405.20001220703125</ele>
        <time>2023-01-27T08:47:36.000Z</time>
      </trkpt>
      <trkpt lat="40.096531994640827178955078125" lon="0.02590368501842021942138671875">
        <ele>405.399993896484375</ele>
        <time>2023-01-27T08:47:37.000Z</time>
      </trkpt>
      <trkpt lat="40.096555463969707489013671875" lon="0.02587233670055866241455078125">
        <ele>405.600006103515625</ele>
        <time>2023-01-27T08:47:38.000Z</time>
      </trkpt>
      <trkpt lat="40.09658639319241046905517578125" lon="0.0258341990411281585693359375">
        <ele>405.600006103515625</ele>
        <time>2023-01-27T08:47:39.000Z</time>
      </trkpt>
      <trkpt lat="40.096622519195079803466796875" lon="0.0257902778685092926025390625">
        <ele>405.600006103515625</ele>
        <time>2023-01-27T08:47:40.000Z</time>
      </trkpt>
      <trkpt lat="40.0966545380651950836181640625" lon="0.0257547385990619659423828125">
        <ele>405.600006103515625</ele>
        <time>2023-01-27T08:47:41.000Z</time>
      </trkpt>
      <trkpt lat="40.0966964475810527801513671875" lon="0.02570570446550846099853515625">
        <ele>405.600006103515625</ele>
        <time>2023-01-27T08:47:42.000Z</time>
      </trkpt>
      <trkpt lat="40.0967274606227874755859375" lon="0.02566982991993427276611328125">
        <ele>405.600006103515625</ele>
        <time>2023-01-27T08:47:43.000Z</time>
      </trkpt>
      <trkpt lat="40.096757300198078155517578125" lon="0.02563177607953548431396484375">
        <ele>405.600006103515625</ele>
        <time>2023-01-27T08:47:44.000Z</time>
      </trkpt>
      <trkpt lat="40.09678822942078113555908203125" lon="0.025588609278202056884765625">
        <ele>405.399993896484375</ele>
        <time>2023-01-27T08:47:45.000Z</time>
      </trkpt>
      <trkpt lat="40.09681999683380126953125" lon="0.02553991042077541351318359375">
        <ele>405.399993896484375</ele>
        <time>2023-01-27T08:47:46.000Z</time>
      </trkpt>
      <trkpt lat="40.09685151278972625732421875" lon="0.02547587268054485321044921875">
        <ele>405</ele>
        <time>2023-01-27T08:47:47.000Z</time>
      </trkpt>
      <trkpt lat="40.09686685167253017425537109375" lon="0.0253959931433200836181640625">
        <ele>404.399993896484375</ele>
        <time>2023-01-27T08:47:48.000Z</time>
      </trkpt>
      <trkpt lat="40.09687540121376514434814453125" lon="0.025305636227130889892578125">
        <ele>404</ele>
        <time>2023-01-27T08:47:49.000Z</time>
      </trkpt>
      <trkpt lat="40.096877329051494598388671875" lon="0.02522055990993976593017578125">
        <ele>403.399993896484375</ele>
        <time>2023-01-27T08:47:50.000Z</time>
      </trkpt>
      <trkpt lat="40.09687087498605251312255859375" lon="0.0251100026071071624755859375">
        <ele>403.20001220703125</ele>
        <time>2023-01-27T08:47:51.000Z</time>
      </trkpt>
      <trkpt lat="40.09686031378805637359619140625" lon="0.0250231660902500152587890625">
        <ele>401.600006103515625</ele>
        <time>2023-01-27T08:47:52.000Z</time>
      </trkpt>
      <trkpt lat="40.09685243479907512664794921875" lon="0.02494161017239093780517578125">
        <ele>401.20001220703125</ele>
        <time>2023-01-27T08:47:53.000Z</time>
      </trkpt>
      <trkpt lat="40.096847154200077056884765625" lon="0.0248816795647144317626953125">
        <ele>400.79998779296875</ele>
        <time>2023-01-27T08:47:54.000Z</time>
      </trkpt>
      <trkpt lat="40.0968454778194427490234375" lon="0.0248163007199764251708984375">
        <ele>400.600006103515625</ele>
        <time>2023-01-27T08:47:55.000Z</time>
      </trkpt>
      <trkpt lat="40.096851848065853118896484375" lon="0.0247455574572086334228515625">
        <ele>400.20001220703125</ele>
        <time>2023-01-27T08:47:56.000Z</time>
      </trkpt>
      <trkpt lat="40.09686701931059360504150390625" lon="0.02469987608492374420166015625">
        <ele>399.79998779296875</ele>
        <time>2023-01-27T08:47:57.000Z</time>
      </trkpt>
      <trkpt lat="40.09690054692327976226806640625" lon="0.0246669352054595947265625">
        <ele>399.399993896484375</ele>
        <time>2023-01-27T08:47:58.000Z</time>
      </trkpt>
      <trkpt lat="40.09694748558104038238525390625" lon="0.024637766182422637939453125">
        <ele>399</ele>
        <time>2023-01-27T08:47:59.000Z</time>
      </trkpt>
      <trkpt lat="40.09699861519038677215576171875" lon="0.02460583113133907318115234375">
        <ele>398.79998779296875</ele>
        <time>2023-01-27T08:48:00.000Z</time>
      </trkpt>
      <trkpt lat="40.09705712087452411651611328125" lon="0.02456425689160823822021484375">
        <ele>398.600006103515625</ele>
        <time>2023-01-27T08:48:01.000Z</time>
      </trkpt>
      <trkpt lat="40.09712015278637409210205078125" lon="0.024517066776752471923828125">
        <ele>398.20001220703125</ele>
        <time>2023-01-27T08:48:02.000Z</time>
      </trkpt>
      <trkpt lat="40.0971869565546512603759765625" lon="0.0244515202939510345458984375">
        <ele>398.20001220703125</ele>
        <time>2023-01-27T08:48:03.000Z</time>
      </trkpt>
      <trkpt lat="40.09724202565848827362060546875" lon="0.024393685162067413330078125">
        <ele>397.79998779296875</ele>
        <time>2023-01-27T08:48:04.000Z</time>
      </trkpt>
      <trkpt lat="40.09736624546349048614501953125" lon="0.02421791665256023406982421875">
        <ele>396.399993896484375</ele>
        <time>2023-01-27T08:48:06.000Z</time>
      </trkpt>
      <trkpt lat="40.09740614332258701324462890625" lon="0.02414767630398273468017578125">
        <ele>396</ele>
        <time>2023-01-27T08:48:07.000Z</time>
      </trkpt>
      <trkpt lat="40.097439251840114593505859375" lon="0.0240793637931346893310546875">
        <ele>395.20001220703125</ele>
        <time>2023-01-27T08:48:08.000Z</time>
      </trkpt>
      <trkpt lat="40.09746179915964603424072265625" lon="0.024014823138713836669921875">
        <ele>394.79998779296875</ele>
        <time>2023-01-27T08:48:09.000Z</time>
      </trkpt>
      <trkpt lat="40.09748292155563831329345703125" lon="0.02392907626926898956298828125">
        <ele>394.20001220703125</ele>
        <time>2023-01-27T08:48:10.000Z</time>
      </trkpt>
      <trkpt lat="40.09749918244779109954833984375" lon="0.0238379649817943572998046875">
        <ele>393.79998779296875</ele>
        <time>2023-01-27T08:48:11.000Z</time>
      </trkpt>
      <trkpt lat="40.0975088216364383697509765625" lon="0.023724474012851715087890625">
        <ele>393.600006103515625</ele>
        <time>2023-01-27T08:48:12.000Z</time>
      </trkpt>
      <trkpt lat="40.0974930636584758758544921875" lon="0.02356630750000476837158203125">
        <ele>393.20001220703125</ele>
        <time>2023-01-27T08:48:14.000Z</time>
      </trkpt>
      <trkpt lat="40.09748007170855998992919921875" lon="0.0234641321003437042236328125">
        <ele>392</ele>
        <time>2023-01-27T08:48:15.000Z</time>
      </trkpt>
      <trkpt lat="40.0974709354341030120849609375" lon="0.0233749486505985260009765625">
        <ele>391.600006103515625</ele>
        <time>2023-01-27T08:48:16.000Z</time>
      </trkpt>
      <trkpt lat="40.0974581949412822723388671875" lon="0.023288615047931671142578125">
        <ele>391.20001220703125</ele>
        <time>2023-01-27T08:48:17.000Z</time>
      </trkpt>
      <trkpt lat="40.09743413887917995452880859375" lon="0.0232120044529438018798828125">
        <ele>391</ele>
        <time>2023-01-27T08:48:18.000Z</time>
      </trkpt>
      <trkpt lat="40.0974055565893650054931640625" lon="0.02315693534910678863525390625">
        <ele>390</ele>
        <time>2023-01-27T08:48:19.000Z</time>
      </trkpt>
      <trkpt lat="40.0973631441593170166015625" lon="0.02310278825461864471435546875">
        <ele>389.20001220703125</ele>
        <time>2023-01-27T08:48:20.000Z</time>
      </trkpt>
      <trkpt lat="40.097318552434444427490234375" lon="0.02304964698851108551025390625">
        <ele>388.399993896484375</ele>
        <time>2023-01-27T08:48:21.000Z</time>
      </trkpt>
      <trkpt lat="40.09728611446917057037353515625" lon="0.02300354652106761932373046875">
        <ele>388</ele>
        <time>2023-01-27T08:48:22.000Z</time>
      </trkpt>
      <trkpt lat="40.0972633995115756988525390625" lon="0.022947303950786590576171875">
        <ele>387.600006103515625</ele>
        <time>2023-01-27T08:48:23.000Z</time>
      </trkpt>
      <trkpt lat="40.09725141339004039764404296875" lon="0.02289307303726673126220703125">
        <ele>387.399993896484375</ele>
        <time>2023-01-27T08:48:24.000Z</time>
      </trkpt>
      <trkpt lat="40.09724001400172710418701171875" lon="0.02282283268868923187255859375">
        <ele>387</ele>
        <time>2023-01-27T08:48:25.000Z</time>
      </trkpt>
      <trkpt lat="40.0972235016524791717529296875" lon="0.0227396003901958465576171875">
        <ele>386.399993896484375</ele>
        <time>2023-01-27T08:48:26.000Z</time>
      </trkpt>
      <trkpt lat="40.09720196016132831573486328125" lon="0.022678412497043609619140625">
        <ele>385.79998779296875</ele>
        <time>2023-01-27T08:48:27.000Z</time>
      </trkpt>
      <trkpt lat="40.09717865847051143646240234375" lon="0.0226309709250926971435546875">
        <ele>385.20001220703125</ele>
        <time>2023-01-27T08:48:28.000Z</time>
      </trkpt>
      <trkpt lat="40.0971557758748531341552734375" lon="0.0226091779768466949462890625">
        <ele>384.20001220703125</ele>
        <time>2023-01-27T08:48:29.000Z</time>
      </trkpt>
      <trkpt lat="40.0971217453479766845703125" lon="0.022602640092372894287109375">
        <ele>383.79998779296875</ele>
        <time>2023-01-27T08:48:30.000Z</time>
      </trkpt>
      <trkpt lat="40.09706751443445682525634765625" lon="0.02260423265397548675537109375">
        <ele>383</ele>
        <time>2023-01-27T08:48:31.000Z</time>
      </trkpt>
      <trkpt lat="40.0970250181853771209716796875" lon="0.0225967727601528167724609375">
        <ele>382.20001220703125</ele>
        <time>2023-01-27T08:48:32.000Z</time>
      </trkpt>
      <trkpt lat="40.09696684777736663818359375" lon="0.022575147449970245361328125">
        <ele>382</ele>
        <time>2023-01-27T08:48:33.000Z</time>
      </trkpt>
      <trkpt lat="40.09689501486718654632568359375" lon="0.02254187129437923431396484375">
        <ele>381.600006103515625</ele>
        <time>2023-01-27T08:48:34.000Z</time>
      </trkpt>
      <trkpt lat="40.09683701209723949432373046875" lon="0.02250683493912220001220703125">
        <ele>381.399993896484375</ele>
        <time>2023-01-27T08:48:35.000Z</time>
      </trkpt>
      <trkpt lat="40.0967779196798801422119140625" lon="0.0224720500409603118896484375">
        <ele>380.79998779296875</ele>
        <time>2023-01-27T08:48:36.000Z</time>
      </trkpt>
      <trkpt lat="40.09667138569056987762451171875" lon="0.02240038476884365081787109375">
        <ele>379.600006103515625</ele>
        <time>2023-01-27T08:48:38.000Z</time>
      </trkpt>
      <trkpt lat="40.096621848642826080322265625" lon="0.022373981773853302001953125">
        <ele>379.20001220703125</ele>
        <time>2023-01-27T08:48:39.000Z</time>
      </trkpt>
      <trkpt lat="40.09658086113631725311279296875" lon="0.02235076390206813812255859375">
        <ele>378.79998779296875</ele>
        <time>2023-01-27T08:48:40.000Z</time>
      </trkpt>
      <trkpt lat="40.09652428328990936279296875" lon="0.0223017297685146331787109375">
        <ele>378.600006103515625</ele>
        <time>2023-01-27T08:48:41.000Z</time>
      </trkpt>
      <trkpt lat="40.0964815355837345123291015625" lon="0.02224951051175594329833984375">
        <ele>378.20001220703125</ele>
        <time>2023-01-27T08:48:42.000Z</time>
      </trkpt>
      <trkpt lat="40.09644373320043087005615234375" lon="0.02218983136117458343505859375">
        <ele>378</ele>
        <time>2023-01-27T08:48:43.000Z</time>
      </trkpt>
      <trkpt lat="40.0964198447763919830322265625" lon="0.022141970694065093994140625">
        <ele>377.399993896484375</ele>
        <time>2023-01-27T08:48:44.000Z</time>
      </trkpt>
      <trkpt lat="40.09639226831495761871337890625" lon="0.0220713950693607330322265625">
        <ele>377.20001220703125</ele>
        <time>2023-01-27T08:48:45.000Z</time>
      </trkpt>
      <trkpt lat="40.0963734090328216552734375" lon="0.02200358547270298004150390625">
        <ele>376.600006103515625</ele>
        <time>2023-01-27T08:48:46.000Z</time>
      </trkpt>
      <trkpt lat="40.09633962996304035186767578125" lon="0.02186779864132404327392578125">
        <ele>375.600006103515625</ele>
        <time>2023-01-27T08:48:48.000Z</time>
      </trkpt>
      <trkpt lat="40.09632420726120471954345703125" lon="0.021797977387905120849609375">
        <ele>375.20001220703125</ele>
        <time>2023-01-27T08:48:49.000Z</time>
      </trkpt>
      <trkpt lat="40.09630626998841762542724609375" lon="0.0217149965465068817138671875">
        <ele>374.600006103515625</ele>
        <time>2023-01-27T08:48:50.000Z</time>
      </trkpt>
      <trkpt lat="40.0962830521166324615478515625" lon="0.02159379422664642333984375">
        <ele>373.600006103515625</ele>
        <time>2023-01-27T08:48:52.000Z</time>
      </trkpt>
      <trkpt lat="40.09626871906220912933349609375" lon="0.021523050963878631591796875">
        <ele>373.20001220703125</ele>
        <time>2023-01-27T08:48:53.000Z</time>
      </trkpt>
      <trkpt lat="40.09625346399843692779541015625" lon="0.0214504636824131011962890625">
        <ele>372.79998779296875</ele>
        <time>2023-01-27T08:48:54.000Z</time>
      </trkpt>
      <trkpt lat="40.0962285697460174560546875" lon="0.02128357999026775360107421875">
        <ele>371.399993896484375</ele>
        <time>2023-01-27T08:48:56.000Z</time>
      </trkpt>
      <trkpt lat="40.0962124764919281005859375" lon="0.0211990065872669219970703125">
        <ele>369.79998779296875</ele>
        <time>2023-01-27T08:48:57.000Z</time>
      </trkpt>
      <trkpt lat="40.09616754949092864990234375" lon="0.02104067243635654449462890625">
        <ele>367.79998779296875</ele>
        <time>2023-01-27T08:48:59.000Z</time>
      </trkpt>
      <trkpt lat="40.09615606628358364105224609375" lon="0.02095718868076801300048828125">
        <ele>367.20001220703125</ele>
        <time>2023-01-27T08:49:00.000Z</time>
      </trkpt>
      <trkpt lat="40.09615237824618816375732421875" lon="0.02085342071950435638427734375">
        <ele>365.600006103515625</ele>
        <time>2023-01-27T08:49:01.000Z</time>
      </trkpt>
      <trkpt lat="40.09615388698875904083251953125" lon="0.02076004631817340850830078125">
        <ele>364.600006103515625</ele>
        <time>2023-01-27T08:49:02.000Z</time>
      </trkpt>
      <trkpt lat="40.09616243652999401092529296875" lon="0.02068712376058101654052734375">
        <ele>363.399993896484375</ele>
        <time>2023-01-27T08:49:03.000Z</time>
      </trkpt>
      <trkpt lat="40.09617450647056102752685546875" lon="0.02060246653854846954345703125">
        <ele>362.79998779296875</ele>
        <time>2023-01-27T08:49:04.000Z</time>
      </trkpt>
      <trkpt lat="40.09619344957172870635986328125" lon="0.02050724811851978302001953125">
        <ele>362</ele>
        <time>2023-01-27T08:49:05.000Z</time>
      </trkpt>
      <trkpt lat="40.09621926583349704742431640625" lon="0.02043549902737140655517578125">
        <ele>361.399993896484375</ele>
        <time>2023-01-27T08:49:06.000Z</time>
      </trkpt>
      <trkpt lat="40.0962585769593715667724609375" lon="0.02037204802036285400390625">
        <ele>360.20001220703125</ele>
        <time>2023-01-27T08:49:07.000Z</time>
      </trkpt>
      <trkpt lat="40.096293278038501739501953125" lon="0.020321421325206756591796875">
        <ele>359.600006103515625</ele>
        <time>2023-01-27T08:49:08.000Z</time>
      </trkpt>
      <trkpt lat="40.09633426554501056671142578125" lon="0.02024590037763118743896484375">
        <ele>359</ele>
        <time>2023-01-27T08:49:09.000Z</time>
      </trkpt>
      <trkpt lat="40.096370391547679901123046875" lon="0.02015923149883747100830078125">
        <ele>358.600006103515625</ele>
        <time>2023-01-27T08:49:10.000Z</time>
      </trkpt>
      <trkpt lat="40.0963987223803997039794921875" lon="0.0200644321739673614501953125">
        <ele>358</ele>
        <time>2023-01-27T08:49:11.000Z</time>
      </trkpt>
      <trkpt lat="40.09641473181545734405517578125" lon="0.01996460370719432830810546875">
        <ele>357.399993896484375</ele>
        <time>2023-01-27T08:49:12.000Z</time>
      </trkpt>
      <trkpt lat="40.0964191742241382598876953125" lon="0.0198646076023578643798828125">
        <ele>357.20001220703125</ele>
        <time>2023-01-27T08:49:13.000Z</time>
      </trkpt>
      <trkpt lat="40.0964221917092800140380859375" lon="0.0197673775255680084228515625">
        <ele>356.20001220703125</ele>
        <time>2023-01-27T08:49:14.000Z</time>
      </trkpt>
      <trkpt lat="40.09642294608056545257568359375" lon="0.0196775235235691070556640625">
        <ele>355.600006103515625</ele>
        <time>2023-01-27T08:49:15.000Z</time>
      </trkpt>
      <trkpt lat="40.0964268855750560760498046875" lon="0.0195712409913539886474609375">
        <ele>355</ele>
        <time>2023-01-27T08:49:16.000Z</time>
      </trkpt>
      <trkpt lat="40.09643317200243473052978515625" lon="0.0194790400564670562744140625">
        <ele>354.79998779296875</ele>
        <time>2023-01-27T08:49:17.000Z</time>
      </trkpt>
      <trkpt lat="40.0964506901800632476806640625" lon="0.01930863596498966217041015625">
        <ele>354.20001220703125</ele>
        <time>2023-01-27T08:49:19.000Z</time>
      </trkpt>
      <trkpt lat="40.0964651070535182952880859375" lon="0.01920436508953571319580078125">
        <ele>353.600006103515625</ele>
        <time>2023-01-27T08:49:20.000Z</time>
      </trkpt>
      <trkpt lat="40.0964791886508464813232421875" lon="0.0191280059516429901123046875">
        <ele>353.20001220703125</ele>
        <time>2023-01-27T08:49:21.000Z</time>
      </trkpt>
      <trkpt lat="40.09649888612329959869384765625" lon="0.01905198208987712860107421875">
        <ele>352.399993896484375</ele>
        <time>2023-01-27T08:49:22.000Z</time>
      </trkpt>
      <trkpt lat="40.09652269072830677032470703125" lon="0.01898928545415401458740234375">
        <ele>352.20001220703125</ele>
        <time>2023-01-27T08:49:23.000Z</time>
      </trkpt>
      <trkpt lat="40.09655646979808807373046875" lon="0.01891770400106906890869140625">
        <ele>351.20001220703125</ele>
        <time>2023-01-27T08:49:24.000Z</time>
      </trkpt>
      <trkpt lat="40.096591673791408538818359375" lon="0.0188379921019077301025390625">
        <ele>351</ele>
        <time>2023-01-27T08:49:25.000Z</time>
      </trkpt>
      <trkpt lat="40.0966059230268001556396484375" lon="0.01876582391560077667236328125">
        <ele>350.399993896484375</ele>
        <time>2023-01-27T08:49:26.000Z</time>
      </trkpt>
      <trkpt lat="40.096601732075214385986328125" lon="0.018700696527957916259765625">
        <ele>350</ele>
        <time>2023-01-27T08:49:27.000Z</time>
      </trkpt>
      <trkpt lat="40.0965834595263004302978515625" lon="0.0186220742762088775634765625">
        <ele>348.600006103515625</ele>
        <time>2023-01-27T08:49:28.000Z</time>
      </trkpt>
      <trkpt lat="40.09653191082179546356201171875" lon="0.01846575178205966949462890625">
        <ele>347.600006103515625</ele>
        <time>2023-01-27T08:49:30.000Z</time>
      </trkpt>
      <trkpt lat="40.09650684893131256103515625" lon="0.01837204210460186004638671875">
        <ele>347.20001220703125</ele>
        <time>2023-01-27T08:49:31.000Z</time>
      </trkpt>
      <trkpt lat="40.09649553336203098297119140625" lon="0.01830750145018100738525390625">
        <ele>346.399993896484375</ele>
        <time>2023-01-27T08:49:32.000Z</time>
      </trkpt>
      <trkpt lat="40.09649151004850864410400390625" lon="0.01812477596104145050048828125">
        <ele>345.79998779296875</ele>
        <time>2023-01-27T08:49:34.000Z</time>
      </trkpt>
      <trkpt lat="40.096497125923633575439453125" lon="0.0180391967296600341796875">
        <ele>345.399993896484375</ele>
        <time>2023-01-27T08:49:35.000Z</time>
      </trkpt>
      <trkpt lat="40.09651598520576953887939453125" lon="0.01779151149094104766845703125">
        <ele>345</ele>
        <time>2023-01-27T08:49:38.000Z</time>
      </trkpt>
      <trkpt lat="40.09656292386353015899658203125" lon="0.01764692366123199462890625">
        <ele>344.399993896484375</ele>
        <time>2023-01-27T08:49:40.000Z</time>
      </trkpt>
      <trkpt lat="40.09659326635301113128662109375" lon="0.0176145695149898529052734375">
        <ele>343.79998779296875</ele>
        <time>2023-01-27T08:49:41.000Z</time>
      </trkpt>
      <trkpt lat="40.09664255194365978240966796875" lon="0.0175939500331878662109375">
        <ele>343.399993896484375</ele>
        <time>2023-01-27T08:49:42.000Z</time>
      </trkpt>
      <trkpt lat="40.0966981239616870880126953125" lon="0.0175931118428707122802734375">
        <ele>342.600006103515625</ele>
        <time>2023-01-27T08:49:43.000Z</time>
      </trkpt>
      <trkpt lat="40.09676626883447170257568359375" lon="0.01758615486323833465576171875">
        <ele>342.20001220703125</ele>
        <time>2023-01-27T08:49:44.000Z</time>
      </trkpt>
      <trkpt lat="40.096859224140644073486328125" lon="0.01752647571265697479248046875">
        <ele>341.399993896484375</ele>
        <time>2023-01-27T08:49:46.000Z</time>
      </trkpt>
      <trkpt lat="40.09694463573396205902099609375" lon="0.01743058674037456512451171875">
        <ele>340.600006103515625</ele>
        <time>2023-01-27T08:49:48.000Z</time>
      </trkpt>
      <trkpt lat="40.0969938375055789947509765625" lon="0.01737870275974273681640625">
        <ele>340.399993896484375</ele>
        <time>2023-01-27T08:49:49.000Z</time>
      </trkpt>
      <trkpt lat="40.09705041535198688507080078125" lon="0.017329417169094085693359375">
        <ele>340.20001220703125</ele>
        <time>2023-01-27T08:49:50.000Z</time>
      </trkpt>
      <trkpt lat="40.0971641577780246734619140625" lon="0.01724635250866413116455078125">
        <ele>339.600006103515625</ele>
        <time>2023-01-27T08:49:52.000Z</time>
      </trkpt>
      <trkpt lat="40.097218640148639678955078125" lon="0.01720301806926727294921875">
        <ele>339.20001220703125</ele>
        <time>2023-01-27T08:49:53.000Z</time>
      </trkpt>
      <trkpt lat="40.09731796570122241973876953125" lon="0.01710888929665088653564453125">
        <ele>338.20001220703125</ele>
        <time>2023-01-27T08:49:55.000Z</time>
      </trkpt>
      <trkpt lat="40.09736289270222187042236328125" lon="0.01705138944089412689208984375">
        <ele>337.600006103515625</ele>
        <time>2023-01-27T08:49:56.000Z</time>
      </trkpt>
      <trkpt lat="40.097399018704891204833984375" lon="0.01698265783488750457763671875">
        <ele>337</ele>
        <time>2023-01-27T08:49:57.000Z</time>
      </trkpt>
      <trkpt lat="40.0974317081272602081298828125" lon="0.0169051252305507659912109375">
        <ele>336.399993896484375</ele>
        <time>2023-01-27T08:49:58.000Z</time>
      </trkpt>
      <trkpt lat="40.0974850170314311981201171875" lon="0.01672097481787204742431640625">
        <ele>335.600006103515625</ele>
        <time>2023-01-27T08:50:00.000Z</time>
      </trkpt>
      <trkpt lat="40.0975120067596435546875" lon="0.01659893430769443511962890625">
        <ele>335.600006103515625</ele>
        <time>2023-01-27T08:50:01.000Z</time>
      </trkpt>
      <trkpt lat="40.09765089489519596099853515625" lon="0.01621772535145282745361328125">
        <ele>334.20001220703125</ele>
        <time>2023-01-27T08:50:05.000Z</time>
      </trkpt>
      <trkpt lat="40.09773203171789646148681640625" lon="0.01602745614945888519287109375">
        <ele>333</ele>
        <time>2023-01-27T08:50:07.000Z</time>
      </trkpt>
      <trkpt lat="40.0977817364037036895751953125" lon="0.01593911089003086090087890625">
        <ele>332.20001220703125</ele>
        <time>2023-01-27T08:50:08.000Z</time>
      </trkpt>
      <trkpt lat="40.09783395566046237945556640625" lon="0.0158520229160785675048828125">
        <ele>331.79998779296875</ele>
        <time>2023-01-27T08:50:09.000Z</time>
      </trkpt>
      <trkpt lat="40.097884498536586761474609375" lon="0.015767700970172882080078125">
        <ele>330.600006103515625</ele>
        <time>2023-01-27T08:50:10.000Z</time>
      </trkpt>
      <trkpt lat="40.0979859195649623870849609375" lon="0.01562579534947872161865234375">
        <ele>329.20001220703125</ele>
        <time>2023-01-27T08:50:12.000Z</time>
      </trkpt>
      <trkpt lat="40.09802791289985179901123046875" lon="0.0155670382082462310791015625">
        <ele>328.79998779296875</ele>
        <time>2023-01-27T08:50:13.000Z</time>
      </trkpt>
      <trkpt lat="40.09806462563574314117431640625" lon="0.01551364548504352569580078125">
        <ele>328.600006103515625</ele>
        <time>2023-01-27T08:50:14.000Z</time>
      </trkpt>
      <trkpt lat="40.0981029309332370758056640625" lon="0.01546628773212432861328125">
        <ele>328.79998779296875</ele>
        <time>2023-01-27T08:50:15.000Z</time>
      </trkpt>
      <trkpt lat="40.098150707781314849853515625" lon="0.01541993580758571624755859375">
        <ele>328.399993896484375</ele>
        <time>2023-01-27T08:50:16.000Z</time>
      </trkpt>
      <trkpt lat="40.09820762090384960174560546875" lon="0.01537978649139404296875">
        <ele>328.399993896484375</ele>
        <time>2023-01-27T08:50:17.000Z</time>
      </trkpt>
      <trkpt lat="40.09827467612922191619873046875" lon="0.01533980481326580047607421875">
        <ele>327.79998779296875</ele>
        <time>2023-01-27T08:50:18.000Z</time>
      </trkpt>
      <trkpt lat="40.0984154082834720611572265625" lon="0.01528398133814334869384765625">
        <ele>326.600006103515625</ele>
        <time>2023-01-27T08:50:20.000Z</time>
      </trkpt>
      <trkpt lat="40.09847986511886119842529296875" lon="0.01526956446468830108642578125">
        <ele>325.600006103515625</ele>
        <time>2023-01-27T08:50:21.000Z</time>
      </trkpt>
      <trkpt lat="40.098532252013683319091796875" lon="0.0152401439845561981201171875">
        <ele>325.20001220703125</ele>
        <time>2023-01-27T08:50:22.000Z</time>
      </trkpt>
      <trkpt lat="40.098571479320526123046875" lon="0.01519982703030109405517578125">
        <ele>324.600006103515625</ele>
        <time>2023-01-27T08:50:23.000Z</time>
      </trkpt>
      <trkpt lat="40.09860274381935596466064453125" lon="0.0151563249528408050537109375">
        <ele>324.399993896484375</ele>
        <time>2023-01-27T08:50:24.000Z</time>
      </trkpt>
      <trkpt lat="40.09862847626209259033203125" lon="0.01511684618890285491943359375">
        <ele>324.20001220703125</ele>
        <time>2023-01-27T08:50:25.000Z</time>
      </trkpt>
      <trkpt lat="40.09865219704806804656982421875" lon="0.01508030109107494354248046875">
        <ele>324</ele>
        <time>2023-01-27T08:50:26.000Z</time>
      </trkpt>
      <trkpt lat="40.098674409091472625732421875" lon="0.01504794694483280181884765625">
        <ele>324</ele>
        <time>2023-01-27T08:50:27.000Z</time>
      </trkpt>
      <trkpt lat="40.09869779460132122039794921875" lon="0.01502078957855701446533203125">
        <ele>323.79998779296875</ele>
        <time>2023-01-27T08:50:28.000Z</time>
      </trkpt>
      <trkpt lat="40.09872159920632839202880859375" lon="0.0149860046803951263427734375">
        <ele>324</ele>
        <time>2023-01-27T08:50:29.000Z</time>
      </trkpt>
      <trkpt lat="40.0987350940704345703125" lon="0.0149514712393283843994140625">
        <ele>324</ele>
        <time>2023-01-27T08:50:30.000Z</time>
      </trkpt>
      <trkpt lat="40.0987510196864604949951171875" lon="0.01491509377956390380859375">
        <ele>324.20001220703125</ele>
        <time>2023-01-27T08:50:31.000Z</time>
      </trkpt>
      <trkpt lat="40.0987657718360424041748046875" lon="0.0148867629468441009521484375">
        <ele>324.399993896484375</ele>
        <time>2023-01-27T08:50:32.000Z</time>
      </trkpt>
      <trkpt lat="40.0988261215388774871826171875" lon="0.01477955840528011322021484375">
        <ele>325.600006103515625</ele>
        <time>2023-01-27T08:50:35.000Z</time>
      </trkpt>
      <trkpt lat="40.09884296916425228118896484375" lon="0.01474385149776935577392578125">
        <ele>325.600006103515625</ele>
        <time>2023-01-27T08:50:36.000Z</time>
      </trkpt>
      <trkpt lat="40.09887767024338245391845703125" lon="0.01466640271246433258056640625">
        <ele>326.600006103515625</ele>
        <time>2023-01-27T08:50:38.000Z</time>
      </trkpt>
      <trkpt lat="40.09891144931316375732421875" lon="0.01453958451747894287109375">
        <ele>327.600006103515625</ele>
        <time>2023-01-27T08:50:41.000Z</time>
      </trkpt>
      <trkpt lat="40.0989240221679210662841796875" lon="0.01450278796255588531494140625">
        <ele>327.79998779296875</ele>
        <time>2023-01-27T08:50:42.000Z</time>
      </trkpt>
      <trkpt lat="40.098997615277767181396484375" lon="0.01433867029845714569091796875">
        <ele>329</ele>
        <time>2023-01-27T08:50:46.000Z</time>
      </trkpt>
      <trkpt lat="40.09902318008244037628173828125" lon="0.01429609023034572601318359375">
        <ele>329</ele>
        <time>2023-01-27T08:50:47.000Z</time>
      </trkpt>
      <trkpt lat="40.099147818982601165771484375" lon="0.0141337327659130096435546875">
        <ele>329.20001220703125</ele>
        <time>2023-01-27T08:50:51.000Z</time>
      </trkpt>
      <trkpt lat="40.09918310679495334625244140625" lon="0.01409056596457958221435546875">
        <ele>329.20001220703125</ele>
        <time>2023-01-27T08:50:52.000Z</time>
      </trkpt>
      <trkpt lat="40.099220238626003265380859375" lon="0.014046728610992431640625">
        <ele>329.20001220703125</ele>
        <time>2023-01-27T08:50:53.000Z</time>
      </trkpt>
      <trkpt lat="40.09925988502800464630126953125" lon="0.01400406472384929656982421875">
        <ele>329.20001220703125</ele>
        <time>2023-01-27T08:50:54.000Z</time>
      </trkpt>
      <trkpt lat="40.09930196218192577362060546875" lon="0.0139546953141689300537109375">
        <ele>329.20001220703125</ele>
        <time>2023-01-27T08:50:55.000Z</time>
      </trkpt>
      <trkpt lat="40.0993399322032928466796875" lon="0.013900883495807647705078125">
        <ele>329.20001220703125</ele>
        <time>2023-01-27T08:50:56.000Z</time>
      </trkpt>
      <trkpt lat="40.099375136196613311767578125" lon="0.0138420425355434417724609375">
        <ele>329</ele>
        <time>2023-01-27T08:50:57.000Z</time>
      </trkpt>
      <trkpt lat="40.09940707124769687652587890625" lon="0.01377842389047145843505859375">
        <ele>328.79998779296875</ele>
        <time>2023-01-27T08:50:58.000Z</time>
      </trkpt>
      <trkpt lat="40.09943791665136814117431640625" lon="0.013703070580959320068359375">
        <ele>328.600006103515625</ele>
        <time>2023-01-27T08:50:59.000Z</time>
      </trkpt>
      <trkpt lat="40.09947345592081546783447265625" lon="0.01361430622637271881103515625">
        <ele>328.600006103515625</ele>
        <time>2023-01-27T08:51:00.000Z</time>
      </trkpt>
      <trkpt lat="40.0995110906660556793212890625" lon="0.01352495513856410980224609375">
        <ele>328.20001220703125</ele>
        <time>2023-01-27T08:51:01.000Z</time>
      </trkpt>
      <trkpt lat="40.099548809230327606201171875" lon="0.01343610696494579315185546875">
        <ele>328</ele>
        <time>2023-01-27T08:51:02.000Z</time>
      </trkpt>
      <trkpt lat="40.09958862327039241790771484375" lon="0.01334256492555141448974609375">
        <ele>327.79998779296875</ele>
        <time>2023-01-27T08:51:03.000Z</time>
      </trkpt>
      <trkpt lat="40.0997172854840755462646484375" lon="0.013044588267803192138671875">
        <ele>326.399993896484375</ele>
        <time>2023-01-27T08:51:06.000Z</time>
      </trkpt>
      <trkpt lat="40.0997856818139553070068359375" lon="0.01284970901906490325927734375">
        <ele>324.600006103515625</ele>
        <time>2023-01-27T08:51:08.000Z</time>
      </trkpt>
      <trkpt lat="40.09981526993215084075927734375" lon="0.0127450190484523773193359375">
        <ele>323.20001220703125</ele>
        <time>2023-01-27T08:51:09.000Z</time>
      </trkpt>
      <trkpt lat="40.0998763740062713623046875" lon="0.01253488473594188690185546875">
        <ele>321.600006103515625</ele>
        <time>2023-01-27T08:51:11.000Z</time>
      </trkpt>
      <trkpt lat="40.09993077255785465240478515625" lon="0.0123480521142482757568359375">
        <ele>320.20001220703125</ele>
        <time>2023-01-27T08:51:13.000Z</time>
      </trkpt>
      <trkpt lat="40.09995876811444759368896484375" lon="0.012243278324604034423828125">
        <ele>319.79998779296875</ele>
        <time>2023-01-27T08:51:14.000Z</time>
      </trkpt>
      <trkpt lat="40.09997972287237644195556640625" lon="0.01214512623846530914306640625">
        <ele>319.20001220703125</ele>
        <time>2023-01-27T08:51:15.000Z</time>
      </trkpt>
      <trkpt lat="40.10000252164900302886962890625" lon="0.01204873435199260711669921875">
        <ele>318.79998779296875</ele>
        <time>2023-01-27T08:51:16.000Z</time>
      </trkpt>
      <trkpt lat="40.1000210456550121307373046875" lon="0.011961646378040313720703125">
        <ele>317.600006103515625</ele>
        <time>2023-01-27T08:51:17.000Z</time>
      </trkpt>
      <trkpt lat="40.1000408269464969635009765625" lon="0.011877827346324920654296875">
        <ele>316.20001220703125</ele>
        <time>2023-01-27T08:51:18.000Z</time>
      </trkpt>
      <trkpt lat="40.10006002150475978851318359375" lon="0.01180096529424190521240234375">
        <ele>315.600006103515625</ele>
        <time>2023-01-27T08:51:19.000Z</time>
      </trkpt>
      <trkpt lat="40.10007955133914947509765625" lon="0.011729300022125244140625">
        <ele>314.600006103515625</ele>
        <time>2023-01-27T08:51:20.000Z</time>
      </trkpt>
      <trkpt lat="40.10009522549808025360107421875" lon="0.011656545102596282958984375">
        <ele>314</ele>
        <time>2023-01-27T08:51:21.000Z</time>
      </trkpt>
      <trkpt lat="40.10010595433413982391357421875" lon="0.01158035360276699066162109375">
        <ele>313.20001220703125</ele>
        <time>2023-01-27T08:51:22.000Z</time>
      </trkpt>
      <trkpt lat="40.10011785663664340972900390625" lon="0.01150089316070079803466796875">
        <ele>313</ele>
        <time>2023-01-27T08:51:23.000Z</time>
      </trkpt>
      <trkpt lat="40.10014451108872890472412109375" lon="0.01130861230194568634033203125">
        <ele>312.20001220703125</ele>
        <time>2023-01-27T08:51:25.000Z</time>
      </trkpt>
      <trkpt lat="40.10014316998422145843505859375" lon="0.0112054310739040374755859375">
        <ele>312</ele>
        <time>2023-01-27T08:51:26.000Z</time>
      </trkpt>
      <trkpt lat="40.1001300103962421417236328125" lon="0.01110233366489410400390625">
        <ele>311.79998779296875</ele>
        <time>2023-01-27T08:51:27.000Z</time>
      </trkpt>
      <trkpt lat="40.1000720076262950897216796875" lon="0.01078792847692966461181640625">
        <ele>310.399993896484375</ele>
        <time>2023-01-27T08:51:30.000Z</time>
      </trkpt>
      <trkpt lat="40.100045688450336456298828125" lon="0.01068013720214366912841796875">
        <ele>310</ele>
        <time>2023-01-27T08:51:31.000Z</time>
      </trkpt>
      <trkpt lat="40.10001794435083866119384765625" lon="0.01057754270732402801513671875">
        <ele>309.399993896484375</ele>
        <time>2023-01-27T08:51:32.000Z</time>
      </trkpt>
      <trkpt lat="40.099971592426300048828125" lon="0.010403953492641448974609375">
        <ele>308.600006103515625</ele>
        <time>2023-01-27T08:51:34.000Z</time>
      </trkpt>
      <trkpt lat="40.0999627076089382171630859375" lon="0.010325498878955841064453125">
        <ele>308.399993896484375</ele>
        <time>2023-01-27T08:51:35.000Z</time>
      </trkpt>
      <trkpt lat="40.09997452609241008758544921875" lon="0.0102368183434009552001953125">
        <ele>307.79998779296875</ele>
        <time>2023-01-27T08:51:36.000Z</time>
      </trkpt>
      <trkpt lat="40.1000036112964153289794921875" lon="0.01017018221318721771240234375">
        <ele>307.399993896484375</ele>
        <time>2023-01-27T08:51:37.000Z</time>
      </trkpt>
      <trkpt lat="40.10003437288105487823486328125" lon="0.01010614447295665740966796875">
        <ele>306.79998779296875</ele>
        <time>2023-01-27T08:51:38.000Z</time>
      </trkpt>
      <trkpt lat="40.1000632904469966888427734375" lon="0.01004110090434551239013671875">
        <ele>306.20001220703125</ele>
        <time>2023-01-27T08:51:39.000Z</time>
      </trkpt>
      <trkpt lat="40.10008801706135272979736328125" lon="0.00997488386929035186767578125">
        <ele>306</ele>
        <time>2023-01-27T08:51:40.000Z</time>
      </trkpt>
      <trkpt lat="40.10011014528572559356689453125" lon="0.00990665517747402191162109375">
        <ele>305.600006103515625</ele>
        <time>2023-01-27T08:51:41.000Z</time>
      </trkpt>
      <trkpt lat="40.1001323573291301727294921875" lon="0.0098368339240550994873046875">
        <ele>305.399993896484375</ele>
        <time>2023-01-27T08:51:42.000Z</time>
      </trkpt>
      <trkpt lat="40.10017803870141506195068359375" lon="0.00969149172306060791015625">
        <ele>305</ele>
        <time>2023-01-27T08:51:44.000Z</time>
      </trkpt>
      <trkpt lat="40.1002456806600093841552734375" lon="0.009459815919399261474609375">
        <ele>304.79998779296875</ele>
        <time>2023-01-27T08:51:47.000Z</time>
      </trkpt>
      <trkpt lat="40.100285746157169342041015625" lon="0.00922822393476963043212890625">
        <ele>304.600006103515625</ele>
        <time>2023-01-27T08:51:50.000Z</time>
      </trkpt>
      <trkpt lat="40.10029949247837066650390625" lon="0.0091267190873622894287109375">
        <ele>304.600006103515625</ele>
        <time>2023-01-27T08:51:51.000Z</time>
      </trkpt>
      <trkpt lat="40.1003636978566646575927734375" lon="0.00873033888638019561767578125">
        <ele>304.20001220703125</ele>
        <time>2023-01-27T08:51:56.000Z</time>
      </trkpt>
      <trkpt lat="40.10039228014647960662841796875" lon="0.00864031724631786346435546875">
        <ele>304</ele>
        <time>2023-01-27T08:51:57.000Z</time>
      </trkpt>
      <trkpt lat="40.100454725325107574462890625" lon="0.0084870122373104095458984375">
        <ele>304</ele>
        <time>2023-01-27T08:51:59.000Z</time>
      </trkpt>
      <trkpt lat="40.10056897066533565521240234375" lon="0.00827956013381481170654296875">
        <ele>303.399993896484375</ele>
        <time>2023-01-27T08:52:02.000Z</time>
      </trkpt>
      <trkpt lat="40.1006134785711765289306640625" lon="0.00820730812847614288330078125">
        <ele>303.20001220703125</ele>
        <time>2023-01-27T08:52:03.000Z</time>
      </trkpt>
      <trkpt lat="40.10069369338452816009521484375" lon="0.00805039890110492706298828125">
        <ele>303</ele>
        <time>2023-01-27T08:52:05.000Z</time>
      </trkpt>
      <trkpt lat="40.1007400453090667724609375" lon="0.00786800868809223175048828125">
        <ele>302.600006103515625</ele>
        <time>2023-01-27T08:52:07.000Z</time>
      </trkpt>
      <trkpt lat="40.100742392241954803466796875" lon="0.00768377445638179779052734375">
        <ele>301.79998779296875</ele>
        <time>2023-01-27T08:52:09.000Z</time>
      </trkpt>
      <trkpt lat="40.1007211022078990936279296875" lon="0.007575564086437225341796875">
        <ele>301.20001220703125</ele>
        <time>2023-01-27T08:52:10.000Z</time>
      </trkpt>
      <trkpt lat="40.10069570504128932952880859375" lon="0.00748394988477230072021484375">
        <ele>300.79998779296875</ele>
        <time>2023-01-27T08:52:11.000Z</time>
      </trkpt>
      <trkpt lat="40.10066787712275981903076171875" lon="0.007397197186946868896484375">
        <ele>300</ele>
        <time>2023-01-27T08:52:12.000Z</time>
      </trkpt>
      <trkpt lat="40.1006409712135791778564453125" lon="0.0073148868978023529052734375">
        <ele>299.79998779296875</ele>
        <time>2023-01-27T08:52:13.000Z</time>
      </trkpt>
      <trkpt lat="40.100597552955150604248046875" lon="0.00715412199497222900390625">
        <ele>299</ele>
        <time>2023-01-27T08:52:15.000Z</time>
      </trkpt>
      <trkpt lat="40.1005863212049007415771484375" lon="0.0070754997432231903076171875">
        <ele>298.79998779296875</ele>
        <time>2023-01-27T08:52:16.000Z</time>
      </trkpt>
      <trkpt lat="40.10058858431875705718994140625" lon="0.006992854177951812744140625">
        <ele>298.79998779296875</ele>
        <time>2023-01-27T08:52:17.000Z</time>
      </trkpt>
      <trkpt lat="40.10059897787868976593017578125" lon="0.00692940317094326019287109375">
        <ele>298.600006103515625</ele>
        <time>2023-01-27T08:52:18.000Z</time>
      </trkpt>
      <trkpt lat="40.10062278248369693756103515625" lon="0.006852038204669952392578125">
        <ele>298.600006103515625</ele>
        <time>2023-01-27T08:52:19.000Z</time>
      </trkpt>
      <trkpt lat="40.10065597482025623321533203125" lon="0.0067804567515850067138671875">
        <ele>298.399993896484375</ele>
        <time>2023-01-27T08:52:20.000Z</time>
      </trkpt>
      <trkpt lat="40.100690424442291259765625" lon="0.00670879147946834564208984375">
        <ele>298.20001220703125</ele>
        <time>2023-01-27T08:52:21.000Z</time>
      </trkpt>
      <trkpt lat="40.100737027823925018310546875" lon="0.00662681646645069122314453125">
        <ele>298.20001220703125</ele>
        <time>2023-01-27T08:52:22.000Z</time>
      </trkpt>
      <trkpt lat="40.1008542068302631378173828125" lon="0.00645683147013187408447265625">
        <ele>298</ele>
        <time>2023-01-27T08:52:25.000Z</time>
      </trkpt>
      <trkpt lat="40.1008884049952030181884765625" lon="0.0063965655863285064697265625">
        <ele>298.20001220703125</ele>
        <time>2023-01-27T08:52:26.000Z</time>
      </trkpt>
      <trkpt lat="40.10091933421790599822998046875" lon="0.0063285045325756072998046875">
        <ele>298</ele>
        <time>2023-01-27T08:52:27.000Z</time>
      </trkpt>
      <trkpt lat="40.1009527780115604400634765625" lon="0.0062399916350841522216796875">
        <ele>298</ele>
        <time>2023-01-27T08:52:28.000Z</time>
      </trkpt>
      <trkpt lat="40.10111597366631031036376953125" lon="0.00580388121306896209716796875">
        <ele>297.79998779296875</ele>
        <time>2023-01-27T08:52:33.000Z</time>
      </trkpt>
      <trkpt lat="40.10120800696313381195068359375" lon="0.005570612847805023193359375">
        <ele>297.399993896484375</ele>
        <time>2023-01-27T08:52:36.000Z</time>
      </trkpt>
      <trkpt lat="40.10124136693775653839111328125" lon="0.0054940022528171539306640625">
        <ele>297</ele>
        <time>2023-01-27T08:52:37.000Z</time>
      </trkpt>
      <trkpt lat="40.1012753136456012725830078125" lon="0.0054195709526538848876953125">
        <ele>296.399993896484375</ele>
        <time>2023-01-27T08:52:38.000Z</time>
      </trkpt>
      <trkpt lat="40.10130926035344600677490234375" lon="0.00534631311893463134765625">
        <ele>295.600006103515625</ele>
        <time>2023-01-27T08:52:39.000Z</time>
      </trkpt>
      <trkpt lat="40.101339519023895263671875" lon="0.005271546542644500732421875">
        <ele>295.20001220703125</ele>
        <time>2023-01-27T08:52:40.000Z</time>
      </trkpt>
      <trkpt lat="40.1013743877410888671875" lon="0.00518278218805789947509765625">
        <ele>294.79998779296875</ele>
        <time>2023-01-27T08:52:41.000Z</time>
      </trkpt>
      <trkpt lat="40.10139727033674716949462890625" lon="0.00512846745550632476806640625">
        <ele>294.20001220703125</ele>
        <time>2023-01-27T08:52:42.000Z</time>
      </trkpt>
      <trkpt lat="40.1014235056936740875244140625" lon="0.00507079996168613433837890625">
        <ele>294</ele>
        <time>2023-01-27T08:52:43.000Z</time>
      </trkpt>
      <trkpt lat="40.10144689120352268218994140625" lon="0.00502444803714752197265625">
        <ele>293.600006103515625</ele>
        <time>2023-01-27T08:52:44.000Z</time>
      </trkpt>
      <trkpt lat="40.10146499611437320709228515625" lon="0.00499217770993709564208984375">
        <ele>293.600006103515625</ele>
        <time>2023-01-27T08:52:45.000Z</time>
      </trkpt>
      <trkpt lat="40.10147991590201854705810546875" lon="0.0049682892858982086181640625">
        <ele>293</ele>
        <time>2023-01-27T08:52:46.000Z</time>
      </trkpt>
      <trkpt lat="40.10149382986128330230712890625" lon="0.0049491785466670989990234375">
        <ele>292.79998779296875</ele>
        <time>2023-01-27T08:52:47.000Z</time>
      </trkpt>
      <trkpt lat="40.1015096716582775115966796875" lon="0.0049300678074359893798828125">
        <ele>292.600006103515625</ele>
        <time>2023-01-27T08:52:48.000Z</time>
      </trkpt>
      <trkpt lat="40.10152786038815975189208984375" lon="0.0049129687249660491943359375">
        <ele>292.20001220703125</ele>
        <time>2023-01-27T08:52:49.000Z</time>
      </trkpt>
      <trkpt lat="40.101550407707691192626953125" lon="0.004900731146335601806640625">
        <ele>292</ele>
        <time>2023-01-27T08:52:50.000Z</time>
      </trkpt>
      <trkpt lat="40.10159692727029323577880859375" lon="0.004873238503932952880859375">
        <ele>291.600006103515625</ele>
        <time>2023-01-27T08:52:52.000Z</time>
      </trkpt>
      <trkpt lat="40.1016209833323955535888671875" lon="0.004846751689910888671875">
        <ele>291.600006103515625</ele>
        <time>2023-01-27T08:52:53.000Z</time>
      </trkpt>
      <trkpt lat="40.101638920605182647705078125" lon="0.00480492599308490753173828125">
        <ele>291.20001220703125</ele>
        <time>2023-01-27T08:52:54.000Z</time>
      </trkpt>
      <trkpt lat="40.10173154063522815704345703125" lon="0.0045766867697238922119140625">
        <ele>290.20001220703125</ele>
        <time>2023-01-27T08:52:59.000Z</time>
      </trkpt>
      <trkpt lat="40.10177671909332275390625" lon="0.004492364823818206787109375">
        <ele>290</ele>
        <time>2023-01-27T08:53:00.000Z</time>
      </trkpt>
      <trkpt lat="40.10180555284023284912109375" lon="0.00441835261881351470947265625">
        <ele>289.79998779296875</ele>
        <time>2023-01-27T08:53:01.000Z</time>
      </trkpt>
      <trkpt lat="40.1018291898071765899658203125" lon="0.004366301000118255615234375">
        <ele>289.79998779296875</ele>
        <time>2023-01-27T08:53:02.000Z</time>
      </trkpt>
      <trkpt lat="40.10184109210968017578125" lon="0.00431844033300876617431640625">
        <ele>289.79998779296875</ele>
        <time>2023-01-27T08:53:03.000Z</time>
      </trkpt>
      <trkpt lat="40.10185978375375270843505859375" lon="0.00427544116973876953125">
        <ele>289.79998779296875</ele>
        <time>2023-01-27T08:53:04.000Z</time>
      </trkpt>
      <trkpt lat="40.1018835045397281646728515625" lon="0.00423428602516651153564453125">
        <ele>289.79998779296875</ele>
        <time>2023-01-27T08:53:05.000Z</time>
      </trkpt>
      <trkpt lat="40.1019099913537502288818359375" lon="0.00419388525187969207763671875">
        <ele>289.79998779296875</ele>
        <time>2023-01-27T08:53:06.000Z</time>
      </trkpt>
      <trkpt lat="40.10196455754339694976806640625" lon="0.00410855747759342193603515625">
        <ele>290.20001220703125</ele>
        <time>2023-01-27T08:53:08.000Z</time>
      </trkpt>
      <trkpt lat="40.1019978336989879608154296875" lon="0.00399456359446048736572265625">
        <ele>290.20001220703125</ele>
        <time>2023-01-27T08:53:10.000Z</time>
      </trkpt>
      <trkpt lat="40.1020114123821258544921875" lon="0.00392901711165904998779296875">
        <ele>290.600006103515625</ele>
        <time>2023-01-27T08:53:11.000Z</time>
      </trkpt>
      <trkpt lat="40.1020328700542449951171875" lon="0.00386564992368221282958984375">
        <ele>290.600006103515625</ele>
        <time>2023-01-27T08:53:12.000Z</time>
      </trkpt>
      <trkpt lat="40.1020974107086658477783203125" lon="0.00377110205590724945068359375">
        <ele>290.600006103515625</ele>
        <time>2023-01-27T08:53:14.000Z</time>
      </trkpt>
      <trkpt lat="40.10214208625257015228271484375" lon="0.0037572719156742095947265625">
        <ele>290.79998779296875</ele>
        <time>2023-01-27T08:53:15.000Z</time>
      </trkpt>
      <trkpt lat="40.1021949760615825653076171875" lon="0.0037643127143383026123046875">
        <ele>290.79998779296875</ele>
        <time>2023-01-27T08:53:16.000Z</time>
      </trkpt>
      <trkpt lat="40.10225943289697170257568359375" lon="0.00378526747226715087890625">
        <ele>290.600006103515625</ele>
        <time>2023-01-27T08:53:17.000Z</time>
      </trkpt>
      <trkpt lat="40.1023616082966327667236328125" lon="0.0038370676338672637939453125">
        <ele>289.79998779296875</ele>
        <time>2023-01-27T08:53:19.000Z</time>
      </trkpt>
      <trkpt lat="40.1024206168949604034423828125" lon="0.0038726069033145904541015625">
        <ele>289.600006103515625</ele>
        <time>2023-01-27T08:53:20.000Z</time>
      </trkpt>
      <trkpt lat="40.10249144397675991058349609375" lon="0.0039093196392059326171875">
        <ele>289.399993896484375</ele>
        <time>2023-01-27T08:53:21.000Z</time>
      </trkpt>
      <trkpt lat="40.10255120694637298583984375" lon="0.0039299391210079193115234375">
        <ele>289.20001220703125</ele>
        <time>2023-01-27T08:53:22.000Z</time>
      </trkpt>
      <trkpt lat="40.10266176424920558929443359375" lon="0.00395550392568111419677734375">
        <ele>289</ele>
        <time>2023-01-27T08:53:24.000Z</time>
      </trkpt>
      <trkpt lat="40.10282554663717746734619140625" lon="0.003999173641204833984375">
        <ele>288.600006103515625</ele>
        <time>2023-01-27T08:53:27.000Z</time>
      </trkpt>
      <trkpt lat="40.10286896489560604095458984375" lon="0.00400093384087085723876953125">
        <ele>288.399993896484375</ele>
        <time>2023-01-27T08:53:28.000Z</time>
      </trkpt>
      <trkpt lat="40.10290416888892650604248046875" lon="0.004001520574092864990234375">
        <ele>288.399993896484375</ele>
        <time>2023-01-27T08:53:29.000Z</time>
      </trkpt>
      <trkpt lat="40.10293233208358287811279296875" lon="0.00400386750698089599609375">
        <ele>288.20001220703125</ele>
        <time>2023-01-27T08:53:30.000Z</time>
      </trkpt>
      <trkpt lat="40.10295110754668712615966796875" lon="0.00400747172534465789794921875">
        <ele>288</ele>
        <time>2023-01-27T08:53:31.000Z</time>
      </trkpt>
      <trkpt lat="40.10296284221112728118896484375" lon="0.004008896648883819580078125">
        <ele>287.79998779296875</ele>
        <time>2023-01-27T08:53:32.000Z</time>
      </trkpt>
      <trkpt lat="40.1029714755713939666748046875" lon="0.0040033645927906036376953125">
        <ele>287.600006103515625</ele>
        <time>2023-01-27T08:53:33.000Z</time>
      </trkpt>
      <trkpt lat="40.10297407396137714385986328125" lon="0.00398819334805011749267578125">
        <ele>287</ele>
        <time>2023-01-27T08:53:34.000Z</time>
      </trkpt>
      <trkpt lat="40.10297021828591823577880859375" lon="0.00396522693336009979248046875">
        <ele>286.79998779296875</ele>
        <time>2023-01-27T08:53:35.000Z</time>
      </trkpt>
      <trkpt lat="40.10295546613633632659912109375" lon="0.0038437731564044952392578125">
        <ele>286.399993896484375</ele>
        <time>2023-01-27T08:53:38.000Z</time>
      </trkpt>
      <trkpt lat="40.10296066291630268096923828125" lon="0.0037958286702632904052734375">
        <ele>286.20001220703125</ele>
        <time>2023-01-27T08:53:39.000Z</time>
      </trkpt>
      <trkpt lat="40.10296694934368133544921875" lon="0.00373623333871364593505859375">
        <ele>286.20001220703125</ele>
        <time>2023-01-27T08:53:40.000Z</time>
      </trkpt>
      <trkpt lat="40.1029724813997745513916015625" lon="0.00367932021617889404296875">
        <ele>286</ele>
        <time>2023-01-27T08:53:41.000Z</time>
      </trkpt>
      <trkpt lat="40.10298497043550014495849609375" lon="0.0035829283297061920166015625">
        <ele>285.79998779296875</ele>
        <time>2023-01-27T08:53:43.000Z</time>
      </trkpt>
      <trkpt lat="40.1029892452061176300048828125" lon="0.0035349838435649871826171875">
        <ele>285.600006103515625</ele>
        <time>2023-01-27T08:53:44.000Z</time>
      </trkpt>
      <trkpt lat="40.1029942743480205535888671875" lon="0.00348527915775775909423828125">
        <ele>285.600006103515625</ele>
        <time>2023-01-27T08:53:45.000Z</time>
      </trkpt>
      <trkpt lat="40.10299804620444774627685546875" lon="0.0034494884312152862548828125">
        <ele>285.600006103515625</ele>
        <time>2023-01-27T08:53:46.000Z</time>
      </trkpt>
      <trkpt lat="40.10300852358341217041015625" lon="0.00335033051669597625732421875">
        <ele>285.79998779296875</ele>
        <time>2023-01-27T08:53:48.000Z</time>
      </trkpt>
      <trkpt lat="40.10301254689693450927734375" lon="0.0032976083457469940185546875">
        <ele>285.79998779296875</ele>
        <time>2023-01-27T08:53:49.000Z</time>
      </trkpt>
      <trkpt lat="40.10302889160811901092529296875" lon="0.00318906269967555999755859375">
        <ele>286</ele>
        <time>2023-01-27T08:53:51.000Z</time>
      </trkpt>
      <trkpt lat="40.1030521094799041748046875" lon="0.00308060087263584136962890625">
        <ele>286.79998779296875</ele>
        <time>2023-01-27T08:53:53.000Z</time>
      </trkpt>
      <trkpt lat="40.1030606590211391448974609375" lon="0.0030277110636234283447265625">
        <ele>287</ele>
        <time>2023-01-27T08:53:54.000Z</time>
      </trkpt>
      <trkpt lat="40.10308873839676380157470703125" lon="0.0028560496866703033447265625">
        <ele>287.600006103515625</ele>
        <time>2023-01-27T08:53:57.000Z</time>
      </trkpt>
      <trkpt lat="40.10309963487088680267333984375" lon="0.00280366279184818267822265625">
        <ele>288</ele>
        <time>2023-01-27T08:53:58.000Z</time>
      </trkpt>
      <trkpt lat="40.103143639862537384033203125" lon="0.00259310938417911529541015625">
        <ele>288.600006103515625</ele>
        <time>2023-01-27T08:54:02.000Z</time>
      </trkpt>
      <trkpt lat="40.1031553745269775390625" lon="0.00254080630838871002197265625">
        <ele>288.79998779296875</ele>
        <time>2023-01-27T08:54:03.000Z</time>
      </trkpt>
      <trkpt lat="40.1031649298965930938720703125" lon="0.0024996511638164520263671875">
        <ele>289</ele>
        <time>2023-01-27T08:54:04.000Z</time>
      </trkpt>
      <trkpt lat="40.1032076776027679443359375" lon="0.00223687849938869476318359375">
        <ele>290</ele>
        <time>2023-01-27T08:54:09.000Z</time>
      </trkpt>
      <trkpt lat="40.103220082819461822509765625" lon="0.0021828152239322662353515625">
        <ele>290.20001220703125</ele>
        <time>2023-01-27T08:54:10.000Z</time>
      </trkpt>
      <trkpt lat="40.10323290713131427764892578125" lon="0.0021271593868732452392578125">
        <ele>290.399993896484375</ele>
        <time>2023-01-27T08:54:11.000Z</time>
      </trkpt>
      <trkpt lat="40.1032479107379913330078125" lon="0.0020599365234375">
        <ele>290.600006103515625</ele>
        <time>2023-01-27T08:54:12.000Z</time>
      </trkpt>
      <trkpt lat="40.1032584719359874725341796875" lon="0.00201425515115261077880859375">
        <ele>290.79998779296875</ele>
        <time>2023-01-27T08:54:13.000Z</time>
      </trkpt>
      <trkpt lat="40.10327129624783992767333984375" lon="0.00195742584764957427978515625">
        <ele>290.79998779296875</ele>
        <time>2023-01-27T08:54:14.000Z</time>
      </trkpt>
      <trkpt lat="40.103284455835819244384765625" lon="0.0019005127251148223876953125">
        <ele>291</ele>
        <time>2023-01-27T08:54:15.000Z</time>
      </trkpt>
      <trkpt lat="40.10329795069992542266845703125" lon="0.0018431805074214935302734375">
        <ele>291.20001220703125</ele>
        <time>2023-01-27T08:54:16.000Z</time>
      </trkpt>
      <trkpt lat="40.1033117808401584625244140625" lon="0.00178861431777477264404296875">
        <ele>291.399993896484375</ele>
        <time>2023-01-27T08:54:17.000Z</time>
      </trkpt>
      <trkpt lat="40.103324353694915771484375" lon="0.00173714943230152130126953125">
        <ele>291.600006103515625</ele>
        <time>2023-01-27T08:54:18.000Z</time>
      </trkpt>
      <trkpt lat="40.10333516635000705718994140625" lon="0.00168509781360626220703125">
        <ele>291.600006103515625</ele>
        <time>2023-01-27T08:54:19.000Z</time>
      </trkpt>
      <trkpt lat="40.10334505699574947357177734375" lon="0.001632459461688995361328125">
        <ele>291.79998779296875</ele>
        <time>2023-01-27T08:54:20.000Z</time>
      </trkpt>
      <trkpt lat="40.10335209779441356658935546875" lon="0.00158158130943775177001953125">
        <ele>292.399993896484375</ele>
        <time>2023-01-27T08:54:21.000Z</time>
      </trkpt>
      <trkpt lat="40.103359222412109375" lon="0.0015293620526790618896484375">
        <ele>292.600006103515625</ele>
        <time>2023-01-27T08:54:22.000Z</time>
      </trkpt>
      <trkpt lat="40.103369615972042083740234375" lon="0.0014760531485080718994140625">
        <ele>292.79998779296875</ele>
        <time>2023-01-27T08:54:23.000Z</time>
      </trkpt>
      <trkpt lat="40.10337757878005504608154296875" lon="0.0014234147965908050537109375">
        <ele>293</ele>
        <time>2023-01-27T08:54:24.000Z</time>
      </trkpt>
      <trkpt lat="40.103385038673877716064453125" lon="0.0013719499111175537109375">
        <ele>293.20001220703125</ele>
        <time>2023-01-27T08:54:25.000Z</time>
      </trkpt>
      <trkpt lat="40.10339400731027126312255859375" lon="0.00132258050143718719482421875">
        <ele>293.399993896484375</ele>
        <time>2023-01-27T08:54:26.000Z</time>
      </trkpt>
      <trkpt lat="40.10340540669858455657958984375" lon="0.00127430073916912078857421875">
        <ele>293.79998779296875</ele>
        <time>2023-01-27T08:54:27.000Z</time>
      </trkpt>
      <trkpt lat="40.10341546498239040374755859375" lon="0.00122669152915477752685546875">
        <ele>294</ele>
        <time>2023-01-27T08:54:28.000Z</time>
      </trkpt>
      <trkpt lat="40.1034261099994182586669921875" lon="0.00118025578558444976806640625">
        <ele>294.20001220703125</ele>
        <time>2023-01-27T08:54:29.000Z</time>
      </trkpt>
      <trkpt lat="40.1034378446638584136962890625" lon="0.00113432295620441436767578125">
        <ele>294.399993896484375</ele>
        <time>2023-01-27T08:54:30.000Z</time>
      </trkpt>
      <trkpt lat="40.1034505851566791534423828125" lon="0.0010894797742366790771484375">
        <ele>294.600006103515625</ele>
        <time>2023-01-27T08:54:31.000Z</time>
      </trkpt>
      <trkpt lat="40.10345921851694583892822265625" lon="0.001049749553203582763671875">
        <ele>295</ele>
        <time>2023-01-27T08:54:32.000Z</time>
      </trkpt>
      <trkpt lat="40.103466846048831939697265625" lon="0.0010127015411853790283203125">
        <ele>295.399993896484375</ele>
        <time>2023-01-27T08:54:33.000Z</time>
      </trkpt>
      <trkpt lat="40.10347480885684490203857421875" lon="0.00097892247140407562255859375">
        <ele>295.600006103515625</ele>
        <time>2023-01-27T08:54:34.000Z</time>
      </trkpt>
      <trkpt lat="40.103485286235809326171875" lon="0.0009500049054622650146484375">
        <ele>296.20001220703125</ele>
        <time>2023-01-27T08:54:35.000Z</time>
      </trkpt>
      <trkpt lat="40.10349391959607601165771484375" lon="0.00092695467174053192138671875">
        <ele>296.600006103515625</ele>
        <time>2023-01-27T08:54:36.000Z</time>
      </trkpt>
      <trkpt lat="40.10350163094699382781982421875" lon="0.000902898609638214111328125">
        <ele>296.79998779296875</ele>
        <time>2023-01-27T08:54:37.000Z</time>
      </trkpt>
      <trkpt lat="40.10350850410759449005126953125" lon="0.00088118948042392730712890625">
        <ele>297.399993896484375</ele>
        <time>2023-01-27T08:54:38.000Z</time>
      </trkpt>
      <trkpt lat="40.10351722128689289093017578125" lon="0.00085755251348018646240234375">
        <ele>297.600006103515625</ele>
        <time>2023-01-27T08:54:39.000Z</time>
      </trkpt>
      <trkpt lat="40.10352493263781070709228515625" lon="0.0008339993655681610107421875">
        <ele>298</ele>
        <time>2023-01-27T08:54:40.000Z</time>
      </trkpt>
      <trkpt lat="40.10352979414165019989013671875" lon="0.00080667436122894287109375">
        <ele>298.20001220703125</ele>
        <time>2023-01-27T08:54:41.000Z</time>
      </trkpt>
      <trkpt lat="40.10353264398872852325439453125" lon="0.00077406875789165496826171875">
        <ele>298.399993896484375</ele>
        <time>2023-01-27T08:54:42.000Z</time>
      </trkpt>
      <trkpt lat="40.10353180579841136932373046875" lon="0.000735931098461151123046875">
        <ele>298.600006103515625</ele>
        <time>2023-01-27T08:54:43.000Z</time>
      </trkpt>
      <trkpt lat="40.10352753102779388427734375" lon="0.00069594942033290863037109375">
        <ele>299</ele>
        <time>2023-01-27T08:54:44.000Z</time>
      </trkpt>
      <trkpt lat="40.10352543555200099945068359375" lon="0.0005996413528919219970703125">
        <ele>293.600006103515625</ele>
        <time>2023-01-27T08:57:59.000Z</time>
      </trkpt>
      <trkpt lat="40.10352543555200099945068359375" lon="0.0005996413528919219970703125">
        <ele>298.20001220703125</ele>
        <time>2023-01-27T08:58:00.000Z</time>
      </trkpt>
      <trkpt lat="40.10352543555200099945068359375" lon="0.0005996413528919219970703125">
        <ele>294.20001220703125</ele>
        <time>2023-01-27T08:58:04.000Z</time>
      </trkpt>
      <trkpt lat="40.10352543555200099945068359375" lon="0.0005996413528919219970703125">
        <ele>295.600006103515625</ele>
        <time>2023-01-27T08:58:05.000Z</time>
      </trkpt>
      <trkpt lat="40.10352543555200099945068359375" lon="0.0005996413528919219970703125">
        <ele>297.20001220703125</ele>
        <time>2023-01-27T08:58:06.000Z</time>
      </trkpt>
      <trkpt lat="40.10352543555200099945068359375" lon="0.0005996413528919219970703125">
        <ele>297.79998779296875</ele>
        <time>2023-01-27T08:58:10.000Z</time>
      </trkpt>
      <trkpt lat="40.10352350771427154541015625" lon="0.0006003119051456451416015625">
        <ele>298</ele>
        <time>2023-01-27T08:58:13.000Z</time>
      </trkpt>
      <trkpt lat="40.1035193167626857757568359375" lon="0.00060550868511199951171875">
        <ele>298</ele>
        <time>2023-01-27T08:58:15.000Z</time>
      </trkpt>
      <trkpt lat="40.10351688601076602935791015625" lon="0.00060684978961944580078125">
        <ele>298</ele>
        <time>2023-01-27T08:58:16.000Z</time>
      </trkpt>
      <trkpt lat="40.1035072468221187591552734375" lon="0.00060995109379291534423828125">
        <ele>298</ele>
        <time>2023-01-27T08:58:17.000Z</time>
      </trkpt>
      <trkpt lat="40.10349802672863006591796875" lon="0.00064515508711338043212890625">
        <ele>298</ele>
        <time>2023-01-27T08:58:20.000Z</time>
      </trkpt>
      <trkpt lat="40.1035089232027530670166015625" lon="0.00069527886807918548583984375">
        <ele>297.79998779296875</ele>
        <time>2023-01-27T08:58:22.000Z</time>
      </trkpt>
      <trkpt lat="40.1034981943666934967041015625" lon="0.0008085183799266815185546875">
        <ele>297.79998779296875</ele>
        <time>2023-01-27T08:58:26.000Z</time>
      </trkpt>
      <trkpt lat="40.10348838753998279571533203125" lon="0.00084011815488338470458984375">
        <ele>297.79998779296875</ele>
        <time>2023-01-27T08:58:27.000Z</time>
      </trkpt>
      <trkpt lat="40.1034341566264629364013671875" lon="0.00109509564936161041259765625">
        <ele>297.600006103515625</ele>
        <time>2023-01-27T08:58:33.000Z</time>
      </trkpt>
      <trkpt lat="40.1034180633723735809326171875" lon="0.0011394359171390533447265625">
        <ele>297.399993896484375</ele>
        <time>2023-01-27T08:58:34.000Z</time>
      </trkpt>
      <trkpt lat="40.1033546961843967437744140625" lon="0.0011960975825786590576171875">
        <ele>297.20001220703125</ele>
        <time>2023-01-27T08:58:36.000Z</time>
      </trkpt>
      <trkpt lat="40.10327783413231372833251953125" lon="0.00120992772281169891357421875">
        <ele>296.20001220703125</ele>
        <time>2023-01-27T08:58:38.000Z</time>
      </trkpt>
      <trkpt lat="40.10324028320610523223876953125" lon="0.00119023025035858154296875">
        <ele>295.600006103515625</ele>
        <time>2023-01-27T08:58:39.000Z</time>
      </trkpt>
      <trkpt lat="40.10320105589926242828369140625" lon="0.0011642463505268096923828125">
        <ele>295.399993896484375</ele>
        <time>2023-01-27T08:58:40.000Z</time>
      </trkpt>
      <trkpt lat="40.10316434316337108612060546875" lon="0.00113750807940959930419921875">
        <ele>295.20001220703125</ele>
        <time>2023-01-27T08:58:41.000Z</time>
      </trkpt>
      <trkpt lat="40.10312796570360660552978515625" lon="0.00111085362732410430908203125">
        <ele>294.79998779296875</ele>
        <time>2023-01-27T08:58:42.000Z</time>
      </trkpt>
      <trkpt lat="40.10308898985385894775390625" lon="0.00108067877590656280517578125">
        <ele>294.600006103515625</ele>
        <time>2023-01-27T08:58:43.000Z</time>
      </trkpt>
      <trkpt lat="40.10300961323082447052001953125" lon="0.00103223137557506561279296875">
        <ele>294.399993896484375</ele>
        <time>2023-01-27T08:58:45.000Z</time>
      </trkpt>
      <trkpt lat="40.1029728166759014129638671875" lon="0.00100960023701190948486328125">
        <ele>294.20001220703125</ele>
        <time>2023-01-27T08:58:46.000Z</time>
      </trkpt>
      <trkpt lat="40.10293367318809032440185546875" lon="0.00098747201263904571533203125">
        <ele>294.20001220703125</ele>
        <time>2023-01-27T08:58:47.000Z</time>
      </trkpt>
      <trkpt lat="40.10281548835337162017822265625" lon="0.000927709043025970458984375">
        <ele>294</ele>
        <time>2023-01-27T08:58:50.000Z</time>
      </trkpt>
      <trkpt lat="40.102782212197780609130859375" lon="0.000892840325832366943359375">
        <ele>293.79998779296875</ele>
        <time>2023-01-27T08:58:51.000Z</time>
      </trkpt>
      <trkpt lat="40.10268171317875385284423828125" lon="0.000824443995952606201171875">
        <ele>293.600006103515625</ele>
        <time>2023-01-27T08:58:54.000Z</time>
      </trkpt>
      <trkpt lat="40.10264776647090911865234375" lon="0.00080307014286518096923828125">
        <ele>293.600006103515625</ele>
        <time>2023-01-27T08:58:55.000Z</time>
      </trkpt>
      <trkpt lat="40.10260862298309803009033203125" lon="0.00077809207141399383544921875">
        <ele>293.399993896484375</ele>
        <time>2023-01-27T08:58:56.000Z</time>
      </trkpt>
      <trkpt lat="40.1025773584842681884765625" lon="0.0007448159158229827880859375">
        <ele>293.399993896484375</ele>
        <time>2023-01-27T08:58:57.000Z</time>
      </trkpt>
      <trkpt lat="40.1025424897670745849609375" lon="0.00072419643402099609375">
        <ele>293.399993896484375</ele>
        <time>2023-01-27T08:58:58.000Z</time>
      </trkpt>
      <trkpt lat="40.1025094650685787200927734375" lon="0.00070584006607532501220703125">
        <ele>293.399993896484375</ele>
        <time>2023-01-27T08:58:59.000Z</time>
      </trkpt>
      <trkpt lat="40.10247685946524143218994140625" lon="0.00068890862166881561279296875">
        <ele>293.399993896484375</ele>
        <time>2023-01-27T08:59:00.000Z</time>
      </trkpt>
      <trkpt lat="40.1024427451193332672119140625" lon="0.00066719949245452880859375">
        <ele>293.399993896484375</ele>
        <time>2023-01-27T08:59:01.000Z</time>
      </trkpt>
      <trkpt lat="40.102406702935695648193359375" lon="0.00064574182033538818359375">
        <ele>293.399993896484375</ele>
        <time>2023-01-27T08:59:02.000Z</time>
      </trkpt>
      <trkpt lat="40.10225507430732250213623046875" lon="0.00058631412684917449951171875">
        <ele>293.600006103515625</ele>
        <time>2023-01-27T08:59:06.000Z</time>
      </trkpt>
      <trkpt lat="40.10190689004957675933837890625" lon="0.000477097928524017333984375">
        <ele>294.20001220703125</ele>
        <time>2023-01-27T08:59:14.000Z</time>
      </trkpt>
      <trkpt lat="40.10177277959883213043212890625" lon="0.0004413910210132598876953125">
        <ele>294.399993896484375</ele>
        <time>2023-01-27T08:59:17.000Z</time>
      </trkpt>
      <trkpt lat="40.10169432498514652252197265625" lon="0.00043326057493686676025390625">
        <ele>294.79998779296875</ele>
        <time>2023-01-27T08:59:19.000Z</time>
      </trkpt>
      <trkpt lat="40.10167906992137432098388671875" lon="0.00042890198528766632080078125">
        <ele>294.79998779296875</ele>
        <time>2023-01-27T08:59:20.000Z</time>
      </trkpt>
      <trkpt lat="40.10167370550334453582763671875" lon="0.00044591724872589111328125">
        <ele>294.79998779296875</ele>
        <time>2023-01-27T08:59:21.000Z</time>
      </trkpt>
      <trkpt lat="40.1016706041991710662841796875" lon="0.00047936104238033294677734375">
        <ele>294.79998779296875</ele>
        <time>2023-01-27T08:59:22.000Z</time>
      </trkpt>
      <trkpt lat="40.10166649706661701202392578125" lon="0.00051976181566715240478515625">
        <ele>295</ele>
        <time>2023-01-27T08:59:23.000Z</time>
      </trkpt>
      <trkpt lat="40.10164705105125904083251953125" lon="0.00061363913118839263916015625">
        <ele>295</ele>
        <time>2023-01-27T08:59:25.000Z</time>
      </trkpt>
      <trkpt lat="40.101637579500675201416015625" lon="0.000668205320835113525390625">
        <ele>295</ele>
        <time>2023-01-27T08:59:26.000Z</time>
      </trkpt>
      <trkpt lat="40.1016283594071865081787109375" lon="0.0007193349301815032958984375">
        <ele>295</ele>
        <time>2023-01-27T08:59:27.000Z</time>
      </trkpt>
      <trkpt lat="40.101620145142078399658203125" lon="0.0007630884647369384765625">
        <ele>295</ele>
        <time>2023-01-27T08:59:28.000Z</time>
      </trkpt>
      <trkpt lat="40.101612098515033721923828125" lon="0.00080256722867488861083984375">
        <ele>294.79998779296875</ele>
        <time>2023-01-27T08:59:29.000Z</time>
      </trkpt>
      <trkpt lat="40.1016018725931644439697265625" lon="0.0008437223732471466064453125">
        <ele>294.79998779296875</ele>
        <time>2023-01-27T08:59:30.000Z</time>
      </trkpt>
      <trkpt lat="40.10159231722354888916015625" lon="0.00088672153651714324951171875">
        <ele>294.79998779296875</ele>
        <time>2023-01-27T08:59:31.000Z</time>
      </trkpt>
      <trkpt lat="40.10156692005693912506103515625" lon="0.0010381825268268585205078125">
        <ele>294.600006103515625</ele>
        <time>2023-01-27T08:59:34.000Z</time>
      </trkpt>
      <trkpt lat="40.10153330862522125244140625" lon="0.00125217251479625701904296875">
        <ele>294.20001220703125</ele>
        <time>2023-01-27T08:59:38.000Z</time>
      </trkpt>
      <trkpt lat="40.1015116833150386810302734375" lon="0.00136683695018291473388671875">
        <ele>294</ele>
        <time>2023-01-27T08:59:40.000Z</time>
      </trkpt>
      <trkpt lat="40.1014701090753078460693359375" lon="0.0015598721802234649658203125">
        <ele>293.79998779296875</ele>
        <time>2023-01-27T08:59:43.000Z</time>
      </trkpt>
      <trkpt lat="40.10142409242689609527587890625" lon="0.00177092850208282470703125">
        <ele>293.399993896484375</ele>
        <time>2023-01-27T08:59:46.000Z</time>
      </trkpt>
      <trkpt lat="40.10132334195077419281005859375" lon="0.0022304244339466094970703125">
        <ele>292.79998779296875</ele>
        <time>2023-01-27T08:59:52.000Z</time>
      </trkpt>
      <trkpt lat="40.101311691105365753173828125" lon="0.002312399446964263916015625">
        <ele>292.600006103515625</ele>
        <time>2023-01-27T08:59:53.000Z</time>
      </trkpt>
      <trkpt lat="40.10130808688700199127197265625" lon="0.00239864923059940338134765625">
        <ele>292.600006103515625</ele>
        <time>2023-01-27T08:59:54.000Z</time>
      </trkpt>
      <trkpt lat="40.1013359986245632171630859375" lon="0.00257131643593311309814453125">
        <ele>292.20001220703125</ele>
        <time>2023-01-27T08:59:56.000Z</time>
      </trkpt>
      <trkpt lat="40.10136659257113933563232421875" lon="0.0026528723537921905517578125">
        <ele>292</ele>
        <time>2023-01-27T08:59:57.000Z</time>
      </trkpt>
      <trkpt lat="40.10140322148799896240234375" lon="0.00273526646196842193603515625">
        <ele>291.600006103515625</ele>
        <time>2023-01-27T08:59:58.000Z</time>
      </trkpt>
      <trkpt lat="40.10144001804292201995849609375" lon="0.002816654741764068603515625">
        <ele>291.79998779296875</ele>
        <time>2023-01-27T08:59:59.000Z</time>
      </trkpt>
      <trkpt lat="40.10147589258849620819091796875" lon="0.00289821065962314605712890625">
        <ele>291.20001220703125</ele>
        <time>2023-01-27T09:00:00.000Z</time>
      </trkpt>
      <trkpt lat="40.10150053538382053375244140625" lon="0.00299024395644664764404296875">
        <ele>291</ele>
        <time>2023-01-27T09:00:01.000Z</time>
      </trkpt>
      <trkpt lat="40.10152316652238368988037109375" lon="0.003084205090999603271484375">
        <ele>290.20001220703125</ele>
        <time>2023-01-27T09:00:02.000Z</time>
      </trkpt>
      <trkpt lat="40.1015582866966724395751953125" lon="0.003257878124713897705078125">
        <ele>288.79998779296875</ele>
        <time>2023-01-27T09:00:04.000Z</time>
      </trkpt>
      <trkpt lat="40.1015810854732990264892578125" lon="0.00333323143422603607177734375">
        <ele>288.600006103515625</ele>
        <time>2023-01-27T09:00:05.000Z</time>
      </trkpt>
      <trkpt lat="40.10161704383790493011474609375" lon="0.00340062193572521209716796875">
        <ele>287.600006103515625</ele>
        <time>2023-01-27T09:00:06.000Z</time>
      </trkpt>
      <trkpt lat="40.1016627252101898193359375" lon="0.00345560722053050994873046875">
        <ele>286.79998779296875</ele>
        <time>2023-01-27T09:00:07.000Z</time>
      </trkpt>
      <trkpt lat="40.10171192698180675506591796875" lon="0.00349952839314937591552734375">
        <ele>286</ele>
        <time>2023-01-27T09:00:08.000Z</time>
      </trkpt>
      <trkpt lat="40.10175995528697967529296875" lon="0.0035423599183559417724609375">
        <ele>285.79998779296875</ele>
        <time>2023-01-27T09:00:09.000Z</time>
      </trkpt>
      <trkpt lat="40.10180630721151828765869140625" lon="0.003586113452911376953125">
        <ele>285.399993896484375</ele>
        <time>2023-01-27T09:00:10.000Z</time>
      </trkpt>
      <trkpt lat="40.101847462356090545654296875" lon="0.00362542457878589630126953125">
        <ele>285.20001220703125</ele>
        <time>2023-01-27T09:00:11.000Z</time>
      </trkpt>
      <trkpt lat="40.1018798165023326873779296875" lon="0.003657527267932891845703125">
        <ele>285</ele>
        <time>2023-01-27T09:00:12.000Z</time>
      </trkpt>
      <trkpt lat="40.1019029505550861358642578125" lon="0.00368200242519378662109375">
        <ele>285</ele>
        <time>2023-01-27T09:00:13.000Z</time>
      </trkpt>
      <trkpt lat="40.1019240729510784149169921875" lon="0.0037054717540740966796875">
        <ele>285</ele>
        <time>2023-01-27T09:00:14.000Z</time>
      </trkpt>
      <trkpt lat="40.1019502244889736175537109375" lon="0.003726594150066375732421875">
        <ele>285</ele>
        <time>2023-01-27T09:00:15.000Z</time>
      </trkpt>
      <trkpt lat="40.10197863914072513580322265625" lon="0.0037431903183460235595703125">
        <ele>285</ele>
        <time>2023-01-27T09:00:16.000Z</time>
      </trkpt>
      <trkpt lat="40.10200881399214267730712890625" lon="0.0037569366395473480224609375">
        <ele>285.20001220703125</ele>
        <time>2023-01-27T09:00:17.000Z</time>
      </trkpt>
      <trkpt lat="40.1020337082445621490478515625" lon="0.00377579592168331146240234375">
        <ele>285.399993896484375</ele>
        <time>2023-01-27T09:00:18.000Z</time>
      </trkpt>
      <trkpt lat="40.10204854421317577362060546875" lon="0.00380949117243289947509765625">
        <ele>285.600006103515625</ele>
        <time>2023-01-27T09:00:19.000Z</time>
      </trkpt>
      <trkpt lat="40.10204485617578029632568359375" lon="0.0038410909473896026611328125">
        <ele>285.79998779296875</ele>
        <time>2023-01-27T09:00:20.000Z</time>
      </trkpt>
      <trkpt lat="40.10203513316810131072998046875" lon="0.00387436710298061370849609375">
        <ele>286.20001220703125</ele>
        <time>2023-01-27T09:00:21.000Z</time>
      </trkpt>
      <trkpt lat="40.10202440433204174041748046875" lon="0.00390219502151012420654296875">
        <ele>286.399993896484375</ele>
        <time>2023-01-27T09:00:22.000Z</time>
      </trkpt>
      <trkpt lat="40.10201334021985530853271484375" lon="0.003945529460906982421875">
        <ele>287</ele>
        <time>2023-01-27T09:00:23.000Z</time>
      </trkpt>
      <trkpt lat="40.10200579650700092315673828125" lon="0.00398232601583003997802734375">
        <ele>287.20001220703125</ele>
        <time>2023-01-27T09:00:24.000Z</time>
      </trkpt>
      <trkpt lat="40.10196916759014129638671875" lon="0.00408978201448917388916015625">
        <ele>288.399993896484375</ele>
        <time>2023-01-27T09:00:27.000Z</time>
      </trkpt>
      <trkpt lat="40.10192365385591983795166015625" lon="0.004164464771747589111328125">
        <ele>288.600006103515625</ele>
        <time>2023-01-27T09:00:29.000Z</time>
      </trkpt>
      <trkpt lat="40.10190638713538646697998046875" lon="0.00419036485254764556884765625">
        <ele>288.79998779296875</ele>
        <time>2023-01-27T09:00:30.000Z</time>
      </trkpt>
      <trkpt lat="40.1018449477851390838623046875" lon="0.00429664738476276397705078125">
        <ele>289.399993896484375</ele>
        <time>2023-01-27T09:00:33.000Z</time>
      </trkpt>
      <trkpt lat="40.1017718575894832611083984375" lon="0.00445573590695858001708984375">
        <ele>289.399993896484375</ele>
        <time>2023-01-27T09:00:36.000Z</time>
      </trkpt>
      <trkpt lat="40.10173070244491100311279296875" lon="0.0045713223516941070556640625">
        <ele>289.399993896484375</ele>
        <time>2023-01-27T09:00:38.000Z</time>
      </trkpt>
      <trkpt lat="40.10166046209633350372314453125" lon="0.0047543831169605255126953125">
        <ele>288.600006103515625</ele>
        <time>2023-01-27T09:00:41.000Z</time>
      </trkpt>
      <trkpt lat="40.10162626393139362335205078125" lon="0.00485471449792385101318359375">
        <ele>288.399993896484375</ele>
        <time>2023-01-27T09:00:43.000Z</time>
      </trkpt>
      <trkpt lat="40.10157781653106212615966796875" lon="0.004836358129978179931640625">
        <ele>288.399993896484375</ele>
        <time>2023-01-27T09:00:44.000Z</time>
      </trkpt>
      <trkpt lat="40.101557783782482147216796875" lon="0.004859156906604766845703125">
        <ele>288.20001220703125</ele>
        <time>2023-01-27T09:00:45.000Z</time>
      </trkpt>
      <trkpt lat="40.1015388406813144683837890625" lon="0.00486326403915882110595703125">
        <ele>288.20001220703125</ele>
        <time>2023-01-27T09:00:46.000Z</time>
      </trkpt>
      <trkpt lat="40.10151830501854419708251953125" lon="0.0048626773059368133544921875">
        <ele>288.20001220703125</ele>
        <time>2023-01-27T09:00:47.000Z</time>
      </trkpt>
      <trkpt lat="40.1015029661357402801513671875" lon="0.0048496015369892120361328125">
        <ele>288.399993896484375</ele>
        <time>2023-01-27T09:00:48.000Z</time>
      </trkpt>
      <trkpt lat="40.101489387452602386474609375" lon="0.004832334816455841064453125">
        <ele>288.399993896484375</ele>
        <time>2023-01-27T09:00:49.000Z</time>
      </trkpt>
      <trkpt lat="40.10147161781787872314453125" lon="0.0048143975436687469482421875">
        <ele>288.600006103515625</ele>
        <time>2023-01-27T09:00:50.000Z</time>
      </trkpt>
      <trkpt lat="40.10145393200218677520751953125" lon="0.00480593182146549224853515625">
        <ele>288.79998779296875</ele>
        <time>2023-01-27T09:00:51.000Z</time>
      </trkpt>
      <trkpt lat="40.10140615515410900115966796875" lon="0.004788078367710113525390625">
        <ele>289.20001220703125</ele>
        <time>2023-01-27T09:00:53.000Z</time>
      </trkpt>
      <trkpt lat="40.1013815961778163909912109375" lon="0.004773326218128204345703125">
        <ele>289.20001220703125</ele>
        <time>2023-01-27T09:00:54.000Z</time>
      </trkpt>
      <trkpt lat="40.10135502554476261138916015625" lon="0.00475882552564144134521484375">
        <ele>289.399993896484375</ele>
        <time>2023-01-27T09:00:55.000Z</time>
      </trkpt>
      <trkpt lat="40.101203061640262603759765625" lon="0.00465807504951953887939453125">
        <ele>290.399993896484375</ele>
        <time>2023-01-27T09:01:01.000Z</time>
      </trkpt>
      <trkpt lat="40.10117280296981334686279296875" lon="0.004642568528652191162109375">
        <ele>290.600006103515625</ele>
        <time>2023-01-27T09:01:02.000Z</time>
      </trkpt>
      <trkpt lat="40.10096610523760318756103515625" lon="0.00449873507022857666015625">
        <ele>291.399993896484375</ele>
        <time>2023-01-27T09:01:08.000Z</time>
      </trkpt>
      <trkpt lat="40.10093106888234615325927734375" lon="0.00446856021881103515625">
        <ele>291.399993896484375</ele>
        <time>2023-01-27T09:01:09.000Z</time>
      </trkpt>
      <trkpt lat="40.100893937051296234130859375" lon="0.0044402293860912322998046875">
        <ele>291.600006103515625</ele>
        <time>2023-01-27T09:01:10.000Z</time>
      </trkpt>
      <trkpt lat="40.10086317546665668487548828125" lon="0.0044197775423526763916015625">
        <ele>291.600006103515625</ele>
        <time>2023-01-27T09:01:11.000Z</time>
      </trkpt>
      <trkpt lat="40.1008200086653232574462890625" lon="0.0043969787657260894775390625">
        <ele>291.600006103515625</ele>
        <time>2023-01-27T09:01:12.000Z</time>
      </trkpt>
      <trkpt lat="40.10076376609504222869873046875" lon="0.004378370940685272216796875">
        <ele>291.600006103515625</ele>
        <time>2023-01-27T09:01:13.000Z</time>
      </trkpt>
      <trkpt lat="40.10071112774312496185302734375" lon="0.00436252914369106292724609375">
        <ele>291.600006103515625</ele>
        <time>2023-01-27T09:01:14.000Z</time>
      </trkpt>
      <trkpt lat="40.100652538239955902099609375" lon="0.0043357908725738525390625">
        <ele>291.600006103515625</ele>
        <time>2023-01-27T09:01:15.000Z</time>
      </trkpt>
      <trkpt lat="40.100592859089374542236328125" lon="0.004295893013477325439453125">
        <ele>291.600006103515625</ele>
        <time>2023-01-27T09:01:16.000Z</time>
      </trkpt>
      <trkpt lat="40.10055053047835826873779296875" lon="0.004259683191776275634765625">
        <ele>291.600006103515625</ele>
        <time>2023-01-27T09:01:17.000Z</time>
      </trkpt>
      <trkpt lat="40.10050409473478794097900390625" lon="0.0042162649333477020263671875">
        <ele>291.600006103515625</ele>
        <time>2023-01-27T09:01:18.000Z</time>
      </trkpt>
      <trkpt lat="40.10045581497251987457275390625" lon="0.00416806899011135101318359375">
        <ele>291.600006103515625</ele>
        <time>2023-01-27T09:01:19.000Z</time>
      </trkpt>
      <trkpt lat="40.100423209369182586669921875" lon="0.00413873232901096343994140625">
        <ele>291.600006103515625</ele>
        <time>2023-01-27T09:01:20.000Z</time>
      </trkpt>
      <trkpt lat="40.100391693413257598876953125" lon="0.00411425717175006866455078125">
        <ele>291.600006103515625</ele>
        <time>2023-01-27T09:01:21.000Z</time>
      </trkpt>
      <trkpt lat="40.10036545805633068084716796875" lon="0.00409866683185100555419921875">
        <ele>291.600006103515625</ele>
        <time>2023-01-27T09:01:22.000Z</time>
      </trkpt>
      <trkpt lat="40.10033243335783481597900390625" lon="0.00408324413001537322998046875">
        <ele>291.600006103515625</ele>
        <time>2023-01-27T09:01:23.000Z</time>
      </trkpt>
      <trkpt lat="40.1002942956984043121337890625" lon="0.00407435931265354156494140625">
        <ele>291.600006103515625</ele>
        <time>2023-01-27T09:01:24.000Z</time>
      </trkpt>
      <trkpt lat="40.10026353411376476287841796875" lon="0.004068575799465179443359375">
        <ele>291.600006103515625</ele>
        <time>2023-01-27T09:01:25.000Z</time>
      </trkpt>
      <trkpt lat="40.10023176670074462890625" lon="0.00405826605856418609619140625">
        <ele>291.600006103515625</ele>
        <time>2023-01-27T09:01:26.000Z</time>
      </trkpt>
      <trkpt lat="40.1002017594873905181884765625" lon="0.00404753722250461578369140625">
        <ele>292</ele>
        <time>2023-01-27T09:01:27.000Z</time>
      </trkpt>
      <trkpt lat="40.10017770342528820037841796875" lon="0.00404083169996738433837890625">
        <ele>292</ele>
        <time>2023-01-27T09:01:28.000Z</time>
      </trkpt>
      <trkpt lat="40.10013990104198455810546875" lon="0.00403010286390781402587890625">
        <ele>292.399993896484375</ele>
        <time>2023-01-27T09:01:29.000Z</time>
      </trkpt>
      <trkpt lat="40.10010830126702785491943359375" lon="0.0040166079998016357421875">
        <ele>292.600006103515625</ele>
        <time>2023-01-27T09:01:30.000Z</time>
      </trkpt>
      <trkpt lat="40.100077204406261444091796875" lon="0.00400328077375888824462890625">
        <ele>293</ele>
        <time>2023-01-27T09:01:31.000Z</time>
      </trkpt>
      <trkpt lat="40.10004711337387561798095703125" lon="0.00398802570998668670654296875">
        <ele>293.399993896484375</ele>
        <time>2023-01-27T09:01:32.000Z</time>
      </trkpt>
      <trkpt lat="40.10001643560826778411865234375" lon="0.003971345722675323486328125">
        <ele>293.600006103515625</ele>
        <time>2023-01-27T09:01:33.000Z</time>
      </trkpt>
      <trkpt lat="40.0999845005571842193603515625" lon="0.0039544142782688140869140625">
        <ele>293.79998779296875</ele>
        <time>2023-01-27T09:01:34.000Z</time>
      </trkpt>
      <trkpt lat="40.099882744252681732177734375" lon="0.0038980878889560699462890625">
        <ele>294.600006103515625</ele>
        <time>2023-01-27T09:01:37.000Z</time>
      </trkpt>
      <trkpt lat="40.0998497195541858673095703125" lon="0.0038756243884563446044921875">
        <ele>295</ele>
        <time>2023-01-27T09:01:38.000Z</time>
      </trkpt>
      <trkpt lat="40.09981242008507251739501953125" lon="0.0038551725447177886962890625">
        <ele>295</ele>
        <time>2023-01-27T09:01:39.000Z</time>
      </trkpt>
      <trkpt lat="40.09977520443499088287353515625" lon="0.00383497215807437896728515625">
        <ele>295.399993896484375</ele>
        <time>2023-01-27T09:01:40.000Z</time>
      </trkpt>
      <trkpt lat="40.09973882697522640228271484375" lon="0.0038149394094944000244140625">
        <ele>295.399993896484375</ele>
        <time>2023-01-27T09:01:41.000Z</time>
      </trkpt>
      <trkpt lat="40.09969926439225673675537109375" lon="0.003795661032199859619140625">
        <ele>295.600006103515625</ele>
        <time>2023-01-27T09:01:42.000Z</time>
      </trkpt>
      <trkpt lat="40.099662132561206817626953125" lon="0.0037723593413829803466796875">
        <ele>295.600006103515625</ele>
        <time>2023-01-27T09:01:43.000Z</time>
      </trkpt>
      <trkpt lat="40.099626593291759490966796875" lon="0.003750063478946685791015625">
        <ele>295.79998779296875</ele>
        <time>2023-01-27T09:01:44.000Z</time>
      </trkpt>
      <trkpt lat="40.09958895854651927947998046875" lon="0.003725253045558929443359375">
        <ele>295.79998779296875</ele>
        <time>2023-01-27T09:01:45.000Z</time>
      </trkpt>
      <trkpt lat="40.0995504856109619140625" lon="0.0037014484405517578125">
        <ele>295.79998779296875</ele>
        <time>2023-01-27T09:01:46.000Z</time>
      </trkpt>
      <trkpt lat="40.0995120964944362640380859375" lon="0.00367655418813228607177734375">
        <ele>296</ele>
        <time>2023-01-27T09:01:47.000Z</time>
      </trkpt>
      <trkpt lat="40.09947513230144977569580078125" lon="0.003650821745395660400390625">
        <ele>296</ele>
        <time>2023-01-27T09:01:48.000Z</time>
      </trkpt>
      <trkpt lat="40.0994393415749073028564453125" lon="0.00362173654139041900634765625">
        <ele>296.20001220703125</ele>
        <time>2023-01-27T09:01:49.000Z</time>
      </trkpt>
      <trkpt lat="40.09940137155354022979736328125" lon="0.00359256751835346221923828125">
        <ele>296.399993896484375</ele>
        <time>2023-01-27T09:01:50.000Z</time>
      </trkpt>
      <trkpt lat="40.09936281479895114898681640625" lon="0.00356733798980712890625">
        <ele>296.399993896484375</ele>
        <time>2023-01-27T09:01:51.000Z</time>
      </trkpt>
      <trkpt lat="40.099324174225330352783203125" lon="0.00354680232703685760498046875">
        <ele>296.600006103515625</ele>
        <time>2023-01-27T09:01:52.000Z</time>
      </trkpt>
      <trkpt lat="40.099291317164897918701171875" lon="0.003532133996486663818359375">
        <ele>296.600006103515625</ele>
        <time>2023-01-27T09:01:53.000Z</time>
      </trkpt>
      <trkpt lat="40.0992438755929470062255859375" lon="0.00350824557244777679443359375">
        <ele>296.79998779296875</ele>
        <time>2023-01-27T09:01:54.000Z</time>
      </trkpt>
      <trkpt lat="40.0992031395435333251953125" lon="0.0034887157380580902099609375">
        <ele>296.79998779296875</ele>
        <time>2023-01-27T09:01:55.000Z</time>
      </trkpt>
      <trkpt lat="40.0991620682179927825927734375" lon="0.00346315093338489532470703125">
        <ele>297</ele>
        <time>2023-01-27T09:01:56.000Z</time>
      </trkpt>
      <trkpt lat="40.09912275709211826324462890625" lon="0.0034347362816333770751953125">
        <ele>297.399993896484375</ele>
        <time>2023-01-27T09:01:57.000Z</time>
      </trkpt>
      <trkpt lat="40.09909191168844699859619140625" lon="0.00341369770467281341552734375">
        <ele>297.399993896484375</ele>
        <time>2023-01-27T09:01:58.000Z</time>
      </trkpt>
      <trkpt lat="40.09904782287776470184326171875" lon="0.00338285230100154876708984375">
        <ele>297.600006103515625</ele>
        <time>2023-01-27T09:01:59.000Z</time>
      </trkpt>
      <trkpt lat="40.0990118645131587982177734375" lon="0.00335770659148693084716796875">
        <ele>297.79998779296875</ele>
        <time>2023-01-27T09:02:00.000Z</time>
      </trkpt>
      <trkpt lat="40.09898194111883640289306640625" lon="0.00333742238581180572509765625">
        <ele>297.79998779296875</ele>
        <time>2023-01-27T09:02:01.000Z</time>
      </trkpt>
      <trkpt lat="40.09893952868878841400146484375" lon="0.003306828439235687255859375">
        <ele>298</ele>
        <time>2023-01-27T09:02:02.000Z</time>
      </trkpt>
      <trkpt lat="40.098913125693798065185546875" lon="0.00328461639583110809326171875">
        <ele>298.399993896484375</ele>
        <time>2023-01-27T09:02:03.000Z</time>
      </trkpt>
      <trkpt lat="40.09887431748211383819580078125" lon="0.00325427390635013580322265625">
        <ele>298.600006103515625</ele>
        <time>2023-01-27T09:02:04.000Z</time>
      </trkpt>
      <trkpt lat="40.09884439408779144287109375" lon="0.0032261945307254791259765625">
        <ele>299</ele>
        <time>2023-01-27T09:02:05.000Z</time>
      </trkpt>
      <trkpt lat="40.098812542855739593505859375" lon="0.003203563392162322998046875">
        <ele>299.20001220703125</ele>
        <time>2023-01-27T09:02:06.000Z</time>
      </trkpt>
      <trkpt lat="40.09878530167043209075927734375" lon="0.00318579375743865966796875">
        <ele>299.20001220703125</ele>
        <time>2023-01-27T09:02:07.000Z</time>
      </trkpt>
      <trkpt lat="40.0987433083355426788330078125" lon="0.0031591393053531646728515625">
        <ele>299.399993896484375</ele>
        <time>2023-01-27T09:02:08.000Z</time>
      </trkpt>
      <trkpt lat="40.09870718233287334442138671875" lon="0.00313675962388515472412109375">
        <ele>299.79998779296875</ele>
        <time>2023-01-27T09:02:09.000Z</time>
      </trkpt>
      <trkpt lat="40.0986707210540771484375" lon="0.0031118653714656829833984375">
        <ele>300</ele>
        <time>2023-01-27T09:02:10.000Z</time>
      </trkpt>
      <trkpt lat="40.09863342158496379852294921875" lon="0.0030858814716339111328125">
        <ele>300.20001220703125</ele>
        <time>2023-01-27T09:02:11.000Z</time>
      </trkpt>
      <trkpt lat="40.09859620593488216400146484375" lon="0.0030521862208843231201171875">
        <ele>300.399993896484375</ele>
        <time>2023-01-27T09:02:12.000Z</time>
      </trkpt>
      <trkpt lat="40.09855798445641994476318359375" lon="0.00301538966596126556396484375">
        <ele>300.399993896484375</ele>
        <time>2023-01-27T09:02:13.000Z</time>
      </trkpt>
      <trkpt lat="40.09851850569248199462890625" lon="0.0029801018536090850830078125">
        <ele>300.600006103515625</ele>
        <time>2023-01-27T09:02:14.000Z</time>
      </trkpt>
      <trkpt lat="40.098473243415355682373046875" lon="0.00294984318315982818603515625">
        <ele>300.79998779296875</ele>
        <time>2023-01-27T09:02:15.000Z</time>
      </trkpt>
      <trkpt lat="40.09842353872954845428466796875" lon="0.0029194168746471405029296875">
        <ele>300.79998779296875</ele>
        <time>2023-01-27T09:02:16.000Z</time>
      </trkpt>
      <trkpt lat="40.0983845628798007965087890625" lon="0.00288999639451503753662109375">
        <ele>301</ele>
        <time>2023-01-27T09:02:17.000Z</time>
      </trkpt>
      <trkpt lat="40.09833636693656444549560546875" lon="0.00284708105027675628662109375">
        <ele>301</ele>
        <time>2023-01-27T09:02:18.000Z</time>
      </trkpt>
      <trkpt lat="40.0982843153178691864013671875" lon="0.0028044171631336212158203125">
        <ele>301</ele>
        <time>2023-01-27T09:02:19.000Z</time>
      </trkpt>
      <trkpt lat="40.09823410771787166595458984375" lon="0.00276041217148303985595703125">
        <ele>301</ele>
        <time>2023-01-27T09:02:20.000Z</time>
      </trkpt>
      <trkpt lat="40.09818314574658870697021484375" lon="0.00271297059953212738037109375">
        <ele>301</ele>
        <time>2023-01-27T09:02:21.000Z</time>
      </trkpt>
      <trkpt lat="40.0981302559375762939453125" lon="0.00266544520854949951171875">
        <ele>301</ele>
        <time>2023-01-27T09:02:22.000Z</time>
      </trkpt>
      <trkpt lat="40.09806529618799686431884765625" lon="0.0026102922856807708740234375">
        <ele>301</ele>
        <time>2023-01-27T09:02:23.000Z</time>
      </trkpt>
      <trkpt lat="40.09800964035093784332275390625" lon="0.00256293453276157379150390625">
        <ele>301</ele>
        <time>2023-01-27T09:02:24.000Z</time>
      </trkpt>
      <trkpt lat="40.097954235970973968505859375" lon="0.00251658260822296142578125">
        <ele>300.79998779296875</ele>
        <time>2023-01-27T09:02:25.000Z</time>
      </trkpt>
      <trkpt lat="40.097901932895183563232421875" lon="0.00246964395046234130859375">
        <ele>300.600006103515625</ele>
        <time>2023-01-27T09:02:26.000Z</time>
      </trkpt>
      <trkpt lat="40.09786136448383331298828125" lon="0.00243167392909526824951171875">
        <ele>300.600006103515625</ele>
        <time>2023-01-27T09:02:27.000Z</time>
      </trkpt>
      <trkpt lat="40.09781149215996265411376953125" lon="0.00239144079387187957763671875">
        <ele>300.600006103515625</ele>
        <time>2023-01-27T09:02:28.000Z</time>
      </trkpt>
      <trkpt lat="40.0977622903883457183837890625" lon="0.0023536384105682373046875">
        <ele>300.399993896484375</ele>
        <time>2023-01-27T09:02:29.000Z</time>
      </trkpt>
      <trkpt lat="40.097715519368648529052734375" lon="0.002317093312740325927734375">
        <ele>300.399993896484375</ele>
        <time>2023-01-27T09:02:30.000Z</time>
      </trkpt>
      <trkpt lat="40.09756372310221195220947265625" lon="0.00221349298954010009765625">
        <ele>300.20001220703125</ele>
        <time>2023-01-27T09:02:33.000Z</time>
      </trkpt>
      <trkpt lat="40.097504965960979461669921875" lon="0.00216714106500148773193359375">
        <ele>300</ele>
        <time>2023-01-27T09:02:34.000Z</time>
      </trkpt>
      <trkpt lat="40.0974581949412822723388671875" lon="0.00212472863495349884033203125">
        <ele>300</ele>
        <time>2023-01-27T09:02:35.000Z</time>
      </trkpt>
      <trkpt lat="40.0974109210073947906494140625" lon="0.00208466313779354095458984375">
        <ele>300</ele>
        <time>2023-01-27T09:02:36.000Z</time>
      </trkpt>
      <trkpt lat="40.097364485263824462890625" lon="0.00204510055482387542724609375">
        <ele>300</ele>
        <time>2023-01-27T09:02:37.000Z</time>
      </trkpt>
      <trkpt lat="40.09732802398502826690673828125" lon="0.0020131655037403106689453125">
        <ele>300</ele>
        <time>2023-01-27T09:02:38.000Z</time>
      </trkpt>
      <trkpt lat="40.09728142060339450836181640625" lon="0.0019789673388004302978515625">
        <ele>300.20001220703125</ele>
        <time>2023-01-27T09:02:39.000Z</time>
      </trkpt>
      <trkpt lat="40.0972362421452999114990234375" lon="0.00194569118320941925048828125">
        <ele>300.20001220703125</ele>
        <time>2023-01-27T09:02:40.000Z</time>
      </trkpt>
      <trkpt lat="40.09719190187752246856689453125" lon="0.00191333703696727752685546875">
        <ele>300.20001220703125</ele>
        <time>2023-01-27T09:02:41.000Z</time>
      </trkpt>
      <trkpt lat="40.09710674174129962921142578125" lon="0.00184779055416584014892578125">
        <ele>300.600006103515625</ele>
        <time>2023-01-27T09:02:43.000Z</time>
      </trkpt>
      <trkpt lat="40.09706466458737850189208984375" lon="0.00181610696017742156982421875">
        <ele>300.600006103515625</ele>
        <time>2023-01-27T09:02:44.000Z</time>
      </trkpt>
      <trkpt lat="40.097021497786045074462890625" lon="0.00178157351911067962646484375">
        <ele>300.79998779296875</ele>
        <time>2023-01-27T09:02:45.000Z</time>
      </trkpt>
      <trkpt lat="40.09698118083178997039794921875" lon="0.00174343585968017578125">
        <ele>301.20001220703125</ele>
        <time>2023-01-27T09:02:46.000Z</time>
      </trkpt>
      <trkpt lat="40.0969445519149303436279296875" lon="0.00170052051544189453125">
        <ele>301.399993896484375</ele>
        <time>2023-01-27T09:02:47.000Z</time>
      </trkpt>
      <trkpt lat="40.09690322913229465484619140625" lon="0.00164796598255634307861328125">
        <ele>301.600006103515625</ele>
        <time>2023-01-27T09:02:48.000Z</time>
      </trkpt>
      <trkpt lat="40.0968717969954013824462890625" lon="0.00160731375217437744140625">
        <ele>301.600006103515625</ele>
        <time>2023-01-27T09:02:49.000Z</time>
      </trkpt>
      <trkpt lat="40.09684137068688869476318359375" lon="0.00156708061695098876953125">
        <ele>301.79998779296875</ele>
        <time>2023-01-27T09:02:50.000Z</time>
      </trkpt>
      <trkpt lat="40.096810944378376007080078125" lon="0.00152994878590106964111328125">
        <ele>301.79998779296875</ele>
        <time>2023-01-27T09:02:51.000Z</time>
      </trkpt>
      <trkpt lat="40.096783451735973358154296875" lon="0.0014914758503437042236328125">
        <ele>302</ele>
        <time>2023-01-27T09:02:52.000Z</time>
      </trkpt>
      <trkpt lat="40.0967574678361415863037109375" lon="0.00145199708640575408935546875">
        <ele>302.20001220703125</ele>
        <time>2023-01-27T09:02:53.000Z</time>
      </trkpt>
      <trkpt lat="40.09672888554632663726806640625" lon="0.00141494907438755035400390625">
        <ele>302.600006103515625</ele>
        <time>2023-01-27T09:02:54.000Z</time>
      </trkpt>
      <trkpt lat="40.0967028178274631500244140625" lon="0.00137790106236934661865234375">
        <ele>302.79998779296875</ele>
        <time>2023-01-27T09:02:55.000Z</time>
      </trkpt>
      <trkpt lat="40.09667582809925079345703125" lon="0.0013411045074462890625">
        <ele>303</ele>
        <time>2023-01-27T09:02:56.000Z</time>
      </trkpt>
      <trkpt lat="40.0966515205800533294677734375" lon="0.00130422413349151611328125">
        <ele>303</ele>
        <time>2023-01-27T09:02:57.000Z</time>
      </trkpt>
      <trkpt lat="40.09662696160376071929931640625" lon="0.0012695230543613433837890625">
        <ele>303.399993896484375</ele>
        <time>2023-01-27T09:02:58.000Z</time>
      </trkpt>
      <trkpt lat="40.09660399518907070159912109375" lon="0.00123423524200916290283203125">
        <ele>303.79998779296875</ele>
        <time>2023-01-27T09:02:59.000Z</time>
      </trkpt>
      <trkpt lat="40.09657968766987323760986328125" lon="0.001201964914798736572265625">
        <ele>304</ele>
        <time>2023-01-27T09:03:00.000Z</time>
      </trkpt>
      <trkpt lat="40.0965542905032634735107421875" lon="0.00117338262498378753662109375">
        <ele>304.399993896484375</ele>
        <time>2023-01-27T09:03:01.000Z</time>
      </trkpt>
      <trkpt lat="40.0965298153460025787353515625" lon="0.0011448003351688385009765625">
        <ele>304.600006103515625</ele>
        <time>2023-01-27T09:03:02.000Z</time>
      </trkpt>
      <trkpt lat="40.096507184207439422607421875" lon="0.00112049281597137451171875">
        <ele>305</ele>
        <time>2023-01-27T09:03:03.000Z</time>
      </trkpt>
      <trkpt lat="40.09648748673498630523681640625" lon="0.0010951794683933258056640625">
        <ele>305</ele>
        <time>2023-01-27T09:03:04.000Z</time>
      </trkpt>
      <trkpt lat="40.09647022001445293426513671875" lon="0.0010700337588787078857421875">
        <ele>305.399993896484375</ele>
        <time>2023-01-27T09:03:05.000Z</time>
      </trkpt>
      <trkpt lat="40.09645228274166584014892578125" lon="0.00104404985904693603515625">
        <ele>305.600006103515625</ele>
        <time>2023-01-27T09:03:06.000Z</time>
      </trkpt>
      <trkpt lat="40.09643585421144962310791015625" lon="0.001021921634674072265625">
        <ele>306</ele>
        <time>2023-01-27T09:03:07.000Z</time>
      </trkpt>
      <trkpt lat="40.0964211858808994293212890625" lon="0.0010043196380138397216796875">
        <ele>306.20001220703125</ele>
        <time>2023-01-27T09:03:08.000Z</time>
      </trkpt>
      <trkpt lat="40.09640484116971492767333984375" lon="0.00099216587841510772705078125">
        <ele>306.399993896484375</ele>
        <time>2023-01-27T09:03:09.000Z</time>
      </trkpt>
      <trkpt lat="40.096386484801769256591796875" lon="0.00098763965070247650146484375">
        <ele>306.600006103515625</ele>
        <time>2023-01-27T09:03:10.000Z</time>
      </trkpt>
      <trkpt lat="40.09635924361646175384521484375" lon="0.00099350698292255401611328125">
        <ele>306.79998779296875</ele>
        <time>2023-01-27T09:03:11.000Z</time>
      </trkpt>
      <trkpt lat="40.09632370434701442718505859375" lon="0.00101144425570964813232421875">
        <ele>306.79998779296875</ele>
        <time>2023-01-27T09:03:12.000Z</time>
      </trkpt>
      <trkpt lat="40.09628296829760074615478515625" lon="0.00103357248008251190185546875">
        <ele>306.79998779296875</ele>
        <time>2023-01-27T09:03:13.000Z</time>
      </trkpt>
      <trkpt lat="40.09623670019209384918212890625" lon="0.00105536542832851409912109375">
        <ele>306.79998779296875</ele>
        <time>2023-01-27T09:03:14.000Z</time>
      </trkpt>
      <trkpt lat="40.0961874984204769134521484375" lon="0.00108017586171627044677734375">
        <ele>306.79998779296875</ele>
        <time>2023-01-27T09:03:15.000Z</time>
      </trkpt>
      <trkpt lat="40.0961395539343357086181640625" lon="0.001106746494770050048828125">
        <ele>306.79998779296875</ele>
        <time>2023-01-27T09:03:16.000Z</time>
      </trkpt>
      <trkpt lat="40.09609219618141651153564453125" lon="0.00113482587039470672607421875">
        <ele>306.79998779296875</ele>
        <time>2023-01-27T09:03:17.000Z</time>
      </trkpt>
      <trkpt lat="40.0960450060665607452392578125" lon="0.00116206705570220947265625">
        <ele>307</ele>
        <time>2023-01-27T09:03:18.000Z</time>
      </trkpt>
      <trkpt lat="40.09599857032299041748046875" lon="0.0011887215077877044677734375">
        <ele>307</ele>
        <time>2023-01-27T09:03:19.000Z</time>
      </trkpt>
      <trkpt lat="40.0959521345794200897216796875" lon="0.001215040683746337890625">
        <ele>307</ele>
        <time>2023-01-27T09:03:20.000Z</time>
      </trkpt>
      <trkpt lat="40.09590611793100833892822265625" lon="0.00124454498291015625">
        <ele>307</ele>
        <time>2023-01-27T09:03:21.000Z</time>
      </trkpt>
      <trkpt lat="40.095861442387104034423828125" lon="0.0012772344052791595458984375">
        <ele>307</ele>
        <time>2023-01-27T09:03:22.000Z</time>
      </trkpt>
      <trkpt lat="40.095815174281597137451171875" lon="0.0013127736747264862060546875">
        <ele>307</ele>
        <time>2023-01-27T09:03:23.000Z</time>
      </trkpt>
      <trkpt lat="40.09577368386089801788330078125" lon="0.0013509951531887054443359375">
        <ele>307.399993896484375</ele>
        <time>2023-01-27T09:03:24.000Z</time>
      </trkpt>
      <trkpt lat="40.09573529474437236785888671875" lon="0.00139399431645870208740234375">
        <ele>307.399993896484375</ele>
        <time>2023-01-27T09:03:25.000Z</time>
      </trkpt>
      <trkpt lat="40.09570159949362277984619140625" lon="0.00144009478390216827392578125">
        <ele>307.600006103515625</ele>
        <time>2023-01-27T09:03:26.000Z</time>
      </trkpt>
      <trkpt lat="40.0956711731851100921630859375" lon="0.00148032791912555694580078125">
        <ele>307.79998779296875</ele>
        <time>2023-01-27T09:03:27.000Z</time>
      </trkpt>
      <trkpt lat="40.09564192034304141998291015625" lon="0.001514442265033721923828125">
        <ele>307.79998779296875</ele>
        <time>2023-01-27T09:03:28.000Z</time>
      </trkpt>
      <trkpt lat="40.09561526589095592498779296875" lon="0.00154587440192699432373046875">
        <ele>308</ele>
        <time>2023-01-27T09:03:29.000Z</time>
      </trkpt>
      <trkpt lat="40.09559196420013904571533203125" lon="0.00157420523464679718017578125">
        <ele>308</ele>
        <time>2023-01-27T09:03:30.000Z</time>
      </trkpt>
      <trkpt lat="40.0955719314515590667724609375" lon="0.00160270370543003082275390625">
        <ele>308</ele>
        <time>2023-01-27T09:03:31.000Z</time>
      </trkpt>
      <trkpt lat="40.09555374272167682647705078125" lon="0.00163673423230648040771484375">
        <ele>308.399993896484375</ele>
        <time>2023-01-27T09:03:32.000Z</time>
      </trkpt>
      <trkpt lat="40.095536895096302032470703125" lon="0.00167059712111949920654296875">
        <ele>308.600006103515625</ele>
        <time>2023-01-27T09:03:33.000Z</time>
      </trkpt>
      <trkpt lat="40.0955209694802761077880859375" lon="0.0017030350863933563232421875">
        <ele>308.79998779296875</ele>
        <time>2023-01-27T09:03:34.000Z</time>
      </trkpt>
      <trkpt lat="40.0955038703978061676025390625" lon="0.00173228792846202850341796875">
        <ele>309.399993896484375</ele>
        <time>2023-01-27T09:03:35.000Z</time>
      </trkpt>
      <trkpt lat="40.09548601694405078887939453125" lon="0.001755841076374053955078125">
        <ele>309.600006103515625</ele>
        <time>2023-01-27T09:03:36.000Z</time>
      </trkpt>
      <trkpt lat="40.09546958841383457183837890625" lon="0.00177352689206600189208984375">
        <ele>310</ele>
        <time>2023-01-27T09:03:37.000Z</time>
      </trkpt>
      <trkpt lat="40.09544259868562221527099609375" lon="0.0017984211444854736328125">
        <ele>310.20001220703125</ele>
        <time>2023-01-27T09:03:38.000Z</time>
      </trkpt>
      <trkpt lat="40.09542264975607395172119140625" lon="0.00181920826435089111328125">
        <ele>310.399993896484375</ele>
        <time>2023-01-27T09:03:39.000Z</time>
      </trkpt>
      <trkpt lat="40.09540320374071598052978515625" lon="0.00183957628905773162841796875">
        <ele>310.600006103515625</ele>
        <time>2023-01-27T09:03:40.000Z</time>
      </trkpt>
      <trkpt lat="40.0953811593353748321533203125" lon="0.00185617245733737945556640625">
        <ele>311.20001220703125</ele>
        <time>2023-01-27T09:03:41.000Z</time>
      </trkpt>
      <trkpt lat="40.0953586958348751068115234375" lon="0.00187193043529987335205078125">
        <ele>311.600006103515625</ele>
        <time>2023-01-27T09:03:42.000Z</time>
      </trkpt>
      <trkpt lat="40.09533564560115337371826171875" lon="0.001889951527118682861328125">
        <ele>312</ele>
        <time>2023-01-27T09:03:43.000Z</time>
      </trkpt>
      <trkpt lat="40.0953114219009876251220703125" lon="0.00190638005733489990234375">
        <ele>312.20001220703125</ele>
        <time>2023-01-27T09:03:44.000Z</time>
      </trkpt>
      <trkpt lat="40.09528418071568012237548828125" lon="0.00192339532077312469482421875">
        <ele>312.79998779296875</ele>
        <time>2023-01-27T09:03:45.000Z</time>
      </trkpt>
      <trkpt lat="40.0952597893774509429931640625" lon="0.0019397400319576263427734375">
        <ele>313</ele>
        <time>2023-01-27T09:03:46.000Z</time>
      </trkpt>
      <trkpt lat="40.09523673914372920989990234375" lon="0.00195139087736606597900390625">
        <ele>313.20001220703125</ele>
        <time>2023-01-27T09:03:47.000Z</time>
      </trkpt>
      <trkpt lat="40.09521159343421459197998046875" lon="0.0019638799130916595458984375">
        <ele>313.399993896484375</ele>
        <time>2023-01-27T09:03:48.000Z</time>
      </trkpt>
      <trkpt lat="40.095186531543731689453125" lon="0.0019776262342929840087890625">
        <ele>313.79998779296875</ele>
        <time>2023-01-27T09:03:49.000Z</time>
      </trkpt>
      <trkpt lat="40.0951659120619297027587890625" lon="0.00199313275516033172607421875">
        <ele>314</ele>
        <time>2023-01-27T09:03:50.000Z</time>
      </trkpt>
      <trkpt lat="40.09514504112303256988525390625" lon="0.00200830399990081787109375">
        <ele>314</ele>
        <time>2023-01-27T09:03:51.000Z</time>
      </trkpt>
      <trkpt lat="40.0951236672699451446533203125" lon="0.00202381052076816558837890625">
        <ele>314.399993896484375</ele>
        <time>2023-01-27T09:03:52.000Z</time>
      </trkpt>
      <trkpt lat="40.09509868919849395751953125" lon="0.00204225070774555206298828125">
        <ele>314.79998779296875</ele>
        <time>2023-01-27T09:03:53.000Z</time>
      </trkpt>
      <trkpt lat="40.09507345966994762420654296875" lon="0.00205817632377147674560546875">
        <ele>315.399993896484375</ele>
        <time>2023-01-27T09:03:54.000Z</time>
      </trkpt>
      <trkpt lat="40.09504973888397216796875" lon="0.00207443721592426300048828125">
        <ele>315.600006103515625</ele>
        <time>2023-01-27T09:03:55.000Z</time>
      </trkpt>
      <trkpt lat="40.09502786211669445037841796875" lon="0.002089776098728179931640625">
        <ele>316</ele>
        <time>2023-01-27T09:03:56.000Z</time>
      </trkpt>
      <trkpt lat="40.09500388987362384796142578125" lon="0.0021053664386272430419921875">
        <ele>316.20001220703125</ele>
        <time>2023-01-27T09:03:57.000Z</time>
      </trkpt>
      <trkpt lat="40.0949808396399021148681640625" lon="0.00212305225431919097900390625">
        <ele>316.399993896484375</ele>
        <time>2023-01-27T09:03:58.000Z</time>
      </trkpt>
      <trkpt lat="40.09495762176811695098876953125" lon="0.00214031897485256195068359375">
        <ele>316.600006103515625</ele>
        <time>2023-01-27T09:03:59.000Z</time>
      </trkpt>
      <trkpt lat="40.09493515826761722564697265625" lon="0.00215423293411731719970703125">
        <ele>316.79998779296875</ele>
        <time>2023-01-27T09:04:00.000Z</time>
      </trkpt>
      <trkpt lat="40.094913281500339508056640625" lon="0.00216479413211345672607421875">
        <ele>316.79998779296875</ele>
        <time>2023-01-27T09:04:01.000Z</time>
      </trkpt>
      <trkpt lat="40.09488855488598346710205078125" lon="0.0021737627685070037841796875">
        <ele>317.20001220703125</ele>
        <time>2023-01-27T09:04:02.000Z</time>
      </trkpt>
      <trkpt lat="40.09486357681453227996826171875" lon="0.00218532979488372802734375">
        <ele>317.399993896484375</ele>
        <time>2023-01-27T09:04:03.000Z</time>
      </trkpt>
      <trkpt lat="40.09483926929533481597900390625" lon="0.0021994113922119140625">
        <ele>317.79998779296875</ele>
        <time>2023-01-27T09:04:04.000Z</time>
      </trkpt>
      <trkpt lat="40.09481479413807392120361328125" lon="0.0022141635417938232421875">
        <ele>318.20001220703125</ele>
        <time>2023-01-27T09:04:05.000Z</time>
      </trkpt>
      <trkpt lat="40.09478981606662273406982421875" lon="0.0022277422249317169189453125">
        <ele>318.79998779296875</ele>
        <time>2023-01-27T09:04:06.000Z</time>
      </trkpt>
      <trkpt lat="40.0947645865380764007568359375" lon="0.0022383034229278564453125">
        <ele>319.20001220703125</ele>
        <time>2023-01-27T09:04:07.000Z</time>
      </trkpt>
      <trkpt lat="40.09474019519984722137451171875" lon="0.00225012190639972686767578125">
        <ele>319.20001220703125</ele>
        <time>2023-01-27T09:04:08.000Z</time>
      </trkpt>
      <trkpt lat="40.09471555240452289581298828125" lon="0.00225967727601528167724609375">
        <ele>319.600006103515625</ele>
        <time>2023-01-27T09:04:09.000Z</time>
      </trkpt>
      <trkpt lat="40.09468990378081798553466796875" lon="0.00227292068302631378173828125">
        <ele>319.79998779296875</ele>
        <time>2023-01-27T09:04:10.000Z</time>
      </trkpt>
      <trkpt lat="40.0946633331477642059326171875" lon="0.0022839009761810302734375">
        <ele>320</ele>
        <time>2023-01-27T09:04:11.000Z</time>
      </trkpt>
      <trkpt lat="40.0946380198001861572265625" lon="0.00229538418352603912353515625">
        <ele>320.20001220703125</ele>
        <time>2023-01-27T09:04:12.000Z</time>
      </trkpt>
      <trkpt lat="40.09461463429033756256103515625" lon="0.00230468809604644775390625">
        <ele>320.600006103515625</ele>
        <time>2023-01-27T09:04:13.000Z</time>
      </trkpt>
      <trkpt lat="40.09458982385694980621337890625" lon="0.00231382437050342559814453125">
        <ele>320.79998779296875</ele>
        <time>2023-01-27T09:04:14.000Z</time>
      </trkpt>
      <trkpt lat="40.0945650972425937652587890625" lon="0.00232279300689697265625">
        <ele>321.20001220703125</ele>
        <time>2023-01-27T09:04:15.000Z</time>
      </trkpt>
      <trkpt lat="40.09454288519918918609619140625" lon="0.0023300014436244964599609375">
        <ele>321.399993896484375</ele>
        <time>2023-01-27T09:04:16.000Z</time>
      </trkpt>
      <trkpt lat="40.09451908059418201446533203125" lon="0.002337880432605743408203125">
        <ele>321.600006103515625</ele>
        <time>2023-01-27T09:04:17.000Z</time>
      </trkpt>
      <trkpt lat="40.094496197998523712158203125" lon="0.0023481063544750213623046875">
        <ele>321.600006103515625</ele>
        <time>2023-01-27T09:04:18.000Z</time>
      </trkpt>
      <trkpt lat="40.09447247721254825592041015625" lon="0.0023578293621540069580078125">
        <ele>321.79998779296875</ele>
        <time>2023-01-27T09:04:19.000Z</time>
      </trkpt>
      <trkpt lat="40.0944497622549533843994140625" lon="0.00236763618886470794677734375">
        <ele>322</ele>
        <time>2023-01-27T09:04:20.000Z</time>
      </trkpt>
      <trkpt lat="40.09442771784961223602294921875" lon="0.0023799575865268707275390625">
        <ele>322.20001220703125</ele>
        <time>2023-01-27T09:04:21.000Z</time>
      </trkpt>
      <trkpt lat="40.09440290741622447967529296875" lon="0.00239294953644275665283203125">
        <ele>322.600006103515625</ele>
        <time>2023-01-27T09:04:22.000Z</time>
      </trkpt>
      <trkpt lat="40.09437524713575839996337890625" lon="0.002403594553470611572265625">
        <ele>322.600006103515625</ele>
        <time>2023-01-27T09:04:23.000Z</time>
      </trkpt>
      <trkpt lat="40.0943505205214023590087890625" lon="0.0024134851992130279541015625">
        <ele>322.79998779296875</ele>
        <time>2023-01-27T09:04:24.000Z</time>
      </trkpt>
      <trkpt lat="40.094327889382839202880859375" lon="0.002423040568828582763671875">
        <ele>323</ele>
        <time>2023-01-27T09:04:25.000Z</time>
      </trkpt>
      <trkpt lat="40.09430517442524433135986328125" lon="0.0024305842816829681396484375">
        <ele>323.79998779296875</ele>
        <time>2023-01-27T09:04:26.000Z</time>
      </trkpt>
      <trkpt lat="40.09427969343960285186767578125" lon="0.00244307331740856170654296875">
        <ele>324</ele>
        <time>2023-01-27T09:04:27.000Z</time>
      </trkpt>
      <trkpt lat="40.0942593254148960113525390625" lon="0.0024503655731678009033203125">
        <ele>324.600006103515625</ele>
        <time>2023-01-27T09:04:28.000Z</time>
      </trkpt>
      <trkpt lat="40.0942278094589710235595703125" lon="0.00246226787567138671875">
        <ele>324.600006103515625</ele>
        <time>2023-01-27T09:04:29.000Z</time>
      </trkpt>
      <trkpt lat="40.0942009873688220977783203125" lon="0.00247593037784099578857421875">
        <ele>324.79998779296875</ele>
        <time>2023-01-27T09:04:30.000Z</time>
      </trkpt>
      <trkpt lat="40.09417475201189517974853515625" lon="0.00248582102358341217041015625">
        <ele>324.79998779296875</ele>
        <time>2023-01-27T09:04:31.000Z</time>
      </trkpt>
      <trkpt lat="40.0941496901214122772216796875" lon="0.0024905987083911895751953125">
        <ele>325.20001220703125</ele>
        <time>2023-01-27T09:04:32.000Z</time>
      </trkpt>
      <trkpt lat="40.09412244893610477447509765625" lon="0.00249822624027729034423828125">
        <ele>325.399993896484375</ele>
        <time>2023-01-27T09:04:33.000Z</time>
      </trkpt>
      <trkpt lat="40.09409797377884387969970703125" lon="0.00250711105763912200927734375">
        <ele>326</ele>
        <time>2023-01-27T09:04:34.000Z</time>
      </trkpt>
      <trkpt lat="40.0940732471644878387451171875" lon="0.0025167502462863922119140625">
        <ele>326.20001220703125</ele>
        <time>2023-01-27T09:04:35.000Z</time>
      </trkpt>
      <trkpt lat="40.09404550306499004364013671875" lon="0.00252421014010906219482421875">
        <ele>326.399993896484375</ele>
        <time>2023-01-27T09:04:36.000Z</time>
      </trkpt>
      <trkpt lat="40.0940162502229213714599609375" lon="0.002526976168155670166015625">
        <ele>326.600006103515625</ele>
        <time>2023-01-27T09:04:37.000Z</time>
      </trkpt>
      <trkpt lat="40.0939937867224216461181640625" lon="0.002530328929424285888671875">
        <ele>326.79998779296875</ele>
        <time>2023-01-27T09:04:38.000Z</time>
      </trkpt>
      <trkpt lat="40.0939679704606533050537109375" lon="0.00253376550972461700439453125">
        <ele>327.20001220703125</ele>
        <time>2023-01-27T09:04:39.000Z</time>
      </trkpt>
      <trkpt lat="40.09394106455147266387939453125" lon="0.00253510661423206329345703125">
        <ele>327.600006103515625</ele>
        <time>2023-01-27T09:04:40.000Z</time>
      </trkpt>
      <trkpt lat="40.0939119793474674224853515625" lon="0.002537034451961517333984375">
        <ele>328</ele>
        <time>2023-01-27T09:04:41.000Z</time>
      </trkpt>
      <trkpt lat="40.09388457052409648895263671875" lon="0.00253829173743724822998046875">
        <ele>328.20001220703125</ele>
        <time>2023-01-27T09:04:42.000Z</time>
      </trkpt>
      <trkpt lat="40.093850456178188323974609375" lon="0.0025402195751667022705078125">
        <ele>328.399993896484375</ele>
        <time>2023-01-27T09:04:43.000Z</time>
      </trkpt>
      <trkpt lat="40.09382463991641998291015625" lon="0.0025422312319278717041015625">
        <ele>328.600006103515625</ele>
        <time>2023-01-27T09:04:44.000Z</time>
      </trkpt>
      <trkpt lat="40.0938026793301105499267578125" lon="0.00254147686064243316650390625">
        <ele>328.79998779296875</ele>
        <time>2023-01-27T09:04:45.000Z</time>
      </trkpt>
      <trkpt lat="40.0937748514115810394287109375" lon="0.0025378726422786712646484375">
        <ele>329</ele>
        <time>2023-01-27T09:04:46.000Z</time>
      </trkpt>
      <trkpt lat="40.093743167817592620849609375" lon="0.00253401696681976318359375">
        <ele>329.399993896484375</ele>
        <time>2023-01-27T09:04:47.000Z</time>
      </trkpt>
      <trkpt lat="40.0937128253281116485595703125" lon="0.002528987824916839599609375">
        <ele>329.600006103515625</ele>
        <time>2023-01-27T09:04:48.000Z</time>
      </trkpt>
      <trkpt lat="40.09368139319121837615966796875" lon="0.00252286903560161590576171875">
        <ele>330</ele>
        <time>2023-01-27T09:04:49.000Z</time>
      </trkpt>
      <trkpt lat="40.09365021251142024993896484375" lon="0.00251390039920806884765625">
        <ele>330.20001220703125</ele>
        <time>2023-01-27T09:04:50.000Z</time>
      </trkpt>
      <trkpt lat="40.09362020529806613922119140625" lon="0.0025063566863536834716796875">
        <ele>330.399993896484375</ele>
        <time>2023-01-27T09:04:51.000Z</time>
      </trkpt>
      <trkpt lat="40.093590281903743743896484375" lon="0.00249621458351612091064453125">
        <ele>330.399993896484375</ele>
        <time>2023-01-27T09:04:52.000Z</time>
      </trkpt>
      <trkpt lat="40.09356019087135791778564453125" lon="0.00248582102358341217041015625">
        <ele>330.600006103515625</ele>
        <time>2023-01-27T09:04:53.000Z</time>
      </trkpt>
      <trkpt lat="40.09353387169539928436279296875" lon="0.00247894786298274993896484375">
        <ele>330.600006103515625</ele>
        <time>2023-01-27T09:04:54.000Z</time>
      </trkpt>
      <trkpt lat="40.09349933825433254241943359375" lon="0.0024654529988765716552734375">
        <ele>330.600006103515625</ele>
        <time>2023-01-27T09:04:55.000Z</time>
      </trkpt>
      <trkpt lat="40.09347519837319850921630859375" lon="0.0024580769240856170654296875">
        <ele>330.79998779296875</ele>
        <time>2023-01-27T09:04:56.000Z</time>
      </trkpt>
      <trkpt lat="40.09344242513179779052734375" lon="0.00245229341089725494384765625">
        <ele>330.79998779296875</ele>
        <time>2023-01-27T09:04:57.000Z</time>
      </trkpt>
      <trkpt lat="40.0934067182242870330810546875" lon="0.0024456717073917388916015625">
        <ele>331</ele>
        <time>2023-01-27T09:04:58.000Z</time>
      </trkpt>
      <trkpt lat="40.09338115341961383819580078125" lon="0.002443157136440277099609375">
        <ele>331.20001220703125</ele>
        <time>2023-01-27T09:04:59.000Z</time>
      </trkpt>
      <trkpt lat="40.09335131384432315826416015625" lon="0.0024366192519664764404296875">
        <ele>331.399993896484375</ele>
        <time>2023-01-27T09:05:00.000Z</time>
      </trkpt>
      <trkpt lat="40.09332038462162017822265625" lon="0.00242999754846096038818359375">
        <ele>331.600006103515625</ele>
        <time>2023-01-27T09:05:01.000Z</time>
      </trkpt>
      <trkpt lat="40.09328543208539485931396484375" lon="0.002424716949462890625">
        <ele>332</ele>
        <time>2023-01-27T09:05:02.000Z</time>
      </trkpt>
      <trkpt lat="40.093255005776882171630859375" lon="0.00242144800722599029541015625">
        <ele>332</ele>
        <time>2023-01-27T09:05:03.000Z</time>
      </trkpt>
      <trkpt lat="40.09323187172412872314453125" lon="0.0024206936359405517578125">
        <ele>332.399993896484375</ele>
        <time>2023-01-27T09:05:04.000Z</time>
      </trkpt>
      <trkpt lat="40.09320228360593318939208984375" lon="0.00242362730205059051513671875">
        <ele>332.600006103515625</ele>
        <time>2023-01-27T09:05:05.000Z</time>
      </trkpt>
      <trkpt lat="40.0931710191071033477783203125" lon="0.002422370016574859619140625">
        <ele>332.79998779296875</ele>
        <time>2023-01-27T09:05:06.000Z</time>
      </trkpt>
      <trkpt lat="40.09313531219959259033203125" lon="0.002419687807559967041015625">
        <ele>333</ele>
        <time>2023-01-27T09:05:07.000Z</time>
      </trkpt>
      <trkpt lat="40.09310580790042877197265625" lon="0.0024175085127353668212890625">
        <ele>333.600006103515625</ele>
        <time>2023-01-27T09:05:08.000Z</time>
      </trkpt>
      <trkpt lat="40.09308259002864360809326171875" lon="0.00241608358919620513916015625">
        <ele>333.79998779296875</ele>
        <time>2023-01-27T09:05:09.000Z</time>
      </trkpt>
      <trkpt lat="40.09305509738624095916748046875" lon="0.00241625122725963592529296875">
        <ele>334.20001220703125</ele>
        <time>2023-01-27T09:05:10.000Z</time>
      </trkpt>
      <trkpt lat="40.0930218212306499481201171875" lon="0.0024178437888622283935546875">
        <ele>334.20001220703125</ele>
        <time>2023-01-27T09:05:11.000Z</time>
      </trkpt>
      <trkpt lat="40.0929943285882472991943359375" lon="0.002416335046291351318359375">
        <ele>334.399993896484375</ele>
        <time>2023-01-27T09:05:12.000Z</time>
      </trkpt>
      <trkpt lat="40.0929658301174640655517578125" lon="0.0024153292179107666015625">
        <ele>334.600006103515625</ele>
        <time>2023-01-27T09:05:13.000Z</time>
      </trkpt>
      <trkpt lat="40.0929428637027740478515625" lon="0.0024153292179107666015625">
        <ele>334.79998779296875</ele>
        <time>2023-01-27T09:05:14.000Z</time>
      </trkpt>
      <trkpt lat="40.09290598332881927490234375" lon="0.00241859816014766693115234375">
        <ele>335.399993896484375</ele>
        <time>2023-01-27T09:05:15.000Z</time>
      </trkpt>
      <trkpt lat="40.09287639521062374114990234375" lon="0.0024188496172428131103515625">
        <ele>335.600006103515625</ele>
        <time>2023-01-27T09:05:16.000Z</time>
      </trkpt>
      <trkpt lat="40.09284823201596736907958984375" lon="0.00242270529270172119140625">
        <ele>336</ele>
        <time>2023-01-27T09:05:17.000Z</time>
      </trkpt>
      <trkpt lat="40.0928260199725627899169921875" lon="0.00242530368268489837646484375">
        <ele>336.20001220703125</ele>
        <time>2023-01-27T09:05:18.000Z</time>
      </trkpt>
      <trkpt lat="40.09279877878725528717041015625" lon="0.00242681242525577545166015625">
        <ele>336.20001220703125</ele>
        <time>2023-01-27T09:05:19.000Z</time>
      </trkpt>
      <trkpt lat="40.0927686877548694610595703125" lon="0.0024292431771755218505859375">
        <ele>336.399993896484375</ele>
        <time>2023-01-27T09:05:20.000Z</time>
      </trkpt>
      <trkpt lat="40.092740356922149658203125" lon="0.002433098852634429931640625">
        <ele>336.600006103515625</ele>
        <time>2023-01-27T09:05:21.000Z</time>
      </trkpt>
      <trkpt lat="40.092706494033336639404296875" lon="0.00244139693677425384521484375">
        <ele>336.79998779296875</ele>
        <time>2023-01-27T09:05:22.000Z</time>
      </trkpt>
      <trkpt lat="40.092683024704456329345703125" lon="0.00245078466832637786865234375">
        <ele>336.79998779296875</ele>
        <time>2023-01-27T09:05:23.000Z</time>
      </trkpt>
      <trkpt lat="40.0926533527672290802001953125" lon="0.002459250390529632568359375">
        <ele>336.79998779296875</ele>
        <time>2023-01-27T09:05:24.000Z</time>
      </trkpt>
      <trkpt lat="40.0926261954009532928466796875" lon="0.0024627707898616790771484375">
        <ele>336.79998779296875</ele>
        <time>2023-01-27T09:05:25.000Z</time>
      </trkpt>
      <trkpt lat="40.09259426034986972808837890625" lon="0.002471320331096649169921875">
        <ele>337</ele>
        <time>2023-01-27T09:05:26.000Z</time>
      </trkpt>
      <trkpt lat="40.09256559424102306365966796875" lon="0.00248163007199764251708984375">
        <ele>337</ele>
        <time>2023-01-27T09:05:27.000Z</time>
      </trkpt>
      <trkpt lat="40.09254128672182559967041015625" lon="0.00248850323259830474853515625">
        <ele>337.399993896484375</ele>
        <time>2023-01-27T09:05:28.000Z</time>
      </trkpt>
      <trkpt lat="40.09251144714653491973876953125" lon="0.00249671749770641326904296875">
        <ele>337.600006103515625</ele>
        <time>2023-01-27T09:05:29.000Z</time>
      </trkpt>
      <trkpt lat="40.092479847371578216552734375" lon="0.002510212361812591552734375">
        <ele>338</ele>
        <time>2023-01-27T09:05:30.000Z</time>
      </trkpt>
      <trkpt lat="40.09245411492884159088134765625" lon="0.00251800753176212310791015625">
        <ele>338.20001220703125</ele>
        <time>2023-01-27T09:05:31.000Z</time>
      </trkpt>
      <trkpt lat="40.0924225151538848876953125" lon="0.0025288201868534088134765625">
        <ele>338.399993896484375</ele>
        <time>2023-01-27T09:05:32.000Z</time>
      </trkpt>
      <trkpt lat="40.0924005545675754547119140625" lon="0.002539046108722686767578125">
        <ele>338.600006103515625</ele>
        <time>2023-01-27T09:05:33.000Z</time>
      </trkpt>
      <trkpt lat="40.09236962534487247467041015625" lon="0.00255606137216091156005859375">
        <ele>339.20001220703125</ele>
        <time>2023-01-27T09:05:34.000Z</time>
      </trkpt>
      <trkpt lat="40.0923391990363597869873046875" lon="0.002574585378170013427734375">
        <ele>339.399993896484375</ele>
        <time>2023-01-27T09:05:35.000Z</time>
      </trkpt>
      <trkpt lat="40.09230910800397396087646484375" lon="0.0025935284793376922607421875">
        <ele>339.399993896484375</ele>
        <time>2023-01-27T09:05:36.000Z</time>
      </trkpt>
      <trkpt lat="40.0922788493335247039794921875" lon="0.002610124647617340087890625">
        <ele>339.600006103515625</ele>
        <time>2023-01-27T09:05:37.000Z</time>
      </trkpt>
      <trkpt lat="40.092249177396297454833984375" lon="0.002630241215229034423828125">
        <ele>339.600006103515625</ele>
        <time>2023-01-27T09:05:38.000Z</time>
      </trkpt>
      <trkpt lat="40.09222202003002166748046875" lon="0.00264826230704784393310546875">
        <ele>339.79998779296875</ele>
        <time>2023-01-27T09:05:39.000Z</time>
      </trkpt>
      <trkpt lat="40.092189498245716094970703125" lon="0.00267357565462589263916015625">
        <ele>340.20001220703125</ele>
        <time>2023-01-27T09:05:40.000Z</time>
      </trkpt>
      <trkpt lat="40.09216259233653545379638671875" lon="0.00269922427833080291748046875">
        <ele>340.20001220703125</ele>
        <time>2023-01-27T09:05:41.000Z</time>
      </trkpt>
      <trkpt lat="40.092139542102813720703125" lon="0.00272177159786224365234375">
        <ele>340.600006103515625</ele>
        <time>2023-01-27T09:05:42.000Z</time>
      </trkpt>
      <trkpt lat="40.0921132229268550872802734375" lon="0.00275253318250179290771484375">
        <ele>340.600006103515625</ele>
        <time>2023-01-27T09:05:43.000Z</time>
      </trkpt>
      <trkpt lat="40.0920894183218479156494140625" lon="0.0027832947671413421630859375">
        <ele>340.79998779296875</ele>
        <time>2023-01-27T09:05:44.000Z</time>
      </trkpt>
      <trkpt lat="40.0920625962316989898681640625" lon="0.00281430780887603759765625">
        <ele>341</ele>
        <time>2023-01-27T09:05:45.000Z</time>
      </trkpt>
      <trkpt lat="40.0920374505221843719482421875" lon="0.0028473325073719024658203125">
        <ele>341</ele>
        <time>2023-01-27T09:05:46.000Z</time>
      </trkpt>
      <trkpt lat="40.0920143164694309234619140625" lon="0.00287809409201145172119140625">
        <ele>341.20001220703125</ele>
        <time>2023-01-27T09:05:47.000Z</time>
      </trkpt>
      <trkpt lat="40.09199260734021663665771484375" lon="0.0029100291430950164794921875">
        <ele>341.399993896484375</ele>
        <time>2023-01-27T09:05:48.000Z</time>
      </trkpt>
      <trkpt lat="40.09197081439197063446044921875" lon="0.00294330529868602752685546875">
        <ele>341.600006103515625</ele>
        <time>2023-01-27T09:05:49.000Z</time>
      </trkpt>
      <trkpt lat="40.0919472612440586090087890625" lon="0.00298303551971912384033203125">
        <ele>341.79998779296875</ele>
        <time>2023-01-27T09:05:50.000Z</time>
      </trkpt>
      <trkpt lat="40.0919263064861297607421875" lon="0.003017485141754150390625">
        <ele>342</ele>
        <time>2023-01-27T09:05:51.000Z</time>
      </trkpt>
      <trkpt lat="40.09191096760332584381103515625" lon="0.00304422341287136077880859375">
        <ele>342.20001220703125</ele>
        <time>2023-01-27T09:05:52.000Z</time>
      </trkpt>
      <trkpt lat="40.091893114149570465087890625" lon="0.00307691283524036407470703125">
        <ele>342.600006103515625</ele>
        <time>2023-01-27T09:05:53.000Z</time>
      </trkpt>
      <trkpt lat="40.09187391959130764007568359375" lon="0.00311161391437053680419921875">
        <ele>342.79998779296875</ele>
        <time>2023-01-27T09:05:54.000Z</time>
      </trkpt>
      <trkpt lat="40.09185547940433025360107421875" lon="0.00315000303089618682861328125">
        <ele>343</ele>
        <time>2023-01-27T09:05:55.000Z</time>
      </trkpt>
      <trkpt lat="40.09184324182569980621337890625" lon="0.00317447818815708160400390625">
        <ele>343</ele>
        <time>2023-01-27T09:05:56.000Z</time>
      </trkpt>
      <trkpt lat="40.0918282382190227508544921875" lon="0.00320197083055973052978515625">
        <ele>343.399993896484375</ele>
        <time>2023-01-27T09:05:57.000Z</time>
      </trkpt>
      <trkpt lat="40.09181507863104343414306640625" lon="0.003229714930057525634765625">
        <ele>343.399993896484375</ele>
        <time>2023-01-27T09:05:58.000Z</time>
      </trkpt>
      <trkpt lat="40.09179697372019290924072265625" lon="0.003263242542743682861328125">
        <ele>344</ele>
        <time>2023-01-27T09:05:59.000Z</time>
      </trkpt>
      <trkpt lat="40.09178138338029384613037109375" lon="0.0032945908606052398681640625">
        <ele>344.20001220703125</ele>
        <time>2023-01-27T09:06:00.000Z</time>
      </trkpt>
      <trkpt lat="40.09176629595458507537841796875" lon="0.00332535244524478912353515625">
        <ele>344.399993896484375</ele>
        <time>2023-01-27T09:06:01.000Z</time>
      </trkpt>
      <trkpt lat="40.09175204671919345855712890625" lon="0.0033535994589328765869140625">
        <ele>344.79998779296875</ele>
        <time>2023-01-27T09:06:02.000Z</time>
      </trkpt>
      <trkpt lat="40.0917385518550872802734375" lon="0.00337715260684490203857421875">
        <ele>345</ele>
        <time>2023-01-27T09:06:03.000Z</time>
      </trkpt>
      <trkpt lat="40.0917202793061733245849609375" lon="0.0034159608185291290283203125">
        <ele>345.20001220703125</ele>
        <time>2023-01-27T09:06:04.000Z</time>
      </trkpt>
      <trkpt lat="40.09170393459498882293701171875" lon="0.00344756059348583221435546875">
        <ele>345.20001220703125</ele>
        <time>2023-01-27T09:06:05.000Z</time>
      </trkpt>
      <trkpt lat="40.09168750606477260589599609375" lon="0.0034801661968231201171875">
        <ele>345.399993896484375</ele>
        <time>2023-01-27T09:06:06.000Z</time>
      </trkpt>
      <trkpt lat="40.09167292155325412750244140625" lon="0.0035121850669384002685546875">
        <ele>345.600006103515625</ele>
        <time>2023-01-27T09:06:07.000Z</time>
      </trkpt>
      <trkpt lat="40.09165833704173564910888671875" lon="0.003543198108673095703125">
        <ele>345.79998779296875</ele>
        <time>2023-01-27T09:06:08.000Z</time>
      </trkpt>
      <trkpt lat="40.0916414894163608551025390625" lon="0.0035725347697734832763671875">
        <ele>345.79998779296875</ele>
        <time>2023-01-27T09:06:09.000Z</time>
      </trkpt>
      <trkpt lat="40.09162598289549350738525390625" lon="0.003602541983127593994140625">
        <ele>346.20001220703125</ele>
        <time>2023-01-27T09:06:10.000Z</time>
      </trkpt>
      <trkpt lat="40.09161156602203845977783203125" lon="0.0036332197487354278564453125">
        <ele>346.20001220703125</ele>
        <time>2023-01-27T09:06:11.000Z</time>
      </trkpt>
      <trkpt lat="40.09159781970083713531494140625" lon="0.003661215305328369140625">
        <ele>346.600006103515625</ele>
        <time>2023-01-27T09:06:12.000Z</time>
      </trkpt>
      <trkpt lat="40.09158357046544551849365234375" lon="0.0036898814141750335693359375">
        <ele>346.600006103515625</ele>
        <time>2023-01-27T09:06:13.000Z</time>
      </trkpt>
      <trkpt lat="40.09156915359199047088623046875" lon="0.00371611677110195159912109375">
        <ele>347.20001220703125</ele>
        <time>2023-01-27T09:06:14.000Z</time>
      </trkpt>
      <trkpt lat="40.09155339561402797698974609375" lon="0.00374226830899715423583984375">
        <ele>347.399993896484375</ele>
        <time>2023-01-27T09:06:15.000Z</time>
      </trkpt>
      <trkpt lat="40.0915415771305561065673828125" lon="0.00376808457076549530029296875">
        <ele>348.20001220703125</ele>
        <time>2023-01-27T09:06:16.000Z</time>
      </trkpt>
      <trkpt lat="40.09152992628514766693115234375" lon="0.00379255972802639007568359375">
        <ele>348.399993896484375</ele>
        <time>2023-01-27T09:06:17.000Z</time>
      </trkpt>
      <trkpt lat="40.0915174372494220733642578125" lon="0.0038149394094944000244140625">
        <ele>348.79998779296875</ele>
        <time>2023-01-27T09:06:18.000Z</time>
      </trkpt>
      <trkpt lat="40.0915050320327281951904296875" lon="0.003834553062915802001953125">
        <ele>349.20001220703125</ele>
        <time>2023-01-27T09:06:19.000Z</time>
      </trkpt>
      <trkpt lat="40.0914932973682880401611328125" lon="0.00385592691600322723388671875">
        <ele>349.399993896484375</ele>
        <time>2023-01-27T09:06:20.000Z</time>
      </trkpt>
      <trkpt lat="40.0914815627038478851318359375" lon="0.0038799829781055450439453125">
        <ele>349.79998779296875</ele>
        <time>2023-01-27T09:06:21.000Z</time>
      </trkpt>
      <trkpt lat="40.09147242642939090728759765625" lon="0.003900267183780670166015625">
        <ele>350</ele>
        <time>2023-01-27T09:06:22.000Z</time>
      </trkpt>
      <trkpt lat="40.09146203286945819854736328125" lon="0.00392046757042407989501953125">
        <ele>350.20001220703125</ele>
        <time>2023-01-27T09:06:23.000Z</time>
      </trkpt>
      <trkpt lat="40.0914483703672885894775390625" lon="0.0039363093674182891845703125">
        <ele>350.399993896484375</ele>
        <time>2023-01-27T09:06:24.000Z</time>
      </trkpt>
      <trkpt lat="40.09143671952188014984130859375" lon="0.0039540790021419525146484375">
        <ele>351</ele>
        <time>2023-01-27T09:06:25.000Z</time>
      </trkpt>
      <trkpt lat="40.0914245657622814178466796875" lon="0.0039715133607387542724609375">
        <ele>351.20001220703125</ele>
        <time>2023-01-27T09:06:26.000Z</time>
      </trkpt>
      <trkpt lat="40.09141140617430210113525390625" lon="0.003989450633525848388671875">
        <ele>351.399993896484375</ele>
        <time>2023-01-27T09:06:27.000Z</time>
      </trkpt>
      <trkpt lat="40.09139866568148136138916015625" lon="0.0040097348392009735107421875">
        <ele>351.600006103515625</ele>
        <time>2023-01-27T09:06:28.000Z</time>
      </trkpt>
      <trkpt lat="40.09138743393123149871826171875" lon="0.00403010286390781402587890625">
        <ele>352</ele>
        <time>2023-01-27T09:06:29.000Z</time>
      </trkpt>
      <trkpt lat="40.09137737564742565155029296875" lon="0.00404854305088520050048828125">
        <ele>352.20001220703125</ele>
        <time>2023-01-27T09:06:30.000Z</time>
      </trkpt>
      <trkpt lat="40.09136513806879520416259765625" lon="0.0040697492659091949462890625">
        <ele>352.600006103515625</ele>
        <time>2023-01-27T09:06:31.000Z</time>
      </trkpt>
      <trkpt lat="40.09135222993791103363037109375" lon="0.0040928833186626434326171875">
        <ele>352.600006103515625</ele>
        <time>2023-01-27T09:06:32.000Z</time>
      </trkpt>
      <trkpt lat="40.09133798070251941680908203125" lon="0.00411476008594036102294921875">
        <ele>353</ele>
        <time>2023-01-27T09:06:33.000Z</time>
      </trkpt>
      <trkpt lat="40.091322474181652069091796875" lon="0.00413504429161548614501953125">
        <ele>353</ele>
        <time>2023-01-27T09:06:34.000Z</time>
      </trkpt>
      <trkpt lat="40.091305710375308990478515625" lon="0.0041569210588932037353515625">
        <ele>353.399993896484375</ele>
        <time>2023-01-27T09:06:35.000Z</time>
      </trkpt>
      <trkpt lat="40.091293640434741973876953125" lon="0.00418030656874179840087890625">
        <ele>353.600006103515625</ele>
        <time>2023-01-27T09:06:36.000Z</time>
      </trkpt>
      <trkpt lat="40.0912797264754772186279296875" lon="0.00420377589762210845947265625">
        <ele>354</ele>
        <time>2023-01-27T09:06:37.000Z</time>
      </trkpt>
      <trkpt lat="40.0912653096020221710205078125" lon="0.00422456301748752593994140625">
        <ele>354.399993896484375</ele>
        <time>2023-01-27T09:06:38.000Z</time>
      </trkpt>
      <trkpt lat="40.09125248529016971588134765625" lon="0.004245601594448089599609375">
        <ele>354.600006103515625</ele>
        <time>2023-01-27T09:06:39.000Z</time>
      </trkpt>
      <trkpt lat="40.0912398286163806915283203125" lon="0.00427217222750186920166015625">
        <ele>355</ele>
        <time>2023-01-27T09:06:40.000Z</time>
      </trkpt>
      <trkpt lat="40.0912311114370822906494140625" lon="0.0042967312037944793701171875">
        <ele>355.20001220703125</ele>
        <time>2023-01-27T09:06:41.000Z</time>
      </trkpt>
      <trkpt lat="40.09121661074459552764892578125" lon="0.0043237209320068359375">
        <ele>355.600006103515625</ele>
        <time>2023-01-27T09:06:42.000Z</time>
      </trkpt>
      <trkpt lat="40.09120403788983821868896484375" lon="0.00435079447925090789794921875">
        <ele>355.79998779296875</ele>
        <time>2023-01-27T09:06:43.000Z</time>
      </trkpt>
      <trkpt lat="40.09118668735027313232421875" lon="0.00437962822616100311279296875">
        <ele>356.20001220703125</ele>
        <time>2023-01-27T09:06:44.000Z</time>
      </trkpt>
      <trkpt lat="40.09117327630519866943359375" lon="0.0044063664972782135009765625">
        <ele>356.600006103515625</ele>
        <time>2023-01-27T09:06:45.000Z</time>
      </trkpt>
      <trkpt lat="40.09115961380302906036376953125" lon="0.00443260185420513153076171875">
        <ele>356.79998779296875</ele>
        <time>2023-01-27T09:06:46.000Z</time>
      </trkpt>
      <trkpt lat="40.0911422632634639739990234375" lon="0.00446093268692493438720703125">
        <ele>356.79998779296875</ele>
        <time>2023-01-27T09:06:47.000Z</time>
      </trkpt>
      <trkpt lat="40.09113111533224582672119140625" lon="0.00448758713901042938232421875">
        <ele>357.20001220703125</ele>
        <time>2023-01-27T09:06:48.000Z</time>
      </trkpt>
      <trkpt lat="40.09112340398132801055908203125" lon="0.00451524741947650909423828125">
        <ele>357.399993896484375</ele>
        <time>2023-01-27T09:06:49.000Z</time>
      </trkpt>
      <trkpt lat="40.0911151058971881866455078125" lon="0.00454609282314777374267578125">
        <ele>357.79998779296875</ele>
        <time>2023-01-27T09:06:50.000Z</time>
      </trkpt>
      <trkpt lat="40.0911073945462703704833984375" lon="0.0045771896839141845703125">
        <ele>358.20001220703125</ele>
        <time>2023-01-27T09:06:51.000Z</time>
      </trkpt>
      <trkpt lat="40.09109842590987682342529296875" lon="0.004611052572727203369140625">
        <ele>358.399993896484375</ele>
        <time>2023-01-27T09:06:52.000Z</time>
      </trkpt>
      <trkpt lat="40.09109054692089557647705078125" lon="0.0046494416892528533935546875">
        <ele>359</ele>
        <time>2023-01-27T09:06:53.000Z</time>
      </trkpt>
      <trkpt lat="40.09108166210353374481201171875" lon="0.0046883337199687957763671875">
        <ele>359</ele>
        <time>2023-01-27T09:06:54.000Z</time>
      </trkpt>
      <trkpt lat="40.091077722609043121337890625" lon="0.00472714193165302276611328125">
        <ele>359.399993896484375</ele>
        <time>2023-01-27T09:06:55.000Z</time>
      </trkpt>
      <trkpt lat="40.09107663296163082122802734375" lon="0.00477039255201816558837890625">
        <ele>359.399993896484375</ele>
        <time>2023-01-27T09:06:56.000Z</time>
      </trkpt>
      <trkpt lat="40.09107277728617191314697265625" lon="0.00480811111629009246826171875">
        <ele>359.79998779296875</ele>
        <time>2023-01-27T09:06:57.000Z</time>
      </trkpt>
      <trkpt lat="40.09107294492423534393310546875" lon="0.0048534572124481201171875">
        <ele>360</ele>
        <time>2023-01-27T09:06:58.000Z</time>
      </trkpt>
      <trkpt lat="40.0910758785903453826904296875" lon="0.00489310361444950103759765625">
        <ele>360.20001220703125</ele>
        <time>2023-01-27T09:06:59.000Z</time>
      </trkpt>
      <trkpt lat="40.09107529185712337493896484375" lon="0.00493886880576610565185546875">
        <ele>360.399993896484375</ele>
        <time>2023-01-27T09:07:00.000Z</time>
      </trkpt>
      <trkpt lat="40.091078393161296844482421875" lon="0.00497977249324321746826171875">
        <ele>360.399993896484375</ele>
        <time>2023-01-27T09:07:01.000Z</time>
      </trkpt>
      <trkpt lat="40.0910869427025318145751953125" lon="0.00501665286719799041748046875">
        <ele>360.600006103515625</ele>
        <time>2023-01-27T09:07:02.000Z</time>
      </trkpt>
      <trkpt lat="40.0910936482250690460205078125" lon="0.00504766590893268585205078125">
        <ele>361.20001220703125</ele>
        <time>2023-01-27T09:07:03.000Z</time>
      </trkpt>
      <trkpt lat="40.091104544699192047119140625" lon="0.00507733784615993499755859375">
        <ele>361.399993896484375</ele>
        <time>2023-01-27T09:07:04.000Z</time>
      </trkpt>
      <trkpt lat="40.09111083112657070159912109375" lon="0.00511027872562408447265625">
        <ele>361.79998779296875</ele>
        <time>2023-01-27T09:07:05.000Z</time>
      </trkpt>
      <trkpt lat="40.09112021885812282562255859375" lon="0.0051580555737018585205078125">
        <ele>361.79998779296875</ele>
        <time>2023-01-27T09:07:06.000Z</time>
      </trkpt>
      <trkpt lat="40.09112440980970859527587890625" lon="0.00519501976668834686279296875">
        <ele>362</ele>
        <time>2023-01-27T09:07:07.000Z</time>
      </trkpt>
      <trkpt lat="40.0911278463900089263916015625" lon="0.00522485934197902679443359375">
        <ele>362</ele>
        <time>2023-01-27T09:07:08.000Z</time>
      </trkpt>
      <trkpt lat="40.09112323634326457977294921875" lon="0.0052562914788722991943359375">
        <ele>362.20001220703125</ele>
        <time>2023-01-27T09:07:09.000Z</time>
      </trkpt>
      <trkpt lat="40.09110831655561923980712890625" lon="0.00529191456735134124755859375">
        <ele>362.399993896484375</ele>
        <time>2023-01-27T09:07:10.000Z</time>
      </trkpt>
      <trkpt lat="40.0910970009863376617431640625" lon="0.005321502685546875">
        <ele>362.399993896484375</ele>
        <time>2023-01-27T09:07:11.000Z</time>
      </trkpt>
      <trkpt lat="40.09108652360737323760986328125" lon="0.00535075552761554718017578125">
        <ele>362.600006103515625</ele>
        <time>2023-01-27T09:07:12.000Z</time>
      </trkpt>
      <trkpt lat="40.09107545949518680572509765625" lon="0.00537120737135410308837890625">
        <ele>362.79998779296875</ele>
        <time>2023-01-27T09:07:13.000Z</time>
      </trkpt>
      <trkpt lat="40.0910519063472747802734375" lon="0.005399622023105621337890625">
        <ele>363</ele>
        <time>2023-01-27T09:07:14.000Z</time>
      </trkpt>
      <trkpt lat="40.091029442846775054931640625" lon="0.00542166642844676971435546875">
        <ele>363.20001220703125</ele>
        <time>2023-01-27T09:07:15.000Z</time>
      </trkpt>
      <trkpt lat="40.091005973517894744873046875" lon="0.00543616712093353271484375">
        <ele>363.399993896484375</ele>
        <time>2023-01-27T09:07:16.000Z</time>
      </trkpt>
      <trkpt lat="40.09098661132156848907470703125" lon="0.00544664449989795684814453125">
        <ele>363.600006103515625</ele>
        <time>2023-01-27T09:07:17.000Z</time>
      </trkpt>
      <trkpt lat="40.09095861576497554779052734375" lon="0.00545972026884555816650390625">
        <ele>363.79998779296875</ele>
        <time>2023-01-27T09:07:18.000Z</time>
      </trkpt>
      <trkpt lat="40.09092827327549457550048828125" lon="0.0054765678942203521728515625">
        <ele>364</ele>
        <time>2023-01-27T09:07:19.000Z</time>
      </trkpt>
      <trkpt lat="40.09090480394661426544189453125" lon="0.0054869614541530609130859375">
        <ele>364.399993896484375</ele>
        <time>2023-01-27T09:07:20.000Z</time>
      </trkpt>
      <trkpt lat="40.0908787362277507781982421875" lon="0.00549324788153171539306640625">
        <ele>364.399993896484375</ele>
        <time>2023-01-27T09:07:21.000Z</time>
      </trkpt>
      <trkpt lat="40.0908562727272510528564453125" lon="0.00549609772861003875732421875">
        <ele>364.79998779296875</ele>
        <time>2023-01-27T09:07:22.000Z</time>
      </trkpt>
      <trkpt lat="40.09083154611289501190185546875" lon="0.00549852848052978515625">
        <ele>364.79998779296875</ele>
        <time>2023-01-27T09:07:23.000Z</time>
      </trkpt>
      <trkpt lat="40.09080237708985805511474609375" lon="0.00550079159438610076904296875">
        <ele>365</ele>
        <time>2023-01-27T09:07:24.000Z</time>
      </trkpt>
      <trkpt lat="40.09077890776097774505615234375" lon="0.0055017136037349700927734375">
        <ele>365</ele>
        <time>2023-01-27T09:07:25.000Z</time>
      </trkpt>
      <trkpt lat="40.09075812064111232757568359375" lon="0.0055038928985595703125">
        <ele>365.399993896484375</ele>
        <time>2023-01-27T09:07:26.000Z</time>
      </trkpt>
      <trkpt lat="40.0907328911125659942626953125" lon="0.0055013783276081085205078125">
        <ele>365.79998779296875</ele>
        <time>2023-01-27T09:07:27.000Z</time>
      </trkpt>
      <trkpt lat="40.090711601078510284423828125" lon="0.0054919905960559844970703125">
        <ele>366</ele>
        <time>2023-01-27T09:07:28.000Z</time>
      </trkpt>
      <trkpt lat="40.0906882993876934051513671875" lon="0.00548419542610645294189453125">
        <ele>366.399993896484375</ele>
        <time>2023-01-27T09:07:29.000Z</time>
      </trkpt>
      <trkpt lat="40.090657286345958709716796875" lon="0.005479417741298675537109375">
        <ele>366.600006103515625</ele>
        <time>2023-01-27T09:07:30.000Z</time>
      </trkpt>
      <trkpt lat="40.09063281118869781494140625" lon="0.00547346659004688262939453125">
        <ele>366.79998779296875</ele>
        <time>2023-01-27T09:07:31.000Z</time>
      </trkpt>
      <trkpt lat="40.09061160497367382049560546875" lon="0.0054688565433025360107421875">
        <ele>367</ele>
        <time>2023-01-27T09:07:32.000Z</time>
      </trkpt>
      <trkpt lat="40.09059500880539417266845703125" lon="0.00547598116099834442138671875">
        <ele>367.399993896484375</ele>
        <time>2023-01-27T09:07:33.000Z</time>
      </trkpt>
      <trkpt lat="40.09056567214429378509521484375" lon="0.00549157150089740753173828125">
        <ele>367.399993896484375</ele>
        <time>2023-01-27T09:07:34.000Z</time>
      </trkpt>
      <trkpt lat="40.09053868241608142852783203125" lon="0.00549928285181522369384765625">
        <ele>367.600006103515625</ele>
        <time>2023-01-27T09:07:35.000Z</time>
      </trkpt>
      <trkpt lat="40.09051135741174221038818359375" lon="0.00550364144146442413330078125">
        <ele>367.600006103515625</ele>
        <time>2023-01-27T09:07:36.000Z</time>
      </trkpt>
      <trkpt lat="40.090489648282527923583984375" lon="0.00550632365047931671142578125">
        <ele>368.20001220703125</ele>
        <time>2023-01-27T09:07:37.000Z</time>
      </trkpt>
      <trkpt lat="40.09045712649822235107421875" lon="0.00551302917301654815673828125">
        <ele>368.399993896484375</ele>
        <time>2023-01-27T09:07:38.000Z</time>
      </trkpt>
      <trkpt lat="40.09043156169354915618896484375" lon="0.00552224926650524139404296875">
        <ele>368.600006103515625</ele>
        <time>2023-01-27T09:07:39.000Z</time>
      </trkpt>
      <trkpt lat="40.09040591306984424591064453125" lon="0.0055352412164211273193359375">
        <ele>368.79998779296875</ele>
        <time>2023-01-27T09:07:40.000Z</time>
      </trkpt>
      <trkpt lat="40.09038738906383514404296875" lon="0.0055446289479732513427734375">
        <ele>369</ele>
        <time>2023-01-27T09:07:41.000Z</time>
      </trkpt>
      <trkpt lat="40.090362913906574249267578125" lon="0.0055588781833648681640625">
        <ele>369.399993896484375</ele>
        <time>2023-01-27T09:07:42.000Z</time>
      </trkpt>
      <trkpt lat="40.0903308950364589691162109375" lon="0.005576647818088531494140625">
        <ele>369.600006103515625</ele>
        <time>2023-01-27T09:07:43.000Z</time>
      </trkpt>
      <trkpt lat="40.0903047434985637664794921875" lon="0.00559349544346332550048828125">
        <ele>370</ele>
        <time>2023-01-27T09:07:44.000Z</time>
      </trkpt>
      <trkpt lat="40.0902792625129222869873046875" lon="0.00561025924980640411376953125">
        <ele>370</ele>
        <time>2023-01-27T09:07:45.000Z</time>
      </trkpt>
      <trkpt lat="40.09025487117469310760498046875" lon="0.0056257657706737518310546875">
        <ele>370.20001220703125</ele>
        <time>2023-01-27T09:07:46.000Z</time>
      </trkpt>
      <trkpt lat="40.0902365148067474365234375" lon="0.0056395120918750762939453125">
        <ele>370.399993896484375</ele>
        <time>2023-01-27T09:07:47.000Z</time>
      </trkpt>
      <trkpt lat="40.090203993022441864013671875" lon="0.0056602992117404937744140625">
        <ele>370.600006103515625</ele>
        <time>2023-01-27T09:07:48.000Z</time>
      </trkpt>
      <trkpt lat="40.090177841484546661376953125" lon="0.0056763924658298492431640625">
        <ele>371</ele>
        <time>2023-01-27T09:07:49.000Z</time>
      </trkpt>
      <trkpt lat="40.09015378542244434356689453125" lon="0.005693323910236358642578125">
        <ele>371.20001220703125</ele>
        <time>2023-01-27T09:07:50.000Z</time>
      </trkpt>
      <trkpt lat="40.0901327468454837799072265625" lon="0.00570665113627910614013671875">
        <ele>371.20001220703125</ele>
        <time>2023-01-27T09:07:51.000Z</time>
      </trkpt>
      <trkpt lat="40.09010215289890766143798828125" lon="0.00572710298001766204833984375">
        <ele>371.399993896484375</ele>
        <time>2023-01-27T09:07:52.000Z</time>
      </trkpt>
      <trkpt lat="40.09007650427520275115966796875" lon="0.00574504025280475616455078125">
        <ele>371.600006103515625</ele>
        <time>2023-01-27T09:07:53.000Z</time>
      </trkpt>
      <trkpt lat="40.09005219675600528717041015625" lon="0.0057608820497989654541015625">
        <ele>371.79998779296875</ele>
        <time>2023-01-27T09:07:54.000Z</time>
      </trkpt>
      <trkpt lat="40.0900321640074253082275390625" lon="0.00577219761908054351806640625">
        <ele>372</ele>
        <time>2023-01-27T09:07:55.000Z</time>
      </trkpt>
      <trkpt lat="40.09000718593597412109375" lon="0.0057887099683284759521484375">
        <ele>372.20001220703125</ele>
        <time>2023-01-27T09:07:56.000Z</time>
      </trkpt>
      <trkpt lat="40.08997508324682712554931640625" lon="0.00580807216465473175048828125">
        <ele>372.399993896484375</ele>
        <time>2023-01-27T09:07:57.000Z</time>
      </trkpt>
      <trkpt lat="40.08994842879474163055419921875" lon="0.00582508742809295654296875">
        <ele>372.600006103515625</ele>
        <time>2023-01-27T09:07:58.000Z</time>
      </trkpt>
      <trkpt lat="40.0899201817810535430908203125" lon="0.00584361143410205841064453125">
        <ele>372.79998779296875</ele>
        <time>2023-01-27T09:07:59.000Z</time>
      </trkpt>
      <trkpt lat="40.08990065194666385650634765625" lon="0.00585584901273250579833984375">
        <ele>373.20001220703125</ele>
        <time>2023-01-27T09:08:00.000Z</time>
      </trkpt>
      <trkpt lat="40.08987332694232463836669921875" lon="0.00587378628551959991455078125">
        <ele>373.399993896484375</ele>
        <time>2023-01-27T09:08:01.000Z</time>
      </trkpt>
      <trkpt lat="40.08984281681478023529052734375" lon="0.00589876435697078704833984375">
        <ele>373.399993896484375</ele>
        <time>2023-01-27T09:08:02.000Z</time>
      </trkpt>
      <trkpt lat="40.0898185931146144866943359375" lon="0.00591720454394817352294921875">
        <ele>373.600006103515625</ele>
        <time>2023-01-27T09:08:03.000Z</time>
      </trkpt>
      <trkpt lat="40.089793615043163299560546875" lon="0.00593782402575016021728515625">
        <ele>373.79998779296875</ele>
        <time>2023-01-27T09:08:04.000Z</time>
      </trkpt>
      <trkpt lat="40.0897736661136150360107421875" lon="0.00595123507082462310791015625">
        <ele>374</ele>
        <time>2023-01-27T09:08:05.000Z</time>
      </trkpt>
      <trkpt lat="40.0897458381950855255126953125" lon="0.0059714354574680328369140625">
        <ele>374.20001220703125</ele>
        <time>2023-01-27T09:08:06.000Z</time>
      </trkpt>
      <trkpt lat="40.08971222676336765289306640625" lon="0.00599565915763378143310546875">
        <ele>374.600006103515625</ele>
        <time>2023-01-27T09:08:07.000Z</time>
      </trkpt>
      <trkpt lat="40.08969227783381938934326171875" lon="0.0060123391449451446533203125">
        <ele>374.79998779296875</ele>
        <time>2023-01-27T09:08:08.000Z</time>
      </trkpt>
      <trkpt lat="40.08966512046754360198974609375" lon="0.00603673048317432403564453125">
        <ele>375.20001220703125</ele>
        <time>2023-01-27T09:08:09.000Z</time>
      </trkpt>
      <trkpt lat="40.0896402262151241302490234375" lon="0.00606137327849864959716796875">
        <ele>375.20001220703125</ele>
        <time>2023-01-27T09:08:10.000Z</time>
      </trkpt>
      <trkpt lat="40.08961684070527553558349609375" lon="0.00608433969318866729736328125">
        <ele>375.600006103515625</ele>
        <time>2023-01-27T09:08:11.000Z</time>
      </trkpt>
      <trkpt lat="40.08958901278674602508544921875" lon="0.00611074268817901611328125">
        <ele>375.79998779296875</ele>
        <time>2023-01-27T09:08:12.000Z</time>
      </trkpt>
      <trkpt lat="40.08956520818173885345458984375" lon="0.00613278709352016448974609375">
        <ele>376</ele>
        <time>2023-01-27T09:08:13.000Z</time>
      </trkpt>
      <trkpt lat="40.0895443372428417205810546875" lon="0.00615541823208332061767578125">
        <ele>376.399993896484375</ele>
        <time>2023-01-27T09:08:14.000Z</time>
      </trkpt>
      <trkpt lat="40.08953067474067211151123046875" lon="0.00617603771388530731201171875">
        <ele>376.399993896484375</ele>
        <time>2023-01-27T09:08:15.000Z</time>
      </trkpt>
      <trkpt lat="40.08950821124017238616943359375" lon="0.0062088109552860260009765625">
        <ele>376.399993896484375</ele>
        <time>2023-01-27T09:08:16.000Z</time>
      </trkpt>
      <trkpt lat="40.08948842994868755340576171875" lon="0.00623823143541812896728515625">
        <ele>376.600006103515625</ele>
        <time>2023-01-27T09:08:17.000Z</time>
      </trkpt>
      <trkpt lat="40.0894692353904247283935546875" lon="0.00626496970653533935546875">
        <ele>376.79998779296875</ele>
        <time>2023-01-27T09:08:18.000Z</time>
      </trkpt>
      <trkpt lat="40.0894559919834136962890625" lon="0.006287433207035064697265625">
        <ele>376.600006103515625</ele>
        <time>2023-01-27T09:08:19.000Z</time>
      </trkpt>
      <trkpt lat="40.0894404016435146331787109375" lon="0.00631987117230892181396484375">
        <ele>377</ele>
        <time>2023-01-27T09:08:20.000Z</time>
      </trkpt>
      <trkpt lat="40.0894202850759029388427734375" lon="0.0063549913465976715087890625">
        <ele>377</ele>
        <time>2023-01-27T09:08:21.000Z</time>
      </trkpt>
      <trkpt lat="40.08940343745052814483642578125" lon="0.006384663283824920654296875">
        <ele>377.20001220703125</ele>
        <time>2023-01-27T09:08:22.000Z</time>
      </trkpt>
      <trkpt lat="40.08938985876739025115966796875" lon="0.00641651451587677001953125">
        <ele>377.399993896484375</ele>
        <time>2023-01-27T09:08:23.000Z</time>
      </trkpt>
      <trkpt lat="40.0893827341496944427490234375" lon="0.00644375570118427276611328125">
        <ele>378</ele>
        <time>2023-01-27T09:08:24.000Z</time>
      </trkpt>
      <trkpt lat="40.089371502399444580078125" lon="0.0064763613045215606689453125">
        <ele>378.20001220703125</ele>
        <time>2023-01-27T09:08:25.000Z</time>
      </trkpt>
      <trkpt lat="40.0893572531640529632568359375" lon="0.006514750421047210693359375">
        <ele>378.600006103515625</ele>
        <time>2023-01-27T09:08:26.000Z</time>
      </trkpt>
      <trkpt lat="40.08934509940445423126220703125" lon="0.00654534436762332916259765625">
        <ele>378.79998779296875</ele>
        <time>2023-01-27T09:08:27.000Z</time>
      </trkpt>
      <trkpt lat="40.08933193981647491455078125" lon="0.00657786615192890167236328125">
        <ele>379</ele>
        <time>2023-01-27T09:08:28.000Z</time>
      </trkpt>
      <trkpt lat="40.08932213298976421356201171875" lon="0.00660426914691925048828125">
        <ele>379</ele>
        <time>2023-01-27T09:08:29.000Z</time>
      </trkpt>
      <trkpt lat="40.089312493801116943359375" lon="0.006634108722209930419921875">
        <ele>379.399993896484375</ele>
        <time>2023-01-27T09:08:30.000Z</time>
      </trkpt>
      <trkpt lat="40.089300759136676788330078125" lon="0.0066738389432430267333984375">
        <ele>379.399993896484375</ele>
        <time>2023-01-27T09:08:31.000Z</time>
      </trkpt>
      <trkpt lat="40.08929028175771236419677734375" lon="0.0067095458507537841796875">
        <ele>380</ele>
        <time>2023-01-27T09:08:32.000Z</time>
      </trkpt>
      <trkpt lat="40.08928139694035053253173828125" lon="0.00674315728247165679931640625">
        <ele>380.399993896484375</ele>
        <time>2023-01-27T09:08:33.000Z</time>
      </trkpt>
      <trkpt lat="40.08927335031330585479736328125" lon="0.00676847063004970550537109375">
        <ele>380.600006103515625</ele>
        <time>2023-01-27T09:08:34.000Z</time>
      </trkpt>
      <trkpt lat="40.089261196553707122802734375" lon="0.00681038014590740203857421875">
        <ele>380.79998779296875</ele>
        <time>2023-01-27T09:08:35.000Z</time>
      </trkpt>
      <trkpt lat="40.0892519764602184295654296875" lon="0.0068458355963230133056640625">
        <ele>381</ele>
        <time>2023-01-27T09:08:36.000Z</time>
      </trkpt>
      <trkpt lat="40.0892439298331737518310546875" lon="0.00687911175191402435302734375">
        <ele>381.399993896484375</ele>
        <time>2023-01-27T09:08:37.000Z</time>
      </trkpt>
      <trkpt lat="40.08923646993935108184814453125" lon="0.0069075264036655426025390625">
        <ele>381.600006103515625</ele>
        <time>2023-01-27T09:08:38.000Z</time>
      </trkpt>
      <trkpt lat="40.0892280042171478271484375" lon="0.0069440715014934539794921875">
        <ele>382</ele>
        <time>2023-01-27T09:08:39.000Z</time>
      </trkpt>
      <trkpt lat="40.08922222070395946502685546875" lon="0.0069883279502391815185546875">
        <ele>382</ele>
        <time>2023-01-27T09:08:40.000Z</time>
      </trkpt>
      <trkpt lat="40.0892187841236591339111328125" lon="0.0070255436003208160400390625">
        <ele>382.399993896484375</ele>
        <time>2023-01-27T09:08:41.000Z</time>
      </trkpt>
      <trkpt lat="40.08921216242015361785888671875" lon="0.00706284306943416595458984375">
        <ele>382.600006103515625</ele>
        <time>2023-01-27T09:08:42.000Z</time>
      </trkpt>
      <trkpt lat="40.08920160122215747833251953125" lon="0.00709838233888149261474609375">
        <ele>383</ele>
        <time>2023-01-27T09:08:43.000Z</time>
      </trkpt>
      <trkpt lat="40.0891922973096370697021484375" lon="0.007135011255741119384765625">
        <ele>383.20001220703125</ele>
        <time>2023-01-27T09:08:44.000Z</time>
      </trkpt>
      <trkpt lat="40.0891842506825923919677734375" lon="0.00717298127710819244384765625">
        <ele>383.399993896484375</ele>
        <time>2023-01-27T09:08:45.000Z</time>
      </trkpt>
      <trkpt lat="40.0891762040555477142333984375" lon="0.00721153803169727325439453125">
        <ele>383.399993896484375</ele>
        <time>2023-01-27T09:08:46.000Z</time>
      </trkpt>
      <trkpt lat="40.08916966617107391357421875" lon="0.0072495080530643463134765625">
        <ele>383.600006103515625</ele>
        <time>2023-01-27T09:08:47.000Z</time>
      </trkpt>
      <trkpt lat="40.089162290096282958984375" lon="0.00728680752217769622802734375">
        <ele>383.600006103515625</ele>
        <time>2023-01-27T09:08:48.000Z</time>
      </trkpt>
      <trkpt lat="40.08915449492633342742919921875" lon="0.0073249451816082000732421875">
        <ele>383.79998779296875</ele>
        <time>2023-01-27T09:08:49.000Z</time>
      </trkpt>
      <trkpt lat="40.08914711885154247283935546875" lon="0.007363669574260711669921875">
        <ele>384</ele>
        <time>2023-01-27T09:08:50.000Z</time>
      </trkpt>
      <trkpt lat="40.0891389884054660797119140625" lon="0.0074020586907863616943359375">
        <ele>384.399993896484375</ele>
        <time>2023-01-27T09:08:51.000Z</time>
      </trkpt>
      <trkpt lat="40.089130438864231109619140625" lon="0.007440112531185150146484375">
        <ele>384.600006103515625</ele>
        <time>2023-01-27T09:08:52.000Z</time>
      </trkpt>
      <trkpt lat="40.08912348188459873199462890625" lon="0.007479004561901092529296875">
        <ele>384.79998779296875</ele>
        <time>2023-01-27T09:08:53.000Z</time>
      </trkpt>
      <trkpt lat="40.08911727927625179290771484375" lon="0.007517896592617034912109375">
        <ele>385</ele>
        <time>2023-01-27T09:08:54.000Z</time>
      </trkpt>
      <trkpt lat="40.089113004505634307861328125" lon="0.00755737535655498504638671875">
        <ele>385</ele>
        <time>2023-01-27T09:08:55.000Z</time>
      </trkpt>
      <trkpt lat="40.08910487405955791473388671875" lon="0.00759710557758808135986328125">
        <ele>385.399993896484375</ele>
        <time>2023-01-27T09:08:56.000Z</time>
      </trkpt>
      <trkpt lat="40.0890977494418621063232421875" lon="0.00763566233217716217041015625">
        <ele>385.600006103515625</ele>
        <time>2023-01-27T09:08:57.000Z</time>
      </trkpt>
      <trkpt lat="40.0890907086431980133056640625" lon="0.00767254270613193511962890625">
        <ele>386</ele>
        <time>2023-01-27T09:08:58.000Z</time>
      </trkpt>
      <trkpt lat="40.08908341638743877410888671875" lon="0.007708333432674407958984375">
        <ele>386</ele>
        <time>2023-01-27T09:08:59.000Z</time>
      </trkpt>
      <trkpt lat="40.08907520212233066558837890625" lon="0.00774554908275604248046875">
        <ele>386.20001220703125</ele>
        <time>2023-01-27T09:09:00.000Z</time>
      </trkpt>
      <trkpt lat="40.0890670716762542724609375" lon="0.00778418965637683868408203125">
        <ele>386.20001220703125</ele>
        <time>2023-01-27T09:09:01.000Z</time>
      </trkpt>
      <trkpt lat="40.08906044997274875640869140625" lon="0.00782199203968048095703125">
        <ele>386.600006103515625</ele>
        <time>2023-01-27T09:09:02.000Z</time>
      </trkpt>
      <trkpt lat="40.08905324153602123260498046875" lon="0.00785945914685726165771484375">
        <ele>386.79998779296875</ele>
        <time>2023-01-27T09:09:03.000Z</time>
      </trkpt>
      <trkpt lat="40.08904502727091312408447265625" lon="0.00789734534919261932373046875">
        <ele>386.79998779296875</ele>
        <time>2023-01-27T09:09:04.000Z</time>
      </trkpt>
      <trkpt lat="40.0890377350151538848876953125" lon="0.00793338753283023834228515625">
        <ele>387</ele>
        <time>2023-01-27T09:09:05.000Z</time>
      </trkpt>
      <trkpt lat="40.08903178386390209197998046875" lon="0.0079693458974361419677734375">
        <ele>387.399993896484375</ele>
        <time>2023-01-27T09:09:06.000Z</time>
      </trkpt>
      <trkpt lat="40.08902407251298427581787109375" lon="0.0080062262713909149169921875">
        <ele>387.600006103515625</ele>
        <time>2023-01-27T09:09:07.000Z</time>
      </trkpt>
      <trkpt lat="40.0890135951340198516845703125" lon="0.0080414302647113800048828125">
        <ele>387.79998779296875</ele>
        <time>2023-01-27T09:09:08.000Z</time>
      </trkpt>
      <trkpt lat="40.08900445885956287384033203125" lon="0.008081160485744476318359375">
        <ele>388</ele>
        <time>2023-01-27T09:09:09.000Z</time>
      </trkpt>
      <trkpt lat="40.0889985077083110809326171875" lon="0.00811963342130184173583984375">
        <ele>388.20001220703125</ele>
        <time>2023-01-27T09:09:10.000Z</time>
      </trkpt>
      <trkpt lat="40.08899222128093242645263671875" lon="0.00815953128039836883544921875">
        <ele>388.399993896484375</ele>
        <time>2023-01-27T09:09:11.000Z</time>
      </trkpt>
      <trkpt lat="40.088985264301300048828125" lon="0.00819758512079715728759765625">
        <ele>388.399993896484375</ele>
        <time>2023-01-27T09:09:12.000Z</time>
      </trkpt>
      <trkpt lat="40.0889763794839382171630859375" lon="0.00823547132313251495361328125">
        <ele>388.600006103515625</ele>
        <time>2023-01-27T09:09:13.000Z</time>
      </trkpt>
      <trkpt lat="40.08896841667592525482177734375" lon="0.00827352516353130340576171875">
        <ele>388.600006103515625</ele>
        <time>2023-01-27T09:09:14.000Z</time>
      </trkpt>
      <trkpt lat="40.08896313607692718505859375" lon="0.00830948352813720703125">
        <ele>388.600006103515625</ele>
        <time>2023-01-27T09:09:15.000Z</time>
      </trkpt>
      <trkpt lat="40.08896020241081714630126953125" lon="0.00834946520626544952392578125">
        <ele>388.79998779296875</ele>
        <time>2023-01-27T09:09:16.000Z</time>
      </trkpt>
      <trkpt lat="40.0889616273343563079833984375" lon="0.00838349573314189910888671875">
        <ele>388.79998779296875</ele>
        <time>2023-01-27T09:09:17.000Z</time>
      </trkpt>
      <trkpt lat="40.0889713503420352935791015625" lon="0.00839422456920146942138671875">
        <ele>388.79998779296875</ele>
        <time>2023-01-27T09:09:18.000Z</time>
      </trkpt>
      <trkpt lat="40.088964812457561492919921875" lon="0.0084253214299678802490234375">
        <ele>389.399993896484375</ele>
        <time>2023-01-27T09:09:19.000Z</time>
      </trkpt>
      <trkpt lat="40.08895249105989933013916015625" lon="0.008462369441986083984375">
        <ele>389.399993896484375</ele>
        <time>2023-01-27T09:09:20.000Z</time>
      </trkpt>
      <trkpt lat="40.0889435224235057830810546875" lon="0.00849916599690914154052734375">
        <ele>390</ele>
        <time>2023-01-27T09:09:21.000Z</time>
      </trkpt>
      <trkpt lat="40.08893891237676143646240234375" lon="0.00853269360959529876708984375">
        <ele>390.399993896484375</ele>
        <time>2023-01-27T09:09:22.000Z</time>
      </trkpt>
      <trkpt lat="40.08893229067325592041015625" lon="0.00856705941259860992431640625">
        <ele>390.600006103515625</ele>
        <time>2023-01-27T09:09:23.000Z</time>
      </trkpt>
      <trkpt lat="40.08892466314136981964111328125" lon="0.0086020119488239288330078125">
        <ele>390.79998779296875</ele>
        <time>2023-01-27T09:09:24.000Z</time>
      </trkpt>
      <trkpt lat="40.08891762234270572662353515625" lon="0.0086378864943981170654296875">
        <ele>391</ele>
        <time>2023-01-27T09:09:25.000Z</time>
      </trkpt>
      <trkpt lat="40.08891225792467594146728515625" lon="0.00867283903062343597412109375">
        <ele>391.20001220703125</ele>
        <time>2023-01-27T09:09:26.000Z</time>
      </trkpt>
      <trkpt lat="40.088905803859233856201171875" lon="0.008706115186214447021484375">
        <ele>391.20001220703125</ele>
        <time>2023-01-27T09:09:27.000Z</time>
      </trkpt>
      <trkpt lat="40.08889834396541118621826171875" lon="0.0087384693324565887451171875">
        <ele>391.600006103515625</ele>
        <time>2023-01-27T09:09:28.000Z</time>
      </trkpt>
      <trkpt lat="40.08889180608093738555908203125" lon="0.00876721926033496856689453125">
        <ele>391.600006103515625</ele>
        <time>2023-01-27T09:09:29.000Z</time>
      </trkpt>
      <trkpt lat="40.0888855196535587310791015625" lon="0.00879236496984958648681640625">
        <ele>392.20001220703125</ele>
        <time>2023-01-27T09:09:30.000Z</time>
      </trkpt>
      <trkpt lat="40.088877640664577484130859375" lon="0.00882337801158428192138671875">
        <ele>392.399993896484375</ele>
        <time>2023-01-27T09:09:31.000Z</time>
      </trkpt>
      <trkpt lat="40.08886649273335933685302734375" lon="0.00885606743395328521728515625">
        <ele>392.600006103515625</ele>
        <time>2023-01-27T09:09:32.000Z</time>
      </trkpt>
      <trkpt lat="40.0888563506305217742919921875" lon="0.00888993032276630401611328125">
        <ele>392.79998779296875</ele>
        <time>2023-01-27T09:09:33.000Z</time>
      </trkpt>
      <trkpt lat="40.08884511888027191162109375" lon="0.00892496667802333831787109375">
        <ele>393.20001220703125</ele>
        <time>2023-01-27T09:09:34.000Z</time>
      </trkpt>
      <trkpt lat="40.0888342224061489105224609375" lon="0.00895849429070949554443359375">
        <ele>393.399993896484375</ele>
        <time>2023-01-27T09:09:35.000Z</time>
      </trkpt>
      <trkpt lat="40.08882760070264339447021484375" lon="0.0089921057224273681640625">
        <ele>393.79998779296875</ele>
        <time>2023-01-27T09:09:36.000Z</time>
      </trkpt>
      <trkpt lat="40.08881938643753528594970703125" lon="0.00902622006833553314208984375">
        <ele>394</ele>
        <time>2023-01-27T09:09:37.000Z</time>
      </trkpt>
      <trkpt lat="40.08880966342985630035400390625" lon="0.00906142406165599822998046875">
        <ele>394.20001220703125</ele>
        <time>2023-01-27T09:09:38.000Z</time>
      </trkpt>
      <trkpt lat="40.08879792876541614532470703125" lon="0.00909545458853244781494140625">
        <ele>394.399993896484375</ele>
        <time>2023-01-27T09:09:39.000Z</time>
      </trkpt>
      <trkpt lat="40.0887859426438808441162109375" lon="0.00912822782993316650390625">
        <ele>394.600006103515625</ele>
        <time>2023-01-27T09:09:40.000Z</time>
      </trkpt>
      <trkpt lat="40.08877529762685298919677734375" lon="0.00915965996682643890380859375">
        <ele>395</ele>
        <time>2023-01-27T09:09:41.000Z</time>
      </trkpt>
      <trkpt lat="40.088765323162078857421875" lon="0.00918991863727569580078125">
        <ele>395.20001220703125</ele>
        <time>2023-01-27T09:09:42.000Z</time>
      </trkpt>
      <trkpt lat="40.0887554325163364410400390625" lon="0.00922386534512042999267578125">
        <ele>395.600006103515625</ele>
        <time>2023-01-27T09:09:43.000Z</time>
      </trkpt>
      <trkpt lat="40.08874629624187946319580078125" lon="0.00925823114812374114990234375">
        <ele>396</ele>
        <time>2023-01-27T09:09:44.000Z</time>
      </trkpt>
      <trkpt lat="40.0887353159487247467041015625" lon="0.00929309986531734466552734375">
        <ele>396.399993896484375</ele>
        <time>2023-01-27T09:09:45.000Z</time>
      </trkpt>
      <trkpt lat="40.088722072541713714599609375" lon="0.009331740438938140869140625">
        <ele>396.600006103515625</ele>
        <time>2023-01-27T09:09:46.000Z</time>
      </trkpt>
      <trkpt lat="40.08871897123754024505615234375" lon="0.00935747288167476654052734375">
        <ele>396.79998779296875</ele>
        <time>2023-01-27T09:09:47.000Z</time>
      </trkpt>
      <trkpt lat="40.0887185521423816680908203125" lon="0.009374655783176422119140625">
        <ele>397</ele>
        <time>2023-01-27T09:09:48.000Z</time>
      </trkpt>
      <trkpt lat="40.0887125171720981597900390625" lon="0.0094060041010379791259765625">
        <ele>397.399993896484375</ele>
        <time>2023-01-27T09:09:49.000Z</time>
      </trkpt>
      <trkpt lat="40.0887041352689266204833984375" lon="0.00943743623793125152587890625">
        <ele>397.600006103515625</ele>
        <time>2023-01-27T09:09:50.000Z</time>
      </trkpt>
      <trkpt lat="40.08869298733770847320556640625" lon="0.00946744345128536224365234375">
        <ele>397.79998779296875</ele>
        <time>2023-01-27T09:09:51.000Z</time>
      </trkpt>
      <trkpt lat="40.0886781513690948486328125" lon="0.009497366845607757568359375">
        <ele>398</ele>
        <time>2023-01-27T09:09:52.000Z</time>
      </trkpt>
      <trkpt lat="40.08866448886692523956298828125" lon="0.00952460803091526031494140625">
        <ele>398.399993896484375</ele>
        <time>2023-01-27T09:09:53.000Z</time>
      </trkpt>
      <trkpt lat="40.0886504910886287689208984375" lon="0.00955662690103054046630859375">
        <ele>398.600006103515625</ele>
        <time>2023-01-27T09:09:54.000Z</time>
      </trkpt>
      <trkpt lat="40.08863590657711029052734375" lon="0.0095877237617969512939453125">
        <ele>398.79998779296875</ele>
        <time>2023-01-27T09:09:55.000Z</time>
      </trkpt>
      <trkpt lat="40.0886213220655918121337890625" lon="0.009618736803531646728515625">
        <ele>399</ele>
        <time>2023-01-27T09:09:56.000Z</time>
      </trkpt>
      <trkpt lat="40.08860908448696136474609375" lon="0.00964966602623462677001953125">
        <ele>399.20001220703125</ele>
        <time>2023-01-27T09:09:57.000Z</time>
      </trkpt>
      <trkpt lat="40.08859567344188690185546875" lon="0.00968151725828647613525390625">
        <ele>399.399993896484375</ele>
        <time>2023-01-27T09:09:58.000Z</time>
      </trkpt>
      <trkpt lat="40.088583268225193023681640625" lon="0.0097137875854969024658203125">
        <ele>399.399993896484375</ele>
        <time>2023-01-27T09:09:59.000Z</time>
      </trkpt>
      <trkpt lat="40.08857212029397487640380859375" lon="0.0097463093698024749755859375">
        <ele>399.79998779296875</ele>
        <time>2023-01-27T09:10:00.000Z</time>
      </trkpt>
      <trkpt lat="40.0885603018105030059814453125" lon="0.0097788311541080474853515625">
        <ele>400</ele>
        <time>2023-01-27T09:10:01.000Z</time>
      </trkpt>
      <trkpt lat="40.0885465554893016815185546875" lon="0.0098074972629547119140625">
        <ele>400.20001220703125</ele>
        <time>2023-01-27T09:10:02.000Z</time>
      </trkpt>
      <trkpt lat="40.08853406645357608795166015625" lon="0.0098301284015178680419921875">
        <ele>400.399993896484375</ele>
        <time>2023-01-27T09:10:03.000Z</time>
      </trkpt>
      <trkpt lat="40.08851981721818447113037109375" lon="0.0098569504916667938232421875">
        <ele>400.600006103515625</ele>
        <time>2023-01-27T09:10:04.000Z</time>
      </trkpt>
      <trkpt lat="40.08850581943988800048828125" lon="0.00988687388598918914794921875">
        <ele>400.600006103515625</ele>
        <time>2023-01-27T09:10:05.000Z</time>
      </trkpt>
      <trkpt lat="40.08849232457578182220458984375" lon="0.00991822220385074615478515625">
        <ele>401</ele>
        <time>2023-01-27T09:10:06.000Z</time>
      </trkpt>
      <trkpt lat="40.0884768180549144744873046875" lon="0.00995258800685405731201171875">
        <ele>401.20001220703125</ele>
        <time>2023-01-27T09:10:07.000Z</time>
      </trkpt>
      <trkpt lat="40.08846600539982318878173828125" lon="0.009975135326385498046875">
        <ele>401.399993896484375</ele>
        <time>2023-01-27T09:10:08.000Z</time>
      </trkpt>
      <trkpt lat="40.08845158852636814117431640625" lon="0.0100051425397396087646484375">
        <ele>401.600006103515625</ele>
        <time>2023-01-27T09:10:09.000Z</time>
      </trkpt>
      <trkpt lat="40.08843482472002506256103515625" lon="0.01003623940050601959228515625">
        <ele>401.79998779296875</ele>
        <time>2023-01-27T09:10:10.000Z</time>
      </trkpt>
      <trkpt lat="40.0884134508669376373291015625" lon="0.0100711919367313385009765625">
        <ele>402</ele>
        <time>2023-01-27T09:10:11.000Z</time>
      </trkpt>
      <trkpt lat="40.08839643560349941253662109375" lon="0.01009809784591197967529296875">
        <ele>402.399993896484375</ele>
        <time>2023-01-27T09:10:12.000Z</time>
      </trkpt>
      <trkpt lat="40.088378749787807464599609375" lon="0.01012559048831462860107421875">
        <ele>402.399993896484375</ele>
        <time>2023-01-27T09:10:13.000Z</time>
      </trkpt>
      <trkpt lat="40.08835989050567150115966796875" lon="0.01015417277812957763671875">
        <ele>403</ele>
        <time>2023-01-27T09:10:14.000Z</time>
      </trkpt>
      <trkpt lat="40.0883433781564235687255859375" lon="0.01018275506794452667236328125">
        <ele>403</ele>
        <time>2023-01-27T09:10:15.000Z</time>
      </trkpt>
      <trkpt lat="40.088327787816524505615234375" lon="0.0102110020816326141357421875">
        <ele>403</ele>
        <time>2023-01-27T09:10:16.000Z</time>
      </trkpt>
      <trkpt lat="40.08831177838146686553955078125" lon="0.0102381594479084014892578125">
        <ele>403.399993896484375</ele>
        <time>2023-01-27T09:10:17.000Z</time>
      </trkpt>
      <trkpt lat="40.08829451166093349456787109375" lon="0.0102649815380573272705078125">
        <ele>403.600006103515625</ele>
        <time>2023-01-27T09:10:18.000Z</time>
      </trkpt>
      <trkpt lat="40.088277161121368408203125" lon="0.0102887861430644989013671875">
        <ele>403.79998779296875</ele>
        <time>2023-01-27T09:10:19.000Z</time>
      </trkpt>
      <trkpt lat="40.088258050382137298583984375" lon="0.0103122554719448089599609375">
        <ele>404</ele>
        <time>2023-01-27T09:10:20.000Z</time>
      </trkpt>
      <trkpt lat="40.0882382690906524658203125" lon="0.01033790409564971923828125">
        <ele>404.20001220703125</ele>
        <time>2023-01-27T09:10:21.000Z</time>
      </trkpt>
      <trkpt lat="40.08821991272270679473876953125" lon="0.010363720357418060302734375">
        <ele>404.399993896484375</ele>
        <time>2023-01-27T09:10:22.000Z</time>
      </trkpt>
      <trkpt lat="40.08820314891636371612548828125" lon="0.01038752496242523193359375">
        <ele>404.79998779296875</ele>
        <time>2023-01-27T09:10:23.000Z</time>
      </trkpt>
      <trkpt lat="40.08818722330033779144287109375" lon="0.0104108266532421112060546875">
        <ele>405</ele>
        <time>2023-01-27T09:10:24.000Z</time>
      </trkpt>
      <trkpt lat="40.08816928602755069732666015625" lon="0.0104356370866298675537109375">
        <ele>405.20001220703125</ele>
        <time>2023-01-27T09:10:25.000Z</time>
      </trkpt>
      <trkpt lat="40.08814933709800243377685546875" lon="0.0104607827961444854736328125">
        <ele>405.20001220703125</ele>
        <time>2023-01-27T09:10:26.000Z</time>
      </trkpt>
      <trkpt lat="40.0881294719874858856201171875" lon="0.01048534177243709564208984375">
        <ele>405.399993896484375</ele>
        <time>2023-01-27T09:10:27.000Z</time>
      </trkpt>
      <trkpt lat="40.0881095230579376220703125" lon="0.01050948165357112884521484375">
        <ele>405.399993896484375</ele>
        <time>2023-01-27T09:10:28.000Z</time>
      </trkpt>
      <trkpt lat="40.08809007704257965087890625" lon="0.01053236424922943115234375">
        <ele>405.600006103515625</ele>
        <time>2023-01-27T09:10:29.000Z</time>
      </trkpt>
      <trkpt lat="40.08807105012238025665283203125" lon="0.0105571746826171875">
        <ele>406</ele>
        <time>2023-01-27T09:10:30.000Z</time>
      </trkpt>
      <trkpt lat="40.08805227465927600860595703125" lon="0.01058332622051239013671875">
        <ele>406.20001220703125</ele>
        <time>2023-01-27T09:10:31.000Z</time>
      </trkpt>
      <trkpt lat="40.08803299628198146820068359375" lon="0.01060746610164642333984375">
        <ele>406.600006103515625</ele>
        <time>2023-01-27T09:10:32.000Z</time>
      </trkpt>
      <trkpt lat="40.08801120333373546600341796875" lon="0.010634623467922210693359375">
        <ele>406.79998779296875</ele>
        <time>2023-01-27T09:10:33.000Z</time>
      </trkpt>
      <trkpt lat="40.087991841137409210205078125" lon="0.01066111028194427490234375">
        <ele>407</ele>
        <time>2023-01-27T09:10:34.000Z</time>
      </trkpt>
      <trkpt lat="40.08797247894108295440673828125" lon="0.010684914886951446533203125">
        <ele>407.20001220703125</ele>
        <time>2023-01-27T09:10:35.000Z</time>
      </trkpt>
      <trkpt lat="40.08795219473540782928466796875" lon="0.0107102282345294952392578125">
        <ele>407.600006103515625</ele>
        <time>2023-01-27T09:10:36.000Z</time>
      </trkpt>
      <trkpt lat="40.0879299826920032501220703125" lon="0.01073478721082210540771484375">
        <ele>407.79998779296875</ele>
        <time>2023-01-27T09:10:37.000Z</time>
      </trkpt>
      <trkpt lat="40.08790902793407440185546875" lon="0.01076060347259044647216796875">
        <ele>408.20001220703125</ele>
        <time>2023-01-27T09:10:38.000Z</time>
      </trkpt>
      <trkpt lat="40.08788832463324069976806640625" lon="0.0107836537063121795654296875">
        <ele>408.399993896484375</ele>
        <time>2023-01-27T09:10:39.000Z</time>
      </trkpt>
      <trkpt lat="40.08786502294242382049560546875" lon="0.01080234535038471221923828125">
        <ele>408.79998779296875</ele>
        <time>2023-01-27T09:10:40.000Z</time>
      </trkpt>
      <trkpt lat="40.08784105069935321807861328125" lon="0.01082380302250385284423828125">
        <ele>409</ele>
        <time>2023-01-27T09:10:41.000Z</time>
      </trkpt>
      <trkpt lat="40.087818838655948638916015625" lon="0.01084643416106700897216796875">
        <ele>409.399993896484375</ele>
        <time>2023-01-27T09:10:42.000Z</time>
      </trkpt>
      <trkpt lat="40.08779712952673435211181640625" lon="0.010865963995456695556640625">
        <ele>409.600006103515625</ele>
        <time>2023-01-27T09:10:43.000Z</time>
      </trkpt>
      <trkpt lat="40.08777366019785404205322265625" lon="0.01088532619178295135498046875">
        <ele>409.79998779296875</ele>
        <time>2023-01-27T09:10:44.000Z</time>
      </trkpt>
      <trkpt lat="40.08775052614510059356689453125" lon="0.0109053589403629302978515625">
        <ele>410</ele>
        <time>2023-01-27T09:10:45.000Z</time>
      </trkpt>
      <trkpt lat="40.0877251289784908294677734375" lon="0.0109232962131500244140625">
        <ele>410.20001220703125</ele>
        <time>2023-01-27T09:10:46.000Z</time>
      </trkpt>
      <trkpt lat="40.0876993127167224884033203125" lon="0.0109402276575565338134765625">
        <ele>410.399993896484375</ele>
        <time>2023-01-27T09:10:47.000Z</time>
      </trkpt>
      <trkpt lat="40.08767492137849330902099609375" lon="0.01095422543585300445556640625">
        <ele>410.399993896484375</ele>
        <time>2023-01-27T09:10:48.000Z</time>
      </trkpt>
      <trkpt lat="40.087650530040264129638671875" lon="0.01096830703318119049072265625">
        <ele>410.600006103515625</ele>
        <time>2023-01-27T09:10:49.000Z</time>
      </trkpt>
      <trkpt lat="40.0876262225210666656494140625" lon="0.01098054461181163787841796875">
        <ele>410.600006103515625</ele>
        <time>2023-01-27T09:10:50.000Z</time>
      </trkpt>
      <trkpt lat="40.0876020826399326324462890625" lon="0.010992027819156646728515625">
        <ele>411</ele>
        <time>2023-01-27T09:10:51.000Z</time>
      </trkpt>
      <trkpt lat="40.08757517673075199127197265625" lon="0.011002756655216217041015625">
        <ele>411</ele>
        <time>2023-01-27T09:10:52.000Z</time>
      </trkpt>
      <trkpt lat="40.08755003102123737335205078125" lon="0.0110119767487049102783203125">
        <ele>411.399993896484375</ele>
        <time>2023-01-27T09:10:53.000Z</time>
      </trkpt>
      <trkpt lat="40.087521784007549285888671875" lon="0.01101876609027385711669921875">
        <ele>411.399993896484375</ele>
        <time>2023-01-27T09:10:54.000Z</time>
      </trkpt>
      <trkpt lat="40.08749060332775115966796875" lon="0.01102714799344539642333984375">
        <ele>412</ele>
        <time>2023-01-27T09:10:55.000Z</time>
      </trkpt>
      <trkpt lat="40.08746218867599964141845703125" lon="0.01103821210563182830810546875">
        <ele>412.20001220703125</ele>
        <time>2023-01-27T09:10:56.000Z</time>
      </trkpt>
      <trkpt lat="40.08743100799620151519775390625" lon="0.01105095259845256805419921875">
        <ele>412.399993896484375</ele>
        <time>2023-01-27T09:10:57.000Z</time>
      </trkpt>
      <trkpt lat="40.08739932440221309661865234375" lon="0.011068470776081085205078125">
        <ele>412.600006103515625</ele>
        <time>2023-01-27T09:10:58.000Z</time>
      </trkpt>
      <trkpt lat="40.0873690657317638397216796875" lon="0.01108749769628047943115234375">
        <ele>412.600006103515625</ele>
        <time>2023-01-27T09:10:59.000Z</time>
      </trkpt>
      <trkpt lat="40.0873395614326000213623046875" lon="0.01110962592065334320068359375">
        <ele>412.79998779296875</ele>
        <time>2023-01-27T09:11:00.000Z</time>
      </trkpt>
      <trkpt lat="40.08731148205697536468505859375" lon="0.01113493926823139190673828125">
        <ele>412.79998779296875</ele>
        <time>2023-01-27T09:11:01.000Z</time>
      </trkpt>
      <trkpt lat="40.08728784509003162384033203125" lon="0.01116092316806316375732421875">
        <ele>413</ele>
        <time>2023-01-27T09:11:02.000Z</time>
      </trkpt>
      <trkpt lat="40.08726504631340503692626953125" lon="0.01119109801948070526123046875">
        <ele>413</ele>
        <time>2023-01-27T09:11:03.000Z</time>
      </trkpt>
      <trkpt lat="40.08724425919353961944580078125" lon="0.0112232007086277008056640625">
        <ele>413.20001220703125</ele>
        <time>2023-01-27T09:11:04.000Z</time>
      </trkpt>
      <trkpt lat="40.087223052978515625" lon="0.01125496812164783477783203125">
        <ele>413.399993896484375</ele>
        <time>2023-01-27T09:11:05.000Z</time>
      </trkpt>
      <trkpt lat="40.08719832636415958404541015625" lon="0.01128681935369968414306640625">
        <ele>413.399993896484375</ele>
        <time>2023-01-27T09:11:06.000Z</time>
      </trkpt>
      <trkpt lat="40.08717812597751617431640625" lon="0.01132252626121044158935546875">
        <ele>413.399993896484375</ele>
        <time>2023-01-27T09:11:07.000Z</time>
      </trkpt>
      <trkpt lat="40.0871605239808559417724609375" lon="0.01135957427322864532470703125">
        <ele>413.600006103515625</ele>
        <time>2023-01-27T09:11:08.000Z</time>
      </trkpt>
      <trkpt lat="40.08714669384062290191650390625" lon="0.0113926827907562255859375">
        <ele>413.600006103515625</ele>
        <time>2023-01-27T09:11:09.000Z</time>
      </trkpt>
      <trkpt lat="40.087134204804897308349609375" lon="0.01142931170761585235595703125">
        <ele>413.79998779296875</ele>
        <time>2023-01-27T09:11:10.000Z</time>
      </trkpt>
      <trkpt lat="40.0871216319501399993896484375" lon="0.011467449367046356201171875">
        <ele>414</ele>
        <time>2023-01-27T09:11:11.000Z</time>
      </trkpt>
      <trkpt lat="40.08710864000022411346435546875" lon="0.01150466501712799072265625">
        <ele>414</ele>
        <time>2023-01-27T09:11:12.000Z</time>
      </trkpt>
      <trkpt lat="40.08709631860256195068359375" lon="0.0115402042865753173828125">
        <ele>414.20001220703125</ele>
        <time>2023-01-27T09:11:13.000Z</time>
      </trkpt>
      <trkpt lat="40.0870837457478046417236328125" lon="0.0115745700895786285400390625">
        <ele>414.399993896484375</ele>
        <time>2023-01-27T09:11:14.000Z</time>
      </trkpt>
      <trkpt lat="40.08707025088369846343994140625" lon="0.01161153428256511688232421875">
        <ele>414.399993896484375</ele>
        <time>2023-01-27T09:11:15.000Z</time>
      </trkpt>
      <trkpt lat="40.087058432400226593017578125" lon="0.01165009103715419769287109375">
        <ele>414.600006103515625</ele>
        <time>2023-01-27T09:11:16.000Z</time>
      </trkpt>
      <trkpt lat="40.087050385773181915283203125" lon="0.01168764196336269378662109375">
        <ele>414.79998779296875</ele>
        <time>2023-01-27T09:11:17.000Z</time>
      </trkpt>
      <trkpt lat="40.08704124949872493743896484375" lon="0.01172636635601520538330078125">
        <ele>415</ele>
        <time>2023-01-27T09:11:18.000Z</time>
      </trkpt>
      <trkpt lat="40.08703119121491909027099609375" lon="0.01176475547254085540771484375">
        <ele>415.600006103515625</ele>
        <time>2023-01-27T09:11:19.000Z</time>
      </trkpt>
      <trkpt lat="40.0870200432837009429931640625" lon="0.01180113293230533599853515625">
        <ele>415.79998779296875</ele>
        <time>2023-01-27T09:11:20.000Z</time>
      </trkpt>
      <trkpt lat="40.08700805716216564178466796875" lon="0.01183365471661090850830078125">
        <ele>416.20001220703125</ele>
        <time>2023-01-27T09:11:21.000Z</time>
      </trkpt>
      <trkpt lat="40.0869945622980594635009765625" lon="0.011866092681884765625">
        <ele>416.399993896484375</ele>
        <time>2023-01-27T09:11:22.000Z</time>
      </trkpt>
      <trkpt lat="40.086980648338794708251953125" lon="0.01190305687487125396728515625">
        <ele>416.79998779296875</ele>
        <time>2023-01-27T09:11:23.000Z</time>
      </trkpt>
      <trkpt lat="40.08696983568370342254638671875" lon="0.0119398534297943115234375">
        <ele>417</ele>
        <time>2023-01-27T09:11:24.000Z</time>
      </trkpt>
      <trkpt lat="40.0869593583047389984130859375" lon="0.0119745545089244842529296875">
        <ele>417.20001220703125</ele>
        <time>2023-01-27T09:11:25.000Z</time>
      </trkpt>
      <trkpt lat="40.0869506411254405975341796875" lon="0.012012608349323272705078125">
        <ele>417.20001220703125</ele>
        <time>2023-01-27T09:11:26.000Z</time>
      </trkpt>
      <trkpt lat="40.0869409181177616119384765625" lon="0.01205175183713436126708984375">
        <ele>417.600006103515625</ele>
        <time>2023-01-27T09:11:27.000Z</time>
      </trkpt>
      <trkpt lat="40.08693027310073375701904296875" lon="0.01208963803946971893310546875">
        <ele>417.600006103515625</ele>
        <time>2023-01-27T09:11:28.000Z</time>
      </trkpt>
      <trkpt lat="40.0869191251695156097412109375" lon="0.01212517730891704559326171875">
        <ele>417.79998779296875</ele>
        <time>2023-01-27T09:11:29.000Z</time>
      </trkpt>
      <trkpt lat="40.086906887590885162353515625" lon="0.012158453464508056640625">
        <ele>418</ele>
        <time>2023-01-27T09:11:30.000Z</time>
      </trkpt>
      <trkpt lat="40.08689372800290584564208984375" lon="0.01219323836266994476318359375">
        <ele>418.20001220703125</ele>
        <time>2023-01-27T09:11:31.000Z</time>
      </trkpt>
      <trkpt lat="40.08687914349138736724853515625" lon="0.0122256763279438018798828125">
        <ele>418.20001220703125</ele>
        <time>2023-01-27T09:11:32.000Z</time>
      </trkpt>
      <trkpt lat="40.0868661515414714813232421875" lon="0.0122585333883762359619140625">
        <ele>418.399993896484375</ele>
        <time>2023-01-27T09:11:33.000Z</time>
      </trkpt>
      <trkpt lat="40.08685299195349216461181640625" lon="0.01229164190590381622314453125">
        <ele>418.399993896484375</ele>
        <time>2023-01-27T09:11:34.000Z</time>
      </trkpt>
      <trkpt lat="40.086840502917766571044921875" lon="0.01232550479471683502197265625">
        <ele>418.600006103515625</ele>
        <time>2023-01-27T09:11:35.000Z</time>
      </trkpt>
      <trkpt lat="40.0868260860443115234375" lon="0.01236003823578357696533203125">
        <ele>418.600006103515625</ele>
        <time>2023-01-27T09:11:36.000Z</time>
      </trkpt>
      <trkpt lat="40.08681125007569789886474609375" lon="0.01239490695297718048095703125">
        <ele>418.79998779296875</ele>
        <time>2023-01-27T09:11:37.000Z</time>
      </trkpt>
      <trkpt lat="40.08679666556417942047119140625" lon="0.01243011094629764556884765625">
        <ele>419.20001220703125</ele>
        <time>2023-01-27T09:11:38.000Z</time>
      </trkpt>
      <trkpt lat="40.08677939884364604949951171875" lon="0.01246414147317409515380859375">
        <ele>419.20001220703125</ele>
        <time>2023-01-27T09:11:39.000Z</time>
      </trkpt>
      <trkpt lat="40.08676732890307903289794921875" lon="0.01249708235263824462890625">
        <ele>419.600006103515625</ele>
        <time>2023-01-27T09:11:40.000Z</time>
      </trkpt>
      <trkpt lat="40.08675710298120975494384765625" lon="0.012528933584690093994140625">
        <ele>419.79998779296875</ele>
        <time>2023-01-27T09:11:41.000Z</time>
      </trkpt>
      <trkpt lat="40.0867477990686893463134765625" lon="0.012557096779346466064453125">
        <ele>420</ele>
        <time>2023-01-27T09:11:42.000Z</time>
      </trkpt>
      <trkpt lat="40.0867367349565029144287109375" lon="0.01258282922208309173583984375">
        <ele>420</ele>
        <time>2023-01-27T09:11:43.000Z</time>
      </trkpt>
      <trkpt lat="40.08672592230141162872314453125" lon="0.0126122497022151947021484375">
        <ele>420.600006103515625</ele>
        <time>2023-01-27T09:11:44.000Z</time>
      </trkpt>
      <trkpt lat="40.08671586401760578155517578125" lon="0.012644268572330474853515625">
        <ele>420.79998779296875</ele>
        <time>2023-01-27T09:11:45.000Z</time>
      </trkpt>
      <trkpt lat="40.086703039705753326416015625" lon="0.012674443423748016357421875">
        <ele>421.399993896484375</ele>
        <time>2023-01-27T09:11:46.000Z</time>
      </trkpt>
      <trkpt lat="40.086690969765186309814453125" lon="0.01270302571356296539306640625">
        <ele>421.600006103515625</ele>
        <time>2023-01-27T09:11:47.000Z</time>
      </trkpt>
      <trkpt lat="40.08668149821460247039794921875" lon="0.0127316080033779144287109375">
        <ele>421.79998779296875</ele>
        <time>2023-01-27T09:11:48.000Z</time>
      </trkpt>
      <trkpt lat="40.08666859008371829986572265625" lon="0.01276086084544658660888671875">
        <ele>422</ele>
        <time>2023-01-27T09:11:49.000Z</time>
      </trkpt>
      <trkpt lat="40.0866555981338024139404296875" lon="0.012790448963642120361328125">
        <ele>422</ele>
        <time>2023-01-27T09:11:50.000Z</time>
      </trkpt>
      <trkpt lat="40.08664361201226711273193359375" lon="0.01281802542507648468017578125">
        <ele>422.399993896484375</ele>
        <time>2023-01-27T09:11:51.000Z</time>
      </trkpt>
      <trkpt lat="40.0866321288049221038818359375" lon="0.01284400932490825653076171875">
        <ele>422.399993896484375</ele>
        <time>2023-01-27T09:11:52.000Z</time>
      </trkpt>
      <trkpt lat="40.0866224057972431182861328125" lon="0.01286949031054973602294921875">
        <ele>423</ele>
        <time>2023-01-27T09:11:53.000Z</time>
      </trkpt>
      <trkpt lat="40.08661276660859584808349609375" lon="0.01289413310587406158447265625">
        <ele>423.399993896484375</ele>
        <time>2023-01-27T09:11:54.000Z</time>
      </trkpt>
      <trkpt lat="40.08660069666802883148193359375" lon="0.0129136629402637481689453125">
        <ele>423.79998779296875</ele>
        <time>2023-01-27T09:11:55.000Z</time>
      </trkpt>
      <trkpt lat="40.086589716374874114990234375" lon="0.01293604262173175811767578125">
        <ele>424</ele>
        <time>2023-01-27T09:11:56.000Z</time>
      </trkpt>
      <trkpt lat="40.08657823316752910614013671875" lon="0.0129649601876735687255859375">
        <ele>424.399993896484375</ele>
        <time>2023-01-27T09:11:57.000Z</time>
      </trkpt>
      <trkpt lat="40.086567588150501251220703125" lon="0.01299404539167881011962890625">
        <ele>424.600006103515625</ele>
        <time>2023-01-27T09:11:58.000Z</time>
      </trkpt>
      <trkpt lat="40.0865576975047588348388671875" lon="0.01302011311054229736328125">
        <ele>424.79998779296875</ele>
        <time>2023-01-27T09:11:59.000Z</time>
      </trkpt>
      <trkpt lat="40.08654906414449214935302734375" lon="0.01304316334426403045654296875">
        <ele>425.20001220703125</ele>
        <time>2023-01-27T09:12:00.000Z</time>
      </trkpt>
      <trkpt lat="40.0865399278700351715087890625" lon="0.01306747086346149444580078125">
        <ele>425.79998779296875</ele>
        <time>2023-01-27T09:12:01.000Z</time>
      </trkpt>
      <trkpt lat="40.0865328870713710784912109375" lon="0.0130927003920078277587890625">
        <ele>425.79998779296875</ele>
        <time>2023-01-27T09:12:02.000Z</time>
      </trkpt>
      <trkpt lat="40.08652500808238983154296875" lon="0.01312212087213993072509765625">
        <ele>426.399993896484375</ele>
        <time>2023-01-27T09:12:03.000Z</time>
      </trkpt>
      <trkpt lat="40.08651754818856716156005859375" lon="0.01315631903707981109619140625">
        <ele>426.600006103515625</ele>
        <time>2023-01-27T09:12:04.000Z</time>
      </trkpt>
      <trkpt lat="40.086510591208934783935546875" lon="0.01318766735494136810302734375">
        <ele>426.600006103515625</ele>
        <time>2023-01-27T09:12:05.000Z</time>
      </trkpt>
      <trkpt lat="40.08650447241961956024169921875" lon="0.01321935094892978668212890625">
        <ele>426.79998779296875</ele>
        <time>2023-01-27T09:12:06.000Z</time>
      </trkpt>
      <trkpt lat="40.08649961091578006744384765625" lon="0.01325086690485477447509765625">
        <ele>427</ele>
        <time>2023-01-27T09:12:07.000Z</time>
      </trkpt>
      <trkpt lat="40.086496174335479736328125" lon="0.01328137703239917755126953125">
        <ele>427.20001220703125</ele>
        <time>2023-01-27T09:12:08.000Z</time>
      </trkpt>
      <trkpt lat="40.08649240247905254364013671875" lon="0.013317503035068511962890625">
        <ele>427.20001220703125</ele>
        <time>2023-01-27T09:12:09.000Z</time>
      </trkpt>
      <trkpt lat="40.08649055846035480499267578125" lon="0.01335480250418186187744140625">
        <ele>427.399993896484375</ele>
        <time>2023-01-27T09:12:10.000Z</time>
      </trkpt>
      <trkpt lat="40.08649039082229137420654296875" lon="0.01338833011686801910400390625">
        <ele>427.600006103515625</ele>
        <time>2023-01-27T09:12:11.000Z</time>
      </trkpt>
      <trkpt lat="40.08648804388940334320068359375" lon="0.01342185772955417633056640625">
        <ele>427.79998779296875</ele>
        <time>2023-01-27T09:12:12.000Z</time>
      </trkpt>
      <trkpt lat="40.086484439671039581298828125" lon="0.0134558044373989105224609375">
        <ele>428</ele>
        <time>2023-01-27T09:12:13.000Z</time>
      </trkpt>
      <trkpt lat="40.08648117072880268096923828125" lon="0.01348857767879962921142578125">
        <ele>428.20001220703125</ele>
        <time>2023-01-27T09:12:14.000Z</time>
      </trkpt>
      <trkpt lat="40.08648200891911983489990234375" lon="0.01352302730083465576171875">
        <ele>428.399993896484375</ele>
        <time>2023-01-27T09:12:15.000Z</time>
      </trkpt>
      <trkpt lat="40.086485110223293304443359375" lon="0.0135563872754573822021484375">
        <ele>428.600006103515625</ele>
        <time>2023-01-27T09:12:16.000Z</time>
      </trkpt>
      <trkpt lat="40.08648888207972049713134765625" lon="0.01358949579298496246337890625">
        <ele>428.79998779296875</ele>
        <time>2023-01-27T09:12:17.000Z</time>
      </trkpt>
      <trkpt lat="40.08649148046970367431640625" lon="0.013625286519527435302734375">
        <ele>429</ele>
        <time>2023-01-27T09:12:18.000Z</time>
      </trkpt>
      <trkpt lat="40.0864921510219573974609375" lon="0.01366040669381618499755859375">
        <ele>429.20001220703125</ele>
        <time>2023-01-27T09:12:19.000Z</time>
      </trkpt>
      <trkpt lat="40.0864889658987522125244140625" lon="0.01369326375424861907958984375">
        <ele>429.600006103515625</ele>
        <time>2023-01-27T09:12:20.000Z</time>
      </trkpt>
      <trkpt lat="40.086489804089069366455078125" lon="0.0137223489582538604736328125">
        <ele>430</ele>
        <time>2023-01-27T09:12:21.000Z</time>
      </trkpt>
      <trkpt lat="40.08649290539324283599853515625" lon="0.01374875195324420928955078125">
        <ele>430</ele>
        <time>2023-01-27T09:12:22.000Z</time>
      </trkpt>
      <trkpt lat="40.08649148046970367431640625" lon="0.0137766636908054351806640625">
        <ele>430.20001220703125</ele>
        <time>2023-01-27T09:12:23.000Z</time>
      </trkpt>
      <trkpt lat="40.08649307303130626678466796875" lon="0.0138108618557453155517578125">
        <ele>430.399993896484375</ele>
        <time>2023-01-27T09:12:24.000Z</time>
      </trkpt>
      <trkpt lat="40.08649240247905254364013671875" lon="0.01384514383971691131591796875">
        <ele>430.79998779296875</ele>
        <time>2023-01-27T09:12:25.000Z</time>
      </trkpt>
      <trkpt lat="40.08649257011711597442626953125" lon="0.01388587988913059234619140625">
        <ele>431</ele>
        <time>2023-01-27T09:12:26.000Z</time>
      </trkpt>
      <trkpt lat="40.08649290539324283599853515625" lon="0.01393147744238376617431640625">
        <ele>431.20001220703125</ele>
        <time>2023-01-27T09:12:27.000Z</time>
      </trkpt>
      <trkpt lat="40.0864933244884014129638671875" lon="0.01397254876792430877685546875">
        <ele>431.20001220703125</ele>
        <time>2023-01-27T09:12:28.000Z</time>
      </trkpt>
      <trkpt lat="40.086488462984561920166015625" lon="0.0140073336660861968994140625">
        <ele>431.399993896484375</ele>
        <time>2023-01-27T09:12:29.000Z</time>
      </trkpt>
      <trkpt lat="40.08648368529975414276123046875" lon="0.01403910107910633087158203125">
        <ele>431.399993896484375</ele>
        <time>2023-01-27T09:12:30.000Z</time>
      </trkpt>
      <trkpt lat="40.08648318238556385040283203125" lon="0.01407422125339508056640625">
        <ele>432.20001220703125</ele>
        <time>2023-01-27T09:12:31.000Z</time>
      </trkpt>
      <trkpt lat="40.08647815324366092681884765625" lon="0.01410632394254207611083984375">
        <ele>432.399993896484375</ele>
        <time>2023-01-27T09:12:32.000Z</time>
      </trkpt>
      <trkpt lat="40.086472369730472564697265625" lon="0.01414068974554538726806640625">
        <ele>432.600006103515625</ele>
        <time>2023-01-27T09:12:33.000Z</time>
      </trkpt>
      <trkpt lat="40.0864658318459987640380859375" lon="0.0141727924346923828125">
        <ele>432.79998779296875</ele>
        <time>2023-01-27T09:12:34.000Z</time>
      </trkpt>
      <trkpt lat="40.08646138943731784820556640625" lon="0.0141967646777629852294921875">
        <ele>433.20001220703125</ele>
        <time>2023-01-27T09:12:35.000Z</time>
      </trkpt>
      <trkpt lat="40.0864483974874019622802734375" lon="0.0142143666744232177734375">
        <ele>433.600006103515625</ele>
        <time>2023-01-27T09:12:36.000Z</time>
      </trkpt>
      <trkpt lat="40.08643808774650096893310546875" lon="0.01424713991582393646240234375">
        <ele>433.79998779296875</ele>
        <time>2023-01-27T09:12:37.000Z</time>
      </trkpt>
      <trkpt lat="40.0864262692630290985107421875" lon="0.01428334973752498626708984375">
        <ele>434.20001220703125</ele>
        <time>2023-01-27T09:12:38.000Z</time>
      </trkpt>
      <trkpt lat="40.08640967309474945068359375" lon="0.0143270194530487060546875">
        <ele>434.20001220703125</ele>
        <time>2023-01-27T09:12:39.000Z</time>
      </trkpt>
      <trkpt lat="40.0864054821431636810302734375" lon="0.0143684260547161102294921875">
        <ele>434.399993896484375</ele>
        <time>2023-01-27T09:12:40.000Z</time>
      </trkpt>
      <trkpt lat="40.0863930769264698028564453125" lon="0.0143972598016262054443359375">
        <ele>434.600006103515625</ele>
        <time>2023-01-27T09:12:41.000Z</time>
      </trkpt>
      <trkpt lat="40.0863903947174549102783203125" lon="0.01442584209144115447998046875">
        <ele>434.79998779296875</ele>
        <time>2023-01-27T09:12:42.000Z</time>
      </trkpt>
      <trkpt lat="40.0863783247768878936767578125" lon="0.01445534639060497283935546875">
        <ele>435</ele>
        <time>2023-01-27T09:12:43.000Z</time>
      </trkpt>
      <trkpt lat="40.0863615609705448150634765625" lon="0.01448250375688076019287109375">
        <ele>435.399993896484375</ele>
        <time>2023-01-27T09:12:44.000Z</time>
      </trkpt>
      <trkpt lat="40.0863612256944179534912109375" lon="0.01449323259294033050537109375">
        <ele>435.600006103515625</ele>
        <time>2023-01-27T09:12:45.000Z</time>
      </trkpt>
      <trkpt lat="40.08635460399091243743896484375" lon="0.01451410353183746337890625">
        <ele>436</ele>
        <time>2023-01-27T09:12:46.000Z</time>
      </trkpt>
      <trkpt lat="40.0863414444029331207275390625" lon="0.014541931450366973876953125">
        <ele>436.600006103515625</ele>
        <time>2023-01-27T09:12:47.000Z</time>
      </trkpt>
      <trkpt lat="40.08632811717689037322998046875" lon="0.01456967554986476898193359375">
        <ele>436.79998779296875</ele>
        <time>2023-01-27T09:12:48.000Z</time>
      </trkpt>
      <trkpt lat="40.08631587959825992584228515625" lon="0.01459767110645771026611328125">
        <ele>437</ele>
        <time>2023-01-27T09:12:49.000Z</time>
      </trkpt>
      <trkpt lat="40.0863042287528514862060546875" lon="0.014624409377574920654296875">
        <ele>437.600006103515625</ele>
        <time>2023-01-27T09:12:50.000Z</time>
      </trkpt>
      <trkpt lat="40.0862934999167919158935546875" lon="0.014651231467723846435546875">
        <ele>438</ele>
        <time>2023-01-27T09:12:51.000Z</time>
      </trkpt>
      <trkpt lat="40.08628436364233493804931640625" lon="0.01467612572014331817626953125">
        <ele>438.20001220703125</ele>
        <time>2023-01-27T09:12:52.000Z</time>
      </trkpt>
      <trkpt lat="40.086273215711116790771484375" lon="0.0146986730396747589111328125">
        <ele>438.399993896484375</ele>
        <time>2023-01-27T09:12:53.000Z</time>
      </trkpt>
      <trkpt lat="40.08625603280961513519287109375" lon="0.01472574658691883087158203125">
        <ele>438.600006103515625</ele>
        <time>2023-01-27T09:12:54.000Z</time>
      </trkpt>
      <trkpt lat="40.08623893372714519500732421875" lon="0.01474904827773571014404296875">
        <ele>439</ele>
        <time>2023-01-27T09:12:55.000Z</time>
      </trkpt>
      <trkpt lat="40.08622133173048496246337890625" lon="0.01477302052080631256103515625">
        <ele>439</ele>
        <time>2023-01-27T09:12:56.000Z</time>
      </trkpt>
      <trkpt lat="40.0862038135528564453125" lon="0.01479850150644779205322265625">
        <ele>439.600006103515625</ele>
        <time>2023-01-27T09:12:57.000Z</time>
      </trkpt>
      <trkpt lat="40.08618411608040332794189453125" lon="0.01482230611145496368408203125">
        <ele>439.79998779296875</ele>
        <time>2023-01-27T09:12:58.000Z</time>
      </trkpt>
      <trkpt lat="40.08616751991212368011474609375" lon="0.0148488767445087432861328125">
        <ele>440.399993896484375</ele>
        <time>2023-01-27T09:12:59.000Z</time>
      </trkpt>
      <trkpt lat="40.08615125901997089385986328125" lon="0.01487486064434051513671875">
        <ele>440.600006103515625</ele>
        <time>2023-01-27T09:13:00.000Z</time>
      </trkpt>
      <trkpt lat="40.086135752499103546142578125" lon="0.014899335801601409912109375">
        <ele>441</ele>
        <time>2023-01-27T09:13:01.000Z</time>
      </trkpt>
      <trkpt lat="40.08611940778791904449462890625" lon="0.014926157891750335693359375">
        <ele>441</ele>
        <time>2023-01-27T09:13:02.000Z</time>
      </trkpt>
      <trkpt lat="40.0861027278006076812744140625" lon="0.01494954340159893035888671875">
        <ele>441.399993896484375</ele>
        <time>2023-01-27T09:13:03.000Z</time>
      </trkpt>
      <trkpt lat="40.08608219213783740997314453125" lon="0.01497167162597179412841796875">
        <ele>441.600006103515625</ele>
        <time>2023-01-27T09:13:04.000Z</time>
      </trkpt>
      <trkpt lat="40.08605897426605224609375" lon="0.01499078236520290374755859375">
        <ele>442</ele>
        <time>2023-01-27T09:13:05.000Z</time>
      </trkpt>
      <trkpt lat="40.08603542111814022064208984375" lon="0.0150108151137828826904296875">
        <ele>442.399993896484375</ele>
        <time>2023-01-27T09:13:06.000Z</time>
      </trkpt>
      <trkpt lat="40.08601748384535312652587890625" lon="0.01503436826169490814208984375">
        <ele>442.79998779296875</ele>
        <time>2023-01-27T09:13:07.000Z</time>
      </trkpt>
      <trkpt lat="40.0859987922012805938720703125" lon="0.01506387256085872650146484375">
        <ele>443</ele>
        <time>2023-01-27T09:13:08.000Z</time>
      </trkpt>
      <trkpt lat="40.08598093874752521514892578125" lon="0.0150887668132781982421875">
        <ele>443.20001220703125</ele>
        <time>2023-01-27T09:13:09.000Z</time>
      </trkpt>
      <trkpt lat="40.085965432226657867431640625" lon="0.01511449925601482391357421875">
        <ele>443.600006103515625</ele>
        <time>2023-01-27T09:13:10.000Z</time>
      </trkpt>
      <trkpt lat="40.08595495484769344329833984375" lon="0.0151415728032588958740234375">
        <ele>443.79998779296875</ele>
        <time>2023-01-27T09:13:11.000Z</time>
      </trkpt>
      <trkpt lat="40.085943639278411865234375" lon="0.01516713760793209075927734375">
        <ele>444.20001220703125</ele>
        <time>2023-01-27T09:13:12.000Z</time>
      </trkpt>
      <trkpt lat="40.08592980913817882537841796875" lon="0.01519815064966678619384765625">
        <ele>444.20001220703125</ele>
        <time>2023-01-27T09:13:13.000Z</time>
      </trkpt>
      <trkpt lat="40.0859127938747406005859375" lon="0.01522480510175228118896484375">
        <ele>444.79998779296875</ele>
        <time>2023-01-27T09:13:14.000Z</time>
      </trkpt>
      <trkpt lat="40.0858958624303340911865234375" lon="0.0152512080967426300048828125">
        <ele>445</ele>
        <time>2023-01-27T09:13:15.000Z</time>
      </trkpt>
      <trkpt lat="40.08588354103267192840576171875" lon="0.0152780301868915557861328125">
        <ele>445.20001220703125</ele>
        <time>2023-01-27T09:13:16.000Z</time>
      </trkpt>
      <trkpt lat="40.0858707167208194732666015625" lon="0.01530409790575504302978515625">
        <ele>445.399993896484375</ele>
        <time>2023-01-27T09:13:17.000Z</time>
      </trkpt>
      <trkpt lat="40.08585889823734760284423828125" lon="0.0153279863297939300537109375">
        <ele>445.79998779296875</ele>
        <time>2023-01-27T09:13:18.000Z</time>
      </trkpt>
      <trkpt lat="40.08584599010646343231201171875" lon="0.0153534673154354095458984375">
        <ele>446</ele>
        <time>2023-01-27T09:13:19.000Z</time>
      </trkpt>
      <trkpt lat="40.08583299815654754638671875" lon="0.01537911593914031982421875">
        <ele>446.20001220703125</ele>
        <time>2023-01-27T09:13:20.000Z</time>
      </trkpt>
      <trkpt lat="40.0858170725405216217041015625" lon="0.0154074467718601226806640625">
        <ele>446.20001220703125</ele>
        <time>2023-01-27T09:13:21.000Z</time>
      </trkpt>
      <trkpt lat="40.08580491878092288970947265625" lon="0.0154320895671844482421875">
        <ele>446.399993896484375</ele>
        <time>2023-01-27T09:13:22.000Z</time>
      </trkpt>
      <trkpt lat="40.0857915915548801422119140625" lon="0.01545564271509647369384765625">
        <ele>446.600006103515625</ele>
        <time>2023-01-27T09:13:23.000Z</time>
      </trkpt>
      <trkpt lat="40.0857778452336788177490234375" lon="0.01548212952911853790283203125">
        <ele>446.600006103515625</ele>
        <time>2023-01-27T09:13:24.000Z</time>
      </trkpt>
      <trkpt lat="40.08576552383601665496826171875" lon="0.0155083648860454559326171875">
        <ele>447</ele>
        <time>2023-01-27T09:13:25.000Z</time>
      </trkpt>
      <trkpt lat="40.08575395680963993072509765625" lon="0.015537030994892120361328125">
        <ele>447.20001220703125</ele>
        <time>2023-01-27T09:13:26.000Z</time>
      </trkpt>
      <trkpt lat="40.0857411324977874755859375" lon="0.01556544564664363861083984375">
        <ele>447.399993896484375</ele>
        <time>2023-01-27T09:13:27.000Z</time>
      </trkpt>
      <trkpt lat="40.0857275538146495819091796875" lon="0.01559478230774402618408203125">
        <ele>447.399993896484375</ele>
        <time>2023-01-27T09:13:28.000Z</time>
      </trkpt>
      <trkpt lat="40.08571355603635311126708984375" lon="0.01562294550240039825439453125">
        <ele>447.399993896484375</ele>
        <time>2023-01-27T09:13:29.000Z</time>
      </trkpt>
      <trkpt lat="40.08570299483835697174072265625" lon="0.0156508572399616241455078125">
        <ele>447.600006103515625</ele>
        <time>2023-01-27T09:13:30.000Z</time>
      </trkpt>
      <trkpt lat="40.0856933556497097015380859375" lon="0.0156833790242671966552734375">
        <ele>447.79998779296875</ele>
        <time>2023-01-27T09:13:31.000Z</time>
      </trkpt>
      <trkpt lat="40.08568187244236469268798828125" lon="0.0157182477414608001708984375">
        <ele>448</ele>
        <time>2023-01-27T09:13:32.000Z</time>
      </trkpt>
      <trkpt lat="40.08567382581532001495361328125" lon="0.01575672067701816558837890625">
        <ele>448.20001220703125</ele>
        <time>2023-01-27T09:13:33.000Z</time>
      </trkpt>
      <trkpt lat="40.08566544391214847564697265625" lon="0.01579209230840206146240234375">
        <ele>448.399993896484375</ele>
        <time>2023-01-27T09:13:34.000Z</time>
      </trkpt>
      <trkpt lat="40.0856571458280086517333984375" lon="0.01582578755915164947509765625">
        <ele>448.600006103515625</ele>
        <time>2023-01-27T09:13:35.000Z</time>
      </trkpt>
      <trkpt lat="40.085649602115154266357421875" lon="0.01585847698152065277099609375">
        <ele>448.600006103515625</ele>
        <time>2023-01-27T09:13:36.000Z</time>
      </trkpt>
      <trkpt lat="40.085643231868743896484375" lon="0.01589602790772914886474609375">
        <ele>448.79998779296875</ele>
        <time>2023-01-27T09:13:37.000Z</time>
      </trkpt>
      <trkpt lat="40.08563719689846038818359375" lon="0.015928633511066436767578125">
        <ele>449.20001220703125</ele>
        <time>2023-01-27T09:13:38.000Z</time>
      </trkpt>
      <trkpt lat="40.0856266357004642486572265625" lon="0.01596040092408657073974609375">
        <ele>449.399993896484375</ele>
        <time>2023-01-27T09:13:39.000Z</time>
      </trkpt>
      <trkpt lat="40.08561481721699237823486328125" lon="0.01599602401256561279296875">
        <ele>449.600006103515625</ele>
        <time>2023-01-27T09:13:40.000Z</time>
      </trkpt>
      <trkpt lat="40.08560392074286937713623046875" lon="0.01602594740688800811767578125">
        <ele>449.399993896484375</ele>
        <time>2023-01-27T09:13:41.000Z</time>
      </trkpt>
      <trkpt lat="40.08559503592550754547119140625" lon="0.0160575471818447113037109375">
        <ele>449.600006103515625</ele>
        <time>2023-01-27T09:13:42.000Z</time>
      </trkpt>
      <trkpt lat="40.08558263070881366729736328125" lon="0.01608780585229396820068359375">
        <ele>449.600006103515625</ele>
        <time>2023-01-27T09:13:43.000Z</time>
      </trkpt>
      <trkpt lat="40.0855682976543903350830078125" lon="0.01611764542758464813232421875">
        <ele>449.79998779296875</ele>
        <time>2023-01-27T09:13:44.000Z</time>
      </trkpt>
      <trkpt lat="40.0855508632957935333251953125" lon="0.01614899374544620513916015625">
        <ele>450</ele>
        <time>2023-01-27T09:13:45.000Z</time>
      </trkpt>
      <trkpt lat="40.0855351053178310394287109375" lon="0.0161815993487834930419921875">
        <ele>450</ele>
        <time>2023-01-27T09:13:46.000Z</time>
      </trkpt>
      <trkpt lat="40.08551574312150478363037109375" lon="0.01621923409402370452880859375">
        <ele>450</ele>
        <time>2023-01-27T09:13:47.000Z</time>
      </trkpt>
      <trkpt lat="40.08549428544938564300537109375" lon="0.01625728793442249298095703125">
        <ele>450.20001220703125</ele>
        <time>2023-01-27T09:13:48.000Z</time>
      </trkpt>
      <trkpt lat="40.08547182194888591766357421875" lon="0.01629240810871124267578125">
        <ele>450.20001220703125</ele>
        <time>2023-01-27T09:13:49.000Z</time>
      </trkpt>
      <trkpt lat="40.08544852025806903839111328125" lon="0.01632769592106342315673828125">
        <ele>450.399993896484375</ele>
        <time>2023-01-27T09:13:50.000Z</time>
      </trkpt>
      <trkpt lat="40.08542530238628387451171875" lon="0.01636189408600330352783203125">
        <ele>450.399993896484375</ele>
        <time>2023-01-27T09:13:51.000Z</time>
      </trkpt>
      <trkpt lat="40.08540208451449871063232421875" lon="0.01639357767999172210693359375">
        <ele>450.600006103515625</ele>
        <time>2023-01-27T09:13:52.000Z</time>
      </trkpt>
      <trkpt lat="40.08537895046174526214599609375" lon="0.016422159969806671142578125">
        <ele>451</ele>
        <time>2023-01-27T09:13:53.000Z</time>
      </trkpt>
      <trkpt lat="40.08535531349480152130126953125" lon="0.01645124517381191253662109375">
        <ele>451.20001220703125</ele>
        <time>2023-01-27T09:13:54.000Z</time>
      </trkpt>
      <trkpt lat="40.08532782085239887237548828125" lon="0.016475804150104522705078125">
        <ele>451.399993896484375</ele>
        <time>2023-01-27T09:13:55.000Z</time>
      </trkpt>
      <trkpt lat="40.085302926599979400634765625" lon="0.01649851910769939422607421875">
        <ele>451.399993896484375</ele>
        <time>2023-01-27T09:13:56.000Z</time>
      </trkpt>
      <trkpt lat="40.08527836762368679046630859375" lon="0.016519390046596527099609375">
        <ele>451.600006103515625</ele>
        <time>2023-01-27T09:13:57.000Z</time>
      </trkpt>
      <trkpt lat="40.0852521322667598724365234375" lon="0.0165413506329059600830078125">
        <ele>451.600006103515625</ele>
        <time>2023-01-27T09:13:58.000Z</time>
      </trkpt>
      <trkpt lat="40.08522279560565948486328125" lon="0.0165611319243907928466796875">
        <ele>451.79998779296875</ele>
        <time>2023-01-27T09:13:59.000Z</time>
      </trkpt>
      <trkpt lat="40.0851914472877979278564453125" lon="0.01657194457948207855224609375">
        <ele>451.79998779296875</ele>
        <time>2023-01-27T09:14:00.000Z</time>
      </trkpt>
      <trkpt lat="40.08516353555023670196533203125" lon="0.01657730899751186370849609375">
        <ele>451.79998779296875</ele>
        <time>2023-01-27T09:14:01.000Z</time>
      </trkpt>
      <trkpt lat="40.08513989858329296112060546875" lon="0.01658074557781219482421875">
        <ele>451.79998779296875</ele>
        <time>2023-01-27T09:14:02.000Z</time>
      </trkpt>
      <trkpt lat="40.08512028492987155914306640625" lon="0.016586445271968841552734375">
        <ele>451.79998779296875</ele>
        <time>2023-01-27T09:14:03.000Z</time>
      </trkpt>
      <trkpt lat="40.08510083891451358795166015625" lon="0.01659356988966464996337890625">
        <ele>451.600006103515625</ele>
        <time>2023-01-27T09:14:04.000Z</time>
      </trkpt>
      <trkpt lat="40.085074268281459808349609375" lon="0.0165963359177112579345703125">
        <ele>451.600006103515625</ele>
        <time>2023-01-27T09:14:05.000Z</time>
      </trkpt>
      <trkpt lat="40.08504887111485004425048828125" lon="0.0165886245667934417724609375">
        <ele>451.600006103515625</ele>
        <time>2023-01-27T09:14:06.000Z</time>
      </trkpt>
      <trkpt lat="40.085020959377288818359375" lon="0.01656875945627689361572265625">
        <ele>451.600006103515625</ele>
        <time>2023-01-27T09:14:07.000Z</time>
      </trkpt>
      <trkpt lat="40.08499749004840850830078125" lon="0.0165410153567790985107421875">
        <ele>451.600006103515625</ele>
        <time>2023-01-27T09:14:08.000Z</time>
      </trkpt>
      <trkpt lat="40.0849785469472408294677734375" lon="0.016503632068634033203125">
        <ele>451.600006103515625</ele>
        <time>2023-01-27T09:14:09.000Z</time>
      </trkpt>
      <trkpt lat="40.08496706373989582061767578125" lon="0.0164593756198883056640625">
        <ele>451.600006103515625</ele>
        <time>2023-01-27T09:14:10.000Z</time>
      </trkpt>
      <trkpt lat="40.0849664770066738128662109375" lon="0.0164136104285717010498046875">
        <ele>451.600006103515625</ele>
        <time>2023-01-27T09:14:11.000Z</time>
      </trkpt>
      <trkpt lat="40.085005871951580047607421875" lon="0.0162925757467746734619140625">
        <ele>452.20001220703125</ele>
        <time>2023-01-27T09:14:14.000Z</time>
      </trkpt>
      <trkpt lat="40.0850271619856357574462890625" lon="0.01625661738216876983642578125">
        <ele>452.20001220703125</ele>
        <time>2023-01-27T09:14:15.000Z</time>
      </trkpt>
      <trkpt lat="40.0850536487996578216552734375" lon="0.01622241921722888946533203125">
        <ele>452.600006103515625</ele>
        <time>2023-01-27T09:14:16.000Z</time>
      </trkpt>
      <trkpt lat="40.085074938833713531494140625" lon="0.01619584858417510986328125">
        <ele>452.600006103515625</ele>
        <time>2023-01-27T09:14:17.000Z</time>
      </trkpt>
      <trkpt lat="40.08515146560966968536376953125" lon="0.016090236604213714599609375">
        <ele>453.20001220703125</ele>
        <time>2023-01-27T09:14:20.000Z</time>
      </trkpt>
      <trkpt lat="40.08522422052919864654541015625" lon="0.01592787913978099822998046875">
        <ele>454.20001220703125</ele>
        <time>2023-01-27T09:14:24.000Z</time>
      </trkpt>
      <trkpt lat="40.085240565240383148193359375" lon="0.01587876118719577789306640625">
        <ele>454.399993896484375</ele>
        <time>2023-01-27T09:14:25.000Z</time>
      </trkpt>
      <trkpt lat="40.085255317389965057373046875" lon="0.01582830213010311126708984375">
        <ele>454.600006103515625</ele>
        <time>2023-01-27T09:14:26.000Z</time>
      </trkpt>
      <trkpt lat="40.08526529185473918914794921875" lon="0.01577683724462985992431640625">
        <ele>454.600006103515625</ele>
        <time>2023-01-27T09:14:27.000Z</time>
      </trkpt>
      <trkpt lat="40.0852732546627521514892578125" lon="0.01572243869304656982421875">
        <ele>454.79998779296875</ele>
        <time>2023-01-27T09:14:28.000Z</time>
      </trkpt>
      <trkpt lat="40.08527912199497222900390625" lon="0.0156686268746852874755859375">
        <ele>454.79998779296875</ele>
        <time>2023-01-27T09:14:29.000Z</time>
      </trkpt>
      <trkpt lat="40.08528356440365314483642578125" lon="0.01561774872243404388427734375">
        <ele>455</ele>
        <time>2023-01-27T09:14:30.000Z</time>
      </trkpt>
      <trkpt lat="40.0852870009839534759521484375" lon="0.0155673734843730926513671875">
        <ele>455.399993896484375</ele>
        <time>2023-01-27T09:14:31.000Z</time>
      </trkpt>
      <trkpt lat="40.085290186107158660888671875" lon="0.01551666297018527984619140625">
        <ele>455.399993896484375</ele>
        <time>2023-01-27T09:14:32.000Z</time>
      </trkpt>
      <trkpt lat="40.08529211394488811492919921875" lon="0.01546469517052173614501953125">
        <ele>455.600006103515625</ele>
        <time>2023-01-27T09:14:33.000Z</time>
      </trkpt>
      <trkpt lat="40.08530032820999622344970703125" lon="0.01540870405733585357666015625">
        <ele>455.79998779296875</ele>
        <time>2023-01-27T09:14:34.000Z</time>
      </trkpt>
      <trkpt lat="40.085307620465755462646484375" lon="0.0153534673154354095458984375">
        <ele>456</ele>
        <time>2023-01-27T09:14:35.000Z</time>
      </trkpt>
      <trkpt lat="40.08531508035957813262939453125" lon="0.01530191861093044281005859375">
        <ele>456.20001220703125</ele>
        <time>2023-01-27T09:14:36.000Z</time>
      </trkpt>
      <trkpt lat="40.08531868457794189453125" lon="0.0152508728206157684326171875">
        <ele>456.20001220703125</ele>
        <time>2023-01-27T09:14:37.000Z</time>
      </trkpt>
      <trkpt lat="40.0853240489959716796875" lon="0.0151982344686985015869140625">
        <ele>456.399993896484375</ele>
        <time>2023-01-27T09:14:38.000Z</time>
      </trkpt>
      <trkpt lat="40.08533167652785778045654296875" lon="0.01514601521193981170654296875">
        <ele>456.399993896484375</ele>
        <time>2023-01-27T09:14:39.000Z</time>
      </trkpt>
      <trkpt lat="40.0853419862687587738037109375" lon="0.0150976516306400299072265625">
        <ele>456.399993896484375</ele>
        <time>2023-01-27T09:14:40.000Z</time>
      </trkpt>
      <trkpt lat="40.08535229600965976715087890625" lon="0.01505046151578426361083984375">
        <ele>456.600006103515625</ele>
        <time>2023-01-27T09:14:41.000Z</time>
      </trkpt>
      <trkpt lat="40.0853617675602436065673828125" lon="0.01500452868640422821044921875">
        <ele>456.79998779296875</ele>
        <time>2023-01-27T09:14:42.000Z</time>
      </trkpt>
      <trkpt lat="40.0853704847395420074462890625" lon="0.014955997467041015625">
        <ele>457</ele>
        <time>2023-01-27T09:14:43.000Z</time>
      </trkpt>
      <trkpt lat="40.0853792019188404083251953125" lon="0.01490746624767780303955078125">
        <ele>457.600006103515625</ele>
        <time>2023-01-27T09:14:44.000Z</time>
      </trkpt>
      <trkpt lat="40.0853875838220119476318359375" lon="0.0148629583418369293212890625">
        <ele>457.600006103515625</ele>
        <time>2023-01-27T09:14:45.000Z</time>
      </trkpt>
      <trkpt lat="40.0853936187922954559326171875" lon="0.01481710933148860931396484375">
        <ele>457.79998779296875</ele>
        <time>2023-01-27T09:14:46.000Z</time>
      </trkpt>
      <trkpt lat="40.0854023359715938568115234375" lon="0.014769248664379119873046875">
        <ele>458</ele>
        <time>2023-01-27T09:14:47.000Z</time>
      </trkpt>
      <trkpt lat="40.085410214960575103759765625" lon="0.01472465693950653076171875">
        <ele>458.20001220703125</ele>
        <time>2023-01-27T09:14:48.000Z</time>
      </trkpt>
      <trkpt lat="40.08541683666408061981201171875" lon="0.01467964611947536468505859375">
        <ele>458.399993896484375</ele>
        <time>2023-01-27T09:14:49.000Z</time>
      </trkpt>
      <trkpt lat="40.0854221172630786895751953125" lon="0.0146346352994441986083984375">
        <ele>458.600006103515625</ele>
        <time>2023-01-27T09:14:50.000Z</time>
      </trkpt>
      <trkpt lat="40.0854271464049816131591796875" lon="0.0145984254777431488037109375">
        <ele>458.600006103515625</ele>
        <time>2023-01-27T09:14:51.000Z</time>
      </trkpt>
      <trkpt lat="40.08544064126908779144287109375" lon="0.0145457871258258819580078125">
        <ele>459.20001220703125</ele>
        <time>2023-01-27T09:14:52.000Z</time>
      </trkpt>
      <trkpt lat="40.08545321412384510040283203125" lon="0.01450262032449245452880859375">
        <ele>459.600006103515625</ele>
        <time>2023-01-27T09:14:53.000Z</time>
      </trkpt>
      <trkpt lat="40.08546528406441211700439453125" lon="0.01445987261831760406494140625">
        <ele>459.79998779296875</ele>
        <time>2023-01-27T09:14:54.000Z</time>
      </trkpt>
      <trkpt lat="40.085471570491790771484375" lon="0.01442785374820232391357421875">
        <ele>460</ele>
        <time>2023-01-27T09:14:55.000Z</time>
      </trkpt>
      <trkpt lat="40.085477940738201141357421875" lon="0.01438158564269542694091796875">
        <ele>460.20001220703125</ele>
        <time>2023-01-27T09:14:56.000Z</time>
      </trkpt>
      <trkpt lat="40.0854814611375331878662109375" lon="0.014339424669742584228515625">
        <ele>460.399993896484375</ele>
        <time>2023-01-27T09:14:57.000Z</time>
      </trkpt>
      <trkpt lat="40.085487328469753265380859375" lon="0.01429659314453601837158203125">
        <ele>460.600006103515625</ele>
        <time>2023-01-27T09:14:58.000Z</time>
      </trkpt>
      <trkpt lat="40.0854890048503875732421875" lon="0.01425351016223430633544921875">
        <ele>461</ele>
        <time>2023-01-27T09:14:59.000Z</time>
      </trkpt>
      <trkpt lat="40.08549059741199016571044921875" lon="0.01421059481799602508544921875">
        <ele>461</ele>
        <time>2023-01-27T09:15:00.000Z</time>
      </trkpt>
      <trkpt lat="40.08549478836357593536376953125" lon="0.014164745807647705078125">
        <ele>461.20001220703125</ele>
        <time>2023-01-27T09:15:01.000Z</time>
      </trkpt>
      <trkpt lat="40.08549814112484455108642578125" lon="0.01411889679729938507080078125">
        <ele>461.399993896484375</ele>
        <time>2023-01-27T09:15:02.000Z</time>
      </trkpt>
      <trkpt lat="40.085497386753559112548828125" lon="0.0140804238617420196533203125">
        <ele>461.79998779296875</ele>
        <time>2023-01-27T09:15:03.000Z</time>
      </trkpt>
      <trkpt lat="40.0854948721826076507568359375" lon="0.01404337584972381591796875">
        <ele>462</ele>
        <time>2023-01-27T09:15:04.000Z</time>
      </trkpt>
      <trkpt lat="40.0854918546974658966064453125" lon="0.01400406472384929656982421875">
        <ele>462.20001220703125</ele>
        <time>2023-01-27T09:15:05.000Z</time>
      </trkpt>
      <trkpt lat="40.085486657917499542236328125" lon="0.0139674358069896697998046875">
        <ele>462.399993896484375</ele>
        <time>2023-01-27T09:15:06.000Z</time>
      </trkpt>
      <trkpt lat="40.0854777731001377105712890625" lon="0.01393139362335205078125">
        <ele>462.399993896484375</ele>
        <time>2023-01-27T09:15:07.000Z</time>
      </trkpt>
      <trkpt lat="40.0854670442640781402587890625" lon="0.01390180550515651702880859375">
        <ele>462.600006103515625</ele>
        <time>2023-01-27T09:15:08.000Z</time>
      </trkpt>
      <trkpt lat="40.0854546390473842620849609375" lon="0.0138705410063266754150390625">
        <ele>462.79998779296875</ele>
        <time>2023-01-27T09:15:09.000Z</time>
      </trkpt>
      <trkpt lat="40.08544064126908779144287109375" lon="0.0138361752033233642578125">
        <ele>463</ele>
        <time>2023-01-27T09:15:10.000Z</time>
      </trkpt>
      <trkpt lat="40.08542706258594989776611328125" lon="0.01380239613354206085205078125">
        <ele>463.20001220703125</ele>
        <time>2023-01-27T09:15:11.000Z</time>
      </trkpt>
      <trkpt lat="40.08541055023670196533203125" lon="0.01377322711050510406494140625">
        <ele>463.600006103515625</ele>
        <time>2023-01-27T09:15:12.000Z</time>
      </trkpt>
      <trkpt lat="40.08539085276424884796142578125" lon="0.01374690793454647064208984375">
        <ele>463.79998779296875</ele>
        <time>2023-01-27T09:15:13.000Z</time>
      </trkpt>
      <trkpt lat="40.08536838926374912261962890625" lon="0.0137221813201904296875">
        <ele>464.20001220703125</ele>
        <time>2023-01-27T09:15:14.000Z</time>
      </trkpt>
      <trkpt lat="40.0853463448584079742431640625" lon="0.01370063982903957366943359375">
        <ele>464.600006103515625</ele>
        <time>2023-01-27T09:15:15.000Z</time>
      </trkpt>
      <trkpt lat="40.08532295934855937957763671875" lon="0.01368085853755474090576171875">
        <ele>464.79998779296875</ele>
        <time>2023-01-27T09:15:16.000Z</time>
      </trkpt>
      <trkpt lat="40.08529898710548877716064453125" lon="0.01365722157061100006103515625">
        <ele>465</ele>
        <time>2023-01-27T09:15:17.000Z</time>
      </trkpt>
      <trkpt lat="40.0852779485285282135009765625" lon="0.013640038669109344482421875">
        <ele>465.20001220703125</ele>
        <time>2023-01-27T09:15:18.000Z</time>
      </trkpt>
      <trkpt lat="40.085249282419681549072265625" lon="0.0136261247098445892333984375">
        <ele>465.399993896484375</ele>
        <time>2023-01-27T09:15:19.000Z</time>
      </trkpt>
      <trkpt lat="40.08521399460732936859130859375" lon="0.0136160664260387420654296875">
        <ele>465.79998779296875</ele>
        <time>2023-01-27T09:15:20.000Z</time>
      </trkpt>
      <trkpt lat="40.08518298156559467315673828125" lon="0.01360709778964519500732421875">
        <ele>466</ele>
        <time>2023-01-27T09:15:21.000Z</time>
      </trkpt>
      <trkpt lat="40.08515783585608005523681640625" lon="0.0136033259332180023193359375">
        <ele>466.399993896484375</ele>
        <time>2023-01-27T09:15:22.000Z</time>
      </trkpt>
      <trkpt lat="40.085128247737884521484375" lon="0.0135972909629344940185546875">
        <ele>466.79998779296875</ele>
        <time>2023-01-27T09:15:23.000Z</time>
      </trkpt>
      <trkpt lat="40.08509933017194271087646484375" lon="0.01359519548714160919189453125">
        <ele>467</ele>
        <time>2023-01-27T09:15:24.000Z</time>
      </trkpt>
      <trkpt lat="40.08506211452186107635498046875" lon="0.01360206864774227142333984375">
        <ele>467.399993896484375</ele>
        <time>2023-01-27T09:15:25.000Z</time>
      </trkpt>
      <trkpt lat="40.085030011832714080810546875" lon="0.01360843889415264129638671875">
        <ele>467.399993896484375</ele>
        <time>2023-01-27T09:15:26.000Z</time>
      </trkpt>
      <trkpt lat="40.08499908261001110076904296875" lon="0.0136177428066730499267578125">
        <ele>467.79998779296875</ele>
        <time>2023-01-27T09:15:27.000Z</time>
      </trkpt>
      <trkpt lat="40.08497443981468677520751953125" lon="0.01362771727144718170166015625">
        <ele>468</ele>
        <time>2023-01-27T09:15:28.000Z</time>
      </trkpt>
      <trkpt lat="40.0849440135061740875244140625" lon="0.0136418826878070831298828125">
        <ele>468.399993896484375</ele>
        <time>2023-01-27T09:15:29.000Z</time>
      </trkpt>
      <trkpt lat="40.08491165935993194580078125" lon="0.01365738920867443084716796875">
        <ele>468.399993896484375</ele>
        <time>2023-01-27T09:15:30.000Z</time>
      </trkpt>
      <trkpt lat="40.08488290943205356597900390625" lon="0.0136720575392246246337890625">
        <ele>468.79998779296875</ele>
        <time>2023-01-27T09:15:31.000Z</time>
      </trkpt>
      <trkpt lat="40.08485944010317325592041015625" lon="0.01368773169815540313720703125">
        <ele>469</ele>
        <time>2023-01-27T09:15:32.000Z</time>
      </trkpt>
      <trkpt lat="40.084830857813358306884765625" lon="0.01370550133287906646728515625">
        <ele>469.20001220703125</ele>
        <time>2023-01-27T09:15:33.000Z</time>
      </trkpt>
      <trkpt lat="40.0847998447716236114501953125" lon="0.01372729428112506866455078125">
        <ele>469.399993896484375</ele>
        <time>2023-01-27T09:15:34.000Z</time>
      </trkpt>
      <trkpt lat="40.08476874791085720062255859375" lon="0.013746321201324462890625">
        <ele>469.20001220703125</ele>
        <time>2023-01-27T09:15:35.000Z</time>
      </trkpt>
      <trkpt lat="40.08473622612655162811279296875" lon="0.01376568339765071868896484375">
        <ele>469.399993896484375</ele>
        <time>2023-01-27T09:15:36.000Z</time>
      </trkpt>
      <trkpt lat="40.0847049616277217864990234375" lon="0.013783872127532958984375">
        <ele>469.600006103515625</ele>
        <time>2023-01-27T09:15:37.000Z</time>
      </trkpt>
      <trkpt lat="40.08467554114758968353271484375" lon="0.013800971210002899169921875">
        <ele>469.79998779296875</ele>
        <time>2023-01-27T09:15:38.000Z</time>
      </trkpt>
      <trkpt lat="40.084644444286823272705078125" lon="0.01382343471050262451171875">
        <ele>469.79998779296875</ele>
        <time>2023-01-27T09:15:39.000Z</time>
      </trkpt>
      <trkpt lat="40.0846047140657901763916015625" lon="0.0138474069535732269287109375">
        <ele>470</ele>
        <time>2023-01-27T09:15:40.000Z</time>
      </trkpt>
      <trkpt lat="40.08457445539534091949462890625" lon="0.01386324875056743621826171875">
        <ele>470.20001220703125</ele>
        <time>2023-01-27T09:15:41.000Z</time>
      </trkpt>
      <trkpt lat="40.08455098606646060943603515625" lon="0.0138735584914684295654296875">
        <ele>470.600006103515625</ele>
        <time>2023-01-27T09:15:42.000Z</time>
      </trkpt>
      <trkpt lat="40.08451863192021846771240234375" lon="0.01388789154589176177978515625">
        <ele>470.79998779296875</ele>
        <time>2023-01-27T09:15:43.000Z</time>
      </trkpt>
      <trkpt lat="40.0844830088317394256591796875" lon="0.0139067508280277252197265625">
        <ele>471.20001220703125</ele>
        <time>2023-01-27T09:15:44.000Z</time>
      </trkpt>
      <trkpt lat="40.08445409126579761505126953125" lon="0.0139245204627513885498046875">
        <ele>471.20001220703125</ele>
        <time>2023-01-27T09:15:45.000Z</time>
      </trkpt>
      <trkpt lat="40.08442475460469722747802734375" lon="0.0139365904033184051513671875">
        <ele>471.600006103515625</ele>
        <time>2023-01-27T09:15:46.000Z</time>
      </trkpt>
      <trkpt lat="40.0844008661806583404541015625" lon="0.01394539140164852142333984375">
        <ele>471.600006103515625</ele>
        <time>2023-01-27T09:15:47.000Z</time>
      </trkpt>
      <trkpt lat="40.08436809293925762176513671875" lon="0.0139583833515644073486328125">
        <ele>472</ele>
        <time>2023-01-27T09:15:48.000Z</time>
      </trkpt>
      <trkpt lat="40.0843321345746517181396484375" lon="0.01397003419697284698486328125">
        <ele>472</ele>
        <time>2023-01-27T09:15:49.000Z</time>
      </trkpt>
      <trkpt lat="40.084302127361297607421875" lon="0.01397925429046154022216796875">
        <ele>472.20001220703125</ele>
        <time>2023-01-27T09:15:50.000Z</time>
      </trkpt>
      <trkpt lat="40.0842714495956897735595703125" lon="0.01398579217493534088134765625">
        <ele>472.399993896484375</ele>
        <time>2023-01-27T09:15:51.000Z</time>
      </trkpt>
      <trkpt lat="40.0842417776584625244140625" lon="0.01399031840264797210693359375">
        <ele>472.600006103515625</ele>
        <time>2023-01-27T09:15:52.000Z</time>
      </trkpt>
      <trkpt lat="40.08421235717833042144775390625" lon="0.01399643719196319580078125">
        <ele>472.600006103515625</ele>
        <time>2023-01-27T09:15:53.000Z</time>
      </trkpt>
      <trkpt lat="40.084182433784008026123046875" lon="0.01399953849613666534423828125">
        <ele>473</ele>
        <time>2023-01-27T09:15:54.000Z</time>
      </trkpt>
      <trkpt lat="40.0841527618467807769775390625" lon="0.01400121487677097320556640625">
        <ele>473.399993896484375</ele>
        <time>2023-01-27T09:15:55.000Z</time>
      </trkpt>
      <trkpt lat="40.0841232575476169586181640625" lon="0.0140036456286907196044921875">
        <ele>473.600006103515625</ele>
        <time>2023-01-27T09:15:56.000Z</time>
      </trkpt>
      <trkpt lat="40.0840954296290874481201171875" lon="0.0140024721622467041015625">
        <ele>473.600006103515625</ele>
        <time>2023-01-27T09:15:57.000Z</time>
      </trkpt>
      <trkpt lat="40.08406818844377994537353515625" lon="0.01400255598127841949462890625">
        <ele>473.79998779296875</ele>
        <time>2023-01-27T09:15:58.000Z</time>
      </trkpt>
      <trkpt lat="40.08404262363910675048828125" lon="0.013998784124851226806640625">
        <ele>473.79998779296875</ele>
        <time>2023-01-27T09:15:59.000Z</time>
      </trkpt>
      <trkpt lat="40.08401772938668727874755859375" lon="0.01399450935423374176025390625">
        <ele>473.79998779296875</ele>
        <time>2023-01-27T09:16:00.000Z</time>
      </trkpt>
      <trkpt lat="40.08399224840104579925537109375" lon="0.013988055288791656494140625">
        <ele>474.20001220703125</ele>
        <time>2023-01-27T09:16:01.000Z</time>
      </trkpt>
      <trkpt lat="40.08396374993026256561279296875" lon="0.01398294232785701751708984375">
        <ele>474.20001220703125</ele>
        <time>2023-01-27T09:16:02.000Z</time>
      </trkpt>
      <trkpt lat="40.0839386880397796630859375" lon="0.01397321932017803192138671875">
        <ele>474.600006103515625</ele>
        <time>2023-01-27T09:16:03.000Z</time>
      </trkpt>
      <trkpt lat="40.08391228504478931427001953125" lon="0.01396198756992816925048828125">
        <ele>474.600006103515625</ele>
        <time>2023-01-27T09:16:04.000Z</time>
      </trkpt>
      <trkpt lat="40.0838850438594818115234375" lon="0.01395109109580516815185546875">
        <ele>475</ele>
        <time>2023-01-27T09:16:05.000Z</time>
      </trkpt>
      <trkpt lat="40.0838582217693328857421875" lon="0.01394472084939479827880859375">
        <ele>475.399993896484375</ele>
        <time>2023-01-27T09:16:06.000Z</time>
      </trkpt>
      <trkpt lat="40.08383567444980144500732421875" lon="0.01393876969814300537109375">
        <ele>476</ele>
        <time>2023-01-27T09:16:07.000Z</time>
      </trkpt>
      <trkpt lat="40.08380348794162273406982421875" lon="0.01392728649079799652099609375">
        <ele>476.20001220703125</ele>
        <time>2023-01-27T09:16:08.000Z</time>
      </trkpt>
      <trkpt lat="40.08378387428820133209228515625" lon="0.013904571533203125">
        <ele>476.600006103515625</ele>
        <time>2023-01-27T09:16:09.000Z</time>
      </trkpt>
      <trkpt lat="40.08376593701541423797607421875" lon="0.01388973556458950042724609375">
        <ele>477</ele>
        <time>2023-01-27T09:16:10.000Z</time>
      </trkpt>
      <trkpt lat="40.08374431170523166656494140625" lon="0.01387330703437328338623046875">
        <ele>477</ele>
        <time>2023-01-27T09:16:11.000Z</time>
      </trkpt>
      <trkpt lat="40.08372235111892223358154296875" lon="0.01385889016091823577880859375">
        <ele>477.399993896484375</ele>
        <time>2023-01-27T09:16:12.000Z</time>
      </trkpt>
      <trkpt lat="40.08370340801775455474853515625" lon="0.01384329982101917266845703125">
        <ele>477.600006103515625</ele>
        <time>2023-01-27T09:16:13.000Z</time>
      </trkpt>
      <trkpt lat="40.08367993868887424468994140625" lon="0.013816058635711669921875">
        <ele>477.79998779296875</ele>
        <time>2023-01-27T09:16:14.000Z</time>
      </trkpt>
      <trkpt lat="40.0836632587015628814697265625" lon="0.013796947896480560302734375">
        <ele>478</ele>
        <time>2023-01-27T09:16:15.000Z</time>
      </trkpt>
      <trkpt lat="40.08363903500139713287353515625" lon="0.01378010027110576629638671875">
        <ele>478.20001220703125</ele>
        <time>2023-01-27T09:16:16.000Z</time>
      </trkpt>
      <trkpt lat="40.08361271582543849945068359375" lon="0.0137650966644287109375">
        <ele>478.399993896484375</ele>
        <time>2023-01-27T09:16:17.000Z</time>
      </trkpt>
      <trkpt lat="40.08358790539205074310302734375" lon="0.01374942250549793243408203125">
        <ele>478.79998779296875</ele>
        <time>2023-01-27T09:16:18.000Z</time>
      </trkpt>
      <trkpt lat="40.08356577716767787933349609375" lon="0.01373316161334514617919921875">
        <ele>479</ele>
        <time>2023-01-27T09:16:19.000Z</time>
      </trkpt>
      <trkpt lat="40.0835390388965606689453125" lon="0.01370885409414768218994140625">
        <ele>479.20001220703125</ele>
        <time>2023-01-27T09:16:20.000Z</time>
      </trkpt>
      <trkpt lat="40.083518587052822113037109375" lon="0.0136871449649333953857421875">
        <ele>479.399993896484375</ele>
        <time>2023-01-27T09:16:21.000Z</time>
      </trkpt>
      <trkpt lat="40.08349754847586154937744140625" lon="0.01366308890283107757568359375">
        <ele>479.79998779296875</ele>
        <time>2023-01-27T09:16:22.000Z</time>
      </trkpt>
      <trkpt lat="40.08347994647920131683349609375" lon="0.01363391987979412078857421875">
        <ele>479.79998779296875</ele>
        <time>2023-01-27T09:16:23.000Z</time>
      </trkpt>
      <trkpt lat="40.08346100337803363800048828125" lon="0.01360491849482059478759765625">
        <ele>480.20001220703125</ele>
        <time>2023-01-27T09:16:24.000Z</time>
      </trkpt>
      <trkpt lat="40.08344356901943683624267578125" lon="0.0135731510818004608154296875">
        <ele>480.399993896484375</ele>
        <time>2023-01-27T09:16:25.000Z</time>
      </trkpt>
      <trkpt lat="40.08343216963112354278564453125" lon="0.013538785278797149658203125">
        <ele>481</ele>
        <time>2023-01-27T09:16:26.000Z</time>
      </trkpt>
      <trkpt lat="40.083427727222442626953125" lon="0.0135000608861446380615234375">
        <ele>481.399993896484375</ele>
        <time>2023-01-27T09:16:27.000Z</time>
      </trkpt>
      <trkpt lat="40.083422698080539703369140625" lon="0.01346670091152191162109375">
        <ele>481.399993896484375</ele>
        <time>2023-01-27T09:16:28.000Z</time>
      </trkpt>
      <trkpt lat="40.0834144838154315948486328125" lon="0.0134333409368991851806640625">
        <ele>481.79998779296875</ele>
        <time>2023-01-27T09:16:29.000Z</time>
      </trkpt>
      <trkpt lat="40.083411633968353271484375" lon="0.01340073533356189727783203125">
        <ele>482</ele>
        <time>2023-01-27T09:16:30.000Z</time>
      </trkpt>
      <trkpt lat="40.083414651453495025634765625" lon="0.01336880028247833251953125">
        <ele>482.399993896484375</ele>
        <time>2023-01-27T09:16:31.000Z</time>
      </trkpt>
      <trkpt lat="40.08341792039573192596435546875" lon="0.013334937393665313720703125">
        <ele>482.600006103515625</ele>
        <time>2023-01-27T09:16:32.000Z</time>
      </trkpt>
      <trkpt lat="40.083422362804412841796875" lon="0.013300739228725433349609375">
        <ele>483</ele>
        <time>2023-01-27T09:16:33.000Z</time>
      </trkpt>
      <trkpt lat="40.0834295712411403656005859375" lon="0.01326595433056354522705078125">
        <ele>483.20001220703125</ele>
        <time>2023-01-27T09:16:34.000Z</time>
      </trkpt>
      <trkpt lat="40.08344046771526336669921875" lon="0.01323360018432140350341796875">
        <ele>483.399993896484375</ele>
        <time>2023-01-27T09:16:35.000Z</time>
      </trkpt>
      <trkpt lat="40.08345027454197406768798828125" lon="0.01320116221904754638671875">
        <ele>483.600006103515625</ele>
        <time>2023-01-27T09:16:36.000Z</time>
      </trkpt>
      <trkpt lat="40.08345597423613071441650390625" lon="0.01317358575761318206787109375">
        <ele>484</ele>
        <time>2023-01-27T09:16:37.000Z</time>
      </trkpt>
      <trkpt lat="40.0834620930254459381103515625" lon="0.01314290799200534820556640625">
        <ele>484.20001220703125</ele>
        <time>2023-01-27T09:16:38.000Z</time>
      </trkpt>
      <trkpt lat="40.0834667868912220001220703125" lon="0.01311172731220722198486328125">
        <ele>484.20001220703125</ele>
        <time>2023-01-27T09:16:39.000Z</time>
      </trkpt>
      <trkpt lat="40.08347173221409320831298828125" lon="0.013077445328235626220703125">
        <ele>484.20001220703125</ele>
        <time>2023-01-27T09:16:40.000Z</time>
      </trkpt>
      <trkpt lat="40.08347609080374240875244140625" lon="0.013043582439422607421875">
        <ele>484.399993896484375</ele>
        <time>2023-01-27T09:16:41.000Z</time>
      </trkpt>
      <trkpt lat="40.08348396979272365570068359375" lon="0.0130108930170536041259765625">
        <ele>484.79998779296875</ele>
        <time>2023-01-27T09:16:42.000Z</time>
      </trkpt>
      <trkpt lat="40.08349277079105377197265625" lon="0.012976191937923431396484375">
        <ele>485</ele>
        <time>2023-01-27T09:16:43.000Z</time>
      </trkpt>
      <trkpt lat="40.0834988057613372802734375" lon="0.01294274814426898956298828125">
        <ele>485.20001220703125</ele>
        <time>2023-01-27T09:16:44.000Z</time>
      </trkpt>
      <trkpt lat="40.08350509218871593475341796875" lon="0.012909136712551116943359375">
        <ele>485.600006103515625</ele>
        <time>2023-01-27T09:16:45.000Z</time>
      </trkpt>
      <trkpt lat="40.08351246826350688934326171875" lon="0.01287535764276981353759765625">
        <ele>486</ele>
        <time>2023-01-27T09:16:46.000Z</time>
      </trkpt>
      <trkpt lat="40.083521269261837005615234375" lon="0.01284250058233737945556640625">
        <ele>486</ele>
        <time>2023-01-27T09:16:47.000Z</time>
      </trkpt>
      <trkpt lat="40.08352856151759624481201171875" lon="0.01280997879803180694580078125">
        <ele>486.20001220703125</ele>
        <time>2023-01-27T09:16:48.000Z</time>
      </trkpt>
      <trkpt lat="40.08353426121175289154052734375" lon="0.01277628354728221893310546875">
        <ele>486.399993896484375</ele>
        <time>2023-01-27T09:16:49.000Z</time>
      </trkpt>
      <trkpt lat="40.08354012854397296905517578125" lon="0.01274242065846920013427734375">
        <ele>486.79998779296875</ele>
        <time>2023-01-27T09:16:50.000Z</time>
      </trkpt>
      <trkpt lat="40.0835442356765270233154296875" lon="0.012707971036434173583984375">
        <ele>487</ele>
        <time>2023-01-27T09:16:51.000Z</time>
      </trkpt>
      <trkpt lat="40.0835465826094150543212890625" lon="0.01267754472792148590087890625">
        <ele>487.399993896484375</ele>
        <time>2023-01-27T09:16:52.000Z</time>
      </trkpt>
      <trkpt lat="40.08354842662811279296875" lon="0.0126511417329311370849609375">
        <ele>487.600006103515625</ele>
        <time>2023-01-27T09:16:53.000Z</time>
      </trkpt>
      <trkpt lat="40.08355035446584224700927734375" lon="0.012622140347957611083984375">
        <ele>487.79998779296875</ele>
        <time>2023-01-27T09:16:54.000Z</time>
      </trkpt>
      <trkpt lat="40.083549432456493377685546875" lon="0.0125907920300960540771484375">
        <ele>488</ele>
        <time>2023-01-27T09:16:55.000Z</time>
      </trkpt>
      <trkpt lat="40.0835522823035717010498046875" lon="0.01256371848285198211669921875">
        <ele>488.20001220703125</ele>
        <time>2023-01-27T09:16:56.000Z</time>
      </trkpt>
      <trkpt lat="40.0835559703409671783447265625" lon="0.01253203488886356353759765625">
        <ele>488.20001220703125</ele>
        <time>2023-01-27T09:16:57.000Z</time>
      </trkpt>
      <trkpt lat="40.08355756290256977081298828125" lon="0.01249632798135280609130859375">
        <ele>488.399993896484375</ele>
        <time>2023-01-27T09:16:58.000Z</time>
      </trkpt>
      <trkpt lat="40.0835559703409671783447265625" lon="0.012459196150302886962890625">
        <ele>488.79998779296875</ele>
        <time>2023-01-27T09:16:59.000Z</time>
      </trkpt>
      <trkpt lat="40.0835489295423030853271484375" lon="0.01242491416633129119873046875">
        <ele>489</ele>
        <time>2023-01-27T09:17:00.000Z</time>
      </trkpt>
      <trkpt lat="40.083541385829448699951171875" lon="0.0123933143913745880126953125">
        <ele>489.399993896484375</ele>
        <time>2023-01-27T09:17:01.000Z</time>
      </trkpt>
      <trkpt lat="40.08353325538337230682373046875" lon="0.01236020587384700775146484375">
        <ele>489.600006103515625</ele>
        <time>2023-01-27T09:17:02.000Z</time>
      </trkpt>
      <trkpt lat="40.08352437056601047515869140625" lon="0.01233472488820552825927734375">
        <ele>489.600006103515625</ele>
        <time>2023-01-27T09:17:03.000Z</time>
      </trkpt>
      <trkpt lat="40.0835117138922214508056640625" lon="0.01230421476066112518310546875">
        <ele>489.79998779296875</ele>
        <time>2023-01-27T09:17:04.000Z</time>
      </trkpt>
      <trkpt lat="40.08348966948688030242919921875" lon="0.01227102242410182952880859375">
        <ele>490</ele>
        <time>2023-01-27T09:17:05.000Z</time>
      </trkpt>
      <trkpt lat="40.0834684632718563079833984375" lon="0.01224629580974578857421875">
        <ele>490.399993896484375</ele>
        <time>2023-01-27T09:17:06.000Z</time>
      </trkpt>
      <trkpt lat="40.08345379494130611419677734375" lon="0.01222592778503894805908203125">
        <ele>490.79998779296875</ele>
        <time>2023-01-27T09:17:07.000Z</time>
      </trkpt>
      <trkpt lat="40.0834349356591701507568359375" lon="0.0122045539319515228271484375">
        <ele>491</ele>
        <time>2023-01-27T09:17:08.000Z</time>
      </trkpt>
      <trkpt lat="40.08340819738805294036865234375" lon="0.01218049786984920501708984375">
        <ele>491.399993896484375</ele>
        <time>2023-01-27T09:17:09.000Z</time>
      </trkpt>
      <trkpt lat="40.083390511572360992431640625" lon="0.01216155476868152618408203125">
        <ele>491.600006103515625</ele>
        <time>2023-01-27T09:17:10.000Z</time>
      </trkpt>
      <trkpt lat="40.08336712606251239776611328125" lon="0.0121411867439746856689453125">
        <ele>491.79998779296875</ele>
        <time>2023-01-27T09:17:11.000Z</time>
      </trkpt>
      <trkpt lat="40.0833459198474884033203125" lon="0.01212182454764842987060546875">
        <ele>492</ele>
        <time>2023-01-27T09:17:12.000Z</time>
      </trkpt>
      <trkpt lat="40.08332110941410064697265625" lon="0.01210573129355907440185546875">
        <ele>492</ele>
        <time>2023-01-27T09:17:13.000Z</time>
      </trkpt>
      <trkpt lat="40.08329160511493682861328125" lon="0.01208930276334285736083984375">
        <ele>492.399993896484375</ele>
        <time>2023-01-27T09:17:14.000Z</time>
      </trkpt>
      <trkpt lat="40.0832719914615154266357421875" lon="0.01208293251693248748779296875">
        <ele>492.600006103515625</ele>
        <time>2023-01-27T09:17:15.000Z</time>
      </trkpt>
      <trkpt lat="40.08324843831360340118408203125" lon="0.012068934738636016845703125">
        <ele>493.20001220703125</ele>
        <time>2023-01-27T09:17:16.000Z</time>
      </trkpt>
      <trkpt lat="40.083226226270198822021484375" lon="0.012051165103912353515625">
        <ele>493.20001220703125</ele>
        <time>2023-01-27T09:17:17.000Z</time>
      </trkpt>
      <trkpt lat="40.08320443332195281982421875" lon="0.0120335631072521209716796875">
        <ele>493.600006103515625</ele>
        <time>2023-01-27T09:17:18.000Z</time>
      </trkpt>
      <trkpt lat="40.083178617060184478759765625" lon="0.01201906241476535797119140625">
        <ele>493.79998779296875</ele>
        <time>2023-01-27T09:17:19.000Z</time>
      </trkpt>
      <trkpt lat="40.08315154351294040679931640625" lon="0.0120097585022449493408203125">
        <ele>494.20001220703125</ele>
        <time>2023-01-27T09:17:20.000Z</time>
      </trkpt>
      <trkpt lat="40.08312664926052093505859375" lon="0.01199827529489994049072265625">
        <ele>494.20001220703125</ele>
        <time>2023-01-27T09:17:21.000Z</time>
      </trkpt>
      <trkpt lat="40.08310393430292606353759765625" lon="0.01198503188788890838623046875">
        <ele>494.399993896484375</ele>
        <time>2023-01-27T09:17:22.000Z</time>
      </trkpt>
      <trkpt lat="40.083079375326633453369140625" lon="0.01197002828121185302734375">
        <ele>494.399993896484375</ele>
        <time>2023-01-27T09:17:23.000Z</time>
      </trkpt>
      <trkpt lat="40.083050541579723358154296875" lon="0.01195921562612056732177734375">
        <ele>494.600006103515625</ele>
        <time>2023-01-27T09:17:24.000Z</time>
      </trkpt>
      <trkpt lat="40.0830289162695407867431640625" lon="0.0119532644748687744140625">
        <ele>494.79998779296875</ele>
        <time>2023-01-27T09:17:25.000Z</time>
      </trkpt>
      <trkpt lat="40.083004273474216461181640625" lon="0.0119497440755367279052734375">
        <ele>495.20001220703125</ele>
        <time>2023-01-27T09:17:26.000Z</time>
      </trkpt>
      <trkpt lat="40.0829784572124481201171875" lon="0.01194513402879238128662109375">
        <ele>495.399993896484375</ele>
        <time>2023-01-27T09:17:27.000Z</time>
      </trkpt>
      <trkpt lat="40.08295155130326747894287109375" lon="0.011940188705921173095703125">
        <ele>496</ele>
        <time>2023-01-27T09:17:28.000Z</time>
      </trkpt>
      <trkpt lat="40.08292548358440399169921875" lon="0.0119373388588428497314453125">
        <ele>496.20001220703125</ele>
        <time>2023-01-27T09:17:29.000Z</time>
      </trkpt>
      <trkpt lat="40.08289941586554050445556640625" lon="0.011938512325286865234375">
        <ele>496.600006103515625</ele>
        <time>2023-01-27T09:17:30.000Z</time>
      </trkpt>
      <trkpt lat="40.08287058211863040924072265625" lon="0.01193960197269916534423828125">
        <ele>497</ele>
        <time>2023-01-27T09:17:31.000Z</time>
      </trkpt>
      <trkpt lat="40.08285172283649444580078125" lon="0.01194496639072895050048828125">
        <ele>497.20001220703125</ele>
        <time>2023-01-27T09:17:32.000Z</time>
      </trkpt>
      <trkpt lat="40.08282624185085296630859375" lon="0.0119507499039173126220703125">
        <ele>497.79998779296875</ele>
        <time>2023-01-27T09:17:33.000Z</time>
      </trkpt>
      <trkpt lat="40.0828032754361629486083984375" lon="0.011958293616771697998046875">
        <ele>497.79998779296875</ele>
        <time>2023-01-27T09:17:34.000Z</time>
      </trkpt>
      <trkpt lat="40.08278190158307552337646484375" lon="0.01196726225316524505615234375">
        <ele>498.20001220703125</ele>
        <time>2023-01-27T09:17:35.000Z</time>
      </trkpt>
      <trkpt lat="40.08275927044451236724853515625" lon="0.0119782425463199615478515625">
        <ele>498.399993896484375</ele>
        <time>2023-01-27T09:17:36.000Z</time>
      </trkpt>
      <trkpt lat="40.0827362202107906341552734375" lon="0.0119899772107601165771484375">
        <ele>498.79998779296875</ele>
        <time>2023-01-27T09:17:37.000Z</time>
      </trkpt>
      <trkpt lat="40.0827147625386714935302734375" lon="0.012002550065517425537109375">
        <ele>499</ele>
        <time>2023-01-27T09:17:38.000Z</time>
      </trkpt>
      <trkpt lat="40.082692801952362060546875" lon="0.0120157934725284576416015625">
        <ele>499.399993896484375</ele>
        <time>2023-01-27T09:17:39.000Z</time>
      </trkpt>
      <trkpt lat="40.08266757242381572723388671875" lon="0.012034736573696136474609375">
        <ele>499.399993896484375</ele>
        <time>2023-01-27T09:17:40.000Z</time>
      </trkpt>
      <trkpt lat="40.08265323936939239501953125" lon="0.0120473094284534454345703125">
        <ele>499.79998779296875</ele>
        <time>2023-01-27T09:17:41.000Z</time>
      </trkpt>
      <trkpt lat="40.08263706229627132415771484375" lon="0.0120603851974010467529296875">
        <ele>499.79998779296875</ele>
        <time>2023-01-27T09:17:42.000Z</time>
      </trkpt>
      <trkpt lat="40.08261744864284992218017578125" lon="0.01207807101309299468994140625">
        <ele>500.20001220703125</ele>
        <time>2023-01-27T09:17:43.000Z</time>
      </trkpt>
      <trkpt lat="40.0826002657413482666015625" lon="0.01209433190524578094482421875">
        <ele>500.399993896484375</ele>
        <time>2023-01-27T09:17:44.000Z</time>
      </trkpt>
      <trkpt lat="40.08258123882114887237548828125" lon="0.0121090002357959747314453125">
        <ele>500.600006103515625</ele>
        <time>2023-01-27T09:17:45.000Z</time>
      </trkpt>
      <trkpt lat="40.08256833069026470184326171875" lon="0.0121193937957286834716796875">
        <ele>500.600006103515625</ele>
        <time>2023-01-27T09:17:46.000Z</time>
      </trkpt>
      <trkpt lat="40.082547962665557861328125" lon="0.01213825307786464691162109375">
        <ele>500.79998779296875</ele>
        <time>2023-01-27T09:17:47.000Z</time>
      </trkpt>
      <trkpt lat="40.0825278460979461669921875" lon="0.01216289587318897247314453125">
        <ele>501.20001220703125</ele>
        <time>2023-01-27T09:17:48.000Z</time>
      </trkpt>
      <trkpt lat="40.08251200430095195770263671875" lon="0.0121810846030712127685546875">
        <ele>501.399993896484375</ele>
        <time>2023-01-27T09:17:49.000Z</time>
      </trkpt>
      <trkpt lat="40.0824978388845920562744140625" lon="0.01219508238136768341064453125">
        <ele>501.79998779296875</ele>
        <time>2023-01-27T09:17:50.000Z</time>
      </trkpt>
      <trkpt lat="40.08248467929661273956298828125" lon="0.01220363192260265350341796875">
        <ele>502</ele>
        <time>2023-01-27T09:17:51.000Z</time>
      </trkpt>
      <trkpt lat="40.0824663229286670684814453125" lon="0.01221972517669200897216796875">
        <ele>502.20001220703125</ele>
        <time>2023-01-27T09:17:52.000Z</time>
      </trkpt>
      <trkpt lat="40.0824455358088016510009765625" lon="0.0122384168207645416259765625">
        <ele>502.399993896484375</ele>
        <time>2023-01-27T09:17:53.000Z</time>
      </trkpt>
      <trkpt lat="40.08242617361247539520263671875" lon="0.01225794665515422821044921875">
        <ele>503</ele>
        <time>2023-01-27T09:17:54.000Z</time>
      </trkpt>
      <trkpt lat="40.08240790106356143951416015625" lon="0.01227387227118015289306640625">
        <ele>503.20001220703125</ele>
        <time>2023-01-27T09:17:55.000Z</time>
      </trkpt>
      <trkpt lat="40.08239306509494781494140625" lon="0.01228694804012775421142578125">
        <ele>503.600006103515625</ele>
        <time>2023-01-27T09:17:56.000Z</time>
      </trkpt>
      <trkpt lat="40.08237336762249469757080078125" lon="0.01230220310389995574951171875">
        <ele>503.79998779296875</ele>
        <time>2023-01-27T09:17:57.000Z</time>
      </trkpt>
      <trkpt lat="40.08235207758843898773193359375" lon="0.01231779344379901885986328125">
        <ele>504.20001220703125</ele>
        <time>2023-01-27T09:17:58.000Z</time>
      </trkpt>
      <trkpt lat="40.08232894353568553924560546875" lon="0.0123369880020618438720703125">
        <ele>504.20001220703125</ele>
        <time>2023-01-27T09:17:59.000Z</time>
      </trkpt>
      <trkpt lat="40.0823104195296764373779296875" lon="0.01235651783645153045654296875">
        <ele>504.600006103515625</ele>
        <time>2023-01-27T09:18:00.000Z</time>
      </trkpt>
      <trkpt lat="40.08229575119912624359130859375" lon="0.01237160526216030120849609375">
        <ele>504.600006103515625</ele>
        <time>2023-01-27T09:18:01.000Z</time>
      </trkpt>
      <trkpt lat="40.08227781392633914947509765625" lon="0.0123892910778522491455078125">
        <ele>505</ele>
        <time>2023-01-27T09:18:02.000Z</time>
      </trkpt>
      <trkpt lat="40.08225937373936176300048828125" lon="0.01240211538970470428466796875">
        <ele>505.600006103515625</ele>
        <time>2023-01-27T09:18:03.000Z</time>
      </trkpt>
      <trkpt lat="40.08223607204854488372802734375" lon="0.01241795718669891357421875">
        <ele>505.79998779296875</ele>
        <time>2023-01-27T09:18:04.000Z</time>
      </trkpt>
      <trkpt lat="40.08222081698477268218994140625" lon="0.01243270933628082275390625">
        <ele>506</ele>
        <time>2023-01-27T09:18:05.000Z</time>
      </trkpt>
      <trkpt lat="40.08219969458878040313720703125" lon="0.01244737766683101654052734375">
        <ele>506.20001220703125</ele>
        <time>2023-01-27T09:18:06.000Z</time>
      </trkpt>
      <trkpt lat="40.08217924274504184722900390625" lon="0.0124664045870304107666015625">
        <ele>506.399993896484375</ele>
        <time>2023-01-27T09:18:07.000Z</time>
      </trkpt>
      <trkpt lat="40.08215610869228839874267578125" lon="0.012490041553974151611328125">
        <ele>506.600006103515625</ele>
        <time>2023-01-27T09:18:08.000Z</time>
      </trkpt>
      <trkpt lat="40.0821362435817718505859375" lon="0.01250504516065120697021484375">
        <ele>506.79998779296875</ele>
        <time>2023-01-27T09:18:09.000Z</time>
      </trkpt>
      <trkpt lat="40.0821169652044773101806640625" lon="0.01251988112926483154296875">
        <ele>506.79998779296875</ele>
        <time>2023-01-27T09:18:10.000Z</time>
      </trkpt>
      <trkpt lat="40.08210062049329280853271484375" lon="0.01253471709787845611572265625">
        <ele>507.600006103515625</ele>
        <time>2023-01-27T09:18:11.000Z</time>
      </trkpt>
      <trkpt lat="40.082077570259571075439453125" lon="0.01255181618034839630126953125">
        <ele>507.79998779296875</ele>
        <time>2023-01-27T09:18:12.000Z</time>
      </trkpt>
      <trkpt lat="40.0820586271584033966064453125" lon="0.01256438903510570526123046875">
        <ele>508.20001220703125</ele>
        <time>2023-01-27T09:18:13.000Z</time>
      </trkpt>
      <trkpt lat="40.082038342952728271484375" lon="0.01257662661373615264892578125">
        <ele>508.20001220703125</ele>
        <time>2023-01-27T09:18:14.000Z</time>
      </trkpt>
      <trkpt lat="40.082022249698638916015625" lon="0.012585930526256561279296875">
        <ele>508.399993896484375</ele>
        <time>2023-01-27T09:18:15.000Z</time>
      </trkpt>
      <trkpt lat="40.08200422860682010650634765625" lon="0.01259808428585529327392578125">
        <ele>508.399993896484375</ele>
        <time>2023-01-27T09:18:16.000Z</time>
      </trkpt>
      <trkpt lat="40.0819835253059864044189453125" lon="0.0126122497022151947021484375">
        <ele>508.600006103515625</ele>
        <time>2023-01-27T09:18:17.000Z</time>
      </trkpt>
      <trkpt lat="40.081964917480945587158203125" lon="0.0126236490905284881591796875">
        <ele>508.600006103515625</ele>
        <time>2023-01-27T09:18:18.000Z</time>
      </trkpt>
      <trkpt lat="40.08194983005523681640625" lon="0.01263529993593692779541015625">
        <ele>509</ele>
        <time>2023-01-27T09:18:19.000Z</time>
      </trkpt>
      <trkpt lat="40.0819288752973079681396484375" lon="0.0126538239419460296630859375">
        <ele>509.600006103515625</ele>
        <time>2023-01-27T09:18:20.000Z</time>
      </trkpt>
      <trkpt lat="40.08190565742552280426025390625" lon="0.01267352141439914703369140625">
        <ele>509.79998779296875</ele>
        <time>2023-01-27T09:18:21.000Z</time>
      </trkpt>
      <trkpt lat="40.08188570849597454071044921875" lon="0.01269154250621795654296875">
        <ele>510.20001220703125</ele>
        <time>2023-01-27T09:18:22.000Z</time>
      </trkpt>
      <trkpt lat="40.08186425082385540008544921875" lon="0.01270587556064128875732421875">
        <ele>510.399993896484375</ele>
        <time>2023-01-27T09:18:23.000Z</time>
      </trkpt>
      <trkpt lat="40.08184463717043399810791015625" lon="0.01272448338568210601806640625">
        <ele>510.79998779296875</ele>
        <time>2023-01-27T09:18:24.000Z</time>
      </trkpt>
      <trkpt lat="40.08182653225958347320556640625" lon="0.01273890025913715362548828125">
        <ele>511</ele>
        <time>2023-01-27T09:18:25.000Z</time>
      </trkpt>
      <trkpt lat="40.081808008253574371337890625" lon="0.01275214366614818572998046875">
        <ele>511.20001220703125</ele>
        <time>2023-01-27T09:18:26.000Z</time>
      </trkpt>
      <trkpt lat="40.08178730495274066925048828125" lon="0.0127654708921909332275390625">
        <ele>511.399993896484375</ele>
        <time>2023-01-27T09:18:27.000Z</time>
      </trkpt>
      <trkpt lat="40.08176333270967006683349609375" lon="0.01277737319469451904296875">
        <ele>511.600006103515625</ele>
        <time>2023-01-27T09:18:28.000Z</time>
      </trkpt>
      <trkpt lat="40.081739611923694610595703125" lon="0.01278701238334178924560546875">
        <ele>511.600006103515625</ele>
        <time>2023-01-27T09:18:29.000Z</time>
      </trkpt>
      <trkpt lat="40.08171941153705120086669921875" lon="0.0127969868481159210205078125">
        <ele>511.79998779296875</ele>
        <time>2023-01-27T09:18:30.000Z</time>
      </trkpt>
      <trkpt lat="40.0817002169787883758544921875" lon="0.012811236083507537841796875">
        <ele>512</ele>
        <time>2023-01-27T09:18:31.000Z</time>
      </trkpt>
      <trkpt lat="40.08167959749698638916015625" lon="0.01282188110053539276123046875">
        <ele>512.4000244140625</ele>
        <time>2023-01-27T09:18:32.000Z</time>
      </trkpt>
      <trkpt lat="40.08165822364389896392822265625" lon="0.01283562742173671722412109375">
        <ele>512.4000244140625</ele>
        <time>2023-01-27T09:18:33.000Z</time>
      </trkpt>
      <trkpt lat="40.081638358533382415771484375" lon="0.0128519721329212188720703125">
        <ele>512.5999755859375</ele>
        <time>2023-01-27T09:18:34.000Z</time>
      </trkpt>
      <trkpt lat="40.08161715231835842132568359375" lon="0.012870244681835174560546875">
        <ele>513</ele>
        <time>2023-01-27T09:18:35.000Z</time>
      </trkpt>
      <trkpt lat="40.08159552700817584991455078125" lon="0.0128875114023685455322265625">
        <ele>513.20001220703125</ele>
        <time>2023-01-27T09:18:36.000Z</time>
      </trkpt>
      <trkpt lat="40.0815758295357227325439453125" lon="0.01290352083742618560791015625">
        <ele>513.20001220703125</ele>
        <time>2023-01-27T09:18:37.000Z</time>
      </trkpt>
      <trkpt lat="40.08155621588230133056640625" lon="0.01291944645345211029052734375">
        <ele>513.4000244140625</ele>
        <time>2023-01-27T09:18:38.000Z</time>
      </trkpt>
      <trkpt lat="40.08153551258146762847900390625" lon="0.012930594384670257568359375">
        <ele>513.5999755859375</ele>
        <time>2023-01-27T09:18:39.000Z</time>
      </trkpt>
      <trkpt lat="40.081516988575458526611328125" lon="0.0129451788961887359619140625">
        <ele>513.79998779296875</ele>
        <time>2023-01-27T09:18:40.000Z</time>
      </trkpt>
      <trkpt lat="40.08149863220751285552978515625" lon="0.01296319998800754547119140625">
        <ele>514.20001220703125</ele>
        <time>2023-01-27T09:18:41.000Z</time>
      </trkpt>
      <trkpt lat="40.08147465996444225311279296875" lon="0.01297342590987682342529296875">
        <ele>514.4000244140625</ele>
        <time>2023-01-27T09:18:42.000Z</time>
      </trkpt>
      <trkpt lat="40.0814521126449108123779296875" lon="0.0129807181656360626220703125">
        <ele>514.5999755859375</ele>
        <time>2023-01-27T09:18:43.000Z</time>
      </trkpt>
      <trkpt lat="40.0814289785921573638916015625" lon="0.01299270428717136383056640625">
        <ele>514.79998779296875</ele>
        <time>2023-01-27T09:18:44.000Z</time>
      </trkpt>
      <trkpt lat="40.0814055092632770538330078125" lon="0.01300443895161151885986328125">
        <ele>515</ele>
        <time>2023-01-27T09:18:45.000Z</time>
      </trkpt>
      <trkpt lat="40.081380866467952728271484375" lon="0.01301600597798824310302734375">
        <ele>515.20001220703125</ele>
        <time>2023-01-27T09:18:46.000Z</time>
      </trkpt>
      <trkpt lat="40.0813612528145313262939453125" lon="0.01302388496696949005126953125">
        <ele>515.4000244140625</ele>
        <time>2023-01-27T09:18:47.000Z</time>
      </trkpt>
      <trkpt lat="40.08133686147630214691162109375" lon="0.0130313448607921600341796875">
        <ele>515.5999755859375</ele>
        <time>2023-01-27T09:18:48.000Z</time>
      </trkpt>
      <trkpt lat="40.08131389506161212921142578125" lon="0.013041235506534576416015625">
        <ele>516</ele>
        <time>2023-01-27T09:18:49.000Z</time>
      </trkpt>
      <trkpt lat="40.081288330256938934326171875" lon="0.01304534263908863067626953125">
        <ele>516</ele>
        <time>2023-01-27T09:18:50.000Z</time>
      </trkpt>
      <trkpt lat="40.08126511238515377044677734375" lon="0.01304584555327892303466796875">
        <ele>516.4000244140625</ele>
        <time>2023-01-27T09:18:51.000Z</time>
      </trkpt>
      <trkpt lat="40.08124298416078090667724609375" lon="0.01305171288549900054931640625">
        <ele>516.5999755859375</ele>
        <time>2023-01-27T09:18:52.000Z</time>
      </trkpt>
      <trkpt lat="40.08122152648866176605224609375" lon="0.01305942423641681671142578125">
        <ele>516.5999755859375</ele>
        <time>2023-01-27T09:18:53.000Z</time>
      </trkpt>
      <trkpt lat="40.08119906298816204071044921875" lon="0.01306747086346149444580078125">
        <ele>517</ele>
        <time>2023-01-27T09:18:54.000Z</time>
      </trkpt>
      <trkpt lat="40.08117735385894775390625" lon="0.01307266764342784881591796875">
        <ele>517.20001220703125</ele>
        <time>2023-01-27T09:18:55.000Z</time>
      </trkpt>
      <trkpt lat="40.08115480653941631317138671875" lon="0.01308205537497997283935546875">
        <ele>517.20001220703125</ele>
        <time>2023-01-27T09:18:56.000Z</time>
      </trkpt>
      <trkpt lat="40.08113267831504344940185546875" lon="0.0130923651158809661865234375">
        <ele>517.20001220703125</ele>
        <time>2023-01-27T09:18:57.000Z</time>
      </trkpt>
      <trkpt lat="40.08110786788165569305419921875" lon="0.0131034292280673980712890625">
        <ele>517.4000244140625</ele>
        <time>2023-01-27T09:18:58.000Z</time>
      </trkpt>
      <trkpt lat="40.08108414709568023681640625" lon="0.0131154991686344146728515625">
        <ele>517.5999755859375</ele>
        <time>2023-01-27T09:18:59.000Z</time>
      </trkpt>
      <trkpt lat="40.08106176741421222686767578125" lon="0.0131238810718059539794921875">
        <ele>518</ele>
        <time>2023-01-27T09:19:00.000Z</time>
      </trkpt>
      <trkpt lat="40.0810370407998561859130859375" lon="0.01313871704041957855224609375">
        <ele>518.20001220703125</ele>
        <time>2023-01-27T09:19:01.000Z</time>
      </trkpt>
      <trkpt lat="40.081013739109039306640625" lon="0.01315849833190441131591796875">
        <ele>518.5999755859375</ele>
        <time>2023-01-27T09:19:02.000Z</time>
      </trkpt>
      <trkpt lat="40.08099295198917388916015625" lon="0.01317693851888179779052734375">
        <ele>518.79998779296875</ele>
        <time>2023-01-27T09:19:03.000Z</time>
      </trkpt>
      <trkpt lat="40.0809716619551181793212890625" lon="0.01319713890552520751953125">
        <ele>519</ele>
        <time>2023-01-27T09:19:04.000Z</time>
      </trkpt>
      <trkpt lat="40.0809502042829990386962890625" lon="0.01321583054959774017333984375">
        <ele>519</ele>
        <time>2023-01-27T09:19:05.000Z</time>
      </trkpt>
      <trkpt lat="40.0809284113347530364990234375" lon="0.01323024742305278778076171875">
        <ele>519.4000244140625</ele>
        <time>2023-01-27T09:19:06.000Z</time>
      </trkpt>
      <trkpt lat="40.080911479890346527099609375" lon="0.01324667595326900482177734375">
        <ele>519.4000244140625</ele>
        <time>2023-01-27T09:19:07.000Z</time>
      </trkpt>
      <trkpt lat="40.08088926784694194793701171875" lon="0.0132690556347370147705078125">
        <ele>519.79998779296875</ele>
        <time>2023-01-27T09:19:08.000Z</time>
      </trkpt>
      <trkpt lat="40.08086864836513996124267578125" lon="0.01328942365944385528564453125">
        <ele>520</ele>
        <time>2023-01-27T09:19:09.000Z</time>
      </trkpt>
      <trkpt lat="40.080843083560466766357421875" lon="0.01331892795860767364501953125">
        <ele>520</ele>
        <time>2023-01-27T09:19:10.000Z</time>
      </trkpt>
      <trkpt lat="40.08082397282123565673828125" lon="0.0133431516587734222412109375">
        <ele>520.4000244140625</ele>
        <time>2023-01-27T09:19:11.000Z</time>
      </trkpt>
      <trkpt lat="40.08080058731138706207275390625" lon="0.01336276531219482421875">
        <ele>520.5999755859375</ele>
        <time>2023-01-27T09:19:12.000Z</time>
      </trkpt>
      <trkpt lat="40.0807775370776653289794921875" lon="0.01338212750852108001708984375">
        <ele>520.79998779296875</ele>
        <time>2023-01-27T09:19:13.000Z</time>
      </trkpt>
      <trkpt lat="40.08075348101556301116943359375" lon="0.01340341754257678985595703125">
        <ele>521</ele>
        <time>2023-01-27T09:19:14.000Z</time>
      </trkpt>
      <trkpt lat="40.08073571138083934783935546875" lon="0.01342101953923702239990234375">
        <ele>521.20001220703125</ele>
        <time>2023-01-27T09:19:15.000Z</time>
      </trkpt>
      <trkpt lat="40.0807161815464496612548828125" lon="0.01343778334558010101318359375">
        <ele>521.20001220703125</ele>
        <time>2023-01-27T09:19:16.000Z</time>
      </trkpt>
      <trkpt lat="40.08069631643593311309814453125" lon="0.01345463097095489501953125">
        <ele>521.4000244140625</ele>
        <time>2023-01-27T09:19:17.000Z</time>
      </trkpt>
      <trkpt lat="40.08067586459219455718994140625" lon="0.01347214914858341217041015625">
        <ele>521.5999755859375</ele>
        <time>2023-01-27T09:19:18.000Z</time>
      </trkpt>
      <trkpt lat="40.0806508027017116546630859375" lon="0.01349486410617828369140625">
        <ele>521.79998779296875</ele>
        <time>2023-01-27T09:19:19.000Z</time>
      </trkpt>
      <trkpt lat="40.08062993176281452178955078125" lon="0.01351389102637767791748046875">
        <ele>522</ele>
        <time>2023-01-27T09:19:20.000Z</time>
      </trkpt>
      <trkpt lat="40.08061383850872516632080078125" lon="0.0135242007672786712646484375">
        <ele>522.4000244140625</ele>
        <time>2023-01-27T09:19:21.000Z</time>
      </trkpt>
      <trkpt lat="40.0805927999317646026611328125" lon="0.0135396234691143035888671875">
        <ele>522.5999755859375</ele>
        <time>2023-01-27T09:19:22.000Z</time>
      </trkpt>
      <trkpt lat="40.08057226426899433135986328125" lon="0.0135577283799648284912109375">
        <ele>522.79998779296875</ele>
        <time>2023-01-27T09:19:23.000Z</time>
      </trkpt>
      <trkpt lat="40.08055030368268489837646484375" lon="0.0135706365108489990234375">
        <ele>522.79998779296875</ele>
        <time>2023-01-27T09:19:24.000Z</time>
      </trkpt>
      <trkpt lat="40.08052214048802852630615234375" lon="0.01358614303171634674072265625">
        <ele>523.20001220703125</ele>
        <time>2023-01-27T09:19:25.000Z</time>
      </trkpt>
      <trkpt lat="40.0804982520639896392822265625" lon="0.01359720714390277862548828125">
        <ele>523.5999755859375</ele>
        <time>2023-01-27T09:19:26.000Z</time>
      </trkpt>
      <trkpt lat="40.08047352544963359832763671875" lon="0.01360617578029632568359375">
        <ele>523.79998779296875</ele>
        <time>2023-01-27T09:19:27.000Z</time>
      </trkpt>
      <trkpt lat="40.0804493017494678497314453125" lon="0.01361296512186527252197265625">
        <ele>524</ele>
        <time>2023-01-27T09:19:28.000Z</time>
      </trkpt>
      <trkpt lat="40.08042432367801666259765625" lon="0.0136187486350536346435546875">
        <ele>524</ele>
        <time>2023-01-27T09:19:29.000Z</time>
      </trkpt>
      <trkpt lat="40.080397166311740875244140625" lon="0.013622939586639404296875">
        <ele>524.20001220703125</ele>
        <time>2023-01-27T09:19:30.000Z</time>
      </trkpt>
      <trkpt lat="40.0803711824119091033935546875" lon="0.0136244483292102813720703125">
        <ele>524.4000244140625</ele>
        <time>2023-01-27T09:19:31.000Z</time>
      </trkpt>
      <trkpt lat="40.0803450308740139007568359375" lon="0.0136264599859714508056640625">
        <ele>524.79998779296875</ele>
        <time>2023-01-27T09:19:32.000Z</time>
      </trkpt>
      <trkpt lat="40.08031795732676982879638671875" lon="0.0136244483292102813720703125">
        <ele>525</ele>
        <time>2023-01-27T09:19:33.000Z</time>
      </trkpt>
      <trkpt lat="40.08029214106500148773193359375" lon="0.0136167369782924652099609375">
        <ele>525.4000244140625</ele>
        <time>2023-01-27T09:19:34.000Z</time>
      </trkpt>
      <trkpt lat="40.080266408622264862060546875" lon="0.01361011527478694915771484375">
        <ele>525.4000244140625</ele>
        <time>2023-01-27T09:19:35.000Z</time>
      </trkpt>
      <trkpt lat="40.08024059236049652099609375" lon="0.013606511056423187255859375">
        <ele>525.5999755859375</ele>
        <time>2023-01-27T09:19:36.000Z</time>
      </trkpt>
      <trkpt lat="40.0802139379084110260009765625" lon="0.0136056728661060333251953125">
        <ele>525.79998779296875</ele>
        <time>2023-01-27T09:19:37.000Z</time>
      </trkpt>
      <trkpt lat="40.0801891274750232696533203125" lon="0.013601146638393402099609375">
        <ele>526.20001220703125</ele>
        <time>2023-01-27T09:19:38.000Z</time>
      </trkpt>
      <trkpt lat="40.0801621377468109130859375" lon="0.0135969556868076324462890625">
        <ele>526.20001220703125</ele>
        <time>2023-01-27T09:19:39.000Z</time>
      </trkpt>
      <trkpt lat="40.08013322018086910247802734375" lon="0.0135959498584270477294921875">
        <ele>526.5999755859375</ele>
        <time>2023-01-27T09:19:40.000Z</time>
      </trkpt>
      <trkpt lat="40.0801056437194347381591796875" lon="0.01359737478196620941162109375">
        <ele>526.79998779296875</ele>
        <time>2023-01-27T09:19:41.000Z</time>
      </trkpt>
      <trkpt lat="40.080079324543476104736328125" lon="0.01360055990517139434814453125">
        <ele>526.79998779296875</ele>
        <time>2023-01-27T09:19:42.000Z</time>
      </trkpt>
      <trkpt lat="40.08005359210073947906494140625" lon="0.013601817190647125244140625">
        <ele>526.79998779296875</ele>
        <time>2023-01-27T09:19:43.000Z</time>
      </trkpt>
      <trkpt lat="40.08002626709640026092529296875" lon="0.01360760070383548736572265625">
        <ele>527</ele>
        <time>2023-01-27T09:19:44.000Z</time>
      </trkpt>
      <trkpt lat="40.079998858273029327392578125" lon="0.01361564733088016510009765625">
        <ele>527.20001220703125</ele>
        <time>2023-01-27T09:19:45.000Z</time>
      </trkpt>
      <trkpt lat="40.07997077889740467071533203125" lon="0.01362319104373455047607421875">
        <ele>527.4000244140625</ele>
        <time>2023-01-27T09:19:46.000Z</time>
      </trkpt>
      <trkpt lat="40.07994127459824085235595703125" lon="0.0136350095272064208984375">
        <ele>527.4000244140625</ele>
        <time>2023-01-27T09:19:47.000Z</time>
      </trkpt>
      <trkpt lat="40.07990908809006214141845703125" lon="0.01364867202937602996826171875">
        <ele>527.4000244140625</ele>
        <time>2023-01-27T09:19:48.000Z</time>
      </trkpt>
      <trkpt lat="40.07987589575350284576416015625" lon="0.0136650167405605316162109375">
        <ele>527.5999755859375</ele>
        <time>2023-01-27T09:19:49.000Z</time>
      </trkpt>
      <trkpt lat="40.079843960702419281005859375" lon="0.01368421129882335662841796875">
        <ele>527.5999755859375</ele>
        <time>2023-01-27T09:19:50.000Z</time>
      </trkpt>
      <trkpt lat="40.079809762537479400634765625" lon="0.0136993825435638427734375">
        <ele>527.5999755859375</ele>
        <time>2023-01-27T09:19:51.000Z</time>
      </trkpt>
      <trkpt lat="40.0797720439732074737548828125" lon="0.01371346414089202880859375">
        <ele>527.79998779296875</ele>
        <time>2023-01-27T09:19:52.000Z</time>
      </trkpt>
      <trkpt lat="40.07973776198923587799072265625" lon="0.0137287192046642303466796875">
        <ele>527.79998779296875</ele>
        <time>2023-01-27T09:19:53.000Z</time>
      </trkpt>
      <trkpt lat="40.07970239035785198211669921875" lon="0.0137476623058319091796875">
        <ele>528</ele>
        <time>2023-01-27T09:19:54.000Z</time>
      </trkpt>
      <trkpt lat="40.07966525852680206298828125" lon="0.01376635394990444183349609375">
        <ele>528</ele>
        <time>2023-01-27T09:19:55.000Z</time>
      </trkpt>
      <trkpt lat="40.0796292163431644439697265625" lon="0.0137857161462306976318359375">
        <ele>528</ele>
        <time>2023-01-27T09:19:56.000Z</time>
      </trkpt>
      <trkpt lat="40.07959376089274883270263671875" lon="0.01379669643938541412353515625">
        <ele>528</ele>
        <time>2023-01-27T09:19:57.000Z</time>
      </trkpt>
      <trkpt lat="40.0795564614236354827880859375" lon="0.01381429843604564666748046875">
        <ele>528.20001220703125</ele>
        <time>2023-01-27T09:19:58.000Z</time>
      </trkpt>
      <trkpt lat="40.0795182399451732635498046875" lon="0.01383005641400814056396484375">
        <ele>528.4000244140625</ele>
        <time>2023-01-27T09:19:59.000Z</time>
      </trkpt>
      <trkpt lat="40.07948077283799648284912109375" lon="0.0138440541923046112060546875">
        <ele>528.5999755859375</ele>
        <time>2023-01-27T09:20:00.000Z</time>
      </trkpt>
      <trkpt lat="40.07944540120661258697509765625" lon="0.01385830342769622802734375">
        <ele>528.5999755859375</ele>
        <time>2023-01-27T09:20:01.000Z</time>
      </trkpt>
      <trkpt lat="40.07941036485135555267333984375" lon="0.01387297175824642181396484375">
        <ele>529</ele>
        <time>2023-01-27T09:20:02.000Z</time>
      </trkpt>
      <trkpt lat="40.07937449030578136444091796875" lon="0.01388512551784515380859375">
        <ele>529</ele>
        <time>2023-01-27T09:20:03.000Z</time>
      </trkpt>
      <trkpt lat="40.07933693937957286834716796875" lon="0.0138953514397144317626953125">
        <ele>529.20001220703125</ele>
        <time>2023-01-27T09:20:04.000Z</time>
      </trkpt>
      <trkpt lat="40.07929779589176177978515625" lon="0.01390113495290279388427734375">
        <ele>529.20001220703125</ele>
        <time>2023-01-27T09:20:05.000Z</time>
      </trkpt>
      <trkpt lat="40.0792582333087921142578125" lon="0.01389292068779468536376953125">
        <ele>529.20001220703125</ele>
        <time>2023-01-27T09:20:06.000Z</time>
      </trkpt>
      <trkpt lat="40.0792231969535350799560546875" lon="0.013868026435375213623046875">
        <ele>529.20001220703125</ele>
        <time>2023-01-27T09:20:07.000Z</time>
      </trkpt>
      <trkpt lat="40.07919210009276866912841796875" lon="0.0138339959084987640380859375">
        <ele>529.20001220703125</ele>
        <time>2023-01-27T09:20:08.000Z</time>
      </trkpt>
      <trkpt lat="40.07917131297290325164794921875" lon="0.01378730870783329010009765625">
        <ele>529.20001220703125</ele>
        <time>2023-01-27T09:20:09.000Z</time>
      </trkpt>
      <trkpt lat="40.0791537947952747344970703125" lon="0.01373701728880405426025390625">
        <ele>529.20001220703125</ele>
        <time>2023-01-27T09:20:10.000Z</time>
      </trkpt>
      <trkpt lat="40.07914490997791290283203125" lon="0.01367951743304729461669921875">
        <ele>529.20001220703125</ele>
        <time>2023-01-27T09:20:11.000Z</time>
      </trkpt>
      <trkpt lat="40.07914080284535884857177734375" lon="0.0136251188814640045166015625">
        <ele>529.4000244140625</ele>
        <time>2023-01-27T09:20:12.000Z</time>
      </trkpt>
      <trkpt lat="40.07914046756923198699951171875" lon="0.01356719993054866790771484375">
        <ele>529.4000244140625</ele>
        <time>2023-01-27T09:20:13.000Z</time>
      </trkpt>
      <trkpt lat="40.07914222776889801025390625" lon="0.01351020298898220062255859375">
        <ele>529.5999755859375</ele>
        <time>2023-01-27T09:20:14.000Z</time>
      </trkpt>
      <trkpt lat="40.07914532907307147979736328125" lon="0.01345320604741573333740234375">
        <ele>529.5999755859375</ele>
        <time>2023-01-27T09:20:15.000Z</time>
      </trkpt>
      <trkpt lat="40.07918992079794406890869140625" lon="0.0130779482424259185791015625">
        <ele>529.79998779296875</ele>
        <time>2023-01-27T09:20:22.000Z</time>
      </trkpt>
      <trkpt lat="40.079199559986591339111328125" lon="0.01303017139434814453125">
        <ele>530</ele>
        <time>2023-01-27T09:20:23.000Z</time>
      </trkpt>
      <trkpt lat="40.0792081095278263092041015625" lon="0.0129850767552852630615234375">
        <ele>530</ele>
        <time>2023-01-27T09:20:24.000Z</time>
      </trkpt>
      <trkpt lat="40.07921732962131500244140625" lon="0.01293822191655635833740234375">
        <ele>530.20001220703125</ele>
        <time>2023-01-27T09:20:25.000Z</time>
      </trkpt>
      <trkpt lat="40.07922939956188201904296875" lon="0.01289094798266887664794921875">
        <ele>530.4000244140625</ele>
        <time>2023-01-27T09:20:26.000Z</time>
      </trkpt>
      <trkpt lat="40.07924373261630535125732421875" lon="0.0128452666103839874267578125">
        <ele>530.4000244140625</ele>
        <time>2023-01-27T09:20:27.000Z</time>
      </trkpt>
      <trkpt lat="40.0792584009468555450439453125" lon="0.01280017197132110595703125">
        <ele>530.4000244140625</ele>
        <time>2023-01-27T09:20:28.000Z</time>
      </trkpt>
      <trkpt lat="40.079272650182247161865234375" lon="0.0127527303993701934814453125">
        <ele>530.79998779296875</ele>
        <time>2023-01-27T09:20:29.000Z</time>
      </trkpt>
      <trkpt lat="40.0792852230370044708251953125" lon="0.0127064622938632965087890625">
        <ele>531</ele>
        <time>2023-01-27T09:20:30.000Z</time>
      </trkpt>
      <trkpt lat="40.0792962871491909027099609375" lon="0.0126632116734981536865234375">
        <ele>531.4000244140625</ele>
        <time>2023-01-27T09:20:31.000Z</time>
      </trkpt>
      <trkpt lat="40.07930492050945758819580078125" lon="0.01262859441339969635009765625">
        <ele>531.5999755859375</ele>
        <time>2023-01-27T09:20:32.000Z</time>
      </trkpt>
      <trkpt lat="40.07931665517389774322509765625" lon="0.0125887803733348846435546875">
        <ele>531.79998779296875</ele>
        <time>2023-01-27T09:20:33.000Z</time>
      </trkpt>
      <trkpt lat="40.07934129796922206878662109375" lon="0.0124977529048919677734375">
        <ele>532.20001220703125</ele>
        <time>2023-01-27T09:20:35.000Z</time>
      </trkpt>
      <trkpt lat="40.07935412228107452392578125" lon="0.01245961524546146392822265625">
        <ele>532.5999755859375</ele>
        <time>2023-01-27T09:20:36.000Z</time>
      </trkpt>
      <trkpt lat="40.0793653540313243865966796875" lon="0.01242055557668209075927734375">
        <ele>532.79998779296875</ele>
        <time>2023-01-27T09:20:37.000Z</time>
      </trkpt>
      <trkpt lat="40.0793737359344959259033203125" lon="0.01238702796399593353271484375">
        <ele>533.4000244140625</ele>
        <time>2023-01-27T09:20:38.000Z</time>
      </trkpt>
      <trkpt lat="40.07938421331346035003662109375" lon="0.01234687864780426025390625">
        <ele>533.5999755859375</ele>
        <time>2023-01-27T09:20:39.000Z</time>
      </trkpt>
      <trkpt lat="40.0793950259685516357421875" lon="0.0123011134564876556396484375">
        <ele>533.79998779296875</ele>
        <time>2023-01-27T09:20:40.000Z</time>
      </trkpt>
      <trkpt lat="40.07940751500427722930908203125" lon="0.01225970685482025146484375">
        <ele>534</ele>
        <time>2023-01-27T09:20:41.000Z</time>
      </trkpt>
      <trkpt lat="40.07941891439259052276611328125" lon="0.01221486367285251617431640625">
        <ele>534.20001220703125</ele>
        <time>2023-01-27T09:20:42.000Z</time>
      </trkpt>
      <trkpt lat="40.079426206648349761962890625" lon="0.01217815093696117401123046875">
        <ele>534.4000244140625</ele>
        <time>2023-01-27T09:20:43.000Z</time>
      </trkpt>
      <trkpt lat="40.079431571066379547119140625" lon="0.01213473267853260040283203125">
        <ele>534.5999755859375</ele>
        <time>2023-01-27T09:20:44.000Z</time>
      </trkpt>
      <trkpt lat="40.07943190634250640869140625" lon="0.0120784901082515716552734375">
        <ele>534.5999755859375</ele>
        <time>2023-01-27T09:20:45.000Z</time>
      </trkpt>
      <trkpt lat="40.0794283859431743621826171875" lon="0.012032054364681243896484375">
        <ele>534.79998779296875</ele>
        <time>2023-01-27T09:20:46.000Z</time>
      </trkpt>
      <trkpt lat="40.07942025549709796905517578125" lon="0.01198687590658664703369140625">
        <ele>535.20001220703125</ele>
        <time>2023-01-27T09:20:47.000Z</time>
      </trkpt>
      <trkpt lat="40.07940768264234066009521484375" lon="0.01195100136101245880126953125">
        <ele>535.20001220703125</ele>
        <time>2023-01-27T09:20:48.000Z</time>
      </trkpt>
      <trkpt lat="40.0793896615505218505859375" lon="0.0119108520448207855224609375">
        <ele>535.4000244140625</ele>
        <time>2023-01-27T09:20:49.000Z</time>
      </trkpt>
      <trkpt lat="40.07936954498291015625" lon="0.01186818815767765045166015625">
        <ele>536</ele>
        <time>2023-01-27T09:20:50.000Z</time>
      </trkpt>
      <trkpt lat="40.07934850640594959259033203125" lon="0.0118339061737060546875">
        <ele>536.20001220703125</ele>
        <time>2023-01-27T09:20:51.000Z</time>
      </trkpt>
      <trkpt lat="40.07932939566671848297119140625" lon="0.011810772120952606201171875">
        <ele>536.4000244140625</ele>
        <time>2023-01-27T09:20:52.000Z</time>
      </trkpt>
      <trkpt lat="40.07930441759526729583740234375" lon="0.0117837823927402496337890625">
        <ele>536.5999755859375</ele>
        <time>2023-01-27T09:20:53.000Z</time>
      </trkpt>
      <trkpt lat="40.07927726022899150848388671875" lon="0.01175872050225734710693359375">
        <ele>536.5999755859375</ele>
        <time>2023-01-27T09:20:54.000Z</time>
      </trkpt>
      <trkpt lat="40.07924607954919338226318359375" lon="0.01172619871795177459716796875">
        <ele>536.79998779296875</ele>
        <time>2023-01-27T09:20:55.000Z</time>
      </trkpt>
      <trkpt lat="40.07921858690679073333740234375" lon="0.0117026455700397491455078125">
        <ele>536.79998779296875</ele>
        <time>2023-01-27T09:20:56.000Z</time>
      </trkpt>
      <trkpt lat="40.07919059135019779205322265625" lon="0.01167791895568370819091796875">
        <ele>537</ele>
        <time>2023-01-27T09:20:57.000Z</time>
      </trkpt>
      <trkpt lat="40.07916829548776149749755859375" lon="0.0116590596735477447509765625">
        <ele>537.20001220703125</ele>
        <time>2023-01-27T09:20:58.000Z</time>
      </trkpt>
      <trkpt lat="40.07913862355053424835205078125" lon="0.01163542270660400390625">
        <ele>537.4000244140625</ele>
        <time>2023-01-27T09:20:59.000Z</time>
      </trkpt>
      <trkpt lat="40.07910258136689662933349609375" lon="0.0116072595119476318359375">
        <ele>537.4000244140625</ele>
        <time>2023-01-27T09:21:00.000Z</time>
      </trkpt>
      <trkpt lat="40.0790709815919399261474609375" lon="0.01158672384917736053466796875">
        <ele>537.79998779296875</ele>
        <time>2023-01-27T09:21:01.000Z</time>
      </trkpt>
      <trkpt lat="40.07904122583568096160888671875" lon="0.011562667787075042724609375">
        <ele>537.79998779296875</ele>
        <time>2023-01-27T09:21:02.000Z</time>
      </trkpt>
      <trkpt lat="40.0790168344974517822265625" lon="0.01154397614300251007080078125">
        <ele>538.20001220703125</ele>
        <time>2023-01-27T09:21:03.000Z</time>
      </trkpt>
      <trkpt lat="40.07898640818893909454345703125" lon="0.0115246139466762542724609375">
        <ele>538.5999755859375</ele>
        <time>2023-01-27T09:21:04.000Z</time>
      </trkpt>
      <trkpt lat="40.07895489223301410675048828125" lon="0.01150592230260372161865234375">
        <ele>538.79998779296875</ele>
        <time>2023-01-27T09:21:05.000Z</time>
      </trkpt>
      <trkpt lat="40.0789227895438671112060546875" lon="0.01149016432464122772216796875">
        <ele>539</ele>
        <time>2023-01-27T09:21:06.000Z</time>
      </trkpt>
      <trkpt lat="40.07888984866440296173095703125" lon="0.01147658564150333404541015625">
        <ele>539.20001220703125</ele>
        <time>2023-01-27T09:21:07.000Z</time>
      </trkpt>
      <trkpt lat="40.0788585841655731201171875" lon="0.01146032474935054779052734375">
        <ele>539.4000244140625</ele>
        <time>2023-01-27T09:21:08.000Z</time>
      </trkpt>
      <trkpt lat="40.0788181833922863006591796875" lon="0.0114458240568637847900390625">
        <ele>539.5999755859375</ele>
        <time>2023-01-27T09:21:09.000Z</time>
      </trkpt>
      <trkpt lat="40.0787910260260105133056640625" lon="0.011436603963375091552734375">
        <ele>539.79998779296875</ele>
        <time>2023-01-27T09:21:10.000Z</time>
      </trkpt>
      <trkpt lat="40.0787487812340259552001953125" lon="0.01142595894634723663330078125">
        <ele>539.79998779296875</ele>
        <time>2023-01-27T09:21:11.000Z</time>
      </trkpt>
      <trkpt lat="40.0787202827632427215576171875" lon="0.0114193372428417205810546875">
        <ele>540.20001220703125</ele>
        <time>2023-01-27T09:21:12.000Z</time>
      </trkpt>
      <trkpt lat="40.0786880962550640106201171875" lon="0.011413805186748504638671875">
        <ele>540.20001220703125</ele>
        <time>2023-01-27T09:21:13.000Z</time>
      </trkpt>
      <trkpt lat="40.07865549065172672271728515625" lon="0.01141187734901905059814453125">
        <ele>540.4000244140625</ele>
        <time>2023-01-27T09:21:14.000Z</time>
      </trkpt>
      <trkpt lat="40.0786220468580722808837890625" lon="0.0114129669964313507080078125">
        <ele>540.5999755859375</ele>
        <time>2023-01-27T09:21:15.000Z</time>
      </trkpt>
      <trkpt lat="40.0785828195512294769287109375" lon="0.01141707412898540496826171875">
        <ele>540.79998779296875</ele>
        <time>2023-01-27T09:21:16.000Z</time>
      </trkpt>
      <trkpt lat="40.07855926640331745147705078125" lon="0.0114250369369983673095703125">
        <ele>541</ele>
        <time>2023-01-27T09:21:17.000Z</time>
      </trkpt>
      <trkpt lat="40.07852875627577304840087890625" lon="0.0114367716014385223388671875">
        <ele>541.4000244140625</ele>
        <time>2023-01-27T09:21:18.000Z</time>
      </trkpt>
      <trkpt lat="40.07849891670048236846923828125" lon="0.01145194284617900848388671875">
        <ele>541.4000244140625</ele>
        <time>2023-01-27T09:21:19.000Z</time>
      </trkpt>
      <trkpt lat="40.0784698314964771270751953125" lon="0.011468790471553802490234375">
        <ele>541.79998779296875</ele>
        <time>2023-01-27T09:21:20.000Z</time>
      </trkpt>
      <trkpt lat="40.078442506492137908935546875" lon="0.01148463226854801177978515625">
        <ele>542</ele>
        <time>2023-01-27T09:21:21.000Z</time>
      </trkpt>
      <trkpt lat="40.0784160196781158447265625" lon="0.011503659188747406005859375">
        <ele>542.20001220703125</ele>
        <time>2023-01-27T09:21:22.000Z</time>
      </trkpt>
      <trkpt lat="40.07838894613087177276611328125" lon="0.01152612268924713134765625">
        <ele>542.79998779296875</ele>
        <time>2023-01-27T09:21:23.000Z</time>
      </trkpt>
      <trkpt lat="40.07835776545107364654541015625" lon="0.01155286096036434173583984375">
        <ele>543</ele>
        <time>2023-01-27T09:21:24.000Z</time>
      </trkpt>
      <trkpt lat="40.078337900340557098388671875" lon="0.0115718878805637359619140625">
        <ele>543.20001220703125</ele>
        <time>2023-01-27T09:21:25.000Z</time>
      </trkpt>
      <trkpt lat="40.078313760459423065185546875" lon="0.0115987099707126617431640625">
        <ele>543.20001220703125</ele>
        <time>2023-01-27T09:21:26.000Z</time>
      </trkpt>
      <trkpt lat="40.0782881118357181549072265625" lon="0.01162477768957614898681640625">
        <ele>543.4000244140625</ele>
        <time>2023-01-27T09:21:27.000Z</time>
      </trkpt>
      <trkpt lat="40.078260786831378936767578125" lon="0.01165084540843963623046875">
        <ele>543.79998779296875</ele>
        <time>2023-01-27T09:21:28.000Z</time>
      </trkpt>
      <trkpt lat="40.07823321036994457244873046875" lon="0.0116718001663684844970703125">
        <ele>543.79998779296875</ele>
        <time>2023-01-27T09:21:29.000Z</time>
      </trkpt>
      <trkpt lat="40.078208148479461669921875" lon="0.01168982125818729400634765625">
        <ele>543.79998779296875</ele>
        <time>2023-01-27T09:21:30.000Z</time>
      </trkpt>
      <trkpt lat="40.0781778059899806976318359375" lon="0.01171882264316082000732421875">
        <ele>544.20001220703125</ele>
        <time>2023-01-27T09:21:31.000Z</time>
      </trkpt>
      <trkpt lat="40.0781585276126861572265625" lon="0.011740364134311676025390625">
        <ele>544.20001220703125</ele>
        <time>2023-01-27T09:21:32.000Z</time>
      </trkpt>
      <trkpt lat="40.07813413627445697784423828125" lon="0.01176592893898487091064453125">
        <ele>544.5999755859375</ele>
        <time>2023-01-27T09:21:33.000Z</time>
      </trkpt>
      <trkpt lat="40.07810882292687892913818359375" lon="0.01179040409624576568603515625">
        <ele>544.5999755859375</ele>
        <time>2023-01-27T09:21:34.000Z</time>
      </trkpt>
      <trkpt lat="40.07808300666511058807373046875" lon="0.0118149630725383758544921875">
        <ele>544.79998779296875</ele>
        <time>2023-01-27T09:21:35.000Z</time>
      </trkpt>
      <trkpt lat="40.07805719040334224700927734375" lon="0.0118401087820529937744140625">
        <ele>544.79998779296875</ele>
        <time>2023-01-27T09:21:36.000Z</time>
      </trkpt>
      <trkpt lat="40.0780306197702884674072265625" lon="0.01186500303447246551513671875">
        <ele>544.79998779296875</ele>
        <time>2023-01-27T09:21:37.000Z</time>
      </trkpt>
      <trkpt lat="40.07800631225109100341796875" lon="0.01189182512462139129638671875">
        <ele>545.20001220703125</ele>
        <time>2023-01-27T09:21:38.000Z</time>
      </trkpt>
      <trkpt lat="40.07797605358064174652099609375" lon="0.01192350871860980987548828125">
        <ele>545.4000244140625</ele>
        <time>2023-01-27T09:21:39.000Z</time>
      </trkpt>
      <trkpt lat="40.0779551826417446136474609375" lon="0.0119457207620143890380859375">
        <ele>545.79998779296875</ele>
        <time>2023-01-27T09:21:40.000Z</time>
      </trkpt>
      <trkpt lat="40.07792408578097820281982421875" lon="0.01197581179440021514892578125">
        <ele>546</ele>
        <time>2023-01-27T09:21:41.000Z</time>
      </trkpt>
      <trkpt lat="40.0779022090137004852294921875" lon="0.0119961798191070556640625">
        <ele>546.20001220703125</ele>
        <time>2023-01-27T09:21:42.000Z</time>
      </trkpt>
      <trkpt lat="40.07787597365677356719970703125" lon="0.01201956532895565032958984375">
        <ele>546.4000244140625</ele>
        <time>2023-01-27T09:21:43.000Z</time>
      </trkpt>
      <trkpt lat="40.07784294895827770233154296875" lon="0.01204487867653369903564453125">
        <ele>546.4000244140625</ele>
        <time>2023-01-27T09:21:44.000Z</time>
      </trkpt>
      <trkpt lat="40.0778157077729701995849609375" lon="0.01206533052027225494384765625">
        <ele>546.79998779296875</ele>
        <time>2023-01-27T09:21:45.000Z</time>
      </trkpt>
      <trkpt lat="40.07778326980769634246826171875" lon="0.0120821781456470489501953125">
        <ele>547</ele>
        <time>2023-01-27T09:21:46.000Z</time>
      </trkpt>
      <trkpt lat="40.07775812409818172454833984375" lon="0.0120929069817066192626953125">
        <ele>547.20001220703125</ele>
        <time>2023-01-27T09:21:47.000Z</time>
      </trkpt>
      <trkpt lat="40.07772359065711498260498046875" lon="0.01210120506584644317626953125">
        <ele>547.4000244140625</ele>
        <time>2023-01-27T09:21:48.000Z</time>
      </trkpt>
      <trkpt lat="40.07768184877932071685791015625" lon="0.01210288144648075103759765625">
        <ele>547.4000244140625</ele>
        <time>2023-01-27T09:21:49.000Z</time>
      </trkpt>
      <trkpt lat="40.07764915935695171356201171875" lon="0.01209215261042118072509765625">
        <ele>547.4000244140625</ele>
        <time>2023-01-27T09:21:50.000Z</time>
      </trkpt>
      <trkpt lat="40.07761982269585132598876953125" lon="0.0120758078992366790771484375">
        <ele>547.5999755859375</ele>
        <time>2023-01-27T09:21:51.000Z</time>
      </trkpt>
      <trkpt lat="40.07759719155728816986083984375" lon="0.01205778680741786956787109375">
        <ele>547.5999755859375</ele>
        <time>2023-01-27T09:21:52.000Z</time>
      </trkpt>
      <trkpt lat="40.0775642506778240203857421875" lon="0.0120251812040805816650390625">
        <ele>547.79998779296875</ele>
        <time>2023-01-27T09:21:53.000Z</time>
      </trkpt>
      <trkpt lat="40.0775414519011974334716796875" lon="0.011991150677204132080078125">
        <ele>548</ele>
        <time>2023-01-27T09:21:54.000Z</time>
      </trkpt>
      <trkpt lat="40.07751957513391971588134765625" lon="0.011956952512264251708984375">
        <ele>548.20001220703125</ele>
        <time>2023-01-27T09:21:55.000Z</time>
      </trkpt>
      <trkpt lat="40.0775042362511157989501953125" lon="0.01192803494632244110107421875">
        <ele>548.4000244140625</ele>
        <time>2023-01-27T09:21:56.000Z</time>
      </trkpt>
      <trkpt lat="40.0774841196835041046142578125" lon="0.01188981346786022186279296875">
        <ele>548.79998779296875</ele>
        <time>2023-01-27T09:21:57.000Z</time>
      </trkpt>
      <trkpt lat="40.0774593092501163482666015625" lon="0.01184170134365558624267578125">
        <ele>549</ele>
        <time>2023-01-27T09:21:58.000Z</time>
      </trkpt>
      <trkpt lat="40.07744246162474155426025390625" lon="0.01180934719741344451904296875">
        <ele>549</ele>
        <time>2023-01-27T09:21:59.000Z</time>
      </trkpt>
      <trkpt lat="40.07741781882941722869873046875" lon="0.01177020370960235595703125">
        <ele>549.20001220703125</ele>
        <time>2023-01-27T09:22:00.000Z</time>
      </trkpt>
      <trkpt lat="40.0773956067860126495361328125" lon="0.0117279589176177978515625">
        <ele>549.20001220703125</ele>
        <time>2023-01-27T09:22:01.000Z</time>
      </trkpt>
      <trkpt lat="40.07737255655229091644287109375" lon="0.01168780960142612457275390625">
        <ele>549.20001220703125</ele>
        <time>2023-01-27T09:22:02.000Z</time>
      </trkpt>
      <trkpt lat="40.07734355516731739044189453125" lon="0.01164145767688751220703125">
        <ele>549.20001220703125</ele>
        <time>2023-01-27T09:22:03.000Z</time>
      </trkpt>
      <trkpt lat="40.0773198343813419342041015625" lon="0.011603571474552154541015625">
        <ele>549.20001220703125</ele>
        <time>2023-01-27T09:22:04.000Z</time>
      </trkpt>
      <trkpt lat="40.07730332203209400177001953125" lon="0.0115698762238025665283203125">
        <ele>549.79998779296875</ele>
        <time>2023-01-27T09:22:05.000Z</time>
      </trkpt>
      <trkpt lat="40.07728303782641887664794921875" lon="0.01152771525084972381591796875">
        <ele>550</ele>
        <time>2023-01-27T09:22:06.000Z</time>
      </trkpt>
      <trkpt lat="40.07725671865046024322509765625" lon="0.01147910021245479583740234375">
        <ele>550.20001220703125</ele>
        <time>2023-01-27T09:22:07.000Z</time>
      </trkpt>
      <trkpt lat="40.07723517715930938720703125" lon="0.0114394538104534149169921875">
        <ele>550.4000244140625</ele>
        <time>2023-01-27T09:22:08.000Z</time>
      </trkpt>
      <trkpt lat="40.07721212692558765411376953125" lon="0.0114022381603717803955078125">
        <ele>550.5999755859375</ele>
        <time>2023-01-27T09:22:09.000Z</time>
      </trkpt>
      <trkpt lat="40.077187232673168182373046875" lon="0.0113670341670513153076171875">
        <ele>550.79998779296875</ele>
        <time>2023-01-27T09:22:10.000Z</time>
      </trkpt>
      <trkpt lat="40.07716820575296878814697265625" lon="0.0113398768007755279541015625">
        <ele>551.20001220703125</ele>
        <time>2023-01-27T09:22:11.000Z</time>
      </trkpt>
      <trkpt lat="40.0771444849669933319091796875" lon="0.01130676828324794769287109375">
        <ele>551.20001220703125</ele>
        <time>2023-01-27T09:22:12.000Z</time>
      </trkpt>
      <trkpt lat="40.0771173276007175445556640625" lon="0.01126460731029510498046875">
        <ele>551.5999755859375</ele>
        <time>2023-01-27T09:22:13.000Z</time>
      </trkpt>
      <trkpt lat="40.07709167897701263427734375" lon="0.0112344324588775634765625">
        <ele>551.5999755859375</ele>
        <time>2023-01-27T09:22:14.000Z</time>
      </trkpt>
      <trkpt lat="40.0770646892488002777099609375" lon="0.0112054310739040374755859375">
        <ele>551.79998779296875</ele>
        <time>2023-01-27T09:22:15.000Z</time>
      </trkpt>
      <trkpt lat="40.07704029791057109832763671875" lon="0.01118816435337066650390625">
        <ele>552</ele>
        <time>2023-01-27T09:22:16.000Z</time>
      </trkpt>
      <trkpt lat="40.077006518840789794921875" lon="0.01117031089961528778076171875">
        <ele>552</ele>
        <time>2023-01-27T09:22:17.000Z</time>
      </trkpt>
      <trkpt lat="40.07697173394262790679931640625" lon="0.01115522347390651702880859375">
        <ele>552</ele>
        <time>2023-01-27T09:22:18.000Z</time>
      </trkpt>
      <trkpt lat="40.076925717294216156005859375" lon="0.01114013604819774627685546875">
        <ele>552.20001220703125</ele>
        <time>2023-01-27T09:22:19.000Z</time>
      </trkpt>
      <trkpt lat="40.0768873281776905059814453125" lon="0.01113125123083591461181640625">
        <ele>552.20001220703125</ele>
        <time>2023-01-27T09:22:20.000Z</time>
      </trkpt>
      <trkpt lat="40.07685698568820953369140625" lon="0.01112638972699642181396484375">
        <ele>552.20001220703125</ele>
        <time>2023-01-27T09:22:21.000Z</time>
      </trkpt>
      <trkpt lat="40.07681918330490589141845703125" lon="0.011119432747364044189453125">
        <ele>552.20001220703125</ele>
        <time>2023-01-27T09:22:22.000Z</time>
      </trkpt>
      <trkpt lat="40.0767740048468112945556640625" lon="0.011112727224826812744140625">
        <ele>552.20001220703125</ele>
        <time>2023-01-27T09:22:23.000Z</time>
      </trkpt>
      <trkpt lat="40.07673687301576137542724609375" lon="0.01110862009227275848388671875">
        <ele>552.20001220703125</ele>
        <time>2023-01-27T09:22:24.000Z</time>
      </trkpt>
      <trkpt lat="40.07669982500374317169189453125" lon="0.0111014954745769500732421875">
        <ele>552.20001220703125</ele>
        <time>2023-01-27T09:22:25.000Z</time>
      </trkpt>
      <trkpt lat="40.07666948251426219940185546875" lon="0.01109470613300800323486328125">
        <ele>552.4000244140625</ele>
        <time>2023-01-27T09:22:26.000Z</time>
      </trkpt>
      <trkpt lat="40.07662899792194366455078125" lon="0.01108967699110507965087890625">
        <ele>552.4000244140625</ele>
        <time>2023-01-27T09:22:27.000Z</time>
      </trkpt>
      <trkpt lat="40.0765785388648509979248046875" lon="0.011086575686931610107421875">
        <ele>552.5999755859375</ele>
        <time>2023-01-27T09:22:28.000Z</time>
      </trkpt>
      <trkpt lat="40.07653470151126384735107421875" lon="0.0110828876495361328125">
        <ele>552.5999755859375</ele>
        <time>2023-01-27T09:22:29.000Z</time>
      </trkpt>
      <trkpt lat="40.07649882696568965911865234375" lon="0.0110827200114727020263671875">
        <ele>552.5999755859375</ele>
        <time>2023-01-27T09:22:30.000Z</time>
      </trkpt>
      <trkpt lat="40.076454319059848785400390625" lon="0.01108213327825069427490234375">
        <ele>552.4000244140625</ele>
        <time>2023-01-27T09:22:31.000Z</time>
      </trkpt>
      <trkpt lat="40.0763976573944091796875" lon="0.0110840611159801483154296875">
        <ele>552.4000244140625</ele>
        <time>2023-01-27T09:22:32.000Z</time>
      </trkpt>
      <trkpt lat="40.0763596035540103912353515625" lon="0.011088587343692779541015625">
        <ele>552.20001220703125</ele>
        <time>2023-01-27T09:22:33.000Z</time>
      </trkpt>
      <trkpt lat="40.07630336098372936248779296875" lon="0.01109822653234004974365234375">
        <ele>552.20001220703125</ele>
        <time>2023-01-27T09:22:34.000Z</time>
      </trkpt>
      <trkpt lat="40.07611560635268688201904296875" lon="0.01112119294703006744384765625">
        <ele>552</ele>
        <time>2023-01-27T09:22:38.000Z</time>
      </trkpt>
      <trkpt lat="40.0760062225162982940673828125" lon="0.0111283175647258758544921875">
        <ele>551.79998779296875</ele>
        <time>2023-01-27T09:22:40.000Z</time>
      </trkpt>
      <trkpt lat="40.0759525783360004425048828125" lon="0.01112655736505985260009765625">
        <ele>551.79998779296875</ele>
        <time>2023-01-27T09:22:41.000Z</time>
      </trkpt>
      <trkpt lat="40.07583615370094776153564453125" lon="0.01111532561480998992919921875">
        <ele>551.5999755859375</ele>
        <time>2023-01-27T09:22:43.000Z</time>
      </trkpt>
      <trkpt lat="40.0757968425750732421875" lon="0.01110292039811611175537109375">
        <ele>551.5999755859375</ele>
        <time>2023-01-27T09:22:44.000Z</time>
      </trkpt>
      <trkpt lat="40.0757487304508686065673828125" lon="0.01108313910663127899169921875">
        <ele>551.4000244140625</ele>
        <time>2023-01-27T09:22:45.000Z</time>
      </trkpt>
      <trkpt lat="40.075699947774410247802734375" lon="0.0110654532909393310546875">
        <ele>551.20001220703125</ele>
        <time>2023-01-27T09:22:46.000Z</time>
      </trkpt>
      <trkpt lat="40.07564085535705089569091796875" lon="0.011053048074245452880859375">
        <ele>551</ele>
        <time>2023-01-27T09:22:47.000Z</time>
      </trkpt>
      <trkpt lat="40.0755358301103115081787109375" lon="0.0110592506825923919677734375">
        <ele>550.5999755859375</ele>
        <time>2023-01-27T09:22:49.000Z</time>
      </trkpt>
      <trkpt lat="40.075488388538360595703125" lon="0.01107324846088886260986328125">
        <ele>550.4000244140625</ele>
        <time>2023-01-27T09:22:50.000Z</time>
      </trkpt>
      <trkpt lat="40.07544002495706081390380859375" lon="0.01109956763684749603271484375">
        <ele>550.20001220703125</ele>
        <time>2023-01-27T09:22:51.000Z</time>
      </trkpt>
      <trkpt lat="40.07539090700447559356689453125" lon="0.01113141886889934539794921875">
        <ele>550.20001220703125</ele>
        <time>2023-01-27T09:22:52.000Z</time>
      </trkpt>
      <trkpt lat="40.0753390230238437652587890625" lon="0.01116410829126834869384765625">
        <ele>550.20001220703125</ele>
        <time>2023-01-27T09:22:53.000Z</time>
      </trkpt>
      <trkpt lat="40.0752337463200092315673828125" lon="0.0112116336822509765625">
        <ele>550</ele>
        <time>2023-01-27T09:22:55.000Z</time>
      </trkpt>
      <trkpt lat="40.07513358257710933685302734375" lon="0.0111995637416839599609375">
        <ele>550</ele>
        <time>2023-01-27T09:22:57.000Z</time>
      </trkpt>
      <trkpt lat="40.075083039700984954833984375" lon="0.01117567531764507293701171875">
        <ele>549.79998779296875</ele>
        <time>2023-01-27T09:22:58.000Z</time>
      </trkpt>
      <trkpt lat="40.075036101043224334716796875" lon="0.0111444108188152313232421875">
        <ele>549.79998779296875</ele>
        <time>2023-01-27T09:22:59.000Z</time>
      </trkpt>
      <trkpt lat="40.074991174042224884033203125" lon="0.011107027530670166015625">
        <ele>549.5999755859375</ele>
        <time>2023-01-27T09:23:00.000Z</time>
      </trkpt>
      <trkpt lat="40.074944235384464263916015625" lon="0.01105028204619884490966796875">
        <ele>549.5999755859375</ele>
        <time>2023-01-27T09:23:01.000Z</time>
      </trkpt>
      <trkpt lat="40.0748739950358867645263671875" lon="0.0109449215233325958251953125">
        <ele>549.4000244140625</ele>
        <time>2023-01-27T09:23:03.000Z</time>
      </trkpt>
      <trkpt lat="40.0747673772275447845458984375" lon="0.01072841696441173553466796875">
        <ele>549</ele>
        <time>2023-01-27T09:23:06.000Z</time>
      </trkpt>
      <trkpt lat="40.07473267614841461181640625" lon="0.01066655851900577545166015625">
        <ele>548.79998779296875</ele>
        <time>2023-01-27T09:23:07.000Z</time>
      </trkpt>
      <trkpt lat="40.0746044330298900604248046875" lon="0.010409317910671234130859375">
        <ele>548.20001220703125</ele>
        <time>2023-01-27T09:23:11.000Z</time>
      </trkpt>
      <trkpt lat="40.0745093822479248046875" lon="0.0102187134325504302978515625">
        <ele>547.5999755859375</ele>
        <time>2023-01-27T09:23:14.000Z</time>
      </trkpt>
      <trkpt lat="40.07447476498782634735107421875" lon="0.01016112975776195526123046875">
        <ele>547.4000244140625</ele>
        <time>2023-01-27T09:23:15.000Z</time>
      </trkpt>
      <trkpt lat="40.07443570531904697418212890625" lon="0.01011938787996768951416015625">
        <ele>547.4000244140625</ele>
        <time>2023-01-27T09:23:16.000Z</time>
      </trkpt>
      <trkpt lat="40.0743905268609523773193359375" lon="0.0100864470005035400390625">
        <ele>547.4000244140625</ele>
        <time>2023-01-27T09:23:17.000Z</time>
      </trkpt>
      <trkpt lat="40.07434266619384288787841796875" lon="0.01005602069199085235595703125">
        <ele>547.4000244140625</ele>
        <time>2023-01-27T09:23:18.000Z</time>
      </trkpt>
      <trkpt lat="40.0743016786873340606689453125" lon="0.0100356526672840118408203125">
        <ele>547.20001220703125</ele>
        <time>2023-01-27T09:23:19.000Z</time>
      </trkpt>
      <trkpt lat="40.0742423348128795623779296875" lon="0.01000665128231048583984375">
        <ele>547.20001220703125</ele>
        <time>2023-01-27T09:23:20.000Z</time>
      </trkpt>
      <trkpt lat="40.07413320243358612060546875" lon="0.009970106184482574462890625">
        <ele>546.79998779296875</ele>
        <time>2023-01-27T09:23:22.000Z</time>
      </trkpt>
      <trkpt lat="40.07409070618450641632080078125" lon="0.00995862297713756561279296875">
        <ele>546.5999755859375</ele>
        <time>2023-01-27T09:23:23.000Z</time>
      </trkpt>
      <trkpt lat="40.0740368105471134185791015625" lon="0.00994806177914142608642578125">
        <ele>546.20001220703125</ele>
        <time>2023-01-27T09:23:24.000Z</time>
      </trkpt>
      <trkpt lat="40.07378979586064815521240234375" lon="0.00990514643490314483642578125">
        <ele>546.20001220703125</ele>
        <time>2023-01-27T09:23:28.000Z</time>
      </trkpt>
      <trkpt lat="40.0736609660089015960693359375" lon="0.00986315310001373291015625">
        <ele>545.5999755859375</ele>
        <time>2023-01-27T09:23:30.000Z</time>
      </trkpt>
      <trkpt lat="40.0736183859407901763916015625" lon="0.00984479673206806182861328125">
        <ele>545.5999755859375</ele>
        <time>2023-01-27T09:23:31.000Z</time>
      </trkpt>
      <trkpt lat="40.07356725633144378662109375" lon="0.009831972420215606689453125">
        <ele>545.20001220703125</ele>
        <time>2023-01-27T09:23:32.000Z</time>
      </trkpt>
      <trkpt lat="40.07352056913077831268310546875" lon="0.00982518307864665985107421875">
        <ele>545</ele>
        <time>2023-01-27T09:23:33.000Z</time>
      </trkpt>
      <trkpt lat="40.07347580976784229278564453125" lon="0.00983096659183502197265625">
        <ele>544.79998779296875</ele>
        <time>2023-01-27T09:23:34.000Z</time>
      </trkpt>
      <trkpt lat="40.07342266850173473358154296875" lon="0.00985267572104930877685546875">
        <ele>544.5999755859375</ele>
        <time>2023-01-27T09:23:35.000Z</time>
      </trkpt>
      <trkpt lat="40.07337908260524272918701171875" lon="0.0098787434399127960205078125">
        <ele>544.5999755859375</ele>
        <time>2023-01-27T09:23:36.000Z</time>
      </trkpt>
      <trkpt lat="40.07334471680223941802978515625" lon="0.00990883447229862213134765625">
        <ele>544.5999755859375</ele>
        <time>2023-01-27T09:23:37.000Z</time>
      </trkpt>
      <trkpt lat="40.073311440646648406982421875" lon="0.0099582038819789886474609375">
        <ele>544.20001220703125</ele>
        <time>2023-01-27T09:23:38.000Z</time>
      </trkpt>
      <trkpt lat="40.07328051142394542694091796875" lon="0.01001561991870403289794921875">
        <ele>544</ele>
        <time>2023-01-27T09:23:39.000Z</time>
      </trkpt>
      <trkpt lat="40.0732512585818767547607421875" lon="0.01007781364023685455322265625">
        <ele>543.5999755859375</ele>
        <time>2023-01-27T09:23:40.000Z</time>
      </trkpt>
      <trkpt lat="40.0732217542827129364013671875" lon="0.01014319248497486114501953125">
        <ele>543.4000244140625</ele>
        <time>2023-01-27T09:23:41.000Z</time>
      </trkpt>
      <trkpt lat="40.07319183088839054107666015625" lon="0.01021108590066432952880859375">
        <ele>543.20001220703125</ele>
        <time>2023-01-27T09:23:42.000Z</time>
      </trkpt>
      <trkpt lat="40.07316165603697299957275390625" lon="0.01028400845825672149658203125">
        <ele>543.20001220703125</ele>
        <time>2023-01-27T09:23:43.000Z</time>
      </trkpt>
      <trkpt lat="40.07310365326702594757080078125" lon="0.01043924130499362945556640625">
        <ele>542.4000244140625</ele>
        <time>2023-01-27T09:23:45.000Z</time>
      </trkpt>
      <trkpt lat="40.07305562496185302734375" lon="0.010585002601146697998046875">
        <ele>540.79998779296875</ele>
        <time>2023-01-27T09:23:47.000Z</time>
      </trkpt>
      <trkpt lat="40.073039866983890533447265625" lon="0.0106438435614109039306640625">
        <ele>540.4000244140625</ele>
        <time>2023-01-27T09:23:48.000Z</time>
      </trkpt>
      <trkpt lat="40.0730236060917377471923828125" lon="0.01069421879947185516357421875">
        <ele>539.5999755859375</ele>
        <time>2023-01-27T09:23:49.000Z</time>
      </trkpt>
      <trkpt lat="40.0730081833899021148681640625" lon="0.0107414089143276214599609375">
        <ele>539.4000244140625</ele>
        <time>2023-01-27T09:23:50.000Z</time>
      </trkpt>
      <trkpt lat="40.07299594581127166748046875" lon="0.01078759320080280303955078125">
        <ele>539</ele>
        <time>2023-01-27T09:23:51.000Z</time>
      </trkpt>
      <trkpt lat="40.07298546843230724334716796875" lon="0.0108336098492145538330078125">
        <ele>538.4000244140625</ele>
        <time>2023-01-27T09:23:52.000Z</time>
      </trkpt>
      <trkpt lat="40.072970800101757049560546875" lon="0.01088214106857776641845703125">
        <ele>537.79998779296875</ele>
        <time>2023-01-27T09:23:53.000Z</time>
      </trkpt>
      <trkpt lat="40.0729562155902385711669921875" lon="0.01092757098376750946044921875">
        <ele>537.5999755859375</ele>
        <time>2023-01-27T09:23:54.000Z</time>
      </trkpt>
      <trkpt lat="40.07294406183063983917236328125" lon="0.01096545718610286712646484375">
        <ele>537</ele>
        <time>2023-01-27T09:23:55.000Z</time>
      </trkpt>
      <trkpt lat="40.07293132133781909942626953125" lon="0.0110039301216602325439453125">
        <ele>536.4000244140625</ele>
        <time>2023-01-27T09:23:56.000Z</time>
      </trkpt>
      <trkpt lat="40.07292092777788639068603515625" lon="0.0110428221523761749267578125">
        <ele>535.5999755859375</ele>
        <time>2023-01-27T09:23:57.000Z</time>
      </trkpt>
      <trkpt lat="40.07291413843631744384765625" lon="0.01108095981180667877197265625">
        <ele>535.20001220703125</ele>
        <time>2023-01-27T09:23:58.000Z</time>
      </trkpt>
      <trkpt lat="40.072910785675048828125" lon="0.0111239589750766754150390625">
        <ele>534.5999755859375</ele>
        <time>2023-01-27T09:23:59.000Z</time>
      </trkpt>
      <trkpt lat="40.0729102827608585357666015625" lon="0.01122579909861087799072265625">
        <ele>533.4000244140625</ele>
        <time>2023-01-27T09:24:01.000Z</time>
      </trkpt>
      <trkpt lat="40.072884969413280487060546875" lon="0.01136342994868755340576171875">
        <ele>532.20001220703125</ele>
        <time>2023-01-27T09:24:04.000Z</time>
      </trkpt>
      <trkpt lat="40.07287432439625263214111328125" lon="0.0114656053483486175537109375">
        <ele>531.79998779296875</ele>
        <time>2023-01-27T09:24:06.000Z</time>
      </trkpt>
      <trkpt lat="40.07287180982530117034912109375" lon="0.01170624978840351104736328125">
        <ele>531.20001220703125</ele>
        <time>2023-01-27T09:24:10.000Z</time>
      </trkpt>
      <trkpt lat="40.072876252233982086181640625" lon="0.011768527328968048095703125">
        <ele>531.20001220703125</ele>
        <time>2023-01-27T09:24:11.000Z</time>
      </trkpt>
      <trkpt lat="40.07288337685167789459228515625" lon="0.0118243508040904998779296875">
        <ele>531.20001220703125</ele>
        <time>2023-01-27T09:24:12.000Z</time>
      </trkpt>
      <trkpt lat="40.07289192639291286468505859375" lon="0.01187707297503948211669921875">
        <ele>531</ele>
        <time>2023-01-27T09:24:13.000Z</time>
      </trkpt>
      <trkpt lat="40.07289930246770381927490234375" lon="0.0119319744408130645751953125">
        <ele>530.5999755859375</ele>
        <time>2023-01-27T09:24:14.000Z</time>
      </trkpt>
      <trkpt lat="40.07290500216186046600341796875" lon="0.01198905520141124725341796875">
        <ele>530.4000244140625</ele>
        <time>2023-01-27T09:24:15.000Z</time>
      </trkpt>
      <trkpt lat="40.07291405461728572845458984375" lon="0.01209634356200695037841796875">
        <ele>530.4000244140625</ele>
        <time>2023-01-27T09:24:17.000Z</time>
      </trkpt>
      <trkpt lat="40.0729176588356494903564453125" lon="0.01214629970490932464599609375">
        <ele>530.4000244140625</ele>
        <time>2023-01-27T09:24:18.000Z</time>
      </trkpt>
      <trkpt lat="40.07292143069207668304443359375" lon="0.01219667494297027587890625">
        <ele>530.5999755859375</ele>
        <time>2023-01-27T09:24:19.000Z</time>
      </trkpt>
      <trkpt lat="40.0729250349104404449462890625" lon="0.01224386505782604217529296875">
        <ele>530.79998779296875</ele>
        <time>2023-01-27T09:24:20.000Z</time>
      </trkpt>
      <trkpt lat="40.0729277171194553375244140625" lon="0.01228661276400089263916015625">
        <ele>530.79998779296875</ele>
        <time>2023-01-27T09:24:21.000Z</time>
      </trkpt>
      <trkpt lat="40.07292889058589935302734375" lon="0.01232449896633625030517578125">
        <ele>530.79998779296875</ele>
        <time>2023-01-27T09:24:22.000Z</time>
      </trkpt>
      <trkpt lat="40.07293157279491424560546875" lon="0.012356936931610107421875">
        <ele>531.20001220703125</ele>
        <time>2023-01-27T09:24:23.000Z</time>
      </trkpt>
      <trkpt lat="40.07293467409908771514892578125" lon="0.01239105127751827239990234375">
        <ele>531.20001220703125</ele>
        <time>2023-01-27T09:24:24.000Z</time>
      </trkpt>
      <trkpt lat="40.07294003851711750030517578125" lon="0.0124211423099040985107421875">
        <ele>531.79998779296875</ele>
        <time>2023-01-27T09:24:25.000Z</time>
      </trkpt>
      <trkpt lat="40.072941966354846954345703125" lon="0.01245156861841678619384765625">
        <ele>532.20001220703125</ele>
        <time>2023-01-27T09:24:26.000Z</time>
      </trkpt>
      <trkpt lat="40.0729464925825595855712890625" lon="0.01247227191925048828125">
        <ele>532.5999755859375</ele>
        <time>2023-01-27T09:24:27.000Z</time>
      </trkpt>
      <trkpt lat="40.07296501658856868743896484375" lon="0.012531280517578125">
        <ele>533.20001220703125</ele>
        <time>2023-01-27T09:24:29.000Z</time>
      </trkpt>
      <trkpt lat="40.07297306321561336517333984375" lon="0.0125656463205814361572265625">
        <ele>533.4000244140625</ele>
        <time>2023-01-27T09:24:30.000Z</time>
      </trkpt>
      <trkpt lat="40.072978176176548004150390625" lon="0.01260328106582164764404296875">
        <ele>533.79998779296875</ele>
        <time>2023-01-27T09:24:31.000Z</time>
      </trkpt>
      <trkpt lat="40.07298312149941921234130859375" lon="0.012640915811061859130859375">
        <ele>534.20001220703125</ele>
        <time>2023-01-27T09:24:32.000Z</time>
      </trkpt>
      <trkpt lat="40.07299653254449367523193359375" lon="0.01271358691155910491943359375">
        <ele>534.79998779296875</ele>
        <time>2023-01-27T09:24:34.000Z</time>
      </trkpt>
      <trkpt lat="40.0730060040950775146484375" lon="0.01274786889553070068359375">
        <ele>535</ele>
        <time>2023-01-27T09:24:35.000Z</time>
      </trkpt>
      <trkpt lat="40.0730380229651927947998046875" lon="0.0128866732120513916015625">
        <ele>536</ele>
        <time>2023-01-27T09:24:39.000Z</time>
      </trkpt>
      <trkpt lat="40.0730443932116031646728515625" lon="0.01292397268116474151611328125">
        <ele>536.4000244140625</ele>
        <time>2023-01-27T09:24:40.000Z</time>
      </trkpt>
      <trkpt lat="40.07305336184799671173095703125" lon="0.01296068541705608367919921875">
        <ele>536.4000244140625</ele>
        <time>2023-01-27T09:24:41.000Z</time>
      </trkpt>
      <trkpt lat="40.073061995208263397216796875" lon="0.01299597322940826416015625">
        <ele>536.79998779296875</ele>
        <time>2023-01-27T09:24:42.000Z</time>
      </trkpt>
      <trkpt lat="40.07306576706469058990478515625" lon="0.01302975229918956756591796875">
        <ele>536.79998779296875</ele>
        <time>2023-01-27T09:24:43.000Z</time>
      </trkpt>
      <trkpt lat="40.0730712153017520904541015625" lon="0.01306110061705112457275390625">
        <ele>537</ele>
        <time>2023-01-27T09:24:44.000Z</time>
      </trkpt>
      <trkpt lat="40.07307833991944789886474609375" lon="0.01309278421103954315185546875">
        <ele>537.20001220703125</ele>
        <time>2023-01-27T09:24:45.000Z</time>
      </trkpt>
      <trkpt lat="40.07308772765100002288818359375" lon="0.0131242163479328155517578125">
        <ele>537.4000244140625</ele>
        <time>2023-01-27T09:24:46.000Z</time>
      </trkpt>
      <trkpt lat="40.07309627719223499298095703125" lon="0.0131548941135406494140625">
        <ele>537.4000244140625</ele>
        <time>2023-01-27T09:24:47.000Z</time>
      </trkpt>
      <trkpt lat="40.07310398854315280914306640625" lon="0.01318917609751224517822265625">
        <ele>537.4000244140625</ele>
        <time>2023-01-27T09:24:48.000Z</time>
      </trkpt>
      <trkpt lat="40.073116309940814971923828125" lon="0.01323276199400424957275390625">
        <ele>537.4000244140625</ele>
        <time>2023-01-27T09:24:49.000Z</time>
      </trkpt>
      <trkpt lat="40.073126368224620819091796875" lon="0.01327249221503734588623046875">
        <ele>537.4000244140625</ele>
        <time>2023-01-27T09:24:50.000Z</time>
      </trkpt>
      <trkpt lat="40.07313600741326808929443359375" lon="0.0133131444454193115234375">
        <ele>537.4000244140625</ele>
        <time>2023-01-27T09:24:51.000Z</time>
      </trkpt>
      <trkpt lat="40.0731466524302959442138671875" lon="0.01335270702838897705078125">
        <ele>537.4000244140625</ele>
        <time>2023-01-27T09:24:52.000Z</time>
      </trkpt>
      <trkpt lat="40.0731580518186092376708984375" lon="0.01338958740234375">
        <ele>537.5999755859375</ele>
        <time>2023-01-27T09:24:53.000Z</time>
      </trkpt>
      <trkpt lat="40.07316752336919307708740234375" lon="0.01342806033790111541748046875">
        <ele>537.5999755859375</ele>
        <time>2023-01-27T09:24:54.000Z</time>
      </trkpt>
      <trkpt lat="40.0731754861772060394287109375" lon="0.01346628181636333465576171875">
        <ele>537.79998779296875</ele>
        <time>2023-01-27T09:24:55.000Z</time>
      </trkpt>
      <trkpt lat="40.07318462245166301727294921875" lon="0.0134987197816371917724609375">
        <ele>537.79998779296875</ele>
        <time>2023-01-27T09:24:56.000Z</time>
      </trkpt>
      <trkpt lat="40.0731935910880565643310546875" lon="0.01352981664240360260009765625">
        <ele>537.79998779296875</ele>
        <time>2023-01-27T09:24:57.000Z</time>
      </trkpt>
      <trkpt lat="40.07320088334381580352783203125" lon="0.0135573931038379669189453125">
        <ele>537.5999755859375</ele>
        <time>2023-01-27T09:24:58.000Z</time>
      </trkpt>
      <trkpt lat="40.07320775650441646575927734375" lon="0.01358631066977977752685546875">
        <ele>537.5999755859375</ele>
        <time>2023-01-27T09:24:59.000Z</time>
      </trkpt>
      <trkpt lat="40.0732150487601757049560546875" lon="0.01361631788313388824462890625">
        <ele>537.79998779296875</ele>
        <time>2023-01-27T09:25:00.000Z</time>
      </trkpt>
      <trkpt lat="40.07322125136852264404296875" lon="0.0136435590684413909912109375">
        <ele>538.20001220703125</ele>
        <time>2023-01-27T09:25:01.000Z</time>
      </trkpt>
      <trkpt lat="40.0732314772903919219970703125" lon="0.01366644166409969329833984375">
        <ele>538.4000244140625</ele>
        <time>2023-01-27T09:25:02.000Z</time>
      </trkpt>
      <trkpt lat="40.07323944009840488433837890625" lon="0.01369259320199489593505859375">
        <ele>538.79998779296875</ele>
        <time>2023-01-27T09:25:03.000Z</time>
      </trkpt>
      <trkpt lat="40.07324413396418094635009765625" lon="0.01371874473989009857177734375">
        <ele>539</ele>
        <time>2023-01-27T09:25:04.000Z</time>
      </trkpt>
      <trkpt lat="40.07324547506868839263916015625" lon="0.0137381069362163543701171875">
        <ele>539.20001220703125</ele>
        <time>2023-01-27T09:25:05.000Z</time>
      </trkpt>
      <trkpt lat="40.0732485763728618621826171875" lon="0.01376568339765071868896484375">
        <ele>539.79998779296875</ele>
        <time>2023-01-27T09:25:06.000Z</time>
      </trkpt>
      <trkpt lat="40.07325075566768646240234375" lon="0.013788901269435882568359375">
        <ele>540</ele>
        <time>2023-01-27T09:25:07.000Z</time>
      </trkpt>
      <trkpt lat="40.07325033657252788543701171875" lon="0.01381530426442623138427734375">
        <ele>540.4000244140625</ele>
        <time>2023-01-27T09:25:08.000Z</time>
      </trkpt>
      <trkpt lat="40.0732539407908916473388671875" lon="0.01384128816425800323486328125">
        <ele>540.5999755859375</ele>
        <time>2023-01-27T09:25:09.000Z</time>
      </trkpt>
      <trkpt lat="40.0732579641044139862060546875" lon="0.013867355883121490478515625">
        <ele>540.79998779296875</ele>
        <time>2023-01-27T09:25:10.000Z</time>
      </trkpt>
      <trkpt lat="40.07326240651309490203857421875" lon="0.01389593817293643951416015625">
        <ele>541</ele>
        <time>2023-01-27T09:25:11.000Z</time>
      </trkpt>
      <trkpt lat="40.07326592691242694854736328125" lon="0.0139246881008148193359375">
        <ele>541.4000244140625</ele>
        <time>2023-01-27T09:25:12.000Z</time>
      </trkpt>
      <trkpt lat="40.07326877675950527191162109375" lon="0.0139530189335346221923828125">
        <ele>541.4000244140625</ele>
        <time>2023-01-27T09:25:13.000Z</time>
      </trkpt>
      <trkpt lat="40.07327430881559848785400390625" lon="0.01397606916725635528564453125">
        <ele>541.5999755859375</ele>
        <time>2023-01-27T09:25:14.000Z</time>
      </trkpt>
      <trkpt lat="40.0732795894145965576171875" lon="0.0139969401061534881591796875">
        <ele>541.5999755859375</ele>
        <time>2023-01-27T09:25:15.000Z</time>
      </trkpt>
      <trkpt lat="40.073285959661006927490234375" lon="0.0140167213976383209228515625">
        <ele>541.79998779296875</ele>
        <time>2023-01-27T09:25:16.000Z</time>
      </trkpt>
      <trkpt lat="40.07329098880290985107421875" lon="0.014038346707820892333984375">
        <ele>542.20001220703125</ele>
        <time>2023-01-27T09:25:17.000Z</time>
      </trkpt>
      <trkpt lat="40.07329509593546390533447265625" lon="0.014057792723178863525390625">
        <ele>543</ele>
        <time>2023-01-27T09:25:18.000Z</time>
      </trkpt>
      <trkpt lat="40.07329744286835193634033203125" lon="0.01408134587109088897705078125">
        <ele>543.20001220703125</ele>
        <time>2023-01-27T09:25:19.000Z</time>
      </trkpt>
      <trkpt lat="40.07329928688704967498779296875" lon="0.01410481519997119903564453125">
        <ele>543.5999755859375</ele>
        <time>2023-01-27T09:25:20.000Z</time>
      </trkpt>
      <trkpt lat="40.07330196909606456756591796875" lon="0.0141285359859466552734375">
        <ele>544</ele>
        <time>2023-01-27T09:25:21.000Z</time>
      </trkpt>
      <trkpt lat="40.0733028911054134368896484375" lon="0.01414471305906772613525390625">
        <ele>544.20001220703125</ele>
        <time>2023-01-27T09:25:22.000Z</time>
      </trkpt>
      <trkpt lat="40.07330481894314289093017578125" lon="0.0141635723412036895751953125">
        <ele>544.5999755859375</ele>
        <time>2023-01-27T09:25:23.000Z</time>
      </trkpt>
      <trkpt lat="40.07329903542995452880859375" lon="0.01418829895555973052978515625">
        <ele>544.79998779296875</ele>
        <time>2023-01-27T09:25:24.000Z</time>
      </trkpt>
      <trkpt lat="40.073294341564178466796875" lon="0.014216713607311248779296875">
        <ele>545.20001220703125</ele>
        <time>2023-01-27T09:25:25.000Z</time>
      </trkpt>
      <trkpt lat="40.07329006679356098175048828125" lon="0.01425250433385372161865234375">
        <ele>545.5999755859375</ele>
        <time>2023-01-27T09:25:26.000Z</time>
      </trkpt>
      <trkpt lat="40.0732881389558315277099609375" lon="0.01427966170012950897216796875">
        <ele>546.4000244140625</ele>
        <time>2023-01-27T09:25:27.000Z</time>
      </trkpt>
      <trkpt lat="40.07328487001359462738037109375" lon="0.0143162906169891357421875">
        <ele>546.79998779296875</ele>
        <time>2023-01-27T09:25:28.000Z</time>
      </trkpt>
      <trkpt lat="40.073279254138469696044921875" lon="0.014346800744533538818359375">
        <ele>547.20001220703125</ele>
        <time>2023-01-27T09:25:29.000Z</time>
      </trkpt>
      <trkpt lat="40.0732720457017421722412109375" lon="0.014374293386936187744140625">
        <ele>547.4000244140625</ele>
        <time>2023-01-27T09:25:30.000Z</time>
      </trkpt>
      <trkpt lat="40.07326860912144184112548828125" lon="0.01440186984837055206298828125">
        <ele>547.5999755859375</ele>
        <time>2023-01-27T09:25:31.000Z</time>
      </trkpt>
      <trkpt lat="40.073266513645648956298828125" lon="0.01443020068109035491943359375">
        <ele>547.79998779296875</ele>
        <time>2023-01-27T09:25:32.000Z</time>
      </trkpt>
      <trkpt lat="40.07326341234147548675537109375" lon="0.014457441866397857666015625">
        <ele>548</ele>
        <time>2023-01-27T09:25:33.000Z</time>
      </trkpt>
      <trkpt lat="40.07325788028538227081298828125" lon="0.01448803581297397613525390625">
        <ele>548.20001220703125</ele>
        <time>2023-01-27T09:25:34.000Z</time>
      </trkpt>
      <trkpt lat="40.07324899546802043914794921875" lon="0.01452139578759670257568359375">
        <ele>548.4000244140625</ele>
        <time>2023-01-27T09:25:35.000Z</time>
      </trkpt>
      <trkpt lat="40.07324513979256153106689453125" lon="0.01455366611480712890625">
        <ele>548.5999755859375</ele>
        <time>2023-01-27T09:25:36.000Z</time>
      </trkpt>
      <trkpt lat="40.07324379868805408477783203125" lon="0.0145846791565418243408203125">
        <ele>549</ele>
        <time>2023-01-27T09:25:37.000Z</time>
      </trkpt>
      <trkpt lat="40.07324698381125926971435546875" lon="0.01461409963667392730712890625">
        <ele>549.5999755859375</ele>
        <time>2023-01-27T09:25:38.000Z</time>
      </trkpt>
      <trkpt lat="40.07325385697185993194580078125" lon="0.01464419066905975341796875">
        <ele>549.79998779296875</ele>
        <time>2023-01-27T09:25:39.000Z</time>
      </trkpt>
      <trkpt lat="40.07326642982661724090576171875" lon="0.0146762095391750335693359375">
        <ele>550.20001220703125</ele>
        <time>2023-01-27T09:25:40.000Z</time>
      </trkpt>
      <trkpt lat="40.07328235544264316558837890625" lon="0.01470680348575115203857421875">
        <ele>550.20001220703125</ele>
        <time>2023-01-27T09:25:41.000Z</time>
      </trkpt>
      <trkpt lat="40.07330113090574741363525390625" lon="0.01473379321396350860595703125">
        <ele>550.79998779296875</ele>
        <time>2023-01-27T09:25:42.000Z</time>
      </trkpt>
      <trkpt lat="40.07332049310207366943359375" lon="0.01475960947573184967041015625">
        <ele>551</ele>
        <time>2023-01-27T09:25:43.000Z</time>
      </trkpt>
      <trkpt lat="40.073339603841304779052734375" lon="0.01478374935686588287353515625">
        <ele>551.5999755859375</ele>
        <time>2023-01-27T09:25:44.000Z</time>
      </trkpt>
      <trkpt lat="40.07335913367569446563720703125" lon="0.01480218954384326934814453125">
        <ele>551.79998779296875</ele>
        <time>2023-01-27T09:25:45.000Z</time>
      </trkpt>
      <trkpt lat="40.07338142953813076019287109375" lon="0.01481493003666400909423828125">
        <ele>552.20001220703125</ele>
        <time>2023-01-27T09:25:46.000Z</time>
      </trkpt>
      <trkpt lat="40.07340054027736186981201171875" lon="0.01482146792113780975341796875">
        <ele>552.4000244140625</ele>
        <time>2023-01-27T09:25:47.000Z</time>
      </trkpt>
      <trkpt lat="40.07342920638620853424072265625" lon="0.0148294307291507720947265625">
        <ele>552.5999755859375</ele>
        <time>2023-01-27T09:25:48.000Z</time>
      </trkpt>
      <trkpt lat="40.07345099933445453643798828125" lon="0.0148351304233074188232421875">
        <ele>552.79998779296875</ele>
        <time>2023-01-27T09:25:49.000Z</time>
      </trkpt>
      <trkpt lat="40.0734732113778591156005859375" lon="0.01484041102230548858642578125">
        <ele>553</ele>
        <time>2023-01-27T09:25:50.000Z</time>
      </trkpt>
      <trkpt lat="40.07349525578320026397705078125" lon="0.014842338860034942626953125">
        <ele>553.4000244140625</ele>
        <time>2023-01-27T09:25:51.000Z</time>
      </trkpt>
      <trkpt lat="40.0735154561698436737060546875" lon="0.01484393142163753509521484375">
        <ele>553.79998779296875</ele>
        <time>2023-01-27T09:25:52.000Z</time>
      </trkpt>
      <trkpt lat="40.0735375843942165374755859375" lon="0.01484912820160388946533203125">
        <ele>554</ele>
        <time>2023-01-27T09:25:53.000Z</time>
      </trkpt>
      <trkpt lat="40.07356264628469944000244140625" lon="0.0148515589535236358642578125">
        <ele>554.20001220703125</ele>
        <time>2023-01-27T09:25:54.000Z</time>
      </trkpt>
      <trkpt lat="40.0735875405371189117431640625" lon="0.014857091009616851806640625">
        <ele>554.4000244140625</ele>
        <time>2023-01-27T09:25:55.000Z</time>
      </trkpt>
      <trkpt lat="40.07361193187534809112548828125" lon="0.01486555673182010650634765625">
        <ele>554.79998779296875</ele>
        <time>2023-01-27T09:25:56.000Z</time>
      </trkpt>
      <trkpt lat="40.073633305728435516357421875" lon="0.01487310044467449188232421875">
        <ele>555.4000244140625</ele>
        <time>2023-01-27T09:25:57.000Z</time>
      </trkpt>
      <trkpt lat="40.07365149445831775665283203125" lon="0.0148777104914188385009765625">
        <ele>555.5999755859375</ele>
        <time>2023-01-27T09:25:58.000Z</time>
      </trkpt>
      <trkpt lat="40.073666833341121673583984375" lon="0.0148800574243068695068359375">
        <ele>556.20001220703125</ele>
        <time>2023-01-27T09:25:59.000Z</time>
      </trkpt>
      <trkpt lat="40.07367982529103755950927734375" lon="0.01487913541495800018310546875">
        <ele>556.5999755859375</ele>
        <time>2023-01-27T09:26:00.000Z</time>
      </trkpt>
      <trkpt lat="40.07369466125965118408203125" lon="0.01487486064434051513671875">
        <ele>557</ele>
        <time>2023-01-27T09:26:01.000Z</time>
      </trkpt>
      <trkpt lat="40.073705054819583892822265625" lon="0.01487142406404018402099609375">
        <ele>557.4000244140625</ele>
        <time>2023-01-27T09:26:02.000Z</time>
      </trkpt>
      <trkpt lat="40.073721818625926971435546875" lon="0.01486740075051784515380859375">
        <ele>558</ele>
        <time>2023-01-27T09:26:03.000Z</time>
      </trkpt>
      <trkpt lat="40.073732547461986541748046875" lon="0.0148699991405010223388671875">
        <ele>558</ele>
        <time>2023-01-27T09:26:04.000Z</time>
      </trkpt>
      <trkpt lat="40.07374419830739498138427734375" lon="0.0148741900920867919921875">
        <ele>558.79998779296875</ele>
        <time>2023-01-27T09:26:05.000Z</time>
      </trkpt>
      <trkpt lat="40.073755681514739990234375" lon="0.01488131470978260040283203125">
        <ele>559</ele>
        <time>2023-01-27T09:26:06.000Z</time>
      </trkpt>
      <trkpt lat="40.07377244532108306884765625" lon="0.01488626003265380859375">
        <ele>559.20001220703125</ele>
        <time>2023-01-27T09:26:07.000Z</time>
      </trkpt>
      <trkpt lat="40.07378610782325267791748046875" lon="0.01488734968006610870361328125">
        <ele>559.4000244140625</ele>
        <time>2023-01-27T09:26:08.000Z</time>
      </trkpt>
      <trkpt lat="40.07380102761089801788330078125" lon="0.014888606965541839599609375">
        <ele>559.5999755859375</ele>
        <time>2023-01-27T09:26:09.000Z</time>
      </trkpt>
      <trkpt lat="40.07381594739854335784912109375" lon="0.0148944742977619171142578125">
        <ele>559.79998779296875</ele>
        <time>2023-01-27T09:26:10.000Z</time>
      </trkpt>
      <trkpt lat="40.0738316215574741363525390625" lon="0.0149028562009334564208984375">
        <ele>560.4000244140625</ele>
        <time>2023-01-27T09:26:11.000Z</time>
      </trkpt>
      <trkpt lat="40.07384813390672206878662109375" lon="0.0149119086563587188720703125">
        <ele>560.79998779296875</ele>
        <time>2023-01-27T09:26:12.000Z</time>
      </trkpt>
      <trkpt lat="40.073864646255970001220703125" lon="0.0149199552834033966064453125">
        <ele>561.20001220703125</ele>
        <time>2023-01-27T09:26:13.000Z</time>
      </trkpt>
      <trkpt lat="40.07388216443359851837158203125" lon="0.01492540352046489715576171875">
        <ele>561.5999755859375</ele>
        <time>2023-01-27T09:26:14.000Z</time>
      </trkpt>
      <trkpt lat="40.0739000178873538970947265625" lon="0.014930181205272674560546875">
        <ele>561.79998779296875</ele>
        <time>2023-01-27T09:26:15.000Z</time>
      </trkpt>
      <trkpt lat="40.0739177875220775604248046875" lon="0.01493227668106555938720703125">
        <ele>562.4000244140625</ele>
        <time>2023-01-27T09:26:16.000Z</time>
      </trkpt>
      <trkpt lat="40.07393329404294490814208984375" lon="0.0149363838136196136474609375">
        <ele>562.79998779296875</ele>
        <time>2023-01-27T09:26:17.000Z</time>
      </trkpt>
      <trkpt lat="40.07394620217382907867431640625" lon="0.01494283787906169891357421875">
        <ele>563.20001220703125</ele>
        <time>2023-01-27T09:26:18.000Z</time>
      </trkpt>
      <trkpt lat="40.07395927794277667999267578125" lon="0.01495264470577239990234375">
        <ele>563.4000244140625</ele>
        <time>2023-01-27T09:26:19.000Z</time>
      </trkpt>
      <trkpt lat="40.073975287377834320068359375" lon="0.0149611942470073699951171875">
        <ele>564</ele>
        <time>2023-01-27T09:26:20.000Z</time>
      </trkpt>
      <trkpt lat="40.0739908777177333831787109375" lon="0.01497183926403522491455078125">
        <ele>564.4000244140625</ele>
        <time>2023-01-27T09:26:21.000Z</time>
      </trkpt>
      <trkpt lat="40.074006132781505584716796875" lon="0.0149829871952533721923828125">
        <ele>565</ele>
        <time>2023-01-27T09:26:22.000Z</time>
      </trkpt>
      <trkpt lat="40.074021555483341217041015625" lon="0.014993213117122650146484375">
        <ele>565.20001220703125</ele>
        <time>2023-01-27T09:26:23.000Z</time>
      </trkpt>
      <trkpt lat="40.0740388222038745880126953125" lon="0.01500268466770648956298828125">
        <ele>565.79998779296875</ele>
        <time>2023-01-27T09:26:24.000Z</time>
      </trkpt>
      <trkpt lat="40.0740552507340908050537109375" lon="0.01501274295151233673095703125">
        <ele>566</ele>
        <time>2023-01-27T09:26:25.000Z</time>
      </trkpt>
      <trkpt lat="40.074065811932086944580078125" lon="0.01502506434917449951171875">
        <ele>566.4000244140625</ele>
        <time>2023-01-27T09:26:26.000Z</time>
      </trkpt>
      <trkpt lat="40.07407964207231998443603515625" lon="0.0150485336780548095703125">
        <ele>566.4000244140625</ele>
        <time>2023-01-27T09:26:27.000Z</time>
      </trkpt>
      <trkpt lat="40.07409187965095043182373046875" lon="0.015066973865032196044921875">
        <ele>566.5999755859375</ele>
        <time>2023-01-27T09:26:28.000Z</time>
      </trkpt>
      <trkpt lat="40.07410579361021518707275390625" lon="0.0150839053094387054443359375">
        <ele>566.79998779296875</ele>
        <time>2023-01-27T09:26:29.000Z</time>
      </trkpt>
      <trkpt lat="40.0741196237504482269287109375" lon="0.015099830925464630126953125">
        <ele>567.20001220703125</ele>
        <time>2023-01-27T09:26:30.000Z</time>
      </trkpt>
      <trkpt lat="40.07413395680487155914306640625" lon="0.0151155889034271240234375">
        <ele>567.4000244140625</ele>
        <time>2023-01-27T09:26:31.000Z</time>
      </trkpt>
      <trkpt lat="40.07415197789669036865234375" lon="0.01512807793915271759033203125">
        <ele>567.5999755859375</ele>
        <time>2023-01-27T09:26:32.000Z</time>
      </trkpt>
      <trkpt lat="40.0741729326546192169189453125" lon="0.0151383876800537109375">
        <ele>568.4000244140625</ele>
        <time>2023-01-27T09:26:33.000Z</time>
      </trkpt>
      <trkpt lat="40.07419263012707233428955078125" lon="0.01515104435384273529052734375">
        <ele>568.5999755859375</ele>
        <time>2023-01-27T09:26:34.000Z</time>
      </trkpt>
      <trkpt lat="40.0742131657898426055908203125" lon="0.0151626951992511749267578125">
        <ele>568.79998779296875</ele>
        <time>2023-01-27T09:26:35.000Z</time>
      </trkpt>
      <trkpt lat="40.07423085160553455352783203125" lon="0.0151777826249599456787109375">
        <ele>569</ele>
        <time>2023-01-27T09:26:36.000Z</time>
      </trkpt>
      <trkpt lat="40.07424761541187763214111328125" lon="0.01519144512712955474853515625">
        <ele>569.79998779296875</ele>
        <time>2023-01-27T09:26:37.000Z</time>
      </trkpt>
      <trkpt lat="40.0742661394178867340087890625" lon="0.01520569436252117156982421875">
        <ele>570.20001220703125</ele>
        <time>2023-01-27T09:26:38.000Z</time>
      </trkpt>
      <trkpt lat="40.07428416050970554351806640625" lon="0.01522220671176910400390625">
        <ele>570.79998779296875</ele>
        <time>2023-01-27T09:26:39.000Z</time>
      </trkpt>
      <trkpt lat="40.07430092431604862213134765625" lon="0.015237629413604736328125">
        <ele>571.20001220703125</ele>
        <time>2023-01-27T09:26:40.000Z</time>
      </trkpt>
      <trkpt lat="40.07431701757013797760009765625" lon="0.01524559222161769866943359375">
        <ele>571.5999755859375</ele>
        <time>2023-01-27T09:26:41.000Z</time>
      </trkpt>
      <trkpt lat="40.07434283383190631866455078125" lon="0.0152609311044216156005859375">
        <ele>571.79998779296875</ele>
        <time>2023-01-27T09:26:42.000Z</time>
      </trkpt>
      <trkpt lat="40.074362196028232574462890625" lon="0.01527593471109867095947265625">
        <ele>572.20001220703125</ele>
        <time>2023-01-27T09:26:43.000Z</time>
      </trkpt>
      <trkpt lat="40.07438256405293941497802734375" lon="0.0152887590229511260986328125">
        <ele>572.4000244140625</ele>
        <time>2023-01-27T09:26:44.000Z</time>
      </trkpt>
      <trkpt lat="40.07440502755343914031982421875" lon="0.0153006613254547119140625">
        <ele>572.4000244140625</ele>
        <time>2023-01-27T09:26:45.000Z</time>
      </trkpt>
      <trkpt lat="40.07442648522555828094482421875" lon="0.01531734131276607513427734375">
        <ele>572.5999755859375</ele>
        <time>2023-01-27T09:26:46.000Z</time>
      </trkpt>
      <trkpt lat="40.074447356164455413818359375" lon="0.01533058471977710723876953125">
        <ele>572.5999755859375</ele>
        <time>2023-01-27T09:26:47.000Z</time>
      </trkpt>
      <trkpt lat="40.074468143284320831298828125" lon="0.0153440795838832855224609375">
        <ele>572.79998779296875</ele>
        <time>2023-01-27T09:26:48.000Z</time>
      </trkpt>
      <trkpt lat="40.07448633201420307159423828125" lon="0.01535656861960887908935546875">
        <ele>573</ele>
        <time>2023-01-27T09:26:49.000Z</time>
      </trkpt>
      <trkpt lat="40.07450108416378498077392578125" lon="0.0153695605695247650146484375">
        <ele>573.20001220703125</ele>
        <time>2023-01-27T09:26:50.000Z</time>
      </trkpt>
      <trkpt lat="40.074528157711029052734375" lon="0.01538640819489955902099609375">
        <ele>573.20001220703125</ele>
        <time>2023-01-27T09:26:51.000Z</time>
      </trkpt>
      <trkpt lat="40.07455590181052684783935546875" lon="0.01540484838187694549560546875">
        <ele>573.79998779296875</ele>
        <time>2023-01-27T09:26:52.000Z</time>
      </trkpt>
      <trkpt lat="40.0745876692235469818115234375" lon="0.01542278565466403961181640625">
        <ele>574</ele>
        <time>2023-01-27T09:26:53.000Z</time>
      </trkpt>
      <trkpt lat="40.07462010718882083892822265625" lon="0.0154460035264492034912109375">
        <ele>574</ele>
        <time>2023-01-27T09:26:54.000Z</time>
      </trkpt>
      <trkpt lat="40.07465279661118984222412109375" lon="0.01547391526401042938232421875">
        <ele>574</ele>
        <time>2023-01-27T09:26:55.000Z</time>
      </trkpt>
      <trkpt lat="40.07467760704457759857177734375" lon="0.01548732630908489227294921875">
        <ele>574.20001220703125</ele>
        <time>2023-01-27T09:26:56.000Z</time>
      </trkpt>
      <trkpt lat="40.07471146993339061737060546875" lon="0.0155137293040752410888671875">
        <ele>574</ele>
        <time>2023-01-27T09:26:57.000Z</time>
      </trkpt>
      <trkpt lat="40.0747408904135227203369140625" lon="0.01553426496684551239013671875">
        <ele>574</ele>
        <time>2023-01-27T09:26:58.000Z</time>
      </trkpt>
      <trkpt lat="40.0747646950185298919677734375" lon="0.0155586563050746917724609375">
        <ele>574.4000244140625</ele>
        <time>2023-01-27T09:26:59.000Z</time>
      </trkpt>
      <trkpt lat="40.07478707469999790191650390625" lon="0.01558472402393817901611328125">
        <ele>574.4000244140625</ele>
        <time>2023-01-27T09:27:00.000Z</time>
      </trkpt>
      <trkpt lat="40.0748096220195293426513671875" lon="0.01560701988637447357177734375">
        <ele>574.4000244140625</ele>
        <time>2023-01-27T09:27:01.000Z</time>
      </trkpt>
      <trkpt lat="40.0748320855200290679931640625" lon="0.01562898047268390655517578125">
        <ele>574.79998779296875</ele>
        <time>2023-01-27T09:27:02.000Z</time>
      </trkpt>
      <trkpt lat="40.07485195063054561614990234375" lon="0.015647001564502716064453125">
        <ele>575</ele>
        <time>2023-01-27T09:27:03.000Z</time>
      </trkpt>
      <trkpt lat="40.07486812770366668701171875" lon="0.0156589038670063018798828125">
        <ele>575.20001220703125</ele>
        <time>2023-01-27T09:27:04.000Z</time>
      </trkpt>
      <trkpt lat="40.0748840533196926116943359375" lon="0.0156699679791927337646484375">
        <ele>575.20001220703125</ele>
        <time>2023-01-27T09:27:05.000Z</time>
      </trkpt>
      <trkpt lat="40.07490023039281368255615234375" lon="0.01568631269037723541259765625">
        <ele>575.20001220703125</ele>
        <time>2023-01-27T09:27:06.000Z</time>
      </trkpt>
      <trkpt lat="40.07491481490433216094970703125" lon="0.01570634543895721435546875">
        <ele>575.5999755859375</ele>
        <time>2023-01-27T09:27:07.000Z</time>
      </trkpt>
      <trkpt lat="40.074930153787136077880859375" lon="0.0157276354730129241943359375">
        <ele>575.79998779296875</ele>
        <time>2023-01-27T09:27:08.000Z</time>
      </trkpt>
      <trkpt lat="40.0749444030225276947021484375" lon="0.01574389636516571044921875">
        <ele>576</ele>
        <time>2023-01-27T09:27:09.000Z</time>
      </trkpt>
      <trkpt lat="40.074966363608837127685546875" lon="0.01576711423695087432861328125">
        <ele>576</ele>
        <time>2023-01-27T09:27:10.000Z</time>
      </trkpt>
      <trkpt lat="40.07498438470065593719482421875" lon="0.01578748226165771484375">
        <ele>576.4000244140625</ele>
        <time>2023-01-27T09:27:11.000Z</time>
      </trkpt>
      <trkpt lat="40.075001232326030731201171875" lon="0.01580550335347652435302734375">
        <ele>576.5999755859375</ele>
        <time>2023-01-27T09:27:12.000Z</time>
      </trkpt>
      <trkpt lat="40.07501958869397640228271484375" lon="0.0158191658556461334228515625">
        <ele>576.79998779296875</ele>
        <time>2023-01-27T09:27:13.000Z</time>
      </trkpt>
      <trkpt lat="40.075035430490970611572265625" lon="0.0158295594155788421630859375">
        <ele>577.20001220703125</ele>
        <time>2023-01-27T09:27:14.000Z</time>
      </trkpt>
      <trkpt lat="40.07505864836275577545166015625" lon="0.01584908924996852874755859375">
        <ele>577.4000244140625</ele>
        <time>2023-01-27T09:27:15.000Z</time>
      </trkpt>
      <trkpt lat="40.0750744901597499847412109375" lon="0.0158654339611530303955078125">
        <ele>577.79998779296875</ele>
        <time>2023-01-27T09:27:16.000Z</time>
      </trkpt>
      <trkpt lat="40.07509879767894744873046875" lon="0.015886723995208740234375">
        <ele>577.79998779296875</ele>
        <time>2023-01-27T09:27:17.000Z</time>
      </trkpt>
      <trkpt lat="40.07511748932301998138427734375" lon="0.0159068405628204345703125">
        <ele>578.20001220703125</ele>
        <time>2023-01-27T09:27:18.000Z</time>
      </trkpt>
      <trkpt lat="40.0751355104148387908935546875" lon="0.01592905260622501373291015625">
        <ele>578.4000244140625</ele>
        <time>2023-01-27T09:27:19.000Z</time>
      </trkpt>
      <trkpt lat="40.07515084929764270782470703125" lon="0.01594799570739269256591796875">
        <ele>578.79998779296875</ele>
        <time>2023-01-27T09:27:20.000Z</time>
      </trkpt>
      <trkpt lat="40.07517448626458644866943359375" lon="0.0159733928740024566650390625">
        <ele>579</ele>
        <time>2023-01-27T09:27:21.000Z</time>
      </trkpt>
      <trkpt lat="40.07519443519413471221923828125" lon="0.01599510200321674346923828125">
        <ele>579</ele>
        <time>2023-01-27T09:27:22.000Z</time>
      </trkpt>
      <trkpt lat="40.07521438412368297576904296875" lon="0.01601840369403362274169921875">
        <ele>579</ele>
        <time>2023-01-27T09:27:23.000Z</time>
      </trkpt>
      <trkpt lat="40.075231231749057769775390625" lon="0.0160391069948673248291015625">
        <ele>579.4000244140625</ele>
        <time>2023-01-27T09:27:24.000Z</time>
      </trkpt>
      <trkpt lat="40.075258053839206695556640625" lon="0.01606768928468227386474609375">
        <ele>579.5999755859375</ele>
        <time>2023-01-27T09:27:25.000Z</time>
      </trkpt>
      <trkpt lat="40.07528210990130901336669921875" lon="0.01609400846064090728759765625">
        <ele>579.79998779296875</ele>
        <time>2023-01-27T09:27:26.000Z</time>
      </trkpt>
      <trkpt lat="40.0753073394298553466796875" lon="0.0161246024072170257568359375">
        <ele>580</ele>
        <time>2023-01-27T09:27:27.000Z</time>
      </trkpt>
      <trkpt lat="40.07532787509262561798095703125" lon="0.01615268178284168243408203125">
        <ele>579.79998779296875</ele>
        <time>2023-01-27T09:27:28.000Z</time>
      </trkpt>
      <trkpt lat="40.07535419426858425140380859375" lon="0.01618972979485988616943359375">
        <ele>579.79998779296875</ele>
        <time>2023-01-27T09:27:29.000Z</time>
      </trkpt>
      <trkpt lat="40.07538688369095325469970703125" lon="0.01623448915779590606689453125">
        <ele>579.79998779296875</ele>
        <time>2023-01-27T09:27:30.000Z</time>
      </trkpt>
      <trkpt lat="40.07541756145656108856201171875" lon="0.01626902259886264801025390625">
        <ele>580</ele>
        <time>2023-01-27T09:27:31.000Z</time>
      </trkpt>
      <trkpt lat="40.0754494965076446533203125" lon="0.01630271784961223602294921875">
        <ele>580</ele>
        <time>2023-01-27T09:27:32.000Z</time>
      </trkpt>
      <trkpt lat="40.07547506131231784820556640625" lon="0.01633171923458576202392578125">
        <ele>579.5999755859375</ele>
        <time>2023-01-27T09:27:33.000Z</time>
      </trkpt>
      <trkpt lat="40.07550716400146484375" lon="0.01637144945561885833740234375">
        <ele>579.5999755859375</ele>
        <time>2023-01-27T09:27:34.000Z</time>
      </trkpt>
      <trkpt lat="40.0755388475954532623291015625" lon="0.01641252078115940093994140625">
        <ele>579.4000244140625</ele>
        <time>2023-01-27T09:27:35.000Z</time>
      </trkpt>
      <trkpt lat="40.075574219226837158203125" lon="0.016461722552776336669921875">
        <ele>579.20001220703125</ele>
        <time>2023-01-27T09:27:36.000Z</time>
      </trkpt>
      <trkpt lat="40.07560263387858867645263671875" lon="0.01650220714509487152099609375">
        <ele>579.20001220703125</ele>
        <time>2023-01-27T09:27:37.000Z</time>
      </trkpt>
      <trkpt lat="40.07562442682683467864990234375" lon="0.0165349803864955902099609375">
        <ele>579</ele>
        <time>2023-01-27T09:27:38.000Z</time>
      </trkpt>
      <trkpt lat="40.07565275765955448150634765625" lon="0.0165732018649578094482421875">
        <ele>579</ele>
        <time>2023-01-27T09:27:39.000Z</time>
      </trkpt>
      <trkpt lat="40.07568662054836750030517578125" lon="0.016616620123386383056640625">
        <ele>579.20001220703125</ele>
        <time>2023-01-27T09:27:40.000Z</time>
      </trkpt>
      <trkpt lat="40.0757095031440258026123046875" lon="0.0166486389935016632080078125">
        <ele>579.5999755859375</ele>
        <time>2023-01-27T09:27:41.000Z</time>
      </trkpt>
      <trkpt lat="40.07572987116873264312744140625" lon="0.01667571254074573516845703125">
        <ele>579.79998779296875</ele>
        <time>2023-01-27T09:27:42.000Z</time>
      </trkpt>
      <trkpt lat="40.075744874775409698486328125" lon="0.01669473946094512939453125">
        <ele>580.20001220703125</ele>
        <time>2023-01-27T09:27:43.000Z</time>
      </trkpt>
      <trkpt lat="40.0757611356675624847412109375" lon="0.01671846024692058563232421875">
        <ele>580.5999755859375</ele>
        <time>2023-01-27T09:27:44.000Z</time>
      </trkpt>
      <trkpt lat="40.07578074932098388671875" lon="0.016745030879974365234375">
        <ele>580.79998779296875</ele>
        <time>2023-01-27T09:27:45.000Z</time>
      </trkpt>
      <trkpt lat="40.07579709403216838836669921875" lon="0.01676539890468120574951171875">
        <ele>581.20001220703125</ele>
        <time>2023-01-27T09:27:46.000Z</time>
      </trkpt>
      <trkpt lat="40.07584579288959503173828125" lon="0.01682876609265804290771484375">
        <ele>581.79998779296875</ele>
        <time>2023-01-27T09:27:49.000Z</time>
      </trkpt>
      <trkpt lat="40.07586230523884296417236328125" lon="0.0168551690876483917236328125">
        <ele>582.20001220703125</ele>
        <time>2023-01-27T09:27:50.000Z</time>
      </trkpt>
      <trkpt lat="40.07587772794067859649658203125" lon="0.01687654294073581695556640625">
        <ele>582.4000244140625</ele>
        <time>2023-01-27T09:27:51.000Z</time>
      </trkpt>
      <trkpt lat="40.07589700631797313690185546875" lon="0.0169011019170284271240234375">
        <ele>582.5999755859375</ele>
        <time>2023-01-27T09:27:52.000Z</time>
      </trkpt>
      <trkpt lat="40.07591427303850650787353515625" lon="0.01692197285592555999755859375">
        <ele>582.79998779296875</ele>
        <time>2023-01-27T09:27:53.000Z</time>
      </trkpt>
      <trkpt lat="40.07593992166221141815185546875" lon="0.01694996841251850128173828125">
        <ele>583.4000244140625</ele>
        <time>2023-01-27T09:27:54.000Z</time>
      </trkpt>
      <trkpt lat="40.07595718838274478912353515625" lon="0.01697637140750885009765625">
        <ele>583.5999755859375</ele>
        <time>2023-01-27T09:27:55.000Z</time>
      </trkpt>
      <trkpt lat="40.07597395218908786773681640625" lon="0.0170036964118480682373046875">
        <ele>584</ele>
        <time>2023-01-27T09:27:56.000Z</time>
      </trkpt>
      <trkpt lat="40.07598971016705036163330078125" lon="0.017024315893650054931640625">
        <ele>584.20001220703125</ele>
        <time>2023-01-27T09:27:57.000Z</time>
      </trkpt>
      <trkpt lat="40.07600865326821804046630859375" lon="0.01705055125057697296142578125">
        <ele>584.4000244140625</ele>
        <time>2023-01-27T09:27:58.000Z</time>
      </trkpt>
      <trkpt lat="40.07602684199810028076171875" lon="0.01708625815808773040771484375">
        <ele>585</ele>
        <time>2023-01-27T09:27:59.000Z</time>
      </trkpt>
      <trkpt lat="40.0760420970618724822998046875" lon="0.017115511000156402587890625">
        <ele>585.5999755859375</ele>
        <time>2023-01-27T09:28:00.000Z</time>
      </trkpt>
      <trkpt lat="40.07606179453432559967041015625" lon="0.01714409328997135162353515625">
        <ele>585.79998779296875</ele>
        <time>2023-01-27T09:28:01.000Z</time>
      </trkpt>
      <trkpt lat="40.0760836713016033172607421875" lon="0.01716806553304195404052734375">
        <ele>585.79998779296875</ele>
        <time>2023-01-27T09:28:02.000Z</time>
      </trkpt>
      <trkpt lat="40.0761037878692150115966796875" lon="0.0171954743564128875732421875">
        <ele>586</ele>
        <time>2023-01-27T09:28:03.000Z</time>
      </trkpt>
      <trkpt lat="40.0761265866458415985107421875" lon="0.0172199495136737823486328125">
        <ele>586.20001220703125</ele>
        <time>2023-01-27T09:28:04.000Z</time>
      </trkpt>
      <trkpt lat="40.07614812813699245452880859375" lon="0.017246268689632415771484375">
        <ele>586.20001220703125</ele>
        <time>2023-01-27T09:28:05.000Z</time>
      </trkpt>
      <trkpt lat="40.07616707123816013336181640625" lon="0.0172745995223522186279296875">
        <ele>586.4000244140625</ele>
        <time>2023-01-27T09:28:06.000Z</time>
      </trkpt>
      <trkpt lat="40.07618232630193233489990234375" lon="0.017301253974437713623046875">
        <ele>586.79998779296875</ele>
        <time>2023-01-27T09:28:07.000Z</time>
      </trkpt>
      <trkpt lat="40.0762060470879077911376953125" lon="0.01733620651066303253173828125">
        <ele>587</ele>
        <time>2023-01-27T09:28:08.000Z</time>
      </trkpt>
      <trkpt lat="40.0762281753122806549072265625" lon="0.01736386679112911224365234375">
        <ele>587.20001220703125</ele>
        <time>2023-01-27T09:28:09.000Z</time>
      </trkpt>
      <trkpt lat="40.076250135898590087890625" lon="0.01738884486258029937744140625">
        <ele>587.4000244140625</ele>
        <time>2023-01-27T09:28:10.000Z</time>
      </trkpt>
      <trkpt lat="40.076269917190074920654296875" lon="0.01741264946758747100830078125">
        <ele>587.5999755859375</ele>
        <time>2023-01-27T09:28:11.000Z</time>
      </trkpt>
      <trkpt lat="40.07628726772964000701904296875" lon="0.0174382142722606658935546875">
        <ele>587.5999755859375</ele>
        <time>2023-01-27T09:28:12.000Z</time>
      </trkpt>
      <trkpt lat="40.07630436681210994720458984375" lon="0.01746461726725101470947265625">
        <ele>587.79998779296875</ele>
        <time>2023-01-27T09:28:13.000Z</time>
      </trkpt>
      <trkpt lat="40.0763203762471675872802734375" lon="0.0174915231764316558837890625">
        <ele>587.79998779296875</ele>
        <time>2023-01-27T09:28:14.000Z</time>
      </trkpt>
      <trkpt lat="40.07633722387254238128662109375" lon="0.01751960255205631256103515625">
        <ele>587.79998779296875</ele>
        <time>2023-01-27T09:28:15.000Z</time>
      </trkpt>
      <trkpt lat="40.076353065669536590576171875" lon="0.01754634082317352294921875">
        <ele>587.79998779296875</ele>
        <time>2023-01-27T09:28:16.000Z</time>
      </trkpt>
      <trkpt lat="40.076364465057849884033203125" lon="0.0175698101520538330078125">
        <ele>587.79998779296875</ele>
        <time>2023-01-27T09:28:17.000Z</time>
      </trkpt>
      <trkpt lat="40.0763810612261295318603515625" lon="0.0176051817834377288818359375">
        <ele>587.79998779296875</ele>
        <time>2023-01-27T09:28:18.000Z</time>
      </trkpt>
      <trkpt lat="40.07639422081410884857177734375" lon="0.0176346860826015472412109375">
        <ele>587.79998779296875</ele>
        <time>2023-01-27T09:28:19.000Z</time>
      </trkpt>
      <trkpt lat="40.07640411145985126495361328125" lon="0.01766611821949481964111328125">
        <ele>587.79998779296875</ele>
        <time>2023-01-27T09:28:20.000Z</time>
      </trkpt>
      <trkpt lat="40.0764142535626888275146484375" lon="0.01768891699612140655517578125">
        <ele>588</ele>
        <time>2023-01-27T09:28:21.000Z</time>
      </trkpt>
      <trkpt lat="40.07642556913197040557861328125" lon="0.017717666923999786376953125">
        <ele>588.20001220703125</ele>
        <time>2023-01-27T09:28:22.000Z</time>
      </trkpt>
      <trkpt lat="40.07643856108188629150390625" lon="0.0177523680031299591064453125">
        <ele>588.5999755859375</ele>
        <time>2023-01-27T09:28:23.000Z</time>
      </trkpt>
      <trkpt lat="40.07644752971827983856201171875" lon="0.0177855603396892547607421875">
        <ele>589</ele>
        <time>2023-01-27T09:28:24.000Z</time>
      </trkpt>
      <trkpt lat="40.07645666599273681640625" lon="0.01782436855137348175048828125">
        <ele>589</ele>
        <time>2023-01-27T09:28:25.000Z</time>
      </trkpt>
      <trkpt lat="40.07646806538105010986328125" lon="0.01786954700946807861328125">
        <ele>589.4000244140625</ele>
        <time>2023-01-27T09:28:26.000Z</time>
      </trkpt>
      <trkpt lat="40.07648256607353687286376953125" lon="0.0179193355143070220947265625">
        <ele>589.5999755859375</ele>
        <time>2023-01-27T09:28:27.000Z</time>
      </trkpt>
      <trkpt lat="40.0764974020421504974365234375" lon="0.01797239296138286590576171875">
        <ele>589.79998779296875</ele>
        <time>2023-01-27T09:28:28.000Z</time>
      </trkpt>
      <trkpt lat="40.07651357911527156829833984375" lon="0.01802151091396808624267578125">
        <ele>590</ele>
        <time>2023-01-27T09:28:29.000Z</time>
      </trkpt>
      <trkpt lat="40.07652816362679004669189453125" lon="0.0180681981146335601806640625">
        <ele>590.20001220703125</ele>
        <time>2023-01-27T09:28:30.000Z</time>
      </trkpt>
      <trkpt lat="40.07654450833797454833984375" lon="0.018107928335666656494140625">
        <ele>590.20001220703125</ele>
        <time>2023-01-27T09:28:31.000Z</time>
      </trkpt>
      <trkpt lat="40.076560266315937042236328125" lon="0.0181489996612071990966796875">
        <ele>590.20001220703125</ele>
        <time>2023-01-27T09:28:32.000Z</time>
      </trkpt>
      <trkpt lat="40.0765728391706943511962890625" lon="0.018192417919635772705078125">
        <ele>590</ele>
        <time>2023-01-27T09:28:33.000Z</time>
      </trkpt>
      <trkpt lat="40.076586417853832244873046875" lon="0.01823692582547664642333984375">
        <ele>590</ele>
        <time>2023-01-27T09:28:34.000Z</time>
      </trkpt>
      <trkpt lat="40.0766028463840484619140625" lon="0.01828151755034923553466796875">
        <ele>589.79998779296875</ele>
        <time>2023-01-27T09:28:35.000Z</time>
      </trkpt>
      <trkpt lat="40.0766181014478206634521484375" lon="0.0183290429413318634033203125">
        <ele>590</ele>
        <time>2023-01-27T09:28:36.000Z</time>
      </trkpt>
      <trkpt lat="40.07663008756935596466064453125" lon="0.01836768351495265960693359375">
        <ele>589.79998779296875</ele>
        <time>2023-01-27T09:28:37.000Z</time>
      </trkpt>
      <trkpt lat="40.0766452588140964508056640625" lon="0.0184249319136142730712890625">
        <ele>589.79998779296875</ele>
        <time>2023-01-27T09:28:38.000Z</time>
      </trkpt>
      <trkpt lat="40.0766549818217754364013671875" lon="0.01846893690526485443115234375">
        <ele>589.5999755859375</ele>
        <time>2023-01-27T09:28:39.000Z</time>
      </trkpt>
      <trkpt lat="40.07665825076401233673095703125" lon="0.01851034350693225860595703125">
        <ele>589.79998779296875</ele>
        <time>2023-01-27T09:28:40.000Z</time>
      </trkpt>
      <trkpt lat="40.07665724493563175201416015625" lon="0.01855946145951747894287109375">
        <ele>589.5999755859375</ele>
        <time>2023-01-27T09:28:41.000Z</time>
      </trkpt>
      <trkpt lat="40.07665087468922138214111328125" lon="0.0186163745820522308349609375">
        <ele>589.5999755859375</ele>
        <time>2023-01-27T09:28:42.000Z</time>
      </trkpt>
      <trkpt lat="40.07664031349122524261474609375" lon="0.01867764629423618316650390625">
        <ele>589.79998779296875</ele>
        <time>2023-01-27T09:28:43.000Z</time>
      </trkpt>
      <trkpt lat="40.07660619914531707763671875" lon="0.01887763850390911102294921875">
        <ele>589.79998779296875</ele>
        <time>2023-01-27T09:28:46.000Z</time>
      </trkpt>
      <trkpt lat="40.07658733986318111419677734375" lon="0.01894670538604259490966796875">
        <ele>589.79998779296875</ele>
        <time>2023-01-27T09:28:47.000Z</time>
      </trkpt>
      <trkpt lat="40.07650586776435375213623046875" lon="0.01914334483444690704345703125">
        <ele>589.20001220703125</ele>
        <time>2023-01-27T09:28:50.000Z</time>
      </trkpt>
      <trkpt lat="40.07649178616702556610107421875" lon="0.01919967122375965118408203125">
        <ele>588.79998779296875</ele>
        <time>2023-01-27T09:28:51.000Z</time>
      </trkpt>
      <trkpt lat="40.07648725993931293487548828125" lon="0.019251890480518341064453125">
        <ele>588.20001220703125</ele>
        <time>2023-01-27T09:28:52.000Z</time>
      </trkpt>
      <trkpt lat="40.0764860026538372039794921875" lon="0.01930243335664272308349609375">
        <ele>587.79998779296875</ele>
        <time>2023-01-27T09:28:53.000Z</time>
      </trkpt>
      <trkpt lat="40.07648549973964691162109375" lon="0.01934476196765899658203125">
        <ele>587.20001220703125</ele>
        <time>2023-01-27T09:28:54.000Z</time>
      </trkpt>
      <trkpt lat="40.07648390717804431915283203125" lon="0.01937828958034515380859375">
        <ele>587</ele>
        <time>2023-01-27T09:28:55.000Z</time>
      </trkpt>
      <trkpt lat="40.07648591883480548858642578125" lon="0.019408129155635833740234375">
        <ele>586.4000244140625</ele>
        <time>2023-01-27T09:28:56.000Z</time>
      </trkpt>
      <trkpt lat="40.07649430073797702789306640625" lon="0.019433610141277313232421875">
        <ele>586.20001220703125</ele>
        <time>2023-01-27T09:28:57.000Z</time>
      </trkpt>
      <trkpt lat="40.07650335319340229034423828125" lon="0.019459761679172515869140625">
        <ele>586</ele>
        <time>2023-01-27T09:28:58.000Z</time>
      </trkpt>
      <trkpt lat="40.07651223801076412200927734375" lon="0.01948649995028972625732421875">
        <ele>586</ele>
        <time>2023-01-27T09:28:59.000Z</time>
      </trkpt>
      <trkpt lat="40.0765309296548366546630859375" lon="0.0195457600057125091552734375">
        <ele>585.79998779296875</ele>
        <time>2023-01-27T09:29:01.000Z</time>
      </trkpt>
      <trkpt lat="40.0765543989837169647216796875" lon="0.0196109712123870849609375">
        <ele>586</ele>
        <time>2023-01-27T09:29:03.000Z</time>
      </trkpt>
      <trkpt lat="40.0766573287546634674072265625" lon="0.01983468420803546905517578125">
        <ele>587</ele>
        <time>2023-01-27T09:29:10.000Z</time>
      </trkpt>
      <trkpt lat="40.0766725838184356689453125" lon="0.0198716484010219573974609375">
        <ele>587.4000244140625</ele>
        <time>2023-01-27T09:29:11.000Z</time>
      </trkpt>
      <trkpt lat="40.0766898505389690399169921875" lon="0.0199122168123722076416015625">
        <ele>587.79998779296875</ele>
        <time>2023-01-27T09:29:12.000Z</time>
      </trkpt>
      <trkpt lat="40.0767119787633419036865234375" lon="0.01995068974792957305908203125">
        <ele>588</ele>
        <time>2023-01-27T09:29:13.000Z</time>
      </trkpt>
      <trkpt lat="40.0767357833683490753173828125" lon="0.01998354680836200714111328125">
        <ele>588.4000244140625</ele>
        <time>2023-01-27T09:29:14.000Z</time>
      </trkpt>
      <trkpt lat="40.0767793692648410797119140625" lon="0.0200320780277252197265625">
        <ele>589</ele>
        <time>2023-01-27T09:29:16.000Z</time>
      </trkpt>
      <trkpt lat="40.07683007977902889251708984375" lon="0.0200868956744670867919921875">
        <ele>589.4000244140625</ele>
        <time>2023-01-27T09:29:18.000Z</time>
      </trkpt>
      <trkpt lat="40.0769215263426303863525390625" lon="0.0201888196170330047607421875">
        <ele>591.20001220703125</ele>
        <time>2023-01-27T09:29:22.000Z</time>
      </trkpt>
      <trkpt lat="40.0769423134624958038330078125" lon="0.02021689899265766143798828125">
        <ele>591.4000244140625</ele>
        <time>2023-01-27T09:29:23.000Z</time>
      </trkpt>
      <trkpt lat="40.07696201093494892120361328125" lon="0.02024690620601177215576171875">
        <ele>591.79998779296875</ele>
        <time>2023-01-27T09:29:24.000Z</time>
      </trkpt>
      <trkpt lat="40.0769815407693386077880859375" lon="0.02027741633355617523193359375">
        <ele>591.79998779296875</ele>
        <time>2023-01-27T09:29:25.000Z</time>
      </trkpt>
      <trkpt lat="40.07699889130890369415283203125" lon="0.0203078426420688629150390625">
        <ele>592</ele>
        <time>2023-01-27T09:29:26.000Z</time>
      </trkpt>
      <trkpt lat="40.07700978778302669525146484375" lon="0.0203383527696132659912109375">
        <ele>592.20001220703125</ele>
        <time>2023-01-27T09:29:27.000Z</time>
      </trkpt>
      <trkpt lat="40.07702085189521312713623046875" lon="0.0203671865165233612060546875">
        <ele>592.20001220703125</ele>
        <time>2023-01-27T09:29:28.000Z</time>
      </trkpt>
      <trkpt lat="40.0770375318825244903564453125" lon="0.020396523177623748779296875">
        <ele>592.4000244140625</ele>
        <time>2023-01-27T09:29:29.000Z</time>
      </trkpt>
      <trkpt lat="40.0770546309649944305419921875" lon="0.020428709685802459716796875">
        <ele>592.5999755859375</ele>
        <time>2023-01-27T09:29:30.000Z</time>
      </trkpt>
      <trkpt lat="40.0770697183907032012939453125" lon="0.02046181820333003997802734375">
        <ele>592.79998779296875</ele>
        <time>2023-01-27T09:29:31.000Z</time>
      </trkpt>
      <trkpt lat="40.0770837999880313873291015625" lon="0.0204962678253650665283203125">
        <ele>592.79998779296875</ele>
        <time>2023-01-27T09:29:32.000Z</time>
      </trkpt>
      <trkpt lat="40.07709662429988384246826171875" lon="0.02052971161901950836181640625">
        <ele>593.20001220703125</ele>
        <time>2023-01-27T09:29:33.000Z</time>
      </trkpt>
      <trkpt lat="40.07710701785981655120849609375" lon="0.020568855106830596923828125">
        <ele>593.20001220703125</ele>
        <time>2023-01-27T09:29:34.000Z</time>
      </trkpt>
      <trkpt lat="40.07711539976298809051513671875" lon="0.0206105969846248626708984375">
        <ele>593.4000244140625</ele>
        <time>2023-01-27T09:29:35.000Z</time>
      </trkpt>
      <trkpt lat="40.077124200761318206787109375" lon="0.0206508301198482513427734375">
        <ele>593.4000244140625</ele>
        <time>2023-01-27T09:29:36.000Z</time>
      </trkpt>
      <trkpt lat="40.0771354325115680694580078125" lon="0.0206907279789447784423828125">
        <ele>593.79998779296875</ele>
        <time>2023-01-27T09:29:37.000Z</time>
      </trkpt>
      <trkpt lat="40.0771444849669933319091796875" lon="0.020726434886455535888671875">
        <ele>593.79998779296875</ele>
        <time>2023-01-27T09:29:38.000Z</time>
      </trkpt>
      <trkpt lat="40.07714775390923023223876953125" lon="0.0207661651074886322021484375">
        <ele>593.79998779296875</ele>
        <time>2023-01-27T09:29:39.000Z</time>
      </trkpt>
      <trkpt lat="40.07714993320405483245849609375" lon="0.0208045542240142822265625">
        <ele>594</ele>
        <time>2023-01-27T09:29:40.000Z</time>
      </trkpt>
      <trkpt lat="40.0771528668701648712158203125" lon="0.02083548344671726226806640625">
        <ele>594</ele>
        <time>2023-01-27T09:29:41.000Z</time>
      </trkpt>
      <trkpt lat="40.077153034508228302001953125" lon="0.02088376320898532867431640625">
        <ele>594.20001220703125</ele>
        <time>2023-01-27T09:29:42.000Z</time>
      </trkpt>
      <trkpt lat="40.0771528668701648712158203125" lon="0.02092349343001842498779296875">
        <ele>594.4000244140625</ele>
        <time>2023-01-27T09:29:43.000Z</time>
      </trkpt>
      <trkpt lat="40.077157728374004364013671875" lon="0.020958445966243743896484375">
        <ele>594.5999755859375</ele>
        <time>2023-01-27T09:29:44.000Z</time>
      </trkpt>
      <trkpt lat="40.077167786657810211181640625" lon="0.02099306322634220123291015625">
        <ele>595</ele>
        <time>2023-01-27T09:29:45.000Z</time>
      </trkpt>
      <trkpt lat="40.07718245498836040496826171875" lon="0.021024830639362335205078125">
        <ele>595.4000244140625</ele>
        <time>2023-01-27T09:29:46.000Z</time>
      </trkpt>
      <trkpt lat="40.0772018171846866607666015625" lon="0.0210491381585597991943359375">
        <ele>595.5999755859375</ele>
        <time>2023-01-27T09:29:47.000Z</time>
      </trkpt>
      <trkpt lat="40.07722377777099609375" lon="0.0210669077932834625244140625">
        <ele>596.4000244140625</ele>
        <time>2023-01-27T09:29:48.000Z</time>
      </trkpt>
      <trkpt lat="40.07724783383309841156005859375" lon="0.0210821628570556640625">
        <ele>596.79998779296875</ele>
        <time>2023-01-27T09:29:49.000Z</time>
      </trkpt>
      <trkpt lat="40.07726677693426609039306640625" lon="0.021092891693115234375">
        <ele>597.20001220703125</ele>
        <time>2023-01-27T09:29:50.000Z</time>
      </trkpt>
      <trkpt lat="40.07729276083409786224365234375" lon="0.021111667156219482421875">
        <ele>597.4000244140625</ele>
        <time>2023-01-27T09:29:51.000Z</time>
      </trkpt>
      <trkpt lat="40.07731103338301181793212890625" lon="0.021130107343196868896484375">
        <ele>597.5999755859375</ele>
        <time>2023-01-27T09:29:52.000Z</time>
      </trkpt>
      <trkpt lat="40.07733014412224292755126953125" lon="0.02114494331181049346923828125">
        <ele>597.79998779296875</ele>
        <time>2023-01-27T09:29:53.000Z</time>
      </trkpt>
      <trkpt lat="40.0773456506431102752685546875" lon="0.02115651033818721771240234375">
        <ele>598</ele>
        <time>2023-01-27T09:29:54.000Z</time>
      </trkpt>
      <trkpt lat="40.07736685685813426971435546875" lon="0.02117763273417949676513671875">
        <ele>598.20001220703125</ele>
        <time>2023-01-27T09:29:55.000Z</time>
      </trkpt>
      <trkpt lat="40.07737976498901844024658203125" lon="0.0212070532143115997314453125">
        <ele>598.4000244140625</ele>
        <time>2023-01-27T09:29:56.000Z</time>
      </trkpt>
      <trkpt lat="40.07739166729152202606201171875" lon="0.0212439335882663726806640625">
        <ele>598.5999755859375</ele>
        <time>2023-01-27T09:29:57.000Z</time>
      </trkpt>
      <trkpt lat="40.0774066708981990814208984375" lon="0.02128223888576030731201171875">
        <ele>598.5999755859375</ele>
        <time>2023-01-27T09:29:58.000Z</time>
      </trkpt>
      <trkpt lat="40.07742703892290592193603515625" lon="0.0213136710226535797119140625">
        <ele>598.5999755859375</ele>
        <time>2023-01-27T09:29:59.000Z</time>
      </trkpt>
      <trkpt lat="40.07744631730020046234130859375" lon="0.021331608295440673828125">
        <ele>598.5999755859375</ele>
        <time>2023-01-27T09:30:00.000Z</time>
      </trkpt>
      <trkpt lat="40.0774717144668102264404296875" lon="0.021352730691432952880859375">
        <ele>598.79998779296875</ele>
        <time>2023-01-27T09:30:01.000Z</time>
      </trkpt>
      <trkpt lat="40.07749157957732677459716796875" lon="0.02136471681296825408935546875">
        <ele>599</ele>
        <time>2023-01-27T09:30:02.000Z</time>
      </trkpt>
      <trkpt lat="40.0775065831840038299560546875" lon="0.02137385308742523193359375">
        <ele>599</ele>
        <time>2023-01-27T09:30:03.000Z</time>
      </trkpt>
      <trkpt lat="40.07752359844744205474853515625" lon="0.021380893886089324951171875">
        <ele>599.20001220703125</ele>
        <time>2023-01-27T09:30:04.000Z</time>
      </trkpt>
      <trkpt lat="40.07753969170153141021728515625" lon="0.02139003016054630279541015625">
        <ele>599.4000244140625</ele>
        <time>2023-01-27T09:30:05.000Z</time>
      </trkpt>
      <trkpt lat="40.0775563716888427734375" lon="0.0214008428156375885009765625">
        <ele>599.5999755859375</ele>
        <time>2023-01-27T09:30:06.000Z</time>
      </trkpt>
      <trkpt lat="40.07757271640002727508544921875" lon="0.0214129127562046051025390625">
        <ele>599.79998779296875</ele>
        <time>2023-01-27T09:30:07.000Z</time>
      </trkpt>
      <trkpt lat="40.0775904022157192230224609375" lon="0.02142422832548618316650390625">
        <ele>599.79998779296875</ele>
        <time>2023-01-27T09:30:08.000Z</time>
      </trkpt>
      <trkpt lat="40.07760792039334774017333984375" lon="0.02143227495253086090087890625">
        <ele>600.20001220703125</ele>
        <time>2023-01-27T09:30:09.000Z</time>
      </trkpt>
      <trkpt lat="40.077624432742595672607421875" lon="0.02144350670278072357177734375">
        <ele>600.4000244140625</ele>
        <time>2023-01-27T09:30:10.000Z</time>
      </trkpt>
      <trkpt lat="40.0776390172541141510009765625" lon="0.0214585103094577789306640625">
        <ele>600.4000244140625</ele>
        <time>2023-01-27T09:30:11.000Z</time>
      </trkpt>
      <trkpt lat="40.07765284739434719085693359375" lon="0.02147586084902286529541015625">
        <ele>600.79998779296875</ele>
        <time>2023-01-27T09:30:12.000Z</time>
      </trkpt>
      <trkpt lat="40.07766743190586566925048828125" lon="0.02149480395019054412841796875">
        <ele>601</ele>
        <time>2023-01-27T09:30:13.000Z</time>
      </trkpt>
      <trkpt lat="40.0776829384267330169677734375" lon="0.02151123248040676116943359375">
        <ele>601.20001220703125</ele>
        <time>2023-01-27T09:30:14.000Z</time>
      </trkpt>
      <trkpt lat="40.07769676856696605682373046875" lon="0.021528415381908416748046875">
        <ele>601.4000244140625</ele>
        <time>2023-01-27T09:30:15.000Z</time>
      </trkpt>
      <trkpt lat="40.07770649157464504241943359375" lon="0.02155196852982044219970703125">
        <ele>601.79998779296875</ele>
        <time>2023-01-27T09:30:16.000Z</time>
      </trkpt>
      <trkpt lat="40.0777151249349117279052734375" lon="0.0215748511254787445068359375">
        <ele>601.79998779296875</ele>
        <time>2023-01-27T09:30:17.000Z</time>
      </trkpt>
      <trkpt lat="40.07772224955260753631591796875" lon="0.0216011703014373779296875">
        <ele>602.4000244140625</ele>
        <time>2023-01-27T09:30:18.000Z</time>
      </trkpt>
      <trkpt lat="40.077730715274810791015625" lon="0.02162572927772998809814453125">
        <ele>602.5999755859375</ele>
        <time>2023-01-27T09:30:19.000Z</time>
      </trkpt>
      <trkpt lat="40.07773943245410919189453125" lon="0.02164718694984912872314453125">
        <ele>603.4000244140625</ele>
        <time>2023-01-27T09:30:20.000Z</time>
      </trkpt>
      <trkpt lat="40.07774555124342441558837890625" lon="0.02166914753615856170654296875">
        <ele>603.5999755859375</ele>
        <time>2023-01-27T09:30:21.000Z</time>
      </trkpt>
      <trkpt lat="40.07775175385177135467529296875" lon="0.02169429324567317962646484375">
        <ele>603.79998779296875</ele>
        <time>2023-01-27T09:30:22.000Z</time>
      </trkpt>
      <trkpt lat="40.077758543193340301513671875" lon="0.02171725966036319732666015625">
        <ele>604</ele>
        <time>2023-01-27T09:30:23.000Z</time>
      </trkpt>
      <trkpt lat="40.07776566781103610992431640625" lon="0.02174198627471923828125">
        <ele>604.20001220703125</ele>
        <time>2023-01-27T09:30:24.000Z</time>
      </trkpt>
      <trkpt lat="40.0777724571526050567626953125" lon="0.021769143640995025634765625">
        <ele>604.5999755859375</ele>
        <time>2023-01-27T09:30:25.000Z</time>
      </trkpt>
      <trkpt lat="40.0777805037796497344970703125" lon="0.02179621718823909759521484375">
        <ele>604.79998779296875</ele>
        <time>2023-01-27T09:30:26.000Z</time>
      </trkpt>
      <trkpt lat="40.07778561674058437347412109375" lon="0.0218242965638637542724609375">
        <ele>605.20001220703125</ele>
        <time>2023-01-27T09:30:27.000Z</time>
      </trkpt>
      <trkpt lat="40.0777925737202167510986328125" lon="0.02184994518756866455078125">
        <ele>605.4000244140625</ele>
        <time>2023-01-27T09:30:28.000Z</time>
      </trkpt>
      <trkpt lat="40.077798776328563690185546875" lon="0.02187483943998813629150390625">
        <ele>605.5999755859375</ele>
        <time>2023-01-27T09:30:29.000Z</time>
      </trkpt>
      <trkpt lat="40.07780506275594234466552734375" lon="0.02190249972045421600341796875">
        <ele>605.79998779296875</ele>
        <time>2023-01-27T09:30:30.000Z</time>
      </trkpt>
      <trkpt lat="40.07781319320201873779296875" lon="0.0219325907528400421142578125">
        <ele>606</ele>
        <time>2023-01-27T09:30:31.000Z</time>
      </trkpt>
      <trkpt lat="40.07782115601003170013427734375" lon="0.02196125686168670654296875">
        <ele>606.20001220703125</ele>
        <time>2023-01-27T09:30:32.000Z</time>
      </trkpt>
      <trkpt lat="40.07782953791320323944091796875" lon="0.0219912640750408172607421875">
        <ele>606.4000244140625</ele>
        <time>2023-01-27T09:30:33.000Z</time>
      </trkpt>
      <trkpt lat="40.07783490233123302459716796875" lon="0.02202118746936321258544921875">
        <ele>606.5999755859375</ele>
        <time>2023-01-27T09:30:34.000Z</time>
      </trkpt>
      <trkpt lat="40.07784194312989711761474609375" lon="0.0220539607107639312744140625">
        <ele>607</ele>
        <time>2023-01-27T09:30:35.000Z</time>
      </trkpt>
      <trkpt lat="40.07785434834659099578857421875" lon="0.022084973752498626708984375">
        <ele>607</ele>
        <time>2023-01-27T09:30:36.000Z</time>
      </trkpt>
      <trkpt lat="40.07787086069583892822265625" lon="0.02211104147136211395263671875">
        <ele>607.4000244140625</ele>
        <time>2023-01-27T09:30:37.000Z</time>
      </trkpt>
      <trkpt lat="40.0778887979686260223388671875" lon="0.02213736064732074737548828125">
        <ele>607.5999755859375</ele>
        <time>2023-01-27T09:30:38.000Z</time>
      </trkpt>
      <trkpt lat="40.07790883071720600128173828125" lon="0.02215999178588390350341796875">
        <ele>607.5999755859375</ele>
        <time>2023-01-27T09:30:39.000Z</time>
      </trkpt>
      <trkpt lat="40.077926851809024810791015625" lon="0.022182874381542205810546875">
        <ele>607.79998779296875</ele>
        <time>2023-01-27T09:30:40.000Z</time>
      </trkpt>
      <trkpt lat="40.07794487290084362030029296875" lon="0.02220843918621540069580078125">
        <ele>608</ele>
        <time>2023-01-27T09:30:41.000Z</time>
      </trkpt>
      <trkpt lat="40.0779672525823116302490234375" lon="0.02222947776317596435546875">
        <ele>608.20001220703125</ele>
        <time>2023-01-27T09:30:42.000Z</time>
      </trkpt>
      <trkpt lat="40.07799013517796993255615234375" lon="0.0222514383494853973388671875">
        <ele>608.4000244140625</ele>
        <time>2023-01-27T09:30:43.000Z</time>
      </trkpt>
      <trkpt lat="40.0780135206878185272216796875" lon="0.02227398566901683807373046875">
        <ele>608.79998779296875</ele>
        <time>2023-01-27T09:30:44.000Z</time>
      </trkpt>
      <trkpt lat="40.0780329667031764984130859375" lon="0.02230248413980007171630859375">
        <ele>609</ele>
        <time>2023-01-27T09:30:45.000Z</time>
      </trkpt>
      <trkpt lat="40.07804998196661472320556640625" lon="0.022329390048980712890625">
        <ele>609.4000244140625</ele>
        <time>2023-01-27T09:30:46.000Z</time>
      </trkpt>
      <trkpt lat="40.0780678354203701019287109375" lon="0.02235176973044872283935546875">
        <ele>609.5999755859375</ele>
        <time>2023-01-27T09:30:47.000Z</time>
      </trkpt>
      <trkpt lat="40.07808937691152095794677734375" lon="0.02237054519355297088623046875">
        <ele>610</ele>
        <time>2023-01-27T09:30:48.000Z</time>
      </trkpt>
      <trkpt lat="40.07811318151652812957763671875" lon="0.022388398647308349609375">
        <ele>610.20001220703125</ele>
        <time>2023-01-27T09:30:49.000Z</time>
      </trkpt>
      <trkpt lat="40.07813514210283756256103515625" lon="0.02240759320557117462158203125">
        <ele>611</ele>
        <time>2023-01-27T09:30:50.000Z</time>
      </trkpt>
      <trkpt lat="40.078156851232051849365234375" lon="0.0224281288683414459228515625">
        <ele>611.4000244140625</ele>
        <time>2023-01-27T09:30:51.000Z</time>
      </trkpt>
      <trkpt lat="40.07817939855158329010009765625" lon="0.02245067618787288665771484375">
        <ele>612.20001220703125</ele>
        <time>2023-01-27T09:30:52.000Z</time>
      </trkpt>
      <trkpt lat="40.0782019458711147308349609375" lon="0.0224733911454677581787109375">
        <ele>612.79998779296875</ele>
        <time>2023-01-27T09:30:53.000Z</time>
      </trkpt>
      <trkpt lat="40.0782240740954875946044921875" lon="0.02249543555080890655517578125">
        <ele>612.79998779296875</ele>
        <time>2023-01-27T09:30:54.000Z</time>
      </trkpt>
      <trkpt lat="40.07824561558663845062255859375" lon="0.02251806668937206268310546875">
        <ele>613</ele>
        <time>2023-01-27T09:30:55.000Z</time>
      </trkpt>
      <trkpt lat="40.07826824672520160675048828125" lon="0.022541619837284088134765625">
        <ele>613.20001220703125</ele>
        <time>2023-01-27T09:30:56.000Z</time>
      </trkpt>
      <trkpt lat="40.078289620578289031982421875" lon="0.022564418613910675048828125">
        <ele>613.5999755859375</ele>
        <time>2023-01-27T09:30:57.000Z</time>
      </trkpt>
      <trkpt lat="40.078304372727870941162109375" lon="0.022583194077014923095703125">
        <ele>613.79998779296875</ele>
        <time>2023-01-27T09:30:58.000Z</time>
      </trkpt>
      <trkpt lat="40.078327842056751251220703125" lon="0.02261169254779815673828125">
        <ele>614.20001220703125</ele>
        <time>2023-01-27T09:30:59.000Z</time>
      </trkpt>
      <trkpt lat="40.07834804244339466094970703125" lon="0.0226326473057270050048828125">
        <ele>614.5999755859375</ele>
        <time>2023-01-27T09:31:00.000Z</time>
      </trkpt>
      <trkpt lat="40.0783699192106723785400390625" lon="0.0226487405598163604736328125">
        <ele>615</ele>
        <time>2023-01-27T09:31:01.000Z</time>
      </trkpt>
      <trkpt lat="40.0783900357782840728759765625" lon="0.0226732157170772552490234375">
        <ele>615.20001220703125</ele>
        <time>2023-01-27T09:31:02.000Z</time>
      </trkpt>
      <trkpt lat="40.0784034468233585357666015625" lon="0.0226940028369426727294921875">
        <ele>615.5999755859375</ele>
        <time>2023-01-27T09:31:03.000Z</time>
      </trkpt>
      <trkpt lat="40.07842607796192169189453125" lon="0.02272032201290130615234375">
        <ele>615.79998779296875</ele>
        <time>2023-01-27T09:31:04.000Z</time>
      </trkpt>
      <trkpt lat="40.07844476960599422454833984375" lon="0.0227406062185764312744140625">
        <ele>616.20001220703125</ele>
        <time>2023-01-27T09:31:05.000Z</time>
      </trkpt>
      <trkpt lat="40.07846631109714508056640625" lon="0.02275661565363407135009765625">
        <ele>616.5999755859375</ele>
        <time>2023-01-27T09:31:06.000Z</time>
      </trkpt>
      <trkpt lat="40.07848416455090045928955078125" lon="0.02276885323226451873779296875">
        <ele>616.5999755859375</ele>
        <time>2023-01-27T09:31:07.000Z</time>
      </trkpt>
      <trkpt lat="40.0785110704600811004638671875" lon="0.02278595231473445892333984375">
        <ele>616.79998779296875</ele>
        <time>2023-01-27T09:31:08.000Z</time>
      </trkpt>
      <trkpt lat="40.0785325281322002410888671875" lon="0.0228022970259189605712890625">
        <ele>616.79998779296875</ele>
        <time>2023-01-27T09:31:09.000Z</time>
      </trkpt>
      <trkpt lat="40.07855624891817569732666015625" lon="0.02281554043292999267578125">
        <ele>617.20001220703125</ele>
        <time>2023-01-27T09:31:10.000Z</time>
      </trkpt>
      <trkpt lat="40.0785781256854534149169921875" lon="0.022828280925750732421875">
        <ele>617.4000244140625</ele>
        <time>2023-01-27T09:31:11.000Z</time>
      </trkpt>
      <trkpt lat="40.07860301993787288665771484375" lon="0.02283926121890544891357421875">
        <ele>617.79998779296875</ele>
        <time>2023-01-27T09:31:12.000Z</time>
      </trkpt>
      <trkpt lat="40.07862900383770465850830078125" lon="0.022850073873996734619140625">
        <ele>618</ele>
        <time>2023-01-27T09:31:13.000Z</time>
      </trkpt>
      <trkpt lat="40.0786525569856166839599609375" lon="0.02286055125296115875244140625">
        <ele>618.4000244140625</ele>
        <time>2023-01-27T09:31:14.000Z</time>
      </trkpt>
      <trkpt lat="40.0786770321428775787353515625" lon="0.02287094481289386749267578125">
        <ele>618.4000244140625</ele>
        <time>2023-01-27T09:31:15.000Z</time>
      </trkpt>
      <trkpt lat="40.0787001661956310272216796875" lon="0.02288150601089000701904296875">
        <ele>618.5999755859375</ele>
        <time>2023-01-27T09:31:16.000Z</time>
      </trkpt>
      <trkpt lat="40.07872045040130615234375" lon="0.02289089374244213104248046875">
        <ele>619</ele>
        <time>2023-01-27T09:31:17.000Z</time>
      </trkpt>
      <trkpt lat="40.0787474401295185089111328125" lon="0.0229022093117237091064453125">
        <ele>619.4000244140625</ele>
        <time>2023-01-27T09:31:18.000Z</time>
      </trkpt>
      <trkpt lat="40.07877099327743053436279296875" lon="0.02291318960487842559814453125">
        <ele>619.5999755859375</ele>
        <time>2023-01-27T09:31:19.000Z</time>
      </trkpt>
      <trkpt lat="40.07879379205405712127685546875" lon="0.02292693592607975006103515625">
        <ele>619.79998779296875</ele>
        <time>2023-01-27T09:31:20.000Z</time>
      </trkpt>
      <trkpt lat="40.0788165070116519927978515625" lon="0.0229400955140590667724609375">
        <ele>620.5999755859375</ele>
        <time>2023-01-27T09:31:21.000Z</time>
      </trkpt>
      <trkpt lat="40.07883570156991481781005859375" lon="0.02295074053108692169189453125">
        <ele>621</ele>
        <time>2023-01-27T09:31:22.000Z</time>
      </trkpt>
      <trkpt lat="40.07886151783168315887451171875" lon="0.0229669176042079925537109375">
        <ele>621.4000244140625</ele>
        <time>2023-01-27T09:31:23.000Z</time>
      </trkpt>
      <trkpt lat="40.07888649590313434600830078125" lon="0.02297856844961643218994140625">
        <ele>621.79998779296875</ele>
        <time>2023-01-27T09:31:24.000Z</time>
      </trkpt>
      <trkpt lat="40.07891046814620494842529296875" lon="0.02299097366631031036376953125">
        <ele>622.20001220703125</ele>
        <time>2023-01-27T09:31:25.000Z</time>
      </trkpt>
      <trkpt lat="40.0789341889321804046630859375" lon="0.0230058096349239349365234375">
        <ele>622.4000244140625</ele>
        <time>2023-01-27T09:31:26.000Z</time>
      </trkpt>
      <trkpt lat="40.07895707152783870697021484375" lon="0.02302198670804500579833984375">
        <ele>622.79998779296875</ele>
        <time>2023-01-27T09:31:27.000Z</time>
      </trkpt>
      <trkpt lat="40.0789774395525455474853515625" lon="0.023038499057292938232421875">
        <ele>623</ele>
        <time>2023-01-27T09:31:28.000Z</time>
      </trkpt>
      <trkpt lat="40.07899898104369640350341796875" lon="0.02305048517882823944091796875">
        <ele>623.20001220703125</ele>
        <time>2023-01-27T09:31:29.000Z</time>
      </trkpt>
      <trkpt lat="40.07902144454419612884521484375" lon="0.023059956729412078857421875">
        <ele>623.4000244140625</ele>
        <time>2023-01-27T09:31:30.000Z</time>
      </trkpt>
      <trkpt lat="40.07904256694018840789794921875" lon="0.02307361923158168792724609375">
        <ele>623.5999755859375</ele>
        <time>2023-01-27T09:31:31.000Z</time>
      </trkpt>
      <trkpt lat="40.07906218059360980987548828125" lon="0.02308971248567104339599609375">
        <ele>624</ele>
        <time>2023-01-27T09:31:32.000Z</time>
      </trkpt>
      <trkpt lat="40.07908523082733154296875" lon="0.02310563810169696807861328125">
        <ele>624.4000244140625</ele>
        <time>2023-01-27T09:31:33.000Z</time>
      </trkpt>
      <trkpt lat="40.0791080296039581298828125" lon="0.02312189899384975433349609375">
        <ele>624.79998779296875</ele>
        <time>2023-01-27T09:31:34.000Z</time>
      </trkpt>
      <trkpt lat="40.079132504761219024658203125" lon="0.023134052753448486328125">
        <ele>624.79998779296875</ele>
        <time>2023-01-27T09:31:35.000Z</time>
      </trkpt>
      <trkpt lat="40.079157315194606781005859375" lon="0.02314687706530094146728515625">
        <ele>625</ele>
        <time>2023-01-27T09:31:36.000Z</time>
      </trkpt>
      <trkpt lat="40.07917667739093303680419921875" lon="0.02315877936780452728271484375">
        <ele>625.4000244140625</ele>
        <time>2023-01-27T09:31:37.000Z</time>
      </trkpt>
      <trkpt lat="40.07920836098492145538330078125" lon="0.02317369915544986724853515625">
        <ele>625.5999755859375</ele>
        <time>2023-01-27T09:31:38.000Z</time>
      </trkpt>
      <trkpt lat="40.07923183031380176544189453125" lon="0.0231885351240634918212890625">
        <ele>625.5999755859375</ele>
        <time>2023-01-27T09:31:39.000Z</time>
      </trkpt>
      <trkpt lat="40.07925395853817462921142578125" lon="0.02320311963558197021484375">
        <ele>626</ele>
        <time>2023-01-27T09:31:40.000Z</time>
      </trkpt>
      <trkpt lat="40.07927902042865753173828125" lon="0.0232166983187198638916015625">
        <ele>626</ele>
        <time>2023-01-27T09:31:41.000Z</time>
      </trkpt>
      <trkpt lat="40.079305507242679595947265625" lon="0.02322834916412830352783203125">
        <ele>626.20001220703125</ele>
        <time>2023-01-27T09:31:42.000Z</time>
      </trkpt>
      <trkpt lat="40.07933291606605052947998046875" lon="0.02323773689568042755126953125">
        <ele>626.4000244140625</ele>
        <time>2023-01-27T09:31:43.000Z</time>
      </trkpt>
      <trkpt lat="40.07935973815619945526123046875" lon="0.0232468731701374053955078125">
        <ele>626.79998779296875</ele>
        <time>2023-01-27T09:31:44.000Z</time>
      </trkpt>
      <trkpt lat="40.079385973513126373291015625" lon="0.02325835637748241424560546875">
        <ele>627</ele>
        <time>2023-01-27T09:31:45.000Z</time>
      </trkpt>
      <trkpt lat="40.0794109515845775604248046875" lon="0.02327025867998600006103515625">
        <ele>627.20001220703125</ele>
        <time>2023-01-27T09:31:46.000Z</time>
      </trkpt>
      <trkpt lat="40.07943584583699703216552734375" lon="0.0232817418873310089111328125">
        <ele>627.5999755859375</ele>
        <time>2023-01-27T09:31:47.000Z</time>
      </trkpt>
      <trkpt lat="40.07946048863232135772705078125" lon="0.02329305745661258697509765625">
        <ele>627.79998779296875</ele>
        <time>2023-01-27T09:31:48.000Z</time>
      </trkpt>
      <trkpt lat="40.07948479615151882171630859375" lon="0.02330772578716278076171875">
        <ele>628.20001220703125</ele>
        <time>2023-01-27T09:31:49.000Z</time>
      </trkpt>
      <trkpt lat="40.0795088522136211395263671875" lon="0.02332071773707866668701171875">
        <ele>628.4000244140625</ele>
        <time>2023-01-27T09:31:50.000Z</time>
      </trkpt>
      <trkpt lat="40.07953374646604061126708984375" lon="0.0233323685824871063232421875">
        <ele>628.5999755859375</ele>
        <time>2023-01-27T09:31:51.000Z</time>
      </trkpt>
      <trkpt lat="40.0795567966997623443603515625" lon="0.02334737218916416168212890625">
        <ele>629</ele>
        <time>2023-01-27T09:31:52.000Z</time>
      </trkpt>
      <trkpt lat="40.079581774771213531494140625" lon="0.0233632139861583709716796875">
        <ele>629.4000244140625</ele>
        <time>2023-01-27T09:31:53.000Z</time>
      </trkpt>
      <trkpt lat="40.0796060822904109954833984375" lon="0.02338006161153316497802734375">
        <ele>629.5999755859375</ele>
        <time>2023-01-27T09:31:54.000Z</time>
      </trkpt>
      <trkpt lat="40.079629719257354736328125" lon="0.023399256169795989990234375">
        <ele>630</ele>
        <time>2023-01-27T09:31:55.000Z</time>
      </trkpt>
      <trkpt lat="40.07965209893882274627685546875" lon="0.02341962419450283050537109375">
        <ele>630.4000244140625</ele>
        <time>2023-01-27T09:31:56.000Z</time>
      </trkpt>
      <trkpt lat="40.0796687789261341094970703125" lon="0.02343622036278247833251953125">
        <ele>630.79998779296875</ele>
        <time>2023-01-27T09:31:57.000Z</time>
      </trkpt>
      <trkpt lat="40.0796932540833950042724609375" lon="0.0234631262719631195068359375">
        <ele>631</ele>
        <time>2023-01-27T09:31:58.000Z</time>
      </trkpt>
      <trkpt lat="40.07971487939357757568359375" lon="0.0234859250485897064208984375">
        <ele>631.4000244140625</ele>
        <time>2023-01-27T09:31:59.000Z</time>
      </trkpt>
      <trkpt lat="40.0797358341515064239501953125" lon="0.02350880764424800872802734375">
        <ele>632.20001220703125</ele>
        <time>2023-01-27T09:32:00.000Z</time>
      </trkpt>
      <trkpt lat="40.0797552801668643951416015625" lon="0.02353160642087459564208984375">
        <ele>632.4000244140625</ele>
        <time>2023-01-27T09:32:01.000Z</time>
      </trkpt>
      <trkpt lat="40.07977254688739776611328125" lon="0.02354702912271022796630859375">
        <ele>633</ele>
        <time>2023-01-27T09:32:02.000Z</time>
      </trkpt>
      <trkpt lat="40.079800374805927276611328125" lon="0.023570917546749114990234375">
        <ele>633.20001220703125</ele>
        <time>2023-01-27T09:32:03.000Z</time>
      </trkpt>
      <trkpt lat="40.07982593961060047149658203125" lon="0.02358826808631420135498046875">
        <ele>633.79998779296875</ele>
        <time>2023-01-27T09:32:04.000Z</time>
      </trkpt>
      <trkpt lat="40.07985058240592479705810546875" lon="0.0236056186258792877197265625">
        <ele>634.20001220703125</ele>
        <time>2023-01-27T09:32:05.000Z</time>
      </trkpt>
      <trkpt lat="40.079876147210597991943359375" lon="0.02362078987061977386474609375">
        <ele>634.5999755859375</ele>
        <time>2023-01-27T09:32:06.000Z</time>
      </trkpt>
      <trkpt lat="40.07989995181560516357421875" lon="0.02363788895308971405029296875">
        <ele>635</ele>
        <time>2023-01-27T09:32:07.000Z</time>
      </trkpt>
      <trkpt lat="40.07992316968739032745361328125" lon="0.02365280874073505401611328125">
        <ele>635.20001220703125</ele>
        <time>2023-01-27T09:32:08.000Z</time>
      </trkpt>
      <trkpt lat="40.0799504108726978302001953125" lon="0.02366253174841403961181640625">
        <ele>635.4000244140625</ele>
        <time>2023-01-27T09:32:09.000Z</time>
      </trkpt>
      <trkpt lat="40.079977400600910186767578125" lon="0.0236750207841396331787109375">
        <ele>635.5999755859375</ele>
        <time>2023-01-27T09:32:10.000Z</time>
      </trkpt>
      <trkpt lat="40.0800023786723613739013671875" lon="0.023688264191150665283203125">
        <ele>636</ele>
        <time>2023-01-27T09:32:11.000Z</time>
      </trkpt>
      <trkpt lat="40.080027021467685699462890625" lon="0.02370259724557399749755859375">
        <ele>636.5999755859375</ele>
        <time>2023-01-27T09:32:12.000Z</time>
      </trkpt>
      <trkpt lat="40.08005023933947086334228515625" lon="0.02371952868998050689697265625">
        <ele>637</ele>
        <time>2023-01-27T09:32:13.000Z</time>
      </trkpt>
      <trkpt lat="40.0800714455544948577880859375" lon="0.023734867572784423828125">
        <ele>637</ele>
        <time>2023-01-27T09:32:14.000Z</time>
      </trkpt>
      <trkpt lat="40.080094076693058013916015625" lon="0.0237477757036685943603515625">
        <ele>638</ele>
        <time>2023-01-27T09:32:15.000Z</time>
      </trkpt>
      <trkpt lat="40.0801140256226062774658203125" lon="0.0237551517784595489501953125">
        <ele>638.4000244140625</ele>
        <time>2023-01-27T09:32:16.000Z</time>
      </trkpt>
      <trkpt lat="40.08014327846467494964599609375" lon="0.0237715803086757659912109375">
        <ele>638.79998779296875</ele>
        <time>2023-01-27T09:32:17.000Z</time>
      </trkpt>
      <trkpt lat="40.080167837440967559814453125" lon="0.0237844884395599365234375">
        <ele>639.20001220703125</ele>
        <time>2023-01-27T09:32:18.000Z</time>
      </trkpt>
      <trkpt lat="40.08019373752176761627197265625" lon="0.023796223104000091552734375">
        <ele>639.4000244140625</ele>
        <time>2023-01-27T09:32:19.000Z</time>
      </trkpt>
      <trkpt lat="40.08021787740290164947509765625" lon="0.02381122671067714691162109375">
        <ele>639.5999755859375</ele>
        <time>2023-01-27T09:32:20.000Z</time>
      </trkpt>
      <trkpt lat="40.08024168200790882110595703125" lon="0.0238252244889736175537109375">
        <ele>640</ele>
        <time>2023-01-27T09:32:21.000Z</time>
      </trkpt>
      <trkpt lat="40.0802598707377910614013671875" lon="0.02383586950600147247314453125">
        <ele>640</ele>
        <time>2023-01-27T09:32:22.000Z</time>
      </trkpt>
      <trkpt lat="40.0802880339324474334716796875" lon="0.02385355532169342041015625">
        <ele>640.4000244140625</ele>
        <time>2023-01-27T09:32:23.000Z</time>
      </trkpt>
      <trkpt lat="40.0803094916045665740966796875" lon="0.0238731689751148223876953125">
        <ele>640.5999755859375</ele>
        <time>2023-01-27T09:32:24.000Z</time>
      </trkpt>
      <trkpt lat="40.08033254183828830718994140625" lon="0.02389286644756793975830078125">
        <ele>641.20001220703125</ele>
        <time>2023-01-27T09:32:25.000Z</time>
      </trkpt>
      <trkpt lat="40.0803560949862003326416015625" lon="0.02390988171100616455078125">
        <ele>642.20001220703125</ele>
        <time>2023-01-27T09:32:26.000Z</time>
      </trkpt>
      <trkpt lat="40.0803738646209239959716796875" lon="0.0239237956702709197998046875">
        <ele>642.4000244140625</ele>
        <time>2023-01-27T09:32:27.000Z</time>
      </trkpt>
      <trkpt lat="40.0803976692259311676025390625" lon="0.0239486061036586761474609375">
        <ele>643</ele>
        <time>2023-01-27T09:32:28.000Z</time>
      </trkpt>
      <trkpt lat="40.08042172528803348541259765625" lon="0.023965872824192047119140625">
        <ele>643.20001220703125</ele>
        <time>2023-01-27T09:32:29.000Z</time>
      </trkpt>
      <trkpt lat="40.08044578135013580322265625" lon="0.02398238517343997955322265625">
        <ele>643.5999755859375</ele>
        <time>2023-01-27T09:32:30.000Z</time>
      </trkpt>
      <trkpt lat="40.08046598173677921295166015625" lon="0.023992694914340972900390625">
        <ele>644</ele>
        <time>2023-01-27T09:32:31.000Z</time>
      </trkpt>
      <trkpt lat="40.0804891996085643768310546875" lon="0.02400912344455718994140625">
        <ele>644.4000244140625</ele>
        <time>2023-01-27T09:32:32.000Z</time>
      </trkpt>
      <trkpt lat="40.0805161893367767333984375" lon="0.02402831800282001495361328125">
        <ele>644.5999755859375</ele>
        <time>2023-01-27T09:32:33.000Z</time>
      </trkpt>
      <trkpt lat="40.080539323389530181884765625" lon="0.02404474653303623199462890625">
        <ele>645</ele>
        <time>2023-01-27T09:32:34.000Z</time>
      </trkpt>
      <trkpt lat="40.0805639661848545074462890625" lon="0.02405966632068157196044921875">
        <ele>645</ele>
        <time>2023-01-27T09:32:35.000Z</time>
      </trkpt>
      <trkpt lat="40.08058927953243255615234375" lon="0.02407525666058063507080078125">
        <ele>645.4000244140625</ele>
        <time>2023-01-27T09:32:36.000Z</time>
      </trkpt>
      <trkpt lat="40.0806149281561374664306640625" lon="0.0240929424762725830078125">
        <ele>645.5999755859375</ele>
        <time>2023-01-27T09:32:37.000Z</time>
      </trkpt>
      <trkpt lat="40.08063814602792263031005859375" lon="0.0241135619580745697021484375">
        <ele>645.79998779296875</ele>
        <time>2023-01-27T09:32:38.000Z</time>
      </trkpt>
      <trkpt lat="40.08066178299486637115478515625" lon="0.024132840335369110107421875">
        <ele>646</ele>
        <time>2023-01-27T09:32:39.000Z</time>
      </trkpt>
      <trkpt lat="40.080687515437602996826171875" lon="0.02414993941783905029296875">
        <ele>646</ele>
        <time>2023-01-27T09:32:40.000Z</time>
      </trkpt>
      <trkpt lat="40.08071324788033962249755859375" lon="0.02416460774838924407958984375">
        <ele>646.4000244140625</ele>
        <time>2023-01-27T09:32:41.000Z</time>
      </trkpt>
      <trkpt lat="40.08073956705629825592041015625" lon="0.024182796478271484375">
        <ele>646.5999755859375</ele>
        <time>2023-01-27T09:32:42.000Z</time>
      </trkpt>
      <trkpt lat="40.080764293670654296875" lon="0.02420358359813690185546875">
        <ele>646.79998779296875</ele>
        <time>2023-01-27T09:32:43.000Z</time>
      </trkpt>
      <trkpt lat="40.08078935556113719940185546875" lon="0.02422177232801914215087890625">
        <ele>647</ele>
        <time>2023-01-27T09:32:44.000Z</time>
      </trkpt>
      <trkpt lat="40.080814249813556671142578125" lon="0.02424088306725025177001953125">
        <ele>647.79998779296875</ele>
        <time>2023-01-27T09:32:45.000Z</time>
      </trkpt>
      <trkpt lat="40.08083872497081756591796875" lon="0.02426301129162311553955078125">
        <ele>648</ele>
        <time>2023-01-27T09:32:46.000Z</time>
      </trkpt>
      <trkpt lat="40.08085884153842926025390625" lon="0.02428212203085422515869140625">
        <ele>648.5999755859375</ele>
        <time>2023-01-27T09:32:47.000Z</time>
      </trkpt>
      <trkpt lat="40.0808885134756565093994140625" lon="0.0243083573877811431884765625">
        <ele>648.79998779296875</ele>
        <time>2023-01-27T09:32:48.000Z</time>
      </trkpt>
      <trkpt lat="40.08091474883258342742919921875" lon="0.02432964742183685302734375">
        <ele>649.20001220703125</ele>
        <time>2023-01-27T09:32:49.000Z</time>
      </trkpt>
      <trkpt lat="40.080942325294017791748046875" lon="0.0243502669036388397216796875">
        <ele>649.5999755859375</ele>
        <time>2023-01-27T09:32:50.000Z</time>
      </trkpt>
      <trkpt lat="40.08096956647932529449462890625" lon="0.02436962909996509552001953125">
        <ele>650</ele>
        <time>2023-01-27T09:32:51.000Z</time>
      </trkpt>
      <trkpt lat="40.0809974782168865203857421875" lon="0.02438639290630817413330078125">
        <ele>650.20001220703125</ele>
        <time>2023-01-27T09:32:52.000Z</time>
      </trkpt>
      <trkpt lat="40.0810239650309085845947265625" lon="0.024404413998126983642578125">
        <ele>650.4000244140625</ele>
        <time>2023-01-27T09:32:53.000Z</time>
      </trkpt>
      <trkpt lat="40.08105070330202579498291015625" lon="0.0244240276515483856201171875">
        <ele>650.79998779296875</ele>
        <time>2023-01-27T09:32:54.000Z</time>
      </trkpt>
      <trkpt lat="40.08107802830636501312255859375" lon="0.02444255165755748748779296875">
        <ele>651.20001220703125</ele>
        <time>2023-01-27T09:32:55.000Z</time>
      </trkpt>
      <trkpt lat="40.0811057724058628082275390625" lon="0.024462752044200897216796875">
        <ele>651.4000244140625</ele>
        <time>2023-01-27T09:32:56.000Z</time>
      </trkpt>
      <trkpt lat="40.0811339356005191802978515625" lon="0.024483203887939453125">
        <ele>651.5999755859375</ele>
        <time>2023-01-27T09:32:57.000Z</time>
      </trkpt>
      <trkpt lat="40.0811610929667949676513671875" lon="0.0245028175413608551025390625">
        <ele>652</ele>
        <time>2023-01-27T09:32:58.000Z</time>
      </trkpt>
      <trkpt lat="40.0811867415904998779296875" lon="0.0245220959186553955078125">
        <ele>652.20001220703125</ele>
        <time>2023-01-27T09:32:59.000Z</time>
      </trkpt>
      <trkpt lat="40.08121557533740997314453125" lon="0.024538524448871612548828125">
        <ele>652.5999755859375</ele>
        <time>2023-01-27T09:33:00.000Z</time>
      </trkpt>
      <trkpt lat="40.08124382235109806060791015625" lon="0.02455855719745159149169921875">
        <ele>652.5999755859375</ele>
        <time>2023-01-27T09:33:01.000Z</time>
      </trkpt>
      <trkpt lat="40.08127148263156414031982421875" lon="0.02457833848893642425537109375">
        <ele>653</ele>
        <time>2023-01-27T09:33:02.000Z</time>
      </trkpt>
      <trkpt lat="40.0813002325594425201416015625" lon="0.0245963595807552337646484375">
        <ele>653.4000244140625</ele>
        <time>2023-01-27T09:33:03.000Z</time>
      </trkpt>
      <trkpt lat="40.08132864721119403839111328125" lon="0.0246124528348445892333984375">
        <ele>654</ele>
        <time>2023-01-27T09:33:04.000Z</time>
      </trkpt>
      <trkpt lat="40.08135563693940639495849609375" lon="0.02462862990796566009521484375">
        <ele>654.20001220703125</ele>
        <time>2023-01-27T09:33:05.000Z</time>
      </trkpt>
      <trkpt lat="40.08137659169733524322509765625" lon="0.02464338205754756927490234375">
        <ele>654.4000244140625</ele>
        <time>2023-01-27T09:33:06.000Z</time>
      </trkpt>
      <trkpt lat="40.081410706043243408203125" lon="0.02466366626322269439697265625">
        <ele>654.79998779296875</ele>
        <time>2023-01-27T09:33:07.000Z</time>
      </trkpt>
      <trkpt lat="40.081439204514026641845703125" lon="0.024680681526660919189453125">
        <ele>654.79998779296875</ele>
        <time>2023-01-27T09:33:08.000Z</time>
      </trkpt>
      <trkpt lat="40.08146896027028560638427734375" lon="0.0246956013143062591552734375">
        <ele>655.20001220703125</ele>
        <time>2023-01-27T09:33:09.000Z</time>
      </trkpt>
      <trkpt lat="40.081499554216861724853515625" lon="0.02470876090228557586669921875">
        <ele>655.20001220703125</ele>
        <time>2023-01-27T09:33:10.000Z</time>
      </trkpt>
      <trkpt lat="40.08152939379215240478515625" lon="0.0247214175760746002197265625">
        <ele>655.5999755859375</ele>
        <time>2023-01-27T09:33:11.000Z</time>
      </trkpt>
      <trkpt lat="40.08156032301485538482666015625" lon="0.0247314758598804473876953125">
        <ele>655.79998779296875</ele>
        <time>2023-01-27T09:33:12.000Z</time>
      </trkpt>
      <trkpt lat="40.08159033022820949554443359375" lon="0.0247435458004474639892578125">
        <ele>656</ele>
        <time>2023-01-27T09:33:13.000Z</time>
      </trkpt>
      <trkpt lat="40.08161949925124645233154296875" lon="0.02475704066455364227294921875">
        <ele>656.4000244140625</ele>
        <time>2023-01-27T09:33:14.000Z</time>
      </trkpt>
      <trkpt lat="40.08164749480783939361572265625" lon="0.02477380447089672088623046875">
        <ele>656.5999755859375</ele>
        <time>2023-01-27T09:33:15.000Z</time>
      </trkpt>
      <trkpt lat="40.08167632855474948883056640625" lon="0.0247864611446857452392578125">
        <ele>656.79998779296875</ele>
        <time>2023-01-27T09:33:16.000Z</time>
      </trkpt>
      <trkpt lat="40.08170482702553272247314453125" lon="0.0247983634471893310546875">
        <ele>657.20001220703125</ele>
        <time>2023-01-27T09:33:17.000Z</time>
      </trkpt>
      <trkpt lat="40.0817327387630939483642578125" lon="0.02480967901647090911865234375">
        <ele>657.5999755859375</ele>
        <time>2023-01-27T09:33:18.000Z</time>
      </trkpt>
      <trkpt lat="40.08175813592970371246337890625" lon="0.024823844432830810546875">
        <ele>657.79998779296875</ele>
        <time>2023-01-27T09:33:19.000Z</time>
      </trkpt>
      <trkpt lat="40.0817823596298694610595703125" lon="0.02484102733433246612548828125">
        <ele>658.20001220703125</ele>
        <time>2023-01-27T09:33:20.000Z</time>
      </trkpt>
      <trkpt lat="40.08180256001651287078857421875" lon="0.0248558633029460906982421875">
        <ele>658.79998779296875</ele>
        <time>2023-01-27T09:33:21.000Z</time>
      </trkpt>
      <trkpt lat="40.081831477582454681396484375" lon="0.02487757243216037750244140625">
        <ele>659.5999755859375</ele>
        <time>2023-01-27T09:33:22.000Z</time>
      </trkpt>
      <trkpt lat="40.08185452781617641448974609375" lon="0.0248967669904232025146484375">
        <ele>659.79998779296875</ele>
        <time>2023-01-27T09:33:23.000Z</time>
      </trkpt>
      <trkpt lat="40.081877075135707855224609375" lon="0.02491780556738376617431640625">
        <ele>660.4000244140625</ele>
        <time>2023-01-27T09:33:24.000Z</time>
      </trkpt>
      <trkpt lat="40.08190012536942958831787109375" lon="0.02493674866855144500732421875">
        <ele>660.5999755859375</ele>
        <time>2023-01-27T09:33:25.000Z</time>
      </trkpt>
      <trkpt lat="40.08192024193704128265380859375" lon="0.024960972368717193603515625">
        <ele>660.79998779296875</ele>
        <time>2023-01-27T09:33:26.000Z</time>
      </trkpt>
      <trkpt lat="40.08194237016141414642333984375" lon="0.0249839387834072113037109375">
        <ele>661.5999755859375</ele>
        <time>2023-01-27T09:33:27.000Z</time>
      </trkpt>
      <trkpt lat="40.0819672644138336181640625" lon="0.02500548027455806732177734375">
        <ele>662.5999755859375</ele>
        <time>2023-01-27T09:33:28.000Z</time>
      </trkpt>
      <trkpt lat="40.08199148811399936676025390625" lon="0.02502744086086750030517578125">
        <ele>663</ele>
        <time>2023-01-27T09:33:29.000Z</time>
      </trkpt>
      <trkpt lat="40.0820155441761016845703125" lon="0.02504973672330379486083984375">
        <ele>663.5999755859375</ele>
        <time>2023-01-27T09:33:30.000Z</time>
      </trkpt>
      <trkpt lat="40.08204169571399688720703125" lon="0.02507069148123264312744140625">
        <ele>664</ele>
        <time>2023-01-27T09:33:31.000Z</time>
      </trkpt>
      <trkpt lat="40.08206860162317752838134765625" lon="0.0250925682485103607177734375">
        <ele>664</ele>
        <time>2023-01-27T09:33:32.000Z</time>
      </trkpt>
      <trkpt lat="40.082095004618167877197265625" lon="0.02511712722480297088623046875">
        <ele>664</ele>
        <time>2023-01-27T09:33:33.000Z</time>
      </trkpt>
      <trkpt lat="40.082121826708316802978515625" lon="0.02513975836336612701416015625">
        <ele>664</ele>
        <time>2023-01-27T09:33:34.000Z</time>
      </trkpt>
      <trkpt lat="40.08215032517910003662109375" lon="0.02515903674066066741943359375">
        <ele>664</ele>
        <time>2023-01-27T09:33:35.000Z</time>
      </trkpt>
      <trkpt lat="40.082174129784107208251953125" lon="0.02517093904316425323486328125">
        <ele>664</ele>
        <time>2023-01-27T09:33:36.000Z</time>
      </trkpt>
      <trkpt lat="40.08220975287258625030517578125" lon="0.0251894630491733551025390625">
        <ele>664</ele>
        <time>2023-01-27T09:33:37.000Z</time>
      </trkpt>
      <trkpt lat="40.082239843904972076416015625" lon="0.02520404756069183349609375">
        <ele>664</ele>
        <time>2023-01-27T09:33:38.000Z</time>
      </trkpt>
      <trkpt lat="40.0822701863944530487060546875" lon="0.02521905116736888885498046875">
        <ele>664.4000244140625</ele>
        <time>2023-01-27T09:33:39.000Z</time>
      </trkpt>
      <trkpt lat="40.08230061270296573638916015625" lon="0.0252360664308071136474609375">
        <ele>664.4000244140625</ele>
        <time>2023-01-27T09:33:40.000Z</time>
      </trkpt>
      <trkpt lat="40.08232466876506805419921875" lon="0.025250650942325592041015625">
        <ele>665</ele>
        <time>2023-01-27T09:33:41.000Z</time>
      </trkpt>
      <trkpt lat="40.08235861547291278839111328125" lon="0.02527420409023761749267578125">
        <ele>665.4000244140625</ele>
        <time>2023-01-27T09:33:42.000Z</time>
      </trkpt>
      <trkpt lat="40.0823885388672351837158203125" lon="0.0252944044768810272216796875">
        <ele>665.5999755859375</ele>
        <time>2023-01-27T09:33:43.000Z</time>
      </trkpt>
      <trkpt lat="40.08241854608058929443359375" lon="0.02531267702579498291015625">
        <ele>665.79998779296875</ele>
        <time>2023-01-27T09:33:44.000Z</time>
      </trkpt>
      <trkpt lat="40.08244796656072139739990234375" lon="0.0253262557089328765869140625">
        <ele>666</ele>
        <time>2023-01-27T09:33:45.000Z</time>
      </trkpt>
      <trkpt lat="40.08247160352766513824462890625" lon="0.0253332965075969696044921875">
        <ele>666.20001220703125</ele>
        <time>2023-01-27T09:33:46.000Z</time>
      </trkpt>
      <trkpt lat="40.082509405910968780517578125" lon="0.02534192986786365509033203125">
        <ele>666.4000244140625</ele>
        <time>2023-01-27T09:33:47.000Z</time>
      </trkpt>
      <trkpt lat="40.08254134096205234527587890625" lon="0.02534888684749603271484375">
        <ele>666.5999755859375</ele>
        <time>2023-01-27T09:33:48.000Z</time>
      </trkpt>
      <trkpt lat="40.08257134817540645599365234375" lon="0.02535701729357242584228515625">
        <ele>666.5999755859375</ele>
        <time>2023-01-27T09:33:49.000Z</time>
      </trkpt>
      <trkpt lat="40.08260034956037998199462890625" lon="0.02537059597671031951904296875">
        <ele>667.20001220703125</ele>
        <time>2023-01-27T09:33:50.000Z</time>
      </trkpt>
      <trkpt lat="40.082628428936004638671875" lon="0.025384090840816497802734375">
        <ele>667.4000244140625</ele>
        <time>2023-01-27T09:33:51.000Z</time>
      </trkpt>
      <trkpt lat="40.0826570950448513031005859375" lon="0.0253990106284618377685546875">
        <ele>668</ele>
        <time>2023-01-27T09:33:52.000Z</time>
      </trkpt>
      <trkpt lat="40.0826847553253173828125" lon="0.02541535533964633941650390625">
        <ele>668</ele>
        <time>2023-01-27T09:33:53.000Z</time>
      </trkpt>
      <trkpt lat="40.08271316997706890106201171875" lon="0.02543245442211627960205078125">
        <ele>668.4000244140625</ele>
        <time>2023-01-27T09:33:54.000Z</time>
      </trkpt>
      <trkpt lat="40.08274049498140811920166015625" lon="0.02545240335166454315185546875">
        <ele>669</ele>
        <time>2023-01-27T09:33:55.000Z</time>
      </trkpt>
      <trkpt lat="40.082762539386749267578125" lon="0.02546933479607105255126953125">
        <ele>669.4000244140625</ele>
        <time>2023-01-27T09:33:56.000Z</time>
      </trkpt>
      <trkpt lat="40.08278810419142246246337890625" lon="0.02549104392528533935546875">
        <ele>669.79998779296875</ele>
        <time>2023-01-27T09:33:57.000Z</time>
      </trkpt>
      <trkpt lat="40.08281475864350795745849609375" lon="0.0255237333476543426513671875">
        <ele>670</ele>
        <time>2023-01-27T09:33:58.000Z</time>
      </trkpt>
      <trkpt lat="40.08283386938273906707763671875" lon="0.02554996870458126068115234375">
        <ele>670.20001220703125</ele>
        <time>2023-01-27T09:33:59.000Z</time>
      </trkpt>
      <trkpt lat="40.08285750634968280792236328125" lon="0.02557553350925445556640625">
        <ele>670.20001220703125</ele>
        <time>2023-01-27T09:34:00.000Z</time>
      </trkpt>
      <trkpt lat="40.08288214914500713348388671875" lon="0.02559958957135677337646484375">
        <ele>670.5999755859375</ele>
        <time>2023-01-27T09:34:01.000Z</time>
      </trkpt>
      <trkpt lat="40.08290536701679229736328125" lon="0.0256233103573322296142578125">
        <ele>670.79998779296875</ele>
        <time>2023-01-27T09:34:02.000Z</time>
      </trkpt>
      <trkpt lat="40.08293294347822666168212890625" lon="0.0256526470184326171875">
        <ele>671.20001220703125</ele>
        <time>2023-01-27T09:34:03.000Z</time>
      </trkpt>
      <trkpt lat="40.08295021019876003265380859375" lon="0.02567670308053493499755859375">
        <ele>671.4000244140625</ele>
        <time>2023-01-27T09:34:04.000Z</time>
      </trkpt>
      <trkpt lat="40.08297250606119632720947265625" lon="0.0257054530084133148193359375">
        <ele>671.79998779296875</ele>
        <time>2023-01-27T09:34:05.000Z</time>
      </trkpt>
      <trkpt lat="40.08299698121845722198486328125" lon="0.0257312692701816558837890625">
        <ele>672</ele>
        <time>2023-01-27T09:34:06.000Z</time>
      </trkpt>
      <trkpt lat="40.08302011527121067047119140625" lon="0.02575649879872798919677734375">
        <ele>672.4000244140625</ele>
        <time>2023-01-27T09:34:07.000Z</time>
      </trkpt>
      <trkpt lat="40.0830409862101078033447265625" lon="0.02578474581241607666015625">
        <ele>672.79998779296875</ele>
        <time>2023-01-27T09:34:08.000Z</time>
      </trkpt>
      <trkpt lat="40.0830600969493389129638671875" lon="0.0258137471973896026611328125">
        <ele>673.20001220703125</ele>
        <time>2023-01-27T09:34:09.000Z</time>
      </trkpt>
      <trkpt lat="40.08308348245918750762939453125" lon="0.025842078030109405517578125">
        <ele>673.79998779296875</ele>
        <time>2023-01-27T09:34:10.000Z</time>
      </trkpt>
      <trkpt lat="40.0831100530922412872314453125" lon="0.0258714146912097930908203125">
        <ele>674.20001220703125</ele>
        <time>2023-01-27T09:34:11.000Z</time>
      </trkpt>
      <trkpt lat="40.08313310332596302032470703125" lon="0.02589865587651729583740234375">
        <ele>674.5999755859375</ele>
        <time>2023-01-27T09:34:12.000Z</time>
      </trkpt>
      <trkpt lat="40.08315120823681354522705078125" lon="0.0259240530431270599365234375">
        <ele>674.79998779296875</ele>
        <time>2023-01-27T09:34:13.000Z</time>
      </trkpt>
      <trkpt lat="40.08316964842379093170166015625" lon="0.02594375051558017730712890625">
        <ele>675.20001220703125</ele>
        <time>2023-01-27T09:34:14.000Z</time>
      </trkpt>
      <trkpt lat="40.08319295011460781097412109375" lon="0.025967471301555633544921875">
        <ele>675.4000244140625</ele>
        <time>2023-01-27T09:34:15.000Z</time>
      </trkpt>
      <trkpt lat="40.08321792818605899810791015625" lon="0.02599085681140422821044921875">
        <ele>676.20001220703125</ele>
        <time>2023-01-27T09:34:16.000Z</time>
      </trkpt>
      <trkpt lat="40.0832408107817173004150390625" lon="0.0260122306644916534423828125">
        <ele>676.4000244140625</ele>
        <time>2023-01-27T09:34:17.000Z</time>
      </trkpt>
      <trkpt lat="40.08326101116836071014404296875" lon="0.026035197079181671142578125">
        <ele>677</ele>
        <time>2023-01-27T09:34:18.000Z</time>
      </trkpt>
      <trkpt lat="40.08328531868755817413330078125" lon="0.02605573274195194244384765625">
        <ele>677.4000244140625</ele>
        <time>2023-01-27T09:34:19.000Z</time>
      </trkpt>
      <trkpt lat="40.08330593816936016082763671875" lon="0.02608590759336948394775390625">
        <ele>677.5999755859375</ele>
        <time>2023-01-27T09:34:20.000Z</time>
      </trkpt>
      <trkpt lat="40.08332069031894207000732421875" lon="0.02612178213894367218017578125">
        <ele>677.79998779296875</ele>
        <time>2023-01-27T09:34:21.000Z</time>
      </trkpt>
      <trkpt lat="40.08333561010658740997314453125" lon="0.02615899778902530670166015625">
        <ele>678</ele>
        <time>2023-01-27T09:34:22.000Z</time>
      </trkpt>
      <trkpt lat="40.0833504460752010345458984375" lon="0.0261959619820117950439453125">
        <ele>678.4000244140625</ele>
        <time>2023-01-27T09:34:23.000Z</time>
      </trkpt>
      <trkpt lat="40.08336863480508327484130859375" lon="0.02623007632791996002197265625">
        <ele>678.5999755859375</ele>
        <time>2023-01-27T09:34:24.000Z</time>
      </trkpt>
      <trkpt lat="40.0833861529827117919921875" lon="0.026263184845447540283203125">
        <ele>678.79998779296875</ele>
        <time>2023-01-27T09:34:25.000Z</time>
      </trkpt>
      <trkpt lat="40.08340467698872089385986328125" lon="0.0262978859245777130126953125">
        <ele>679</ele>
        <time>2023-01-27T09:34:26.000Z</time>
      </trkpt>
      <trkpt lat="40.0834258832037448883056640625" lon="0.0263294018805027008056640625">
        <ele>679.20001220703125</ele>
        <time>2023-01-27T09:34:27.000Z</time>
      </trkpt>
      <trkpt lat="40.083446167409420013427734375" lon="0.0263625942170619964599609375">
        <ele>679.4000244140625</ele>
        <time>2023-01-27T09:34:28.000Z</time>
      </trkpt>
      <trkpt lat="40.0834666192531585693359375" lon="0.02639603801071643829345703125">
        <ele>679.5999755859375</ele>
        <time>2023-01-27T09:34:29.000Z</time>
      </trkpt>
      <trkpt lat="40.08348514325916767120361328125" lon="0.0264293141663074493408203125">
        <ele>679.79998779296875</ele>
        <time>2023-01-27T09:34:30.000Z</time>
      </trkpt>
      <trkpt lat="40.083503164350986480712890625" lon="0.02646108157932758331298828125">
        <ele>680.4000244140625</ele>
        <time>2023-01-27T09:34:31.000Z</time>
      </trkpt>
      <trkpt lat="40.08351850323379039764404296875" lon="0.02649712376296520233154296875">
        <ele>680.5999755859375</ele>
        <time>2023-01-27T09:34:32.000Z</time>
      </trkpt>
      <trkpt lat="40.083534680306911468505859375" lon="0.02653316594660282135009765625">
        <ele>680.79998779296875</ele>
        <time>2023-01-27T09:34:33.000Z</time>
      </trkpt>
      <trkpt lat="40.08355253376066684722900390625" lon="0.0265686213970184326171875">
        <ele>681.20001220703125</ele>
        <time>2023-01-27T09:34:34.000Z</time>
      </trkpt>
      <trkpt lat="40.08356946520507335662841796875" lon="0.0266049988567829132080078125">
        <ele>681.20001220703125</ele>
        <time>2023-01-27T09:34:35.000Z</time>
      </trkpt>
      <trkpt lat="40.0835851393640041351318359375" lon="0.0266405381262302398681640625">
        <ele>681.4000244140625</ele>
        <time>2023-01-27T09:34:36.000Z</time>
      </trkpt>
      <trkpt lat="40.083601064980030059814453125" lon="0.02667314372956752777099609375">
        <ele>681.4000244140625</ele>
        <time>2023-01-27T09:34:37.000Z</time>
      </trkpt>
      <trkpt lat="40.08361875079572200775146484375" lon="0.026702396571636199951171875">
        <ele>681.5999755859375</ele>
        <time>2023-01-27T09:34:38.000Z</time>
      </trkpt>
      <trkpt lat="40.0836374424397945404052734375" lon="0.02672997303307056427001953125">
        <ele>681.5999755859375</ele>
        <time>2023-01-27T09:34:39.000Z</time>
      </trkpt>
      <trkpt lat="40.08365630172193050384521484375" lon="0.02675897441804409027099609375">
        <ele>682</ele>
        <time>2023-01-27T09:34:40.000Z</time>
      </trkpt>
      <trkpt lat="40.08367784321308135986328125" lon="0.02678328193724155426025390625">
        <ele>682</ele>
        <time>2023-01-27T09:34:41.000Z</time>
      </trkpt>
      <trkpt lat="40.08370273746550083160400390625" lon="0.026804320514202117919921875">
        <ele>682.20001220703125</ele>
        <time>2023-01-27T09:34:42.000Z</time>
      </trkpt>
      <trkpt lat="40.0837293080985546112060546875" lon="0.0268222577869892120361328125">
        <ele>682.4000244140625</ele>
        <time>2023-01-27T09:34:43.000Z</time>
      </trkpt>
      <trkpt lat="40.08375705219805240631103515625" lon="0.02683189697563648223876953125">
        <ele>682.5999755859375</ele>
        <time>2023-01-27T09:34:44.000Z</time>
      </trkpt>
      <trkpt lat="40.083784796297550201416015625" lon="0.026841200888156890869140625">
        <ele>683.20001220703125</ele>
        <time>2023-01-27T09:34:45.000Z</time>
      </trkpt>
      <trkpt lat="40.08380969054996967315673828125" lon="0.02685016952455043792724609375">
        <ele>683.4000244140625</ele>
        <time>2023-01-27T09:34:46.000Z</time>
      </trkpt>
      <trkpt lat="40.0838340818881988525390625" lon="0.02685637213289737701416015625">
        <ele>683.79998779296875</ele>
        <time>2023-01-27T09:34:47.000Z</time>
      </trkpt>
      <trkpt lat="40.0838627479970455169677734375" lon="0.02686022780835628509521484375">
        <ele>684</ele>
        <time>2023-01-27T09:34:48.000Z</time>
      </trkpt>
      <trkpt lat="40.08389065973460674285888671875" lon="0.0268651731312274932861328125">
        <ele>684</ele>
        <time>2023-01-27T09:34:49.000Z</time>
      </trkpt>
      <trkpt lat="40.08391463197767734527587890625" lon="0.026868693530559539794921875">
        <ele>684.20001220703125</ele>
        <time>2023-01-27T09:34:50.000Z</time>
      </trkpt>
      <trkpt lat="40.08393961004912853240966796875" lon="0.0268702022731304168701171875">
        <ele>684.4000244140625</ele>
        <time>2023-01-27T09:34:51.000Z</time>
      </trkpt>
      <trkpt lat="40.08396509103477001190185546875" lon="0.02687162719666957855224609375">
        <ele>684.5999755859375</ele>
        <time>2023-01-27T09:34:52.000Z</time>
      </trkpt>
      <trkpt lat="40.083989985287189483642578125" lon="0.0268772430717945098876953125">
        <ele>685</ele>
        <time>2023-01-27T09:34:53.000Z</time>
      </trkpt>
      <trkpt lat="40.08401446044445037841796875" lon="0.02688319422304630279541015625">
        <ele>685</ele>
        <time>2023-01-27T09:34:54.000Z</time>
      </trkpt>
      <trkpt lat="40.08403801359236240386962890625" lon="0.02689291723072528839111328125">
        <ele>685.5999755859375</ele>
        <time>2023-01-27T09:34:55.000Z</time>
      </trkpt>
      <trkpt lat="40.08406148292124271392822265625" lon="0.026904903352260589599609375">
        <ele>686.20001220703125</ele>
        <time>2023-01-27T09:34:56.000Z</time>
      </trkpt>
      <trkpt lat="40.0840835273265838623046875" lon="0.02691856585443019866943359375">
        <ele>686.4000244140625</ele>
        <time>2023-01-27T09:34:57.000Z</time>
      </trkpt>
      <trkpt lat="40.084106661379337310791015625" lon="0.0269345752894878387451171875">
        <ele>686.79998779296875</ele>
        <time>2023-01-27T09:34:58.000Z</time>
      </trkpt>
      <trkpt lat="40.08412702940404415130615234375" lon="0.02695527859032154083251953125">
        <ele>687</ele>
        <time>2023-01-27T09:34:59.000Z</time>
      </trkpt>
      <trkpt lat="40.0841460563242435455322265625" lon="0.02697807736694812774658203125">
        <ele>687.20001220703125</ele>
        <time>2023-01-27T09:35:00.000Z</time>
      </trkpt>
      <trkpt lat="40.084164328873157501220703125" lon="0.02700112760066986083984375">
        <ele>687.4000244140625</ele>
        <time>2023-01-27T09:35:01.000Z</time>
      </trkpt>
      <trkpt lat="40.08418134413659572601318359375" lon="0.02702719531953334808349609375">
        <ele>688</ele>
        <time>2023-01-27T09:35:02.000Z</time>
      </trkpt>
      <trkpt lat="40.08419609628617763519287109375" lon="0.0270579569041728973388671875">
        <ele>688.4000244140625</ele>
        <time>2023-01-27T09:35:03.000Z</time>
      </trkpt>
      <trkpt lat="40.08421084843575954437255859375" lon="0.02708637155592441558837890625">
        <ele>688.79998779296875</ele>
        <time>2023-01-27T09:35:04.000Z</time>
      </trkpt>
      <trkpt lat="40.0842218287289142608642578125" lon="0.02711721695959568023681640625">
        <ele>689</ele>
        <time>2023-01-27T09:35:05.000Z</time>
      </trkpt>
      <trkpt lat="40.08422995917499065399169921875" lon="0.02714990638196468353271484375">
        <ele>689.20001220703125</ele>
        <time>2023-01-27T09:35:06.000Z</time>
      </trkpt>
      <trkpt lat="40.08423532359302043914794921875" lon="0.02718309871852397918701171875">
        <ele>689.20001220703125</ele>
        <time>2023-01-27T09:35:07.000Z</time>
      </trkpt>
      <trkpt lat="40.0842395983636379241943359375" lon="0.02721595577895641326904296875">
        <ele>689.4000244140625</ele>
        <time>2023-01-27T09:35:08.000Z</time>
      </trkpt>
      <trkpt lat="40.08424580097198486328125" lon="0.02725149504840373992919921875">
        <ele>689.79998779296875</ele>
        <time>2023-01-27T09:35:09.000Z</time>
      </trkpt>
      <trkpt lat="40.0842546857893466949462890625" lon="0.02728451974689960479736328125">
        <ele>689.79998779296875</ele>
        <time>2023-01-27T09:35:10.000Z</time>
      </trkpt>
      <trkpt lat="40.084265582263469696044921875" lon="0.02732031047344207763671875">
        <ele>690</ele>
        <time>2023-01-27T09:35:11.000Z</time>
      </trkpt>
      <trkpt lat="40.08427991531789302825927734375" lon="0.027357526123523712158203125">
        <ele>690</ele>
        <time>2023-01-27T09:35:12.000Z</time>
      </trkpt>
      <trkpt lat="40.08429550565779209136962890625" lon="0.0273952446877956390380859375">
        <ele>690.20001220703125</ele>
        <time>2023-01-27T09:35:13.000Z</time>
      </trkpt>
      <trkpt lat="40.0843123532831668853759765625" lon="0.0274334661662578582763671875">
        <ele>690.5999755859375</ele>
        <time>2023-01-27T09:35:14.000Z</time>
      </trkpt>
      <trkpt lat="40.08432962000370025634765625" lon="0.02747026272118091583251953125">
        <ele>691.20001220703125</ele>
        <time>2023-01-27T09:35:15.000Z</time>
      </trkpt>
      <trkpt lat="40.084345377981662750244140625" lon="0.0275082327425479888916015625">
        <ele>691.4000244140625</ele>
        <time>2023-01-27T09:35:16.000Z</time>
      </trkpt>
      <trkpt lat="40.08436406962573528289794921875" lon="0.027541927993297576904296875">
        <ele>691.5999755859375</ele>
        <time>2023-01-27T09:35:17.000Z</time>
      </trkpt>
      <trkpt lat="40.0843824259936809539794921875" lon="0.027574785053730010986328125">
        <ele>691.79998779296875</ele>
        <time>2023-01-27T09:35:18.000Z</time>
      </trkpt>
      <trkpt lat="40.08440178819000720977783203125" lon="0.02760772593319416046142578125">
        <ele>692</ele>
        <time>2023-01-27T09:35:19.000Z</time>
      </trkpt>
      <trkpt lat="40.0844223238527774810791015625" lon="0.02764008007943630218505859375">
        <ele>692</ele>
        <time>2023-01-27T09:35:20.000Z</time>
      </trkpt>
      <trkpt lat="40.08444302715361118316650390625" lon="0.0276728533208370208740234375">
        <ele>692.4000244140625</ele>
        <time>2023-01-27T09:35:21.000Z</time>
      </trkpt>
      <trkpt lat="40.08446716703474521636962890625" lon="0.0276986695826053619384765625">
        <ele>692.5999755859375</ele>
        <time>2023-01-27T09:35:22.000Z</time>
      </trkpt>
      <trkpt lat="40.08449248038232326507568359375" lon="0.0277211330831050872802734375">
        <ele>692.79998779296875</ele>
        <time>2023-01-27T09:35:23.000Z</time>
      </trkpt>
      <trkpt lat="40.08451762609183788299560546875" lon="0.02774233929812908172607421875">
        <ele>693.20001220703125</ele>
        <time>2023-01-27T09:35:24.000Z</time>
      </trkpt>
      <trkpt lat="40.08454377762973308563232421875" lon="0.027763210237026214599609375">
        <ele>693.20001220703125</ele>
        <time>2023-01-27T09:35:25.000Z</time>
      </trkpt>
      <trkpt lat="40.0845708511769771575927734375" lon="0.0277818180620670318603515625">
        <ele>693.4000244140625</ele>
        <time>2023-01-27T09:35:26.000Z</time>
      </trkpt>
      <trkpt lat="40.08459926582872867584228515625" lon="0.02780067734420299530029296875">
        <ele>693.4000244140625</ele>
        <time>2023-01-27T09:35:27.000Z</time>
      </trkpt>
      <trkpt lat="40.08462457917630672454833984375" lon="0.02782012335956096649169921875">
        <ele>693.5999755859375</ele>
        <time>2023-01-27T09:35:28.000Z</time>
      </trkpt>
      <trkpt lat="40.08465039543807506561279296875" lon="0.027839653193950653076171875">
        <ele>694</ele>
        <time>2023-01-27T09:35:29.000Z</time>
      </trkpt>
      <trkpt lat="40.08467604406177997589111328125" lon="0.0278599373996257781982421875">
        <ele>694.4000244140625</ele>
        <time>2023-01-27T09:35:30.000Z</time>
      </trkpt>
      <trkpt lat="40.08470152504742145538330078125" lon="0.0278817303478717803955078125">
        <ele>694.79998779296875</ele>
        <time>2023-01-27T09:35:31.000Z</time>
      </trkpt>
      <trkpt lat="40.08472784422338008880615234375" lon="0.0279031880199909210205078125">
        <ele>695.20001220703125</ele>
        <time>2023-01-27T09:35:32.000Z</time>
      </trkpt>
      <trkpt lat="40.08475332520902156829833984375" lon="0.0279236398637294769287109375">
        <ele>695.79998779296875</ele>
        <time>2023-01-27T09:35:33.000Z</time>
      </trkpt>
      <trkpt lat="40.08477662689983844757080078125" lon="0.02794669009745121002197265625">
        <ele>696</ele>
        <time>2023-01-27T09:35:34.000Z</time>
      </trkpt>
      <trkpt lat="40.08480110205709934234619140625" lon="0.02797150053083896636962890625">
        <ele>696.20001220703125</ele>
        <time>2023-01-27T09:35:35.000Z</time>
      </trkpt>
      <trkpt lat="40.0848270021378993988037109375" lon="0.0279953889548778533935546875">
        <ele>696.20001220703125</ele>
        <time>2023-01-27T09:35:36.000Z</time>
      </trkpt>
      <trkpt lat="40.08485441096127033233642578125" lon="0.0280181877315044403076171875">
        <ele>696.79998779296875</ele>
        <time>2023-01-27T09:35:37.000Z</time>
      </trkpt>
      <trkpt lat="40.084881819784641265869140625" lon="0.02804023213684558868408203125">
        <ele>696.79998779296875</ele>
        <time>2023-01-27T09:35:38.000Z</time>
      </trkpt>
      <trkpt lat="40.08491056971251964569091796875" lon="0.02805984579026699066162109375">
        <ele>697</ele>
        <time>2023-01-27T09:35:39.000Z</time>
      </trkpt>
      <trkpt lat="40.08494024164974689483642578125" lon="0.02807610668241977691650390625">
        <ele>697.20001220703125</ele>
        <time>2023-01-27T09:35:40.000Z</time>
      </trkpt>
      <trkpt lat="40.08496857248246669769287109375" lon="0.02809387631714344024658203125">
        <ele>697.4000244140625</ele>
        <time>2023-01-27T09:35:41.000Z</time>
      </trkpt>
      <trkpt lat="40.08499539457261562347412109375" lon="0.02811483107507228851318359375">
        <ele>697.5999755859375</ele>
        <time>2023-01-27T09:35:42.000Z</time>
      </trkpt>
      <trkpt lat="40.0850223004817962646484375" lon="0.028140060603618621826171875">
        <ele>697.79998779296875</ele>
        <time>2023-01-27T09:35:43.000Z</time>
      </trkpt>
      <trkpt lat="40.08504753001034259796142578125" lon="0.0281670503318309783935546875">
        <ele>697.79998779296875</ele>
        <time>2023-01-27T09:35:44.000Z</time>
      </trkpt>
      <trkpt lat="40.085072927176952362060546875" lon="0.0281952135264873504638671875">
        <ele>698.20001220703125</ele>
        <time>2023-01-27T09:35:45.000Z</time>
      </trkpt>
      <trkpt lat="40.0850975699722766876220703125" lon="0.02822220325469970703125">
        <ele>698.5999755859375</ele>
        <time>2023-01-27T09:35:46.000Z</time>
      </trkpt>
      <trkpt lat="40.0851210393011569976806640625" lon="0.02824969589710235595703125">
        <ele>698.5999755859375</ele>
        <time>2023-01-27T09:35:47.000Z</time>
      </trkpt>
      <trkpt lat="40.0851445086300373077392578125" lon="0.02827626653015613555908203125">
        <ele>698.79998779296875</ele>
        <time>2023-01-27T09:35:48.000Z</time>
      </trkpt>
      <trkpt lat="40.08516973815858364105224609375" lon="0.0283011607825756072998046875">
        <ele>699</ele>
        <time>2023-01-27T09:35:49.000Z</time>
      </trkpt>
      <trkpt lat="40.08519404567778110504150390625" lon="0.028326474130153656005859375">
        <ele>699.20001220703125</ele>
        <time>2023-01-27T09:35:50.000Z</time>
      </trkpt>
      <trkpt lat="40.08522137068212032318115234375" lon="0.02834918908774852752685546875">
        <ele>699.20001220703125</ele>
        <time>2023-01-27T09:35:51.000Z</time>
      </trkpt>
      <trkpt lat="40.08524970151484012603759765625" lon="0.0283722393214702606201171875">
        <ele>699.4000244140625</ele>
        <time>2023-01-27T09:35:52.000Z</time>
      </trkpt>
      <trkpt lat="40.0852771103382110595703125" lon="0.028395541012287139892578125">
        <ele>699.4000244140625</ele>
        <time>2023-01-27T09:35:53.000Z</time>
      </trkpt>
      <trkpt lat="40.0853044353425502777099609375" lon="0.028419010341167449951171875">
        <ele>699.5999755859375</ele>
        <time>2023-01-27T09:35:54.000Z</time>
      </trkpt>
      <trkpt lat="40.085333772003650665283203125" lon="0.02844055183231830596923828125">
        <ele>699.79998779296875</ele>
        <time>2023-01-27T09:35:55.000Z</time>
      </trkpt>
      <trkpt lat="40.08536227047443389892578125" lon="0.02846335060894489288330078125">
        <ele>700</ele>
        <time>2023-01-27T09:35:56.000Z</time>
      </trkpt>
      <trkpt lat="40.08538934402167797088623046875" lon="0.028484724462032318115234375">
        <ele>700.20001220703125</ele>
        <time>2023-01-27T09:35:57.000Z</time>
      </trkpt>
      <trkpt lat="40.08541616611182689666748046875" lon="0.028504841029644012451171875">
        <ele>700.20001220703125</ele>
        <time>2023-01-27T09:35:58.000Z</time>
      </trkpt>
      <trkpt lat="40.0854429043829441070556640625" lon="0.0285231135785579681396484375">
        <ele>700.5999755859375</ele>
        <time>2023-01-27T09:35:59.000Z</time>
      </trkpt>
      <trkpt lat="40.08546712808310985565185546875" lon="0.028543062508106231689453125">
        <ele>700.79998779296875</ele>
        <time>2023-01-27T09:36:00.000Z</time>
      </trkpt>
      <trkpt lat="40.08549101650714874267578125" lon="0.02856887876987457275390625">
        <ele>700.79998779296875</ele>
        <time>2023-01-27T09:36:01.000Z</time>
      </trkpt>
      <trkpt lat="40.08551574312150478363037109375" lon="0.02859896980226039886474609375">
        <ele>700.79998779296875</ele>
        <time>2023-01-27T09:36:02.000Z</time>
      </trkpt>
      <trkpt lat="40.08553837426006793975830078125" lon="0.0286283902823925018310546875">
        <ele>701.20001220703125</ele>
        <time>2023-01-27T09:36:03.000Z</time>
      </trkpt>
      <trkpt lat="40.08555983193218708038330078125" lon="0.028655044734477996826171875">
        <ele>701.20001220703125</ele>
        <time>2023-01-27T09:36:04.000Z</time>
      </trkpt>
      <trkpt lat="40.08558095432817935943603515625" lon="0.02867893315851688385009765625">
        <ele>701.5999755859375</ele>
        <time>2023-01-27T09:36:05.000Z</time>
      </trkpt>
      <trkpt lat="40.0856018252670764923095703125" lon="0.02870592288672924041748046875">
        <ele>701.5999755859375</ele>
        <time>2023-01-27T09:36:06.000Z</time>
      </trkpt>
      <trkpt lat="40.0856236182153224945068359375" lon="0.02873743884265422821044921875">
        <ele>702</ele>
        <time>2023-01-27T09:36:07.000Z</time>
      </trkpt>
      <trkpt lat="40.08564616553485393524169921875" lon="0.02877029590308666229248046875">
        <ele>702.4000244140625</ele>
        <time>2023-01-27T09:36:08.000Z</time>
      </trkpt>
      <trkpt lat="40.0856668688356876373291015625" lon="0.028806589543819427490234375">
        <ele>702.79998779296875</ele>
        <time>2023-01-27T09:36:09.000Z</time>
      </trkpt>
      <trkpt lat="40.08568505756556987762451171875" lon="0.0288439728319644927978515625">
        <ele>703</ele>
        <time>2023-01-27T09:36:10.000Z</time>
      </trkpt>
      <trkpt lat="40.0857050903141498565673828125" lon="0.0288781709969043731689453125">
        <ele>703</ele>
        <time>2023-01-27T09:36:11.000Z</time>
      </trkpt>
      <trkpt lat="40.0857211835682392120361328125" lon="0.02891345880925655364990234375">
        <ele>703.20001220703125</ele>
        <time>2023-01-27T09:36:12.000Z</time>
      </trkpt>
      <trkpt lat="40.08573375642299652099609375" lon="0.0289519317448139190673828125">
        <ele>703.4000244140625</ele>
        <time>2023-01-27T09:36:13.000Z</time>
      </trkpt>
      <trkpt lat="40.08574255742132663726806640625" lon="0.02898856066167354583740234375">
        <ele>703.5999755859375</ele>
        <time>2023-01-27T09:36:14.000Z</time>
      </trkpt>
      <trkpt lat="40.08574909530580043792724609375" lon="0.02902577631175518035888671875">
        <ele>703.5999755859375</ele>
        <time>2023-01-27T09:36:15.000Z</time>
      </trkpt>
      <trkpt lat="40.08575395680963993072509765625" lon="0.0290632434189319610595703125">
        <ele>703.79998779296875</ele>
        <time>2023-01-27T09:36:16.000Z</time>
      </trkpt>
      <trkpt lat="40.08575881831347942352294921875" lon="0.02909752540290355682373046875">
        <ele>704</ele>
        <time>2023-01-27T09:36:17.000Z</time>
      </trkpt>
      <trkpt lat="40.08576217107474803924560546875" lon="0.0291323103010654449462890625">
        <ele>704.4000244140625</ele>
        <time>2023-01-27T09:36:18.000Z</time>
      </trkpt>
      <trkpt lat="40.085761584341526031494140625" lon="0.02916432917118072509765625">
        <ele>704.5999755859375</ele>
        <time>2023-01-27T09:36:19.000Z</time>
      </trkpt>
      <trkpt lat="40.08575781248509883880615234375" lon="0.02919743768870830535888671875">
        <ele>705</ele>
        <time>2023-01-27T09:36:20.000Z</time>
      </trkpt>
      <trkpt lat="40.0857553817331790924072265625" lon="0.02923046238720417022705078125">
        <ele>705.4000244140625</ele>
        <time>2023-01-27T09:36:21.000Z</time>
      </trkpt>
      <trkpt lat="40.08575395680963993072509765625" lon="0.02926549874246120452880859375">
        <ele>705.4000244140625</ele>
        <time>2023-01-27T09:36:22.000Z</time>
      </trkpt>
      <trkpt lat="40.08575093932449817657470703125" lon="0.02929885871708393096923828125">
        <ele>705.79998779296875</ele>
        <time>2023-01-27T09:36:23.000Z</time>
      </trkpt>
      <trkpt lat="40.085746161639690399169921875" lon="0.02933196723461151123046875">
        <ele>706</ele>
        <time>2023-01-27T09:36:24.000Z</time>
      </trkpt>
      <trkpt lat="40.0857409648597240447998046875" lon="0.029365830123424530029296875">
        <ele>706.20001220703125</ele>
        <time>2023-01-27T09:36:25.000Z</time>
      </trkpt>
      <trkpt lat="40.0857359357178211212158203125" lon="0.02940044738352298736572265625">
        <ele>706.4000244140625</ele>
        <time>2023-01-27T09:36:26.000Z</time>
      </trkpt>
      <trkpt lat="40.08572881110012531280517578125" lon="0.029435567557811737060546875">
        <ele>706.79998779296875</ele>
        <time>2023-01-27T09:36:27.000Z</time>
      </trkpt>
      <trkpt lat="40.0857215188443660736083984375" lon="0.02947169356048107147216796875">
        <ele>707</ele>
        <time>2023-01-27T09:36:28.000Z</time>
      </trkpt>
      <trkpt lat="40.08571355603635311126708984375" lon="0.02950656227767467498779296875">
        <ele>707.4000244140625</ele>
        <time>2023-01-27T09:36:29.000Z</time>
      </trkpt>
      <trkpt lat="40.08570819161832332611083984375" lon="0.02953908406198024749755859375">
        <ele>707.5999755859375</ele>
        <time>2023-01-27T09:36:30.000Z</time>
      </trkpt>
      <trkpt lat="40.08570383302867412567138671875" lon="0.02957378514111042022705078125">
        <ele>708.20001220703125</ele>
        <time>2023-01-27T09:36:31.000Z</time>
      </trkpt>
      <trkpt lat="40.0857008993625640869140625" lon="0.0296070612967014312744140625">
        <ele>708.4000244140625</ele>
        <time>2023-01-27T09:36:32.000Z</time>
      </trkpt>
      <trkpt lat="40.0857014022767543792724609375" lon="0.02964084036648273468017578125">
        <ele>708.79998779296875</ele>
        <time>2023-01-27T09:36:33.000Z</time>
      </trkpt>
      <trkpt lat="40.0857035815715789794921875" lon="0.0296731106936931610107421875">
        <ele>709.4000244140625</ele>
        <time>2023-01-27T09:36:34.000Z</time>
      </trkpt>
      <trkpt lat="40.08570349775254726409912109375" lon="0.02970554865896701812744140625">
        <ele>709.5999755859375</ele>
        <time>2023-01-27T09:36:35.000Z</time>
      </trkpt>
      <trkpt lat="40.08570198900997638702392578125" lon="0.0297391600906848907470703125">
        <ele>709.79998779296875</ele>
        <time>2023-01-27T09:36:36.000Z</time>
      </trkpt>
      <trkpt lat="40.085701905190944671630859375" lon="0.02977729775011539459228515625">
        <ele>710</ele>
        <time>2023-01-27T09:36:37.000Z</time>
      </trkpt>
      <trkpt lat="40.08570291101932525634765625" lon="0.02980965189635753631591796875">
        <ele>710.79998779296875</ele>
        <time>2023-01-27T09:36:38.000Z</time>
      </trkpt>
      <trkpt lat="40.08570416830480098724365234375" lon="0.02984016202390193939208984375">
        <ele>711</ele>
        <time>2023-01-27T09:36:39.000Z</time>
      </trkpt>
      <trkpt lat="40.08570467121899127960205078125" lon="0.0298655591905117034912109375">
        <ele>711.5999755859375</ele>
        <time>2023-01-27T09:36:40.000Z</time>
      </trkpt>
      <trkpt lat="40.085703246295452117919921875" lon="0.02989883534610271453857421875">
        <ele>711.79998779296875</ele>
        <time>2023-01-27T09:36:41.000Z</time>
      </trkpt>
      <trkpt lat="40.085707269608974456787109375" lon="0.02993973903357982635498046875">
        <ele>712.20001220703125</ele>
        <time>2023-01-27T09:36:42.000Z</time>
      </trkpt>
      <trkpt lat="40.08571037091314792633056640625" lon="0.02997343428432941436767578125">
        <ele>712.4000244140625</ele>
        <time>2023-01-27T09:36:43.000Z</time>
      </trkpt>
      <trkpt lat="40.08571422658860683441162109375" lon="0.03000528551638126373291015625">
        <ele>712.5999755859375</ele>
        <time>2023-01-27T09:36:44.000Z</time>
      </trkpt>
      <trkpt lat="40.08571623824536800384521484375" lon="0.0300313532352447509765625">
        <ele>712.5999755859375</ele>
        <time>2023-01-27T09:36:45.000Z</time>
      </trkpt>
      <trkpt lat="40.08571808226406574249267578125" lon="0.0300650484859943389892578125">
        <ele>713</ele>
        <time>2023-01-27T09:36:46.000Z</time>
      </trkpt>
      <trkpt lat="40.0857223570346832275390625" lon="0.0300989113748073577880859375">
        <ele>714.20001220703125</ele>
        <time>2023-01-27T09:36:47.000Z</time>
      </trkpt>
      <trkpt lat="40.08572780527174472808837890625" lon="0.03013637848198413848876953125">
        <ele>714.5999755859375</ele>
        <time>2023-01-27T09:36:48.000Z</time>
      </trkpt>
      <trkpt lat="40.08573166094720363616943359375" lon="0.03016856499016284942626953125">
        <ele>715.20001220703125</ele>
        <time>2023-01-27T09:36:49.000Z</time>
      </trkpt>
      <trkpt lat="40.08573367260396480560302734375" lon="0.0301934592425823211669921875">
        <ele>715.4000244140625</ele>
        <time>2023-01-27T09:36:50.000Z</time>
      </trkpt>
      <trkpt lat="40.085738785564899444580078125" lon="0.030235536396503448486328125">
        <ele>715.79998779296875</ele>
        <time>2023-01-27T09:36:51.000Z</time>
      </trkpt>
      <trkpt lat="40.08574171923100948333740234375" lon="0.03026529215276241302490234375">
        <ele>716</ele>
        <time>2023-01-27T09:36:52.000Z</time>
      </trkpt>
      <trkpt lat="40.0857453234493732452392578125" lon="0.030287839472293853759765625">
        <ele>716.20001220703125</ele>
        <time>2023-01-27T09:36:53.000Z</time>
      </trkpt>
      <trkpt lat="40.0857491791248321533203125" lon="0.03031709231436252593994140625">
        <ele>716.4000244140625</ele>
        <time>2023-01-27T09:36:54.000Z</time>
      </trkpt>
      <trkpt lat="40.08575462736189365386962890625" lon="0.03035196103155612945556640625">
        <ele>716.79998779296875</ele>
        <time>2023-01-27T09:36:55.000Z</time>
      </trkpt>
      <trkpt lat="40.085758902132511138916015625" lon="0.03038062714040279388427734375">
        <ele>717</ele>
        <time>2023-01-27T09:36:56.000Z</time>
      </trkpt>
      <trkpt lat="40.08576334454119205474853515625" lon="0.03040912561118602752685546875">
        <ele>717.4000244140625</ele>
        <time>2023-01-27T09:36:57.000Z</time>
      </trkpt>
      <trkpt lat="40.08576569147408008575439453125" lon="0.03043175674974918365478515625">
        <ele>718</ele>
        <time>2023-01-27T09:36:58.000Z</time>
      </trkpt>
      <trkpt lat="40.0857701338827610015869140625" lon="0.03046360798180103302001953125">
        <ele>718.20001220703125</ele>
        <time>2023-01-27T09:36:59.000Z</time>
      </trkpt>
      <trkpt lat="40.08577273227274417877197265625" lon="0.03049336373805999755859375">
        <ele>718.79998779296875</ele>
        <time>2023-01-27T09:37:00.000Z</time>
      </trkpt>
      <trkpt lat="40.08577524684369564056396484375" lon="0.0305260531604290008544921875">
        <ele>719.20001220703125</ele>
        <time>2023-01-27T09:37:01.000Z</time>
      </trkpt>
      <trkpt lat="40.08577725850045680999755859375" lon="0.03055798821151256561279296875">
        <ele>719.4000244140625</ele>
        <time>2023-01-27T09:37:02.000Z</time>
      </trkpt>
      <trkpt lat="40.08578077889978885650634765625" lon="0.030582211911678314208984375">
        <ele>719.5999755859375</ele>
        <time>2023-01-27T09:37:03.000Z</time>
      </trkpt>
      <trkpt lat="40.0857867300510406494140625" lon="0.03061146475374698638916015625">
        <ele>720.20001220703125</ele>
        <time>2023-01-27T09:37:04.000Z</time>
      </trkpt>
      <trkpt lat="40.08579150773584842681884765625" lon="0.03064080141484737396240234375">
        <ele>720.4000244140625</ele>
        <time>2023-01-27T09:37:05.000Z</time>
      </trkpt>
      <trkpt lat="40.0857961177825927734375" lon="0.0306749157607555389404296875">
        <ele>721</ele>
        <time>2023-01-27T09:37:06.000Z</time>
      </trkpt>
      <trkpt lat="40.0857986323535442352294921875" lon="0.0306963734328746795654296875">
        <ele>721.20001220703125</ele>
        <time>2023-01-27T09:37:07.000Z</time>
      </trkpt>
      <trkpt lat="40.08580081164836883544921875" lon="0.030724704265594482421875">
        <ele>721.5999755859375</ele>
        <time>2023-01-27T09:37:08.000Z</time>
      </trkpt>
      <trkpt lat="40.08580148220062255859375" lon="0.030751191079616546630859375">
        <ele>722</ele>
        <time>2023-01-27T09:37:09.000Z</time>
      </trkpt>
      <trkpt lat="40.0857982970774173736572265625" lon="0.030777342617511749267578125">
        <ele>722.4000244140625</ele>
        <time>2023-01-27T09:37:10.000Z</time>
      </trkpt>
      <trkpt lat="40.08580307476222515106201171875" lon="0.030802823603153228759765625">
        <ele>723</ele>
        <time>2023-01-27T09:37:11.000Z</time>
      </trkpt>
      <trkpt lat="40.08580927737057209014892578125" lon="0.03083056770265102386474609375">
        <ele>723.20001220703125</ele>
        <time>2023-01-27T09:37:12.000Z</time>
      </trkpt>
      <trkpt lat="40.08581464178860187530517578125" lon="0.03086040727794170379638671875">
        <ele>723.5999755859375</ele>
        <time>2023-01-27T09:37:13.000Z</time>
      </trkpt>
      <trkpt lat="40.08581749163568019866943359375" lon="0.0308911688625812530517578125">
        <ele>723.5999755859375</ele>
        <time>2023-01-27T09:37:14.000Z</time>
      </trkpt>
      <trkpt lat="40.08582084439694881439208984375" lon="0.0309277139604091644287109375">
        <ele>724</ele>
        <time>2023-01-27T09:37:15.000Z</time>
      </trkpt>
      <trkpt lat="40.0858224369585514068603515625" lon="0.0309505127370357513427734375">
        <ele>724</ele>
        <time>2023-01-27T09:37:16.000Z</time>
      </trkpt>
      <trkpt lat="40.08582369424402713775634765625" lon="0.03098194487392902374267578125">
        <ele>724.79998779296875</ele>
        <time>2023-01-27T09:37:17.000Z</time>
      </trkpt>
      <trkpt lat="40.08582503534853458404541015625" lon="0.03101279027760028839111328125">
        <ele>725</ele>
        <time>2023-01-27T09:37:18.000Z</time>
      </trkpt>
      <trkpt lat="40.085823275148868560791015625" lon="0.03104095347225666046142578125">
        <ele>725.20001220703125</ele>
        <time>2023-01-27T09:37:19.000Z</time>
      </trkpt>
      <trkpt lat="40.0858180783689022064208984375" lon="0.03106794320046901702880859375">
        <ele>725.4000244140625</ele>
        <time>2023-01-27T09:37:20.000Z</time>
      </trkpt>
      <trkpt lat="40.08581648580729961395263671875" lon="0.031096525490283966064453125">
        <ele>725.79998779296875</ele>
        <time>2023-01-27T09:37:21.000Z</time>
      </trkpt>
      <trkpt lat="40.08581480942666530609130859375" lon="0.0311228446662425994873046875">
        <ele>726.5999755859375</ele>
        <time>2023-01-27T09:37:22.000Z</time>
      </trkpt>
      <trkpt lat="40.0858093611896038055419921875" lon="0.03114840947091579437255859375">
        <ele>727</ele>
        <time>2023-01-27T09:37:23.000Z</time>
      </trkpt>
      <trkpt lat="40.085803158581256866455078125" lon="0.03117254935204982757568359375">
        <ele>727.4000244140625</ele>
        <time>2023-01-27T09:37:24.000Z</time>
      </trkpt>
      <trkpt lat="40.0857989676296710968017578125" lon="0.0311905704438686370849609375">
        <ele>727.5999755859375</ele>
        <time>2023-01-27T09:37:25.000Z</time>
      </trkpt>
      <trkpt lat="40.08579276502132415771484375" lon="0.03121353685855865478515625">
        <ele>728.20001220703125</ele>
        <time>2023-01-27T09:37:26.000Z</time>
      </trkpt>
      <trkpt lat="40.08578471839427947998046875" lon="0.03123390488326549530029296875">
        <ele>728.4000244140625</ele>
        <time>2023-01-27T09:37:27.000Z</time>
      </trkpt>
      <trkpt lat="40.08577658794820308685302734375" lon="0.031253434717655181884765625">
        <ele>728.5999755859375</ele>
        <time>2023-01-27T09:37:28.000Z</time>
      </trkpt>
      <trkpt lat="40.08576686494052410125732421875" lon="0.0312713719904422760009765625">
        <ele>729.20001220703125</ele>
        <time>2023-01-27T09:37:29.000Z</time>
      </trkpt>
      <trkpt lat="40.085757561028003692626953125" lon="0.03128889016807079315185546875">
        <ele>730</ele>
        <time>2023-01-27T09:37:30.000Z</time>
      </trkpt>
      <trkpt lat="40.08574448525905609130859375" lon="0.03130665980279445648193359375">
        <ele>730.4000244140625</ele>
        <time>2023-01-27T09:37:31.000Z</time>
      </trkpt>
      <trkpt lat="40.08572210557758808135986328125" lon="0.03132124431431293487548828125">
        <ele>731.5999755859375</ele>
        <time>2023-01-27T09:37:32.000Z</time>
      </trkpt>
      <trkpt lat="40.08569830097258090972900390625" lon="0.031335912644863128662109375">
        <ele>731.79998779296875</ele>
        <time>2023-01-27T09:37:33.000Z</time>
      </trkpt>
      <trkpt lat="40.085677094757556915283203125" lon="0.0313458032906055450439453125">
        <ele>732</ele>
        <time>2023-01-27T09:37:34.000Z</time>
      </trkpt>
      <trkpt lat="40.08565722964704036712646484375" lon="0.0313525088131427764892578125">
        <ele>732.4000244140625</ele>
        <time>2023-01-27T09:37:35.000Z</time>
      </trkpt>
      <trkpt lat="40.08563661016523838043212890625" lon="0.031358711421489715576171875">
        <ele>732.5999755859375</ele>
        <time>2023-01-27T09:37:36.000Z</time>
      </trkpt>
      <trkpt lat="40.085616074502468109130859375" lon="0.0313617289066314697265625">
        <ele>732.5999755859375</ele>
        <time>2023-01-27T09:37:37.000Z</time>
      </trkpt>
      <trkpt lat="40.08559503592550754547119140625" lon="0.03136483021080493927001953125">
        <ele>732.79998779296875</ele>
        <time>2023-01-27T09:37:38.000Z</time>
      </trkpt>
      <trkpt lat="40.085572488605976104736328125" lon="0.03137019462883472442626953125">
        <ele>733.20001220703125</ele>
        <time>2023-01-27T09:37:39.000Z</time>
      </trkpt>
      <trkpt lat="40.085551030933856964111328125" lon="0.031376145780086517333984375">
        <ele>733.5999755859375</ele>
        <time>2023-01-27T09:37:40.000Z</time>
      </trkpt>
      <trkpt lat="40.08553393185138702392578125" lon="0.0313776545226573944091796875">
        <ele>734</ele>
        <time>2023-01-27T09:37:41.000Z</time>
      </trkpt>
      <trkpt lat="40.0855190120637416839599609375" lon="0.03137421794235706329345703125">
        <ele>734.20001220703125</ele>
        <time>2023-01-27T09:37:42.000Z</time>
      </trkpt>
      <trkpt lat="40.08550166152417659759521484375" lon="0.03137002699077129364013671875">
        <ele>734.5999755859375</ele>
        <time>2023-01-27T09:37:43.000Z</time>
      </trkpt>
      <trkpt lat="40.0854814611375331878662109375" lon="0.031369440257549285888671875">
        <ele>734.79998779296875</ele>
        <time>2023-01-27T09:37:44.000Z</time>
      </trkpt>
      <trkpt lat="40.08546494878828525543212890625" lon="0.03136583603918552398681640625">
        <ele>735.20001220703125</ele>
        <time>2023-01-27T09:37:45.000Z</time>
      </trkpt>
      <trkpt lat="40.08545505814254283905029296875" lon="0.03135326318442821502685546875">
        <ele>735.4000244140625</ele>
        <time>2023-01-27T09:37:46.000Z</time>
      </trkpt>
      <trkpt lat="40.085449777543544769287109375" lon="0.03133800812065601348876953125">
        <ele>735.79998779296875</ele>
        <time>2023-01-27T09:37:47.000Z</time>
      </trkpt>
      <trkpt lat="40.085445083677768707275390625" lon="0.0313206575810909271240234375">
        <ele>736</ele>
        <time>2023-01-27T09:37:48.000Z</time>
      </trkpt>
      <trkpt lat="40.0854432396590709686279296875" lon="0.03131403587758541107177734375">
        <ele>736.20001220703125</ele>
        <time>2023-01-27T09:37:49.000Z</time>
      </trkpt>
      <trkpt lat="40.08544273674488067626953125" lon="0.0313089229166507720947265625">
        <ele>736.5999755859375</ele>
        <time>2023-01-27T09:37:50.000Z</time>
      </trkpt>
      <trkpt lat="40.08544273674488067626953125" lon="0.0313089229166507720947265625">
        <ele>736.79998779296875</ele>
        <time>2023-01-27T09:37:52.000Z</time>
      </trkpt>
      <trkpt lat="40.08544466458261013031005859375" lon="0.0313146226108074188232421875">
        <ele>737</ele>
        <time>2023-01-27T09:44:04.000Z</time>
      </trkpt>
      <trkpt lat="40.08544466458261013031005859375" lon="0.0313146226108074188232421875">
        <ele>737</ele>
        <time>2023-01-27T09:44:05.000Z</time>
      </trkpt>
      <trkpt lat="40.0854435749351978302001953125" lon="0.03132493235170841217041015625">
        <ele>737</ele>
        <time>2023-01-27T09:44:09.000Z</time>
      </trkpt>
      <trkpt lat="40.08545673452317714691162109375" lon="0.03134303726255893707275390625">
        <ele>737</ele>
        <time>2023-01-27T09:44:10.000Z</time>
      </trkpt>
      <trkpt lat="40.085470564663410186767578125" lon="0.0313588790595531463623046875">
        <ele>736.79998779296875</ele>
        <time>2023-01-27T09:44:11.000Z</time>
      </trkpt>
      <trkpt lat="40.08548288606107234954833984375" lon="0.0313702784478664398193359375">
        <ele>736.79998779296875</ele>
        <time>2023-01-27T09:44:12.000Z</time>
      </trkpt>
      <trkpt lat="40.0854985602200031280517578125" lon="0.03137589432299137115478515625">
        <ele>736.5999755859375</ele>
        <time>2023-01-27T09:44:13.000Z</time>
      </trkpt>
      <trkpt lat="40.08555413223803043365478515625" lon="0.03139324486255645751953125">
        <ele>736.4000244140625</ele>
        <time>2023-01-27T09:44:16.000Z</time>
      </trkpt>
      <trkpt lat="40.0855694711208343505859375" lon="0.031396932899951934814453125">
        <ele>736.4000244140625</ele>
        <time>2023-01-27T09:44:17.000Z</time>
      </trkpt>
      <trkpt lat="40.08558162488043308258056640625" lon="0.031400285661220550537109375">
        <ele>736</ele>
        <time>2023-01-27T09:44:18.000Z</time>
      </trkpt>
      <trkpt lat="40.085598640143871307373046875" lon="0.03139785490930080413818359375">
        <ele>735.79998779296875</ele>
        <time>2023-01-27T09:44:19.000Z</time>
      </trkpt>
      <trkpt lat="40.0856708921492099761962890625" lon="0.03137237392365932464599609375">
        <ele>735</ele>
        <time>2023-01-27T09:44:23.000Z</time>
      </trkpt>
      <trkpt lat="40.085693858563899993896484375" lon="0.03135502338409423828125">
        <ele>734.79998779296875</ele>
        <time>2023-01-27T09:44:24.000Z</time>
      </trkpt>
      <trkpt lat="40.08571741171181201934814453125" lon="0.03134630620479583740234375">
        <ele>734.5999755859375</ele>
        <time>2023-01-27T09:44:25.000Z</time>
      </trkpt>
      <trkpt lat="40.0857572257518768310546875" lon="0.03130481578409671783447265625">
        <ele>734.4000244140625</ele>
        <time>2023-01-27T09:44:27.000Z</time>
      </trkpt>
      <trkpt lat="40.08578949607908725738525390625" lon="0.031254105269908905029296875">
        <ele>734.4000244140625</ele>
        <time>2023-01-27T09:44:29.000Z</time>
      </trkpt>
      <trkpt lat="40.085802488029003143310546875" lon="0.03124094568192958831787109375">
        <ele>733.79998779296875</ele>
        <time>2023-01-27T09:44:30.000Z</time>
      </trkpt>
      <trkpt lat="40.0858217664062976837158203125" lon="0.0312297977507114410400390625">
        <ele>733.4000244140625</ele>
        <time>2023-01-27T09:44:31.000Z</time>
      </trkpt>
      <trkpt lat="40.08586761541664600372314453125" lon="0.03124262206256389617919921875">
        <ele>732.4000244140625</ele>
        <time>2023-01-27T09:44:33.000Z</time>
      </trkpt>
      <trkpt lat="40.085870884358882904052734375" lon="0.031366758048534393310546875">
        <ele>731.4000244140625</ele>
        <time>2023-01-27T09:44:37.000Z</time>
      </trkpt>
      <trkpt lat="40.0858770869672298431396484375" lon="0.03139249049127101898193359375">
        <ele>731.4000244140625</ele>
        <time>2023-01-27T09:44:38.000Z</time>
      </trkpt>
      <trkpt lat="40.085884295403957366943359375" lon="0.031416714191436767578125">
        <ele>731</ele>
        <time>2023-01-27T09:44:39.000Z</time>
      </trkpt>
      <trkpt lat="40.08589343167841434478759765625" lon="0.0314477272331714630126953125">
        <ele>730.79998779296875</ele>
        <time>2023-01-27T09:44:40.000Z</time>
      </trkpt>
      <trkpt lat="40.08589996956288814544677734375" lon="0.031465329229831695556640625">
        <ele>730</ele>
        <time>2023-01-27T09:44:41.000Z</time>
      </trkpt>
      <trkpt lat="40.0859384424984455108642578125" lon="0.031529702246189117431640625">
        <ele>728.79998779296875</ele>
        <time>2023-01-27T09:44:44.000Z</time>
      </trkpt>
      <trkpt lat="40.0859639234840869903564453125" lon="0.0315602123737335205078125">
        <ele>728.20001220703125</ele>
        <time>2023-01-27T09:44:46.000Z</time>
      </trkpt>
      <trkpt lat="40.08598865009844303131103515625" lon="0.03157923929393291473388671875">
        <ele>727.79998779296875</ele>
        <time>2023-01-27T09:44:47.000Z</time>
      </trkpt>
      <trkpt lat="40.0860202498733997344970703125" lon="0.03160337917506694793701171875">
        <ele>727.20001220703125</ele>
        <time>2023-01-27T09:44:48.000Z</time>
      </trkpt>
      <trkpt lat="40.08605654351413249969482421875" lon="0.03163254819810390472412109375">
        <ele>726.79998779296875</ele>
        <time>2023-01-27T09:44:49.000Z</time>
      </trkpt>
      <trkpt lat="40.086100213229656219482421875" lon="0.03165735863149166107177734375">
        <ele>726.4000244140625</ele>
        <time>2023-01-27T09:44:50.000Z</time>
      </trkpt>
      <trkpt lat="40.08619098924100399017333984375" lon="0.0317022018134593963623046875">
        <ele>725.20001220703125</ele>
        <time>2023-01-27T09:44:52.000Z</time>
      </trkpt>
      <trkpt lat="40.0862770713865756988525390625" lon="0.03174050711095333099365234375">
        <ele>724.20001220703125</ele>
        <time>2023-01-27T09:44:54.000Z</time>
      </trkpt>
      <trkpt lat="40.086313448846340179443359375" lon="0.03175291232764720916748046875">
        <ele>723.4000244140625</ele>
        <time>2023-01-27T09:44:55.000Z</time>
      </trkpt>
      <trkpt lat="40.08634940721094608306884765625" lon="0.0317632220685482025146484375">
        <ele>722.4000244140625</ele>
        <time>2023-01-27T09:44:56.000Z</time>
      </trkpt>
      <trkpt lat="40.08637907914817333221435546875" lon="0.03177302889525890350341796875">
        <ele>721</ele>
        <time>2023-01-27T09:44:57.000Z</time>
      </trkpt>
      <trkpt lat="40.086405314505100250244140625" lon="0.03178208135068416595458984375">
        <ele>720.5999755859375</ele>
        <time>2023-01-27T09:44:58.000Z</time>
      </trkpt>
      <trkpt lat="40.08643657900393009185791015625" lon="0.03179532475769519805908203125">
        <ele>719.20001220703125</ele>
        <time>2023-01-27T09:44:59.000Z</time>
      </trkpt>
      <trkpt lat="40.0865162909030914306640625" lon="0.0318332947790622711181640625">
        <ele>717.4000244140625</ele>
        <time>2023-01-27T09:45:01.000Z</time>
      </trkpt>
      <trkpt lat="40.086565576493740081787109375" lon="0.0318570993840694427490234375">
        <ele>717</ele>
        <time>2023-01-27T09:45:02.000Z</time>
      </trkpt>
      <trkpt lat="40.08661746047437191009521484375" lon="0.0318889506161212921142578125">
        <ele>716.5999755859375</ele>
        <time>2023-01-27T09:45:03.000Z</time>
      </trkpt>
      <trkpt lat="40.08672022260725498199462890625" lon="0.03196966834366321563720703125">
        <ele>715.20001220703125</ele>
        <time>2023-01-27T09:45:05.000Z</time>
      </trkpt>
      <trkpt lat="40.08676498197019100189208984375" lon="0.0320079736411571502685546875">
        <ele>715</ele>
        <time>2023-01-27T09:45:06.000Z</time>
      </trkpt>
      <trkpt lat="40.08681208826601505279541015625" lon="0.03204259090125560760498046875">
        <ele>713.5999755859375</ele>
        <time>2023-01-27T09:45:07.000Z</time>
      </trkpt>
      <trkpt lat="40.08686388842761516571044921875" lon="0.03207460977137088775634765625">
        <ele>712.79998779296875</ele>
        <time>2023-01-27T09:45:08.000Z</time>
      </trkpt>
      <trkpt lat="40.08691652677953243255615234375" lon="0.0321035273373126983642578125">
        <ele>711.79998779296875</ele>
        <time>2023-01-27T09:45:09.000Z</time>
      </trkpt>
      <trkpt lat="40.08697084151208400726318359375" lon="0.03213395364582538604736328125">
        <ele>710.4000244140625</ele>
        <time>2023-01-27T09:45:10.000Z</time>
      </trkpt>
      <trkpt lat="40.0871467776596546173095703125" lon="0.03220997750759124755859375">
        <ele>709.20001220703125</ele>
        <time>2023-01-27T09:45:13.000Z</time>
      </trkpt>
      <trkpt lat="40.08719681762158870697021484375" lon="0.03223302774131298065185546875">
        <ele>708</ele>
        <time>2023-01-27T09:45:14.000Z</time>
      </trkpt>
      <trkpt lat="40.0872500427067279815673828125" lon="0.03225431777536869049072265625">
        <ele>707.5999755859375</ele>
        <time>2023-01-27T09:45:15.000Z</time>
      </trkpt>
      <trkpt lat="40.08730209432542324066162109375" lon="0.0322782061994075775146484375">
        <ele>706.4000244140625</ele>
        <time>2023-01-27T09:45:16.000Z</time>
      </trkpt>
      <trkpt lat="40.08735808543860912322998046875" lon="0.0323058664798736572265625">
        <ele>706</ele>
        <time>2023-01-27T09:45:17.000Z</time>
      </trkpt>
      <trkpt lat="40.08742162026464939117431640625" lon="0.0323345325887203216552734375">
        <ele>705.20001220703125</ele>
        <time>2023-01-27T09:45:18.000Z</time>
      </trkpt>
      <trkpt lat="40.087546594440937042236328125" lon="0.032400079071521759033203125">
        <ele>703.5999755859375</ele>
        <time>2023-01-27T09:45:20.000Z</time>
      </trkpt>
      <trkpt lat="40.08766000159084796905517578125" lon="0.03246252425014972686767578125">
        <ele>702</ele>
        <time>2023-01-27T09:45:22.000Z</time>
      </trkpt>
      <trkpt lat="40.0877083651721477508544921875" lon="0.03249689005315303802490234375">
        <ele>700.5999755859375</ele>
        <time>2023-01-27T09:45:23.000Z</time>
      </trkpt>
      <trkpt lat="40.08775656111538410186767578125" lon="0.03253427334129810333251953125">
        <ele>700</ele>
        <time>2023-01-27T09:45:24.000Z</time>
      </trkpt>
      <trkpt lat="40.08780299685895442962646484375" lon="0.0325740873813629150390625">
        <ele>698.4000244140625</ele>
        <time>2023-01-27T09:45:25.000Z</time>
      </trkpt>
      <trkpt lat="40.08789972402155399322509765625" lon="0.0326553918421268463134765625">
        <ele>697</ele>
        <time>2023-01-27T09:45:27.000Z</time>
      </trkpt>
      <trkpt lat="40.0879459083080291748046875" lon="0.03269403241574764251708984375">
        <ele>696.20001220703125</ele>
        <time>2023-01-27T09:45:28.000Z</time>
      </trkpt>
      <trkpt lat="40.0879869796335697174072265625" lon="0.032727979123592376708984375">
        <ele>694.79998779296875</ele>
        <time>2023-01-27T09:45:29.000Z</time>
      </trkpt>
      <trkpt lat="40.0880255363881587982177734375" lon="0.032762177288532257080078125">
        <ele>694</ele>
        <time>2023-01-27T09:45:30.000Z</time>
      </trkpt>
      <trkpt lat="40.0880657695233821868896484375" lon="0.03279461525380611419677734375">
        <ele>692.5999755859375</ele>
        <time>2023-01-27T09:45:31.000Z</time>
      </trkpt>
      <trkpt lat="40.08810809813439846038818359375" lon="0.0328253768384456634521484375">
        <ele>692.20001220703125</ele>
        <time>2023-01-27T09:45:32.000Z</time>
      </trkpt>
      <trkpt lat="40.088155455887317657470703125" lon="0.03285815007984638214111328125">
        <ele>691</ele>
        <time>2023-01-27T09:45:33.000Z</time>
      </trkpt>
      <trkpt lat="40.0882582180202007293701171875" lon="0.032927803695201873779296875">
        <ele>688.5999755859375</ele>
        <time>2023-01-27T09:45:35.000Z</time>
      </trkpt>
      <trkpt lat="40.08830725215375423431396484375" lon="0.03295655362308025360107421875">
        <ele>686.4000244140625</ele>
        <time>2023-01-27T09:45:36.000Z</time>
      </trkpt>
      <trkpt lat="40.0883567892014980316162109375" lon="0.03298454917967319488525390625">
        <ele>685</ele>
        <time>2023-01-27T09:45:37.000Z</time>
      </trkpt>
      <trkpt lat="40.088412277400493621826171875" lon="0.033006928861141204833984375">
        <ele>683.20001220703125</ele>
        <time>2023-01-27T09:45:38.000Z</time>
      </trkpt>
      <trkpt lat="40.08847229182720184326171875" lon="0.03302008844912052154541015625">
        <ele>682.5999755859375</ele>
        <time>2023-01-27T09:45:39.000Z</time>
      </trkpt>
      <trkpt lat="40.08853130042552947998046875" lon="0.0330268777906894683837890625">
        <ele>680.79998779296875</ele>
        <time>2023-01-27T09:45:40.000Z</time>
      </trkpt>
      <trkpt lat="40.08862291462719440460205078125" lon="0.0330300629138946533203125">
        <ele>679.79998779296875</ele>
        <time>2023-01-27T09:45:42.000Z</time>
      </trkpt>
      <trkpt lat="40.088663734495639801025390625" lon="0.03302981145679950714111328125">
        <ele>679.20001220703125</ele>
        <time>2023-01-27T09:45:43.000Z</time>
      </trkpt>
      <trkpt lat="40.08869416080415248870849609375" lon="0.033032409846782684326171875">
        <ele>677</ele>
        <time>2023-01-27T09:45:44.000Z</time>
      </trkpt>
      <trkpt lat="40.08872366510331630706787109375" lon="0.03303986974060535430908203125">
        <ele>676</ele>
        <time>2023-01-27T09:45:45.000Z</time>
      </trkpt>
      <trkpt lat="40.08875149302184581756591796875" lon="0.03305294550955295562744140625">
        <ele>674</ele>
        <time>2023-01-27T09:45:46.000Z</time>
      </trkpt>
      <trkpt lat="40.08877160958945751190185546875" lon="0.03308563493192195892333984375">
        <ele>672.79998779296875</ele>
        <time>2023-01-27T09:45:47.000Z</time>
      </trkpt>
      <trkpt lat="40.0887782312929630279541015625" lon="0.033130645751953125">
        <ele>671.4000244140625</ele>
        <time>2023-01-27T09:45:48.000Z</time>
      </trkpt>
      <trkpt lat="40.08876892738044261932373046875" lon="0.0331794284284114837646484375">
        <ele>670.5999755859375</ele>
        <time>2023-01-27T09:45:49.000Z</time>
      </trkpt>
      <trkpt lat="40.088755600154399871826171875" lon="0.033203065395355224609375">
        <ele>670.20001220703125</ele>
        <time>2023-01-27T09:45:50.000Z</time>
      </trkpt>
      <trkpt lat="40.08873690851032733917236328125" lon="0.03323399461805820465087890625">
        <ele>669.4000244140625</ele>
        <time>2023-01-27T09:45:51.000Z</time>
      </trkpt>
      <trkpt lat="40.08871729485690593719482421875" lon="0.033253692090511322021484375">
        <ele>669</ele>
        <time>2023-01-27T09:45:52.000Z</time>
      </trkpt>
      <trkpt lat="40.08870002813637256622314453125" lon="0.03327020443975925445556640625">
        <ele>668.79998779296875</ele>
        <time>2023-01-27T09:45:53.000Z</time>
      </trkpt>
      <trkpt lat="40.0886843539774417877197265625" lon="0.0332870520651340484619140625">
        <ele>668.79998779296875</ele>
        <time>2023-01-27T09:45:54.000Z</time>
      </trkpt>
      <trkpt lat="40.08866767399013042449951171875" lon="0.0333031453192234039306640625">
        <ele>668.5999755859375</ele>
        <time>2023-01-27T09:45:55.000Z</time>
      </trkpt>
      <trkpt lat="40.08865158073604106903076171875" lon="0.03331865184009075164794921875">
        <ele>668.5999755859375</ele>
        <time>2023-01-27T09:45:56.000Z</time>
      </trkpt>
      <trkpt lat="40.0886213220655918121337890625" lon="0.033342875540256500244140625">
        <ele>668.4000244140625</ele>
        <time>2023-01-27T09:45:58.000Z</time>
      </trkpt>
      <trkpt lat="40.08860313333570957183837890625" lon="0.033350251615047454833984375">
        <ele>668.4000244140625</ele>
        <time>2023-01-27T09:45:59.000Z</time>
      </trkpt>
      <trkpt lat="40.0885856151580810546875" lon="0.033356286585330963134765625">
        <ele>668.4000244140625</ele>
        <time>2023-01-27T09:46:00.000Z</time>
      </trkpt>
      <trkpt lat="40.0885660015046596527099609375" lon="0.03336131572723388671875">
        <ele>668.20001220703125</ele>
        <time>2023-01-27T09:46:01.000Z</time>
      </trkpt>
      <trkpt lat="40.0885440409183502197265625" lon="0.033362992107868194580078125">
        <ele>668.20001220703125</ele>
        <time>2023-01-27T09:46:02.000Z</time>
      </trkpt>
      <trkpt lat="40.08852233178913593292236328125" lon="0.03336391411721706390380859375">
        <ele>668.20001220703125</ele>
        <time>2023-01-27T09:46:03.000Z</time>
      </trkpt>
      <trkpt lat="40.08850506506860256195068359375" lon="0.03336609341204166412353515625">
        <ele>668</ele>
        <time>2023-01-27T09:46:04.000Z</time>
      </trkpt>
      <trkpt lat="40.0884885527193546295166015625" lon="0.0333702005445957183837890625">
        <ele>668</ele>
        <time>2023-01-27T09:46:05.000Z</time>
      </trkpt>
      <trkpt lat="40.08835435844957828521728515625" lon="0.033381097018718719482421875">
        <ele>667</ele>
        <time>2023-01-27T09:46:10.000Z</time>
      </trkpt>
      <trkpt lat="40.088313706219196319580078125" lon="0.033385120332241058349609375">
        <ele>666.79998779296875</ele>
        <time>2023-01-27T09:46:11.000Z</time>
      </trkpt>
      <trkpt lat="40.08827204816043376922607421875" lon="0.0333867967128753662109375">
        <ele>666.5999755859375</ele>
        <time>2023-01-27T09:46:12.000Z</time>
      </trkpt>
      <trkpt lat="40.088137350976467132568359375" lon="0.03337313421070575714111328125">
        <ele>666</ele>
        <time>2023-01-27T09:46:15.000Z</time>
      </trkpt>
      <trkpt lat="40.08804037235677242279052734375" lon="0.03335620276629924774169921875">
        <ele>665.5999755859375</ele>
        <time>2023-01-27T09:46:17.000Z</time>
      </trkpt>
      <trkpt lat="40.087896287441253662109375" lon="0.03333072178065776824951171875">
        <ele>665.20001220703125</ele>
        <time>2023-01-27T09:46:20.000Z</time>
      </trkpt>
      <trkpt lat="40.08770174346864223480224609375" lon="0.03326500765979290008544921875">
        <ele>665</ele>
        <time>2023-01-27T09:46:24.000Z</time>
      </trkpt>
      <trkpt lat="40.0876513682305812835693359375" lon="0.033246316015720367431640625">
        <ele>665</ele>
        <time>2023-01-27T09:46:25.000Z</time>
      </trkpt>
      <trkpt lat="40.0875658728182315826416015625" lon="0.033206753432750701904296875">
        <ele>665.20001220703125</ele>
        <time>2023-01-27T09:46:27.000Z</time>
      </trkpt>
      <trkpt lat="40.08752924390137195587158203125" lon="0.03318630158901214599609375">
        <ele>665.4000244140625</ele>
        <time>2023-01-27T09:46:28.000Z</time>
      </trkpt>
      <trkpt lat="40.08749403990805149078369140625" lon="0.03316928632557392120361328125">
        <ele>665.5999755859375</ele>
        <time>2023-01-27T09:46:29.000Z</time>
      </trkpt>
      <trkpt lat="40.0874656252562999725341796875" lon="0.03315520472824573516845703125">
        <ele>665.79998779296875</ele>
        <time>2023-01-27T09:46:30.000Z</time>
      </trkpt>
      <trkpt lat="40.087439306080341339111328125" lon="0.03314246423542499542236328125">
        <ele>666</ele>
        <time>2023-01-27T09:46:31.000Z</time>
      </trkpt>
      <trkpt lat="40.08741759695112705230712890625" lon="0.03312905319035053253173828125">
        <ele>666.4000244140625</ele>
        <time>2023-01-27T09:46:32.000Z</time>
      </trkpt>
      <trkpt lat="40.0873999111354351043701171875" lon="0.0331184081733226776123046875">
        <ele>666.4000244140625</ele>
        <time>2023-01-27T09:46:33.000Z</time>
      </trkpt>
      <trkpt lat="40.087383650243282318115234375" lon="0.03310960717499256134033203125">
        <ele>666.5999755859375</ele>
        <time>2023-01-27T09:46:34.000Z</time>
      </trkpt>
      <trkpt lat="40.0873673893511295318603515625" lon="0.03310105763375759124755859375">
        <ele>666.79998779296875</ele>
        <time>2023-01-27T09:46:35.000Z</time>
      </trkpt>
      <trkpt lat="40.08734853006899356842041015625" lon="0.0330885685980319976806640625">
        <ele>667.20001220703125</ele>
        <time>2023-01-27T09:46:36.000Z</time>
      </trkpt>
      <trkpt lat="40.08732967078685760498046875" lon="0.0330775044858455657958984375">
        <ele>667.4000244140625</ele>
        <time>2023-01-27T09:46:37.000Z</time>
      </trkpt>
      <trkpt lat="40.08726705797016620635986328125" lon="0.0330580584704875946044921875">
        <ele>668.5999755859375</ele>
        <time>2023-01-27T09:46:40.000Z</time>
      </trkpt>
      <trkpt lat="40.08722028695046901702880859375" lon="0.033045820891857147216796875">
        <ele>669.5999755859375</ele>
        <time>2023-01-27T09:46:42.000Z</time>
      </trkpt>
      <trkpt lat="40.0871970690786838531494140625" lon="0.03303802572190761566162109375">
        <ele>670</ele>
        <time>2023-01-27T09:46:43.000Z</time>
      </trkpt>
      <trkpt lat="40.08717200718820095062255859375" lon="0.03303316421806812286376953125">
        <ele>670.20001220703125</ele>
        <time>2023-01-27T09:46:44.000Z</time>
      </trkpt>
      <trkpt lat="40.087146274745464324951171875" lon="0.03302645869553089141845703125">
        <ele>670.4000244140625</ele>
        <time>2023-01-27T09:46:45.000Z</time>
      </trkpt>
      <trkpt lat="40.08712121285498142242431640625" lon="0.0330198369920253753662109375">
        <ele>670.79998779296875</ele>
        <time>2023-01-27T09:46:46.000Z</time>
      </trkpt>
      <trkpt lat="40.08709707297384738922119140625" lon="0.03301254473626613616943359375">
        <ele>671.20001220703125</ele>
        <time>2023-01-27T09:46:47.000Z</time>
      </trkpt>
      <trkpt lat="40.08707226254045963287353515625" lon="0.03300382755696773529052734375">
        <ele>671.5999755859375</ele>
        <time>2023-01-27T09:46:48.000Z</time>
      </trkpt>
      <trkpt lat="40.0870445184409618377685546875" lon="0.03299443982541561126708984375">
        <ele>671.79998779296875</ele>
        <time>2023-01-27T09:46:49.000Z</time>
      </trkpt>
      <trkpt lat="40.08701526559889316558837890625" lon="0.03298739902675151824951171875">
        <ele>672</ele>
        <time>2023-01-27T09:46:50.000Z</time>
      </trkpt>
      <trkpt lat="40.08698760531842708587646484375" lon="0.032979436218738555908203125">
        <ele>672.79998779296875</ele>
        <time>2023-01-27T09:46:51.000Z</time>
      </trkpt>
      <trkpt lat="40.08696329779922962188720703125" lon="0.03296828828752040863037109375">
        <ele>673.20001220703125</ele>
        <time>2023-01-27T09:46:52.000Z</time>
      </trkpt>
      <trkpt lat="40.08693672716617584228515625" lon="0.032959990203380584716796875">
        <ele>673.79998779296875</ele>
        <time>2023-01-27T09:46:53.000Z</time>
      </trkpt>
      <trkpt lat="40.0869094021618366241455078125" lon="0.032952614128589630126953125">
        <ele>674.20001220703125</ele>
        <time>2023-01-27T09:46:54.000Z</time>
      </trkpt>
      <trkpt lat="40.08688249625265598297119140625" lon="0.03294314257800579071044921875">
        <ele>674.5999755859375</ele>
        <time>2023-01-27T09:46:55.000Z</time>
      </trkpt>
      <trkpt lat="40.08685684762895107269287109375" lon="0.0329308211803436279296875">
        <ele>675</ele>
        <time>2023-01-27T09:46:56.000Z</time>
      </trkpt>
      <trkpt lat="40.08683212101459503173828125" lon="0.03291917033493518829345703125">
        <ele>675.20001220703125</ele>
        <time>2023-01-27T09:46:57.000Z</time>
      </trkpt>
      <trkpt lat="40.086808986961841583251953125" lon="0.0329093635082244873046875">
        <ele>675.4000244140625</ele>
        <time>2023-01-27T09:46:58.000Z</time>
      </trkpt>
      <trkpt lat="40.086786188185214996337890625" lon="0.03290056250989437103271484375">
        <ele>675.4000244140625</ele>
        <time>2023-01-27T09:46:59.000Z</time>
      </trkpt>
      <trkpt lat="40.08676213212311267852783203125" lon="0.03289335407316684722900390625">
        <ele>675.79998779296875</ele>
        <time>2023-01-27T09:47:00.000Z</time>
      </trkpt>
      <trkpt lat="40.08673782460391521453857421875" lon="0.03288379870355129241943359375">
        <ele>676</ele>
        <time>2023-01-27T09:47:01.000Z</time>
      </trkpt>
      <trkpt lat="40.08671301417052745819091796875" lon="0.03287323750555515289306640625">
        <ele>676.20001220703125</ele>
        <time>2023-01-27T09:47:02.000Z</time>
      </trkpt>
      <trkpt lat="40.086686275899410247802734375" lon="0.032865107059478759765625">
        <ele>676.4000244140625</ele>
        <time>2023-01-27T09:47:03.000Z</time>
      </trkpt>
      <trkpt lat="40.0866589508950710296630859375" lon="0.03285865299403667449951171875">
        <ele>676.79998779296875</ele>
        <time>2023-01-27T09:47:04.000Z</time>
      </trkpt>
      <trkpt lat="40.08663221262395381927490234375" lon="0.0328485108911991119384765625">
        <ele>676.79998779296875</ele>
        <time>2023-01-27T09:47:05.000Z</time>
      </trkpt>
      <trkpt lat="40.0866056419909000396728515625" lon="0.03283820115029811859130859375">
        <ele>677</ele>
        <time>2023-01-27T09:47:06.000Z</time>
      </trkpt>
      <trkpt lat="40.08657865226268768310546875" lon="0.03283082507550716400146484375">
        <ele>677</ele>
        <time>2023-01-27T09:47:07.000Z</time>
      </trkpt>
      <trkpt lat="40.086552165448665618896484375" lon="0.03282495774328708648681640625">
        <ele>677.4000244140625</ele>
        <time>2023-01-27T09:47:08.000Z</time>
      </trkpt>
      <trkpt lat="40.0865261815488338470458984375" lon="0.03282009623944759368896484375">
        <ele>678</ele>
        <time>2023-01-27T09:47:09.000Z</time>
      </trkpt>
      <trkpt lat="40.086499191820621490478515625" lon="0.032811798155307769775390625">
        <ele>678.20001220703125</ele>
        <time>2023-01-27T09:47:10.000Z</time>
      </trkpt>
      <trkpt lat="40.0864728726446628570556640625" lon="0.032802410423755645751953125">
        <ele>678.5999755859375</ele>
        <time>2023-01-27T09:47:11.000Z</time>
      </trkpt>
      <trkpt lat="40.08644462563097476959228515625" lon="0.03279997967183589935302734375">
        <ele>678.5999755859375</ele>
        <time>2023-01-27T09:47:12.000Z</time>
      </trkpt>
      <trkpt lat="40.08641495369374752044677734375" lon="0.0328039191663265228271484375">
        <ele>678.79998779296875</ele>
        <time>2023-01-27T09:47:13.000Z</time>
      </trkpt>
      <trkpt lat="40.08638628758490085601806640625" lon="0.032808445394039154052734375">
        <ele>679</ele>
        <time>2023-01-27T09:47:14.000Z</time>
      </trkpt>
      <trkpt lat="40.0863605551421642303466796875" lon="0.03281272016465663909912109375">
        <ele>679.5999755859375</ele>
        <time>2023-01-27T09:47:15.000Z</time>
      </trkpt>
      <trkpt lat="40.08633582852780818939208984375" lon="0.03282286226749420166015625">
        <ele>679.79998779296875</ele>
        <time>2023-01-27T09:47:16.000Z</time>
      </trkpt>
      <trkpt lat="40.08631051518023014068603515625" lon="0.0328454934060573577880859375">
        <ele>680</ele>
        <time>2023-01-27T09:47:17.000Z</time>
      </trkpt>
      <trkpt lat="40.08628520183265209197998046875" lon="0.03287541680037975311279296875">
        <ele>680.20001220703125</ele>
        <time>2023-01-27T09:47:18.000Z</time>
      </trkpt>
      <trkpt lat="40.086268521845340728759765625" lon="0.03291397355496883392333984375">
        <ele>680.4000244140625</ele>
        <time>2023-01-27T09:47:19.000Z</time>
      </trkpt>
      <trkpt lat="40.08626257069408893585205078125" lon="0.03295739181339740753173828125">
        <ele>680.5999755859375</ele>
        <time>2023-01-27T09:47:20.000Z</time>
      </trkpt>
      <trkpt lat="40.08626349270343780517578125" lon="0.03300030715763568878173828125">
        <ele>681</ele>
        <time>2023-01-27T09:47:21.000Z</time>
      </trkpt>
      <trkpt lat="40.08626709692180156707763671875" lon="0.03304473124444484710693359375">
        <ele>681.20001220703125</ele>
        <time>2023-01-27T09:47:22.000Z</time>
      </trkpt>
      <trkpt lat="40.086275227367877960205078125" lon="0.03308814950287342071533203125">
        <ele>681.4000244140625</ele>
        <time>2023-01-27T09:47:23.000Z</time>
      </trkpt>
      <trkpt lat="40.08628620766103267669677734375" lon="0.0331331603229045867919921875">
        <ele>681.5999755859375</ele>
        <time>2023-01-27T09:47:24.000Z</time>
      </trkpt>
      <trkpt lat="40.0862991996109485626220703125" lon="0.03318219445645809173583984375">
        <ele>682</ele>
        <time>2023-01-27T09:47:25.000Z</time>
      </trkpt>
      <trkpt lat="40.0863126106560230255126953125" lon="0.03323583863675594329833984375">
        <ele>682.20001220703125</ele>
        <time>2023-01-27T09:47:26.000Z</time>
      </trkpt>
      <trkpt lat="40.08632610552012920379638671875" lon="0.03329090774059295654296875">
        <ele>682.4000244140625</ele>
        <time>2023-01-27T09:47:27.000Z</time>
      </trkpt>
      <trkpt lat="40.0863374210894107818603515625" lon="0.033351592719554901123046875">
        <ele>682.5999755859375</ele>
        <time>2023-01-27T09:47:28.000Z</time>
      </trkpt>
      <trkpt lat="40.08634488098323345184326171875" lon="0.0334147922694683074951171875">
        <ele>682.5999755859375</ele>
        <time>2023-01-27T09:47:29.000Z</time>
      </trkpt>
      <trkpt lat="40.08634756319224834442138671875" lon="0.03347874619066715240478515625">
        <ele>682.4000244140625</ele>
        <time>2023-01-27T09:47:30.000Z</time>
      </trkpt>
      <trkpt lat="40.086350999772548675537109375" lon="0.033546388149261474609375">
        <ele>682.4000244140625</ele>
        <time>2023-01-27T09:47:31.000Z</time>
      </trkpt>
      <trkpt lat="40.0863545201718807220458984375" lon="0.0336172990500926971435546875">
        <ele>681.79998779296875</ele>
        <time>2023-01-27T09:47:32.000Z</time>
      </trkpt>
      <trkpt lat="40.08636198006570339202880859375" lon="0.033689551055431365966796875">
        <ele>681.5999755859375</ele>
        <time>2023-01-27T09:47:33.000Z</time>
      </trkpt>
      <trkpt lat="40.0863789953291416168212890625" lon="0.0337601266801357269287109375">
        <ele>681.20001220703125</ele>
        <time>2023-01-27T09:47:34.000Z</time>
      </trkpt>
      <trkpt lat="40.08640171028673648834228515625" lon="0.03382324241101741790771484375">
        <ele>680.79998779296875</ele>
        <time>2023-01-27T09:47:35.000Z</time>
      </trkpt>
      <trkpt lat="40.08642853237688541412353515625" lon="0.03386917524039745330810546875">
        <ele>680.20001220703125</ele>
        <time>2023-01-27T09:47:36.000Z</time>
      </trkpt>
      <trkpt lat="40.086460299789905548095703125" lon="0.03390504978597164154052734375">
        <ele>679.79998779296875</ele>
        <time>2023-01-27T09:47:37.000Z</time>
      </trkpt>
      <trkpt lat="40.08649173192679882049560546875" lon="0.03393589518964290618896484375">
        <ele>679.79998779296875</ele>
        <time>2023-01-27T09:47:38.000Z</time>
      </trkpt>
      <trkpt lat="40.08652291260659694671630859375" lon="0.03396305255591869354248046875">
        <ele>679.5999755859375</ele>
        <time>2023-01-27T09:47:39.000Z</time>
      </trkpt>
      <trkpt lat="40.086554847657680511474609375" lon="0.03398635424673557281494140625">
        <ele>679.5999755859375</ele>
        <time>2023-01-27T09:47:40.000Z</time>
      </trkpt>
      <trkpt lat="40.08658443577587604522705078125" lon="0.0340037047863006591796875">
        <ele>679.5999755859375</ele>
        <time>2023-01-27T09:47:41.000Z</time>
      </trkpt>
      <trkpt lat="40.08666037581861019134521484375" lon="0.03405005671083927154541015625">
        <ele>679.5999755859375</ele>
        <time>2023-01-27T09:47:43.000Z</time>
      </trkpt>
      <trkpt lat="40.08668862283229827880859375" lon="0.0340679101645946502685546875">
        <ele>679.5999755859375</ele>
        <time>2023-01-27T09:47:44.000Z</time>
      </trkpt>
      <trkpt lat="40.08672089315950870513916015625" lon="0.03408995456993579864501953125">
        <ele>679.79998779296875</ele>
        <time>2023-01-27T09:47:45.000Z</time>
      </trkpt>
      <trkpt lat="40.0867496430873870849609375" lon="0.03411040641367435455322265625">
        <ele>679.79998779296875</ele>
        <time>2023-01-27T09:47:46.000Z</time>
      </trkpt>
      <trkpt lat="40.08677470497786998748779296875" lon="0.03412968479096889495849609375">
        <ele>680</ele>
        <time>2023-01-27T09:47:47.000Z</time>
      </trkpt>
      <trkpt lat="40.08680270053446292877197265625" lon="0.034156925976276397705078125">
        <ele>680.20001220703125</ele>
        <time>2023-01-27T09:47:48.000Z</time>
      </trkpt>
      <trkpt lat="40.086849220097064971923828125" lon="0.0341993384063243865966796875">
        <ele>680.5999755859375</ele>
        <time>2023-01-27T09:47:50.000Z</time>
      </trkpt>
      <trkpt lat="40.0868788920342922210693359375" lon="0.034228675067424774169921875">
        <ele>681.20001220703125</ele>
        <time>2023-01-27T09:47:51.000Z</time>
      </trkpt>
      <trkpt lat="40.08689959533512592315673828125" lon="0.03424887545406818389892578125">
        <ele>681.5999755859375</ele>
        <time>2023-01-27T09:47:52.000Z</time>
      </trkpt>
      <trkpt lat="40.0869271717965602874755859375" lon="0.0342771224677562713623046875">
        <ele>681.5999755859375</ele>
        <time>2023-01-27T09:47:53.000Z</time>
      </trkpt>
      <trkpt lat="40.0869556702673435211181640625" lon="0.03431207500398159027099609375">
        <ele>682</ele>
        <time>2023-01-27T09:47:54.000Z</time>
      </trkpt>
      <trkpt lat="40.08701174519956111907958984375" lon="0.034386254847049713134765625">
        <ele>682.20001220703125</ele>
        <time>2023-01-27T09:47:56.000Z</time>
      </trkpt>
      <trkpt lat="40.08706404827535152435302734375" lon="0.03448239527642726898193359375">
        <ele>682.4000244140625</ele>
        <time>2023-01-27T09:47:58.000Z</time>
      </trkpt>
      <trkpt lat="40.08711216039955615997314453125" lon="0.0345735065639019012451171875">
        <ele>682.79998779296875</ele>
        <time>2023-01-27T09:48:00.000Z</time>
      </trkpt>
      <trkpt lat="40.0872168503701686859130859375" lon="0.034767799079418182373046875">
        <ele>683</ele>
        <time>2023-01-27T09:48:04.000Z</time>
      </trkpt>
      <trkpt lat="40.087241828441619873046875" lon="0.03482622094452381134033203125">
        <ele>683</ele>
        <time>2023-01-27T09:48:05.000Z</time>
      </trkpt>
      <trkpt lat="40.08726387284696102142333984375" lon="0.034889169037342071533203125">
        <ele>683</ele>
        <time>2023-01-27T09:48:06.000Z</time>
      </trkpt>
      <trkpt lat="40.08728206157684326171875" lon="0.034956894814968109130859375">
        <ele>683</ele>
        <time>2023-01-27T09:48:07.000Z</time>
      </trkpt>
      <trkpt lat="40.08729589171707630157470703125" lon="0.0350257940590381622314453125">
        <ele>683</ele>
        <time>2023-01-27T09:48:08.000Z</time>
      </trkpt>
      <trkpt lat="40.087315924465656280517578125" lon="0.03509662114083766937255859375">
        <ele>683</ele>
        <time>2023-01-27T09:48:09.000Z</time>
      </trkpt>
      <trkpt lat="40.08734014816582202911376953125" lon="0.035162754356861114501953125">
        <ele>683</ele>
        <time>2023-01-27T09:48:10.000Z</time>
      </trkpt>
      <trkpt lat="40.08736931718885898590087890625" lon="0.0352135486900806427001953125">
        <ele>683</ele>
        <time>2023-01-27T09:48:11.000Z</time>
      </trkpt>
      <trkpt lat="40.087401084601879119873046875" lon="0.03525285981595516204833984375">
        <ele>683</ele>
        <time>2023-01-27T09:48:12.000Z</time>
      </trkpt>
      <trkpt lat="40.08743586950004100799560546875" lon="0.0352856330573558807373046875">
        <ele>683.20001220703125</ele>
        <time>2023-01-27T09:48:13.000Z</time>
      </trkpt>
      <trkpt lat="40.0874684751033782958984375" lon="0.03530398942530155181884765625">
        <ele>683.20001220703125</ele>
        <time>2023-01-27T09:48:14.000Z</time>
      </trkpt>
      <trkpt lat="40.087519772350788116455078125" lon="0.03532997332513332366943359375">
        <ele>683.20001220703125</ele>
        <time>2023-01-27T09:48:15.000Z</time>
      </trkpt>
      <trkpt lat="40.08756645955145359039306640625" lon="0.0353577174246311187744140625">
        <ele>683.20001220703125</ele>
        <time>2023-01-27T09:48:16.000Z</time>
      </trkpt>
      <trkpt lat="40.08761172182857990264892578125" lon="0.03539510071277618408203125">
        <ele>683.20001220703125</ele>
        <time>2023-01-27T09:48:17.000Z</time>
      </trkpt>
      <trkpt lat="40.08768866769969463348388671875" lon="0.03549023531377315521240234375">
        <ele>682.79998779296875</ele>
        <time>2023-01-27T09:48:19.000Z</time>
      </trkpt>
      <trkpt lat="40.087711550295352935791015625" lon="0.03554807044565677642822265625">
        <ele>682.5999755859375</ele>
        <time>2023-01-27T09:48:20.000Z</time>
      </trkpt>
      <trkpt lat="40.08771548978984355926513671875" lon="0.03560724668204784393310546875">
        <ele>682.5999755859375</ele>
        <time>2023-01-27T09:48:21.000Z</time>
      </trkpt>
      <trkpt lat="40.087709538638591766357421875" lon="0.03566198050975799560546875">
        <ele>682.5999755859375</ele>
        <time>2023-01-27T09:48:22.000Z</time>
      </trkpt>
      <trkpt lat="40.08769805543124675750732421875" lon="0.0357087515294551849365234375">
        <ele>682.5999755859375</ele>
        <time>2023-01-27T09:48:23.000Z</time>
      </trkpt>
      <trkpt lat="40.0876803696155548095703125" lon="0.035746805369853973388671875">
        <ele>682.5999755859375</ele>
        <time>2023-01-27T09:48:24.000Z</time>
      </trkpt>
      <trkpt lat="40.08766704238951206207275390625" lon="0.0357788242399692535400390625">
        <ele>682.5999755859375</ele>
        <time>2023-01-27T09:48:25.000Z</time>
      </trkpt>
      <trkpt lat="40.087658576667308807373046875" lon="0.0358049757778644561767578125">
        <ele>682.5999755859375</ele>
        <time>2023-01-27T09:48:26.000Z</time>
      </trkpt>
      <trkpt lat="40.0876510329544544219970703125" lon="0.03582668490707874298095703125">
        <ele>682.5999755859375</ele>
        <time>2023-01-27T09:48:27.000Z</time>
      </trkpt>
      <trkpt lat="40.087643153965473175048828125" lon="0.03584763966500759124755859375">
        <ele>682.5999755859375</ele>
        <time>2023-01-27T09:48:28.000Z</time>
      </trkpt>
      <trkpt lat="40.087640471756458282470703125" lon="0.035866834223270416259765625">
        <ele>682.5999755859375</ele>
        <time>2023-01-27T09:48:29.000Z</time>
      </trkpt>
      <trkpt lat="40.08763686753809452056884765625" lon="0.03588686697185039520263671875">
        <ele>682.79998779296875</ele>
        <time>2023-01-27T09:48:30.000Z</time>
      </trkpt>
      <trkpt lat="40.08762580342590808868408203125" lon="0.035931207239627838134765625">
        <ele>683.5999755859375</ele>
        <time>2023-01-27T09:48:32.000Z</time>
      </trkpt>
      <trkpt lat="40.0876014120876789093017578125" lon="0.0360151939094066619873046875">
        <ele>684.5999755859375</ele>
        <time>2023-01-27T09:48:35.000Z</time>
      </trkpt>
      <trkpt lat="40.0875745899975299835205078125" lon="0.0361053831875324249267578125">
        <ele>685.79998779296875</ele>
        <time>2023-01-27T09:48:38.000Z</time>
      </trkpt>
      <trkpt lat="40.0875524617731571197509765625" lon="0.03616766072809696197509765625">
        <ele>686.79998779296875</ele>
        <time>2023-01-27T09:48:40.000Z</time>
      </trkpt>
      <trkpt lat="40.087536536157131195068359375" lon="0.03619934432208538055419921875">
        <ele>687.4000244140625</ele>
        <time>2023-01-27T09:48:41.000Z</time>
      </trkpt>
      <trkpt lat="40.087528489530086517333984375" lon="0.036228597164154052734375">
        <ele>687.79998779296875</ele>
        <time>2023-01-27T09:48:42.000Z</time>
      </trkpt>
      <trkpt lat="40.087527148425579071044921875" lon="0.0362562574446201324462890625">
        <ele>688.79998779296875</ele>
        <time>2023-01-27T09:48:43.000Z</time>
      </trkpt>
      <trkpt lat="40.08752119727432727813720703125" lon="0.036287605762481689453125">
        <ele>689.20001220703125</ele>
        <time>2023-01-27T09:48:44.000Z</time>
      </trkpt>
      <trkpt lat="40.08751113899052143096923828125" lon="0.03631518222391605377197265625">
        <ele>689.5999755859375</ele>
        <time>2023-01-27T09:48:45.000Z</time>
      </trkpt>
      <trkpt lat="40.087501667439937591552734375" lon="0.036337561905384063720703125">
        <ele>690</ele>
        <time>2023-01-27T09:48:46.000Z</time>
      </trkpt>
      <trkpt lat="40.08749102242290973663330078125" lon="0.036371760070323944091796875">
        <ele>690.20001220703125</ele>
        <time>2023-01-27T09:48:47.000Z</time>
      </trkpt>
      <trkpt lat="40.08748766966164112091064453125" lon="0.036400258541107177734375">
        <ele>691</ele>
        <time>2023-01-27T09:48:48.000Z</time>
      </trkpt>
      <trkpt lat="40.0874837301671504974365234375" lon="0.03642565570771694183349609375">
        <ele>691.20001220703125</ele>
        <time>2023-01-27T09:48:49.000Z</time>
      </trkpt>
      <trkpt lat="40.08748096413910388946533203125" lon="0.0364471971988677978515625">
        <ele>691.79998779296875</ele>
        <time>2023-01-27T09:48:50.000Z</time>
      </trkpt>
      <trkpt lat="40.0874770246446132659912109375" lon="0.0364713370800018310546875">
        <ele>692</ele>
        <time>2023-01-27T09:48:51.000Z</time>
      </trkpt>
      <trkpt lat="40.08746839128434658050537109375" lon="0.0364993326365947723388671875">
        <ele>692.4000244140625</ele>
        <time>2023-01-27T09:48:52.000Z</time>
      </trkpt>
      <trkpt lat="40.08746067993342876434326171875" lon="0.0365222990512847900390625">
        <ele>692.5999755859375</ele>
        <time>2023-01-27T09:48:53.000Z</time>
      </trkpt>
      <trkpt lat="40.0874555669724941253662109375" lon="0.0365429185330867767333984375">
        <ele>692.79998779296875</ele>
        <time>2023-01-27T09:48:54.000Z</time>
      </trkpt>
      <trkpt lat="40.0874498672783374786376953125" lon="0.036555826663970947265625">
        <ele>692.79998779296875</ele>
        <time>2023-01-27T09:48:55.000Z</time>
      </trkpt>
      <trkpt lat="40.0874428264796733856201171875" lon="0.0365717522799968719482421875">
        <ele>693.20001220703125</ele>
        <time>2023-01-27T09:48:56.000Z</time>
      </trkpt>
      <trkpt lat="40.08743553422391414642333984375" lon="0.03659429959952831268310546875">
        <ele>693.4000244140625</ele>
        <time>2023-01-27T09:48:57.000Z</time>
      </trkpt>
      <trkpt lat="40.08743385784327983856201171875" lon="0.0366180203855037689208984375">
        <ele>694</ele>
        <time>2023-01-27T09:48:58.000Z</time>
      </trkpt>
      <trkpt lat="40.08742245845496654510498046875" lon="0.0366429984569549560546875">
        <ele>694.20001220703125</ele>
        <time>2023-01-27T09:48:59.000Z</time>
      </trkpt>
      <trkpt lat="40.0874146632850170135498046875" lon="0.0366632826626300811767578125">
        <ele>694.79998779296875</ele>
        <time>2023-01-27T09:49:00.000Z</time>
      </trkpt>
      <trkpt lat="40.08740200661122798919677734375" lon="0.03668465651571750640869140625">
        <ele>695.4000244140625</ele>
        <time>2023-01-27T09:49:01.000Z</time>
      </trkpt>
      <trkpt lat="40.08738507516682147979736328125" lon="0.036704353988170623779296875">
        <ele>695.5999755859375</ele>
        <time>2023-01-27T09:49:02.000Z</time>
      </trkpt>
      <trkpt lat="40.08736588060855865478515625" lon="0.036727152764797210693359375">
        <ele>696</ele>
        <time>2023-01-27T09:49:03.000Z</time>
      </trkpt>
      <trkpt lat="40.08734333328902721405029296875" lon="0.03674718551337718963623046875">
        <ele>696</ele>
        <time>2023-01-27T09:49:04.000Z</time>
      </trkpt>
      <trkpt lat="40.08731734938919544219970703125" lon="0.03676780499517917633056640625">
        <ele>696.20001220703125</ele>
        <time>2023-01-27T09:49:05.000Z</time>
      </trkpt>
      <trkpt lat="40.0872832350432872772216796875" lon="0.0367873348295688629150390625">
        <ele>696.4000244140625</ele>
        <time>2023-01-27T09:49:06.000Z</time>
      </trkpt>
      <trkpt lat="40.0872500427067279815673828125" lon="0.036804936826229095458984375">
        <ele>696.4000244140625</ele>
        <time>2023-01-27T09:49:07.000Z</time>
      </trkpt>
      <trkpt lat="40.087220370769500732421875" lon="0.0368255563080310821533203125">
        <ele>696.5999755859375</ele>
        <time>2023-01-27T09:49:08.000Z</time>
      </trkpt>
      <trkpt lat="40.08719229139387607574462890625" lon="0.03685112111270427703857421875">
        <ele>696.5999755859375</ele>
        <time>2023-01-27T09:49:09.000Z</time>
      </trkpt>
      <trkpt lat="40.08716546930372714996337890625" lon="0.0368849001824855804443359375">
        <ele>696.4000244140625</ele>
        <time>2023-01-27T09:49:10.000Z</time>
      </trkpt>
      <trkpt lat="40.0871394015848636627197265625" lon="0.036924965679645538330078125">
        <ele>696.4000244140625</ele>
        <time>2023-01-27T09:49:11.000Z</time>
      </trkpt>
      <trkpt lat="40.08711467497050762176513671875" lon="0.03696712665259838104248046875">
        <ele>696.20001220703125</ele>
        <time>2023-01-27T09:49:12.000Z</time>
      </trkpt>
      <trkpt lat="40.08709087036550045013427734375" lon="0.0370133109390735626220703125">
        <ele>696</ele>
        <time>2023-01-27T09:49:13.000Z</time>
      </trkpt>
      <trkpt lat="40.08707008324563503265380859375" lon="0.037063769996166229248046875">
        <ele>695.5999755859375</ele>
        <time>2023-01-27T09:49:14.000Z</time>
      </trkpt>
      <trkpt lat="40.0870495475828647613525390625" lon="0.037115402519702911376953125">
        <ele>695</ele>
        <time>2023-01-27T09:49:15.000Z</time>
      </trkpt>
      <trkpt lat="40.08703152649104595184326171875" lon="0.03716669976711273193359375">
        <ele>694.5999755859375</ele>
        <time>2023-01-27T09:49:16.000Z</time>
      </trkpt>
      <trkpt lat="40.08701442740857601165771484375" lon="0.03722243942320346832275390625">
        <ele>694.20001220703125</ele>
        <time>2023-01-27T09:49:17.000Z</time>
      </trkpt>
      <trkpt lat="40.087003447115421295166015625" lon="0.0372704677283763885498046875">
        <ele>693.79998779296875</ele>
        <time>2023-01-27T09:49:18.000Z</time>
      </trkpt>
      <trkpt lat="40.086995065212249755859375" lon="0.03733375109732151031494140625">
        <ele>693.4000244140625</ele>
        <time>2023-01-27T09:49:19.000Z</time>
      </trkpt>
      <trkpt lat="40.086993388831615447998046875" lon="0.03739711828529834747314453125">
        <ele>692.4000244140625</ele>
        <time>2023-01-27T09:49:20.000Z</time>
      </trkpt>
      <trkpt lat="40.08699414320290088653564453125" lon="0.0374578870832920074462890625">
        <ele>692</ele>
        <time>2023-01-27T09:49:21.000Z</time>
      </trkpt>
      <trkpt lat="40.0869868509471416473388671875" lon="0.03752016462385654449462890625">
        <ele>691.5999755859375</ele>
        <time>2023-01-27T09:49:22.000Z</time>
      </trkpt>
      <trkpt lat="40.08697561919689178466796875" lon="0.03758705221116542816162109375">
        <ele>691.20001220703125</ele>
        <time>2023-01-27T09:49:23.000Z</time>
      </trkpt>
      <trkpt lat="40.0869588553905487060546875" lon="0.0377230904996395111083984375">
        <ele>690.20001220703125</ele>
        <time>2023-01-27T09:49:25.000Z</time>
      </trkpt>
      <trkpt lat="40.08695550262928009033203125" lon="0.03777530975639820098876953125">
        <ele>688.79998779296875</ele>
        <time>2023-01-27T09:49:26.000Z</time>
      </trkpt>
      <trkpt lat="40.08694770745933055877685546875" lon="0.0378266908228397369384765625">
        <ele>688.20001220703125</ele>
        <time>2023-01-27T09:49:27.000Z</time>
      </trkpt>
      <trkpt lat="40.0869358889758586883544921875" lon="0.03788712434470653533935546875">
        <ele>687</ele>
        <time>2023-01-27T09:49:28.000Z</time>
      </trkpt>
      <trkpt lat="40.086925327777862548828125" lon="0.03793020732700824737548828125">
        <ele>685.5999755859375</ele>
        <time>2023-01-27T09:49:29.000Z</time>
      </trkpt>
      <trkpt lat="40.08691065944731235504150390625" lon="0.0379755534231662750244140625">
        <ele>685.20001220703125</ele>
        <time>2023-01-27T09:49:30.000Z</time>
      </trkpt>
      <trkpt lat="40.08689641021192073822021484375" lon="0.0380278564989566802978515625">
        <ele>684.4000244140625</ele>
        <time>2023-01-27T09:49:31.000Z</time>
      </trkpt>
      <trkpt lat="40.08686891756951808929443359375" lon="0.03813740797340869903564453125">
        <ele>683.79998779296875</ele>
        <time>2023-01-27T09:49:33.000Z</time>
      </trkpt>
      <trkpt lat="40.086850225925445556640625" lon="0.0381933152675628662109375">
        <ele>683.4000244140625</ele>
        <time>2023-01-27T09:49:34.000Z</time>
      </trkpt>
      <trkpt lat="40.0867920555174350738525390625" lon="0.0383064709603786468505859375">
        <ele>682.5999755859375</ele>
        <time>2023-01-27T09:49:36.000Z</time>
      </trkpt>
      <trkpt lat="40.0867444463074207305908203125" lon="0.038352571427822113037109375">
        <ele>681.5999755859375</ele>
        <time>2023-01-27T09:49:37.000Z</time>
      </trkpt>
      <trkpt lat="40.08669189177453517913818359375" lon="0.03838987089693546295166015625">
        <ele>681.20001220703125</ele>
        <time>2023-01-27T09:49:38.000Z</time>
      </trkpt>
      <trkpt lat="40.08664227090775966644287109375" lon="0.0384213030338287353515625">
        <ele>680.4000244140625</ele>
        <time>2023-01-27T09:49:39.000Z</time>
      </trkpt>
      <trkpt lat="40.08659684099256992340087890625" lon="0.03844418562948703765869140625">
        <ele>680</ele>
        <time>2023-01-27T09:49:40.000Z</time>
      </trkpt>
      <trkpt lat="40.08655392564833164215087890625" lon="0.0384628772735595703125">
        <ele>679.20001220703125</ele>
        <time>2023-01-27T09:49:41.000Z</time>
      </trkpt>
      <trkpt lat="40.0865151174366474151611328125" lon="0.03847402520477771759033203125">
        <ele>678.79998779296875</ele>
        <time>2023-01-27T09:49:42.000Z</time>
      </trkpt>
      <trkpt lat="40.0864802487194538116455078125" lon="0.03847570158541202545166015625">
        <ele>678.20001220703125</ele>
        <time>2023-01-27T09:49:43.000Z</time>
      </trkpt>
      <trkpt lat="40.0864430330693721771240234375" lon="0.03847293555736541748046875">
        <ele>677.4000244140625</ele>
        <time>2023-01-27T09:49:44.000Z</time>
      </trkpt>
      <trkpt lat="40.08640238083899021148681640625" lon="0.0384603627026081085205078125">
        <ele>677.20001220703125</ele>
        <time>2023-01-27T09:49:45.000Z</time>
      </trkpt>
      <trkpt lat="40.086357034742832183837890625" lon="0.0384409166872501373291015625">
        <ele>676.20001220703125</ele>
        <time>2023-01-27T09:49:46.000Z</time>
      </trkpt>
      <trkpt lat="40.08630917407572269439697265625" lon="0.0384174473583698272705078125">
        <ele>676</ele>
        <time>2023-01-27T09:49:47.000Z</time>
      </trkpt>
      <trkpt lat="40.08621253073215484619140625" lon="0.0383698381483554840087890625">
        <ele>675</ele>
        <time>2023-01-27T09:49:49.000Z</time>
      </trkpt>
      <trkpt lat="40.08606995455920696258544921875" lon="0.03829549066722393035888671875">
        <ele>673.5999755859375</ele>
        <time>2023-01-27T09:49:52.000Z</time>
      </trkpt>
      <trkpt lat="40.08596853353083133697509765625" lon="0.03825760446488857269287109375">
        <ele>672.5999755859375</ele>
        <time>2023-01-27T09:49:54.000Z</time>
      </trkpt>
      <trkpt lat="40.0859300605952739715576171875" lon="0.03824763000011444091796875">
        <ele>672</ele>
        <time>2023-01-27T09:49:55.000Z</time>
      </trkpt>
      <trkpt lat="40.0858824513852596282958984375" lon="0.0382420979440212249755859375">
        <ele>671</ele>
        <time>2023-01-27T09:49:56.000Z</time>
      </trkpt>
      <trkpt lat="40.08583073504269123077392578125" lon="0.0382447801530361175537109375">
        <ele>670.4000244140625</ele>
        <time>2023-01-27T09:49:57.000Z</time>
      </trkpt>
      <trkpt lat="40.085787065327167510986328125" lon="0.03825458697974681854248046875">
        <ele>669.5999755859375</ele>
        <time>2023-01-27T09:49:58.000Z</time>
      </trkpt>
      <trkpt lat="40.085750855505466461181640625" lon="0.03826506435871124267578125">
        <ele>669</ele>
        <time>2023-01-27T09:49:59.000Z</time>
      </trkpt>
      <trkpt lat="40.08565739728510379791259765625" lon="0.038300268352031707763671875">
        <ele>668.20001220703125</ele>
        <time>2023-01-27T09:50:01.000Z</time>
      </trkpt>
      <trkpt lat="40.08562537841498851776123046875" lon="0.0383121706545352935791015625">
        <ele>667.5999755859375</ele>
        <time>2023-01-27T09:50:02.000Z</time>
      </trkpt>
      <trkpt lat="40.08558363653719425201416015625" lon="0.03832465969026088714599609375">
        <ele>666.79998779296875</ele>
        <time>2023-01-27T09:50:03.000Z</time>
      </trkpt>
      <trkpt lat="40.08554239757359027862548828125" lon="0.038337819278240203857421875">
        <ele>666</ele>
        <time>2023-01-27T09:50:04.000Z</time>
      </trkpt>
      <trkpt lat="40.08550317026674747467041015625" lon="0.0383517332375049591064453125">
        <ele>665</ele>
        <time>2023-01-27T09:50:05.000Z</time>
      </trkpt>
      <trkpt lat="40.085468553006649017333984375" lon="0.038365311920642852783203125">
        <ele>664.4000244140625</ele>
        <time>2023-01-27T09:50:06.000Z</time>
      </trkpt>
      <trkpt lat="40.085441730916500091552734375" lon="0.03838014788925647735595703125">
        <ele>662.79998779296875</ele>
        <time>2023-01-27T09:50:07.000Z</time>
      </trkpt>
      <trkpt lat="40.08542085997760295867919921875" lon="0.0383990071713924407958984375">
        <ele>662.4000244140625</ele>
        <time>2023-01-27T09:50:08.000Z</time>
      </trkpt>
      <trkpt lat="40.08541063405573368072509765625" lon="0.03842658363282680511474609375">
        <ele>662</ele>
        <time>2023-01-27T09:50:09.000Z</time>
      </trkpt>
      <trkpt lat="40.08540912531316280364990234375" lon="0.03845541737973690032958984375">
        <ele>661.4000244140625</ele>
        <time>2023-01-27T09:50:10.000Z</time>
      </trkpt>
      <trkpt lat="40.08541046641767024993896484375" lon="0.0384784676134586334228515625">
        <ele>660.4000244140625</ele>
        <time>2023-01-27T09:50:11.000Z</time>
      </trkpt>
      <trkpt lat="40.085414908826351165771484375" lon="0.03849665634334087371826171875">
        <ele>660</ele>
        <time>2023-01-27T09:50:12.000Z</time>
      </trkpt>
      <trkpt lat="40.08542505092918872833251953125" lon="0.0385163538157939910888671875">
        <ele>659.20001220703125</ele>
        <time>2023-01-27T09:50:13.000Z</time>
      </trkpt>
      <trkpt lat="40.08544013835489749908447265625" lon="0.03853571601212024688720703125">
        <ele>658.5999755859375</ele>
        <time>2023-01-27T09:50:14.000Z</time>
      </trkpt>
      <trkpt lat="40.08545958437025547027587890625" lon="0.038551725447177886962890625">
        <ele>658.4000244140625</ele>
        <time>2023-01-27T09:50:15.000Z</time>
      </trkpt>
      <trkpt lat="40.08548104204237461090087890625" lon="0.038565136492252349853515625">
        <ele>657.79998779296875</ele>
        <time>2023-01-27T09:50:16.000Z</time>
      </trkpt>
      <trkpt lat="40.08550886996090412139892578125" lon="0.0385783798992633819580078125">
        <ele>657.5999755859375</ele>
        <time>2023-01-27T09:50:17.000Z</time>
      </trkpt>
      <trkpt lat="40.08553527295589447021484375" lon="0.03859003074467182159423828125">
        <ele>657.20001220703125</ele>
        <time>2023-01-27T09:50:18.000Z</time>
      </trkpt>
      <trkpt lat="40.085596628487110137939453125" lon="0.038623474538326263427734375">
        <ele>656.4000244140625</ele>
        <time>2023-01-27T09:50:20.000Z</time>
      </trkpt>
      <trkpt lat="40.08569226600229740142822265625" lon="0.03867208957672119140625">
        <ele>655.79998779296875</ele>
        <time>2023-01-27T09:50:23.000Z</time>
      </trkpt>
      <trkpt lat="40.08571892045438289642333984375" lon="0.03869430162012577056884765625">
        <ele>655.5999755859375</ele>
        <time>2023-01-27T09:50:24.000Z</time>
      </trkpt>
      <trkpt lat="40.08576770313084125518798828125" lon="0.0387671403586864471435546875">
        <ele>655</ele>
        <time>2023-01-27T09:50:26.000Z</time>
      </trkpt>
      <trkpt lat="40.08578346110880374908447265625" lon="0.03881701268255710601806640625">
        <ele>654.79998779296875</ele>
        <time>2023-01-27T09:50:27.000Z</time>
      </trkpt>
      <trkpt lat="40.08578949607908725738525390625" lon="0.0388714112341403961181640625">
        <ele>654.20001220703125</ele>
        <time>2023-01-27T09:50:28.000Z</time>
      </trkpt>
      <trkpt lat="40.0857889093458652496337890625" lon="0.03893000073730945587158203125">
        <ele>653.4000244140625</ele>
        <time>2023-01-27T09:50:29.000Z</time>
      </trkpt>
      <trkpt lat="40.08579008281230926513671875" lon="0.038991607725620269775390625">
        <ele>653</ele>
        <time>2023-01-27T09:50:30.000Z</time>
      </trkpt>
      <trkpt lat="40.08579251356422901153564453125" lon="0.0390529632568359375">
        <ele>652.5999755859375</ele>
        <time>2023-01-27T09:50:31.000Z</time>
      </trkpt>
      <trkpt lat="40.08579670451581478118896484375" lon="0.039167962968349456787109375">
        <ele>651.20001220703125</ele>
        <time>2023-01-27T09:50:33.000Z</time>
      </trkpt>
      <trkpt lat="40.085799805819988250732421875" lon="0.03922286443412303924560546875">
        <ele>650.5999755859375</ele>
        <time>2023-01-27T09:50:34.000Z</time>
      </trkpt>
      <trkpt lat="40.08580341003835201263427734375" lon="0.03927298821508884429931640625">
        <ele>649.79998779296875</ele>
        <time>2023-01-27T09:50:35.000Z</time>
      </trkpt>
      <trkpt lat="40.08580776862800121307373046875" lon="0.03931975923478603363037109375">
        <ele>649.4000244140625</ele>
        <time>2023-01-27T09:50:36.000Z</time>
      </trkpt>
      <trkpt lat="40.08581346832215785980224609375" lon="0.0393595732748508453369140625">
        <ele>648.4000244140625</ele>
        <time>2023-01-27T09:50:37.000Z</time>
      </trkpt>
      <trkpt lat="40.0858214311301708221435546875" lon="0.0393981300294399261474609375">
        <ele>648</ele>
        <time>2023-01-27T09:50:38.000Z</time>
      </trkpt>
      <trkpt lat="40.08584733121097087860107421875" lon="0.03948521800339221954345703125">
        <ele>646.79998779296875</ele>
        <time>2023-01-27T09:50:40.000Z</time>
      </trkpt>
      <trkpt lat="40.0858948566019535064697265625" lon="0.03955294378101825714111328125">
        <ele>645.79998779296875</ele>
        <time>2023-01-27T09:50:42.000Z</time>
      </trkpt>
      <trkpt lat="40.08592813275754451751708984375" lon="0.03957398235797882080078125">
        <ele>645</ele>
        <time>2023-01-27T09:50:43.000Z</time>
      </trkpt>
      <trkpt lat="40.085966102778911590576171875" lon="0.0395852141082286834716796875">
        <ele>644.4000244140625</ele>
        <time>2023-01-27T09:50:44.000Z</time>
      </trkpt>
      <trkpt lat="40.08600977249443531036376953125" lon="0.03959116525948047637939453125">
        <ele>644</ele>
        <time>2023-01-27T09:50:45.000Z</time>
      </trkpt>
      <trkpt lat="40.08605838753283023834228515625" lon="0.03960072062909603118896484375">
        <ele>643.5999755859375</ele>
        <time>2023-01-27T09:50:46.000Z</time>
      </trkpt>
      <trkpt lat="40.08611169643700122833251953125" lon="0.03961765207350254058837890625">
        <ele>643</ele>
        <time>2023-01-27T09:50:47.000Z</time>
      </trkpt>
      <trkpt lat="40.08620540611445903778076171875" lon="0.03966576419770717620849609375">
        <ele>641.79998779296875</ele>
        <time>2023-01-27T09:50:49.000Z</time>
      </trkpt>
      <trkpt lat="40.08624337613582611083984375" lon="0.03969191573560237884521484375">
        <ele>641.20001220703125</ele>
        <time>2023-01-27T09:50:50.000Z</time>
      </trkpt>
      <trkpt lat="40.08627681992948055267333984375" lon="0.03972007893025875091552734375">
        <ele>641</ele>
        <time>2023-01-27T09:50:51.000Z</time>
      </trkpt>
      <trkpt lat="40.0863082520663738250732421875" lon="0.039745979011058807373046875">
        <ele>640.79998779296875</ele>
        <time>2023-01-27T09:50:52.000Z</time>
      </trkpt>
      <trkpt lat="40.086331553757190704345703125" lon="0.039769113063812255859375">
        <ele>640.79998779296875</ele>
        <time>2023-01-27T09:50:53.000Z</time>
      </trkpt>
      <trkpt lat="40.0863392651081085205078125" lon="0.03979618661105632781982421875">
        <ele>640.5999755859375</ele>
        <time>2023-01-27T09:50:54.000Z</time>
      </trkpt>
      <trkpt lat="40.08633482269942760467529296875" lon="0.03982787020504474639892578125">
        <ele>640.4000244140625</ele>
        <time>2023-01-27T09:50:55.000Z</time>
      </trkpt>
      <trkpt lat="40.0863231718540191650390625" lon="0.0398581288754940032958984375">
        <ele>640</ele>
        <time>2023-01-27T09:50:56.000Z</time>
      </trkpt>
      <trkpt lat="40.0863035582005977630615234375" lon="0.03987899981439113616943359375">
        <ele>639.79998779296875</ele>
        <time>2023-01-27T09:50:57.000Z</time>
      </trkpt>
      <trkpt lat="40.08627380244433879852294921875" lon="0.0398899801075458526611328125">
        <ele>639</ele>
        <time>2023-01-27T09:50:58.000Z</time>
      </trkpt>
      <trkpt lat="40.08618294261395931243896484375" lon="0.0399070791900157928466796875">
        <ele>638.20001220703125</ele>
        <time>2023-01-27T09:51:00.000Z</time>
      </trkpt>
      <trkpt lat="40.08613131009042263031005859375" lon="0.03991453908383846282958984375">
        <ele>637.79998779296875</ele>
        <time>2023-01-27T09:51:01.000Z</time>
      </trkpt>
      <trkpt lat="40.08607842028141021728515625" lon="0.03991370089352130889892578125">
        <ele>637.20001220703125</ele>
        <time>2023-01-27T09:51:02.000Z</time>
      </trkpt>
      <trkpt lat="40.08603055961430072784423828125" lon="0.03990791738033294677734375">
        <ele>636.4000244140625</ele>
        <time>2023-01-27T09:51:03.000Z</time>
      </trkpt>
      <trkpt lat="40.085986554622650146484375" lon="0.03990666009485721588134765625">
        <ele>636.20001220703125</ele>
        <time>2023-01-27T09:51:04.000Z</time>
      </trkpt>
      <trkpt lat="40.08594338782131671905517578125" lon="0.03992258571088314056396484375">
        <ele>635.5999755859375</ele>
        <time>2023-01-27T09:51:05.000Z</time>
      </trkpt>
      <trkpt lat="40.08589963428676128387451171875" lon="0.03995510749518871307373046875">
        <ele>635.20001220703125</ele>
        <time>2023-01-27T09:51:06.000Z</time>
      </trkpt>
      <trkpt lat="40.08586057461798191070556640625" lon="0.03999467007815837860107421875">
        <ele>634.20001220703125</ele>
        <time>2023-01-27T09:51:07.000Z</time>
      </trkpt>
      <trkpt lat="40.08582168258726596832275390625" lon="0.0400375016033649444580078125">
        <ele>633.5999755859375</ele>
        <time>2023-01-27T09:51:08.000Z</time>
      </trkpt>
      <trkpt lat="40.0857786834239959716796875" lon="0.04008586518466472625732421875">
        <ele>633</ele>
        <time>2023-01-27T09:51:09.000Z</time>
      </trkpt>
      <trkpt lat="40.08573601953685283660888671875" lon="0.04012794233858585357666015625">
        <ele>632.4000244140625</ele>
        <time>2023-01-27T09:51:10.000Z</time>
      </trkpt>
      <trkpt lat="40.08569411002099514007568359375" lon="0.04015895538032054901123046875">
        <ele>631.20001220703125</ele>
        <time>2023-01-27T09:51:11.000Z</time>
      </trkpt>
      <trkpt lat="40.08565035648643970489501953125" lon="0.040182508528232574462890625">
        <ele>630.79998779296875</ele>
        <time>2023-01-27T09:51:12.000Z</time>
      </trkpt>
      <trkpt lat="40.08560693822801113128662109375" lon="0.04020296037197113037109375">
        <ele>630.20001220703125</ele>
        <time>2023-01-27T09:51:13.000Z</time>
      </trkpt>
      <trkpt lat="40.08556301705539226531982421875" lon="0.0402185507118701934814453125">
        <ele>629.5999755859375</ele>
        <time>2023-01-27T09:51:14.000Z</time>
      </trkpt>
      <trkpt lat="40.08546360768377780914306640625" lon="0.040224753320217132568359375">
        <ele>628.5999755859375</ele>
        <time>2023-01-27T09:51:16.000Z</time>
      </trkpt>
      <trkpt lat="40.08541549555957317352294921875" lon="0.0402157008647918701171875">
        <ele>628.4000244140625</ele>
        <time>2023-01-27T09:51:17.000Z</time>
      </trkpt>
      <trkpt lat="40.0853252224624156951904296875" lon="0.04019700922071933746337890625">
        <ele>627.4000244140625</ele>
        <time>2023-01-27T09:51:19.000Z</time>
      </trkpt>
      <trkpt lat="40.08528809063136577606201171875" lon="0.04019223153591156005859375">
        <ele>626.4000244140625</ele>
        <time>2023-01-27T09:51:20.000Z</time>
      </trkpt>
      <trkpt lat="40.08525204844772815704345703125" lon="0.0401870347559452056884765625">
        <ele>625.79998779296875</ele>
        <time>2023-01-27T09:51:21.000Z</time>
      </trkpt>
      <trkpt lat="40.08521583862602710723876953125" lon="0.04017856903374195098876953125">
        <ele>625.20001220703125</ele>
        <time>2023-01-27T09:51:22.000Z</time>
      </trkpt>
      <trkpt lat="40.08518147282302379608154296875" lon="0.0401672534644603729248046875">
        <ele>625</ele>
        <time>2023-01-27T09:51:23.000Z</time>
      </trkpt>
      <trkpt lat="40.08514928631484508514404296875" lon="0.04015526734292507171630859375">
        <ele>624.20001220703125</ele>
        <time>2023-01-27T09:51:24.000Z</time>
      </trkpt>
      <trkpt lat="40.085116513073444366455078125" lon="0.04013900645077228546142578125">
        <ele>624</ele>
        <time>2023-01-27T09:51:25.000Z</time>
      </trkpt>
      <trkpt lat="40.08501492440700531005859375" lon="0.040069855749607086181640625">
        <ele>622.20001220703125</ele>
        <time>2023-01-27T09:51:28.000Z</time>
      </trkpt>
      <trkpt lat="40.08497980423271656036376953125" lon="0.04005636088550090789794921875">
        <ele>621.5999755859375</ele>
        <time>2023-01-27T09:51:29.000Z</time>
      </trkpt>
      <trkpt lat="40.08494384586811065673828125" lon="0.04005049355328083038330078125">
        <ele>621.20001220703125</ele>
        <time>2023-01-27T09:51:30.000Z</time>
      </trkpt>
      <trkpt lat="40.084907300770282745361328125" lon="0.04005015827715396881103515625">
        <ele>620.79998779296875</ele>
        <time>2023-01-27T09:51:31.000Z</time>
      </trkpt>
      <trkpt lat="40.0848772935569286346435546875" lon="0.0400599651038646697998046875">
        <ele>620.4000244140625</ele>
        <time>2023-01-27T09:51:32.000Z</time>
      </trkpt>
      <trkpt lat="40.08485139347612857818603515625" lon="0.0400864519178867340087890625">
        <ele>619.79998779296875</ele>
        <time>2023-01-27T09:51:33.000Z</time>
      </trkpt>
      <trkpt lat="40.08482205681502819061279296875" lon="0.04018007777631282806396484375">
        <ele>618.4000244140625</ele>
        <time>2023-01-27T09:51:35.000Z</time>
      </trkpt>
      <trkpt lat="40.08482851088047027587890625" lon="0.0402775593101978302001953125">
        <ele>617.5999755859375</ele>
        <time>2023-01-27T09:51:37.000Z</time>
      </trkpt>
      <trkpt lat="40.084842927753925323486328125" lon="0.04032424651086330413818359375">
        <ele>617.20001220703125</ele>
        <time>2023-01-27T09:51:38.000Z</time>
      </trkpt>
      <trkpt lat="40.08486279286444187164306640625" lon="0.0403697602450847625732421875">
        <ele>616.5999755859375</ele>
        <time>2023-01-27T09:51:39.000Z</time>
      </trkpt>
      <trkpt lat="40.0848863460123538970947265625" lon="0.04041208885610103607177734375">
        <ele>616.5999755859375</ele>
        <time>2023-01-27T09:51:40.000Z</time>
      </trkpt>
      <trkpt lat="40.08491191081702709197998046875" lon="0.04045601002871990203857421875">
        <ele>616</ele>
        <time>2023-01-27T09:51:41.000Z</time>
      </trkpt>
      <trkpt lat="40.08493982255458831787109375" lon="0.040503032505512237548828125">
        <ele>614.79998779296875</ele>
        <time>2023-01-27T09:51:42.000Z</time>
      </trkpt>
      <trkpt lat="40.08499656803905963897705078125" lon="0.0406138412654399871826171875">
        <ele>613.5999755859375</ele>
        <time>2023-01-27T09:51:44.000Z</time>
      </trkpt>
      <trkpt lat="40.08503948338329792022705078125" lon="0.0407285057008266448974609375">
        <ele>612.5999755859375</ele>
        <time>2023-01-27T09:51:46.000Z</time>
      </trkpt>
      <trkpt lat="40.08505976758897304534912109375" lon="0.0407741032540798187255859375">
        <ele>612.4000244140625</ele>
        <time>2023-01-27T09:51:47.000Z</time>
      </trkpt>
      <trkpt lat="40.08508273400366306304931640625" lon="0.04081224091351032257080078125">
        <ele>611.20001220703125</ele>
        <time>2023-01-27T09:51:48.000Z</time>
      </trkpt>
      <trkpt lat="40.08509899489581584930419921875" lon="0.0408388115465641021728515625">
        <ele>610.4000244140625</ele>
        <time>2023-01-27T09:51:49.000Z</time>
      </trkpt>
      <trkpt lat="40.08512279950082302093505859375" lon="0.04087351262569427490234375">
        <ele>609.5999755859375</ele>
        <time>2023-01-27T09:51:50.000Z</time>
      </trkpt>
      <trkpt lat="40.08514626882970333099365234375" lon="0.04089974798262119293212890625">
        <ele>609.20001220703125</ele>
        <time>2023-01-27T09:51:51.000Z</time>
      </trkpt>
      <trkpt lat="40.08524215780198574066162109375" lon="0.04096060059964656829833984375">
        <ele>607.5999755859375</ele>
        <time>2023-01-27T09:51:54.000Z</time>
      </trkpt>
      <trkpt lat="40.085273087024688720703125" lon="0.040978454053401947021484375">
        <ele>606.79998779296875</ele>
        <time>2023-01-27T09:51:55.000Z</time>
      </trkpt>
      <trkpt lat="40.085306949913501739501953125" lon="0.04099295474588871002197265625">
        <ele>606.4000244140625</ele>
        <time>2023-01-27T09:51:56.000Z</time>
      </trkpt>
      <trkpt lat="40.08537945337593555450439453125" lon="0.04101742990314960479736328125">
        <ele>605.20001220703125</ele>
        <time>2023-01-27T09:51:58.000Z</time>
      </trkpt>
      <trkpt lat="40.08548405952751636505126953125" lon="0.04105632193386554718017578125">
        <ele>603.5999755859375</ele>
        <time>2023-01-27T09:52:01.000Z</time>
      </trkpt>
      <trkpt lat="40.0855508632957935333251953125" lon="0.04107392393052577972412109375">
        <ele>602.4000244140625</ele>
        <time>2023-01-27T09:52:03.000Z</time>
      </trkpt>
      <trkpt lat="40.08564532734453678131103515625" lon="0.04108984954655170440673828125">
        <ele>601.20001220703125</ele>
        <time>2023-01-27T09:52:06.000Z</time>
      </trkpt>
      <trkpt lat="40.08572168648242950439453125" lon="0.0410993210971355438232421875">
        <ele>600</ele>
        <time>2023-01-27T09:52:08.000Z</time>
      </trkpt>
      <trkpt lat="40.08576057851314544677734375" lon="0.04110342822968959808349609375">
        <ele>599</ele>
        <time>2023-01-27T09:52:09.000Z</time>
      </trkpt>
      <trkpt lat="40.08587582968175411224365234375" lon="0.04110460169613361358642578125">
        <ele>597.5999755859375</ele>
        <time>2023-01-27T09:52:12.000Z</time>
      </trkpt>
      <trkpt lat="40.086064673960208892822265625" lon="0.0410922802984714508056640625">
        <ele>596</ele>
        <time>2023-01-27T09:52:16.000Z</time>
      </trkpt>
      <trkpt lat="40.086158551275730133056640625" lon="0.04108850844204425811767578125">
        <ele>593.79998779296875</ele>
        <time>2023-01-27T09:52:18.000Z</time>
      </trkpt>
      <trkpt lat="40.086265504360198974609375" lon="0.0410959683358669281005859375">
        <ele>591.4000244140625</ele>
        <time>2023-01-27T09:52:20.000Z</time>
      </trkpt>
      <trkpt lat="40.08636415936052799224853515625" lon="0.041104517877101898193359375">
        <ele>590.20001220703125</ele>
        <time>2023-01-27T09:52:22.000Z</time>
      </trkpt>
      <trkpt lat="40.08647312410175800323486328125" lon="0.0411204434931278228759765625">
        <ele>588.79998779296875</ele>
        <time>2023-01-27T09:52:24.000Z</time>
      </trkpt>
      <trkpt lat="40.08657219819724559783935546875" lon="0.04114366136491298675537109375">
        <ele>587.5999755859375</ele>
        <time>2023-01-27T09:52:26.000Z</time>
      </trkpt>
      <trkpt lat="40.08667051792144775390625" lon="0.04117970354855060577392578125">
        <ele>586.20001220703125</ele>
        <time>2023-01-27T09:52:28.000Z</time>
      </trkpt>
      <trkpt lat="40.0867203064262866973876953125" lon="0.04119026474654674530029296875">
        <ele>585.20001220703125</ele>
        <time>2023-01-27T09:52:29.000Z</time>
      </trkpt>
      <trkpt lat="40.08677135221660137176513671875" lon="0.04120032303035259246826171875">
        <ele>584.5999755859375</ele>
        <time>2023-01-27T09:52:30.000Z</time>
      </trkpt>
      <trkpt lat="40.08682063780725002288818359375" lon="0.0412161648273468017578125">
        <ele>584.20001220703125</ele>
        <time>2023-01-27T09:52:31.000Z</time>
      </trkpt>
      <trkpt lat="40.086867995560169219970703125" lon="0.04123971797525882720947265625">
        <ele>584.4000244140625</ele>
        <time>2023-01-27T09:52:32.000Z</time>
      </trkpt>
      <trkpt lat="40.0869057141244411468505859375" lon="0.0412656180560588836669921875">
        <ele>582.79998779296875</ele>
        <time>2023-01-27T09:52:33.000Z</time>
      </trkpt>
      <trkpt lat="40.08694737218320369720458984375" lon="0.04128095693886280059814453125">
        <ele>581.79998779296875</ele>
        <time>2023-01-27T09:52:34.000Z</time>
      </trkpt>
      <trkpt lat="40.0869881920516490936279296875" lon="0.04130140878260135650634765625">
        <ele>580.4000244140625</ele>
        <time>2023-01-27T09:52:35.000Z</time>
      </trkpt>
      <trkpt lat="40.0870260782539844512939453125" lon="0.0413206033408641815185546875">
        <ele>580</ele>
        <time>2023-01-27T09:52:36.000Z</time>
      </trkpt>
      <trkpt lat="40.08706815540790557861328125" lon="0.04133426584303379058837890625">
        <ele>579</ele>
        <time>2023-01-27T09:52:37.000Z</time>
      </trkpt>
      <trkpt lat="40.08710461668670177459716796875" lon="0.04134130664169788360595703125">
        <ele>578.79998779296875</ele>
        <time>2023-01-27T09:52:38.000Z</time>
      </trkpt>
      <trkpt lat="40.08713797666132450103759765625" lon="0.04135119728744029998779296875">
        <ele>577.5999755859375</ele>
        <time>2023-01-27T09:52:39.000Z</time>
      </trkpt>
      <trkpt lat="40.0871689058840274810791015625" lon="0.04136259667575359344482421875">
        <ele>577.4000244140625</ele>
        <time>2023-01-27T09:52:40.000Z</time>
      </trkpt>
      <trkpt lat="40.0871957279741764068603515625" lon="0.04137969575822353363037109375">
        <ele>576.4000244140625</ele>
        <time>2023-01-27T09:52:41.000Z</time>
      </trkpt>
      <trkpt lat="40.08721492253243923187255859375" lon="0.041404925286769866943359375">
        <ele>574.79998779296875</ele>
        <time>2023-01-27T09:52:42.000Z</time>
      </trkpt>
      <trkpt lat="40.08722129277884960174560546875" lon="0.04143543541431427001953125">
        <ele>574.20001220703125</ele>
        <time>2023-01-27T09:52:43.000Z</time>
      </trkpt>
      <trkpt lat="40.0872163474559783935546875" lon="0.0414674542844295501708984375">
        <ele>573.5999755859375</ele>
        <time>2023-01-27T09:52:44.000Z</time>
      </trkpt>
      <trkpt lat="40.0871792994439601898193359375" lon="0.04152721725404262542724609375">
        <ele>573</ele>
        <time>2023-01-27T09:52:46.000Z</time>
      </trkpt>
      <trkpt lat="40.08710830472409725189208984375" lon="0.0415643490850925445556640625">
        <ele>572.20001220703125</ele>
        <time>2023-01-27T09:52:48.000Z</time>
      </trkpt>
      <trkpt lat="40.08706279098987579345703125" lon="0.0415807776153087615966796875">
        <ele>571.79998779296875</ele>
        <time>2023-01-27T09:52:49.000Z</time>
      </trkpt>
      <trkpt lat="40.0870193727314472198486328125" lon="0.041596032679080963134765625">
        <ele>571</ele>
        <time>2023-01-27T09:52:50.000Z</time>
      </trkpt>
      <trkpt lat="40.0869801454246044158935546875" lon="0.04161246120929718017578125">
        <ele>570.20001220703125</ele>
        <time>2023-01-27T09:52:51.000Z</time>
      </trkpt>
      <trkpt lat="40.08694184012711048126220703125" lon="0.04163282923400402069091796875">
        <ele>569</ele>
        <time>2023-01-27T09:52:52.000Z</time>
      </trkpt>
      <trkpt lat="40.0869053788483142852783203125" lon="0.04165529273450374603271484375">
        <ele>568.4000244140625</ele>
        <time>2023-01-27T09:52:53.000Z</time>
      </trkpt>
      <trkpt lat="40.0868782214820384979248046875" lon="0.0416766665875911712646484375">
        <ele>567.5999755859375</ele>
        <time>2023-01-27T09:52:54.000Z</time>
      </trkpt>
      <trkpt lat="40.086840502917766571044921875" lon="0.04171430133283138275146484375">
        <ele>567</ele>
        <time>2023-01-27T09:52:55.000Z</time>
      </trkpt>
      <trkpt lat="40.08679297752678394317626953125" lon="0.041791163384914398193359375">
        <ele>566.4000244140625</ele>
        <time>2023-01-27T09:52:57.000Z</time>
      </trkpt>
      <trkpt lat="40.08677219040691852569580078125" lon="0.04183818586170673370361328125">
        <ele>565.20001220703125</ele>
        <time>2023-01-27T09:52:58.000Z</time>
      </trkpt>
      <trkpt lat="40.08675509132444858551025390625" lon="0.04189409315586090087890625">
        <ele>564</ele>
        <time>2023-01-27T09:52:59.000Z</time>
      </trkpt>
      <trkpt lat="40.0867397524416446685791015625" lon="0.04195251502096652984619140625">
        <ele>563.5999755859375</ele>
        <time>2023-01-27T09:53:00.000Z</time>
      </trkpt>
      <trkpt lat="40.08672525174915790557861328125" lon="0.042013116180896759033203125">
        <ele>563</ele>
        <time>2023-01-27T09:53:01.000Z</time>
      </trkpt>
      <trkpt lat="40.08671519346535205841064453125" lon="0.0420712865889072418212890625">
        <ele>562.5999755859375</ele>
        <time>2023-01-27T09:53:02.000Z</time>
      </trkpt>
      <trkpt lat="40.0867058895528316497802734375" lon="0.04212887026369571685791015625">
        <ele>561.5999755859375</ele>
        <time>2023-01-27T09:53:03.000Z</time>
      </trkpt>
      <trkpt lat="40.08668937720358371734619140625" lon="0.0422372482717037200927734375">
        <ele>560</ele>
        <time>2023-01-27T09:53:05.000Z</time>
      </trkpt>
      <trkpt lat="40.086676888167858123779296875" lon="0.042288713157176971435546875">
        <ele>559.5999755859375</ele>
        <time>2023-01-27T09:53:06.000Z</time>
      </trkpt>
      <trkpt lat="40.08666406385600566864013671875" lon="0.042338334023952484130859375">
        <ele>559</ele>
        <time>2023-01-27T09:53:07.000Z</time>
      </trkpt>
      <trkpt lat="40.08665333501994609832763671875" lon="0.04238652996718883514404296875">
        <ele>558.79998779296875</ele>
        <time>2023-01-27T09:53:08.000Z</time>
      </trkpt>
      <trkpt lat="40.086644031107425689697265625" lon="0.04243548028171062469482421875">
        <ele>558.20001220703125</ele>
        <time>2023-01-27T09:53:09.000Z</time>
      </trkpt>
      <trkpt lat="40.08662869222462177276611328125" lon="0.0424893759191036224365234375">
        <ele>557.20001220703125</ele>
        <time>2023-01-27T09:53:10.000Z</time>
      </trkpt>
      <trkpt lat="40.086611844599246978759765625" lon="0.0425473786890506744384765625">
        <ele>557</ele>
        <time>2023-01-27T09:53:11.000Z</time>
      </trkpt>
      <trkpt lat="40.08660170249640941619873046875" lon="0.04260429181158542633056640625">
        <ele>556</ele>
        <time>2023-01-27T09:53:12.000Z</time>
      </trkpt>
      <trkpt lat="40.086597763001918792724609375" lon="0.0426566787064075469970703125">
        <ele>555.5999755859375</ele>
        <time>2023-01-27T09:53:13.000Z</time>
      </trkpt>
      <trkpt lat="40.08659415878355503082275390625" lon="0.042710490524768829345703125">
        <ele>554.79998779296875</ele>
        <time>2023-01-27T09:53:14.000Z</time>
      </trkpt>
      <trkpt lat="40.08657990954816341400146484375" lon="0.04282557405531406402587890625">
        <ele>553.5999755859375</ele>
        <time>2023-01-27T09:53:16.000Z</time>
      </trkpt>
      <trkpt lat="40.086575634777545928955078125" lon="0.04287905059754848480224609375">
        <ele>553.4000244140625</ele>
        <time>2023-01-27T09:53:17.000Z</time>
      </trkpt>
      <trkpt lat="40.0865721143782138824462890625" lon="0.04293705336749553680419921875">
        <ele>552.20001220703125</ele>
        <time>2023-01-27T09:53:18.000Z</time>
      </trkpt>
      <trkpt lat="40.0865741260349750518798828125" lon="0.04300318658351898193359375">
        <ele>551.79998779296875</ele>
        <time>2023-01-27T09:53:19.000Z</time>
      </trkpt>
      <trkpt lat="40.08657488040626049041748046875" lon="0.04312765784561634063720703125">
        <ele>550.20001220703125</ele>
        <time>2023-01-27T09:53:21.000Z</time>
      </trkpt>
      <trkpt lat="40.086571276187896728515625" lon="0.04318666644394397735595703125">
        <ele>548.5999755859375</ele>
        <time>2023-01-27T09:53:22.000Z</time>
      </trkpt>
      <trkpt lat="40.0865704379975795745849609375" lon="0.04324433393776416778564453125">
        <ele>547.79998779296875</ele>
        <time>2023-01-27T09:53:23.000Z</time>
      </trkpt>
      <trkpt lat="40.0865711085498332977294921875" lon="0.04330066032707691192626953125">
        <ele>546.79998779296875</ele>
        <time>2023-01-27T09:53:24.000Z</time>
      </trkpt>
      <trkpt lat="40.0865724496543407440185546875" lon="0.0433537177741527557373046875">
        <ele>546</ele>
        <time>2023-01-27T09:53:25.000Z</time>
      </trkpt>
      <trkpt lat="40.08657353930175304412841796875" lon="0.043408870697021484375">
        <ele>545.79998779296875</ele>
        <time>2023-01-27T09:53:26.000Z</time>
      </trkpt>
      <trkpt lat="40.08657420985400676727294921875" lon="0.04346293397247791290283203125">
        <ele>545.20001220703125</ele>
        <time>2023-01-27T09:53:27.000Z</time>
      </trkpt>
      <trkpt lat="40.08657337166368961334228515625" lon="0.04358782432973384857177734375">
        <ele>544</ele>
        <time>2023-01-27T09:53:29.000Z</time>
      </trkpt>
      <trkpt lat="40.08657622151076793670654296875" lon="0.043654628098011016845703125">
        <ele>543.5999755859375</ele>
        <time>2023-01-27T09:53:30.000Z</time>
      </trkpt>
      <trkpt lat="40.0865779817104339599609375" lon="0.0437104515731334686279296875">
        <ele>542.20001220703125</ele>
        <time>2023-01-27T09:53:31.000Z</time>
      </trkpt>
      <trkpt lat="40.086585022509098052978515625" lon="0.04376652650535106658935546875">
        <ele>541.4000244140625</ele>
        <time>2023-01-27T09:53:32.000Z</time>
      </trkpt>
      <trkpt lat="40.08659851737320423126220703125" lon="0.0438261218369007110595703125">
        <ele>540.20001220703125</ele>
        <time>2023-01-27T09:53:33.000Z</time>
      </trkpt>
      <trkpt lat="40.08661352097988128662109375" lon="0.0438831187784671783447265625">
        <ele>540</ele>
        <time>2023-01-27T09:53:34.000Z</time>
      </trkpt>
      <trkpt lat="40.0866498984396457672119140625" lon="0.04399367608129978179931640625">
        <ele>538.79998779296875</ele>
        <time>2023-01-27T09:53:36.000Z</time>
      </trkpt>
      <trkpt lat="40.0867196358740329742431640625" lon="0.04408906213939189910888671875">
        <ele>538</ele>
        <time>2023-01-27T09:53:38.000Z</time>
      </trkpt>
      <trkpt lat="40.08675701916217803955078125" lon="0.04414069466292858123779296875">
        <ele>537.20001220703125</ele>
        <time>2023-01-27T09:53:39.000Z</time>
      </trkpt>
      <trkpt lat="40.08682985790073871612548828125" lon="0.044246725738048553466796875">
        <ele>536.5999755859375</ele>
        <time>2023-01-27T09:53:41.000Z</time>
      </trkpt>
      <trkpt lat="40.08690831251442432403564453125" lon="0.044350661337375640869140625">
        <ele>535.79998779296875</ele>
        <time>2023-01-27T09:53:43.000Z</time>
      </trkpt>
      <trkpt lat="40.0869553349912166595458984375" lon="0.04440019838511943817138671875">
        <ele>534.4000244140625</ele>
        <time>2023-01-27T09:53:44.000Z</time>
      </trkpt>
      <trkpt lat="40.08704460225999355316162109375" lon="0.04450296051800251007080078125">
        <ele>532.4000244140625</ele>
        <time>2023-01-27T09:53:46.000Z</time>
      </trkpt>
      <trkpt lat="40.08708785288035869598388671875" lon="0.044546462595462799072265625">
        <ele>531.79998779296875</ele>
        <time>2023-01-27T09:53:47.000Z</time>
      </trkpt>
      <trkpt lat="40.08712171576917171478271484375" lon="0.04458124749362468719482421875">
        <ele>530.5999755859375</ele>
        <time>2023-01-27T09:53:48.000Z</time>
      </trkpt>
      <trkpt lat="40.0871581770479679107666015625" lon="0.0446230731904506683349609375">
        <ele>530</ele>
        <time>2023-01-27T09:53:49.000Z</time>
      </trkpt>
      <trkpt lat="40.08719279430806636810302734375" lon="0.0446713529527187347412109375">
        <ele>529.20001220703125</ele>
        <time>2023-01-27T09:53:50.000Z</time>
      </trkpt>
      <trkpt lat="40.0872272439301013946533203125" lon="0.04471887834370136260986328125">
        <ele>528.5999755859375</ele>
        <time>2023-01-27T09:53:51.000Z</time>
      </trkpt>
      <trkpt lat="40.08726823143661022186279296875" lon="0.044763721525669097900390625">
        <ele>527.79998779296875</ele>
        <time>2023-01-27T09:53:52.000Z</time>
      </trkpt>
      <trkpt lat="40.0873006694018840789794921875" lon="0.04480856470763683319091796875">
        <ele>527.4000244140625</ele>
        <time>2023-01-27T09:53:53.000Z</time>
      </trkpt>
      <trkpt lat="40.08732707239687442779541015625" lon="0.044848881661891937255859375">
        <ele>526.4000244140625</ele>
        <time>2023-01-27T09:53:54.000Z</time>
      </trkpt>
      <trkpt lat="40.08740787394344806671142578125" lon="0.0450200401246547698974609375">
        <ele>525.20001220703125</ele>
        <time>2023-01-27T09:53:57.000Z</time>
      </trkpt>
      <trkpt lat="40.08745280094444751739501953125" lon="0.045140571892261505126953125">
        <ele>524.4000244140625</ele>
        <time>2023-01-27T09:53:59.000Z</time>
      </trkpt>
      <trkpt lat="40.0874730013310909271240234375" lon="0.0451943837106227874755859375">
        <ele>524.20001220703125</ele>
        <time>2023-01-27T09:54:00.000Z</time>
      </trkpt>
      <trkpt lat="40.08748934604227542877197265625" lon="0.04524643532931804656982421875">
        <ele>521.5999755859375</ele>
        <time>2023-01-27T09:54:01.000Z</time>
      </trkpt>
      <trkpt lat="40.08750108070671558380126953125" lon="0.0452996604144573211669921875">
        <ele>520.5999755859375</ele>
        <time>2023-01-27T09:54:02.000Z</time>
      </trkpt>
      <trkpt lat="40.08751616813242435455322265625" lon="0.0453583337366580963134765625">
        <ele>519.4000244140625</ele>
        <time>2023-01-27T09:54:03.000Z</time>
      </trkpt>
      <trkpt lat="40.08753226138651371002197265625" lon="0.0454151630401611328125">
        <ele>519</ele>
        <time>2023-01-27T09:54:04.000Z</time>
      </trkpt>
      <trkpt lat="40.0875454209744930267333984375" lon="0.04546654410660266876220703125">
        <ele>518</ele>
        <time>2023-01-27T09:54:05.000Z</time>
      </trkpt>
      <trkpt lat="40.0875551439821720123291015625" lon="0.04552052356302738189697265625">
        <ele>517.5999755859375</ele>
        <time>2023-01-27T09:54:06.000Z</time>
      </trkpt>
      <trkpt lat="40.0875611789524555206298828125" lon="0.0455765984952449798583984375">
        <ele>516.4000244140625</ele>
        <time>2023-01-27T09:54:07.000Z</time>
      </trkpt>
      <trkpt lat="40.0875625200569629669189453125" lon="0.0456295721232891082763671875">
        <ele>515.5999755859375</ele>
        <time>2023-01-27T09:54:08.000Z</time>
      </trkpt>
      <trkpt lat="40.08756126277148723602294921875" lon="0.04567424766719341278076171875">
        <ele>513.5999755859375</ele>
        <time>2023-01-27T09:54:09.000Z</time>
      </trkpt>
      <trkpt lat="40.0875564850866794586181640625" lon="0.04571481607854366302490234375">
        <ele>512.4000244140625</ele>
        <time>2023-01-27T09:54:10.000Z</time>
      </trkpt>
      <trkpt lat="40.08754692971706390380859375" lon="0.04574616439640522003173828125">
        <ele>512</ele>
        <time>2023-01-27T09:54:11.000Z</time>
      </trkpt>
      <trkpt lat="40.0875356979668140411376953125" lon="0.0457693822681903839111328125">
        <ele>511</ele>
        <time>2023-01-27T09:54:12.000Z</time>
      </trkpt>
      <trkpt lat="40.08751767687499523162841796875" lon="0.04579092375934123992919921875">
        <ele>510.600006103515625</ele>
        <time>2023-01-27T09:54:13.000Z</time>
      </trkpt>
      <trkpt lat="40.08749387226998805999755859375" lon="0.04581405781209468841552734375">
        <ele>509.600006103515625</ele>
        <time>2023-01-27T09:54:14.000Z</time>
      </trkpt>
      <trkpt lat="40.08746470324695110321044921875" lon="0.04583467729389667510986328125">
        <ele>509.399993896484375</ele>
        <time>2023-01-27T09:54:15.000Z</time>
      </trkpt>
      <trkpt lat="40.08742664940655231475830078125" lon="0.0458438135683536529541015625">
        <ele>508.600006103515625</ele>
        <time>2023-01-27T09:54:16.000Z</time>
      </trkpt>
      <trkpt lat="40.08738289587199687957763671875" lon="0.04584875889122486114501953125">
        <ele>508.20001220703125</ele>
        <time>2023-01-27T09:54:17.000Z</time>
      </trkpt>
      <trkpt lat="40.0873422436416149139404296875" lon="0.045854710042476654052734375">
        <ele>507.20001220703125</ele>
        <time>2023-01-27T09:54:18.000Z</time>
      </trkpt>
      <trkpt lat="40.08729656226933002471923828125" lon="0.0458590686321258544921875">
        <ele>506.600006103515625</ele>
        <time>2023-01-27T09:54:19.000Z</time>
      </trkpt>
      <trkpt lat="40.087241828441619873046875" lon="0.04586636088788509368896484375">
        <ele>505.79998779296875</ele>
        <time>2023-01-27T09:54:20.000Z</time>
      </trkpt>
      <trkpt lat="40.08714937604963779449462890625" lon="0.04587725736200809478759765625">
        <ele>504.399993896484375</ele>
        <time>2023-01-27T09:54:22.000Z</time>
      </trkpt>
      <trkpt lat="40.087063126266002655029296875" lon="0.04588161595165729522705078125">
        <ele>503.20001220703125</ele>
        <time>2023-01-27T09:54:24.000Z</time>
      </trkpt>
      <trkpt lat="40.08693111129105091094970703125" lon="0.04588580690324306488037109375">
        <ele>502.20001220703125</ele>
        <time>2023-01-27T09:54:27.000Z</time>
      </trkpt>
      <trkpt lat="40.086876712739467620849609375" lon="0.04588480107486248016357421875">
        <ele>502</ele>
        <time>2023-01-27T09:54:28.000Z</time>
      </trkpt>
      <trkpt lat="40.08683488704264163970947265625" lon="0.04588681273162364959716796875">
        <ele>501.20001220703125</ele>
        <time>2023-01-27T09:54:29.000Z</time>
      </trkpt>
      <trkpt lat="40.0868061371147632598876953125" lon="0.0459038279950618743896484375">
        <ele>500.79998779296875</ele>
        <time>2023-01-27T09:54:30.000Z</time>
      </trkpt>
      <trkpt lat="40.0867850147187709808349609375" lon="0.04592855460941791534423828125">
        <ele>500.20001220703125</ele>
        <time>2023-01-27T09:54:31.000Z</time>
      </trkpt>
      <trkpt lat="40.0867699272930622100830078125" lon="0.04595738835632801055908203125">
        <ele>499.79998779296875</ele>
        <time>2023-01-27T09:54:32.000Z</time>
      </trkpt>
      <trkpt lat="40.0867618806660175323486328125" lon="0.04599913023412227630615234375">
        <ele>498.600006103515625</ele>
        <time>2023-01-27T09:54:33.000Z</time>
      </trkpt>
      <trkpt lat="40.0867603719234466552734375" lon="0.0460567139089107513427734375">
        <ele>498</ele>
        <time>2023-01-27T09:54:34.000Z</time>
      </trkpt>
      <trkpt lat="40.08677336387336254119873046875" lon="0.046088397502899169921875">
        <ele>496.600006103515625</ele>
        <time>2023-01-27T09:54:35.000Z</time>
      </trkpt>
      <trkpt lat="40.08679934777319431304931640625" lon="0.04610759206116199493408203125">
        <ele>496</ele>
        <time>2023-01-27T09:54:36.000Z</time>
      </trkpt>
      <trkpt lat="40.08682985790073871612548828125" lon="0.0461251102387905120849609375">
        <ele>495.20001220703125</ele>
        <time>2023-01-27T09:54:37.000Z</time>
      </trkpt>
      <trkpt lat="40.08692071773111820220947265625" lon="0.04619367420673370361328125">
        <ele>494</ele>
        <time>2023-01-27T09:54:40.000Z</time>
      </trkpt>
      <trkpt lat="40.08704409934580326080322265625" lon="0.04622795619070529937744140625">
        <ele>493.600006103515625</ele>
        <time>2023-01-27T09:54:43.000Z</time>
      </trkpt>
      <trkpt lat="40.08709556423127651214599609375" lon="0.04623935557901859283447265625">
        <ele>493.20001220703125</ele>
        <time>2023-01-27T09:54:44.000Z</time>
      </trkpt>
      <trkpt lat="40.08712355978786945343017578125" lon="0.04624597728252410888671875">
        <ele>493.20001220703125</ele>
        <time>2023-01-27T09:54:45.000Z</time>
      </trkpt>
      <trkpt lat="40.08715088479220867156982421875" lon="0.0462602265179157257080078125">
        <ele>492.79998779296875</ele>
        <time>2023-01-27T09:54:46.000Z</time>
      </trkpt>
      <trkpt lat="40.08717066608369350433349609375" lon="0.04628218710422515869140625">
        <ele>492.600006103515625</ele>
        <time>2023-01-27T09:54:47.000Z</time>
      </trkpt>
      <trkpt lat="40.08718617260456085205078125" lon="0.04631009884178638458251953125">
        <ele>492</ele>
        <time>2023-01-27T09:54:48.000Z</time>
      </trkpt>
      <trkpt lat="40.08719421923160552978515625" lon="0.046342872083187103271484375">
        <ele>492</ele>
        <time>2023-01-27T09:54:49.000Z</time>
      </trkpt>
      <trkpt lat="40.08718944154679775238037109375" lon="0.04637874662876129150390625">
        <ele>491.600006103515625</ele>
        <time>2023-01-27T09:54:50.000Z</time>
      </trkpt>
      <trkpt lat="40.0871756114065647125244140625" lon="0.04641889594495296478271484375">
        <ele>491.399993896484375</ele>
        <time>2023-01-27T09:54:51.000Z</time>
      </trkpt>
      <trkpt lat="40.08715105243027210235595703125" lon="0.04645192064344882965087890625">
        <ele>491</ele>
        <time>2023-01-27T09:54:52.000Z</time>
      </trkpt>
      <trkpt lat="40.08707293309271335601806640625" lon="0.0464808382093906402587890625">
        <ele>490.600006103515625</ele>
        <time>2023-01-27T09:54:54.000Z</time>
      </trkpt>
      <trkpt lat="40.08702364750206470489501953125" lon="0.04647673107683658599853515625">
        <ele>490.399993896484375</ele>
        <time>2023-01-27T09:54:55.000Z</time>
      </trkpt>
      <trkpt lat="40.086924992501735687255859375" lon="0.04645342938601970672607421875">
        <ele>489.399993896484375</ele>
        <time>2023-01-27T09:54:57.000Z</time>
      </trkpt>
      <trkpt lat="40.0868810713291168212890625" lon="0.04643247462809085845947265625">
        <ele>489.20001220703125</ele>
        <time>2023-01-27T09:54:58.000Z</time>
      </trkpt>
      <trkpt lat="40.08684226311743259429931640625" lon="0.0464131124317646026611328125">
        <ele>488.600006103515625</ele>
        <time>2023-01-27T09:54:59.000Z</time>
      </trkpt>
      <trkpt lat="40.08680504746735095977783203125" lon="0.0463953427970409393310546875">
        <ele>488.20001220703125</ele>
        <time>2023-01-27T09:55:00.000Z</time>
      </trkpt>
      <trkpt lat="40.086769759654998779296875" lon="0.04637631587684154510498046875">
        <ele>487.600006103515625</ele>
        <time>2023-01-27T09:55:01.000Z</time>
      </trkpt>
      <trkpt lat="40.08673648349940776824951171875" lon="0.04635536111891269683837890625">
        <ele>487.399993896484375</ele>
        <time>2023-01-27T09:55:02.000Z</time>
      </trkpt>
      <trkpt lat="40.08670312352478504180908203125" lon="0.04633675329387187957763671875">
        <ele>486.600006103515625</ele>
        <time>2023-01-27T09:55:03.000Z</time>
      </trkpt>
      <trkpt lat="40.08658359758555889129638671875" lon="0.046288557350635528564453125">
        <ele>485.399993896484375</ele>
        <time>2023-01-27T09:55:06.000Z</time>
      </trkpt>
      <trkpt lat="40.086495839059352874755859375" lon="0.0462689436972141265869140625">
        <ele>484.79998779296875</ele>
        <time>2023-01-27T09:55:08.000Z</time>
      </trkpt>
      <trkpt lat="40.08646197617053985595703125" lon="0.04626299254596233367919921875">
        <ele>484.600006103515625</ele>
        <time>2023-01-27T09:55:09.000Z</time>
      </trkpt>
      <trkpt lat="40.086428113281726837158203125" lon="0.04625729285180568695068359375">
        <ele>483.79998779296875</ele>
        <time>2023-01-27T09:55:10.000Z</time>
      </trkpt>
      <trkpt lat="40.08638880215585231781005859375" lon="0.04624790512025356292724609375">
        <ele>483.600006103515625</ele>
        <time>2023-01-27T09:55:11.000Z</time>
      </trkpt>
      <trkpt lat="40.0863474793732166290283203125" lon="0.04624061286449432373046875">
        <ele>483.399993896484375</ele>
        <time>2023-01-27T09:55:12.000Z</time>
      </trkpt>
      <trkpt lat="40.086308084428310394287109375" lon="0.04623047076165676116943359375">
        <ele>482.399993896484375</ele>
        <time>2023-01-27T09:55:13.000Z</time>
      </trkpt>
      <trkpt lat="40.08626609109342098236083984375" lon="0.046220831573009490966796875">
        <ele>481.20001220703125</ele>
        <time>2023-01-27T09:55:14.000Z</time>
      </trkpt>
      <trkpt lat="40.08615880273282527923583984375" lon="0.0461621582508087158203125">
        <ele>480.399993896484375</ele>
        <time>2023-01-27T09:55:16.000Z</time>
      </trkpt>
      <trkpt lat="40.08609853684902191162109375" lon="0.046120919287204742431640625">
        <ele>480.20001220703125</ele>
        <time>2023-01-27T09:55:17.000Z</time>
      </trkpt>
      <trkpt lat="40.08594355545938014984130859375" lon="0.04597616381943225860595703125">
        <ele>478.600006103515625</ele>
        <time>2023-01-27T09:55:20.000Z</time>
      </trkpt>
      <trkpt lat="40.0859015621244907379150390625" lon="0.04597733728587627410888671875">
        <ele>478.399993896484375</ele>
        <time>2023-01-27T09:55:21.000Z</time>
      </trkpt>
      <trkpt lat="40.08586090989410877227783203125" lon="0.04599628038704395294189453125">
        <ele>477.79998779296875</ele>
        <time>2023-01-27T09:55:22.000Z</time>
      </trkpt>
      <trkpt lat="40.0858341716229915618896484375" lon="0.04600969143211841583251953125">
        <ele>477.20001220703125</ele>
        <time>2023-01-27T09:55:23.000Z</time>
      </trkpt>
      <trkpt lat="40.08580290712416172027587890625" lon="0.04603140056133270263671875">
        <ele>477</ele>
        <time>2023-01-27T09:55:24.000Z</time>
      </trkpt>
      <trkpt lat="40.08577239699661731719970703125" lon="0.0460479967296123504638671875">
        <ele>476.399993896484375</ele>
        <time>2023-01-27T09:55:25.000Z</time>
      </trkpt>
      <trkpt lat="40.08574188686907291412353515625" lon="0.04606417380273342132568359375">
        <ele>476.399993896484375</ele>
        <time>2023-01-27T09:55:26.000Z</time>
      </trkpt>
      <trkpt lat="40.08570886217057704925537109375" lon="0.04607071168720722198486328125">
        <ele>476.20001220703125</ele>
        <time>2023-01-27T09:55:27.000Z</time>
      </trkpt>
      <trkpt lat="40.08565940894186496734619140625" lon="0.04607188515365123748779296875">
        <ele>476</ele>
        <time>2023-01-27T09:55:28.000Z</time>
      </trkpt>
      <trkpt lat="40.08539940230548381805419921875" lon="0.0460307300090789794921875">
        <ele>476.20001220703125</ele>
        <time>2023-01-27T09:55:33.000Z</time>
      </trkpt>
      <trkpt lat="40.08524534292519092559814453125" lon="0.04597934894263744354248046875">
        <ele>475.79998779296875</ele>
        <time>2023-01-27T09:55:36.000Z</time>
      </trkpt>
      <trkpt lat="40.08513537235558032989501953125" lon="0.04593492485582828521728515625">
        <ele>475.79998779296875</ele>
        <time>2023-01-27T09:55:38.000Z</time>
      </trkpt>
      <trkpt lat="40.085082985460758209228515625" lon="0.045917071402072906494140625">
        <ele>475.79998779296875</ele>
        <time>2023-01-27T09:55:39.000Z</time>
      </trkpt>
      <trkpt lat="40.08502741344273090362548828125" lon="0.0459122098982334136962890625">
        <ele>475</ele>
        <time>2023-01-27T09:55:40.000Z</time>
      </trkpt>
      <trkpt lat="40.08498131297528743743896484375" lon="0.04592277109622955322265625">
        <ele>474</ele>
        <time>2023-01-27T09:55:41.000Z</time>
      </trkpt>
      <trkpt lat="40.08493185974657535552978515625" lon="0.04594967700541019439697265625">
        <ele>472.79998779296875</ele>
        <time>2023-01-27T09:55:42.000Z</time>
      </trkpt>
      <trkpt lat="40.08487620390951633453369140625" lon="0.04597431980073451995849609375">
        <ele>472.399993896484375</ele>
        <time>2023-01-27T09:55:43.000Z</time>
      </trkpt>
      <trkpt lat="40.0848229788243770599365234375" lon="0.0460027344524860382080078125">
        <ele>471.600006103515625</ele>
        <time>2023-01-27T09:55:44.000Z</time>
      </trkpt>
      <trkpt lat="40.08477427996695041656494140625" lon="0.04603701643645763397216796875">
        <ele>471.399993896484375</ele>
        <time>2023-01-27T09:55:45.000Z</time>
      </trkpt>
      <trkpt lat="40.08467302657663822174072265625" lon="0.0461241044104099273681640625">
        <ele>470.600006103515625</ele>
        <time>2023-01-27T09:55:47.000Z</time>
      </trkpt>
      <trkpt lat="40.0846355594694614410400390625" lon="0.046163499355316162109375">
        <ele>469.399993896484375</ele>
        <time>2023-01-27T09:55:48.000Z</time>
      </trkpt>
      <trkpt lat="40.0846010260283946990966796875" lon="0.046197362244129180908203125">
        <ele>469</ele>
        <time>2023-01-27T09:55:49.000Z</time>
      </trkpt>
      <trkpt lat="40.08456439711153507232666015625" lon="0.04622544161975383758544921875">
        <ele>468.20001220703125</ele>
        <time>2023-01-27T09:55:50.000Z</time>
      </trkpt>
      <trkpt lat="40.0845215655863285064697265625" lon="0.046250335872173309326171875">
        <ele>468</ele>
        <time>2023-01-27T09:55:51.000Z</time>
      </trkpt>
      <trkpt lat="40.0844724476337432861328125" lon="0.04626332782208919525146484375">
        <ele>467.20001220703125</ele>
        <time>2023-01-27T09:55:52.000Z</time>
      </trkpt>
      <trkpt lat="40.084422491490840911865234375" lon="0.04626399837434291839599609375">
        <ele>466.600006103515625</ele>
        <time>2023-01-27T09:55:53.000Z</time>
      </trkpt>
      <trkpt lat="40.08437295444309711456298828125" lon="0.0462587177753448486328125">
        <ele>466.399993896484375</ele>
        <time>2023-01-27T09:55:54.000Z</time>
      </trkpt>
      <trkpt lat="40.08432291448116302490234375" lon="0.0462461449205875396728515625">
        <ele>465.79998779296875</ele>
        <time>2023-01-27T09:55:55.000Z</time>
      </trkpt>
      <trkpt lat="40.0842685997486114501953125" lon="0.04622896201908588409423828125">
        <ele>465.600006103515625</ele>
        <time>2023-01-27T09:55:56.000Z</time>
      </trkpt>
      <trkpt lat="40.08422224782407283782958984375" lon="0.04621605388820171356201171875">
        <ele>465.20001220703125</ele>
        <time>2023-01-27T09:55:57.000Z</time>
      </trkpt>
      <trkpt lat="40.084085874259471893310546875" lon="0.04618839360773563385009765625">
        <ele>464.399993896484375</ele>
        <time>2023-01-27T09:55:59.000Z</time>
      </trkpt>
      <trkpt lat="40.08388982154428958892822265625" lon="0.04615084268152713775634765625">
        <ele>463.600006103515625</ele>
        <time>2023-01-27T09:56:02.000Z</time>
      </trkpt>
      <trkpt lat="40.083823688328266143798828125" lon="0.04613189958035945892333984375">
        <ele>463</ele>
        <time>2023-01-27T09:56:03.000Z</time>
      </trkpt>
      <trkpt lat="40.08362377993762493133544921875" lon="0.04607029259204864501953125">
        <ele>461.600006103515625</ele>
        <time>2023-01-27T09:56:06.000Z</time>
      </trkpt>
      <trkpt lat="40.0834788568317890167236328125" lon="0.04602067172527313232421875">
        <ele>460</ele>
        <time>2023-01-27T09:56:08.000Z</time>
      </trkpt>
      <trkpt lat="40.08341104723513126373291015625" lon="0.04599661566317081451416015625">
        <ele>459.79998779296875</ele>
        <time>2023-01-27T09:56:09.000Z</time>
      </trkpt>
      <trkpt lat="40.0833474285900592803955078125" lon="0.045974068343639373779296875">
        <ele>459</ele>
        <time>2023-01-27T09:56:10.000Z</time>
      </trkpt>
      <trkpt lat="40.08328749798238277435302734375" lon="0.0459497608244419097900390625">
        <ele>458.79998779296875</ele>
        <time>2023-01-27T09:56:11.000Z</time>
      </trkpt>
      <trkpt lat="40.0832304172217845916748046875" lon="0.045927800238132476806640625">
        <ele>457.79998779296875</ele>
        <time>2023-01-27T09:56:12.000Z</time>
      </trkpt>
      <trkpt lat="40.083170235157012939453125" lon="0.04591044969856739044189453125">
        <ele>457</ele>
        <time>2023-01-27T09:56:13.000Z</time>
      </trkpt>
      <trkpt lat="40.08310678415000438690185546875" lon="0.04589234478771686553955078125">
        <ele>455.79998779296875</ele>
        <time>2023-01-27T09:56:14.000Z</time>
      </trkpt>
      <trkpt lat="40.08297099731862545013427734375" lon="0.045837946236133575439453125">
        <ele>454.399993896484375</ele>
        <time>2023-01-27T09:56:16.000Z</time>
      </trkpt>
      <trkpt lat="40.08283705450594425201416015625" lon="0.04579327069222927093505859375">
        <ele>452.600006103515625</ele>
        <time>2023-01-27T09:56:18.000Z</time>
      </trkpt>
      <trkpt lat="40.08276262320578098297119140625" lon="0.04577231593430042266845703125">
        <ele>451.600006103515625</ele>
        <time>2023-01-27T09:56:19.000Z</time>
      </trkpt>
      <trkpt lat="40.08270084857940673828125" lon="0.0457544624805450439453125">
        <ele>450.600006103515625</ele>
        <time>2023-01-27T09:56:20.000Z</time>
      </trkpt>
      <trkpt lat="40.08262583054602146148681640625" lon="0.0457351841032505035400390625">
        <ele>449.600006103515625</ele>
        <time>2023-01-27T09:56:21.000Z</time>
      </trkpt>
      <trkpt lat="40.08255441673099994659423828125" lon="0.0457133911550045013427734375">
        <ele>449</ele>
        <time>2023-01-27T09:56:22.000Z</time>
      </trkpt>
      <trkpt lat="40.08247864432632923126220703125" lon="0.04567458294332027435302734375">
        <ele>448</ele>
        <time>2023-01-27T09:56:23.000Z</time>
      </trkpt>
      <trkpt lat="40.0824301131069660186767578125" lon="0.045644827187061309814453125">
        <ele>447.20001220703125</ele>
        <time>2023-01-27T09:56:24.000Z</time>
      </trkpt>
      <trkpt lat="40.0823734514415264129638671875" lon="0.04561071284115314483642578125">
        <ele>444.79998779296875</ele>
        <time>2023-01-27T09:56:25.000Z</time>
      </trkpt>
      <trkpt lat="40.08230614475905895233154296875" lon="0.045565702021121978759765625">
        <ele>443.399993896484375</ele>
        <time>2023-01-27T09:56:26.000Z</time>
      </trkpt>
      <trkpt lat="40.082253254950046539306640625" lon="0.0455330125987529754638671875">
        <ele>441.600006103515625</ele>
        <time>2023-01-27T09:56:27.000Z</time>
      </trkpt>
      <trkpt lat="40.0822011195123195648193359375" lon="0.04550593905150890350341796875">
        <ele>441.20001220703125</ele>
        <time>2023-01-27T09:56:28.000Z</time>
      </trkpt>
      <trkpt lat="40.08215275593101978302001953125" lon="0.045495294034481048583984375">
        <ele>438.600006103515625</ele>
        <time>2023-01-27T09:56:29.000Z</time>
      </trkpt>
      <trkpt lat="40.0821040570735931396484375" lon="0.04549219273030757904052734375">
        <ele>437.79998779296875</ele>
        <time>2023-01-27T09:56:30.000Z</time>
      </trkpt>
      <trkpt lat="40.082056783139705657958984375" lon="0.04548951052129268646240234375">
        <ele>436.600006103515625</ele>
        <time>2023-01-27T09:56:31.000Z</time>
      </trkpt>
      <trkpt lat="40.08200271986424922943115234375" lon="0.04548666067421436309814453125">
        <ele>436</ele>
        <time>2023-01-27T09:56:32.000Z</time>
      </trkpt>
      <trkpt lat="40.08195678703486919403076171875" lon="0.0455004908144474029541015625">
        <ele>434.600006103515625</ele>
        <time>2023-01-27T09:56:33.000Z</time>
      </trkpt>
      <trkpt lat="40.08192560635507106781005859375" lon="0.0455130636692047119140625">
        <ele>433.600006103515625</ele>
        <time>2023-01-27T09:56:34.000Z</time>
      </trkpt>
      <trkpt lat="40.08188612759113311767578125" lon="0.04553846083581447601318359375">
        <ele>432.399993896484375</ele>
        <time>2023-01-27T09:56:35.000Z</time>
      </trkpt>
      <trkpt lat="40.0818376801908016204833984375" lon="0.04558607004582881927490234375">
        <ele>431.20001220703125</ele>
        <time>2023-01-27T09:56:36.000Z</time>
      </trkpt>
      <trkpt lat="40.08179233409464359283447265625" lon="0.045634768903255462646484375">
        <ele>430.20001220703125</ele>
        <time>2023-01-27T09:56:37.000Z</time>
      </trkpt>
      <trkpt lat="40.081751346588134765625" lon="0.045691765844821929931640625">
        <ele>428.79998779296875</ele>
        <time>2023-01-27T09:56:38.000Z</time>
      </trkpt>
      <trkpt lat="40.0817112810909748077392578125" lon="0.04573392681777477264404296875">
        <ele>428.20001220703125</ele>
        <time>2023-01-27T09:56:39.000Z</time>
      </trkpt>
      <trkpt lat="40.08167532272636890411376953125" lon="0.0457713939249515533447265625">
        <ele>426.79998779296875</ele>
        <time>2023-01-27T09:56:40.000Z</time>
      </trkpt>
      <trkpt lat="40.08164581842720508575439453125" lon="0.04580332897603511810302734375">
        <ele>426</ele>
        <time>2023-01-27T09:56:41.000Z</time>
      </trkpt>
      <trkpt lat="40.081612206995487213134765625" lon="0.045837946236133575439453125">
        <ele>424.79998779296875</ele>
        <time>2023-01-27T09:56:42.000Z</time>
      </trkpt>
      <trkpt lat="40.08152444846928119659423828125" lon="0.045909024775028228759765625">
        <ele>422.79998779296875</ele>
        <time>2023-01-27T09:56:44.000Z</time>
      </trkpt>
      <trkpt lat="40.0814759172499179840087890625" lon="0.0459420494735240936279296875">
        <ele>422</ele>
        <time>2023-01-27T09:56:45.000Z</time>
      </trkpt>
      <trkpt lat="40.08142411708831787109375" lon="0.04596996121108531951904296875">
        <ele>420.20001220703125</ele>
        <time>2023-01-27T09:56:46.000Z</time>
      </trkpt>
      <trkpt lat="40.08137189783155918121337890625" lon="0.04599292762577533721923828125">
        <ele>419.600006103515625</ele>
        <time>2023-01-27T09:56:47.000Z</time>
      </trkpt>
      <trkpt lat="40.0813288986682891845703125" lon="0.04600315354764461517333984375">
        <ele>417.600006103515625</ele>
        <time>2023-01-27T09:56:48.000Z</time>
      </trkpt>
      <trkpt lat="40.0812720693647861480712890625" lon="0.0460119545459747314453125">
        <ele>417</ele>
        <time>2023-01-27T09:56:49.000Z</time>
      </trkpt>
      <trkpt lat="40.0812063552439212799072265625" lon="0.0460144691169261932373046875">
        <ele>415.79998779296875</ele>
        <time>2023-01-27T09:56:50.000Z</time>
      </trkpt>
      <trkpt lat="40.08116059005260467529296875" lon="0.04600851796567440032958984375">
        <ele>414.399993896484375</ele>
        <time>2023-01-27T09:56:51.000Z</time>
      </trkpt>
      <trkpt lat="40.081116668879985809326171875" lon="0.04599946551024913787841796875">
        <ele>413</ele>
        <time>2023-01-27T09:56:52.000Z</time>
      </trkpt>
      <trkpt lat="40.08107635192573070526123046875" lon="0.04598773084580898284912109375">
        <ele>411.399993896484375</ele>
        <time>2023-01-27T09:56:53.000Z</time>
      </trkpt>
      <trkpt lat="40.08104533888399600982666015625" lon="0.045970045030117034912109375">
        <ele>410.600006103515625</ele>
        <time>2023-01-27T09:56:54.000Z</time>
      </trkpt>
      <trkpt lat="40.081026814877986907958984375" lon="0.04594464786350727081298828125">
        <ele>408.20001220703125</ele>
        <time>2023-01-27T09:56:55.000Z</time>
      </trkpt>
      <trkpt lat="40.0810226239264011383056640625" lon="0.04591313190758228302001953125">
        <ele>407.399993896484375</ele>
        <time>2023-01-27T09:56:56.000Z</time>
      </trkpt>
      <trkpt lat="40.0810363702476024627685546875" lon="0.04588111303746700286865234375">
        <ele>405.79998779296875</ele>
        <time>2023-01-27T09:56:57.000Z</time>
      </trkpt>
      <trkpt lat="40.08110568858683109283447265625" lon="0.04583233036100864410400390625">
        <ele>404.20001220703125</ele>
        <time>2023-01-27T09:56:59.000Z</time>
      </trkpt>
      <trkpt lat="40.08119302801787853240966796875" lon="0.045784972608089447021484375">
        <ele>402.399993896484375</ele>
        <time>2023-01-27T09:57:01.000Z</time>
      </trkpt>
      <trkpt lat="40.08125773631036281585693359375" lon="0.045719929039478302001953125">
        <ele>401.600006103515625</ele>
        <time>2023-01-27T09:57:03.000Z</time>
      </trkpt>
      <trkpt lat="40.0812797807157039642333984375" lon="0.04568246193230152130126953125">
        <ele>400.600006103515625</ele>
        <time>2023-01-27T09:57:04.000Z</time>
      </trkpt>
      <trkpt lat="40.0812962092459201812744140625" lon="0.04563787020742893218994140625">
        <ele>399</ele>
        <time>2023-01-27T09:57:05.000Z</time>
      </trkpt>
      <trkpt lat="40.0812993943691253662109375" lon="0.0455856509506702423095703125">
        <ele>398.399993896484375</ele>
        <time>2023-01-27T09:57:06.000Z</time>
      </trkpt>
      <trkpt lat="40.08128925226628780364990234375" lon="0.0455390475690364837646484375">
        <ele>397.600006103515625</ele>
        <time>2023-01-27T09:57:07.000Z</time>
      </trkpt>
      <trkpt lat="40.08126947097480297088623046875" lon="0.04548079334199428558349609375">
        <ele>396.600006103515625</ele>
        <time>2023-01-27T09:57:08.000Z</time>
      </trkpt>
      <trkpt lat="40.08119814097881317138671875" lon="0.04539814777672290802001953125">
        <ele>395.20001220703125</ele>
        <time>2023-01-27T09:57:10.000Z</time>
      </trkpt>
      <trkpt lat="40.0811617635190486907958984375" lon="0.045382641255855560302734375">
        <ele>394.79998779296875</ele>
        <time>2023-01-27T09:57:11.000Z</time>
      </trkpt>
      <trkpt lat="40.08113552816212177276611328125" lon="0.04536914639174938201904296875">
        <ele>394.20001220703125</ele>
        <time>2023-01-27T09:57:12.000Z</time>
      </trkpt>
      <trkpt lat="40.08110468275845050811767578125" lon="0.04535573534667491912841796875">
        <ele>394</ele>
        <time>2023-01-27T09:57:13.000Z</time>
      </trkpt>
      <trkpt lat="40.081083141267299652099609375" lon="0.0453469343483448028564453125">
        <ele>393.600006103515625</ele>
        <time>2023-01-27T09:57:14.000Z</time>
      </trkpt>
      <trkpt lat="40.08105866611003875732421875" lon="0.04533209837973117828369140625">
        <ele>393.399993896484375</ele>
        <time>2023-01-27T09:57:15.000Z</time>
      </trkpt>
      <trkpt lat="40.08102790452539920806884765625" lon="0.0453107245266437530517578125">
        <ele>393.20001220703125</ele>
        <time>2023-01-27T09:57:16.000Z</time>
      </trkpt>
      <trkpt lat="40.08096286095678806304931640625" lon="0.0452708266675472259521484375">
        <ele>392.79998779296875</ele>
        <time>2023-01-27T09:57:18.000Z</time>
      </trkpt>
      <trkpt lat="40.08086680434644222259521484375" lon="0.04520368762314319610595703125">
        <ele>392.399993896484375</ele>
        <time>2023-01-27T09:57:20.000Z</time>
      </trkpt>
      <trkpt lat="40.0807647965848445892333984375" lon="0.04508617334067821502685546875">
        <ele>391.79998779296875</ele>
        <time>2023-01-27T09:57:22.000Z</time>
      </trkpt>
      <trkpt lat="40.08066580630838871002197265625" lon="0.0449429266154766082763671875">
        <ele>391</ele>
        <time>2023-01-27T09:57:24.000Z</time>
      </trkpt>
      <trkpt lat="40.0806209631264209747314453125" lon="0.04486388526856899261474609375">
        <ele>390.20001220703125</ele>
        <time>2023-01-27T09:57:25.000Z</time>
      </trkpt>
      <trkpt lat="40.08047402836382389068603515625" lon="0.0446146912872791290283203125">
        <ele>389.20001220703125</ele>
        <time>2023-01-27T09:57:28.000Z</time>
      </trkpt>
      <trkpt lat="40.0804278440773487091064453125" lon="0.04451972432434558868408203125">
        <ele>388.600006103515625</ele>
        <time>2023-01-27T09:57:29.000Z</time>
      </trkpt>
      <trkpt lat="40.0803624652326107025146484375" lon="0.04434697329998016357421875">
        <ele>387.600006103515625</ele>
        <time>2023-01-27T09:57:31.000Z</time>
      </trkpt>
      <trkpt lat="40.08033572696149349212646484375" lon="0.0442703627049922943115234375">
        <ele>387</ele>
        <time>2023-01-27T09:57:32.000Z</time>
      </trkpt>
      <trkpt lat="40.08031996898353099822998046875" lon="0.04420372657477855682373046875">
        <ele>386.20001220703125</ele>
        <time>2023-01-27T09:57:33.000Z</time>
      </trkpt>
      <trkpt lat="40.0803104974329471588134765625" lon="0.04414270631968975067138671875">
        <ele>385.79998779296875</ele>
        <time>2023-01-27T09:57:34.000Z</time>
      </trkpt>
      <trkpt lat="40.080294907093048095703125" lon="0.04408705048263072967529296875">
        <ele>385.20001220703125</ele>
        <time>2023-01-27T09:57:35.000Z</time>
      </trkpt>
      <trkpt lat="40.08026548661291599273681640625" lon="0.04403675906360149383544921875">
        <ele>384.600006103515625</ele>
        <time>2023-01-27T09:57:36.000Z</time>
      </trkpt>
      <trkpt lat="40.08023279719054698944091796875" lon="0.04399032332003116607666015625">
        <ele>383.79998779296875</ele>
        <time>2023-01-27T09:57:37.000Z</time>
      </trkpt>
      <trkpt lat="40.08020035922527313232421875" lon="0.0439609028398990631103515625">
        <ele>382.79998779296875</ele>
        <time>2023-01-27T09:57:38.000Z</time>
      </trkpt>
      <trkpt lat="40.08015476167201995849609375" lon="0.04396031610667705535888671875">
        <ele>382.600006103515625</ele>
        <time>2023-01-27T09:57:39.000Z</time>
      </trkpt>
      <trkpt lat="40.08010840974748134613037109375" lon="0.04397188313305377960205078125">
        <ele>382.20001220703125</ele>
        <time>2023-01-27T09:57:40.000Z</time>
      </trkpt>
      <trkpt lat="40.08003414608538150787353515625" lon="0.0440204143524169921875">
        <ele>381.79998779296875</ele>
        <time>2023-01-27T09:57:42.000Z</time>
      </trkpt>
      <trkpt lat="40.0800017081201076507568359375" lon="0.0440497510135173797607421875">
        <ele>381.600006103515625</ele>
        <time>2023-01-27T09:57:43.000Z</time>
      </trkpt>
      <trkpt lat="40.0799651630222797393798828125" lon="0.04407481290400028228759765625">
        <ele>381.20001220703125</ele>
        <time>2023-01-27T09:57:44.000Z</time>
      </trkpt>
      <trkpt lat="40.07992677390575408935546875" lon="0.04409358836710453033447265625">
        <ele>381</ele>
        <time>2023-01-27T09:57:45.000Z</time>
      </trkpt>
      <trkpt lat="40.0798840261995792388916015625" lon="0.04410482011735439300537109375">
        <ele>380.79998779296875</ele>
        <time>2023-01-27T09:57:46.000Z</time>
      </trkpt>
      <trkpt lat="40.0798431225121021270751953125" lon="0.04411571659147739410400390625">
        <ele>380.399993896484375</ele>
        <time>2023-01-27T09:57:47.000Z</time>
      </trkpt>
      <trkpt lat="40.07975469343364238739013671875" lon="0.0441402755677700042724609375">
        <ele>380.20001220703125</ele>
        <time>2023-01-27T09:57:49.000Z</time>
      </trkpt>
      <trkpt lat="40.07967196404933929443359375" lon="0.04412761889398097991943359375">
        <ele>380.20001220703125</ele>
        <time>2023-01-27T09:57:51.000Z</time>
      </trkpt>
      <trkpt lat="40.07963349111378192901611328125" lon="0.044102557003498077392578125">
        <ele>380.79998779296875</ele>
        <time>2023-01-27T09:57:52.000Z</time>
      </trkpt>
      <trkpt lat="40.07961354218423366546630859375" lon="0.04407632164657115936279296875">
        <ele>381.399993896484375</ele>
        <time>2023-01-27T09:57:53.000Z</time>
      </trkpt>
      <trkpt lat="40.07958940230309963226318359375" lon="0.04403960891067981719970703125">
        <ele>381.399993896484375</ele>
        <time>2023-01-27T09:57:54.000Z</time>
      </trkpt>
      <trkpt lat="40.0795635022222995758056640625" lon="0.04399954341351985931396484375">
        <ele>381.600006103515625</ele>
        <time>2023-01-27T09:57:55.000Z</time>
      </trkpt>
      <trkpt lat="40.07954455912113189697265625" lon="0.04395394586026668548583984375">
        <ele>381.600006103515625</ele>
        <time>2023-01-27T09:57:56.000Z</time>
      </trkpt>
      <trkpt lat="40.07952704094350337982177734375" lon="0.04390197806060314178466796875">
        <ele>381.79998779296875</ele>
        <time>2023-01-27T09:57:57.000Z</time>
      </trkpt>
      <trkpt lat="40.0795014761388301849365234375" lon="0.043785385787487030029296875">
        <ele>382.20001220703125</ele>
        <time>2023-01-27T09:57:59.000Z</time>
      </trkpt>
      <trkpt lat="40.07946074008941650390625" lon="0.04359536804258823394775390625">
        <ele>382.399993896484375</ele>
        <time>2023-01-27T09:58:02.000Z</time>
      </trkpt>
      <trkpt lat="40.07941975258290767669677734375" lon="0.0434506125748157501220703125">
        <ele>382.399993896484375</ele>
        <time>2023-01-27T09:58:04.000Z</time>
      </trkpt>
      <trkpt lat="40.0793583132326602935791015625" lon="0.0431391410529613494873046875">
        <ele>382.399993896484375</ele>
        <time>2023-01-27T09:58:08.000Z</time>
      </trkpt>
      <trkpt lat="40.07931095547974109649658203125" lon="0.04290201701223850250244140625">
        <ele>382.20001220703125</ele>
        <time>2023-01-27T09:58:11.000Z</time>
      </trkpt>
      <trkpt lat="40.07925689220428466796875" lon="0.04268107004463672637939453125">
        <ele>381.399993896484375</ele>
        <time>2023-01-27T09:58:14.000Z</time>
      </trkpt>
      <trkpt lat="40.07917583920061588287353515625" lon="0.04255835898220539093017578125">
        <ele>380.600006103515625</ele>
        <time>2023-01-27T09:58:16.000Z</time>
      </trkpt>
      <trkpt lat="40.0791145674884319305419921875" lon="0.04252600483596324920654296875">
        <ele>380.20001220703125</ele>
        <time>2023-01-27T09:58:17.000Z</time>
      </trkpt>
      <trkpt lat="40.07905027829110622406005859375" lon="0.04251678474247455596923828125">
        <ele>380</ele>
        <time>2023-01-27T09:58:18.000Z</time>
      </trkpt>
      <trkpt lat="40.07898263633251190185546875" lon="0.0425286032259464263916015625">
        <ele>379.79998779296875</ele>
        <time>2023-01-27T09:58:19.000Z</time>
      </trkpt>
      <trkpt lat="40.0789117254316806793212890625" lon="0.0425631366670131683349609375">
        <ele>379.79998779296875</ele>
        <time>2023-01-27T09:58:20.000Z</time>
      </trkpt>
      <trkpt lat="40.07884844206273555755615234375" lon="0.0426109135150909423828125">
        <ele>379</ele>
        <time>2023-01-27T09:58:21.000Z</time>
      </trkpt>
      <trkpt lat="40.07879161275923252105712890625" lon="0.04266162402927875518798828125">
        <ele>378.600006103515625</ele>
        <time>2023-01-27T09:58:22.000Z</time>
      </trkpt>
      <trkpt lat="40.078734196722507476806640625" lon="0.04272289574146270751953125">
        <ele>378.20001220703125</ele>
        <time>2023-01-27T09:58:23.000Z</time>
      </trkpt>
      <trkpt lat="40.0786735117435455322265625" lon="0.0427904538810253143310546875">
        <ele>378</ele>
        <time>2023-01-27T09:58:24.000Z</time>
      </trkpt>
      <trkpt lat="40.078561864793300628662109375" lon="0.04294660873711109161376953125">
        <ele>376.79998779296875</ele>
        <time>2023-01-27T09:58:26.000Z</time>
      </trkpt>
      <trkpt lat="40.0785130821168422698974609375" lon="0.04303160123527050018310546875">
        <ele>376.20001220703125</ele>
        <time>2023-01-27T09:58:27.000Z</time>
      </trkpt>
      <trkpt lat="40.0784133374691009521484375" lon="0.04320393316447734832763671875">
        <ele>375.20001220703125</ele>
        <time>2023-01-27T09:58:29.000Z</time>
      </trkpt>
      <trkpt lat="40.0783612020313739776611328125" lon="0.04330418072640895843505859375">
        <ele>374.600006103515625</ele>
        <time>2023-01-27T09:58:30.000Z</time>
      </trkpt>
      <trkpt lat="40.07832792587578296661376953125" lon="0.04337056539952754974365234375">
        <ele>373.20001220703125</ele>
        <time>2023-01-27T09:58:31.000Z</time>
      </trkpt>
      <trkpt lat="40.0782874412834644317626953125" lon="0.04344440996646881103515625">
        <ele>372.600006103515625</ele>
        <time>2023-01-27T09:58:32.000Z</time>
      </trkpt>
      <trkpt lat="40.07823723368346691131591796875" lon="0.04350786097347736358642578125">
        <ele>371.600006103515625</ele>
        <time>2023-01-27T09:58:33.000Z</time>
      </trkpt>
      <trkpt lat="40.07818258367478847503662109375" lon="0.04357089288532733917236328125">
        <ele>371.20001220703125</ele>
        <time>2023-01-27T09:58:34.000Z</time>
      </trkpt>
      <trkpt lat="40.07812575437128543853759765625" lon="0.0436360202729701995849609375">
        <ele>370.79998779296875</ele>
        <time>2023-01-27T09:58:35.000Z</time>
      </trkpt>
      <trkpt lat="40.07807361893355846405029296875" lon="0.0436997227370738983154296875">
        <ele>370.20001220703125</ele>
        <time>2023-01-27T09:58:36.000Z</time>
      </trkpt>
      <trkpt lat="40.0780262611806392669677734375" lon="0.043753199279308319091796875">
        <ele>369.600006103515625</ele>
        <time>2023-01-27T09:58:37.000Z</time>
      </trkpt>
      <trkpt lat="40.07797018624842166900634765625" lon="0.043803155422210693359375">
        <ele>368.399993896484375</ele>
        <time>2023-01-27T09:58:38.000Z</time>
      </trkpt>
      <trkpt lat="40.07791637443006038665771484375" lon="0.04384280182421207427978515625">
        <ele>368</ele>
        <time>2023-01-27T09:58:39.000Z</time>
      </trkpt>
      <trkpt lat="40.07786407135426998138427734375" lon="0.04388152621686458587646484375">
        <ele>366.79998779296875</ele>
        <time>2023-01-27T09:58:40.000Z</time>
      </trkpt>
      <trkpt lat="40.07781964726746082305908203125" lon="0.04390499554574489593505859375">
        <ele>366.20001220703125</ele>
        <time>2023-01-27T09:58:41.000Z</time>
      </trkpt>
      <trkpt lat="40.077769272029399871826171875" lon="0.0439337454736232757568359375">
        <ele>365</ele>
        <time>2023-01-27T09:58:42.000Z</time>
      </trkpt>
      <trkpt lat="40.077660642564296722412109375" lon="0.0439729727804660797119140625">
        <ele>363.399993896484375</ele>
        <time>2023-01-27T09:58:44.000Z</time>
      </trkpt>
      <trkpt lat="40.07760398089885711669921875" lon="0.0439860485494136810302734375">
        <ele>363.20001220703125</ele>
        <time>2023-01-27T09:58:45.000Z</time>
      </trkpt>
      <trkpt lat="40.07754455320537090301513671875" lon="0.04398889839649200439453125">
        <ele>362.20001220703125</ele>
        <time>2023-01-27T09:58:46.000Z</time>
      </trkpt>
      <trkpt lat="40.07748587988317012786865234375" lon="0.04399216733872890472412109375">
        <ele>361.399993896484375</ele>
        <time>2023-01-27T09:58:47.000Z</time>
      </trkpt>
      <trkpt lat="40.0774341635406017303466796875" lon="0.04398353397846221923828125">
        <ele>360.600006103515625</ele>
        <time>2023-01-27T09:58:48.000Z</time>
      </trkpt>
      <trkpt lat="40.077384375035762786865234375" lon="0.043958723545074462890625">
        <ele>359.79998779296875</ele>
        <time>2023-01-27T09:58:49.000Z</time>
      </trkpt>
      <trkpt lat="40.0773308984935283660888671875" lon="0.0439310632646083831787109375">
        <ele>359.600006103515625</ele>
        <time>2023-01-27T09:58:50.000Z</time>
      </trkpt>
      <trkpt lat="40.07727205753326416015625" lon="0.0439119525253772735595703125">
        <ele>359</ele>
        <time>2023-01-27T09:58:51.000Z</time>
      </trkpt>
      <trkpt lat="40.07721631787717342376708984375" lon="0.0439022295176982879638671875">
        <ele>358.399993896484375</ele>
        <time>2023-01-27T09:58:52.000Z</time>
      </trkpt>
      <trkpt lat="40.07715797983109951019287109375" lon="0.04391673021018505096435546875">
        <ele>357.79998779296875</ele>
        <time>2023-01-27T09:58:53.000Z</time>
      </trkpt>
      <trkpt lat="40.077096708118915557861328125" lon="0.04394304938614368438720703125">
        <ele>357</ele>
        <time>2023-01-27T09:58:54.000Z</time>
      </trkpt>
      <trkpt lat="40.0770264677703380584716796875" lon="0.04398043267428874969482421875">
        <ele>356</ele>
        <time>2023-01-27T09:58:55.000Z</time>
      </trkpt>
      <trkpt lat="40.07696066983044147491455078125" lon="0.04401630721986293792724609375">
        <ele>355.600006103515625</ele>
        <time>2023-01-27T09:58:56.000Z</time>
      </trkpt>
      <trkpt lat="40.07689545862376689910888671875" lon="0.04405955784022808074951171875">
        <ele>355.20001220703125</ele>
        <time>2023-01-27T09:58:57.000Z</time>
      </trkpt>
      <trkpt lat="40.07682739757001399993896484375" lon="0.044108927249908447265625">
        <ele>354.600006103515625</ele>
        <time>2023-01-27T09:58:58.000Z</time>
      </trkpt>
      <trkpt lat="40.076748020946979522705078125" lon="0.04417665302753448486328125">
        <ele>353.79998779296875</ele>
        <time>2023-01-27T09:58:59.000Z</time>
      </trkpt>
      <trkpt lat="40.07662304677069187164306640625" lon="0.04430246539413928985595703125">
        <ele>353.20001220703125</ele>
        <time>2023-01-27T09:59:01.000Z</time>
      </trkpt>
      <trkpt lat="40.076403357088565826416015625" lon="0.04453112371265888214111328125">
        <ele>351.600006103515625</ele>
        <time>2023-01-27T09:59:04.000Z</time>
      </trkpt>
      <trkpt lat="40.0762365572154521942138671875" lon="0.0446857698261737823486328125">
        <ele>350.399993896484375</ele>
        <time>2023-01-27T09:59:06.000Z</time>
      </trkpt>
      <trkpt lat="40.07605676539242267608642578125" lon="0.04482013173401355743408203125">
        <ele>349.20001220703125</ele>
        <time>2023-01-27T09:59:08.000Z</time>
      </trkpt>
      <trkpt lat="40.0758442841470241546630859375" lon="0.0449256598949432373046875">
        <ele>347.79998779296875</ele>
        <time>2023-01-27T09:59:10.000Z</time>
      </trkpt>
      <trkpt lat="40.075631551444530487060546875" lon="0.04496564157307147979736328125">
        <ele>346.20001220703125</ele>
        <time>2023-01-27T09:59:12.000Z</time>
      </trkpt>
      <trkpt lat="40.075520910322666168212890625" lon="0.04497234709560871124267578125">
        <ele>346</ele>
        <time>2023-01-27T09:59:13.000Z</time>
      </trkpt>
      <trkpt lat="40.075321085751056671142578125" lon="0.04497569985687732696533203125">
        <ele>345</ele>
        <time>2023-01-27T09:59:15.000Z</time>
      </trkpt>
      <trkpt lat="40.075084380805492401123046875" lon="0.04497737623751163482666015625">
        <ele>343.20001220703125</ele>
        <time>2023-01-27T09:59:17.000Z</time>
      </trkpt>
      <trkpt lat="40.0749799422919750213623046875" lon="0.04497301764786243438720703125">
        <ele>342</ele>
        <time>2023-01-27T09:59:18.000Z</time>
      </trkpt>
      <trkpt lat="40.074875839054584503173828125" lon="0.0449734367430210113525390625">
        <ele>340.600006103515625</ele>
        <time>2023-01-27T09:59:19.000Z</time>
      </trkpt>
      <trkpt lat="40.07466436363756656646728515625" lon="0.04497553221881389617919921875">
        <ele>339.399993896484375</ele>
        <time>2023-01-27T09:59:21.000Z</time>
      </trkpt>
      <trkpt lat="40.07423512637615203857421875" lon="0.0449144281446933746337890625">
        <ele>338</ele>
        <time>2023-01-27T09:59:25.000Z</time>
      </trkpt>
      <trkpt lat="40.074126161634922027587890625" lon="0.04487059079110622406005859375">
        <ele>337.79998779296875</ele>
        <time>2023-01-27T09:59:26.000Z</time>
      </trkpt>
      <trkpt lat="40.07402264513075351715087890625" lon="0.0448141805827617645263671875">
        <ele>337</ele>
        <time>2023-01-27T09:59:27.000Z</time>
      </trkpt>
      <trkpt lat="40.073840506374835968017578125" lon="0.04469725303351879119873046875">
        <ele>335.399993896484375</ele>
        <time>2023-01-27T09:59:29.000Z</time>
      </trkpt>
      <trkpt lat="40.07362266071140766143798828125" lon="0.044530369341373443603515625">
        <ele>334</ele>
        <time>2023-01-27T09:59:31.000Z</time>
      </trkpt>
      <trkpt lat="40.073430128395557403564453125" lon="0.0443816743791103363037109375">
        <ele>332.79998779296875</ele>
        <time>2023-01-27T09:59:33.000Z</time>
      </trkpt>
      <trkpt lat="40.0733278691768646240234375" lon="0.0443209894001483917236328125">
        <ele>331.79998779296875</ele>
        <time>2023-01-27T09:59:34.000Z</time>
      </trkpt>
      <trkpt lat="40.0732432119548320770263671875" lon="0.04428327083587646484375">
        <ele>331.20001220703125</ele>
        <time>2023-01-27T09:59:35.000Z</time>
      </trkpt>
      <trkpt lat="40.0731159746646881103515625" lon="0.04424479790031909942626953125">
        <ele>329.79998779296875</ele>
        <time>2023-01-27T09:59:36.000Z</time>
      </trkpt>
      <trkpt lat="40.07289125584065914154052734375" lon="0.0442381761968135833740234375">
        <ele>328.399993896484375</ele>
        <time>2023-01-27T09:59:38.000Z</time>
      </trkpt>
      <trkpt lat="40.072549022734165191650390625" lon="0.044258795678615570068359375">
        <ele>327</ele>
        <time>2023-01-27T09:59:41.000Z</time>
      </trkpt>
      <trkpt lat="40.07243779487907886505126953125" lon="0.04426575265824794769287109375">
        <ele>325.79998779296875</ele>
        <time>2023-01-27T09:59:42.000Z</time>
      </trkpt>
      <trkpt lat="40.07222288288176059722900390625" lon="0.044285617768764495849609375">
        <ele>323.79998779296875</ele>
        <time>2023-01-27T09:59:44.000Z</time>
      </trkpt>
      <trkpt lat="40.072018615901470184326171875" lon="0.04438745789229869842529296875">
        <ele>322.20001220703125</ele>
        <time>2023-01-27T09:59:46.000Z</time>
      </trkpt>
      <trkpt lat="40.0719249062240123748779296875" lon="0.044457279145717620849609375">
        <ele>321.20001220703125</ele>
        <time>2023-01-27T09:59:47.000Z</time>
      </trkpt>
      <trkpt lat="40.07183932699263095855712890625" lon="0.04452793858945369720458984375">
        <ele>320.600006103515625</ele>
        <time>2023-01-27T09:59:48.000Z</time>
      </trkpt>
      <trkpt lat="40.0717576034367084503173828125" lon="0.04459507763385772705078125">
        <ele>319</ele>
        <time>2023-01-27T09:59:49.000Z</time>
      </trkpt>
      <trkpt lat="40.0716791488230228424072265625" lon="0.044649727642536163330078125">
        <ele>318.399993896484375</ele>
        <time>2023-01-27T09:59:50.000Z</time>
      </trkpt>
      <trkpt lat="40.07160195149481296539306640625" lon="0.04468233324587345123291015625">
        <ele>317.20001220703125</ele>
        <time>2023-01-27T09:59:51.000Z</time>
      </trkpt>
      <trkpt lat="40.071525089442729949951171875" lon="0.04468199796974658966064453125">
        <ele>316.600006103515625</ele>
        <time>2023-01-27T09:59:52.000Z</time>
      </trkpt>
      <trkpt lat="40.07145769894123077392578125" lon="0.04464344121515750885009765625">
        <ele>315.79998779296875</ele>
        <time>2023-01-27T09:59:53.000Z</time>
      </trkpt>
      <trkpt lat="40.07141939364373683929443359375" lon="0.044585354626178741455078125">
        <ele>315</ele>
        <time>2023-01-27T09:59:54.000Z</time>
      </trkpt>
      <trkpt lat="40.07139089517295360565185546875" lon="0.04447580315172672271728515625">
        <ele>314</ele>
        <time>2023-01-27T09:59:55.000Z</time>
      </trkpt>
      <trkpt lat="40.07141017355024814605712890625" lon="0.044377483427524566650390625">
        <ele>313.600006103515625</ele>
        <time>2023-01-27T09:59:56.000Z</time>
      </trkpt>
      <trkpt lat="40.071463398635387420654296875" lon="0.04429559223353862762451171875">
        <ele>312.79998779296875</ele>
        <time>2023-01-27T09:59:57.000Z</time>
      </trkpt>
      <trkpt lat="40.07152517326176166534423828125" lon="0.04424479790031909942626953125">
        <ele>312.399993896484375</ele>
        <time>2023-01-27T09:59:58.000Z</time>
      </trkpt>
      <trkpt lat="40.07172298617660999298095703125" lon="0.04414823837578296661376953125">
        <ele>311</ele>
        <time>2023-01-27T10:00:00.000Z</time>
      </trkpt>
      <trkpt lat="40.07191962562501430511474609375" lon="0.04407112486660480499267578125">
        <ele>309.399993896484375</ele>
        <time>2023-01-27T10:00:02.000Z</time>
      </trkpt>
      <trkpt lat="40.07202071137726306915283203125" lon="0.04404388368129730224609375">
        <ele>309.20001220703125</ele>
        <time>2023-01-27T10:00:03.000Z</time>
      </trkpt>
      <trkpt lat="40.07212732918560504913330078125" lon="0.0440282933413982391357421875">
        <ele>308.399993896484375</ele>
        <time>2023-01-27T10:00:04.000Z</time>
      </trkpt>
      <trkpt lat="40.07223998196423053741455078125" lon="0.04402100108563899993896484375">
        <ele>307.79998779296875</ele>
        <time>2023-01-27T10:00:05.000Z</time>
      </trkpt>
      <trkpt lat="40.0723450072109699249267578125" lon="0.0440085120499134063720703125">
        <ele>307</ele>
        <time>2023-01-27T10:00:06.000Z</time>
      </trkpt>
      <trkpt lat="40.07255631498992443084716796875" lon="0.04396836273372173309326171875">
        <ele>306</ele>
        <time>2023-01-27T10:00:08.000Z</time>
      </trkpt>
      <trkpt lat="40.072655975818634033203125" lon="0.0439256988465785980224609375">
        <ele>305.600006103515625</ele>
        <time>2023-01-27T10:00:09.000Z</time>
      </trkpt>
      <trkpt lat="40.0728613324463367462158203125" lon="0.0438227690756320953369140625">
        <ele>304.600006103515625</ele>
        <time>2023-01-27T10:00:11.000Z</time>
      </trkpt>
      <trkpt lat="40.07295395247638225555419921875" lon="0.04375278018414974212646484375">
        <ele>304.399993896484375</ele>
        <time>2023-01-27T10:00:12.000Z</time>
      </trkpt>
      <trkpt lat="40.07302452810108661651611328125" lon="0.0436863116919994354248046875">
        <ele>304</ele>
        <time>2023-01-27T10:00:13.000Z</time>
      </trkpt>
      <trkpt lat="40.073129050433635711669921875" lon="0.04358665086328983306884765625">
        <ele>303</ele>
        <time>2023-01-27T10:00:14.000Z</time>
      </trkpt>
      <trkpt lat="40.07331781089305877685546875" lon="0.0434469245374202728271484375">
        <ele>302</ele>
        <time>2023-01-27T10:00:16.000Z</time>
      </trkpt>
      <trkpt lat="40.073417387902736663818359375" lon="0.0434133969247341156005859375">
        <ele>301</ele>
        <time>2023-01-27T10:00:17.000Z</time>
      </trkpt>
      <trkpt lat="40.07349810563027858734130859375" lon="0.0434150733053684234619140625">
        <ele>300.600006103515625</ele>
        <time>2023-01-27T10:00:18.000Z</time>
      </trkpt>
      <trkpt lat="40.07361394353210926055908203125" lon="0.04345689900219440460205078125">
        <ele>299.79998779296875</ele>
        <time>2023-01-27T10:00:19.000Z</time>
      </trkpt>
      <trkpt lat="40.07370849139988422393798828125" lon="0.04351339302957057952880859375">
        <ele>299.399993896484375</ele>
        <time>2023-01-27T10:00:20.000Z</time>
      </trkpt>
      <trkpt lat="40.07380169816315174102783203125" lon="0.04357357509434223175048828125">
        <ele>298.600006103515625</ele>
        <time>2023-01-27T10:00:21.000Z</time>
      </trkpt>
      <trkpt lat="40.0738785602152347564697265625" lon="0.04361531697213649749755859375">
        <ele>298</ele>
        <time>2023-01-27T10:00:22.000Z</time>
      </trkpt>
      <trkpt lat="40.0740746967494487762451171875" lon="0.0436531193554401397705078125">
        <ele>296.600006103515625</ele>
        <time>2023-01-27T10:00:24.000Z</time>
      </trkpt>
      <trkpt lat="40.07416781969368457794189453125" lon="0.04362705163657665252685546875">
        <ele>296</ele>
        <time>2023-01-27T10:00:25.000Z</time>
      </trkpt>
      <trkpt lat="40.07424778304994106292724609375" lon="0.043567456305027008056640625">
        <ele>295.79998779296875</ele>
        <time>2023-01-27T10:00:26.000Z</time>
      </trkpt>
      <trkpt lat="40.07431249134242534637451171875" lon="0.04348573274910449981689453125">
        <ele>295</ele>
        <time>2023-01-27T10:00:27.000Z</time>
      </trkpt>
      <trkpt lat="40.07435859180986881256103515625" lon="0.0433845631778240203857421875">
        <ele>294.20001220703125</ele>
        <time>2023-01-27T10:00:28.000Z</time>
      </trkpt>
      <trkpt lat="40.07441625930368900299072265625" lon="0.04325623624026775360107421875">
        <ele>293.79998779296875</ele>
        <time>2023-01-27T10:00:29.000Z</time>
      </trkpt>
      <trkpt lat="40.0744770281016826629638671875" lon="0.04315414465963840484619140625">
        <ele>293</ele>
        <time>2023-01-27T10:00:30.000Z</time>
      </trkpt>
      <trkpt lat="40.07454919628798961639404296875" lon="0.04306848160922527313232421875">
        <ele>292.600006103515625</ele>
        <time>2023-01-27T10:00:31.000Z</time>
      </trkpt>
      <trkpt lat="40.07461641915142536163330078125" lon="0.043016262352466583251953125">
        <ele>292</ele>
        <time>2023-01-27T10:00:32.000Z</time>
      </trkpt>
      <trkpt lat="40.07470962591469287872314453125" lon="0.04297041334211826324462890625">
        <ele>291.79998779296875</ele>
        <time>2023-01-27T10:00:33.000Z</time>
      </trkpt>
      <trkpt lat="40.0748297385871410369873046875" lon="0.04294225014746189117431640625">
        <ele>291</ele>
        <time>2023-01-27T10:00:34.000Z</time>
      </trkpt>
      <trkpt lat="40.074931494891643524169921875" lon="0.04293747246265411376953125">
        <ele>290.600006103515625</ele>
        <time>2023-01-27T10:00:35.000Z</time>
      </trkpt>
      <trkpt lat="40.075036771595478057861328125" lon="0.042939148843288421630859375">
        <ele>290</ele>
        <time>2023-01-27T10:00:36.000Z</time>
      </trkpt>
      <trkpt lat="40.07514112628996372222900390625" lon="0.04293990321457386016845703125">
        <ele>289.79998779296875</ele>
        <time>2023-01-27T10:00:37.000Z</time>
      </trkpt>
      <trkpt lat="40.075249336659908294677734375" lon="0.04294526763260364532470703125">
        <ele>288.79998779296875</ele>
        <time>2023-01-27T10:00:38.000Z</time>
      </trkpt>
      <trkpt lat="40.0754670985043048858642578125" lon="0.04295029677450656890869140625">
        <ele>287.79998779296875</ele>
        <time>2023-01-27T10:00:40.000Z</time>
      </trkpt>
      <trkpt lat="40.07556038908660411834716796875" lon="0.04293252713978290557861328125">
        <ele>287.399993896484375</ele>
        <time>2023-01-27T10:00:41.000Z</time>
      </trkpt>
      <trkpt lat="40.07564823143184185028076171875" lon="0.04288441501557826995849609375">
        <ele>286.600006103515625</ele>
        <time>2023-01-27T10:00:42.000Z</time>
      </trkpt>
      <trkpt lat="40.07572115398943424224853515625" lon="0.04280193708837032318115234375">
        <ele>285.399993896484375</ele>
        <time>2023-01-27T10:00:43.000Z</time>
      </trkpt>
      <trkpt lat="40.075765661895275115966796875" lon="0.04269699566066265106201171875">
        <ele>285</ele>
        <time>2023-01-27T10:00:44.000Z</time>
      </trkpt>
      <trkpt lat="40.07577597163617610931396484375" lon="0.042602531611919403076171875">
        <ele>284</ele>
        <time>2023-01-27T10:00:45.000Z</time>
      </trkpt>
      <trkpt lat="40.0757604651153087615966796875" lon="0.042491219937801361083984375">
        <ele>283.600006103515625</ele>
        <time>2023-01-27T10:00:46.000Z</time>
      </trkpt>
      <trkpt lat="40.075714699923992156982421875" lon="0.0423871167004108428955078125">
        <ele>282.600006103515625</ele>
        <time>2023-01-27T10:00:47.000Z</time>
      </trkpt>
      <trkpt lat="40.07556910626590251922607421875" lon="0.04221788607537746429443359375">
        <ele>281.20001220703125</ele>
        <time>2023-01-27T10:00:49.000Z</time>
      </trkpt>
      <trkpt lat="40.075467936694622039794921875" lon="0.04219475202262401580810546875">
        <ele>280.600006103515625</ele>
        <time>2023-01-27T10:00:50.000Z</time>
      </trkpt>
      <trkpt lat="40.0753556191921234130859375" lon="0.0421963445842266082763671875">
        <ele>279.20001220703125</ele>
        <time>2023-01-27T10:00:51.000Z</time>
      </trkpt>
      <trkpt lat="40.0751019828021526336669921875" lon="0.04222911782562732696533203125">
        <ele>278.20001220703125</ele>
        <time>2023-01-27T10:00:53.000Z</time>
      </trkpt>
      <trkpt lat="40.074987821280956268310546875" lon="0.04224671982228755950927734375">
        <ele>278</ele>
        <time>2023-01-27T10:00:54.000Z</time>
      </trkpt>
      <trkpt lat="40.074753463268280029296875" lon="0.04228007979691028594970703125">
        <ele>276.600006103515625</ele>
        <time>2023-01-27T10:00:56.000Z</time>
      </trkpt>
      <trkpt lat="40.0745135731995105743408203125" lon="0.04231654107570648193359375">
        <ele>274.600006103515625</ele>
        <time>2023-01-27T10:00:58.000Z</time>
      </trkpt>
      <trkpt lat="40.07439605891704559326171875" lon="0.04233657382428646087646484375">
        <ele>274</ele>
        <time>2023-01-27T10:00:59.000Z</time>
      </trkpt>
      <trkpt lat="40.07430293597280979156494140625" lon="0.04234931431710720062255859375">
        <ele>272.79998779296875</ele>
        <time>2023-01-27T10:01:00.000Z</time>
      </trkpt>
      <trkpt lat="40.074190199375152587890625" lon="0.04236792214214801788330078125">
        <ele>272.399993896484375</ele>
        <time>2023-01-27T10:01:01.000Z</time>
      </trkpt>
      <trkpt lat="40.07406488992273807525634765625" lon="0.04237965680658817291259765625">
        <ele>271.79998779296875</ele>
        <time>2023-01-27T10:01:02.000Z</time>
      </trkpt>
      <trkpt lat="40.0738510675728321075439453125" lon="0.0423499010503292083740234375">
        <ele>270.399993896484375</ele>
        <time>2023-01-27T10:01:04.000Z</time>
      </trkpt>
      <trkpt lat="40.07375140674412250518798828125" lon="0.042308159172534942626953125">
        <ele>270</ele>
        <time>2023-01-27T10:01:05.000Z</time>
      </trkpt>
      <trkpt lat="40.07365903817117214202880859375" lon="0.04223481751978397369384765625">
        <ele>269.20001220703125</ele>
        <time>2023-01-27T10:01:06.000Z</time>
      </trkpt>
      <trkpt lat="40.0735717825591564178466796875" lon="0.0421259365975856781005859375">
        <ele>269</ele>
        <time>2023-01-27T10:01:07.000Z</time>
      </trkpt>
      <trkpt lat="40.07349575869739055633544921875" lon="0.04199978895485401153564453125">
        <ele>268</ele>
        <time>2023-01-27T10:01:08.000Z</time>
      </trkpt>
      <trkpt lat="40.07341378368437290191650390625" lon="0.04189283587038516998291015625">
        <ele>267.600006103515625</ele>
        <time>2023-01-27T10:01:09.000Z</time>
      </trkpt>
      <trkpt lat="40.0733129493892192840576171875" lon="0.04180348478257656097412109375">
        <ele>266.399993896484375</ele>
        <time>2023-01-27T10:01:10.000Z</time>
      </trkpt>
      <trkpt lat="40.07320021279156208038330078125" lon="0.04176006652414798736572265625">
        <ele>266</ele>
        <time>2023-01-27T10:01:11.000Z</time>
      </trkpt>
      <trkpt lat="40.07308001630008220672607421875" lon="0.0417594797909259796142578125">
        <ele>265</ele>
        <time>2023-01-27T10:01:12.000Z</time>
      </trkpt>
      <trkpt lat="40.0729656033217906951904296875" lon="0.0417799316346645355224609375">
        <ele>263.600006103515625</ele>
        <time>2023-01-27T10:01:13.000Z</time>
      </trkpt>
      <trkpt lat="40.0728455744683742523193359375" lon="0.04180901683866977691650390625">
        <ele>263.20001220703125</ele>
        <time>2023-01-27T10:01:14.000Z</time>
      </trkpt>
      <trkpt lat="40.07274775765836238861083984375" lon="0.0418223440647125244140625">
        <ele>262.20001220703125</ele>
        <time>2023-01-27T10:01:15.000Z</time>
      </trkpt>
      <trkpt lat="40.0726095400750637054443359375" lon="0.04178990609943866729736328125">
        <ele>261.399993896484375</ele>
        <time>2023-01-27T10:01:16.000Z</time>
      </trkpt>
      <trkpt lat="40.072500072419643402099609375" lon="0.041745565831661224365234375">
        <ele>259.79998779296875</ele>
        <time>2023-01-27T10:01:17.000Z</time>
      </trkpt>
      <trkpt lat="40.07239337079226970672607421875" lon="0.041675157845020294189453125">
        <ele>259</ele>
        <time>2023-01-27T10:01:18.000Z</time>
      </trkpt>
      <trkpt lat="40.07231441326439380645751953125" lon="0.04160567186772823333740234375">
        <ele>257.399993896484375</ele>
        <time>2023-01-27T10:01:19.000Z</time>
      </trkpt>
      <trkpt lat="40.07221885956823825836181640625" lon="0.0415217690169811248779296875">
        <ele>256.600006103515625</ele>
        <time>2023-01-27T10:01:20.000Z</time>
      </trkpt>
      <trkpt lat="40.0720969028770923614501953125" lon="0.04144608043134212493896484375">
        <ele>255.1999969482421875</ele>
        <time>2023-01-27T10:01:21.000Z</time>
      </trkpt>
      <trkpt lat="40.07200109772384166717529296875" lon="0.041415989398956298828125">
        <ele>254.399993896484375</ele>
        <time>2023-01-27T10:01:22.000Z</time>
      </trkpt>
      <trkpt lat="40.0719158537685871124267578125" lon="0.04140685312449932098388671875">
        <ele>253</ele>
        <time>2023-01-27T10:01:23.000Z</time>
      </trkpt>
      <trkpt lat="40.0718553364276885986328125" lon="0.0414218567311763763427734375">
        <ele>252.600006103515625</ele>
        <time>2023-01-27T10:01:24.000Z</time>
      </trkpt>
      <trkpt lat="40.0717874430119991302490234375" lon="0.04147592000663280487060546875">
        <ele>251.1999969482421875</ele>
        <time>2023-01-27T10:01:25.000Z</time>
      </trkpt>
      <trkpt lat="40.07173907943069934844970703125" lon="0.0415851362049579620361328125">
        <ele>249.8000030517578125</ele>
        <time>2023-01-27T10:01:26.000Z</time>
      </trkpt>
      <trkpt lat="40.071728937327861785888671875" lon="0.04169552586972713470458984375">
        <ele>249.1999969482421875</ele>
        <time>2023-01-27T10:01:27.000Z</time>
      </trkpt>
      <trkpt lat="40.07174142636358737945556640625" lon="0.04181019030511379241943359375">
        <ele>248</ele>
        <time>2023-01-27T10:01:28.000Z</time>
      </trkpt>
      <trkpt lat="40.07177344523370265960693359375" lon="0.041925609111785888671875">
        <ele>247.600006103515625</ele>
        <time>2023-01-27T10:01:29.000Z</time>
      </trkpt>
      <trkpt lat="40.07180479355156421661376953125" lon="0.04202292300760746002197265625">
        <ele>246.8000030517578125</ele>
        <time>2023-01-27T10:01:30.000Z</time>
      </trkpt>
      <trkpt lat="40.071840584278106689453125" lon="0.04216633737087249755859375">
        <ele>246.600006103515625</ele>
        <time>2023-01-27T10:01:31.000Z</time>
      </trkpt>
      <trkpt lat="40.0718521513044834136962890625" lon="0.0422892160713672637939453125">
        <ele>245.8000030517578125</ele>
        <time>2023-01-27T10:01:32.000Z</time>
      </trkpt>
      <trkpt lat="40.07183781825006008148193359375" lon="0.04240815527737140655517578125">
        <ele>245.399993896484375</ele>
        <time>2023-01-27T10:01:33.000Z</time>
      </trkpt>
      <trkpt lat="40.07180881686508655548095703125" lon="0.0424890406429767608642578125">
        <ele>244.8000030517578125</ele>
        <time>2023-01-27T10:01:34.000Z</time>
      </trkpt>
      <trkpt lat="40.07175886072218418121337890625" lon="0.04257629625499248504638671875">
        <ele>244.399993896484375</ele>
        <time>2023-01-27T10:01:35.000Z</time>
      </trkpt>
      <trkpt lat="40.07167738862335681915283203125" lon="0.0426493026316165924072265625">
        <ele>244</ele>
        <time>2023-01-27T10:01:36.000Z</time>
      </trkpt>
      <trkpt lat="40.071593485772609710693359375" lon="0.04267989657819271087646484375">
        <ele>243.600006103515625</ele>
        <time>2023-01-27T10:01:37.000Z</time>
      </trkpt>
      <trkpt lat="40.07143565453588962554931640625" lon="0.04263044334948062896728515625">
        <ele>242.8000030517578125</ele>
        <time>2023-01-27T10:01:39.000Z</time>
      </trkpt>
      <trkpt lat="40.07136826403439044952392578125" lon="0.042543523013591766357421875">
        <ele>242.399993896484375</ele>
        <time>2023-01-27T10:01:40.000Z</time>
      </trkpt>
      <trkpt lat="40.07132015191018581390380859375" lon="0.04243246279656887054443359375">
        <ele>241.399993896484375</ele>
        <time>2023-01-27T10:01:41.000Z</time>
      </trkpt>
      <trkpt lat="40.07129416801035404205322265625" lon="0.0423024594783782958984375">
        <ele>241.1999969482421875</ele>
        <time>2023-01-27T10:01:42.000Z</time>
      </trkpt>
      <trkpt lat="40.07126550190150737762451171875" lon="0.0420347414910793304443359375">
        <ele>240</ele>
        <time>2023-01-27T10:01:44.000Z</time>
      </trkpt>
      <trkpt lat="40.07123180665075778961181640625" lon="0.04190658219158649444580078125">
        <ele>239</ele>
        <time>2023-01-27T10:01:45.000Z</time>
      </trkpt>
      <trkpt lat="40.071190483868122100830078125" lon="0.0417792610824108123779296875">
        <ele>238.600006103515625</ele>
        <time>2023-01-27T10:01:46.000Z</time>
      </trkpt>
      <trkpt lat="40.07116508670151233673095703125" lon="0.04164741374552249908447265625">
        <ele>237.600006103515625</ele>
        <time>2023-01-27T10:01:47.000Z</time>
      </trkpt>
      <trkpt lat="40.071205906569957733154296875" lon="0.04137785173952579498291015625">
        <ele>236.399993896484375</ele>
        <time>2023-01-27T10:01:49.000Z</time>
      </trkpt>
      <trkpt lat="40.071256868541240692138671875" lon="0.0412944518029689788818359375">
        <ele>236</ele>
        <time>2023-01-27T10:01:50.000Z</time>
      </trkpt>
      <trkpt lat="40.07134865038096904754638671875" lon="0.041207112371921539306640625">
        <ele>235.1999969482421875</ele>
        <time>2023-01-27T10:01:51.000Z</time>
      </trkpt>
      <trkpt lat="40.07153422571718692779541015625" lon="0.0411008298397064208984375">
        <ele>233.8000030517578125</ele>
        <time>2023-01-27T10:01:53.000Z</time>
      </trkpt>
      <trkpt lat="40.0716298632323741912841796875" lon="0.0410533882677555084228515625">
        <ele>233.399993896484375</ele>
        <time>2023-01-27T10:01:54.000Z</time>
      </trkpt>
      <trkpt lat="40.07172818295657634735107421875" lon="0.0410123169422149658203125">
        <ele>232.8000030517578125</ele>
        <time>2023-01-27T10:01:55.000Z</time>
      </trkpt>
      <trkpt lat="40.07193555124104022979736328125" lon="0.04094727337360382080078125">
        <ele>231.399993896484375</ele>
        <time>2023-01-27T10:01:57.000Z</time>
      </trkpt>
      <trkpt lat="40.07211844436824321746826171875" lon="0.04097049124538898468017578125">
        <ele>230</ele>
        <time>2023-01-27T10:01:59.000Z</time>
      </trkpt>
      <trkpt lat="40.07245757617056369781494140625" lon="0.0410714931786060333251953125">
        <ele>228.399993896484375</ele>
        <time>2023-01-27T10:02:02.000Z</time>
      </trkpt>
      <trkpt lat="40.07263644598424434661865234375" lon="0.04106101579964160919189453125">
        <ele>227</ele>
        <time>2023-01-27T10:02:04.000Z</time>
      </trkpt>
      <trkpt lat="40.07272814400494098663330078125" lon="0.04098926670849323272705078125">
        <ele>226.600006103515625</ele>
        <time>2023-01-27T10:02:05.000Z</time>
      </trkpt>
      <trkpt lat="40.0727798603475093841552734375" lon="0.0408974848687648773193359375">
        <ele>225.600006103515625</ele>
        <time>2023-01-27T10:02:06.000Z</time>
      </trkpt>
      <trkpt lat="40.07280550897121429443359375" lon="0.04078592173755168914794921875">
        <ele>225</ele>
        <time>2023-01-27T10:02:07.000Z</time>
      </trkpt>
      <trkpt lat="40.07279838435351848602294921875" lon="0.04068709909915924072265625">
        <ele>224.399993896484375</ele>
        <time>2023-01-27T10:02:08.000Z</time>
      </trkpt>
      <trkpt lat="40.07268237881362438201904296875" lon="0.04046103917062282562255859375">
        <ele>222.8000030517578125</ele>
        <time>2023-01-27T10:02:10.000Z</time>
      </trkpt>
      <trkpt lat="40.07250082679092884063720703125" lon="0.0404177047312259674072265625">
        <ele>221.8000030517578125</ele>
        <time>2023-01-27T10:02:12.000Z</time>
      </trkpt>
      <trkpt lat="40.07242790423333644866943359375" lon="0.04044930450618267059326171875">
        <ele>221</ele>
        <time>2023-01-27T10:02:13.000Z</time>
      </trkpt>
      <trkpt lat="40.07233142852783203125" lon="0.0405241549015045166015625">
        <ele>220.600006103515625</ele>
        <time>2023-01-27T10:02:14.000Z</time>
      </trkpt>
      <trkpt lat="40.07225029170513153076171875" lon="0.040588192641735076904296875">
        <ele>219.8000030517578125</ele>
        <time>2023-01-27T10:02:15.000Z</time>
      </trkpt>
      <trkpt lat="40.072160772979259490966796875" lon="0.04062867723405361175537109375">
        <ele>219</ele>
        <time>2023-01-27T10:02:16.000Z</time>
      </trkpt>
      <trkpt lat="40.07207821123301982879638671875" lon="0.04063990898430347442626953125">
        <ele>218</ele>
        <time>2023-01-27T10:02:17.000Z</time>
      </trkpt>
      <trkpt lat="40.0719974935054779052734375" lon="0.04061040468513965606689453125">
        <ele>217.1999969482421875</ele>
        <time>2023-01-27T10:02:18.000Z</time>
      </trkpt>
      <trkpt lat="40.07193136028945446014404296875" lon="0.04054787568747997283935546875">
        <ele>216.399993896484375</ele>
        <time>2023-01-27T10:02:19.000Z</time>
      </trkpt>
      <trkpt lat="40.07190152071416378021240234375" lon="0.04045215435326099395751953125">
        <ele>216</ele>
        <time>2023-01-27T10:02:20.000Z</time>
      </trkpt>
      <trkpt lat="40.07189087569713592529296875" lon="0.040343441069126129150390625">
        <ele>214.8000030517578125</ele>
        <time>2023-01-27T10:02:21.000Z</time>
      </trkpt>
      <trkpt lat="40.07191501557826995849609375" lon="0.0402612984180450439453125">
        <ele>214.399993896484375</ele>
        <time>2023-01-27T10:02:22.000Z</time>
      </trkpt>
      <trkpt lat="40.07195927202701568603515625" lon="0.04020052962005138397216796875">
        <ele>212.8000030517578125</ele>
        <time>2023-01-27T10:02:23.000Z</time>
      </trkpt>
      <trkpt lat="40.07202909328043460845947265625" lon="0.040175132453441619873046875">
        <ele>211.399993896484375</ele>
        <time>2023-01-27T10:02:24.000Z</time>
      </trkpt>
      <trkpt lat="40.07211324758827686309814453125" lon="0.04016364924609661102294921875">
        <ele>211</ele>
        <time>2023-01-27T10:02:25.000Z</time>
      </trkpt>
      <trkpt lat="40.072205699980258941650390625" lon="0.0401706062257289886474609375">
        <ele>210.1999969482421875</ele>
        <time>2023-01-27T10:02:26.000Z</time>
      </trkpt>
      <trkpt lat="40.07231625728309154510498046875" lon="0.040185190737247467041015625">
        <ele>210</ele>
        <time>2023-01-27T10:02:27.000Z</time>
      </trkpt>
      <trkpt lat="40.072405524551868438720703125" lon="0.04016934894025325775146484375">
        <ele>209.399993896484375</ele>
        <time>2023-01-27T10:02:28.000Z</time>
      </trkpt>
      <trkpt lat="40.0724858231842517852783203125" lon="0.04011989571154117584228515625">
        <ele>209</ele>
        <time>2023-01-27T10:02:29.000Z</time>
      </trkpt>
      <trkpt lat="40.0725381262600421905517578125" lon="0.04004060290753841400146484375">
        <ele>207.8000030517578125</ele>
        <time>2023-01-27T10:02:30.000Z</time>
      </trkpt>
      <trkpt lat="40.072564445436000823974609375" lon="0.0399396009743213653564453125">
        <ele>207.600006103515625</ele>
        <time>2023-01-27T10:02:31.000Z</time>
      </trkpt>
      <trkpt lat="40.0725622661411762237548828125" lon="0.03983440808951854705810546875">
        <ele>206.600006103515625</ele>
        <time>2023-01-27T10:02:32.000Z</time>
      </trkpt>
      <trkpt lat="40.0725366175174713134765625" lon="0.0397324003279209136962890625">
        <ele>206</ele>
        <time>2023-01-27T10:02:33.000Z</time>
      </trkpt>
      <trkpt lat="40.07248657755553722381591796875" lon="0.0396556220948696136474609375">
        <ele>205.1999969482421875</ele>
        <time>2023-01-27T10:02:34.000Z</time>
      </trkpt>
      <trkpt lat="40.072397477924823760986328125" lon="0.0396153889596462249755859375">
        <ele>205</ele>
        <time>2023-01-27T10:02:35.000Z</time>
      </trkpt>
      <trkpt lat="40.072316341102123260498046875" lon="0.039625950157642364501953125">
        <ele>204</ele>
        <time>2023-01-27T10:02:36.000Z</time>
      </trkpt>
      <trkpt lat="40.0721609406173229217529296875" lon="0.039686299860477447509765625">
        <ele>202.8000030517578125</ele>
        <time>2023-01-27T10:02:38.000Z</time>
      </trkpt>
      <trkpt lat="40.07206882350146770477294921875" lon="0.039723180234432220458984375">
        <ele>201.8000030517578125</ele>
        <time>2023-01-27T10:02:39.000Z</time>
      </trkpt>
      <trkpt lat="40.0719765387475490570068359375" lon="0.03976467065513134002685546875">
        <ele>201.399993896484375</ele>
        <time>2023-01-27T10:02:40.000Z</time>
      </trkpt>
      <trkpt lat="40.071863718330860137939453125" lon="0.03982032649219036102294921875">
        <ele>200.399993896484375</ele>
        <time>2023-01-27T10:02:41.000Z</time>
      </trkpt>
      <trkpt lat="40.07169515825808048248291015625" lon="0.03992912359535694122314453125">
        <ele>199.399993896484375</ele>
        <time>2023-01-27T10:02:43.000Z</time>
      </trkpt>
      <trkpt lat="40.0715034641325473785400390625" lon="0.04012425430119037628173828125">
        <ele>198.1999969482421875</ele>
        <time>2023-01-27T10:02:45.000Z</time>
      </trkpt>
      <trkpt lat="40.07143733091652393341064453125" lon="0.0402051396667957305908203125">
        <ele>197.8000030517578125</ele>
        <time>2023-01-27T10:02:46.000Z</time>
      </trkpt>
      <trkpt lat="40.0713499076664447784423828125" lon="0.04029951989650726318359375">
        <ele>197</ele>
        <time>2023-01-27T10:02:47.000Z</time>
      </trkpt>
      <trkpt lat="40.07112242281436920166015625" lon="0.04044192843139171600341796875">
        <ele>195.8000030517578125</ele>
        <time>2023-01-27T10:02:49.000Z</time>
      </trkpt>
      <trkpt lat="40.07103835232555866241455078125" lon="0.04046238027513027191162109375">
        <ele>195.1999969482421875</ele>
        <time>2023-01-27T10:02:50.000Z</time>
      </trkpt>
      <trkpt lat="40.07092972286045551300048828125" lon="0.040458776056766510009765625">
        <ele>193.8000030517578125</ele>
        <time>2023-01-27T10:02:51.000Z</time>
      </trkpt>
      <trkpt lat="40.07081153802573680877685546875" lon="0.04044041968882083892822265625">
        <ele>192.8000030517578125</ele>
        <time>2023-01-27T10:02:52.000Z</time>
      </trkpt>
      <trkpt lat="40.070692934095859527587890625" lon="0.0404254160821437835693359375">
        <ele>190.8000030517578125</ele>
        <time>2023-01-27T10:02:53.000Z</time>
      </trkpt>
      <trkpt lat="40.07057365961372852325439453125" lon="0.040412843227386474609375">
        <ele>189.600006103515625</ele>
        <time>2023-01-27T10:02:54.000Z</time>
      </trkpt>
      <trkpt lat="40.07032580673694610595703125" lon="0.04038878716528415679931640625">
        <ele>187.8000030517578125</ele>
        <time>2023-01-27T10:02:56.000Z</time>
      </trkpt>
      <trkpt lat="40.07007502019405364990234375" lon="0.040397085249423980712890625">
        <ele>185.600006103515625</ele>
        <time>2023-01-27T10:02:58.000Z</time>
      </trkpt>
      <trkpt lat="40.069821886718273162841796875" lon="0.040443353354930877685546875">
        <ele>183.1999969482421875</ele>
        <time>2023-01-27T10:03:00.000Z</time>
      </trkpt>
      <trkpt lat="40.0696654804050922393798828125" lon="0.0404730252921581268310546875">
        <ele>182.1999969482421875</ele>
        <time>2023-01-27T10:03:01.000Z</time>
      </trkpt>
      <trkpt lat="40.0695323757827281951904296875" lon="0.0404877774417400360107421875">
        <ele>180.600006103515625</ele>
        <time>2023-01-27T10:03:02.000Z</time>
      </trkpt>
      <trkpt lat="40.06926105357706546783447265625" lon="0.04046581685543060302734375">
        <ele>178.8000030517578125</ele>
        <time>2023-01-27T10:03:04.000Z</time>
      </trkpt>
      <trkpt lat="40.0691307149827480316162109375" lon="0.04043471999466419219970703125">
        <ele>177.8000030517578125</ele>
        <time>2023-01-27T10:03:05.000Z</time>
      </trkpt>
      <trkpt lat="40.06900020875036716461181640625" lon="0.040389038622379302978515625">
        <ele>176.1999969482421875</ele>
        <time>2023-01-27T10:03:06.000Z</time>
      </trkpt>
      <trkpt lat="40.06873668171465396881103515625" lon="0.04031402058899402618408203125">
        <ele>174.600006103515625</ele>
        <time>2023-01-27T10:03:08.000Z</time>
      </trkpt>
      <trkpt lat="40.068604834377765655517578125" lon="0.040299184620380401611328125">
        <ele>173.1999969482421875</ele>
        <time>2023-01-27T10:03:09.000Z</time>
      </trkpt>
      <trkpt lat="40.068362765014171600341796875" lon="0.0403130985796451568603515625">
        <ele>170.8000030517578125</ele>
        <time>2023-01-27T10:03:11.000Z</time>
      </trkpt>
      <trkpt lat="40.06806814111769199371337890625" lon="0.0403590314090251922607421875">
        <ele>168.600006103515625</ele>
        <time>2023-01-27T10:03:13.000Z</time>
      </trkpt>
      <trkpt lat="40.0678231380879878997802734375" lon="0.040414519608020782470703125">
        <ele>166.399993896484375</ele>
        <time>2023-01-27T10:03:15.000Z</time>
      </trkpt>
      <trkpt lat="40.06752935238182544708251953125" lon="0.04048719070851802825927734375">
        <ele>163.600006103515625</ele>
        <time>2023-01-27T10:03:17.000Z</time>
      </trkpt>
      <trkpt lat="40.0672930665314197540283203125" lon="0.04053815267980098724365234375">
        <ele>161.1999969482421875</ele>
        <time>2023-01-27T10:03:19.000Z</time>
      </trkpt>
      <trkpt lat="40.06703515537083148956298828125" lon="0.04059799946844577789306640625">
        <ele>159</ele>
        <time>2023-01-27T10:03:21.000Z</time>
      </trkpt>
      <trkpt lat="40.06691261194646358489990234375" lon="0.04064778797328472137451171875">
        <ele>157.1999969482421875</ele>
        <time>2023-01-27T10:03:22.000Z</time>
      </trkpt>
      <trkpt lat="40.0667958520352840423583984375" lon="0.04071702249348163604736328125">
        <ele>156.600006103515625</ele>
        <time>2023-01-27T10:03:23.000Z</time>
      </trkpt>
      <trkpt lat="40.06666132248938083648681640625" lon="0.04082313738763332366943359375">
        <ele>155</ele>
        <time>2023-01-27T10:03:24.000Z</time>
      </trkpt>
      <trkpt lat="40.06657364778220653533935546875" lon="0.04090368747711181640625">
        <ele>154</ele>
        <time>2023-01-27T10:03:25.000Z</time>
      </trkpt>
      <trkpt lat="40.066465102136135101318359375" lon="0.041009970009326934814453125">
        <ele>152.1999969482421875</ele>
        <time>2023-01-27T10:03:26.000Z</time>
      </trkpt>
      <trkpt lat="40.0663606636226177215576171875" lon="0.0411087088286876678466796875">
        <ele>151.399993896484375</ele>
        <time>2023-01-27T10:03:27.000Z</time>
      </trkpt>
      <trkpt lat="40.06625345908105373382568359375" lon="0.041193701326847076416015625">
        <ele>150</ele>
        <time>2023-01-27T10:03:28.000Z</time>
      </trkpt>
      <trkpt lat="40.06600971333682537078857421875" lon="0.04129369743168354034423828125">
        <ele>147.600006103515625</ele>
        <time>2023-01-27T10:03:30.000Z</time>
      </trkpt>
      <trkpt lat="40.06588046438992023468017578125" lon="0.041309036314487457275390625">
        <ele>146.8000030517578125</ele>
        <time>2023-01-27T10:03:31.000Z</time>
      </trkpt>
      <trkpt lat="40.0657506287097930908203125" lon="0.04132538102567195892333984375">
        <ele>144.8000030517578125</ele>
        <time>2023-01-27T10:03:32.000Z</time>
      </trkpt>
      <trkpt lat="40.06562280468642711639404296875" lon="0.04136075265705585479736328125">
        <ele>144.1999969482421875</ele>
        <time>2023-01-27T10:03:33.000Z</time>
      </trkpt>
      <trkpt lat="40.0654976628720760345458984375" lon="0.04140567965805530548095703125">
        <ele>142.600006103515625</ele>
        <time>2023-01-27T10:03:34.000Z</time>
      </trkpt>
      <trkpt lat="40.06537654437124729156494140625" lon="0.041466616094112396240234375">
        <ele>140.600006103515625</ele>
        <time>2023-01-27T10:03:35.000Z</time>
      </trkpt>
      <trkpt lat="40.06514377892017364501953125" lon="0.041609108448028564453125">
        <ele>138.399993896484375</ele>
        <time>2023-01-27T10:03:37.000Z</time>
      </trkpt>
      <trkpt lat="40.06499801762402057647705078125" lon="0.04169653169810771942138671875">
        <ele>137.600006103515625</ele>
        <time>2023-01-27T10:03:38.000Z</time>
      </trkpt>
      <trkpt lat="40.06488092243671417236328125" lon="0.04177565686404705047607421875">
        <ele>136.1999969482421875</ele>
        <time>2023-01-27T10:03:39.000Z</time>
      </trkpt>
      <trkpt lat="40.06465100683271884918212890625" lon="0.041936337947845458984375">
        <ele>133.8000030517578125</ele>
        <time>2023-01-27T10:03:41.000Z</time>
      </trkpt>
      <trkpt lat="40.064413212239742279052734375" lon="0.04206667654216289520263671875">
        <ele>131.600006103515625</ele>
        <time>2023-01-27T10:03:43.000Z</time>
      </trkpt>
      <trkpt lat="40.0642876513302326202392578125" lon="0.0421054847538471221923828125">
        <ele>130.600006103515625</ele>
        <time>2023-01-27T10:03:44.000Z</time>
      </trkpt>
      <trkpt lat="40.06416250951588153839111328125" lon="0.0421336479485034942626953125">
        <ele>129.8000030517578125</ele>
        <time>2023-01-27T10:03:45.000Z</time>
      </trkpt>
      <trkpt lat="40.0640408881008625030517578125" lon="0.04217329435050487518310546875">
        <ele>129</ele>
        <time>2023-01-27T10:03:46.000Z</time>
      </trkpt>
      <trkpt lat="40.06391675211489200592041015625" lon="0.04222291521728038787841796875">
        <ele>127.59999847412109375</ele>
        <time>2023-01-27T10:03:47.000Z</time>
      </trkpt>
      <trkpt lat="40.0638031773269176483154296875" lon="0.04228527657687664031982421875">
        <ele>127</ele>
        <time>2023-01-27T10:03:48.000Z</time>
      </trkpt>
      <trkpt lat="40.0636965595185756683349609375" lon="0.0423572771251201629638671875">
        <ele>125.40000152587890625</ele>
        <time>2023-01-27T10:03:49.000Z</time>
      </trkpt>
      <trkpt lat="40.0635896064341068267822265625" lon="0.0424260087311267852783203125">
        <ele>123.59999847412109375</ele>
        <time>2023-01-27T10:03:50.000Z</time>
      </trkpt>
      <trkpt lat="40.063375197350978851318359375" lon="0.0425638072192668914794921875">
        <ele>121.59999847412109375</ele>
        <time>2023-01-27T10:03:52.000Z</time>
      </trkpt>
      <trkpt lat="40.06327268667519092559814453125" lon="0.04263916052877902984619140625">
        <ele>121.1999969482421875</ele>
        <time>2023-01-27T10:03:53.000Z</time>
      </trkpt>
      <trkpt lat="40.06317629478871822357177734375" lon="0.04272147081792354583740234375">
        <ele>120.40000152587890625</ele>
        <time>2023-01-27T10:03:54.000Z</time>
      </trkpt>
      <trkpt lat="40.0630840100347995758056640625" lon="0.04281216301023960113525390625">
        <ele>119.8000030517578125</ele>
        <time>2023-01-27T10:03:55.000Z</time>
      </trkpt>
      <trkpt lat="40.06300069391727447509765625" lon="0.04291593097150325775146484375">
        <ele>118.40000152587890625</ele>
        <time>2023-01-27T10:03:56.000Z</time>
      </trkpt>
      <trkpt lat="40.06292383186519145965576171875" lon="0.04302539862692356109619140625">
        <ele>117.40000152587890625</ele>
        <time>2023-01-27T10:03:57.000Z</time>
      </trkpt>
      <trkpt lat="40.06285585463047027587890625" lon="0.04313939251005649566650390625">
        <ele>116.40000152587890625</ele>
        <time>2023-01-27T10:03:58.000Z</time>
      </trkpt>
      <trkpt lat="40.06279676221311092376708984375" lon="0.04326076246798038482666015625">
        <ele>115.8000030517578125</ele>
        <time>2023-01-27T10:03:59.000Z</time>
      </trkpt>
      <trkpt lat="40.06275569088757038116455078125" lon="0.043358244001865386962890625">
        <ele>114.59999847412109375</ele>
        <time>2023-01-27T10:04:00.000Z</time>
      </trkpt>
      <trkpt lat="40.062660388648509979248046875" lon="0.04360827617347240447998046875">
        <ele>113</ele>
        <time>2023-01-27T10:04:02.000Z</time>
      </trkpt>
      <trkpt lat="40.062605403363704681396484375" lon="0.04372830502688884735107421875">
        <ele>112</ele>
        <time>2023-01-27T10:04:03.000Z</time>
      </trkpt>
      <trkpt lat="40.062543712556362152099609375" lon="0.0438402034342288970947265625">
        <ele>111.40000152587890625</ele>
        <time>2023-01-27T10:04:04.000Z</time>
      </trkpt>
      <trkpt lat="40.062478668987751007080078125" lon="0.0439441390335559844970703125">
        <ele>110.8000030517578125</ele>
        <time>2023-01-27T10:04:05.000Z</time>
      </trkpt>
      <trkpt lat="40.0624037347733974456787109375" lon="0.04403759725391864776611328125">
        <ele>110.59999847412109375</ele>
        <time>2023-01-27T10:04:06.000Z</time>
      </trkpt>
      <trkpt lat="40.06231916137039661407470703125" lon="0.044121332466602325439453125">
        <ele>110.1999969482421875</ele>
        <time>2023-01-27T10:04:07.000Z</time>
      </trkpt>
      <trkpt lat="40.06212553940713405609130859375" lon="0.04427061416208744049072265625">
        <ele>109.1999969482421875</ele>
        <time>2023-01-27T10:04:09.000Z</time>
      </trkpt>
      <trkpt lat="40.0620258785784244537353515625" lon="0.0443266890943050384521484375">
        <ele>108.59999847412109375</ele>
        <time>2023-01-27T10:04:10.000Z</time>
      </trkpt>
      <trkpt lat="40.06191909313201904296875" lon="0.04437270574271678924560546875">
        <ele>107.59999847412109375</ele>
        <time>2023-01-27T10:04:11.000Z</time>
      </trkpt>
      <trkpt lat="40.061701498925685882568359375" lon="0.04445417784154415130615234375">
        <ele>106.40000152587890625</ele>
        <time>2023-01-27T10:04:13.000Z</time>
      </trkpt>
      <trkpt lat="40.06147409789264202117919921875" lon="0.0445312075316905975341796875">
        <ele>105.40000152587890625</ele>
        <time>2023-01-27T10:04:15.000Z</time>
      </trkpt>
      <trkpt lat="40.06125180982053279876708984375" lon="0.0446213968098163604736328125">
        <ele>104.1999969482421875</ele>
        <time>2023-01-27T10:04:17.000Z</time>
      </trkpt>
      <trkpt lat="40.06114351563155651092529296875" lon="0.0446726940572261810302734375">
        <ele>103.1999969482421875</ele>
        <time>2023-01-27T10:04:18.000Z</time>
      </trkpt>
      <trkpt lat="40.06093312986195087432861328125" lon="0.04478476010262966156005859375">
        <ele>102.1999969482421875</ele>
        <time>2023-01-27T10:04:20.000Z</time>
      </trkpt>
      <trkpt lat="40.06072475574910640716552734375" lon="0.04490160383284091949462890625">
        <ele>101</ele>
        <time>2023-01-27T10:04:22.000Z</time>
      </trkpt>
      <trkpt lat="40.0605184771120548248291015625" lon="0.04502766765654087066650390625">
        <ele>99.8000030517578125</ele>
        <time>2023-01-27T10:04:24.000Z</time>
      </trkpt>
      <trkpt lat="40.06031714379787445068359375" lon="0.045160353183746337890625">
        <ele>97.8000030517578125</ele>
        <time>2023-01-27T10:04:26.000Z</time>
      </trkpt>
      <trkpt lat="40.0601158104836940765380859375" lon="0.04529354162514209747314453125">
        <ele>96.59999847412109375</ele>
        <time>2023-01-27T10:04:28.000Z</time>
      </trkpt>
      <trkpt lat="40.059915147721767425537109375" lon="0.04543134011328220367431640625">
        <ele>94.8000030517578125</ele>
        <time>2023-01-27T10:04:30.000Z</time>
      </trkpt>
      <trkpt lat="40.05981246940791606903076171875" lon="0.045498646795749664306640625">
        <ele>93.59999847412109375</ele>
        <time>2023-01-27T10:04:31.000Z</time>
      </trkpt>
      <trkpt lat="40.05960099399089813232421875" lon="0.04563367925584316253662109375">
        <ele>91.40000152587890625</ele>
        <time>2023-01-27T10:04:33.000Z</time>
      </trkpt>
      <trkpt lat="40.0593991577625274658203125" lon="0.04578388296067714691162109375">
        <ele>90</ele>
        <time>2023-01-27T10:04:35.000Z</time>
      </trkpt>
      <trkpt lat="40.05919472314417362213134765625" lon="0.04592402838170528411865234375">
        <ele>88.8000030517578125</ele>
        <time>2023-01-27T10:04:37.000Z</time>
      </trkpt>
      <trkpt lat="40.0589834153652191162109375" lon="0.04603517241775989532470703125">
        <ele>87.40000152587890625</ele>
        <time>2023-01-27T10:04:39.000Z</time>
      </trkpt>
      <trkpt lat="40.05887671373784542083740234375" lon="0.0460728071630001068115234375">
        <ele>87</ele>
        <time>2023-01-27T10:04:40.000Z</time>
      </trkpt>
      <trkpt lat="40.05876070819795131683349609375" lon="0.046085380017757415771484375">
        <ele>85.8000030517578125</ele>
        <time>2023-01-27T10:04:41.000Z</time>
      </trkpt>
      <trkpt lat="40.05864570848643779754638671875" lon="0.04606920294463634490966796875">
        <ele>85.40000152587890625</ele>
        <time>2023-01-27T10:04:42.000Z</time>
      </trkpt>
      <trkpt lat="40.05853615701198577880859375" lon="0.04602813161909580230712890625">
        <ele>84.59999847412109375</ele>
        <time>2023-01-27T10:04:43.000Z</time>
      </trkpt>
      <trkpt lat="40.05840749479830265045166015625" lon="0.0459609925746917724609375">
        <ele>83.8000030517578125</ele>
        <time>2023-01-27T10:04:44.000Z</time>
      </trkpt>
      <trkpt lat="40.05832250230014324188232421875" lon="0.04590139724314212799072265625">
        <ele>82.8000030517578125</ele>
        <time>2023-01-27T10:04:45.000Z</time>
      </trkpt>
      <trkpt lat="40.05821655504405498504638671875" lon="0.04583300091326236724853515625">
        <ele>81.8000030517578125</ele>
        <time>2023-01-27T10:04:46.000Z</time>
      </trkpt>
      <trkpt lat="40.058110021054744720458984375" lon="0.04576493985950946807861328125">
        <ele>81.40000152587890625</ele>
        <time>2023-01-27T10:04:47.000Z</time>
      </trkpt>
      <trkpt lat="40.05800482816994190216064453125" lon="0.04569821991026401519775390625">
        <ele>80.40000152587890625</ele>
        <time>2023-01-27T10:04:48.000Z</time>
      </trkpt>
      <trkpt lat="40.05780165083706378936767578125" lon="0.04556444473564624786376953125">
        <ele>78.8000030517578125</ele>
        <time>2023-01-27T10:04:50.000Z</time>
      </trkpt>
      <trkpt lat="40.0576042570173740386962890625" lon="0.04544877447187900543212890625">
        <ele>76.8000030517578125</ele>
        <time>2023-01-27T10:04:52.000Z</time>
      </trkpt>
      <trkpt lat="40.057511888444423675537109375" lon="0.04540183581411838531494140625">
        <ele>76.59999847412109375</ele>
        <time>2023-01-27T10:04:53.000Z</time>
      </trkpt>
      <trkpt lat="40.05740292370319366455078125" lon="0.0453521311283111572265625">
        <ele>75.59999847412109375</ele>
        <time>2023-01-27T10:04:54.000Z</time>
      </trkpt>
      <trkpt lat="40.057334192097187042236328125" lon="0.0453199446201324462890625">
        <ele>75.40000152587890625</ele>
        <time>2023-01-27T10:04:55.000Z</time>
      </trkpt>
      <trkpt lat="40.057250373065471649169921875" lon="0.04528029821813106536865234375">
        <ele>74.8000030517578125</ele>
        <time>2023-01-27T10:04:56.000Z</time>
      </trkpt>
      <trkpt lat="40.05716512911021709442138671875" lon="0.0452453456819057464599609375">
        <ele>74.59999847412109375</ele>
        <time>2023-01-27T10:04:57.000Z</time>
      </trkpt>
      <trkpt lat="40.05708097480237483978271484375" lon="0.04521877504885196685791015625">
        <ele>74.1999969482421875</ele>
        <time>2023-01-27T10:04:58.000Z</time>
      </trkpt>
      <trkpt lat="40.05697888322174549102783203125" lon="0.04520393908023834228515625">
        <ele>74.1999969482421875</ele>
        <time>2023-01-27T10:04:59.000Z</time>
      </trkpt>
      <trkpt lat="40.05682448856532573699951171875" lon="0.04521508701145648956298828125">
        <ele>74</ele>
        <time>2023-01-27T10:05:01.000Z</time>
      </trkpt>
      <trkpt lat="40.05673781968653202056884765625" lon="0.0452272407710552215576171875">
        <ele>73.8000030517578125</ele>
        <time>2023-01-27T10:05:02.000Z</time>
      </trkpt>
      <trkpt lat="40.05665282718837261199951171875" lon="0.04524542950093746185302734375">
        <ele>73.40000152587890625</ele>
        <time>2023-01-27T10:05:03.000Z</time>
      </trkpt>
      <trkpt lat="40.0565694272518157958984375" lon="0.04526889882981777191162109375">
        <ele>73.1999969482421875</ele>
        <time>2023-01-27T10:05:04.000Z</time>
      </trkpt>
      <trkpt lat="40.05640069954097270965576171875" lon="0.04532740451395511627197265625">
        <ele>72.8000030517578125</ele>
        <time>2023-01-27T10:05:06.000Z</time>
      </trkpt>
      <trkpt lat="40.0563178025186061859130859375" lon="0.0453655421733856201171875">
        <ele>72.1999969482421875</ele>
        <time>2023-01-27T10:05:07.000Z</time>
      </trkpt>
      <trkpt lat="40.05607162602245807647705078125" lon="0.0455009937286376953125">
        <ele>71.1999969482421875</ele>
        <time>2023-01-27T10:05:10.000Z</time>
      </trkpt>
      <trkpt lat="40.055907927453517913818359375" lon="0.04558305256068706512451171875">
        <ele>70.40000152587890625</ele>
        <time>2023-01-27T10:05:12.000Z</time>
      </trkpt>
      <trkpt lat="40.0558085180819034576416015625" lon="0.04563770256936550140380859375">
        <ele>69.59999847412109375</ele>
        <time>2023-01-27T10:05:13.000Z</time>
      </trkpt>
      <trkpt lat="40.055589415132999420166015625" lon="0.045805759727954864501953125">
        <ele>68.1999969482421875</ele>
        <time>2023-01-27T10:05:16.000Z</time>
      </trkpt>
      <trkpt lat="40.055521018803119659423828125" lon="0.045884214341640472412109375">
        <ele>67.8000030517578125</ele>
        <time>2023-01-27T10:05:17.000Z</time>
      </trkpt>
      <trkpt lat="40.05539336241781711578369140625" lon="0.046088397502899169921875">
        <ele>66.8000030517578125</ele>
        <time>2023-01-27T10:05:19.000Z</time>
      </trkpt>
      <trkpt lat="40.05530082620680332183837890625" lon="0.04626567475497722625732421875">
        <ele>66.1999969482421875</ele>
        <time>2023-01-27T10:05:21.000Z</time>
      </trkpt>
      <trkpt lat="40.055244080722332000732421875" lon="0.0463598035275936126708984375">
        <ele>65.59999847412109375</ele>
        <time>2023-01-27T10:05:22.000Z</time>
      </trkpt>
      <trkpt lat="40.05502045154571533203125" lon="0.0467654876410961151123046875">
        <ele>64</ele>
        <time>2023-01-27T10:05:26.000Z</time>
      </trkpt>
      <trkpt lat="40.054914169013500213623046875" lon="0.04698735661804676055908203125">
        <ele>63.200000762939453125</ele>
        <time>2023-01-27T10:05:28.000Z</time>
      </trkpt>
      <trkpt lat="40.05486111156642436981201171875" lon="0.0471342913806438446044921875">
        <ele>62.59999847412109375</ele>
        <time>2023-01-27T10:05:29.000Z</time>
      </trkpt>
      <trkpt lat="40.054813921451568603515625" lon="0.0473823957145214080810546875">
        <ele>61.40000152587890625</ele>
        <time>2023-01-27T10:05:31.000Z</time>
      </trkpt>
      <trkpt lat="40.05478701554238796234130859375" lon="0.047677941620349884033203125">
        <ele>60.200000762939453125</ele>
        <time>2023-01-27T10:05:33.000Z</time>
      </trkpt>
      <trkpt lat="40.05477167665958404541015625" lon="0.047975666821002960205078125">
        <ele>58.799999237060546875</ele>
        <time>2023-01-27T10:05:35.000Z</time>
      </trkpt>
      <trkpt lat="40.05476723425090312957763671875" lon="0.04812310449779033660888671875">
        <ele>58.40000152587890625</ele>
        <time>2023-01-27T10:05:36.000Z</time>
      </trkpt>
      <trkpt lat="40.05476455204188823699951171875" lon="0.04827414639294147491455078125">
        <ele>57</ele>
        <time>2023-01-27T10:05:37.000Z</time>
      </trkpt>
      <trkpt lat="40.05475399084389209747314453125" lon="0.04857606254518032073974609375">
        <ele>55.59999847412109375</ele>
        <time>2023-01-27T10:05:39.000Z</time>
      </trkpt>
      <trkpt lat="40.0547426752746105194091796875" lon="0.04886926151812076568603515625">
        <ele>54.40000152587890625</ele>
        <time>2023-01-27T10:05:41.000Z</time>
      </trkpt>
      <trkpt lat="40.05471878685057163238525390625" lon="0.0493003427982330322265625">
        <ele>52.40000152587890625</ele>
        <time>2023-01-27T10:05:44.000Z</time>
      </trkpt>
      <trkpt lat="40.05471409298479557037353515625" lon="0.0494480319321155548095703125">
        <ele>52.200000762939453125</ele>
        <time>2023-01-27T10:05:45.000Z</time>
      </trkpt>
      <trkpt lat="40.0547071360051631927490234375" lon="0.049597062170505523681640625">
        <ele>51.200000762939453125</ele>
        <time>2023-01-27T10:05:46.000Z</time>
      </trkpt>
      <trkpt lat="40.054698251187801361083984375" lon="0.04973963834345340728759765625">
        <ele>51</ele>
        <time>2023-01-27T10:05:47.000Z</time>
      </trkpt>
      <trkpt lat="40.0546927191317081451416015625" lon="0.04987894557416439056396484375">
        <ele>50</ele>
        <time>2023-01-27T10:05:48.000Z</time>
      </trkpt>
      <trkpt lat="40.05469246767461299896240234375" lon="0.05001850426197052001953125">
        <ele>49.200000762939453125</ele>
        <time>2023-01-27T10:05:49.000Z</time>
      </trkpt>
      <trkpt lat="40.054693557322025299072265625" lon="0.050158314406871795654296875">
        <ele>48.200000762939453125</ele>
        <time>2023-01-27T10:05:50.000Z</time>
      </trkpt>
      <trkpt lat="40.0546893663704395294189453125" lon="0.0502966158092021942138671875">
        <ele>47.799999237060546875</ele>
        <time>2023-01-27T10:05:51.000Z</time>
      </trkpt>
      <trkpt lat="40.0546759553253650665283203125" lon="0.0504324026405811309814453125">
        <ele>47.200000762939453125</ele>
        <time>2023-01-27T10:05:52.000Z</time>
      </trkpt>
      <trkpt lat="40.0546514801681041717529296875" lon="0.05056760273873805999755859375">
        <ele>46.799999237060546875</ele>
        <time>2023-01-27T10:05:53.000Z</time>
      </trkpt>
      <trkpt lat="40.05461904220283031463623046875" lon="0.050699450075626373291015625">
        <ele>46</ele>
        <time>2023-01-27T10:05:54.000Z</time>
      </trkpt>
      <trkpt lat="40.05459062755107879638671875" lon="0.0508310459554195404052734375">
        <ele>45.40000152587890625</ele>
        <time>2023-01-27T10:05:55.000Z</time>
      </trkpt>
      <trkpt lat="40.05457310937345027923583984375" lon="0.0509614683687686920166015625">
        <ele>45</ele>
        <time>2023-01-27T10:05:56.000Z</time>
      </trkpt>
      <trkpt lat="40.0545690022408962249755859375" lon="0.05109080113470554351806640625">
        <ele>44.40000152587890625</ele>
        <time>2023-01-27T10:05:57.000Z</time>
      </trkpt>
      <trkpt lat="40.0545676611363887786865234375" lon="0.05124066956341266632080078125">
        <ele>44</ele>
        <time>2023-01-27T10:05:58.000Z</time>
      </trkpt>
      <trkpt lat="40.05456648766994476318359375" lon="0.05133588798344135284423828125">
        <ele>43.200000762939453125</ele>
        <time>2023-01-27T10:05:59.000Z</time>
      </trkpt>
      <trkpt lat="40.05456774495542049407958984375" lon="0.0514529831707477569580078125">
        <ele>43</ele>
        <time>2023-01-27T10:06:00.000Z</time>
      </trkpt>
      <trkpt lat="40.05456774495542049407958984375" lon="0.05156387574970722198486328125">
        <ele>42.799999237060546875</ele>
        <time>2023-01-27T10:06:01.000Z</time>
      </trkpt>
      <trkpt lat="40.054567158222198486328125" lon="0.05166781134903430938720703125">
        <ele>42.59999847412109375</ele>
        <time>2023-01-27T10:06:02.000Z</time>
      </trkpt>
      <trkpt lat="40.054567158222198486328125" lon="0.05176621489226818084716796875">
        <ele>42.59999847412109375</ele>
        <time>2023-01-27T10:06:03.000Z</time>
      </trkpt>
      <trkpt lat="40.05456380546092987060546875" lon="0.05185942165553569793701171875">
        <ele>42.59999847412109375</ele>
        <time>2023-01-27T10:06:04.000Z</time>
      </trkpt>
      <trkpt lat="40.054557435214519500732421875" lon="0.051967464387416839599609375">
        <ele>42.59999847412109375</ele>
        <time>2023-01-27T10:06:05.000Z</time>
      </trkpt>
      <trkpt lat="40.05455533973872661590576171875" lon="0.052037872374057769775390625">
        <ele>42.799999237060546875</ele>
        <time>2023-01-27T10:06:06.000Z</time>
      </trkpt>
      <trkpt lat="40.05455533973872661590576171875" lon="0.05212596617639064788818359375">
        <ele>43</ele>
        <time>2023-01-27T10:06:07.000Z</time>
      </trkpt>
      <trkpt lat="40.05455500446259975433349609375" lon="0.0522130541503429412841796875">
        <ele>43.200000762939453125</ele>
        <time>2023-01-27T10:06:08.000Z</time>
      </trkpt>
      <trkpt lat="40.05451619625091552734375" lon="0.05280288867652416229248046875">
        <ele>43.40000152587890625</ele>
        <time>2023-01-27T10:06:14.000Z</time>
      </trkpt>
      <trkpt lat="40.05451544187963008880615234375" lon="0.05343035794794559478759765625">
        <ele>41.799999237060546875</ele>
        <time>2023-01-27T10:06:19.000Z</time>
      </trkpt>
      <trkpt lat="40.05451359786093235015869140625" lon="0.0535695813596248626708984375">
        <ele>41.200000762939453125</ele>
        <time>2023-01-27T10:06:20.000Z</time>
      </trkpt>
      <trkpt lat="40.0545099936425685882568359375" lon="0.053711235523223876953125">
        <ele>40.799999237060546875</ele>
        <time>2023-01-27T10:06:21.000Z</time>
      </trkpt>
      <trkpt lat="40.05450689233839511871337890625" lon="0.05385548807680606842041015625">
        <ele>39.59999847412109375</ele>
        <time>2023-01-27T10:06:22.000Z</time>
      </trkpt>
      <trkpt lat="40.05450068973004817962646484375" lon="0.05414751358330249786376953125">
        <ele>38.40000152587890625</ele>
        <time>2023-01-27T10:06:24.000Z</time>
      </trkpt>
      <trkpt lat="40.05450253374874591827392578125" lon="0.05429285578429698944091796875">
        <ele>37.200000762939453125</ele>
        <time>2023-01-27T10:06:25.000Z</time>
      </trkpt>
      <trkpt lat="40.05450211465358734130859375" lon="0.05443316884338855743408203125">
        <ele>36.799999237060546875</ele>
        <time>2023-01-27T10:06:26.000Z</time>
      </trkpt>
      <trkpt lat="40.0544982589781284332275390625" lon="0.05456945858895778656005859375">
        <ele>35.200000762939453125</ele>
        <time>2023-01-27T10:06:27.000Z</time>
      </trkpt>
      <trkpt lat="40.05449540913105010986328125" lon="0.05483130924403667449951171875">
        <ele>33.799999237060546875</ele>
        <time>2023-01-27T10:06:29.000Z</time>
      </trkpt>
      <trkpt lat="40.0544945709407329559326171875" lon="0.05495846271514892578125">
        <ele>33.59999847412109375</ele>
        <time>2023-01-27T10:06:30.000Z</time>
      </trkpt>
      <trkpt lat="40.054493732750415802001953125" lon="0.0551100075244903564453125">
        <ele>33.200000762939453125</ele>
        <time>2023-01-27T10:06:31.000Z</time>
      </trkpt>
      <trkpt lat="40.054491050541400909423828125" lon="0.0552117638289928436279296875">
        <ele>33</ele>
        <time>2023-01-27T10:06:32.000Z</time>
      </trkpt>
      <trkpt lat="40.05448308773338794708251953125" lon="0.05533707328140735626220703125">
        <ele>32.40000152587890625</ele>
        <time>2023-01-27T10:06:33.000Z</time>
      </trkpt>
      <trkpt lat="40.05446548573672771453857421875" lon="0.055583082139492034912109375">
        <ele>31.799999237060546875</ele>
        <time>2023-01-27T10:06:35.000Z</time>
      </trkpt>
      <trkpt lat="40.05445115268230438232421875" lon="0.05582339130342006683349609375">
        <ele>31.200000762939453125</ele>
        <time>2023-01-27T10:06:37.000Z</time>
      </trkpt>
      <trkpt lat="40.054446123540401458740234375" lon="0.0559406541287899017333984375">
        <ele>30.6000003814697265625</ele>
        <time>2023-01-27T10:06:38.000Z</time>
      </trkpt>
      <trkpt lat="40.05443899892270565032958984375" lon="0.05605607293546199798583984375">
        <ele>30.3999996185302734375</ele>
        <time>2023-01-27T10:06:39.000Z</time>
      </trkpt>
      <trkpt lat="40.05443103611469268798828125" lon="0.05616872571408748626708984375">
        <ele>30</ele>
        <time>2023-01-27T10:06:40.000Z</time>
      </trkpt>
      <trkpt lat="40.05442290566861629486083984375" lon="0.05628003738820552825927734375">
        <ele>29.799999237060546875</ele>
        <time>2023-01-27T10:06:41.000Z</time>
      </trkpt>
      <trkpt lat="40.05440932698547840118408203125" lon="0.0565072707831859588623046875">
        <ele>29.3999996185302734375</ele>
        <time>2023-01-27T10:06:43.000Z</time>
      </trkpt>
      <trkpt lat="40.0544037111103534698486328125" lon="0.05664112977683544158935546875">
        <ele>29</ele>
        <time>2023-01-27T10:06:44.000Z</time>
      </trkpt>
      <trkpt lat="40.0544010289013385772705078125" lon="0.05672939121723175048828125">
        <ele>28.799999237060546875</ele>
        <time>2023-01-27T10:06:45.000Z</time>
      </trkpt>
      <trkpt lat="40.0544013641774654388427734375" lon="0.056842379271984100341796875">
        <ele>28.6000003814697265625</ele>
        <time>2023-01-27T10:06:46.000Z</time>
      </trkpt>
      <trkpt lat="40.05440312437713146209716796875" lon="0.056954361498355865478515625">
        <ele>28.3999996185302734375</ele>
        <time>2023-01-27T10:06:47.000Z</time>
      </trkpt>
      <trkpt lat="40.05439340136945247650146484375" lon="0.0571751408278942108154296875">
        <ele>28</ele>
        <time>2023-01-27T10:06:49.000Z</time>
      </trkpt>
      <trkpt lat="40.0543886236846446990966796875" lon="0.0572800822556018829345703125">
        <ele>27.6000003814697265625</ele>
        <time>2023-01-27T10:06:50.000Z</time>
      </trkpt>
      <trkpt lat="40.05437362007796764373779296875" lon="0.05748652853071689605712890625">
        <ele>27.200000762939453125</ele>
        <time>2023-01-27T10:06:52.000Z</time>
      </trkpt>
      <trkpt lat="40.05436599254608154296875" lon="0.05759096704423427581787109375">
        <ele>27</ele>
        <time>2023-01-27T10:06:53.000Z</time>
      </trkpt>
      <trkpt lat="40.0543557666242122650146484375" lon="0.05769993178546428680419921875">
        <ele>27</ele>
        <time>2023-01-27T10:06:54.000Z</time>
      </trkpt>
      <trkpt lat="40.05433523096144199371337890625" lon="0.0578125007450580596923828125">
        <ele>26.200000762939453125</ele>
        <time>2023-01-27T10:06:55.000Z</time>
      </trkpt>
      <trkpt lat="40.05430094897747039794921875" lon="0.05792389623820781707763671875">
        <ele>26</ele>
        <time>2023-01-27T10:06:56.000Z</time>
      </trkpt>
      <trkpt lat="40.0542162917554378509521484375" lon="0.05814752541482448577880859375">
        <ele>25</ele>
        <time>2023-01-27T10:06:58.000Z</time>
      </trkpt>
      <trkpt lat="40.05416071973741054534912109375" lon="0.05825380794703960418701171875">
        <ele>24.3999996185302734375</ele>
        <time>2023-01-27T10:06:59.000Z</time>
      </trkpt>
      <trkpt lat="40.05410841666162014007568359375" lon="0.05835958756506443023681640625">
        <ele>23.6000003814697265625</ele>
        <time>2023-01-27T10:07:00.000Z</time>
      </trkpt>
      <trkpt lat="40.0540117733180522918701171875" lon="0.0585531257092952728271484375">
        <ele>22.200000762939453125</ele>
        <time>2023-01-27T10:07:02.000Z</time>
      </trkpt>
      <trkpt lat="40.05397564731538295745849609375" lon="0.05861858837306499481201171875">
        <ele>21.799999237060546875</ele>
        <time>2023-01-27T10:07:03.000Z</time>
      </trkpt>
      <trkpt lat="40.05394865758717060089111328125" lon="0.0586728192865848541259765625">
        <ele>21.799999237060546875</ele>
        <time>2023-01-27T10:07:04.000Z</time>
      </trkpt>
      <trkpt lat="40.05391244776546955108642578125" lon="0.05873744376003742218017578125">
        <ele>21.6000003814697265625</ele>
        <time>2023-01-27T10:07:05.000Z</time>
      </trkpt>
      <trkpt lat="40.05387623794376850128173828125" lon="0.0587874837219715118408203125">
        <ele>21.6000003814697265625</ele>
        <time>2023-01-27T10:07:06.000Z</time>
      </trkpt>
      <trkpt lat="40.0538464821875095367431640625" lon="0.05882629193365573883056640625">
        <ele>21.6000003814697265625</ele>
        <time>2023-01-27T10:07:07.000Z</time>
      </trkpt>
      <trkpt lat="40.05381144583225250244140625" lon="0.05887306295335292816162109375">
        <ele>21.6000003814697265625</ele>
        <time>2023-01-27T10:07:08.000Z</time>
      </trkpt>
      <trkpt lat="40.05377967841923236846923828125" lon="0.0589212588965892791748046875">
        <ele>21.6000003814697265625</ele>
        <time>2023-01-27T10:07:09.000Z</time>
      </trkpt>
      <trkpt lat="40.05364825017750263214111328125" lon="0.05907892249524593353271484375">
        <ele>21.6000003814697265625</ele>
        <time>2023-01-27T10:07:12.000Z</time>
      </trkpt>
      <trkpt lat="40.0535611622035503387451171875" lon="0.05920263938605785369873046875">
        <ele>21.6000003814697265625</ele>
        <time>2023-01-27T10:07:14.000Z</time>
      </trkpt>
      <trkpt lat="40.0534890778362751007080078125" lon="0.059300623834133148193359375">
        <ele>21.3999996185302734375</ele>
        <time>2023-01-27T10:07:16.000Z</time>
      </trkpt>
      <trkpt lat="40.0533958710730075836181640625" lon="0.0594100914895534515380859375">
        <ele>21</ele>
        <time>2023-01-27T10:07:18.000Z</time>
      </trkpt>
      <trkpt lat="40.05325798876583576202392578125" lon="0.05957228131592273712158203125">
        <ele>20.200000762939453125</ele>
        <time>2023-01-27T10:07:21.000Z</time>
      </trkpt>
      <trkpt lat="40.0531896762549877166748046875" lon="0.0596957467496395111083984375">
        <ele>20</ele>
        <time>2023-01-27T10:07:23.000Z</time>
      </trkpt>
      <trkpt lat="40.05315237678587436676025390625" lon="0.05973740480840206146240234375">
        <ele>19.799999237060546875</ele>
        <time>2023-01-27T10:07:24.000Z</time>
      </trkpt>
      <trkpt lat="40.05312371067702770233154296875" lon="0.059767328202724456787109375">
        <ele>19.6000003814697265625</ele>
        <time>2023-01-27T10:07:25.000Z</time>
      </trkpt>
      <trkpt lat="40.05310158245265483856201171875" lon="0.0597799010574817657470703125">
        <ele>19.6000003814697265625</ele>
        <time>2023-01-27T10:07:26.000Z</time>
      </trkpt>
      <trkpt lat="40.05309873260557651519775390625" lon="0.05978316999971866607666015625">
        <ele>19.3999996185302734375</ele>
        <time>2023-01-27T10:07:27.000Z</time>
      </trkpt>
      <trkpt lat="40.05309873260557651519775390625" lon="0.05978316999971866607666015625">
        <ele>19</ele>
        <time>2023-01-27T10:07:29.000Z</time>
      </trkpt>
      <trkpt lat="40.053070485591888427734375" lon="0.0597946532070636749267578125">
        <ele>18.799999237060546875</ele>
        <time>2023-01-27T10:07:31.000Z</time>
      </trkpt>
      <trkpt lat="40.0530676357448101043701171875" lon="0.05979674868285655975341796875">
        <ele>18.6000003814697265625</ele>
        <time>2023-01-27T10:07:33.000Z</time>
      </trkpt>
      <trkpt lat="40.05305095575749874114990234375" lon="0.05980496294796466827392578125">
        <ele>18.3999996185302734375</ele>
        <time>2023-01-27T10:07:36.000Z</time>
      </trkpt>
      <trkpt lat="40.0530351139605045318603515625" lon="0.05983966402709484100341796875">
        <ele>18.200000762939453125</ele>
        <time>2023-01-27T10:07:40.000Z</time>
      </trkpt>
      <trkpt lat="40.05302262492477893829345703125" lon="0.05988777615129947662353515625">
        <ele>18.200000762939453125</ele>
        <time>2023-01-27T10:07:41.000Z</time>
      </trkpt>
      <trkpt lat="40.05306000821292400360107421875" lon="0.05999766290187835693359375">
        <ele>18.200000762939453125</ele>
        <time>2023-01-27T10:07:43.000Z</time>
      </trkpt>
      <trkpt lat="40.05317442119121551513671875" lon="0.0601406581699848175048828125">
        <ele>18.200000762939453125</ele>
        <time>2023-01-27T10:07:46.000Z</time>
      </trkpt>
      <trkpt lat="40.0532034225761890411376953125" lon="0.0602395646274089813232421875">
        <ele>18.200000762939453125</ele>
        <time>2023-01-27T10:07:47.000Z</time>
      </trkpt>
      <trkpt lat="40.0532542169094085693359375" lon="0.06036755628883838653564453125">
        <ele>18</ele>
        <time>2023-01-27T10:07:49.000Z</time>
      </trkpt>
      <trkpt lat="40.05329688079655170440673828125" lon="0.0604823045432567596435546875">
        <ele>18</ele>
        <time>2023-01-27T10:07:51.000Z</time>
      </trkpt>
      <trkpt lat="40.0532993115484714508056640625" lon="0.06054055877029895782470703125">
        <ele>18</ele>
        <time>2023-01-27T10:07:52.000Z</time>
      </trkpt>
      <trkpt lat="40.0533092021942138671875" lon="0.06059453822672367095947265625">
        <ele>17.799999237060546875</ele>
        <time>2023-01-27T10:07:53.000Z</time>
      </trkpt>
      <trkpt lat="40.0532969646155834197998046875" lon="0.06062873639166355133056640625">
        <ele>17.799999237060546875</ele>
        <time>2023-01-27T10:07:54.000Z</time>
      </trkpt>
      <trkpt lat="40.05326435901224613189697265625" lon="0.06064399145543575286865234375">
        <ele>17.799999237060546875</ele>
        <time>2023-01-27T10:07:55.000Z</time>
      </trkpt>
      <trkpt lat="40.05321909673511981964111328125" lon="0.06066008470952510833740234375">
        <ele>17.799999237060546875</ele>
        <time>2023-01-27T10:07:56.000Z</time>
      </trkpt>
      <trkpt lat="40.05304701626300811767578125" lon="0.060772486031055450439453125">
        <ele>17.6000003814697265625</ele>
        <time>2023-01-27T10:07:59.000Z</time>
      </trkpt>
      <trkpt lat="40.05289949476718902587890625" lon="0.06084498949348926544189453125">
        <ele>17.6000003814697265625</ele>
        <time>2023-01-27T10:08:01.000Z</time>
      </trkpt>
      <trkpt lat="40.0528010912239551544189453125" lon="0.06095294840633869171142578125">
        <ele>17</ele>
        <time>2023-01-27T10:08:03.000Z</time>
      </trkpt>
      <trkpt lat="40.05273462273180484771728515625" lon="0.06099971942603588104248046875">
        <ele>16.6000003814697265625</ele>
        <time>2023-01-27T10:08:04.000Z</time>
      </trkpt>
      <trkpt lat="40.05269489251077175140380859375" lon="0.06103525869548320770263671875">
        <ele>16.3999996185302734375</ele>
        <time>2023-01-27T10:08:05.000Z</time>
      </trkpt>
      <trkpt lat="40.0527078844606876373291015625" lon="0.0610687024891376495361328125">
        <ele>16.200000762939453125</ele>
        <time>2023-01-27T10:08:06.000Z</time>
      </trkpt>
      <trkpt lat="40.0527779571712017059326171875" lon="0.06110717542469501495361328125">
        <ele>16</ele>
        <time>2023-01-27T10:08:07.000Z</time>
      </trkpt>
      <trkpt lat="40.05283956415951251983642578125" lon="0.0611461512744426727294921875">
        <ele>15.80000019073486328125</ele>
        <time>2023-01-27T10:08:08.000Z</time>
      </trkpt>
      <trkpt lat="40.0528986565768718719482421875" lon="0.061259977519512176513671875">
        <ele>15.19999980926513671875</ele>
        <time>2023-01-27T10:08:10.000Z</time>
      </trkpt>
      <trkpt lat="40.0529229640960693359375" lon="0.061335079371929168701171875">
        <ele>15</ele>
        <time>2023-01-27T10:08:11.000Z</time>
      </trkpt>
      <trkpt lat="40.05296831019222736358642578125" lon="0.0613919086754322052001953125">
        <ele>15</ele>
        <time>2023-01-27T10:08:12.000Z</time>
      </trkpt>
      <trkpt lat="40.05301072262227535247802734375" lon="0.06144647486507892608642578125">
        <ele>14.80000019073486328125</ele>
        <time>2023-01-27T10:08:13.000Z</time>
      </trkpt>
      <trkpt lat="40.053056739270687103271484375" lon="0.06150162778794765472412109375">
        <ele>14.80000019073486328125</ele>
        <time>2023-01-27T10:08:14.000Z</time>
      </trkpt>
      <trkpt lat="40.0531004928052425384521484375" lon="0.06155326031148433685302734375">
        <ele>14.80000019073486328125</ele>
        <time>2023-01-27T10:08:15.000Z</time>
      </trkpt>
      <trkpt lat="40.05312270484864711761474609375" lon="0.06160757504403591156005859375">
        <ele>14.80000019073486328125</ele>
        <time>2023-01-27T10:08:16.000Z</time>
      </trkpt>
      <trkpt lat="40.05316092632710933685302734375" lon="0.06167999468743801116943359375">
        <ele>14.80000019073486328125</ele>
        <time>2023-01-27T10:08:17.000Z</time>
      </trkpt>
      <trkpt lat="40.053202919661998748779296875" lon="0.06175853312015533447265625">
        <ele>14.80000019073486328125</ele>
        <time>2023-01-27T10:08:18.000Z</time>
      </trkpt>
      <trkpt lat="40.0532074458897113800048828125" lon="0.06181594915688037872314453125">
        <ele>14.80000019073486328125</ele>
        <time>2023-01-27T10:08:19.000Z</time>
      </trkpt>
      <trkpt lat="40.05323301069438457489013671875" lon="0.0618772208690643310546875">
        <ele>14.80000019073486328125</ele>
        <time>2023-01-27T10:08:20.000Z</time>
      </trkpt>
      <trkpt lat="40.053311884403228759765625" lon="0.06205483339726924896240234375">
        <ele>15</ele>
        <time>2023-01-27T10:08:23.000Z</time>
      </trkpt>
      <trkpt lat="40.05333979614078998565673828125" lon="0.06210998632013797760009765625">
        <ele>14.80000019073486328125</ele>
        <time>2023-01-27T10:08:24.000Z</time>
      </trkpt>
      <trkpt lat="40.0533794425427913665771484375" lon="0.0621352158486843109130859375">
        <ele>14.6000003814697265625</ele>
        <time>2023-01-27T10:08:25.000Z</time>
      </trkpt>
      <trkpt lat="40.05341003648936748504638671875" lon="0.062154494225978851318359375">
        <ele>14.6000003814697265625</ele>
        <time>2023-01-27T10:08:26.000Z</time>
      </trkpt>
      <trkpt lat="40.05340903066098690032958984375" lon="0.06218173541128635406494140625">
        <ele>14.6000003814697265625</ele>
        <time>2023-01-27T10:08:27.000Z</time>
      </trkpt>
      <trkpt lat="40.0534086115658283233642578125" lon="0.06222515366971492767333984375">
        <ele>14.6000003814697265625</ele>
        <time>2023-01-27T10:08:28.000Z</time>
      </trkpt>
      <trkpt lat="40.05341313779354095458984375" lon="0.062275864183902740478515625">
        <ele>14.6000003814697265625</ele>
        <time>2023-01-27T10:08:29.000Z</time>
      </trkpt>
      <trkpt lat="40.0534320808947086334228515625" lon="0.06231911480426788330078125">
        <ele>14.3999996185302734375</ele>
        <time>2023-01-27T10:08:30.000Z</time>
      </trkpt>
      <trkpt lat="40.05347709171473979949951171875" lon="0.0623853318393230438232421875">
        <ele>14.3999996185302734375</ele>
        <time>2023-01-27T10:08:31.000Z</time>
      </trkpt>
      <trkpt lat="40.053524114191532135009765625" lon="0.0624406524002552032470703125">
        <ele>14.3999996185302734375</ele>
        <time>2023-01-27T10:08:32.000Z</time>
      </trkpt>
      <trkpt lat="40.05355437286198139190673828125" lon="0.06248231045901775360107421875">
        <ele>14.3999996185302734375</ele>
        <time>2023-01-27T10:08:33.000Z</time>
      </trkpt>
      <trkpt lat="40.05358605645596981048583984375" lon="0.062533356249332427978515625">
        <ele>14.3999996185302734375</ele>
        <time>2023-01-27T10:08:34.000Z</time>
      </trkpt>
      <trkpt lat="40.05361572839319705963134765625" lon="0.0625985674560070037841796875">
        <ele>14.3999996185302734375</ele>
        <time>2023-01-27T10:08:35.000Z</time>
      </trkpt>
      <trkpt lat="40.0536538660526275634765625" lon="0.0626984797418117523193359375">
        <ele>14.3999996185302734375</ele>
        <time>2023-01-27T10:08:37.000Z</time>
      </trkpt>
      <trkpt lat="40.053662247955799102783203125" lon="0.06273686885833740234375">
        <ele>14.3999996185302734375</ele>
        <time>2023-01-27T10:08:38.000Z</time>
      </trkpt>
      <trkpt lat="40.05366367287933826446533203125" lon="0.06276930682361125946044921875">
        <ele>14.19999980926513671875</ele>
        <time>2023-01-27T10:08:39.000Z</time>
      </trkpt>
      <trkpt lat="40.05366635508835315704345703125" lon="0.06280702538788318634033203125">
        <ele>14.19999980926513671875</ele>
        <time>2023-01-27T10:08:40.000Z</time>
      </trkpt>
      <trkpt lat="40.05367062985897064208984375" lon="0.06292889825999736785888671875">
        <ele>14</ele>
        <time>2023-01-27T10:08:43.000Z</time>
      </trkpt>
      <trkpt lat="40.053650178015232086181640625" lon="0.06293795071542263031005859375">
        <ele>13.80000019073486328125</ele>
        <time>2023-01-27T10:08:44.000Z</time>
      </trkpt>
      <trkpt lat="40.05361824296414852142333984375" lon="0.06294599734246730804443359375">
        <ele>13.80000019073486328125</ele>
        <time>2023-01-27T10:08:45.000Z</time>
      </trkpt>
      <trkpt lat="40.0535755790770053863525390625" lon="0.06297918967902660369873046875">
        <ele>13.80000019073486328125</ele>
        <time>2023-01-27T10:08:46.000Z</time>
      </trkpt>
      <trkpt lat="40.05355797708034515380859375" lon="0.0630179978907108306884765625">
        <ele>13.6000003814697265625</ele>
        <time>2023-01-27T10:08:47.000Z</time>
      </trkpt>
      <trkpt lat="40.05351346917450428009033203125" lon="0.0630602426826953887939453125">
        <ele>13.6000003814697265625</ele>
        <time>2023-01-27T10:08:48.000Z</time>
      </trkpt>
      <trkpt lat="40.05348865874111652374267578125" lon="0.063093937933444976806640625">
        <ele>13.6000003814697265625</ele>
        <time>2023-01-27T10:08:49.000Z</time>
      </trkpt>
      <trkpt lat="40.05346099846065044403076171875" lon="0.06312687881290912628173828125">
        <ele>13.6000003814697265625</ele>
        <time>2023-01-27T10:08:50.000Z</time>
      </trkpt>
      <trkpt lat="40.05344121716916561126708984375" lon="0.06316208280622959136962890625">
        <ele>13.3999996185302734375</ele>
        <time>2023-01-27T10:08:51.000Z</time>
      </trkpt>
      <trkpt lat="40.053450353443622589111328125" lon="0.06324623711407184600830078125">
        <ele>13</ele>
        <time>2023-01-27T10:08:53.000Z</time>
      </trkpt>
      <trkpt lat="40.053463093936443328857421875" lon="0.06335201673209667205810546875">
        <ele>12.80000019073486328125</ele>
        <time>2023-01-27T10:08:55.000Z</time>
      </trkpt>
      <trkpt lat="40.05347290076315402984619140625" lon="0.06341345608234405517578125">
        <ele>12.6000003814697265625</ele>
        <time>2023-01-27T10:08:56.000Z</time>
      </trkpt>
      <trkpt lat="40.05351011641323566436767578125" lon="0.06350490264594554901123046875">
        <ele>12.6000003814697265625</ele>
        <time>2023-01-27T10:08:58.000Z</time>
      </trkpt>
      <trkpt lat="40.0535393692553043365478515625" lon="0.06354086101055145263671875">
        <ele>12.6000003814697265625</ele>
        <time>2023-01-27T10:08:59.000Z</time>
      </trkpt>
      <trkpt lat="40.0535608269274234771728515625" lon="0.0635815970599651336669921875">
        <ele>12.6000003814697265625</ele>
        <time>2023-01-27T10:09:00.000Z</time>
      </trkpt>
      <trkpt lat="40.05358806811273097991943359375" lon="0.06368259899318218231201171875">
        <ele>12.3999996185302734375</ele>
        <time>2023-01-27T10:09:02.000Z</time>
      </trkpt>
      <trkpt lat="40.05361639894545078277587890625" lon="0.06371864117681980133056640625">
        <ele>12.3999996185302734375</ele>
        <time>2023-01-27T10:09:03.000Z</time>
      </trkpt>
      <trkpt lat="40.0536439754068851470947265625" lon="0.0637576170265674591064453125">
        <ele>12.3999996185302734375</ele>
        <time>2023-01-27T10:09:04.000Z</time>
      </trkpt>
      <trkpt lat="40.05367741920053958892822265625" lon="0.06379826925694942474365234375">
        <ele>12.3999996185302734375</ele>
        <time>2023-01-27T10:09:05.000Z</time>
      </trkpt>
      <trkpt lat="40.053711868822574615478515625" lon="0.06383514963090419769287109375">
        <ele>12.3999996185302734375</ele>
        <time>2023-01-27T10:09:06.000Z</time>
      </trkpt>
      <trkpt lat="40.0537450611591339111328125" lon="0.063875801861286163330078125">
        <ele>12.3999996185302734375</ele>
        <time>2023-01-27T10:09:07.000Z</time>
      </trkpt>
      <trkpt lat="40.0538270361721515655517578125" lon="0.06400295533239841461181640625">
        <ele>12.19999980926513671875</ele>
        <time>2023-01-27T10:09:10.000Z</time>
      </trkpt>
      <trkpt lat="40.05387422628700733184814453125" lon="0.06407252512872219085693359375">
        <ele>12</ele>
        <time>2023-01-27T10:09:12.000Z</time>
      </trkpt>
      <trkpt lat="40.053899288177490234375" lon="0.06410269998013973236083984375">
        <ele>11.6000003814697265625</ele>
        <time>2023-01-27T10:09:13.000Z</time>
      </trkpt>
      <trkpt lat="40.0539239309728145599365234375" lon="0.0641344673931598663330078125">
        <ele>11.3999996185302734375</ele>
        <time>2023-01-27T10:09:14.000Z</time>
      </trkpt>
      <trkpt lat="40.053950585424900054931640625" lon="0.0641544163227081298828125">
        <ele>11.3999996185302734375</ele>
        <time>2023-01-27T10:09:15.000Z</time>
      </trkpt>
      <trkpt lat="40.05397765897214412689208984375" lon="0.06416958756744861602783203125">
        <ele>11.19999980926513671875</ele>
        <time>2023-01-27T10:09:16.000Z</time>
      </trkpt>
      <trkpt lat="40.0539956800639629364013671875" lon="0.06417310796678066253662109375">
        <ele>11.19999980926513671875</ele>
        <time>2023-01-27T10:09:17.000Z</time>
      </trkpt>
      <trkpt lat="40.0540114380419254302978515625" lon="0.06418199278414249420166015625">
        <ele>11</ele>
        <time>2023-01-27T10:09:18.000Z</time>
      </trkpt>
      <trkpt lat="40.054024346172809600830078125" lon="0.0641978345811367034912109375">
        <ele>11</ele>
        <time>2023-01-27T10:09:19.000Z</time>
      </trkpt>
      <trkpt lat="40.05403541028499603271484375" lon="0.0642109103500843048095703125">
        <ele>11</ele>
        <time>2023-01-27T10:09:20.000Z</time>
      </trkpt>
      <trkpt lat="40.05404035560786724090576171875" lon="0.06421451456844806671142578125">
        <ele>11</ele>
        <time>2023-01-27T10:09:21.000Z</time>
      </trkpt>
      <trkpt lat="40.05404035560786724090576171875" lon="0.06421451456844806671142578125">
        <ele>10.80000019073486328125</ele>
        <time>2023-01-27T10:09:22.000Z</time>
      </trkpt>
      <trkpt lat="40.05404035560786724090576171875" lon="0.06421451456844806671142578125">
        <ele>10.80000019073486328125</ele>
        <time>2023-01-27T10:09:25.000Z</time>
      </trkpt>
      <trkpt lat="40.05404035560786724090576171875" lon="0.06421451456844806671142578125">
        <ele>10.80000019073486328125</ele>
        <time>2023-01-27T10:09:28.000Z</time>
      </trkpt>
      <trkpt lat="40.05404035560786724090576171875" lon="0.06421451456844806671142578125">
        <ele>10.6000003814697265625</ele>
        <time>2023-01-27T10:09:31.000Z</time>
      </trkpt>
      <trkpt lat="40.0540456362068653106689453125" lon="0.0642156042158603668212890625">
        <ele>10.6000003814697265625</ele>
        <time>2023-01-27T10:09:34.000Z</time>
      </trkpt>
      <trkpt lat="40.0540456362068653106689453125" lon="0.0642156042158603668212890625">
        <ele>10.6000003814697265625</ele>
        <time>2023-01-27T10:09:36.000Z</time>
      </trkpt>
      <trkpt lat="40.054062567651271820068359375" lon="0.06423060782253742218017578125">
        <ele>10.6000003814697265625</ele>
        <time>2023-01-27T10:09:43.000Z</time>
      </trkpt>
      <trkpt lat="40.0540697760879993438720703125" lon="0.0642410852015018463134765625">
        <ele>10.6000003814697265625</ele>
        <time>2023-01-27T10:09:44.000Z</time>
      </trkpt>
      <trkpt lat="40.05407589487731456756591796875" lon="0.0642509758472442626953125">
        <ele>10.6000003814697265625</ele>
        <time>2023-01-27T10:09:45.000Z</time>
      </trkpt>
      <trkpt lat="40.054083354771137237548828125" lon="0.06425843574106693267822265625">
        <ele>10.6000003814697265625</ele>
        <time>2023-01-27T10:09:46.000Z</time>
      </trkpt>
      <trkpt lat="40.0541250966489315032958984375" lon="0.06430151872336864471435546875">
        <ele>10.6000003814697265625</ele>
        <time>2023-01-27T10:09:51.000Z</time>
      </trkpt>
      <trkpt lat="40.05413004197180271148681640625" lon="0.0643108226358890533447265625">
        <ele>10.6000003814697265625</ele>
        <time>2023-01-27T10:09:52.000Z</time>
      </trkpt>
      <trkpt lat="40.054128952324390411376953125" lon="0.06432029418647289276123046875">
        <ele>10.6000003814697265625</ele>
        <time>2023-01-27T10:09:54.000Z</time>
      </trkpt>
      <trkpt lat="40.054128952324390411376953125" lon="0.06432029418647289276123046875">
        <ele>10.6000003814697265625</ele>
        <time>2023-01-27T10:09:55.000Z</time>
      </trkpt>
      <trkpt lat="40.05411813966929912567138671875" lon="0.06433923728764057159423828125">
        <ele>10.6000003814697265625</ele>
        <time>2023-01-27T10:09:58.000Z</time>
      </trkpt>
      <trkpt lat="40.05411545746028423309326171875" lon="0.0643477030098438262939453125">
        <ele>10.3999996185302734375</ele>
        <time>2023-01-27T10:10:00.000Z</time>
      </trkpt>
      <trkpt lat="40.05411646328866481781005859375" lon="0.06434644572436809539794921875">
        <ele>10.3999996185302734375</ele>
        <time>2023-01-27T10:10:01.000Z</time>
      </trkpt>
      <trkpt lat="40.05412434227764606475830078125" lon="0.06435298360884189605712890625">
        <ele>10</ele>
        <time>2023-01-27T10:10:07.000Z</time>
      </trkpt>
      <trkpt lat="40.0541257672011852264404296875" lon="0.06435248069465160369873046875">
        <ele>10.19999980926513671875</ele>
        <time>2023-01-27T10:10:15.000Z</time>
      </trkpt>
      <trkpt lat="40.05412618629634380340576171875" lon="0.06435298360884189605712890625">
        <ele>10.3999996185302734375</ele>
        <time>2023-01-27T10:10:24.000Z</time>
      </trkpt>
      <trkpt lat="40.05412618629634380340576171875" lon="0.06435298360884189605712890625">
        <ele>10.3999996185302734375</ele>
        <time>2023-01-27T10:10:26.000Z</time>
      </trkpt>
      <trkpt lat="40.0541297905147075653076171875" lon="0.06435298360884189605712890625">
        <ele>10.19999980926513671875</ele>
        <time>2023-01-27T10:10:32.000Z</time>
      </trkpt>
      <trkpt lat="40.0540588796138763427734375" lon="0.06423882208764553070068359375">
        <ele>10</ele>
        <time>2023-01-27T10:43:33.000Z</time>
      </trkpt>
      <trkpt lat="40.0540593825280666351318359375" lon="0.0642384029924869537353515625">
        <ele>10.3999996185302734375</ele>
        <time>2023-01-27T10:43:42.000Z</time>
      </trkpt>
      <trkpt lat="40.0540600530803203582763671875" lon="0.0642367266118526458740234375">
        <ele>10.19999980926513671875</ele>
        <time>2023-01-27T10:43:48.000Z</time>
      </trkpt>
      <trkpt lat="40.05406030453741550445556640625" lon="0.06423111073672771453857421875">
        <ele>10.19999980926513671875</ele>
        <time>2023-01-27T10:43:49.000Z</time>
      </trkpt>
      <trkpt lat="40.05405829288065433502197265625" lon="0.06422893144190311431884765625">
        <ele>10.19999980926513671875</ele>
        <time>2023-01-27T10:43:51.000Z</time>
      </trkpt>
      <trkpt lat="40.0540409423410892486572265625" lon="0.06422817707061767578125">
        <ele>10</ele>
        <time>2023-01-27T10:43:52.000Z</time>
      </trkpt>
      <trkpt lat="40.05402602255344390869140625" lon="0.064241588115692138671875">
        <ele>10.19999980926513671875</ele>
        <time>2023-01-27T10:43:53.000Z</time>
      </trkpt>
      <trkpt lat="40.054025687277317047119140625" lon="0.0642548315227031707763671875">
        <ele>10.19999980926513671875</ele>
        <time>2023-01-27T10:43:54.000Z</time>
      </trkpt>
      <trkpt lat="40.0540305487811565399169921875" lon="0.0642724335193634033203125">
        <ele>10.19999980926513671875</ele>
        <time>2023-01-27T10:43:55.000Z</time>
      </trkpt>
      <trkpt lat="40.05403717048466205596923828125" lon="0.064290203154087066650390625">
        <ele>10.19999980926513671875</ele>
        <time>2023-01-27T10:43:56.000Z</time>
      </trkpt>
      <trkpt lat="40.054047144949436187744140625" lon="0.0643067993223667144775390625">
        <ele>10</ele>
        <time>2023-01-27T10:43:57.000Z</time>
      </trkpt>
      <trkpt lat="40.05405879579484462738037109375" lon="0.06432498805224895477294921875">
        <ele>10</ele>
        <time>2023-01-27T10:43:58.000Z</time>
      </trkpt>
      <trkpt lat="40.05406969226896762847900390625" lon="0.06434686481952667236328125">
        <ele>10</ele>
        <time>2023-01-27T10:43:59.000Z</time>
      </trkpt>
      <trkpt lat="40.054078660905361175537109375" lon="0.06436698138713836669921875">
        <ele>10</ele>
        <time>2023-01-27T10:44:00.000Z</time>
      </trkpt>
      <trkpt lat="40.054086707532405853271484375" lon="0.06439522840082645416259765625">
        <ele>10</ele>
        <time>2023-01-27T10:44:01.000Z</time>
      </trkpt>
      <trkpt lat="40.054098777472972869873046875" lon="0.06442305631935596466064453125">
        <ele>10</ele>
        <time>2023-01-27T10:44:02.000Z</time>
      </trkpt>
      <trkpt lat="40.0541126914322376251220703125" lon="0.0644494593143463134765625">
        <ele>10</ele>
        <time>2023-01-27T10:44:03.000Z</time>
      </trkpt>
      <trkpt lat="40.05412031896412372589111328125" lon="0.06448525004088878631591796875">
        <ele>10</ele>
        <time>2023-01-27T10:44:04.000Z</time>
      </trkpt>
      <trkpt lat="40.0541177205741405487060546875" lon="0.06452900357544422149658203125">
        <ele>10</ele>
        <time>2023-01-27T10:44:05.000Z</time>
      </trkpt>
      <trkpt lat="40.05411143414676189422607421875" lon="0.064570493996143341064453125">
        <ele>10</ele>
        <time>2023-01-27T10:44:06.000Z</time>
      </trkpt>
      <trkpt lat="40.0541086681187152862548828125" lon="0.064607374370098114013671875">
        <ele>10</ele>
        <time>2023-01-27T10:44:07.000Z</time>
      </trkpt>
      <trkpt lat="40.05410305224359035491943359375" lon="0.064643919467926025390625">
        <ele>10</ele>
        <time>2023-01-27T10:44:08.000Z</time>
      </trkpt>
      <trkpt lat="40.05409467034041881561279296875" lon="0.0646769441664218902587890625">
        <ele>10</ele>
        <time>2023-01-27T10:44:09.000Z</time>
      </trkpt>
      <trkpt lat="40.0540803372859954833984375" lon="0.06470385007560253143310546875">
        <ele>10.19999980926513671875</ele>
        <time>2023-01-27T10:44:10.000Z</time>
      </trkpt>
      <trkpt lat="40.05405695177614688873291015625" lon="0.06472639739513397216796875">
        <ele>10.19999980926513671875</ele>
        <time>2023-01-27T10:44:11.000Z</time>
      </trkpt>
      <trkpt lat="40.05403197370469570159912109375" lon="0.0647456757724285125732421875">
        <ele>10.19999980926513671875</ele>
        <time>2023-01-27T10:44:12.000Z</time>
      </trkpt>
      <trkpt lat="40.054008923470973968505859375" lon="0.06476973183453083038330078125">
        <ele>10.19999980926513671875</ele>
        <time>2023-01-27T10:44:13.000Z</time>
      </trkpt>
      <trkpt lat="40.0539782457053661346435546875" lon="0.06484265439212322235107421875">
        <ele>10.3999996185302734375</ele>
        <time>2023-01-27T10:44:15.000Z</time>
      </trkpt>
      <trkpt lat="40.0539715401828289031982421875" lon="0.06488758139312267303466796875">
        <ele>10.3999996185302734375</ele>
        <time>2023-01-27T10:44:16.000Z</time>
      </trkpt>
      <trkpt lat="40.05398604087531566619873046875" lon="0.06498598493635654449462890625">
        <ele>10.6000003814697265625</ele>
        <time>2023-01-27T10:44:18.000Z</time>
      </trkpt>
      <trkpt lat="40.0539956800639629364013671875" lon="0.065037198364734649658203125">
        <ele>10.6000003814697265625</ele>
        <time>2023-01-27T10:44:19.000Z</time>
      </trkpt>
      <trkpt lat="40.0540040619671344757080078125" lon="0.06508522666990756988525390625">
        <ele>10.6000003814697265625</ele>
        <time>2023-01-27T10:44:20.000Z</time>
      </trkpt>
      <trkpt lat="40.0540151260793209075927734375" lon="0.0651282258331775665283203125">
        <ele>10.6000003814697265625</ele>
        <time>2023-01-27T10:44:21.000Z</time>
      </trkpt>
      <trkpt lat="40.054030716419219970703125" lon="0.06516736932098865509033203125">
        <ele>10.6000003814697265625</ele>
        <time>2023-01-27T10:44:22.000Z</time>
      </trkpt>
      <trkpt lat="40.05407966673374176025390625" lon="0.06524615921080112457275390625">
        <ele>10.6000003814697265625</ele>
        <time>2023-01-27T10:44:24.000Z</time>
      </trkpt>
      <trkpt lat="40.0541096739470958709716796875" lon="0.0652894936501979827880859375">
        <ele>10.6000003814697265625</ele>
        <time>2023-01-27T10:44:25.000Z</time>
      </trkpt>
      <trkpt lat="40.0541391782462596893310546875" lon="0.0653354264795780181884765625">
        <ele>10.3999996185302734375</ele>
        <time>2023-01-27T10:44:26.000Z</time>
      </trkpt>
      <trkpt lat="40.05424730479717254638671875" lon="0.06547733210027217864990234375">
        <ele>10.19999980926513671875</ele>
        <time>2023-01-27T10:44:29.000Z</time>
      </trkpt>
      <trkpt lat="40.054369010031223297119140625" lon="0.06563742645084857940673828125">
        <ele>10.19999980926513671875</ele>
        <time>2023-01-27T10:44:32.000Z</time>
      </trkpt>
      <trkpt lat="40.05453539080917835235595703125" lon="0.06586977280676364898681640625">
        <ele>9.19999980926513671875</ele>
        <time>2023-01-27T10:44:36.000Z</time>
      </trkpt>
      <trkpt lat="40.05457428283989429473876953125" lon="0.06592660211026668548583984375">
        <ele>9</ele>
        <time>2023-01-27T10:44:37.000Z</time>
      </trkpt>
      <trkpt lat="40.05461619235575199127197265625" lon="0.06598108448088169097900390625">
        <ele>9</ele>
        <time>2023-01-27T10:44:38.000Z</time>
      </trkpt>
      <trkpt lat="40.0547084771096706390380859375" lon="0.06608627736568450927734375">
        <ele>8.80000019073486328125</ele>
        <time>2023-01-27T10:44:40.000Z</time>
      </trkpt>
      <trkpt lat="40.0549532286822795867919921875" lon="0.06635181605815887451171875">
        <ele>8.6000003814697265625</ele>
        <time>2023-01-27T10:44:45.000Z</time>
      </trkpt>
      <trkpt lat="40.05513469688594341278076171875" lon="0.0665645487606525421142578125">
        <ele>8.6000003814697265625</ele>
        <time>2023-01-27T10:44:49.000Z</time>
      </trkpt>
      <trkpt lat="40.05522673018276691436767578125" lon="0.06666840054094791412353515625">
        <ele>8.6000003814697265625</ele>
        <time>2023-01-27T10:44:51.000Z</time>
      </trkpt>
      <trkpt lat="40.055419765412807464599609375" lon="0.066881887614727020263671875">
        <ele>8.6000003814697265625</ele>
        <time>2023-01-27T10:44:55.000Z</time>
      </trkpt>
      <trkpt lat="40.0555708073079586029052734375" lon="0.06703670136630535125732421875">
        <ele>8.6000003814697265625</ele>
        <time>2023-01-27T10:44:58.000Z</time>
      </trkpt>
      <trkpt lat="40.055621601641178131103515625" lon="0.0670860707759857177734375">
        <ele>8.6000003814697265625</ele>
        <time>2023-01-27T10:44:59.000Z</time>
      </trkpt>
      <trkpt lat="40.0557116232812404632568359375" lon="0.0671972148120403289794921875">
        <ele>8.3999996185302734375</ele>
        <time>2023-01-27T10:45:01.000Z</time>
      </trkpt>
      <trkpt lat="40.0557991303503513336181640625" lon="0.06730802357196807861328125">
        <ele>8.19999980926513671875</ele>
        <time>2023-01-27T10:45:03.000Z</time>
      </trkpt>
      <trkpt lat="40.055887810885906219482421875" lon="0.0674168206751346588134765625">
        <ele>8</ele>
        <time>2023-01-27T10:45:05.000Z</time>
      </trkpt>
      <trkpt lat="40.05593013949692249298095703125" lon="0.06746920756995677947998046875">
        <ele>8</ele>
        <time>2023-01-27T10:45:06.000Z</time>
      </trkpt>
      <trkpt lat="40.05597674287855625152587890625" lon="0.06751446984708309173583984375">
        <ele>8</ele>
        <time>2023-01-27T10:45:07.000Z</time>
      </trkpt>
      <trkpt lat="40.05602024495601654052734375" lon="0.06756727583706378936767578125">
        <ele>8</ele>
        <time>2023-01-27T10:45:08.000Z</time>
      </trkpt>
      <trkpt lat="40.05606056191027164459228515625" lon="0.0676250271499156951904296875">
        <ele>8</ele>
        <time>2023-01-27T10:45:09.000Z</time>
      </trkpt>
      <trkpt lat="40.05610414780676364898681640625" lon="0.06767841987311840057373046875">
        <ele>7.80000019073486328125</ele>
        <time>2023-01-27T10:45:10.000Z</time>
      </trkpt>
      <trkpt lat="40.05615033209323883056640625" lon="0.06772720254957675933837890625">
        <ele>7.80000019073486328125</ele>
        <time>2023-01-27T10:45:11.000Z</time>
      </trkpt>
      <trkpt lat="40.05619266070425510406494140625" lon="0.06778168492019176483154296875">
        <ele>7.599999904632568359375</ele>
        <time>2023-01-27T10:45:12.000Z</time>
      </trkpt>
      <trkpt lat="40.0562309660017490386962890625" lon="0.067841447889804840087890625">
        <ele>7.599999904632568359375</ele>
        <time>2023-01-27T10:45:13.000Z</time>
      </trkpt>
      <trkpt lat="40.0563038885593414306640625" lon="0.0679515860974788665771484375">
        <ele>7.400000095367431640625</ele>
        <time>2023-01-27T10:45:15.000Z</time>
      </trkpt>
      <trkpt lat="40.05633465014398097991943359375" lon="0.0679926574230194091796875">
        <ele>7.400000095367431640625</ele>
        <time>2023-01-27T10:45:16.000Z</time>
      </trkpt>
      <trkpt lat="40.056357868015766143798828125" lon="0.0680240057408809661865234375">
        <ele>7.19999980926513671875</ele>
        <time>2023-01-27T10:45:17.000Z</time>
      </trkpt>
      <trkpt lat="40.056371949613094329833984375" lon="0.06804252974689006805419921875">
        <ele>7</ele>
        <time>2023-01-27T10:45:18.000Z</time>
      </trkpt>
      <trkpt lat="40.0563815049827098846435546875" lon="0.068054683506488800048828125">
        <ele>6.80000019073486328125</ele>
        <time>2023-01-27T10:45:19.000Z</time>
      </trkpt>
      <trkpt lat="40.056388378143310546875" lon="0.0680639035999774932861328125">
        <ele>6.80000019073486328125</ele>
        <time>2023-01-27T10:45:20.000Z</time>
      </trkpt>
      <trkpt lat="40.05639533512294292449951171875" lon="0.068072788417339324951171875">
        <ele>6.599999904632568359375</ele>
        <time>2023-01-27T10:45:21.000Z</time>
      </trkpt>
      <trkpt lat="40.05640304647386074066162109375" lon="0.0680823437869548797607421875">
        <ele>6.400000095367431640625</ele>
        <time>2023-01-27T10:45:22.000Z</time>
      </trkpt>
      <trkpt lat="40.05641092546284198760986328125" lon="0.0680927373468875885009765625">
        <ele>6.400000095367431640625</ele>
        <time>2023-01-27T10:45:23.000Z</time>
      </trkpt>
      <trkpt lat="40.0564401783049106597900390625" lon="0.06813825108110904693603515625">
        <ele>5.80000019073486328125</ele>
        <time>2023-01-27T10:45:27.000Z</time>
      </trkpt>
      <trkpt lat="40.0564425252377986907958984375" lon="0.06815149448812007904052734375">
        <ele>5.599999904632568359375</ele>
        <time>2023-01-27T10:45:28.000Z</time>
      </trkpt>
      <trkpt lat="40.05644931457936763763427734375" lon="0.0681634806096553802490234375">
        <ele>5.599999904632568359375</ele>
        <time>2023-01-27T10:45:29.000Z</time>
      </trkpt>
      <trkpt lat="40.056455098092555999755859375" lon="0.0681723654270172119140625">
        <ele>5.400000095367431640625</ele>
        <time>2023-01-27T10:45:30.000Z</time>
      </trkpt>
      <trkpt lat="40.0564837642014026641845703125" lon="0.06818351335823535919189453125">
        <ele>5.400000095367431640625</ele>
        <time>2023-01-27T10:45:32.000Z</time>
      </trkpt>
      <trkpt lat="40.05650497041642665863037109375" lon="0.06818954832851886749267578125">
        <ele>5.400000095367431640625</ele>
        <time>2023-01-27T10:45:33.000Z</time>
      </trkpt>
      <trkpt lat="40.05652852356433868408203125" lon="0.0681805796921253204345703125">
        <ele>5.400000095367431640625</ele>
        <time>2023-01-27T10:45:34.000Z</time>
      </trkpt>
      <trkpt lat="40.05657613277435302734375" lon="0.068176724016666412353515625">
        <ele>5.19999980926513671875</ele>
        <time>2023-01-27T10:45:36.000Z</time>
      </trkpt>
      <trkpt lat="40.05658912472426891326904296875" lon="0.0681996904313564300537109375">
        <ele>5.19999980926513671875</ele>
        <time>2023-01-27T10:45:37.000Z</time>
      </trkpt>
      <trkpt lat="40.056597255170345306396484375" lon="0.06823950447142124176025390625">
        <ele>5.19999980926513671875</ele>
        <time>2023-01-27T10:45:38.000Z</time>
      </trkpt>
      <trkpt lat="40.056671015918254852294921875" lon="0.06836841814219951629638671875">
        <ele>5</ele>
        <time>2023-01-27T10:45:41.000Z</time>
      </trkpt>
      <trkpt lat="40.05670915357768535614013671875" lon="0.0684223137795925140380859375">
        <ele>5</ele>
        <time>2023-01-27T10:45:42.000Z</time>
      </trkpt>
      <trkpt lat="40.05675257183611392974853515625" lon="0.06847755052149295806884765625">
        <ele>5</ele>
        <time>2023-01-27T10:45:43.000Z</time>
      </trkpt>
      <trkpt lat="40.05685030482709407806396484375" lon="0.068595148622989654541015625">
        <ele>5</ele>
        <time>2023-01-27T10:45:45.000Z</time>
      </trkpt>
      <trkpt lat="40.05695491097867488861083984375" lon="0.06872112862765789031982421875">
        <ele>5</ele>
        <time>2023-01-27T10:45:47.000Z</time>
      </trkpt>
      <trkpt lat="40.0570584274828433990478515625" lon="0.06886177696287631988525390625">
        <ele>5.400000095367431640625</ele>
        <time>2023-01-27T10:45:49.000Z</time>
      </trkpt>
      <trkpt lat="40.05711182020604610443115234375" lon="0.06893034093081951141357421875">
        <ele>5.400000095367431640625</ele>
        <time>2023-01-27T10:45:50.000Z</time>
      </trkpt>
      <trkpt lat="40.05716529674828052520751953125" lon="0.06899823434650897979736328125">
        <ele>5.400000095367431640625</ele>
        <time>2023-01-27T10:45:51.000Z</time>
      </trkpt>
      <trkpt lat="40.05732270888984203338623046875" lon="0.0691971369087696075439453125">
        <ele>5.599999904632568359375</ele>
        <time>2023-01-27T10:45:54.000Z</time>
      </trkpt>
      <trkpt lat="40.0574275664985179901123046875" lon="0.0693309120833873748779296875">
        <ele>5.599999904632568359375</ele>
        <time>2023-01-27T10:45:56.000Z</time>
      </trkpt>
      <trkpt lat="40.0575254671275615692138671875" lon="0.0694680400192737579345703125">
        <ele>5.80000019073486328125</ele>
        <time>2023-01-27T10:45:58.000Z</time>
      </trkpt>
      <trkpt lat="40.057574920356273651123046875" lon="0.06953652016818523406982421875">
        <ele>5.80000019073486328125</ele>
        <time>2023-01-27T10:45:59.000Z</time>
      </trkpt>
      <trkpt lat="40.057620517909526824951171875" lon="0.06960441358387470245361328125">
        <ele>6</ele>
        <time>2023-01-27T10:46:00.000Z</time>
      </trkpt>
      <trkpt lat="40.05766502581536769866943359375" lon="0.06967264227569103240966796875">
        <ele>6</ele>
        <time>2023-01-27T10:46:01.000Z</time>
      </trkpt>
      <trkpt lat="40.0577093660831451416015625" lon="0.06974020041525363922119140625">
        <ele>6</ele>
        <time>2023-01-27T10:46:02.000Z</time>
      </trkpt>
      <trkpt lat="40.0577534548938274383544921875" lon="0.06980725564062595367431640625">
        <ele>6.19999980926513671875</ele>
        <time>2023-01-27T10:46:03.000Z</time>
      </trkpt>
      <trkpt lat="40.0577970407903194427490234375" lon="0.0698728859424591064453125">
        <ele>6.19999980926513671875</ele>
        <time>2023-01-27T10:46:04.000Z</time>
      </trkpt>
      <trkpt lat="40.057836435735225677490234375" lon="0.06994170136749744415283203125">
        <ele>6.19999980926513671875</ele>
        <time>2023-01-27T10:46:05.000Z</time>
      </trkpt>
      <trkpt lat="40.0578788481652736663818359375" lon="0.07000858895480632781982421875">
        <ele>6.400000095367431640625</ele>
        <time>2023-01-27T10:46:06.000Z</time>
      </trkpt>
      <trkpt lat="40.0579593144357204437255859375" lon="0.07013800553977489471435546875">
        <ele>6.599999904632568359375</ele>
        <time>2023-01-27T10:46:08.000Z</time>
      </trkpt>
      <trkpt lat="40.057997368276119232177734375" lon="0.07019902579486370086669921875">
        <ele>6.80000019073486328125</ele>
        <time>2023-01-27T10:46:09.000Z</time>
      </trkpt>
      <trkpt lat="40.0580339133739471435546875" lon="0.07026155479252338409423828125">
        <ele>7</ele>
        <time>2023-01-27T10:46:10.000Z</time>
      </trkpt>
      <trkpt lat="40.05807020701467990875244140625" lon="0.07032592780888080596923828125">
        <ele>7</ele>
        <time>2023-01-27T10:46:11.000Z</time>
      </trkpt>
      <trkpt lat="40.0581058301031589508056640625" lon="0.0703900493681430816650390625">
        <ele>7.19999980926513671875</ele>
        <time>2023-01-27T10:46:12.000Z</time>
      </trkpt>
      <trkpt lat="40.05814011208713054656982421875" lon="0.07045484147965908050537109375">
        <ele>7.400000095367431640625</ele>
        <time>2023-01-27T10:46:13.000Z</time>
      </trkpt>
      <trkpt lat="40.05817498080432415008544921875" lon="0.07051971741020679473876953125">
        <ele>7.400000095367431640625</ele>
        <time>2023-01-27T10:46:14.000Z</time>
      </trkpt>
      <trkpt lat="40.0582097657024860382080078125" lon="0.07058409042656421661376953125">
        <ele>7.400000095367431640625</ele>
        <time>2023-01-27T10:46:15.000Z</time>
      </trkpt>
      <trkpt lat="40.05824421532452106475830078125" lon="0.07064402103424072265625">
        <ele>7.599999904632568359375</ele>
        <time>2023-01-27T10:46:16.000Z</time>
      </trkpt>
      <trkpt lat="40.0582815147936344146728515625" lon="0.0707045383751392364501953125">
        <ele>7.80000019073486328125</ele>
        <time>2023-01-27T10:46:17.000Z</time>
      </trkpt>
      <trkpt lat="40.05835401825606822967529296875" lon="0.07082431577146053314208984375">
        <ele>8.19999980926513671875</ele>
        <time>2023-01-27T10:46:19.000Z</time>
      </trkpt>
      <trkpt lat="40.0583924911916255950927734375" lon="0.070883072912693023681640625">
        <ele>8.3999996185302734375</ele>
        <time>2023-01-27T10:46:20.000Z</time>
      </trkpt>
      <trkpt lat="40.0584323890507221221923828125" lon="0.07093763910233974456787109375">
        <ele>8.6000003814697265625</ele>
        <time>2023-01-27T10:46:21.000Z</time>
      </trkpt>
      <trkpt lat="40.05847522057592868804931640625" lon="0.0709861703217029571533203125">
        <ele>8.80000019073486328125</ele>
        <time>2023-01-27T10:46:22.000Z</time>
      </trkpt>
      <trkpt lat="40.0585215725004673004150390625" lon="0.0710357911884784698486328125">
        <ele>9</ele>
        <time>2023-01-27T10:46:23.000Z</time>
      </trkpt>
      <trkpt lat="40.05856205709278583526611328125" lon="0.07108859717845916748046875">
        <ele>9.19999980926513671875</ele>
        <time>2023-01-27T10:46:24.000Z</time>
      </trkpt>
      <trkpt lat="40.0585913099348545074462890625" lon="0.0711467675864696502685546875">
        <ele>9.3999996185302734375</ele>
        <time>2023-01-27T10:46:25.000Z</time>
      </trkpt>
      <trkpt lat="40.05861670710146427154541015625" lon="0.07120384834706783294677734375">
        <ele>9.6000003814697265625</ele>
        <time>2023-01-27T10:46:26.000Z</time>
      </trkpt>
      <trkpt lat="40.0586416013538837432861328125" lon="0.0712604261934757232666015625">
        <ele>10</ele>
        <time>2023-01-27T10:46:27.000Z</time>
      </trkpt>
      <trkpt lat="40.058668591082096099853515625" lon="0.07131524384021759033203125">
        <ele>10.19999980926513671875</ele>
        <time>2023-01-27T10:46:28.000Z</time>
      </trkpt>
      <trkpt lat="40.05869633518159389495849609375" lon="0.071369223296642303466796875">
        <ele>10.80000019073486328125</ele>
        <time>2023-01-27T10:46:29.000Z</time>
      </trkpt>
      <trkpt lat="40.0587244145572185516357421875" lon="0.071424879133701324462890625">
        <ele>11.19999980926513671875</ele>
        <time>2023-01-27T10:46:30.000Z</time>
      </trkpt>
      <trkpt lat="40.0587515719234943389892578125" lon="0.07148690521717071533203125">
        <ele>11.80000019073486328125</ele>
        <time>2023-01-27T10:46:31.000Z</time>
      </trkpt>
      <trkpt lat="40.05877847783267498016357421875" lon="0.07155102677643299102783203125">
        <ele>11.80000019073486328125</ele>
        <time>2023-01-27T10:46:32.000Z</time>
      </trkpt>
      <trkpt lat="40.05880379118025302886962890625" lon="0.07161992602050304412841796875">
        <ele>12</ele>
        <time>2023-01-27T10:46:33.000Z</time>
      </trkpt>
      <trkpt lat="40.05883120000362396240234375" lon="0.071691088378429412841796875">
        <ele>12</ele>
        <time>2023-01-27T10:46:34.000Z</time>
      </trkpt>
      <trkpt lat="40.05886129103600978851318359375" lon="0.0717609934508800506591796875">
        <ele>12.19999980926513671875</ele>
        <time>2023-01-27T10:46:35.000Z</time>
      </trkpt>
      <trkpt lat="40.058891884982585906982421875" lon="0.07182947359979152679443359375">
        <ele>12.19999980926513671875</ele>
        <time>2023-01-27T10:46:36.000Z</time>
      </trkpt>
      <trkpt lat="40.05892507731914520263671875" lon="0.071900971233844757080078125">
        <ele>12.19999980926513671875</ele>
        <time>2023-01-27T10:46:37.000Z</time>
      </trkpt>
      <trkpt lat="40.0589574314653873443603515625" lon="0.0719748996198177337646484375">
        <ele>12.19999980926513671875</ele>
        <time>2023-01-27T10:46:38.000Z</time>
      </trkpt>
      <trkpt lat="40.05898618139326572418212890625" lon="0.07204773835837841033935546875">
        <ele>12.19999980926513671875</ele>
        <time>2023-01-27T10:46:39.000Z</time>
      </trkpt>
      <trkpt lat="40.059013925492763519287109375" lon="0.07212351076304912567138671875">
        <ele>12.19999980926513671875</ele>
        <time>2023-01-27T10:46:40.000Z</time>
      </trkpt>
      <trkpt lat="40.0590409152209758758544921875" lon="0.07220095954835414886474609375">
        <ele>12.19999980926513671875</ele>
        <time>2023-01-27T10:46:41.000Z</time>
      </trkpt>
      <trkpt lat="40.05906681530177593231201171875" lon="0.07227924652397632598876953125">
        <ele>12.3999996185302734375</ele>
        <time>2023-01-27T10:46:42.000Z</time>
      </trkpt>
      <trkpt lat="40.0590915419161319732666015625" lon="0.0723584555089473724365234375">
        <ele>12.3999996185302734375</ele>
        <time>2023-01-27T10:46:43.000Z</time>
      </trkpt>
      <trkpt lat="40.05911727435886859893798828125" lon="0.072437413036823272705078125">
        <ele>12.3999996185302734375</ele>
        <time>2023-01-27T10:46:44.000Z</time>
      </trkpt>
      <trkpt lat="40.05914359353482723236083984375" lon="0.07251578383147716522216796875">
        <ele>12.3999996185302734375</ele>
        <time>2023-01-27T10:46:45.000Z</time>
      </trkpt>
      <trkpt lat="40.059168823063373565673828125" lon="0.07259465754032135009765625">
        <ele>12.3999996185302734375</ele>
        <time>2023-01-27T10:46:46.000Z</time>
      </trkpt>
      <trkpt lat="40.05919463932514190673828125" lon="0.0726766325533390045166015625">
        <ele>12.6000003814697265625</ele>
        <time>2023-01-27T10:46:47.000Z</time>
      </trkpt>
      <trkpt lat="40.05921919830143451690673828125" lon="0.0727604515850543975830078125">
        <ele>12.6000003814697265625</ele>
        <time>2023-01-27T10:46:48.000Z</time>
      </trkpt>
      <trkpt lat="40.059247948229312896728515625" lon="0.072846114635467529296875">
        <ele>12.6000003814697265625</ele>
        <time>2023-01-27T10:46:49.000Z</time>
      </trkpt>
      <trkpt lat="40.05927820689976215362548828125" lon="0.07293001748621463775634765625">
        <ele>12.6000003814697265625</ele>
        <time>2023-01-27T10:46:50.000Z</time>
      </trkpt>
      <trkpt lat="40.05930368788540363311767578125" lon="0.073012076318264007568359375">
        <ele>12.6000003814697265625</ele>
        <time>2023-01-27T10:46:51.000Z</time>
      </trkpt>
      <trkpt lat="40.0593262352049350738525390625" lon="0.07309664972126483917236328125">
        <ele>12.6000003814697265625</ele>
        <time>2023-01-27T10:46:52.000Z</time>
      </trkpt>
      <trkpt lat="40.0593481957912445068359375" lon="0.07318046875298023223876953125">
        <ele>12.6000003814697265625</ele>
        <time>2023-01-27T10:46:53.000Z</time>
      </trkpt>
      <trkpt lat="40.0593728385865688323974609375" lon="0.07326194085180759429931640625">
        <ele>12.6000003814697265625</ele>
        <time>2023-01-27T10:46:54.000Z</time>
      </trkpt>
      <trkpt lat="40.05939655937254428863525390625" lon="0.07334240712225437164306640625">
        <ele>12.6000003814697265625</ele>
        <time>2023-01-27T10:46:55.000Z</time>
      </trkpt>
      <trkpt lat="40.05941533483564853668212890625" lon="0.0734283216297626495361328125">
        <ele>12.3999996185302734375</ele>
        <time>2023-01-27T10:46:56.000Z</time>
      </trkpt>
      <trkpt lat="40.0594098865985870361328125" lon="0.07362185977399349212646484375">
        <ele>12.3999996185302734375</ele>
        <time>2023-01-27T10:46:58.000Z</time>
      </trkpt>
      <trkpt lat="40.05938775837421417236328125" lon="0.07371523417532444000244140625">
        <ele>12.19999980926513671875</ele>
        <time>2023-01-27T10:46:59.000Z</time>
      </trkpt>
      <trkpt lat="40.0593614391982555389404296875" lon="0.073806345462799072265625">
        <ele>12</ele>
        <time>2023-01-27T10:47:00.000Z</time>
      </trkpt>
      <trkpt lat="40.0593346171081066131591796875" lon="0.073892176151275634765625">
        <ele>12</ele>
        <time>2023-01-27T10:47:01.000Z</time>
      </trkpt>
      <trkpt lat="40.05932061932981014251708984375" lon="0.0739791803061962127685546875">
        <ele>11.80000019073486328125</ele>
        <time>2023-01-27T10:47:02.000Z</time>
      </trkpt>
      <trkpt lat="40.0593294203281402587890625" lon="0.0740676932036876678466796875">
        <ele>11.80000019073486328125</ele>
        <time>2023-01-27T10:47:03.000Z</time>
      </trkpt>
      <trkpt lat="40.05935649387538433074951171875" lon="0.07415193133056163787841796875">
        <ele>11.6000003814697265625</ele>
        <time>2023-01-27T10:47:04.000Z</time>
      </trkpt>
      <trkpt lat="40.05939303897321224212646484375" lon="0.07422703318297863006591796875">
        <ele>11.3999996185302734375</ele>
        <time>2023-01-27T10:47:05.000Z</time>
      </trkpt>
      <trkpt lat="40.05943813361227512359619140625" lon="0.07429291494190692901611328125">
        <ele>11.3999996185302734375</ele>
        <time>2023-01-27T10:47:06.000Z</time>
      </trkpt>
      <trkpt lat="40.05948641337454319000244140625" lon="0.0743546895682811737060546875">
        <ele>11.3999996185302734375</ele>
        <time>2023-01-27T10:47:07.000Z</time>
      </trkpt>
      <trkpt lat="40.05953402258455753326416015625" lon="0.07441260851919651031494140625">
        <ele>11.19999980926513671875</ele>
        <time>2023-01-27T10:47:08.000Z</time>
      </trkpt>
      <trkpt lat="40.05958062596619129180908203125" lon="0.07447178475558757781982421875">
        <ele>11.19999980926513671875</ele>
        <time>2023-01-27T10:47:09.000Z</time>
      </trkpt>
      <trkpt lat="40.05962270312011241912841796875" lon="0.07453682832419872283935546875">
        <ele>11.19999980926513671875</ele>
        <time>2023-01-27T10:47:10.000Z</time>
      </trkpt>
      <trkpt lat="40.05965623073279857635498046875" lon="0.07460723631083965301513671875">
        <ele>11.19999980926513671875</ele>
        <time>2023-01-27T10:47:11.000Z</time>
      </trkpt>
      <trkpt lat="40.0596807897090911865234375" lon="0.0746812485158443450927734375">
        <ele>11.19999980926513671875</ele>
        <time>2023-01-27T10:47:12.000Z</time>
      </trkpt>
      <trkpt lat="40.059694536030292510986328125" lon="0.0747586973011493682861328125">
        <ele>11.19999980926513671875</ele>
        <time>2023-01-27T10:47:13.000Z</time>
      </trkpt>
      <trkpt lat="40.0597022473812103271484375" lon="0.074837990105152130126953125">
        <ele>11.3999996185302734375</ele>
        <time>2023-01-27T10:47:14.000Z</time>
      </trkpt>
      <trkpt lat="40.05970987491309642791748046875" lon="0.0749186240136623382568359375">
        <ele>11.6000003814697265625</ele>
        <time>2023-01-27T10:47:15.000Z</time>
      </trkpt>
      <trkpt lat="40.05971708334982395172119140625" lon="0.07500059902667999267578125">
        <ele>11.80000019073486328125</ele>
        <time>2023-01-27T10:47:16.000Z</time>
      </trkpt>
      <trkpt lat="40.059724040329456329345703125" lon="0.0750817358493804931640625">
        <ele>11.80000019073486328125</ele>
        <time>2023-01-27T10:47:17.000Z</time>
      </trkpt>
      <trkpt lat="40.0597332604229450225830078125" lon="0.07516614161431789398193359375">
        <ele>12</ele>
        <time>2023-01-27T10:47:18.000Z</time>
      </trkpt>
      <trkpt lat="40.0597719848155975341796875" lon="0.07532506249845027923583984375">
        <ele>12</ele>
        <time>2023-01-27T10:47:20.000Z</time>
      </trkpt>
      <trkpt lat="40.05979319103062152862548828125" lon="0.0754017569124698638916015625">
        <ele>12</ele>
        <time>2023-01-27T10:47:21.000Z</time>
      </trkpt>
      <trkpt lat="40.059811882674694061279296875" lon="0.07547711022198200225830078125">
        <ele>12</ele>
        <time>2023-01-27T10:47:22.000Z</time>
      </trkpt>
      <trkpt lat="40.0598211027681827545166015625" lon="0.0755543075501918792724609375">
        <ele>12</ele>
        <time>2023-01-27T10:47:23.000Z</time>
      </trkpt>
      <trkpt lat="40.05985354073345661163330078125" lon="0.0758805312216281890869140625">
        <ele>12</ele>
        <time>2023-01-27T10:47:27.000Z</time>
      </trkpt>
      <trkpt lat="40.05989176221191883087158203125" lon="0.0764925777912139892578125">
        <ele>12</ele>
        <time>2023-01-27T10:47:34.000Z</time>
      </trkpt>
      <trkpt lat="40.05988740362226963043212890625" lon="0.077196992933750152587890625">
        <ele>12.19999980926513671875</ele>
        <time>2023-01-27T10:47:42.000Z</time>
      </trkpt>
      <trkpt lat="40.05988664925098419189453125" lon="0.07728056050837039947509765625">
        <ele>12.19999980926513671875</ele>
        <time>2023-01-27T10:47:43.000Z</time>
      </trkpt>
      <trkpt lat="40.05988488905131816864013671875" lon="0.0773644633591175079345703125">
        <ele>12.19999980926513671875</ele>
        <time>2023-01-27T10:47:44.000Z</time>
      </trkpt>
      <trkpt lat="40.05987633951008319854736328125" lon="0.0775317661464214324951171875">
        <ele>12.19999980926513671875</ele>
        <time>2023-01-27T10:47:46.000Z</time>
      </trkpt>
      <trkpt lat="40.05987181328237056732177734375" lon="0.07761684246361255645751953125">
        <ele>12.19999980926513671875</ele>
        <time>2023-01-27T10:47:47.000Z</time>
      </trkpt>
      <trkpt lat="40.0598693825304508209228515625" lon="0.07771893404424190521240234375">
        <ele>12.19999980926513671875</ele>
        <time>2023-01-27T10:47:48.000Z</time>
      </trkpt>
      <trkpt lat="40.0598677061498165130615234375" lon="0.07778783328831195831298828125">
        <ele>12.19999980926513671875</ele>
        <time>2023-01-27T10:47:49.000Z</time>
      </trkpt>
      <trkpt lat="40.05986561067402362823486328125" lon="0.077872239053249359130859375">
        <ele>12.19999980926513671875</ele>
        <time>2023-01-27T10:47:50.000Z</time>
      </trkpt>
      <trkpt lat="40.05982286296784877777099609375" lon="0.07845670916140079498291015625">
        <ele>11.80000019073486328125</ele>
        <time>2023-01-27T10:47:57.000Z</time>
      </trkpt>
      <trkpt lat="40.0597677938640117645263671875" lon="0.0789977610111236572265625">
        <ele>11.6000003814697265625</ele>
        <time>2023-01-27T10:48:03.000Z</time>
      </trkpt>
      <trkpt lat="40.0597362779080867767333984375" lon="0.07920806296169757843017578125">
        <ele>11.3999996185302734375</ele>
        <time>2023-01-27T10:48:05.000Z</time>
      </trkpt>
      <trkpt lat="40.0596688874065876007080078125" lon="0.07947879843413829803466796875">
        <ele>10.80000019073486328125</ele>
        <time>2023-01-27T10:48:08.000Z</time>
      </trkpt>
      <trkpt lat="40.059618093073368072509765625" lon="0.079779960215091705322265625">
        <ele>10</ele>
        <time>2023-01-27T10:48:11.000Z</time>
      </trkpt>
      <trkpt lat="40.05960258655250072479248046875" lon="0.0798803754150867462158203125">
        <ele>9.80000019073486328125</ele>
        <time>2023-01-27T10:48:12.000Z</time>
      </trkpt>
      <trkpt lat="40.05946445278823375701904296875" lon="0.08056559599936008453369140625">
        <ele>8.80000019073486328125</ele>
        <time>2023-01-27T10:48:19.000Z</time>
      </trkpt>
      <trkpt lat="40.05944819189608097076416015625" lon="0.08075636811554431915283203125">
        <ele>8.80000019073486328125</ele>
        <time>2023-01-27T10:48:21.000Z</time>
      </trkpt>
      <trkpt lat="40.05943310447037220001220703125" lon="0.08084152825176715850830078125">
        <ele>8.6000003814697265625</ele>
        <time>2023-01-27T10:48:22.000Z</time>
      </trkpt>
      <trkpt lat="40.05941860377788543701171875" lon="0.0809204019606113433837890625">
        <ele>8.6000003814697265625</ele>
        <time>2023-01-27T10:48:23.000Z</time>
      </trkpt>
      <trkpt lat="40.059400834143161773681640625" lon="0.08098871447145938873291015625">
        <ele>8.6000003814697265625</ele>
        <time>2023-01-27T10:48:24.000Z</time>
      </trkpt>
      <trkpt lat="40.05937996320426464080810546875" lon="0.08105694316327571868896484375">
        <ele>8.80000019073486328125</ele>
        <time>2023-01-27T10:48:25.000Z</time>
      </trkpt>
      <trkpt lat="40.0593589246273040771484375" lon="0.08112701587378978729248046875">
        <ele>8.80000019073486328125</ele>
        <time>2023-01-27T10:48:26.000Z</time>
      </trkpt>
      <trkpt lat="40.05933956243097782135009765625" lon="0.0811996869742870330810546875">
        <ele>8.80000019073486328125</ele>
        <time>2023-01-27T10:48:27.000Z</time>
      </trkpt>
      <trkpt lat="40.05925272591412067413330078125" lon="0.0815161876380443572998046875">
        <ele>9.80000019073486328125</ele>
        <time>2023-01-27T10:48:31.000Z</time>
      </trkpt>
      <trkpt lat="40.05917376838624477386474609375" lon="0.0817673094570636749267578125">
        <ele>10.19999980926513671875</ele>
        <time>2023-01-27T10:48:34.000Z</time>
      </trkpt>
      <trkpt lat="40.05895650945603847503662109375" lon="0.08237541653215885162353515625">
        <ele>10.19999980926513671875</ele>
        <time>2023-01-27T10:48:41.000Z</time>
      </trkpt>
      <trkpt lat="40.0589306093752384185791015625" lon="0.0824432261288166046142578125">
        <ele>10.19999980926513671875</ele>
        <time>2023-01-27T10:48:42.000Z</time>
      </trkpt>
      <trkpt lat="40.05867806263267993927001953125" lon="0.08311218582093715667724609375">
        <ele>9.3999996185302734375</ele>
        <time>2023-01-27T10:48:50.000Z</time>
      </trkpt>
      <trkpt lat="40.05854445509612560272216796875" lon="0.08344310335814952850341796875">
        <ele>9.19999980926513671875</ele>
        <time>2023-01-27T10:48:54.000Z</time>
      </trkpt>
      <trkpt lat="40.0584431178867816925048828125" lon="0.08369036950170993804931640625">
        <ele>8.6000003814697265625</ele>
        <time>2023-01-27T10:48:57.000Z</time>
      </trkpt>
      <trkpt lat="40.05834312178194522857666015625" lon="0.08394350297749042510986328125">
        <ele>8</ele>
        <time>2023-01-27T10:49:00.000Z</time>
      </trkpt>
      <trkpt lat="40.0582359172403812408447265625" lon="0.08421541191637516021728515625">
        <ele>7.599999904632568359375</ele>
        <time>2023-01-27T10:49:03.000Z</time>
      </trkpt>
      <trkpt lat="40.0581326521933078765869140625" lon="0.084492601454257965087890625">
        <ele>6.400000095367431640625</ele>
        <time>2023-01-27T10:49:06.000Z</time>
      </trkpt>
      <trkpt lat="40.05806165747344493865966796875" lon="0.0847841240465641021728515625">
        <ele>5.400000095367431640625</ele>
        <time>2023-01-27T10:49:09.000Z</time>
      </trkpt>
      <trkpt lat="40.05806316621601581573486328125" lon="0.0848830305039882659912109375">
        <ele>5.19999980926513671875</ele>
        <time>2023-01-27T10:49:10.000Z</time>
      </trkpt>
      <trkpt lat="40.058063752949237823486328125" lon="0.08497682400047779083251953125">
        <ele>4.80000019073486328125</ele>
        <time>2023-01-27T10:49:11.000Z</time>
      </trkpt>
      <trkpt lat="40.0580464862287044525146484375" lon="0.0850650854408740997314453125">
        <ele>4.80000019073486328125</ele>
        <time>2023-01-27T10:49:12.000Z</time>
      </trkpt>
      <trkpt lat="40.05801958031952381134033203125" lon="0.08514630608260631561279296875">
        <ele>4.400000095367431640625</ele>
        <time>2023-01-27T10:49:13.000Z</time>
      </trkpt>
      <trkpt lat="40.05799393169581890106201171875" lon="0.08522341959178447723388671875">
        <ele>4.19999980926513671875</ele>
        <time>2023-01-27T10:49:14.000Z</time>
      </trkpt>
      <trkpt lat="40.05796694196760654449462890625" lon="0.0852964259684085845947265625">
        <ele>3.7999999523162841796875</ele>
        <time>2023-01-27T10:49:15.000Z</time>
      </trkpt>
      <trkpt lat="40.05794070661067962646484375" lon="0.0853658281266689300537109375">
        <ele>3.7999999523162841796875</ele>
        <time>2023-01-27T10:49:16.000Z</time>
      </trkpt>
      <trkpt lat="40.05791631527245044708251953125" lon="0.08542257361114025115966796875">
        <ele>3.400000095367431640625</ele>
        <time>2023-01-27T10:49:17.000Z</time>
      </trkpt>
      <trkpt lat="40.0578956119716167449951171875" lon="0.08546599186956882476806640625">
        <ele>3.400000095367431640625</ele>
        <time>2023-01-27T10:49:18.000Z</time>
      </trkpt>
      <trkpt lat="40.05787541158497333526611328125" lon="0.08549465797841548919677734375">
        <ele>3.2000000476837158203125</ele>
        <time>2023-01-27T10:49:19.000Z</time>
      </trkpt>
      <trkpt lat="40.0578557141125202178955078125" lon="0.0855032913386821746826171875">
        <ele>3</ele>
        <time>2023-01-27T10:49:20.000Z</time>
      </trkpt>
      <trkpt lat="40.05784691311419010162353515625" lon="0.0854882039129734039306640625">
        <ele>2.7999999523162841796875</ele>
        <time>2023-01-27T10:49:21.000Z</time>
      </trkpt>
      <trkpt lat="40.0578436441719532012939453125" lon="0.08545241318643093109130859375">
        <ele>2.599999904632568359375</ele>
        <time>2023-01-27T10:49:22.000Z</time>
      </trkpt>
      <trkpt lat="40.05779813043773174285888671875" lon="0.08526599965989589691162109375">
        <ele>2</ele>
        <time>2023-01-27T10:49:26.000Z</time>
      </trkpt>
      <trkpt lat="40.057768039405345916748046875" lon="0.0852431170642375946044921875">
        <ele>2</ele>
        <time>2023-01-27T10:49:27.000Z</time>
      </trkpt>
      <trkpt lat="40.05772478878498077392578125" lon="0.08524437434971332550048828125">
        <ele>1.7999999523162841796875</ele>
        <time>2023-01-27T10:49:28.000Z</time>
      </trkpt>
      <trkpt lat="40.05768614821135997772216796875" lon="0.08527421392500400543212890625">
        <ele>1.60000002384185791015625</ele>
        <time>2023-01-27T10:49:29.000Z</time>
      </trkpt>
      <trkpt lat="40.0576508603990077972412109375" lon="0.085334815084934234619140625">
        <ele>1.7999999523162841796875</ele>
        <time>2023-01-27T10:49:30.000Z</time>
      </trkpt>
      <trkpt lat="40.05759210325777530670166015625" lon="0.08549834601581096649169921875">
        <ele>2</ele>
        <time>2023-01-27T10:49:33.000Z</time>
      </trkpt>
      <trkpt lat="40.05757215432822704315185546875" lon="0.08556053973734378814697265625">
        <ele>2</ele>
        <time>2023-01-27T10:49:34.000Z</time>
      </trkpt>
      <trkpt lat="40.05747207440435886383056640625" lon="0.085804201662540435791015625">
        <ele>2.2000000476837158203125</ele>
        <time>2023-01-27T10:49:38.000Z</time>
      </trkpt>
      <trkpt lat="40.0574211962521076202392578125" lon="0.08594334125518798828125">
        <ele>2.2000000476837158203125</ele>
        <time>2023-01-27T10:49:40.000Z</time>
      </trkpt>
      <trkpt lat="40.0572989881038665771484375" lon="0.08624936453998088836669921875">
        <ele>2.400000095367431640625</ele>
        <time>2023-01-27T10:49:45.000Z</time>
      </trkpt>
      <trkpt lat="40.05724777467548847198486328125" lon="0.08638246916234493255615234375">
        <ele>2.599999904632568359375</ele>
        <time>2023-01-27T10:49:47.000Z</time>
      </trkpt>
      <trkpt lat="40.05716747604310512542724609375" lon="0.0865899212658405303955078125">
        <ele>3</ele>
        <time>2023-01-27T10:49:50.000Z</time>
      </trkpt>
      <trkpt lat="40.0569923780858516693115234375" lon="0.08707246743142604827880859375">
        <ele>3.7999999523162841796875</ele>
        <time>2023-01-27T10:49:57.000Z</time>
      </trkpt>
      <trkpt lat="40.05694200284779071807861328125" lon="0.08721026591956615447998046875">
        <ele>3.7999999523162841796875</ele>
        <time>2023-01-27T10:49:59.000Z</time>
      </trkpt>
      <trkpt lat="40.05691803060472011566162109375" lon="0.08728000335395336151123046875">
        <ele>4</ele>
        <time>2023-01-27T10:50:00.000Z</time>
      </trkpt>
      <trkpt lat="40.05689573474228382110595703125" lon="0.08734948933124542236328125">
        <ele>4</ele>
        <time>2023-01-27T10:50:01.000Z</time>
      </trkpt>
      <trkpt lat="40.056785009801387786865234375" lon="0.087698511779308319091796875">
        <ele>4.599999904632568359375</ele>
        <time>2023-01-27T10:50:06.000Z</time>
      </trkpt>
      <trkpt lat="40.05661326460540294647216796875" lon="0.08816446177661418914794921875">
        <ele>4.80000019073486328125</ele>
        <time>2023-01-27T10:50:13.000Z</time>
      </trkpt>
      <trkpt lat="40.05658543668687343597412109375" lon="0.08822833187878131866455078125">
        <ele>4.80000019073486328125</ele>
        <time>2023-01-27T10:50:14.000Z</time>
      </trkpt>
      <trkpt lat="40.05647848360240459442138671875" lon="0.08845749311149120330810546875">
        <ele>5.19999980926513671875</ele>
        <time>2023-01-27T10:50:18.000Z</time>
      </trkpt>
      <trkpt lat="40.056451745331287384033203125" lon="0.0885107181966304779052734375">
        <ele>5.19999980926513671875</ele>
        <time>2023-01-27T10:50:19.000Z</time>
      </trkpt>
      <trkpt lat="40.056425593793392181396484375" lon="0.08856126107275485992431640625">
        <ele>5.400000095367431640625</ele>
        <time>2023-01-27T10:50:20.000Z</time>
      </trkpt>
      <trkpt lat="40.05640069954097270965576171875" lon="0.08861239068210124969482421875">
        <ele>5.400000095367431640625</ele>
        <time>2023-01-27T10:50:21.000Z</time>
      </trkpt>
      <trkpt lat="40.05637840367853641510009765625" lon="0.0886612571775913238525390625">
        <ele>5.80000019073486328125</ele>
        <time>2023-01-27T10:50:22.000Z</time>
      </trkpt>
      <trkpt lat="40.05635543726384639739990234375" lon="0.08870936930179595947265625">
        <ele>5.80000019073486328125</ele>
        <time>2023-01-27T10:50:23.000Z</time>
      </trkpt>
      <trkpt lat="40.0563308782875537872314453125" lon="0.08875303901731967926025390625">
        <ele>6</ele>
        <time>2023-01-27T10:50:24.000Z</time>
      </trkpt>
      <trkpt lat="40.0563080795109272003173828125" lon="0.08880056440830230712890625">
        <ele>6.19999980926513671875</ele>
        <time>2023-01-27T10:50:25.000Z</time>
      </trkpt>
      <trkpt lat="40.0562851130962371826171875" lon="0.08884959854185581207275390625">
        <ele>6.400000095367431640625</ele>
        <time>2023-01-27T10:50:26.000Z</time>
      </trkpt>
      <trkpt lat="40.0562685169279575347900390625" lon="0.08890072815120220184326171875">
        <ele>6.599999904632568359375</ele>
        <time>2023-01-27T10:50:27.000Z</time>
      </trkpt>
      <trkpt lat="40.0562510825693607330322265625" lon="0.08895152248442173004150390625">
        <ele>6.80000019073486328125</ele>
        <time>2023-01-27T10:50:28.000Z</time>
      </trkpt>
      <trkpt lat="40.0562373362481594085693359375" lon="0.0890024006366729736328125">
        <ele>7</ele>
        <time>2023-01-27T10:50:29.000Z</time>
      </trkpt>
      <trkpt lat="40.05622417666018009185791015625" lon="0.08905470371246337890625">
        <ele>7</ele>
        <time>2023-01-27T10:50:30.000Z</time>
      </trkpt>
      <trkpt lat="40.0562142021954059600830078125" lon="0.0891085155308246612548828125">
        <ele>7.19999980926513671875</ele>
        <time>2023-01-27T10:50:31.000Z</time>
      </trkpt>
      <trkpt lat="40.05620531737804412841796875" lon="0.089162327349185943603515625">
        <ele>7.400000095367431640625</ele>
        <time>2023-01-27T10:50:32.000Z</time>
      </trkpt>
      <trkpt lat="40.0561960972845554351806640625" lon="0.08921488188207149505615234375">
        <ele>7.599999904632568359375</ele>
        <time>2023-01-27T10:50:33.000Z</time>
      </trkpt>
      <trkpt lat="40.056189559400081634521484375" lon="0.08926936425268650054931640625">
        <ele>7.80000019073486328125</ele>
        <time>2023-01-27T10:50:34.000Z</time>
      </trkpt>
      <trkpt lat="40.056184194982051849365234375" lon="0.08932602591812610626220703125">
        <ele>8.3999996185302734375</ele>
        <time>2023-01-27T10:50:35.000Z</time>
      </trkpt>
      <trkpt lat="40.0561773218214511871337890625" lon="0.089382268488407135009765625">
        <ele>8.6000003814697265625</ele>
        <time>2023-01-27T10:50:36.000Z</time>
      </trkpt>
      <trkpt lat="40.05616617389023303985595703125" lon="0.0894501619040966033935546875">
        <ele>8.80000019073486328125</ele>
        <time>2023-01-27T10:50:37.000Z</time>
      </trkpt>
      <trkpt lat="40.05615779198706150054931640625" lon="0.08950908668339252471923828125">
        <ele>9</ele>
        <time>2023-01-27T10:50:38.000Z</time>
      </trkpt>
      <trkpt lat="40.056151337921619415283203125" lon="0.08955686353147029876708984375">
        <ele>9.19999980926513671875</ele>
        <time>2023-01-27T10:50:39.000Z</time>
      </trkpt>
      <trkpt lat="40.05614588968455791473388671875" lon="0.0896147824823856353759765625">
        <ele>9.6000003814697265625</ele>
        <time>2023-01-27T10:50:40.000Z</time>
      </trkpt>
      <trkpt lat="40.05614228546619415283203125" lon="0.08967337198555469512939453125">
        <ele>9.6000003814697265625</ele>
        <time>2023-01-27T10:50:41.000Z</time>
      </trkpt>
      <trkpt lat="40.0561387650668621063232421875" lon="0.0897445343434810638427734375">
        <ele>9.80000019073486328125</ele>
        <time>2023-01-27T10:50:42.000Z</time>
      </trkpt>
      <trkpt lat="40.05613398738205432891845703125" lon="0.0897909700870513916015625">
        <ele>10</ele>
        <time>2023-01-27T10:50:43.000Z</time>
      </trkpt>
      <trkpt lat="40.0561250187456607818603515625" lon="0.0898467935621738433837890625">
        <ele>10.19999980926513671875</ele>
        <time>2023-01-27T10:50:44.000Z</time>
      </trkpt>
      <trkpt lat="40.0561156310141086578369140625" lon="0.08990169502794742584228515625">
        <ele>10.3999996185302734375</ele>
        <time>2023-01-27T10:50:45.000Z</time>
      </trkpt>
      <trkpt lat="40.05610699765384197235107421875" lon="0.08995391428470611572265625">
        <ele>10.6000003814697265625</ele>
        <time>2023-01-27T10:50:46.000Z</time>
      </trkpt>
      <trkpt lat="40.05609878338873386383056640625" lon="0.0900067202746868133544921875">
        <ele>10.80000019073486328125</ele>
        <time>2023-01-27T10:50:47.000Z</time>
      </trkpt>
      <trkpt lat="40.05609040148556232452392578125" lon="0.09005877189338207244873046875">
        <ele>11.19999980926513671875</ele>
        <time>2023-01-27T10:50:48.000Z</time>
      </trkpt>
      <trkpt lat="40.05608260631561279296875" lon="0.09010990150272846221923828125">
        <ele>11.3999996185302734375</ele>
        <time>2023-01-27T10:50:49.000Z</time>
      </trkpt>
      <trkpt lat="40.0560780800879001617431640625" lon="0.09016086347401142120361328125">
        <ele>11.6000003814697265625</ele>
        <time>2023-01-27T10:50:50.000Z</time>
      </trkpt>
      <trkpt lat="40.05607883445918560028076171875" lon="0.0902092270553112030029296875">
        <ele>12</ele>
        <time>2023-01-27T10:50:51.000Z</time>
      </trkpt>
      <trkpt lat="40.056084282696247100830078125" lon="0.0902477838099002838134765625">
        <ele>12.19999980926513671875</ele>
        <time>2023-01-27T10:50:52.000Z</time>
      </trkpt>
      <trkpt lat="40.056095682084560394287109375" lon="0.09030570276081562042236328125">
        <ele>12.3999996185302734375</ele>
        <time>2023-01-27T10:50:53.000Z</time>
      </trkpt>
      <trkpt lat="40.05611144006252288818359375" lon="0.09035146795213222503662109375">
        <ele>12.6000003814697265625</ele>
        <time>2023-01-27T10:50:54.000Z</time>
      </trkpt>
      <trkpt lat="40.05612728185951709747314453125" lon="0.090386755764484405517578125">
        <ele>13</ele>
        <time>2023-01-27T10:50:55.000Z</time>
      </trkpt>
      <trkpt lat="40.0561511702835559844970703125" lon="0.0904355384409427642822265625">
        <ele>13</ele>
        <time>2023-01-27T10:50:56.000Z</time>
      </trkpt>
      <trkpt lat="40.05617271177470684051513671875" lon="0.09046512655913829803466796875">
        <ele>13.3999996185302734375</ele>
        <time>2023-01-27T10:50:57.000Z</time>
      </trkpt>
      <trkpt lat="40.0562098436057567596435546875" lon="0.09050368331372737884521484375">
        <ele>13.6000003814697265625</ele>
        <time>2023-01-27T10:50:58.000Z</time>
      </trkpt>
      <trkpt lat="40.0562423653900623321533203125" lon="0.0905317626893520355224609375">
        <ele>13.80000019073486328125</ele>
        <time>2023-01-27T10:50:59.000Z</time>
      </trkpt>
      <trkpt lat="40.0562795810401439666748046875" lon="0.0905592553317546844482421875">
        <ele>14.19999980926513671875</ele>
        <time>2023-01-27T10:51:00.000Z</time>
      </trkpt>
      <trkpt lat="40.0563174672424793243408203125" lon="0.090584568679332733154296875">
        <ele>14.19999980926513671875</ele>
        <time>2023-01-27T10:51:01.000Z</time>
      </trkpt>
      <trkpt lat="40.05635459907352924346923828125" lon="0.09060778655111789703369140625">
        <ele>14.3999996185302734375</ele>
        <time>2023-01-27T10:51:02.000Z</time>
      </trkpt>
      <trkpt lat="40.05639315582811832427978515625" lon="0.09062907658517360687255859375">
        <ele>14.6000003814697265625</ele>
        <time>2023-01-27T10:51:03.000Z</time>
      </trkpt>
      <trkpt lat="40.05643221549689769744873046875" lon="0.0906467624008655548095703125">
        <ele>14.80000019073486328125</ele>
        <time>2023-01-27T10:51:04.000Z</time>
      </trkpt>
      <trkpt lat="40.0564728677272796630859375" lon="0.090659670531749725341796875">
        <ele>15</ele>
        <time>2023-01-27T10:51:05.000Z</time>
      </trkpt>
      <trkpt lat="40.05651351995766162872314453125" lon="0.09066947735846042633056640625">
        <ele>15.19999980926513671875</ele>
        <time>2023-01-27T10:51:06.000Z</time>
      </trkpt>
      <trkpt lat="40.056558363139629364013671875" lon="0.09067869745194911956787109375">
        <ele>15.19999980926513671875</ele>
        <time>2023-01-27T10:51:07.000Z</time>
      </trkpt>
      <trkpt lat="40.05660354159772396087646484375" lon="0.09068791754543781280517578125">
        <ele>15.6000003814697265625</ele>
        <time>2023-01-27T10:51:08.000Z</time>
      </trkpt>
      <trkpt lat="40.05664779804646968841552734375" lon="0.09070099331438541412353515625">
        <ele>15.80000019073486328125</ele>
        <time>2023-01-27T10:51:09.000Z</time>
      </trkpt>
      <trkpt lat="40.0566963292658329010009765625" lon="0.09071725420653820037841796875">
        <ele>15.80000019073486328125</ele>
        <time>2023-01-27T10:51:10.000Z</time>
      </trkpt>
      <trkpt lat="40.05674502812325954437255859375" lon="0.09073703549802303314208984375">
        <ele>16</ele>
        <time>2023-01-27T10:51:11.000Z</time>
      </trkpt>
      <trkpt lat="40.0567974150180816650390625" lon="0.09076100774109363555908203125">
        <ele>16</ele>
        <time>2023-01-27T10:51:12.000Z</time>
      </trkpt>
      <trkpt lat="40.05685214884579181671142578125" lon="0.09078766219317913055419921875">
        <ele>16.200000762939453125</ele>
        <time>2023-01-27T10:51:13.000Z</time>
      </trkpt>
      <trkpt lat="40.0569072179496288299560546875" lon="0.09082085452973842620849609375">
        <ele>16.200000762939453125</ele>
        <time>2023-01-27T10:51:14.000Z</time>
      </trkpt>
      <trkpt lat="40.05696128122508525848388671875" lon="0.0908616743981838226318359375">
        <ele>16.200000762939453125</ele>
        <time>2023-01-27T10:51:15.000Z</time>
      </trkpt>
      <trkpt lat="40.05700939334928989410400390625" lon="0.0909169949591159820556640625">
        <ele>16.200000762939453125</ele>
        <time>2023-01-27T10:51:16.000Z</time>
      </trkpt>
      <trkpt lat="40.057051219046115875244140625" lon="0.09098463691771030426025390625">
        <ele>16.200000762939453125</ele>
        <time>2023-01-27T10:51:17.000Z</time>
      </trkpt>
      <trkpt lat="40.05709254182875156402587890625" lon="0.09106175042688846588134765625">
        <ele>16.200000762939453125</ele>
        <time>2023-01-27T10:51:18.000Z</time>
      </trkpt>
      <trkpt lat="40.0571308471262454986572265625" lon="0.0911406241357326507568359375">
        <ele>16</ele>
        <time>2023-01-27T10:51:19.000Z</time>
      </trkpt>
      <trkpt lat="40.05716278217732906341552734375" lon="0.09122720919549465179443359375">
        <ele>16</ele>
        <time>2023-01-27T10:51:20.000Z</time>
      </trkpt>
      <trkpt lat="40.0571797974407672882080078125" lon="0.09131521917879581451416015625">
        <ele>16</ele>
        <time>2023-01-27T10:51:21.000Z</time>
      </trkpt>
      <trkpt lat="40.0571844913065433502197265625" lon="0.09140591137111186981201171875">
        <ele>15.80000019073486328125</ele>
        <time>2023-01-27T10:51:22.000Z</time>
      </trkpt>
      <trkpt lat="40.05718306638300418853759765625" lon="0.09149543009698390960693359375">
        <ele>15.6000003814697265625</ele>
        <time>2023-01-27T10:51:23.000Z</time>
      </trkpt>
      <trkpt lat="40.05717585794627666473388671875" lon="0.0915791653096675872802734375">
        <ele>15.6000003814697265625</ele>
        <time>2023-01-27T10:51:24.000Z</time>
      </trkpt>
      <trkpt lat="40.05716688930988311767578125" lon="0.0916604697704315185546875">
        <ele>15.6000003814697265625</ele>
        <time>2023-01-27T10:51:25.000Z</time>
      </trkpt>
      <trkpt lat="40.057157836854457855224609375" lon="0.0917414389550685882568359375">
        <ele>15.80000019073486328125</ele>
        <time>2023-01-27T10:51:26.000Z</time>
      </trkpt>
      <trkpt lat="40.057151801884174346923828125" lon="0.0918175466358661651611328125">
        <ele>15.80000019073486328125</ele>
        <time>2023-01-27T10:51:27.000Z</time>
      </trkpt>
      <trkpt lat="40.05714702419936656951904296875" lon="0.09188904426991939544677734375">
        <ele>15.80000019073486328125</ele>
        <time>2023-01-27T10:51:28.000Z</time>
      </trkpt>
      <trkpt lat="40.0571455992758274078369140625" lon="0.09195484220981597900390625">
        <ele>16</ele>
        <time>2023-01-27T10:51:29.000Z</time>
      </trkpt>
      <trkpt lat="40.05715020932257175445556640625" lon="0.092016868293285369873046875">
        <ele>16</ele>
        <time>2023-01-27T10:51:30.000Z</time>
      </trkpt>
      <trkpt lat="40.05715859122574329376220703125" lon="0.0920740328729152679443359375">
        <ele>16.3999996185302734375</ele>
        <time>2023-01-27T10:51:31.000Z</time>
      </trkpt>
      <trkpt lat="40.05716957151889801025390625" lon="0.09213128127157688140869140625">
        <ele>16.6000003814697265625</ele>
        <time>2023-01-27T10:51:32.000Z</time>
      </trkpt>
      <trkpt lat="40.05718700587749481201171875" lon="0.092187859117984771728515625">
        <ele>17</ele>
        <time>2023-01-27T10:51:33.000Z</time>
      </trkpt>
      <trkpt lat="40.05720846354961395263671875" lon="0.09223856963217258453369140625">
        <ele>17.3999996185302734375</ele>
        <time>2023-01-27T10:51:34.000Z</time>
      </trkpt>
      <trkpt lat="40.05723528563976287841796875" lon="0.0922879390418529510498046875">
        <ele>17.799999237060546875</ele>
        <time>2023-01-27T10:51:35.000Z</time>
      </trkpt>
      <trkpt lat="40.05734684877097606658935546875" lon="0.0924797169864177703857421875">
        <ele>18.6000003814697265625</ele>
        <time>2023-01-27T10:51:39.000Z</time>
      </trkpt>
      <trkpt lat="40.05737752653658390045166015625" lon="0.092522799968719482421875">
        <ele>19</ele>
        <time>2023-01-27T10:51:40.000Z</time>
      </trkpt>
      <trkpt lat="40.05741298198699951171875" lon="0.09256638586521148681640625">
        <ele>19.200000762939453125</ele>
        <time>2023-01-27T10:51:41.000Z</time>
      </trkpt>
      <trkpt lat="40.0574553944170475006103515625" lon="0.0926030986011028289794921875">
        <ele>19.3999996185302734375</ele>
        <time>2023-01-27T10:51:42.000Z</time>
      </trkpt>
      <trkpt lat="40.05750459618866443634033203125" lon="0.0926379673182964324951171875">
        <ele>19.3999996185302734375</ele>
        <time>2023-01-27T10:51:43.000Z</time>
      </trkpt>
      <trkpt lat="40.057559497654438018798828125" lon="0.09267241694033145904541015625">
        <ele>19.6000003814697265625</ele>
        <time>2023-01-27T10:51:44.000Z</time>
      </trkpt>
      <trkpt lat="40.0576190091669559478759765625" lon="0.0927011668682098388671875">
        <ele>19.6000003814697265625</ele>
        <time>2023-01-27T10:51:45.000Z</time>
      </trkpt>
      <trkpt lat="40.0576813705265522003173828125" lon="0.09272865951061248779296875">
        <ele>19.6000003814697265625</ele>
        <time>2023-01-27T10:51:46.000Z</time>
      </trkpt>
      <trkpt lat="40.05774901248514652252197265625" lon="0.09275757707655429840087890625">
        <ele>19.6000003814697265625</ele>
        <time>2023-01-27T10:51:47.000Z</time>
      </trkpt>
      <trkpt lat="40.05782076157629489898681640625" lon="0.09278833866119384765625">
        <ele>19.6000003814697265625</ele>
        <time>2023-01-27T10:51:48.000Z</time>
      </trkpt>
      <trkpt lat="40.0578929297626018524169921875" lon="0.09282412938773632049560546875">
        <ele>19.6000003814697265625</ele>
        <time>2023-01-27T10:51:49.000Z</time>
      </trkpt>
      <trkpt lat="40.05796484649181365966796875" lon="0.092873834073543548583984375">
        <ele>19.3999996185302734375</ele>
        <time>2023-01-27T10:51:50.000Z</time>
      </trkpt>
      <trkpt lat="40.058040954172611236572265625" lon="0.09293259121477603912353515625">
        <ele>19</ele>
        <time>2023-01-27T10:51:51.000Z</time>
      </trkpt>
      <trkpt lat="40.05811639130115509033203125" lon="0.09299864061176776885986328125">
        <ele>18.799999237060546875</ele>
        <time>2023-01-27T10:51:52.000Z</time>
      </trkpt>
      <trkpt lat="40.05818235687911510467529296875" lon="0.09307441301643848419189453125">
        <ele>18.3999996185302734375</ele>
        <time>2023-01-27T10:51:53.000Z</time>
      </trkpt>
      <trkpt lat="40.05824287422001361846923828125" lon="0.09315705858170986175537109375">
        <ele>18</ele>
        <time>2023-01-27T10:51:54.000Z</time>
      </trkpt>
      <trkpt lat="40.058289729058742523193359375" lon="0.0932464934885501861572265625">
        <ele>17.6000003814697265625</ele>
        <time>2023-01-27T10:51:55.000Z</time>
      </trkpt>
      <trkpt lat="40.05832920782268047332763671875" lon="0.09333944879472255706787109375">
        <ele>17</ele>
        <time>2023-01-27T10:51:56.000Z</time>
      </trkpt>
      <trkpt lat="40.05836072377860546112060546875" lon="0.093436427414417266845703125">
        <ele>16.6000003814697265625</ele>
        <time>2023-01-27T10:51:57.000Z</time>
      </trkpt>
      <trkpt lat="40.05839441902935504913330078125" lon="0.0936253555119037628173828125">
        <ele>16.200000762939453125</ele>
        <time>2023-01-27T10:51:59.000Z</time>
      </trkpt>
      <trkpt lat="40.05840229801833629608154296875" lon="0.09372518397867679595947265625">
        <ele>15.6000003814697265625</ele>
        <time>2023-01-27T10:52:00.000Z</time>
      </trkpt>
      <trkpt lat="40.058410428464412689208984375" lon="0.09382928721606731414794921875">
        <ele>15.19999980926513671875</ele>
        <time>2023-01-27T10:52:01.000Z</time>
      </trkpt>
      <trkpt lat="40.05841805599629878997802734375" lon="0.0939324684441089630126953125">
        <ele>14.3999996185302734375</ele>
        <time>2023-01-27T10:52:02.000Z</time>
      </trkpt>
      <trkpt lat="40.05842392332851886749267578125" lon="0.0940303690731525421142578125">
        <ele>14.19999980926513671875</ele>
        <time>2023-01-27T10:52:03.000Z</time>
      </trkpt>
      <trkpt lat="40.0584273599088191986083984375" lon="0.0941208936274051666259765625">
        <ele>13.6000003814697265625</ele>
        <time>2023-01-27T10:52:04.000Z</time>
      </trkpt>
      <trkpt lat="40.05842886865139007568359375" lon="0.09420194663107395172119140625">
        <ele>13.3999996185302734375</ele>
        <time>2023-01-27T10:52:05.000Z</time>
      </trkpt>
      <trkpt lat="40.05843020975589752197265625" lon="0.09427570737898349761962890625">
        <ele>13</ele>
        <time>2023-01-27T10:52:06.000Z</time>
      </trkpt>
      <trkpt lat="40.0584310479462146759033203125" lon="0.0943522341549396514892578125">
        <ele>12.80000019073486328125</ele>
        <time>2023-01-27T10:52:07.000Z</time>
      </trkpt>
      <trkpt lat="40.05842761136591434478759765625" lon="0.09451844729483127593994140625">
        <ele>12.19999980926513671875</ele>
        <time>2023-01-27T10:52:09.000Z</time>
      </trkpt>
      <trkpt lat="40.05843096412718296051025390625" lon="0.09460662491619586944580078125">
        <ele>12</ele>
        <time>2023-01-27T10:52:10.000Z</time>
      </trkpt>
      <trkpt lat="40.0584545172750949859619140625" lon="0.09488356299698352813720703125">
        <ele>11.6000003814697265625</ele>
        <time>2023-01-27T10:52:13.000Z</time>
      </trkpt>
      <trkpt lat="40.0584729574620723724365234375" lon="0.0951649434864521026611328125">
        <ele>11.19999980926513671875</ele>
        <time>2023-01-27T10:52:16.000Z</time>
      </trkpt>
      <trkpt lat="40.05847471766173839569091796875" lon="0.09525823406875133514404296875">
        <ele>11</ele>
        <time>2023-01-27T10:52:17.000Z</time>
      </trkpt>
      <trkpt lat="40.05847790278494358062744140625" lon="0.09535077027976512908935546875">
        <ele>10.80000019073486328125</ele>
        <time>2023-01-27T10:52:18.000Z</time>
      </trkpt>
      <trkpt lat="40.058503635227680206298828125" lon="0.0958147086203098297119140625">
        <ele>10.6000003814697265625</ele>
        <time>2023-01-27T10:52:23.000Z</time>
      </trkpt>
      <trkpt lat="40.05851914174854755401611328125" lon="0.09599265642464160919189453125">
        <ele>10.6000003814697265625</ele>
        <time>2023-01-27T10:52:25.000Z</time>
      </trkpt>
      <trkpt lat="40.058549903333187103271484375" lon="0.09625601582229137420654296875">
        <ele>10.3999996185302734375</ele>
        <time>2023-01-27T10:52:28.000Z</time>
      </trkpt>
      <trkpt lat="40.05856943316757678985595703125" lon="0.09634117595851421356201171875">
        <ele>10.3999996185302734375</ele>
        <time>2023-01-27T10:52:29.000Z</time>
      </trkpt>
      <trkpt lat="40.058595836162567138671875" lon="0.09642197750508785247802734375">
        <ele>10.3999996185302734375</ele>
        <time>2023-01-27T10:52:30.000Z</time>
      </trkpt>
      <trkpt lat="40.05866683088243007659912109375" lon="0.0965727679431438446044921875">
        <ele>10.3999996185302734375</ele>
        <time>2023-01-27T10:52:32.000Z</time>
      </trkpt>
      <trkpt lat="40.0587079860270023345947265625" lon="0.0966435112059116363525390625">
        <ele>10.3999996185302734375</ele>
        <time>2023-01-27T10:52:33.000Z</time>
      </trkpt>
      <trkpt lat="40.05890630185604095458984375" lon="0.0968788750469684600830078125">
        <ele>10.19999980926513671875</ele>
        <time>2023-01-27T10:52:37.000Z</time>
      </trkpt>
      <trkpt lat="40.0591220520436763763427734375" lon="0.09709102101624011993408203125">
        <ele>10.19999980926513671875</ele>
        <time>2023-01-27T10:52:41.000Z</time>
      </trkpt>
      <trkpt lat="40.0592328608036041259765625" lon="0.09717768989503383636474609375">
        <ele>10.3999996185302734375</ele>
        <time>2023-01-27T10:52:43.000Z</time>
      </trkpt>
      <trkpt lat="40.05934224463999271392822265625" lon="0.09725195355713367462158203125">
        <ele>10.3999996185302734375</ele>
        <time>2023-01-27T10:52:45.000Z</time>
      </trkpt>
      <trkpt lat="40.05939957685768604278564453125" lon="0.09727894328534603118896484375">
        <ele>10.3999996185302734375</ele>
        <time>2023-01-27T10:52:46.000Z</time>
      </trkpt>
      <trkpt lat="40.05946093238890171051025390625" lon="0.09730182588100433349609375">
        <ele>10.6000003814697265625</ele>
        <time>2023-01-27T10:52:47.000Z</time>
      </trkpt>
      <trkpt lat="40.0595210306346416473388671875" lon="0.09732504375278949737548828125">
        <ele>10.6000003814697265625</ele>
        <time>2023-01-27T10:52:48.000Z</time>
      </trkpt>
      <trkpt lat="40.05958221852779388427734375" lon="0.09734884835779666900634765625">
        <ele>10.80000019073486328125</ele>
        <time>2023-01-27T10:52:49.000Z</time>
      </trkpt>
      <trkpt lat="40.05970434285700321197509765625" lon="0.0973931886255741119384765625">
        <ele>11</ele>
        <time>2023-01-27T10:52:51.000Z</time>
      </trkpt>
      <trkpt lat="40.05989645607769489288330078125" lon="0.09743266738951206207275390625">
        <ele>11.19999980926513671875</ele>
        <time>2023-01-27T10:52:54.000Z</time>
      </trkpt>
      <trkpt lat="40.05996049381792545318603515625" lon="0.09744406677782535552978515625">
        <ele>11.3999996185302734375</ele>
        <time>2023-01-27T10:52:55.000Z</time>
      </trkpt>
      <trkpt lat="40.06002386100590229034423828125" lon="0.0974501855671405792236328125">
        <ele>11.3999996185302734375</ele>
        <time>2023-01-27T10:52:56.000Z</time>
      </trkpt>
      <trkpt lat="40.06042216904461383819580078125" lon="0.097477175295352935791015625">
        <ele>12</ele>
        <time>2023-01-27T10:53:02.000Z</time>
      </trkpt>
      <trkpt lat="40.0604881346225738525390625" lon="0.097489915788173675537109375">
        <ele>12</ele>
        <time>2023-01-27T10:53:03.000Z</time>
      </trkpt>
      <trkpt lat="40.06076029501855373382568359375" lon="0.09758773259818553924560546875">
        <ele>12.3999996185302734375</ele>
        <time>2023-01-27T10:53:07.000Z</time>
      </trkpt>
      <trkpt lat="40.06105667911469936370849609375" lon="0.0977274589240550994873046875">
        <ele>13</ele>
        <time>2023-01-27T10:53:12.000Z</time>
      </trkpt>
      <trkpt lat="40.0612326152622699737548828125" lon="0.09783969260752201080322265625">
        <ele>13.3999996185302734375</ele>
        <time>2023-01-27T10:53:15.000Z</time>
      </trkpt>
      <trkpt lat="40.0612892769277095794677734375" lon="0.0978773273527622222900390625">
        <ele>13.6000003814697265625</ele>
        <time>2023-01-27T10:53:16.000Z</time>
      </trkpt>
      <trkpt lat="40.0613459385931491851806640625" lon="0.09791295044124126434326171875">
        <ele>13.80000019073486328125</ele>
        <time>2023-01-27T10:53:17.000Z</time>
      </trkpt>
      <trkpt lat="40.06146135739982128143310546875" lon="0.09797380305826663970947265625">
        <ele>14.19999980926513671875</ele>
        <time>2023-01-27T10:53:19.000Z</time>
      </trkpt>
      <trkpt lat="40.06151684559881687164306640625" lon="0.098002217710018157958984375">
        <ele>14.3999996185302734375</ele>
        <time>2023-01-27T10:53:20.000Z</time>
      </trkpt>
      <trkpt lat="40.06158255971968173980712890625" lon="0.09803817607462406158447265625">
        <ele>14.80000019073486328125</ele>
        <time>2023-01-27T10:53:21.000Z</time>
      </trkpt>
      <trkpt lat="40.06162530742585659027099609375" lon="0.09806382469832897186279296875">
        <ele>14.80000019073486328125</ele>
        <time>2023-01-27T10:53:22.000Z</time>
      </trkpt>
      <trkpt lat="40.061678029596805572509765625" lon="0.0980965979397296905517578125">
        <ele>15</ele>
        <time>2023-01-27T10:53:23.000Z</time>
      </trkpt>
      <trkpt lat="40.06172857247292995452880859375" lon="0.09812987409532070159912109375">
        <ele>15.19999980926513671875</ele>
        <time>2023-01-27T10:53:24.000Z</time>
      </trkpt>
      <trkpt lat="40.06177903153002262115478515625" lon="0.098160803318023681640625">
        <ele>15.19999980926513671875</ele>
        <time>2023-01-27T10:53:25.000Z</time>
      </trkpt>
      <trkpt lat="40.06182865239679813385009765625" lon="0.09818720631301403045654296875">
        <ele>15.3999996185302734375</ele>
        <time>2023-01-27T10:53:26.000Z</time>
      </trkpt>
      <trkpt lat="40.06187626160681247711181640625" lon="0.09821268729865550994873046875">
        <ele>15.3999996185302734375</ele>
        <time>2023-01-27T10:53:27.000Z</time>
      </trkpt>
      <trkpt lat="40.061924457550048828125" lon="0.09823816828429698944091796875">
        <ele>15.80000019073486328125</ele>
        <time>2023-01-27T10:53:28.000Z</time>
      </trkpt>
      <trkpt lat="40.06197148002684116363525390625" lon="0.09826582856476306915283203125">
        <ele>16</ele>
        <time>2023-01-27T10:53:29.000Z</time>
      </trkpt>
      <trkpt lat="40.06201473064720630645751953125" lon="0.0982935726642608642578125">
        <ele>16.200000762939453125</ele>
        <time>2023-01-27T10:53:30.000Z</time>
      </trkpt>
      <trkpt lat="40.0620567239820957183837890625" lon="0.0983255915343761444091796875">
        <ele>16.3999996185302734375</ele>
        <time>2023-01-27T10:53:31.000Z</time>
      </trkpt>
      <trkpt lat="40.06209586746990680694580078125" lon="0.09835702367126941680908203125">
        <ele>16.6000003814697265625</ele>
        <time>2023-01-27T10:53:32.000Z</time>
      </trkpt>
      <trkpt lat="40.06213157437741756439208984375" lon="0.09839055128395557403564453125">
        <ele>16.799999237060546875</ele>
        <time>2023-01-27T10:53:33.000Z</time>
      </trkpt>
      <trkpt lat="40.062160156667232513427734375" lon="0.0984285213053226470947265625">
        <ele>17</ele>
        <time>2023-01-27T10:53:34.000Z</time>
      </trkpt>
      <trkpt lat="40.06218572147190570831298828125" lon="0.09847068227827548980712890625">
        <ele>17.3999996185302734375</ele>
        <time>2023-01-27T10:53:35.000Z</time>
      </trkpt>
      <trkpt lat="40.06221002899110317230224609375" lon="0.09851284325122833251953125">
        <ele>17.6000003814697265625</ele>
        <time>2023-01-27T10:53:36.000Z</time>
      </trkpt>
      <trkpt lat="40.0622411258518695831298828125" lon="0.09855265729129314422607421875">
        <ele>17.799999237060546875</ele>
        <time>2023-01-27T10:53:37.000Z</time>
      </trkpt>
      <trkpt lat="40.0622798502445220947265625" lon="0.09858526289463043212890625">
        <ele>18.200000762939453125</ele>
        <time>2023-01-27T10:53:38.000Z</time>
      </trkpt>
      <trkpt lat="40.06232134066522121429443359375" lon="0.09860496036708354949951171875">
        <ele>18.3999996185302734375</ele>
        <time>2023-01-27T10:53:39.000Z</time>
      </trkpt>
      <trkpt lat="40.06236861459910869598388671875" lon="0.098607055842876434326171875">
        <ele>18.799999237060546875</ele>
        <time>2023-01-27T10:53:40.000Z</time>
      </trkpt>
      <trkpt lat="40.0624295510351657867431640625" lon="0.0985971651971340179443359375">
        <ele>19.3999996185302734375</ele>
        <time>2023-01-27T10:53:41.000Z</time>
      </trkpt>
      <trkpt lat="40.06248093210160732269287109375" lon="0.09859330952167510986328125">
        <ele>19.3999996185302734375</ele>
        <time>2023-01-27T10:53:42.000Z</time>
      </trkpt>
      <trkpt lat="40.06252326071262359619140625" lon="0.09859758429229259490966796875">
        <ele>19.799999237060546875</ele>
        <time>2023-01-27T10:53:43.000Z</time>
      </trkpt>
      <trkpt lat="40.0625764019787311553955078125" lon="0.0986102409660816192626953125">
        <ele>20</ele>
        <time>2023-01-27T10:53:44.000Z</time>
      </trkpt>
      <trkpt lat="40.06262795068323612213134765625" lon="0.09862708859145641326904296875">
        <ele>20.200000762939453125</ele>
        <time>2023-01-27T10:53:45.000Z</time>
      </trkpt>
      <trkpt lat="40.062678158283233642578125" lon="0.098648965358734130859375">
        <ele>20.3999996185302734375</ele>
        <time>2023-01-27T10:53:46.000Z</time>
      </trkpt>
      <trkpt lat="40.062728784978389739990234375" lon="0.09866832755506038665771484375">
        <ele>20.3999996185302734375</ele>
        <time>2023-01-27T10:53:47.000Z</time>
      </trkpt>
      <trkpt lat="40.06277580745518207550048828125" lon="0.09868995286524295806884765625">
        <ele>20.799999237060546875</ele>
        <time>2023-01-27T10:53:48.000Z</time>
      </trkpt>
      <trkpt lat="40.06282039918005466461181640625" lon="0.09870789013803005218505859375">
        <ele>20.799999237060546875</ele>
        <time>2023-01-27T10:53:49.000Z</time>
      </trkpt>
      <trkpt lat="40.06286432035267353057861328125" lon="0.09872767142951488494873046875">
        <ele>21</ele>
        <time>2023-01-27T10:53:50.000Z</time>
      </trkpt>
      <trkpt lat="40.0629083253443241119384765625" lon="0.09874678216874599456787109375">
        <ele>21</ele>
        <time>2023-01-27T10:53:51.000Z</time>
      </trkpt>
      <trkpt lat="40.06295920349657535552978515625" lon="0.09876740165054798126220703125">
        <ele>21.200000762939453125</ele>
        <time>2023-01-27T10:53:52.000Z</time>
      </trkpt>
      <trkpt lat="40.06299256347119808197021484375" lon="0.09878450073301792144775390625">
        <ele>21.3999996185302734375</ele>
        <time>2023-01-27T10:53:53.000Z</time>
      </trkpt>
      <trkpt lat="40.06303229369223117828369140625" lon="0.098807550966739654541015625">
        <ele>21.6000003814697265625</ele>
        <time>2023-01-27T10:53:54.000Z</time>
      </trkpt>
      <trkpt lat="40.063072778284549713134765625" lon="0.098831020295619964599609375">
        <ele>21.799999237060546875</ele>
        <time>2023-01-27T10:53:55.000Z</time>
      </trkpt>
      <trkpt lat="40.06311192177236080169677734375" lon="0.09885272942483425140380859375">
        <ele>22.200000762939453125</ele>
        <time>2023-01-27T10:53:56.000Z</time>
      </trkpt>
      <trkpt lat="40.06315198726952075958251953125" lon="0.0988724268972873687744140625">
        <ele>22.3999996185302734375</ele>
        <time>2023-01-27T10:53:57.000Z</time>
      </trkpt>
      <trkpt lat="40.06319255568087100982666015625" lon="0.09889145381748676300048828125">
        <ele>22.6000003814697265625</ele>
        <time>2023-01-27T10:53:58.000Z</time>
      </trkpt>
      <trkpt lat="40.0632342137396335601806640625" lon="0.09891307912766933441162109375">
        <ele>23</ele>
        <time>2023-01-27T10:53:59.000Z</time>
      </trkpt>
      <trkpt lat="40.063273273408412933349609375" lon="0.0989357940852642059326171875">
        <ele>23.200000762939453125</ele>
        <time>2023-01-27T10:54:00.000Z</time>
      </trkpt>
      <trkpt lat="40.06331459619104862213134765625" lon="0.09895985014736652374267578125">
        <ele>23.3999996185302734375</ele>
        <time>2023-01-27T10:54:01.000Z</time>
      </trkpt>
      <trkpt lat="40.0633589364588260650634765625" lon="0.09898533113300800323486328125">
        <ele>23.6000003814697265625</ele>
        <time>2023-01-27T10:54:02.000Z</time>
      </trkpt>
      <trkpt lat="40.063405372202396392822265625" lon="0.09900745935738086700439453125">
        <ele>24</ele>
        <time>2023-01-27T10:54:03.000Z</time>
      </trkpt>
      <trkpt lat="40.0634504668414592742919921875" lon="0.099029839038848876953125">
        <ele>24.200000762939453125</ele>
        <time>2023-01-27T10:54:04.000Z</time>
      </trkpt>
      <trkpt lat="40.0634953938424587249755859375" lon="0.09905322454869747161865234375">
        <ele>24.6000003814697265625</ele>
        <time>2023-01-27T10:54:05.000Z</time>
      </trkpt>
      <trkpt lat="40.06354057230055332183837890625" lon="0.09907434694468975067138671875">
        <ele>24.799999237060546875</ele>
        <time>2023-01-27T10:54:06.000Z</time>
      </trkpt>
      <trkpt lat="40.06358650512993335723876953125" lon="0.09909396059811115264892578125">
        <ele>25</ele>
        <time>2023-01-27T10:54:07.000Z</time>
      </trkpt>
      <trkpt lat="40.06364098750054836273193359375" lon="0.0991196930408477783203125">
        <ele>25</ele>
        <time>2023-01-27T10:54:08.000Z</time>
      </trkpt>
      <trkpt lat="40.0636740960180759429931640625" lon="0.0991356186568737030029296875">
        <ele>25</ele>
        <time>2023-01-27T10:54:09.000Z</time>
      </trkpt>
      <trkpt lat="40.0637146644294261932373046875" lon="0.099157579243183135986328125">
        <ele>25.200000762939453125</ele>
        <time>2023-01-27T10:54:10.000Z</time>
      </trkpt>
      <trkpt lat="40.06375665776431560516357421875" lon="0.09918079711496829986572265625">
        <ele>25.6000003814697265625</ele>
        <time>2023-01-27T10:54:11.000Z</time>
      </trkpt>
      <trkpt lat="40.06380074657499790191650390625" lon="0.09920426644384860992431640625">
        <ele>26</ele>
        <time>2023-01-27T10:54:12.000Z</time>
      </trkpt>
      <trkpt lat="40.0638464279472827911376953125" lon="0.0992294959723949432373046875">
        <ele>26.200000762939453125</ele>
        <time>2023-01-27T10:54:13.000Z</time>
      </trkpt>
      <trkpt lat="40.0638913549482822418212890625" lon="0.09925288148224353790283203125">
        <ele>26.6000003814697265625</ele>
        <time>2023-01-27T10:54:14.000Z</time>
      </trkpt>
      <trkpt lat="40.06393955089151859283447265625" lon="0.0992744229733943939208984375">
        <ele>26.799999237060546875</ele>
        <time>2023-01-27T10:54:15.000Z</time>
      </trkpt>
      <trkpt lat="40.06398699246346950531005859375" lon="0.0992967188358306884765625">
        <ele>26.799999237060546875</ele>
        <time>2023-01-27T10:54:16.000Z</time>
      </trkpt>
      <trkpt lat="40.06403594277799129486083984375" lon="0.09931842796504497528076171875">
        <ele>26.799999237060546875</ele>
        <time>2023-01-27T10:54:17.000Z</time>
      </trkpt>
      <trkpt lat="40.0640941970050334930419921875" lon="0.09934189729392528533935546875">
        <ele>27.200000762939453125</ele>
        <time>2023-01-27T10:54:18.000Z</time>
      </trkpt>
      <trkpt lat="40.0641320832073688507080078125" lon="0.099360086023807525634765625">
        <ele>27.3999996185302734375</ele>
        <time>2023-01-27T10:54:19.000Z</time>
      </trkpt>
      <trkpt lat="40.064174495637416839599609375" lon="0.09938682429492473602294921875">
        <ele>27.3999996185302734375</ele>
        <time>2023-01-27T10:54:20.000Z</time>
      </trkpt>
      <trkpt lat="40.064216069877147674560546875" lon="0.0994149036705493927001953125">
        <ele>27.3999996185302734375</ele>
        <time>2023-01-27T10:54:21.000Z</time>
      </trkpt>
      <trkpt lat="40.06425722502171993255615234375" lon="0.09944356977939605712890625">
        <ele>27.6000003814697265625</ele>
        <time>2023-01-27T10:54:22.000Z</time>
      </trkpt>
      <trkpt lat="40.0642995536327362060546875" lon="0.09947047568857669830322265625">
        <ele>27.799999237060546875</ele>
        <time>2023-01-27T10:54:23.000Z</time>
      </trkpt>
      <trkpt lat="40.06434154696762561798095703125" lon="0.09949478320777416229248046875">
        <ele>28</ele>
        <time>2023-01-27T10:54:24.000Z</time>
      </trkpt>
      <trkpt lat="40.06437893025577068328857421875" lon="0.09952328167855739593505859375">
        <ele>28.3999996185302734375</ele>
        <time>2023-01-27T10:54:25.000Z</time>
      </trkpt>
      <trkpt lat="40.0644130446016788482666015625" lon="0.0995610840618610382080078125">
        <ele>28.3999996185302734375</ele>
        <time>2023-01-27T10:54:26.000Z</time>
      </trkpt>
      <trkpt lat="40.06444967351853847503662109375" lon="0.0996019877493381500244140625">
        <ele>29.200000762939453125</ele>
        <time>2023-01-27T10:54:27.000Z</time>
      </trkpt>
      <trkpt lat="40.064485967159271240234375" lon="0.0996415503323078155517578125">
        <ele>29.3999996185302734375</ele>
        <time>2023-01-27T10:54:28.000Z</time>
      </trkpt>
      <trkpt lat="40.06452343426644802093505859375" lon="0.09967935271561145782470703125">
        <ele>29.799999237060546875</ele>
        <time>2023-01-27T10:54:29.000Z</time>
      </trkpt>
      <trkpt lat="40.06456132046878337860107421875" lon="0.09971858002245426177978515625">
        <ele>30</ele>
        <time>2023-01-27T10:54:30.000Z</time>
      </trkpt>
      <trkpt lat="40.0645981170237064361572265625" lon="0.09975898079574108123779296875">
        <ele>30.200000762939453125</ele>
        <time>2023-01-27T10:54:31.000Z</time>
      </trkpt>
      <trkpt lat="40.06463407538831233978271484375" lon="0.09980072267353534698486328125">
        <ele>30.3999996185302734375</ele>
        <time>2023-01-27T10:54:32.000Z</time>
      </trkpt>
      <trkpt lat="40.0646696984767913818359375" lon="0.0998413749039173126220703125">
        <ele>30.6000003814697265625</ele>
        <time>2023-01-27T10:54:33.000Z</time>
      </trkpt>
      <trkpt lat="40.0647050701081752777099609375" lon="0.0998816080391407012939453125">
        <ele>30.799999237060546875</ele>
        <time>2023-01-27T10:54:34.000Z</time>
      </trkpt>
      <trkpt lat="40.064739771187305450439453125" lon="0.09992259554564952850341796875">
        <ele>30.799999237060546875</ele>
        <time>2023-01-27T10:54:35.000Z</time>
      </trkpt>
      <trkpt lat="40.06477338261902332305908203125" lon="0.09996316395699977874755859375">
        <ele>30.799999237060546875</ele>
        <time>2023-01-27T10:54:36.000Z</time>
      </trkpt>
      <trkpt lat="40.06480540148913860321044921875" lon="0.1000046543776988983154296875">
        <ele>30.799999237060546875</ele>
        <time>2023-01-27T10:54:37.000Z</time>
      </trkpt>
      <trkpt lat="40.0648358277976512908935546875" lon="0.10004413314163684844970703125">
        <ele>30.799999237060546875</ele>
        <time>2023-01-27T10:54:38.000Z</time>
      </trkpt>
      <trkpt lat="40.06486809812486171722412109375" lon="0.1000824384391307830810546875">
        <ele>30.799999237060546875</ele>
        <time>2023-01-27T10:54:39.000Z</time>
      </trkpt>
      <trkpt lat="40.0648998655378818511962890625" lon="0.10012040846049785614013671875">
        <ele>31</ele>
        <time>2023-01-27T10:54:40.000Z</time>
      </trkpt>
      <trkpt lat="40.06493389606475830078125" lon="0.10015812702476978302001953125">
        <ele>31.200000762939453125</ele>
        <time>2023-01-27T10:54:41.000Z</time>
      </trkpt>
      <trkpt lat="40.06497102789580821990966796875" lon="0.1001979410648345947265625">
        <ele>31.200000762939453125</ele>
        <time>2023-01-27T10:54:42.000Z</time>
      </trkpt>
      <trkpt lat="40.06500002928078174591064453125" lon="0.10024043731391429901123046875">
        <ele>31.6000003814697265625</ele>
        <time>2023-01-27T10:54:43.000Z</time>
      </trkpt>
      <trkpt lat="40.06502844393253326416015625" lon="0.10028385557234287261962890625">
        <ele>31.6000003814697265625</ele>
        <time>2023-01-27T10:54:44.000Z</time>
      </trkpt>
      <trkpt lat="40.06506004370748996734619140625" lon="0.10032610036432743072509765625">
        <ele>32</ele>
        <time>2023-01-27T10:54:45.000Z</time>
      </trkpt>
      <trkpt lat="40.065092481672763824462890625" lon="0.1003680936992168426513671875">
        <ele>32.200000762939453125</ele>
        <time>2023-01-27T10:54:46.000Z</time>
      </trkpt>
      <trkpt lat="40.06512458436191082000732421875" lon="0.10041109286248683929443359375">
        <ele>32.40000152587890625</ele>
        <time>2023-01-27T10:54:47.000Z</time>
      </trkpt>
      <trkpt lat="40.0651538372039794921875" lon="0.10045199654996395111083984375">
        <ele>32.799999237060546875</ele>
        <time>2023-01-27T10:54:48.000Z</time>
      </trkpt>
      <trkpt lat="40.06518132984638214111328125" lon="0.10048937983810901641845703125">
        <ele>33.200000762939453125</ele>
        <time>2023-01-27T10:54:49.000Z</time>
      </trkpt>
      <trkpt lat="40.065209828317165374755859375" lon="0.10052776895463466644287109375">
        <ele>33.40000152587890625</ele>
        <time>2023-01-27T10:54:50.000Z</time>
      </trkpt>
      <trkpt lat="40.06523790769279003143310546875" lon="0.1005692593753337860107421875">
        <ele>33.799999237060546875</ele>
        <time>2023-01-27T10:54:51.000Z</time>
      </trkpt>
      <trkpt lat="40.0652676634490489959716796875" lon="0.100612342357635498046875">
        <ele>34</ele>
        <time>2023-01-27T10:54:52.000Z</time>
      </trkpt>
      <trkpt lat="40.0652948208153247833251953125" lon="0.10065400041639804840087890625">
        <ele>34</ele>
        <time>2023-01-27T10:54:53.000Z</time>
      </trkpt>
      <trkpt lat="40.06532214581966400146484375" lon="0.100695155560970306396484375">
        <ele>34.200000762939453125</ele>
        <time>2023-01-27T10:54:54.000Z</time>
      </trkpt>
      <trkpt lat="40.06534838117659091949462890625" lon="0.100732035934925079345703125">
        <ele>34.40000152587890625</ele>
        <time>2023-01-27T10:54:55.000Z</time>
      </trkpt>
      <trkpt lat="40.06537553854286670684814453125" lon="0.1007680781185626983642578125">
        <ele>34.799999237060546875</ele>
        <time>2023-01-27T10:54:56.000Z</time>
      </trkpt>
      <trkpt lat="40.0654021091759204864501953125" lon="0.10080479085445404052734375">
        <ele>35</ele>
        <time>2023-01-27T10:54:57.000Z</time>
      </trkpt>
      <trkpt lat="40.06542767398059368133544921875" lon="0.10084494017064571380615234375">
        <ele>35.40000152587890625</ele>
        <time>2023-01-27T10:54:58.000Z</time>
      </trkpt>
      <trkpt lat="40.06545365788042545318603515625" lon="0.1008807308971881866455078125">
        <ele>35.40000152587890625</ele>
        <time>2023-01-27T10:54:59.000Z</time>
      </trkpt>
      <trkpt lat="40.0654798932373523712158203125" lon="0.10091207921504974365234375">
        <ele>35.799999237060546875</ele>
        <time>2023-01-27T10:55:00.000Z</time>
      </trkpt>
      <trkpt lat="40.06550545804202556610107421875" lon="0.10094351135194301605224609375">
        <ele>36.200000762939453125</ele>
        <time>2023-01-27T10:55:01.000Z</time>
      </trkpt>
      <trkpt lat="40.06553077138960361480712890625" lon="0.10097569786012172698974609375">
        <ele>36.40000152587890625</ele>
        <time>2023-01-27T10:55:02.000Z</time>
      </trkpt>
      <trkpt lat="40.06555474363267421722412109375" lon="0.1010057888925075531005859375">
        <ele>37</ele>
        <time>2023-01-27T10:55:03.000Z</time>
      </trkpt>
      <trkpt lat="40.06558022461831569671630859375" lon="0.10103319771587848663330078125">
        <ele>37.200000762939453125</ele>
        <time>2023-01-27T10:55:04.000Z</time>
      </trkpt>
      <trkpt lat="40.065605454146862030029296875" lon="0.101061277091503143310546875">
        <ele>37.40000152587890625</ele>
        <time>2023-01-27T10:55:05.000Z</time>
      </trkpt>
      <trkpt lat="40.06563018076121807098388671875" lon="0.10109120048582553863525390625">
        <ele>37.59999847412109375</ele>
        <time>2023-01-27T10:55:06.000Z</time>
      </trkpt>
      <trkpt lat="40.06565398536622524261474609375" lon="0.10112129151821136474609375">
        <ele>37.799999237060546875</ele>
        <time>2023-01-27T10:55:07.000Z</time>
      </trkpt>
      <trkpt lat="40.06567929871380329132080078125" lon="0.10115892626345157623291015625">
        <ele>38</ele>
        <time>2023-01-27T10:55:08.000Z</time>
      </trkpt>
      <trkpt lat="40.0657005049288272857666015625" lon="0.10119102895259857177734375">
        <ele>38.200000762939453125</ele>
        <time>2023-01-27T10:55:09.000Z</time>
      </trkpt>
      <trkpt lat="40.0657152570784091949462890625" lon="0.10121776722371578216552734375">
        <ele>38.40000152587890625</ele>
        <time>2023-01-27T10:55:10.000Z</time>
      </trkpt>
      <trkpt lat="40.06573495455086231231689453125" lon="0.101255066692829132080078125">
        <ele>38.799999237060546875</ele>
        <time>2023-01-27T10:55:11.000Z</time>
      </trkpt>
      <trkpt lat="40.06575356237590312957763671875" lon="0.10128951631486415863037109375">
        <ele>39</ele>
        <time>2023-01-27T10:55:12.000Z</time>
      </trkpt>
      <trkpt lat="40.06577678024768829345703125" lon="0.1013212837278842926025390625">
        <ele>39.40000152587890625</ele>
        <time>2023-01-27T10:55:13.000Z</time>
      </trkpt>
      <trkpt lat="40.06580033339560031890869140625" lon="0.10135120712220668792724609375">
        <ele>39.799999237060546875</ele>
        <time>2023-01-27T10:55:14.000Z</time>
      </trkpt>
      <trkpt lat="40.06582506000995635986328125" lon="0.1013767719268798828125">
        <ele>40</ele>
        <time>2023-01-27T10:55:15.000Z</time>
      </trkpt>
      <trkpt lat="40.065848529338836669921875" lon="0.10140133090317249298095703125">
        <ele>40.200000762939453125</ele>
        <time>2023-01-27T10:55:16.000Z</time>
      </trkpt>
      <trkpt lat="40.06586990319192409515380859375" lon="0.10142949409782886505126953125">
        <ele>40.40000152587890625</ele>
        <time>2023-01-27T10:55:17.000Z</time>
      </trkpt>
      <trkpt lat="40.065893121063709259033203125" lon="0.10145849548280239105224609375">
        <ele>40.799999237060546875</ele>
        <time>2023-01-27T10:55:18.000Z</time>
      </trkpt>
      <trkpt lat="40.06591600365936756134033203125" lon="0.1014869101345539093017578125">
        <ele>41</ele>
        <time>2023-01-27T10:55:19.000Z</time>
      </trkpt>
      <trkpt lat="40.06593897007405757904052734375" lon="0.10151582770049571990966796875">
        <ele>41.200000762939453125</ele>
        <time>2023-01-27T10:55:20.000Z</time>
      </trkpt>
      <trkpt lat="40.06596126593649387359619140625" lon="0.1015444099903106689453125">
        <ele>41.40000152587890625</ele>
        <time>2023-01-27T10:55:21.000Z</time>
      </trkpt>
      <trkpt lat="40.0659858249127864837646484375" lon="0.10157265700399875640869140625">
        <ele>42</ele>
        <time>2023-01-27T10:55:22.000Z</time>
      </trkpt>
      <trkpt lat="40.06601122207939624786376953125" lon="0.1016034185886383056640625">
        <ele>42</ele>
        <time>2023-01-27T10:55:23.000Z</time>
      </trkpt>
      <trkpt lat="40.06603427231311798095703125" lon="0.1016334258019924163818359375">
        <ele>42.40000152587890625</ele>
        <time>2023-01-27T10:55:24.000Z</time>
      </trkpt>
      <trkpt lat="40.06605899892747402191162109375" lon="0.10166184045374393463134765625">
        <ele>42.59999847412109375</ele>
        <time>2023-01-27T10:55:25.000Z</time>
      </trkpt>
      <trkpt lat="40.066083557903766632080078125" lon="0.10169017128646373748779296875">
        <ele>42.799999237060546875</ele>
        <time>2023-01-27T10:55:26.000Z</time>
      </trkpt>
      <trkpt lat="40.06610660813748836517333984375" lon="0.10171732865273952484130859375">
        <ele>43</ele>
        <time>2023-01-27T10:55:27.000Z</time>
      </trkpt>
      <trkpt lat="40.06612890399992465972900390625" lon="0.1017450727522373199462890625">
        <ele>43.200000762939453125</ele>
        <time>2023-01-27T10:55:28.000Z</time>
      </trkpt>
      <trkpt lat="40.06615237332880496978759765625" lon="0.1017718948423862457275390625">
        <ele>43.59999847412109375</ele>
        <time>2023-01-27T10:55:29.000Z</time>
      </trkpt>
      <trkpt lat="40.06617902778089046478271484375" lon="0.10179863311350345611572265625">
        <ele>43.799999237060546875</ele>
        <time>2023-01-27T10:55:30.000Z</time>
      </trkpt>
      <trkpt lat="40.0662039220333099365234375" lon="0.101825036108493804931640625">
        <ele>44</ele>
        <time>2023-01-27T10:55:31.000Z</time>
      </trkpt>
      <trkpt lat="40.06622663699090480804443359375" lon="0.1018528640270233154296875">
        <ele>44.200000762939453125</ele>
        <time>2023-01-27T10:55:32.000Z</time>
      </trkpt>
      <trkpt lat="40.0662506930530071258544921875" lon="0.1018904149532318115234375">
        <ele>44.59999847412109375</ele>
        <time>2023-01-27T10:55:33.000Z</time>
      </trkpt>
      <trkpt lat="40.06626955233514308929443359375" lon="0.10192536748945713043212890625">
        <ele>44.59999847412109375</ele>
        <time>2023-01-27T10:55:34.000Z</time>
      </trkpt>
      <trkpt lat="40.06628899835050106048583984375" lon="0.10196023620665073394775390625">
        <ele>45.200000762939453125</ele>
        <time>2023-01-27T10:55:35.000Z</time>
      </trkpt>
      <trkpt lat="40.06630718708038330078125" lon="0.1019861362874507904052734375">
        <ele>45.59999847412109375</ele>
        <time>2023-01-27T10:55:36.000Z</time>
      </trkpt>
      <trkpt lat="40.066327638924121856689453125" lon="0.10201656259596347808837890625">
        <ele>45.799999237060546875</ele>
        <time>2023-01-27T10:55:37.000Z</time>
      </trkpt>
      <trkpt lat="40.06635085679590702056884765625" lon="0.10205428116023540496826171875">
        <ele>46</ele>
        <time>2023-01-27T10:55:38.000Z</time>
      </trkpt>
      <trkpt lat="40.0663702189922332763671875" lon="0.102085880935192108154296875">
        <ele>46.200000762939453125</ele>
        <time>2023-01-27T10:55:39.000Z</time>
      </trkpt>
      <trkpt lat="40.06638740189373493194580078125" lon="0.10211027227342128753662109375">
        <ele>46.40000152587890625</ele>
        <time>2023-01-27T10:55:40.000Z</time>
      </trkpt>
      <trkpt lat="40.06640818901360034942626953125" lon="0.102140866219997406005859375">
        <ele>46.59999847412109375</ele>
        <time>2023-01-27T10:55:41.000Z</time>
      </trkpt>
      <trkpt lat="40.06642897613346576690673828125" lon="0.10217162780463695526123046875">
        <ele>47.200000762939453125</ele>
        <time>2023-01-27T10:55:42.000Z</time>
      </trkpt>
      <trkpt lat="40.06644741632044315338134765625" lon="0.1022015511989593505859375">
        <ele>47.40000152587890625</ele>
        <time>2023-01-27T10:55:43.000Z</time>
      </trkpt>
      <trkpt lat="40.06646686233580112457275390625" lon="0.10223180986940860748291015625">
        <ele>47.799999237060546875</ele>
        <time>2023-01-27T10:55:44.000Z</time>
      </trkpt>
      <trkpt lat="40.06648764945566654205322265625" lon="0.1022687740623950958251953125">
        <ele>48</ele>
        <time>2023-01-27T10:55:45.000Z</time>
      </trkpt>
      <trkpt lat="40.06650273688137531280517578125" lon="0.10229182429611682891845703125">
        <ele>48.200000762939453125</ele>
        <time>2023-01-27T10:55:46.000Z</time>
      </trkpt>
      <trkpt lat="40.06652218289673328399658203125" lon="0.1023207418620586395263671875">
        <ele>48.59999847412109375</ele>
        <time>2023-01-27T10:55:47.000Z</time>
      </trkpt>
      <trkpt lat="40.06654012016952037811279296875" lon="0.102351419627666473388671875">
        <ele>49</ele>
        <time>2023-01-27T10:55:48.000Z</time>
      </trkpt>
      <trkpt lat="40.06655839271843433380126953125" lon="0.10238603688776493072509765625">
        <ele>49.40000152587890625</ele>
        <time>2023-01-27T10:55:49.000Z</time>
      </trkpt>
      <trkpt lat="40.06657616235315799713134765625" lon="0.10242124088108539581298828125">
        <ele>49.59999847412109375</ele>
        <time>2023-01-27T10:55:50.000Z</time>
      </trkpt>
      <trkpt lat="40.06659326143562793731689453125" lon="0.10245493613183498382568359375">
        <ele>50</ele>
        <time>2023-01-27T10:55:51.000Z</time>
      </trkpt>
      <trkpt lat="40.06660918705165386199951171875" lon="0.10248997248709201812744140625">
        <ele>50.200000762939453125</ele>
        <time>2023-01-27T10:55:52.000Z</time>
      </trkpt>
      <trkpt lat="40.06662611849606037139892578125" lon="0.10252366773784160614013671875">
        <ele>50.40000152587890625</ele>
        <time>2023-01-27T10:55:53.000Z</time>
      </trkpt>
      <trkpt lat="40.06664304994046688079833984375" lon="0.10255820117890834808349609375">
        <ele>50.799999237060546875</ele>
        <time>2023-01-27T10:55:54.000Z</time>
      </trkpt>
      <trkpt lat="40.06665914319455623626708984375" lon="0.10259105823934078216552734375">
        <ele>51</ele>
        <time>2023-01-27T10:55:55.000Z</time>
      </trkpt>
      <trkpt lat="40.0666798464953899383544921875" lon="0.10263271629810333251953125">
        <ele>51.200000762939453125</ele>
        <time>2023-01-27T10:55:56.000Z</time>
      </trkpt>
      <trkpt lat="40.06669401191174983978271484375" lon="0.10266079567372798919677734375">
        <ele>51.40000152587890625</ele>
        <time>2023-01-27T10:55:57.000Z</time>
      </trkpt>
      <trkpt lat="40.06671312265098094940185546875" lon="0.10269516147673130035400390625">
        <ele>51.799999237060546875</ele>
        <time>2023-01-27T10:55:58.000Z</time>
      </trkpt>
      <trkpt lat="40.0667328201234340667724609375" lon="0.10272885672748088836669921875">
        <ele>52</ele>
        <time>2023-01-27T10:55:59.000Z</time>
      </trkpt>
      <trkpt lat="40.0667569600045680999755859375" lon="0.10276875458657741546630859375">
        <ele>52.200000762939453125</ele>
        <time>2023-01-27T10:56:00.000Z</time>
      </trkpt>
      <trkpt lat="40.0667764060199260711669921875" lon="0.10280211456120014190673828125">
        <ele>52.40000152587890625</ele>
        <time>2023-01-27T10:56:01.000Z</time>
      </trkpt>
      <trkpt lat="40.066792666912078857421875" lon="0.1028303615748882293701171875">
        <ele>52.59999847412109375</ele>
        <time>2023-01-27T10:56:02.000Z</time>
      </trkpt>
      <trkpt lat="40.06681077182292938232421875" lon="0.1028640568256378173828125">
        <ele>52.799999237060546875</ele>
        <time>2023-01-27T10:56:03.000Z</time>
      </trkpt>
      <trkpt lat="40.06682694889605045318603515625" lon="0.10289967991411685943603515625">
        <ele>53</ele>
        <time>2023-01-27T10:56:04.000Z</time>
      </trkpt>
      <trkpt lat="40.0668427906930446624755859375" lon="0.1029349677264690399169921875">
        <ele>53.200000762939453125</ele>
        <time>2023-01-27T10:56:05.000Z</time>
      </trkpt>
      <trkpt lat="40.06686064414680004119873046875" lon="0.10296790860593318939208984375">
        <ele>53.40000152587890625</ele>
        <time>2023-01-27T10:56:06.000Z</time>
      </trkpt>
      <trkpt lat="40.06687740795314311981201171875" lon="0.10300017893314361572265625">
        <ele>53.59999847412109375</ele>
        <time>2023-01-27T10:56:07.000Z</time>
      </trkpt>
      <trkpt lat="40.06689467467367649078369140625" lon="0.10303194634616374969482421875">
        <ele>54</ele>
        <time>2023-01-27T10:56:08.000Z</time>
      </trkpt>
      <trkpt lat="40.06691110320389270782470703125" lon="0.1030627079308032989501953125">
        <ele>54.59999847412109375</ele>
        <time>2023-01-27T10:56:09.000Z</time>
      </trkpt>
      <trkpt lat="40.0669249333441257476806640625" lon="0.1030935533344745635986328125">
        <ele>54.799999237060546875</ele>
        <time>2023-01-27T10:56:10.000Z</time>
      </trkpt>
      <trkpt lat="40.0669388473033905029296875" lon="0.10312481783330440521240234375">
        <ele>55.200000762939453125</ele>
        <time>2023-01-27T10:56:11.000Z</time>
      </trkpt>
      <trkpt lat="40.0669562816619873046875" lon="0.103153400123119354248046875">
        <ele>55.40000152587890625</ele>
        <time>2023-01-27T10:56:12.000Z</time>
      </trkpt>
      <trkpt lat="40.06697346456348896026611328125" lon="0.1031832396984100341796875">
        <ele>55.799999237060546875</ele>
        <time>2023-01-27T10:56:13.000Z</time>
      </trkpt>
      <trkpt lat="40.0669898092746734619140625" lon="0.10321517474949359893798828125">
        <ele>56</ele>
        <time>2023-01-27T10:56:14.000Z</time>
      </trkpt>
      <trkpt lat="40.06700665690004825592041015625" lon="0.10324568487703800201416015625">
        <ele>56.200000762939453125</ele>
        <time>2023-01-27T10:56:15.000Z</time>
      </trkpt>
      <trkpt lat="40.06702325306832790374755859375" lon="0.10327753610908985137939453125">
        <ele>56.40000152587890625</ele>
        <time>2023-01-27T10:56:16.000Z</time>
      </trkpt>
      <trkpt lat="40.0670402683317661285400390625" lon="0.103310644626617431640625">
        <ele>56.799999237060546875</ele>
        <time>2023-01-27T10:56:17.000Z</time>
      </trkpt>
      <trkpt lat="40.0670587085187435150146484375" lon="0.10334216058254241943359375">
        <ele>57</ele>
        <time>2023-01-27T10:56:18.000Z</time>
      </trkpt>
      <trkpt lat="40.0670761428773403167724609375" lon="0.103373341262340545654296875">
        <ele>57.200000762939453125</ele>
        <time>2023-01-27T10:56:19.000Z</time>
      </trkpt>
      <trkpt lat="40.06709081120789051055908203125" lon="0.10340787470340728759765625">
        <ele>57.799999237060546875</ele>
        <time>2023-01-27T10:56:20.000Z</time>
      </trkpt>
      <trkpt lat="40.06710422225296497344970703125" lon="0.103445090353488922119140625">
        <ele>58.200000762939453125</ele>
        <time>2023-01-27T10:56:21.000Z</time>
      </trkpt>
      <trkpt lat="40.067118890583515167236328125" lon="0.10348792187869548797607421875">
        <ele>58.59999847412109375</ele>
        <time>2023-01-27T10:56:22.000Z</time>
      </trkpt>
      <trkpt lat="40.06712995469570159912109375" lon="0.103516168892383575439453125">
        <ele>58.59999847412109375</ele>
        <time>2023-01-27T10:56:23.000Z</time>
      </trkpt>
      <trkpt lat="40.0671435333788394927978515625" lon="0.10355346836149692535400390625">
        <ele>59.200000762939453125</ele>
        <time>2023-01-27T10:56:24.000Z</time>
      </trkpt>
      <trkpt lat="40.06715803407132625579833984375" lon="0.10359697043895721435546875">
        <ele>59.40000152587890625</ele>
        <time>2023-01-27T10:56:25.000Z</time>
      </trkpt>
      <trkpt lat="40.06716758944094181060791015625" lon="0.10362647473812103271484375">
        <ele>60</ele>
        <time>2023-01-27T10:56:26.000Z</time>
      </trkpt>
      <trkpt lat="40.06717815063893795013427734375" lon="0.10366134345531463623046875">
        <ele>60.200000762939453125</ele>
        <time>2023-01-27T10:56:27.000Z</time>
      </trkpt>
      <trkpt lat="40.06719206459820270538330078125" lon="0.1036960445344448089599609375">
        <ele>60.59999847412109375</ele>
        <time>2023-01-27T10:56:28.000Z</time>
      </trkpt>
      <trkpt lat="40.06720396690070629119873046875" lon="0.1037329249083995819091796875">
        <ele>60.799999237060546875</ele>
        <time>2023-01-27T10:56:29.000Z</time>
      </trkpt>
      <trkpt lat="40.06721637211740016937255859375" lon="0.10376720689237117767333984375">
        <ele>61.40000152587890625</ele>
        <time>2023-01-27T10:56:30.000Z</time>
      </trkpt>
      <trkpt lat="40.06722911261022090911865234375" lon="0.10380190797150135040283203125">
        <ele>61.799999237060546875</ele>
        <time>2023-01-27T10:56:31.000Z</time>
      </trkpt>
      <trkpt lat="40.06724151782691478729248046875" lon="0.10383627377450466156005859375">
        <ele>62</ele>
        <time>2023-01-27T10:56:32.000Z</time>
      </trkpt>
      <trkpt lat="40.06725057028234004974365234375" lon="0.10387063957750797271728515625">
        <ele>62.40000152587890625</ele>
        <time>2023-01-27T10:56:33.000Z</time>
      </trkpt>
      <trkpt lat="40.0672581978142261505126953125" lon="0.10390718467533588409423828125">
        <ele>62.59999847412109375</ele>
        <time>2023-01-27T10:56:34.000Z</time>
      </trkpt>
      <trkpt lat="40.06726431660354137420654296875" lon="0.10394473560154438018798828125">
        <ele>63</ele>
        <time>2023-01-27T10:56:35.000Z</time>
      </trkpt>
      <trkpt lat="40.06727102212607860565185546875" lon="0.1039823703467845916748046875">
        <ele>63.200000762939453125</ele>
        <time>2023-01-27T10:56:36.000Z</time>
      </trkpt>
      <trkpt lat="40.06728040985763072967529296875" lon="0.1040209271013736724853515625">
        <ele>63.59999847412109375</ele>
        <time>2023-01-27T10:56:37.000Z</time>
      </trkpt>
      <trkpt lat="40.06728711538016796112060546875" lon="0.1040601544082164764404296875">
        <ele>64</ele>
        <time>2023-01-27T10:56:38.000Z</time>
      </trkpt>
      <trkpt lat="40.06729616783559322357177734375" lon="0.10409913025796413421630859375">
        <ele>64.40000152587890625</ele>
        <time>2023-01-27T10:56:39.000Z</time>
      </trkpt>
      <trkpt lat="40.0673034600913524627685546875" lon="0.10413835756480693817138671875">
        <ele>64.59999847412109375</ele>
        <time>2023-01-27T10:56:40.000Z</time>
      </trkpt>
      <trkpt lat="40.06731293164193630218505859375" lon="0.10417766869068145751953125">
        <ele>65.1999969482421875</ele>
        <time>2023-01-27T10:56:41.000Z</time>
      </trkpt>
      <trkpt lat="40.0673212297260761260986328125" lon="0.10421614162623882293701171875">
        <ele>65.40000152587890625</ele>
        <time>2023-01-27T10:56:42.000Z</time>
      </trkpt>
      <trkpt lat="40.06732852198183536529541015625" lon="0.10425553657114505767822265625">
        <ele>65.59999847412109375</ele>
        <time>2023-01-27T10:56:43.000Z</time>
      </trkpt>
      <trkpt lat="40.06733858026564121246337890625" lon="0.1042928360402584075927734375">
        <ele>66.1999969482421875</ele>
        <time>2023-01-27T10:56:44.000Z</time>
      </trkpt>
      <trkpt lat="40.06735199131071567535400390625" lon="0.10432644747197628021240234375">
        <ele>66.40000152587890625</ele>
        <time>2023-01-27T10:56:45.000Z</time>
      </trkpt>
      <trkpt lat="40.06736422888934612274169921875" lon="0.1043649204075336456298828125">
        <ele>67</ele>
        <time>2023-01-27T10:56:46.000Z</time>
      </trkpt>
      <trkpt lat="40.06737462244927883148193359375" lon="0.1044041477143764495849609375">
        <ele>67.1999969482421875</ele>
        <time>2023-01-27T10:56:47.000Z</time>
      </trkpt>
      <trkpt lat="40.0673835910856723785400390625" lon="0.10444262064993381500244140625">
        <ele>67.8000030517578125</ele>
        <time>2023-01-27T10:56:48.000Z</time>
      </trkpt>
      <trkpt lat="40.067392475903034210205078125" lon="0.10448235087096691131591796875">
        <ele>68.1999969482421875</ele>
        <time>2023-01-27T10:56:49.000Z</time>
      </trkpt>
      <trkpt lat="40.06740127690136432647705078125" lon="0.10452308692038059234619140625">
        <ele>68.59999847412109375</ele>
        <time>2023-01-27T10:56:50.000Z</time>
      </trkpt>
      <trkpt lat="40.06740949116647243499755859375" lon="0.1045623980462551116943359375">
        <ele>68.8000030517578125</ele>
        <time>2023-01-27T10:56:51.000Z</time>
      </trkpt>
      <trkpt lat="40.06741586141288280487060546875" lon="0.10460372082889080047607421875">
        <ele>69.40000152587890625</ele>
        <time>2023-01-27T10:56:52.000Z</time>
      </trkpt>
      <trkpt lat="40.0674238242208957672119140625" lon="0.1046435348689556121826171875">
        <ele>69.8000030517578125</ele>
        <time>2023-01-27T10:56:53.000Z</time>
      </trkpt>
      <trkpt lat="40.06743312813341617584228515625" lon="0.10468318127095699310302734375">
        <ele>70.1999969482421875</ele>
        <time>2023-01-27T10:56:54.000Z</time>
      </trkpt>
      <trkpt lat="40.06744444370269775390625" lon="0.1047219894826412200927734375">
        <ele>70.59999847412109375</ele>
        <time>2023-01-27T10:56:55.000Z</time>
      </trkpt>
      <trkpt lat="40.0674590282142162322998046875" lon="0.10476716794073581695556640625">
        <ele>70.8000030517578125</ele>
        <time>2023-01-27T10:56:56.000Z</time>
      </trkpt>
      <trkpt lat="40.0674694217741489410400390625" lon="0.104797594249248504638671875">
        <ele>71.1999969482421875</ele>
        <time>2023-01-27T10:56:57.000Z</time>
      </trkpt>
      <trkpt lat="40.06748895160853862762451171875" lon="0.1048453710973262786865234375">
        <ele>71.40000152587890625</ele>
        <time>2023-01-27T10:56:58.000Z</time>
      </trkpt>
      <trkpt lat="40.06750068627297878265380859375" lon="0.10487504303455352783203125">
        <ele>72</ele>
        <time>2023-01-27T10:56:59.000Z</time>
      </trkpt>
      <trkpt lat="40.06751426495611667633056640625" lon="0.1049137674272060394287109375">
        <ele>72.1999969482421875</ele>
        <time>2023-01-27T10:57:00.000Z</time>
      </trkpt>
      <trkpt lat="40.06752415560185909271240234375" lon="0.1049540005624294281005859375">
        <ele>72.59999847412109375</ele>
        <time>2023-01-27T10:57:01.000Z</time>
      </trkpt>
      <trkpt lat="40.0675408355891704559326171875" lon="0.105000101029872894287109375">
        <ele>73</ele>
        <time>2023-01-27T10:57:02.000Z</time>
      </trkpt>
      <trkpt lat="40.0675555877387523651123046875" lon="0.10503865778446197509765625">
        <ele>73.1999969482421875</ele>
        <time>2023-01-27T10:57:03.000Z</time>
      </trkpt>
      <trkpt lat="40.06756891496479511260986328125" lon="0.10507620871067047119140625">
        <ele>73.8000030517578125</ele>
        <time>2023-01-27T10:57:04.000Z</time>
      </trkpt>
      <trkpt lat="40.06758081726729869842529296875" lon="0.10510705411434173583984375">
        <ele>74.1999969482421875</ele>
        <time>2023-01-27T10:57:05.000Z</time>
      </trkpt>
      <trkpt lat="40.06759800016880035400390625" lon="0.10514569468796253204345703125">
        <ele>74.8000030517578125</ele>
        <time>2023-01-27T10:57:06.000Z</time>
      </trkpt>
      <trkpt lat="40.06762054748833179473876953125" lon="0.10518995113670825958251953125">
        <ele>75</ele>
        <time>2023-01-27T10:57:07.000Z</time>
      </trkpt>
      <trkpt lat="40.06764250807464122772216796875" lon="0.105224736034870147705078125">
        <ele>75.59999847412109375</ele>
        <time>2023-01-27T10:57:08.000Z</time>
      </trkpt>
      <trkpt lat="40.0676638819277286529541015625" lon="0.1052597723901271820068359375">
        <ele>75.8000030517578125</ele>
        <time>2023-01-27T10:57:09.000Z</time>
      </trkpt>
      <trkpt lat="40.06768089719116687774658203125" lon="0.105286426842212677001953125">
        <ele>76.1999969482421875</ele>
        <time>2023-01-27T10:57:10.000Z</time>
      </trkpt>
      <trkpt lat="40.06770067848265171051025390625" lon="0.10532272048294544219970703125">
        <ele>76.40000152587890625</ele>
        <time>2023-01-27T10:57:11.000Z</time>
      </trkpt>
      <trkpt lat="40.06772565655410289764404296875" lon="0.105366222560405731201171875">
        <ele>77</ele>
        <time>2023-01-27T10:57:12.000Z</time>
      </trkpt>
      <trkpt lat="40.067749209702014923095703125" lon="0.10540209710597991943359375">
        <ele>77.1999969482421875</ele>
        <time>2023-01-27T10:57:13.000Z</time>
      </trkpt>
      <trkpt lat="40.0677758641541004180908203125" lon="0.105440318584442138671875">
        <ele>77.8000030517578125</ele>
        <time>2023-01-27T10:57:14.000Z</time>
      </trkpt>
      <trkpt lat="40.06779489107429981231689453125" lon="0.105471499264240264892578125">
        <ele>78.1999969482421875</ele>
        <time>2023-01-27T10:57:15.000Z</time>
      </trkpt>
      <trkpt lat="40.06781660020351409912109375" lon="0.105509050190448760986328125">
        <ele>78.40000152587890625</ele>
        <time>2023-01-27T10:57:16.000Z</time>
      </trkpt>
      <trkpt lat="40.06783747114241123199462890625" lon="0.10554559528827667236328125">
        <ele>78.8000030517578125</ele>
        <time>2023-01-27T10:57:17.000Z</time>
      </trkpt>
      <trkpt lat="40.0678583420813083648681640625" lon="0.10558046400547027587890625">
        <ele>79</ele>
        <time>2023-01-27T10:57:18.000Z</time>
      </trkpt>
      <trkpt lat="40.06788105703890323638916015625" lon="0.1056171767413616180419921875">
        <ele>79.59999847412109375</ele>
        <time>2023-01-27T10:57:19.000Z</time>
      </trkpt>
      <trkpt lat="40.06790318526327610015869140625" lon="0.10565632022917270660400390625">
        <ele>79.8000030517578125</ele>
        <time>2023-01-27T10:57:20.000Z</time>
      </trkpt>
      <trkpt lat="40.067925564944744110107421875" lon="0.10569470934569835662841796875">
        <ele>80.40000152587890625</ele>
        <time>2023-01-27T10:57:21.000Z</time>
      </trkpt>
      <trkpt lat="40.067949704825878143310546875" lon="0.10573611594736576080322265625">
        <ele>80.59999847412109375</ele>
        <time>2023-01-27T10:57:22.000Z</time>
      </trkpt>
      <trkpt lat="40.06797158159315586090087890625" lon="0.10577584616839885711669921875">
        <ele>81.1999969482421875</ele>
        <time>2023-01-27T10:57:23.000Z</time>
      </trkpt>
      <trkpt lat="40.06799370981752872467041015625" lon="0.1058153249323368072509765625">
        <ele>81.40000152587890625</ele>
        <time>2023-01-27T10:57:24.000Z</time>
      </trkpt>
      <trkpt lat="40.0680175982415676116943359375" lon="0.10585312731564044952392578125">
        <ele>81.59999847412109375</ele>
        <time>2023-01-27T10:57:25.000Z</time>
      </trkpt>
      <trkpt lat="40.06804190576076507568359375" lon="0.105890594422817230224609375">
        <ele>81.8000030517578125</ele>
        <time>2023-01-27T10:57:26.000Z</time>
      </trkpt>
      <trkpt lat="40.06806562654674053192138671875" lon="0.10592755861580371856689453125">
        <ele>82.1999969482421875</ele>
        <time>2023-01-27T10:57:27.000Z</time>
      </trkpt>
      <trkpt lat="40.06808574311435222625732421875" lon="0.10596075095236301422119140625">
        <ele>82.40000152587890625</ele>
        <time>2023-01-27T10:57:28.000Z</time>
      </trkpt>
      <trkpt lat="40.06810636259615421295166015625" lon="0.1059923507273197174072265625">
        <ele>82.40000152587890625</ele>
        <time>2023-01-27T10:57:29.000Z</time>
      </trkpt>
      <trkpt lat="40.06812446750700473785400390625" lon="0.1060218550264835357666015625">
        <ele>82.8000030517578125</ele>
        <time>2023-01-27T10:57:30.000Z</time>
      </trkpt>
      <trkpt lat="40.0681429915130138397216796875" lon="0.10605094023048877716064453125">
        <ele>83</ele>
        <time>2023-01-27T10:57:31.000Z</time>
      </trkpt>
      <trkpt lat="40.06816084496676921844482421875" lon="0.1060825400054454803466796875">
        <ele>83.1999969482421875</ele>
        <time>2023-01-27T10:57:32.000Z</time>
      </trkpt>
      <trkpt lat="40.0681785307824611663818359375" lon="0.1061164028942584991455078125">
        <ele>83.40000152587890625</ele>
        <time>2023-01-27T10:57:33.000Z</time>
      </trkpt>
      <trkpt lat="40.0681993179023265838623046875" lon="0.10615043342113494873046875">
        <ele>83.59999847412109375</ele>
        <time>2023-01-27T10:57:34.000Z</time>
      </trkpt>
      <trkpt lat="40.06822320632636547088623046875" lon="0.10618438012897968292236328125">
        <ele>83.8000030517578125</ele>
        <time>2023-01-27T10:57:35.000Z</time>
      </trkpt>
      <trkpt lat="40.06824466399848461151123046875" lon="0.1062168180942535400390625">
        <ele>84.1999969482421875</ele>
        <time>2023-01-27T10:57:36.000Z</time>
      </trkpt>
      <trkpt lat="40.0682651996612548828125" lon="0.106249339878559112548828125">
        <ele>84.1999969482421875</ele>
        <time>2023-01-27T10:57:37.000Z</time>
      </trkpt>
      <trkpt lat="40.068286322057247161865234375" lon="0.10628077201545238494873046875">
        <ele>84.59999847412109375</ele>
        <time>2023-01-27T10:57:38.000Z</time>
      </trkpt>
      <trkpt lat="40.06831339560449123382568359375" lon="0.10631807148456573486328125">
        <ele>85</ele>
        <time>2023-01-27T10:57:39.000Z</time>
      </trkpt>
      <trkpt lat="40.06833150051534175872802734375" lon="0.10634263046085834503173828125">
        <ele>85</ele>
        <time>2023-01-27T10:57:40.000Z</time>
      </trkpt>
      <trkpt lat="40.0683515332639217376708984375" lon="0.1063765771687030792236328125">
        <ele>85.40000152587890625</ele>
        <time>2023-01-27T10:57:41.000Z</time>
      </trkpt>
      <trkpt lat="40.06837156601250171661376953125" lon="0.1064101047813892364501953125">
        <ele>85.59999847412109375</ele>
        <time>2023-01-27T10:57:42.000Z</time>
      </trkpt>
      <trkpt lat="40.068391263484954833984375" lon="0.10644220747053623199462890625">
        <ele>85.8000030517578125</ele>
        <time>2023-01-27T10:57:43.000Z</time>
      </trkpt>
      <trkpt lat="40.0684132240712642669677734375" lon="0.10647254996001720428466796875">
        <ele>85.8000030517578125</ele>
        <time>2023-01-27T10:57:44.000Z</time>
      </trkpt>
      <trkpt lat="40.0684363581240177154541015625" lon="0.10650507174432277679443359375">
        <ele>86</ele>
        <time>2023-01-27T10:57:45.000Z</time>
      </trkpt>
      <trkpt lat="40.068457312881946563720703125" lon="0.10653625242412090301513671875">
        <ele>86.1999969482421875</ele>
        <time>2023-01-27T10:57:46.000Z</time>
      </trkpt>
      <trkpt lat="40.0684784352779388427734375" lon="0.10656894184648990631103515625">
        <ele>86.40000152587890625</ele>
        <time>2023-01-27T10:57:47.000Z</time>
      </trkpt>
      <trkpt lat="40.06849746219813823699951171875" lon="0.10660238564014434814453125">
        <ele>86.59999847412109375</ele>
        <time>2023-01-27T10:57:48.000Z</time>
      </trkpt>
      <trkpt lat="40.06851573474705219268798828125" lon="0.10663532651960849761962890625">
        <ele>86.8000030517578125</ele>
        <time>2023-01-27T10:57:49.000Z</time>
      </trkpt>
      <trkpt lat="40.06853819824755191802978515625" lon="0.10667589493095874786376953125">
        <ele>87.1999969482421875</ele>
        <time>2023-01-27T10:57:50.000Z</time>
      </trkpt>
      <trkpt lat="40.06855429150164127349853515625" lon="0.10670321993529796600341796875">
        <ele>87.1999969482421875</ele>
        <time>2023-01-27T10:57:51.000Z</time>
      </trkpt>
      <trkpt lat="40.0685771740972995758056640625" lon="0.10673783719539642333984375">
        <ele>87.59999847412109375</ele>
        <time>2023-01-27T10:57:52.000Z</time>
      </trkpt>
      <trkpt lat="40.0685964524745941162109375" lon="0.1067711971700191497802734375">
        <ele>87.8000030517578125</ele>
        <time>2023-01-27T10:57:53.000Z</time>
      </trkpt>
      <trkpt lat="40.06861455738544464111328125" lon="0.1068043895065784454345703125">
        <ele>88</ele>
        <time>2023-01-27T10:57:54.000Z</time>
      </trkpt>
      <trkpt lat="40.0686313211917877197265625" lon="0.1068385876715183258056640625">
        <ele>88</ele>
        <time>2023-01-27T10:57:55.000Z</time>
      </trkpt>
      <trkpt lat="40.06864800117909908294677734375" lon="0.1068717800080776214599609375">
        <ele>88</ele>
        <time>2023-01-27T10:57:56.000Z</time>
      </trkpt>
      <trkpt lat="40.0686656869947910308837890625" lon="0.1069046370685100555419921875">
        <ele>88.1999969482421875</ele>
        <time>2023-01-27T10:57:57.000Z</time>
      </trkpt>
      <trkpt lat="40.0686834566295146942138671875" lon="0.10693573392927646636962890625">
        <ele>88.59999847412109375</ele>
        <time>2023-01-27T10:57:58.000Z</time>
      </trkpt>
      <trkpt lat="40.06870298646390438079833984375" lon="0.10696574114263057708740234375">
        <ele>88.8000030517578125</ele>
        <time>2023-01-27T10:57:59.000Z</time>
      </trkpt>
      <trkpt lat="40.0687230192124843597412109375" lon="0.107004381716251373291015625">
        <ele>89</ele>
        <time>2023-01-27T10:58:00.000Z</time>
      </trkpt>
      <trkpt lat="40.0687350891530513763427734375" lon="0.10703095234930515289306640625">
        <ele>89.1999969482421875</ele>
        <time>2023-01-27T10:58:01.000Z</time>
      </trkpt>
      <trkpt lat="40.06875009275972843170166015625" lon="0.1070652343332767486572265625">
        <ele>89.40000152587890625</ele>
        <time>2023-01-27T10:58:02.000Z</time>
      </trkpt>
      <trkpt lat="40.06876702420413494110107421875" lon="0.1070994324982166290283203125">
        <ele>89.40000152587890625</ele>
        <time>2023-01-27T10:58:03.000Z</time>
      </trkpt>
      <trkpt lat="40.06878596730530261993408203125" lon="0.1071343012154102325439453125">
        <ele>89.59999847412109375</ele>
        <time>2023-01-27T10:58:04.000Z</time>
      </trkpt>
      <trkpt lat="40.0688016414642333984375" lon="0.10716925375163555145263671875">
        <ele>90</ele>
        <time>2023-01-27T10:58:05.000Z</time>
      </trkpt>
      <trkpt lat="40.06881345994770526885986328125" lon="0.1072050444781780242919921875">
        <ele>90.1999969482421875</ele>
        <time>2023-01-27T10:58:06.000Z</time>
      </trkpt>
      <trkpt lat="40.06882452405989170074462890625" lon="0.1072414219379425048828125">
        <ele>90.40000152587890625</ele>
        <time>2023-01-27T10:58:07.000Z</time>
      </trkpt>
      <trkpt lat="40.068836174905300140380859375" lon="0.1072776317596435546875">
        <ele>90.59999847412109375</ele>
        <time>2023-01-27T10:58:08.000Z</time>
      </trkpt>
      <trkpt lat="40.06884681992232799530029296875" lon="0.10731325484812259674072265625">
        <ele>91</ele>
        <time>2023-01-27T10:58:09.000Z</time>
      </trkpt>
      <trkpt lat="40.06885905750095844268798828125" lon="0.10735767893493175506591796875">
        <ele>91.1999969482421875</ele>
        <time>2023-01-27T10:58:10.000Z</time>
      </trkpt>
      <trkpt lat="40.0688718818128108978271484375" lon="0.10739573277533054351806640625">
        <ele>91.40000152587890625</ele>
        <time>2023-01-27T10:58:11.000Z</time>
      </trkpt>
      <trkpt lat="40.06888152100145816802978515625" lon="0.10742490179836750030517578125">
        <ele>91.8000030517578125</ele>
        <time>2023-01-27T10:58:12.000Z</time>
      </trkpt>
      <trkpt lat="40.06889484822750091552734375" lon="0.1074618659913539886474609375">
        <ele>91.8000030517578125</ele>
        <time>2023-01-27T10:58:13.000Z</time>
      </trkpt>
      <trkpt lat="40.0689080916345119476318359375" lon="0.1075064577162265777587890625">
        <ele>92.1999969482421875</ele>
        <time>2023-01-27T10:58:14.000Z</time>
      </trkpt>
      <trkpt lat="40.06891504861414432525634765625" lon="0.10753638111054897308349609375">
        <ele>92.40000152587890625</ele>
        <time>2023-01-27T10:58:15.000Z</time>
      </trkpt>
      <trkpt lat="40.068923346698284149169921875" lon="0.1075735129415988922119140625">
        <ele>92.8000030517578125</ele>
        <time>2023-01-27T10:58:16.000Z</time>
      </trkpt>
      <trkpt lat="40.0689318962395191192626953125" lon="0.1076100580394268035888671875">
        <ele>92.8000030517578125</ele>
        <time>2023-01-27T10:58:17.000Z</time>
      </trkpt>
      <trkpt lat="40.0689392723143100738525390625" lon="0.10764702223241329193115234375">
        <ele>93.1999969482421875</ele>
        <time>2023-01-27T10:58:18.000Z</time>
      </trkpt>
      <trkpt lat="40.06894941441714763641357421875" lon="0.10769211687147617340087890625">
        <ele>93.1999969482421875</ele>
        <time>2023-01-27T10:58:19.000Z</time>
      </trkpt>
      <trkpt lat="40.068959556519985198974609375" lon="0.107731260359287261962890625">
        <ele>93.59999847412109375</ele>
        <time>2023-01-27T10:58:20.000Z</time>
      </trkpt>
      <trkpt lat="40.068970955908298492431640625" lon="0.10776805691421031951904296875">
        <ele>93.8000030517578125</ele>
        <time>2023-01-27T10:58:21.000Z</time>
      </trkpt>
      <trkpt lat="40.0689784996211528778076171875" lon="0.1077974773943424224853515625">
        <ele>94.1999969482421875</ele>
        <time>2023-01-27T10:58:22.000Z</time>
      </trkpt>
      <trkpt lat="40.068991072475910186767578125" lon="0.1078341901302337646484375">
        <ele>94.59999847412109375</ele>
        <time>2023-01-27T10:58:23.000Z</time>
      </trkpt>
      <trkpt lat="40.069003142416477203369140625" lon="0.10787081904709339141845703125">
        <ele>94.8000030517578125</ele>
        <time>2023-01-27T10:58:24.000Z</time>
      </trkpt>
      <trkpt lat="40.06901429034769535064697265625" lon="0.10790971107780933380126953125">
        <ele>95.1999969482421875</ele>
        <time>2023-01-27T10:58:25.000Z</time>
      </trkpt>
      <trkpt lat="40.06902359426021575927734375" lon="0.1079476810991764068603515625">
        <ele>95.1999969482421875</ele>
        <time>2023-01-27T10:58:26.000Z</time>
      </trkpt>
      <trkpt lat="40.06903122179210186004638671875" lon="0.10798481293022632598876953125">
        <ele>95.59999847412109375</ele>
        <time>2023-01-27T10:58:27.000Z</time>
      </trkpt>
      <trkpt lat="40.06904010660946369171142578125" lon="0.10802404023706912994384765625">
        <ele>95.8000030517578125</ele>
        <time>2023-01-27T10:58:28.000Z</time>
      </trkpt>
      <trkpt lat="40.069050081074237823486328125" lon="0.1080623455345630645751953125">
        <ele>96.1999969482421875</ele>
        <time>2023-01-27T10:58:29.000Z</time>
      </trkpt>
      <trkpt lat="40.069059468805789947509765625" lon="0.108102075755596160888671875">
        <ele>96.1999969482421875</ele>
        <time>2023-01-27T10:58:30.000Z</time>
      </trkpt>
      <trkpt lat="40.06906977854669094085693359375" lon="0.1081411354243755340576171875">
        <ele>96.59999847412109375</ele>
        <time>2023-01-27T10:58:31.000Z</time>
      </trkpt>
      <trkpt lat="40.0690805912017822265625" lon="0.1081793569028377532958984375">
        <ele>96.8000030517578125</ele>
        <time>2023-01-27T10:58:32.000Z</time>
      </trkpt>
      <trkpt lat="40.069095678627490997314453125" lon="0.108216069638729095458984375">
        <ele>97.40000152587890625</ele>
        <time>2023-01-27T10:58:33.000Z</time>
      </trkpt>
      <trkpt lat="40.06911076605319976806640625" lon="0.1082526147365570068359375">
        <ele>97.59999847412109375</ele>
        <time>2023-01-27T10:58:34.000Z</time>
      </trkpt>
      <trkpt lat="40.06912660785019397735595703125" lon="0.1082893274724483489990234375">
        <ele>97.8000030517578125</ele>
        <time>2023-01-27T10:58:35.000Z</time>
      </trkpt>
      <trkpt lat="40.06914471276104450225830078125" lon="0.1083335839211940765380859375">
        <ele>98.1999969482421875</ele>
        <time>2023-01-27T10:58:36.000Z</time>
      </trkpt>
      <trkpt lat="40.06915661506354808807373046875" lon="0.10836183093488216400146484375">
        <ele>98.1999969482421875</ele>
        <time>2023-01-27T10:58:37.000Z</time>
      </trkpt>
      <trkpt lat="40.069174133241176605224609375" lon="0.1083969511091709136962890625">
        <ele>98.59999847412109375</ele>
        <time>2023-01-27T10:58:38.000Z</time>
      </trkpt>
      <trkpt lat="40.06919232197105884552001953125" lon="0.1084324903786182403564453125">
        <ele>98.8000030517578125</ele>
        <time>2023-01-27T10:58:39.000Z</time>
      </trkpt>
      <trkpt lat="40.06921344436705112457275390625" lon="0.10847280733287334442138671875">
        <ele>99.1999969482421875</ele>
        <time>2023-01-27T10:58:40.000Z</time>
      </trkpt>
      <trkpt lat="40.0692294538021087646484375" lon="0.10849895887076854705810546875">
        <ele>99.1999969482421875</ele>
        <time>2023-01-27T10:58:41.000Z</time>
      </trkpt>
      <trkpt lat="40.06925334222614765167236328125" lon="0.10853768326342105865478515625">
        <ele>99.59999847412109375</ele>
        <time>2023-01-27T10:58:42.000Z</time>
      </trkpt>
      <trkpt lat="40.06927312351763248443603515625" lon="0.10856173932552337646484375">
        <ele>99.59999847412109375</ele>
        <time>2023-01-27T10:58:43.000Z</time>
      </trkpt>
      <trkpt lat="40.069296844303607940673828125" lon="0.10859115980565547943115234375">
        <ele>100</ele>
        <time>2023-01-27T10:58:44.000Z</time>
      </trkpt>
      <trkpt lat="40.069318972527980804443359375" lon="0.108623765408992767333984375">
        <ele>100.59999847412109375</ele>
        <time>2023-01-27T10:58:45.000Z</time>
      </trkpt>
      <trkpt lat="40.06934252567589282989501953125" lon="0.10865419171750545501708984375">
        <ele>100.8000030517578125</ele>
        <time>2023-01-27T10:58:46.000Z</time>
      </trkpt>
      <trkpt lat="40.0693664140999317169189453125" lon="0.10868067853152751922607421875">
        <ele>101</ele>
        <time>2023-01-27T10:58:47.000Z</time>
      </trkpt>
      <trkpt lat="40.06939063780009746551513671875" lon="0.108705572783946990966796875">
        <ele>101.1999969482421875</ele>
        <time>2023-01-27T10:58:48.000Z</time>
      </trkpt>
      <trkpt lat="40.0694177113473415374755859375" lon="0.10873080231249332427978515625">
        <ele>101.40000152587890625</ele>
        <time>2023-01-27T10:58:49.000Z</time>
      </trkpt>
      <trkpt lat="40.06944495253264904022216796875" lon="0.10875410400331020355224609375">
        <ele>101.40000152587890625</ele>
        <time>2023-01-27T10:58:50.000Z</time>
      </trkpt>
      <trkpt lat="40.06947210989892482757568359375" lon="0.10877589695155620574951171875">
        <ele>101.8000030517578125</ele>
        <time>2023-01-27T10:58:51.000Z</time>
      </trkpt>
      <trkpt lat="40.06950111128389835357666015625" lon="0.108797438442707061767578125">
        <ele>101.8000030517578125</ele>
        <time>2023-01-27T10:58:52.000Z</time>
      </trkpt>
      <trkpt lat="40.06952927447855472564697265625" lon="0.1088200695812702178955078125">
        <ele>102.1999969482421875</ele>
        <time>2023-01-27T10:58:53.000Z</time>
      </trkpt>
      <trkpt lat="40.06955760531127452850341796875" lon="0.10884043760597705841064453125">
        <ele>102.40000152587890625</ele>
        <time>2023-01-27T10:58:54.000Z</time>
      </trkpt>
      <trkpt lat="40.069585852324962615966796875" lon="0.10885837487876415252685546875">
        <ele>102.8000030517578125</ele>
        <time>2023-01-27T10:58:55.000Z</time>
      </trkpt>
      <trkpt lat="40.06961611099541187286376953125" lon="0.1088748872280120849609375">
        <ele>103</ele>
        <time>2023-01-27T10:58:56.000Z</time>
      </trkpt>
      <trkpt lat="40.06964578293263912200927734375" lon="0.108890645205974578857421875">
        <ele>103.1999969482421875</ele>
        <time>2023-01-27T10:58:57.000Z</time>
      </trkpt>
      <trkpt lat="40.0696758739650249481201171875" lon="0.10890598408877849578857421875">
        <ele>103.59999847412109375</ele>
        <time>2023-01-27T10:58:58.000Z</time>
      </trkpt>
      <trkpt lat="40.06970713846385478973388671875" lon="0.1089183054864406585693359375">
        <ele>103.8000030517578125</ele>
        <time>2023-01-27T10:58:59.000Z</time>
      </trkpt>
      <trkpt lat="40.06973764859139919281005859375" lon="0.10892945341765880584716796875">
        <ele>104</ele>
        <time>2023-01-27T10:59:00.000Z</time>
      </trkpt>
      <trkpt lat="40.069773606956005096435546875" lon="0.108936242759227752685546875">
        <ele>104.1999969482421875</ele>
        <time>2023-01-27T10:59:01.000Z</time>
      </trkpt>
      <trkpt lat="40.06980353035032749176025390625" lon="0.10893967933952808380126953125">
        <ele>104.59999847412109375</ele>
        <time>2023-01-27T10:59:02.000Z</time>
      </trkpt>
      <trkpt lat="40.06982867605984210968017578125" lon="0.1089441217482089996337890625">
        <ele>104.8000030517578125</ele>
        <time>2023-01-27T10:59:03.000Z</time>
      </trkpt>
      <trkpt lat="40.0698609463870525360107421875" lon="0.10894755832850933074951171875">
        <ele>105.1999969482421875</ele>
        <time>2023-01-27T10:59:04.000Z</time>
      </trkpt>
      <trkpt lat="40.06989321671426296234130859375" lon="0.10894889943301677703857421875">
        <ele>105.40000152587890625</ele>
        <time>2023-01-27T10:59:05.000Z</time>
      </trkpt>
      <trkpt lat="40.06992406211793422698974609375" lon="0.1089499890804290771484375">
        <ele>106</ele>
        <time>2023-01-27T10:59:06.000Z</time>
      </trkpt>
      <trkpt lat="40.06995306350290775299072265625" lon="0.10895007289946079254150390625">
        <ele>106.1999969482421875</ele>
        <time>2023-01-27T10:59:07.000Z</time>
      </trkpt>
      <trkpt lat="40.06998390890657901763916015625" lon="0.10894906707108020782470703125">
        <ele>106.1999969482421875</ele>
        <time>2023-01-27T10:59:08.000Z</time>
      </trkpt>
      <trkpt lat="40.07001559250056743621826171875" lon="0.1089451275765895843505859375">
        <ele>106.40000152587890625</ele>
        <time>2023-01-27T10:59:09.000Z</time>
      </trkpt>
      <trkpt lat="40.07004677318036556243896484375" lon="0.10894236154854297637939453125">
        <ele>106.59999847412109375</ele>
        <time>2023-01-27T10:59:10.000Z</time>
      </trkpt>
      <trkpt lat="40.07007812149822711944580078125" lon="0.10894018225371837615966796875">
        <ele>106.8000030517578125</ele>
        <time>2023-01-27T10:59:11.000Z</time>
      </trkpt>
      <trkpt lat="40.0701105594635009765625" lon="0.108937583863735198974609375">
        <ele>107</ele>
        <time>2023-01-27T10:59:12.000Z</time>
      </trkpt>
      <trkpt lat="40.0701492838561534881591796875" lon="0.10893196798861026763916015625">
        <ele>107.40000152587890625</ele>
        <time>2023-01-27T10:59:13.000Z</time>
      </trkpt>
      <trkpt lat="40.070181973278522491455078125" lon="0.10892677120864391326904296875">
        <ele>107.40000152587890625</ele>
        <time>2023-01-27T10:59:14.000Z</time>
      </trkpt>
      <trkpt lat="40.07021340541541576385498046875" lon="0.10892375372350215911865234375">
        <ele>107.8000030517578125</ele>
        <time>2023-01-27T10:59:15.000Z</time>
      </trkpt>
      <trkpt lat="40.0702445022761821746826171875" lon="0.108919478952884674072265625">
        <ele>107.8000030517578125</ele>
        <time>2023-01-27T10:59:16.000Z</time>
      </trkpt>
      <trkpt lat="40.070274174213409423828125" lon="0.108918137848377227783203125">
        <ele>108.1999969482421875</ele>
        <time>2023-01-27T10:59:17.000Z</time>
      </trkpt>
      <trkpt lat="40.07030703127384185791015625" lon="0.10891721583902835845947265625">
        <ele>108.40000152587890625</ele>
        <time>2023-01-27T10:59:18.000Z</time>
      </trkpt>
      <trkpt lat="40.07033913396298885345458984375" lon="0.10891310870647430419921875">
        <ele>108.59999847412109375</ele>
        <time>2023-01-27T10:59:19.000Z</time>
      </trkpt>
      <trkpt lat="40.0703693926334381103515625" lon="0.10890900157392024993896484375">
        <ele>108.8000030517578125</ele>
        <time>2023-01-27T10:59:20.000Z</time>
      </trkpt>
      <trkpt lat="40.07039956748485565185546875" lon="0.10890346951782703399658203125">
        <ele>109</ele>
        <time>2023-01-27T10:59:21.000Z</time>
      </trkpt>
      <trkpt lat="40.0704310834407806396484375" lon="0.10889810509979724884033203125">
        <ele>109.59999847412109375</ele>
        <time>2023-01-27T10:59:22.000Z</time>
      </trkpt>
      <trkpt lat="40.070462264120578765869140625" lon="0.1088934950530529022216796875">
        <ele>109.8000030517578125</ele>
        <time>2023-01-27T10:59:23.000Z</time>
      </trkpt>
      <trkpt lat="40.07049201987683773040771484375" lon="0.1088869571685791015625">
        <ele>110</ele>
        <time>2023-01-27T10:59:24.000Z</time>
      </trkpt>
      <trkpt lat="40.0705224461853504180908203125" lon="0.1088790781795978546142578125">
        <ele>110.1999969482421875</ele>
        <time>2023-01-27T10:59:25.000Z</time>
      </trkpt>
      <trkpt lat="40.07055220194160938262939453125" lon="0.10887446813285350799560546875">
        <ele>110.59999847412109375</ele>
        <time>2023-01-27T10:59:26.000Z</time>
      </trkpt>
      <trkpt lat="40.07058329880237579345703125" lon="0.10887061245739459991455078125">
        <ele>110.8000030517578125</ele>
        <time>2023-01-27T10:59:27.000Z</time>
      </trkpt>
      <trkpt lat="40.07061389274895191192626953125" lon="0.10886558331549167633056640625">
        <ele>111.1999969482421875</ele>
        <time>2023-01-27T10:59:28.000Z</time>
      </trkpt>
      <trkpt lat="40.07064373232424259185791015625" lon="0.10886306874454021453857421875">
        <ele>111.40000152587890625</ele>
        <time>2023-01-27T10:59:29.000Z</time>
      </trkpt>
      <trkpt lat="40.07067315280437469482421875" lon="0.10886139236390590667724609375">
        <ele>111.59999847412109375</ele>
        <time>2023-01-27T10:59:30.000Z</time>
      </trkpt>
      <trkpt lat="40.070703662931919097900390625" lon="0.10885703377425670623779296875">
        <ele>112</ele>
        <time>2023-01-27T10:59:31.000Z</time>
      </trkpt>
      <trkpt lat="40.07073576562106609344482421875" lon="0.10885116644203662872314453125">
        <ele>112.1999969482421875</ele>
        <time>2023-01-27T10:59:32.000Z</time>
      </trkpt>
      <trkpt lat="40.07076728157699108123779296875" lon="0.1088438741862773895263671875">
        <ele>112.1999969482421875</ele>
        <time>2023-01-27T10:59:33.000Z</time>
      </trkpt>
      <trkpt lat="40.07080055773258209228515625" lon="0.10883457027375698089599609375">
        <ele>112.40000152587890625</ele>
        <time>2023-01-27T10:59:34.000Z</time>
      </trkpt>
      <trkpt lat="40.07083282805979251861572265625" lon="0.1088281162083148956298828125">
        <ele>112.59999847412109375</ele>
        <time>2023-01-27T10:59:35.000Z</time>
      </trkpt>
      <trkpt lat="40.0708644278347492218017578125" lon="0.10882015340030193328857421875">
        <ele>112.8000030517578125</ele>
        <time>2023-01-27T10:59:36.000Z</time>
      </trkpt>
      <trkpt lat="40.070895440876483917236328125" lon="0.108811855316162109375">
        <ele>113</ele>
        <time>2023-01-27T10:59:37.000Z</time>
      </trkpt>
      <trkpt lat="40.0709284655749797821044921875" lon="0.1088069938123226165771484375">
        <ele>113.1999969482421875</ele>
        <time>2023-01-27T10:59:38.000Z</time>
      </trkpt>
      <trkpt lat="40.0709603168070316314697265625" lon="0.10880489833652973175048828125">
        <ele>113.40000152587890625</ele>
        <time>2023-01-27T10:59:39.000Z</time>
      </trkpt>
      <trkpt lat="40.0709864683449268341064453125" lon="0.1088066585361957550048828125">
        <ele>113.40000152587890625</ele>
        <time>2023-01-27T10:59:40.000Z</time>
      </trkpt>
      <trkpt lat="40.0710193254053592681884765625" lon="0.10881009511649608612060546875">
        <ele>113.8000030517578125</ele>
        <time>2023-01-27T10:59:41.000Z</time>
      </trkpt>
      <trkpt lat="40.0710545293986797332763671875" lon="0.1088131964206695556640625">
        <ele>114.1999969482421875</ele>
        <time>2023-01-27T10:59:42.000Z</time>
      </trkpt>
      <trkpt lat="40.07109065540134906768798828125" lon="0.10881713591516017913818359375">
        <ele>114.1999969482421875</ele>
        <time>2023-01-27T10:59:43.000Z</time>
      </trkpt>
      <trkpt lat="40.07112787105143070220947265625" lon="0.1088234223425388336181640625">
        <ele>114.40000152587890625</ele>
        <time>2023-01-27T10:59:44.000Z</time>
      </trkpt>
      <trkpt lat="40.0711634941399097442626953125" lon="0.1088287867605686187744140625">
        <ele>114.59999847412109375</ele>
        <time>2023-01-27T10:59:45.000Z</time>
      </trkpt>
      <trkpt lat="40.07119844667613506317138671875" lon="0.1088391803205013275146484375">
        <ele>114.8000030517578125</ele>
        <time>2023-01-27T10:59:46.000Z</time>
      </trkpt>
      <trkpt lat="40.07123398594558238983154296875" lon="0.1088519208133220672607421875">
        <ele>115</ele>
        <time>2023-01-27T10:59:47.000Z</time>
      </trkpt>
      <trkpt lat="40.07127170450985431671142578125" lon="0.10886524803936481475830078125">
        <ele>115.1999969482421875</ele>
        <time>2023-01-27T10:59:48.000Z</time>
      </trkpt>
      <trkpt lat="40.0713093392550945281982421875" lon="0.10887689888477325439453125">
        <ele>115.1999969482421875</ele>
        <time>2023-01-27T10:59:49.000Z</time>
      </trkpt>
      <trkpt lat="40.07139332592487335205078125" lon="0.10890011675655841827392578125">
        <ele>115.40000152587890625</ele>
        <time>2023-01-27T10:59:50.000Z</time>
      </trkpt>
      <trkpt lat="40.07139332592487335205078125" lon="0.10890011675655841827392578125">
        <ele>115.40000152587890625</ele>
        <time>2023-01-27T10:59:51.000Z</time>
      </trkpt>
      <trkpt lat="40.071443282067775726318359375" lon="0.10891838930547237396240234375">
        <ele>115.59999847412109375</ele>
        <time>2023-01-27T10:59:52.000Z</time>
      </trkpt>
      <trkpt lat="40.07148661650717258453369140625" lon="0.108935572206974029541015625">
        <ele>115.59999847412109375</ele>
        <time>2023-01-27T10:59:53.000Z</time>
      </trkpt>
      <trkpt lat="40.07152877748012542724609375" lon="0.108954012393951416015625">
        <ele>115.8000030517578125</ele>
        <time>2023-01-27T10:59:54.000Z</time>
      </trkpt>
      <trkpt lat="40.07157035171985626220703125" lon="0.10897521860897541046142578125">
        <ele>115.8000030517578125</ele>
        <time>2023-01-27T10:59:55.000Z</time>
      </trkpt>
      <trkpt lat="40.071606226265430450439453125" lon="0.1089944131672382354736328125">
        <ele>116</ele>
        <time>2023-01-27T10:59:56.000Z</time>
      </trkpt>
      <trkpt lat="40.071704126894474029541015625" lon="0.10904721915721893310546875">
        <ele>116</ele>
        <time>2023-01-27T10:59:57.000Z</time>
      </trkpt>
      <trkpt lat="40.0717507302761077880859375" lon="0.10907010175287723541259765625">
        <ele>116</ele>
        <time>2023-01-27T10:59:58.000Z</time>
      </trkpt>
      <trkpt lat="40.071797668933868408203125" lon="0.10909507982432842254638671875">
        <ele>116.1999969482421875</ele>
        <time>2023-01-27T10:59:59.000Z</time>
      </trkpt>
      <trkpt lat="40.071797668933868408203125" lon="0.10909507982432842254638671875">
        <ele>116.1999969482421875</ele>
        <time>2023-01-27T11:00:00.000Z</time>
      </trkpt>
      <trkpt lat="40.07189355790615081787109375" lon="0.10914939455687999725341796875">
        <ele>116.1999969482421875</ele>
        <time>2023-01-27T11:00:01.000Z</time>
      </trkpt>
      <trkpt lat="40.07189355790615081787109375" lon="0.10914939455687999725341796875">
        <ele>116.1999969482421875</ele>
        <time>2023-01-27T11:00:02.000Z</time>
      </trkpt>
      <trkpt lat="40.07194158621132373809814453125" lon="0.1091771386563777923583984375">
        <ele>116.1999969482421875</ele>
        <time>2023-01-27T11:00:03.000Z</time>
      </trkpt>
      <trkpt lat="40.0720419175922870635986328125" lon="0.10923497378826141357421875">
        <ele>116.1999969482421875</ele>
        <time>2023-01-27T11:00:04.000Z</time>
      </trkpt>
      <trkpt lat="40.0720419175922870635986328125" lon="0.10923497378826141357421875">
        <ele>116.1999969482421875</ele>
        <time>2023-01-27T11:00:05.000Z</time>
      </trkpt>
      <trkpt lat="40.07212900556623935699462890625" lon="0.1093099080026149749755859375">
        <ele>116.1999969482421875</ele>
        <time>2023-01-27T11:00:06.000Z</time>
      </trkpt>
      <trkpt lat="40.07212900556623935699462890625" lon="0.1093099080026149749755859375">
        <ele>116.1999969482421875</ele>
        <time>2023-01-27T11:00:07.000Z</time>
      </trkpt>
      <trkpt lat="40.07217141799628734588623046875" lon="0.109368748962879180908203125">
        <ele>116</ele>
        <time>2023-01-27T11:00:08.000Z</time>
      </trkpt>
      <trkpt lat="40.07224316708743572235107421875" lon="0.10949774645268917083740234375">
        <ele>116</ele>
        <time>2023-01-27T11:00:09.000Z</time>
      </trkpt>
      <trkpt lat="40.07227987982332706451416015625" lon="0.10955491103231906890869140625">
        <ele>116</ele>
        <time>2023-01-27T11:00:10.000Z</time>
      </trkpt>
      <trkpt lat="40.07231910713016986846923828125" lon="0.1096062920987606048583984375">
        <ele>116</ele>
        <time>2023-01-27T11:00:11.000Z</time>
      </trkpt>
      <trkpt lat="40.07235632278025150299072265625" lon="0.10965582914650440216064453125">
        <ele>115.8000030517578125</ele>
        <time>2023-01-27T11:00:12.000Z</time>
      </trkpt>
      <trkpt lat="40.07239915430545806884765625" lon="0.1097036898136138916015625">
        <ele>115.8000030517578125</ele>
        <time>2023-01-27T11:00:13.000Z</time>
      </trkpt>
      <trkpt lat="40.07239915430545806884765625" lon="0.1097036898136138916015625">
        <ele>115.8000030517578125</ele>
        <time>2023-01-27T11:00:14.000Z</time>
      </trkpt>
      <trkpt lat="40.0724844820797443389892578125" lon="0.10979094542562961578369140625">
        <ele>116</ele>
        <time>2023-01-27T11:00:16.000Z</time>
      </trkpt>
      <trkpt lat="40.0725230388343334197998046875" lon="0.109837464988231658935546875">
        <ele>116.1999969482421875</ele>
        <time>2023-01-27T11:00:17.000Z</time>
      </trkpt>
      <trkpt lat="40.07259369827806949615478515625" lon="0.10992455296218395233154296875">
        <ele>116.1999969482421875</ele>
        <time>2023-01-27T11:00:18.000Z</time>
      </trkpt>
      <trkpt lat="40.07259369827806949615478515625" lon="0.10992455296218395233154296875">
        <ele>116.59999847412109375</ele>
        <time>2023-01-27T11:00:19.000Z</time>
      </trkpt>
      <trkpt lat="40.07266712374985218048095703125" lon="0.110013149678707122802734375">
        <ele>116.8000030517578125</ele>
        <time>2023-01-27T11:00:20.000Z</time>
      </trkpt>
      <trkpt lat="40.07270299829542636871337890625" lon="0.1100572384893894195556640625">
        <ele>116.8000030517578125</ele>
        <time>2023-01-27T11:00:21.000Z</time>
      </trkpt>
      <trkpt lat="40.07270299829542636871337890625" lon="0.1100572384893894195556640625">
        <ele>117</ele>
        <time>2023-01-27T11:00:22.000Z</time>
      </trkpt>
      <trkpt lat="40.072739459574222564697265625" lon="0.1100964657962322235107421875">
        <ele>117.1999969482421875</ele>
        <time>2023-01-27T11:00:23.000Z</time>
      </trkpt>
      <trkpt lat="40.0727780163288116455078125" lon="0.110134519636631011962890625">
        <ele>117.1999969482421875</ele>
        <time>2023-01-27T11:00:24.000Z</time>
      </trkpt>
      <trkpt lat="40.0728531181812286376953125" lon="0.110226385295391082763671875">
        <ele>117.40000152587890625</ele>
        <time>2023-01-27T11:00:25.000Z</time>
      </trkpt>
      <trkpt lat="40.072891674935817718505859375" lon="0.11027491651475429534912109375">
        <ele>117.40000152587890625</ele>
        <time>2023-01-27T11:00:26.000Z</time>
      </trkpt>
      <trkpt lat="40.0729686208069324493408203125" lon="0.1103827916085720062255859375">
        <ele>117.8000030517578125</ele>
        <time>2023-01-27T11:00:28.000Z</time>
      </trkpt>
      <trkpt lat="40.07306459359824657440185546875" lon="0.11056291870772838592529296875">
        <ele>117.8000030517578125</ele>
        <time>2023-01-27T11:00:31.000Z</time>
      </trkpt>
      <trkpt lat="40.0730913318693637847900390625" lon="0.110626704990863800048828125">
        <ele>117.8000030517578125</ele>
        <time>2023-01-27T11:00:32.000Z</time>
      </trkpt>
      <trkpt lat="40.07313734851777553558349609375" lon="0.11075670830905437469482421875">
        <ele>117.8000030517578125</ele>
        <time>2023-01-27T11:00:35.000Z</time>
      </trkpt>
      <trkpt lat="40.07320247590541839599609375" lon="0.1108682714402675628662109375">
        <ele>117.8000030517578125</ele>
        <time>2023-01-27T11:00:36.000Z</time>
      </trkpt>
      <trkpt lat="40.0732499174773693084716796875" lon="0.11090657673776149749755859375">
        <ele>117.8000030517578125</ele>
        <time>2023-01-27T11:00:37.000Z</time>
      </trkpt>
      <trkpt lat="40.0732499174773693084716796875" lon="0.11090657673776149749755859375">
        <ele>117.59999847412109375</ele>
        <time>2023-01-27T11:00:38.000Z</time>
      </trkpt>
      <trkpt lat="40.0733528472483158111572265625" lon="0.11096927337348461151123046875">
        <ele>117.40000152587890625</ele>
        <time>2023-01-27T11:00:39.000Z</time>
      </trkpt>
      <trkpt lat="40.0733528472483158111572265625" lon="0.11096927337348461151123046875">
        <ele>117.40000152587890625</ele>
        <time>2023-01-27T11:00:40.000Z</time>
      </trkpt>
      <trkpt lat="40.07345736958086490631103515625" lon="0.11101461946964263916015625">
        <ele>117.1999969482421875</ele>
        <time>2023-01-27T11:00:41.000Z</time>
      </trkpt>
      <trkpt lat="40.073548816144466400146484375" lon="0.11109181679785251617431640625">
        <ele>117</ele>
        <time>2023-01-27T11:00:43.000Z</time>
      </trkpt>
      <trkpt lat="40.07369466125965118408203125" lon="0.1113091595470905303955078125">
        <ele>117</ele>
        <time>2023-01-27T11:00:47.000Z</time>
      </trkpt>
      <trkpt lat="40.0737221539020538330078125" lon="0.1113782264292240142822265625">
        <ele>117</ele>
        <time>2023-01-27T11:00:48.000Z</time>
      </trkpt>
      <trkpt lat="40.07374134846031665802001953125" lon="0.11145223863422870635986328125">
        <ele>117</ele>
        <time>2023-01-27T11:00:49.000Z</time>
      </trkpt>
      <trkpt lat="40.07375098764896392822265625" lon="0.11160495691001415252685546875">
        <ele>117</ele>
        <time>2023-01-27T11:00:51.000Z</time>
      </trkpt>
      <trkpt lat="40.07374755106866359710693359375" lon="0.1116816513240337371826171875">
        <ele>117</ele>
        <time>2023-01-27T11:00:52.000Z</time>
      </trkpt>
      <trkpt lat="40.07373950444161891937255859375" lon="0.11175817809998989105224609375">
        <ele>117</ele>
        <time>2023-01-27T11:00:53.000Z</time>
      </trkpt>
      <trkpt lat="40.07369155995547771453857421875" lon="0.11214114725589752197265625">
        <ele>117.1999969482421875</ele>
        <time>2023-01-27T11:00:58.000Z</time>
      </trkpt>
      <trkpt lat="40.0736874528229236602783203125" lon="0.1122154109179973602294921875">
        <ele>117.40000152587890625</ele>
        <time>2023-01-27T11:00:59.000Z</time>
      </trkpt>
      <trkpt lat="40.0736582837998867034912109375" lon="0.1124393753707408905029296875">
        <ele>117.40000152587890625</ele>
        <time>2023-01-27T11:01:02.000Z</time>
      </trkpt>
      <trkpt lat="40.07362852804362773895263671875" lon="0.11258295737206935882568359375">
        <ele>117.1999969482421875</ele>
        <time>2023-01-27T11:01:04.000Z</time>
      </trkpt>
      <trkpt lat="40.0736120156943798065185546875" lon="0.11265839450061321258544921875">
        <ele>117.1999969482421875</ele>
        <time>2023-01-27T11:01:05.000Z</time>
      </trkpt>
      <trkpt lat="40.07356734015047550201416015625" lon="0.112892501056194305419921875">
        <ele>117.1999969482421875</ele>
        <time>2023-01-27T11:01:08.000Z</time>
      </trkpt>
      <trkpt lat="40.073551498353481292724609375" lon="0.112976320087909698486328125">
        <ele>117.1999969482421875</ele>
        <time>2023-01-27T11:01:09.000Z</time>
      </trkpt>
      <trkpt lat="40.07354219444096088409423828125" lon="0.11306357569992542266845703125">
        <ele>116.59999847412109375</ele>
        <time>2023-01-27T11:01:11.000Z</time>
      </trkpt>
      <trkpt lat="40.07354068569839000701904296875" lon="0.1131531782448291778564453125">
        <ele>116.40000152587890625</ele>
        <time>2023-01-27T11:01:12.000Z</time>
      </trkpt>
      <trkpt lat="40.07358200848102569580078125" lon="0.113318972289562225341796875">
        <ele>116</ele>
        <time>2023-01-27T11:01:13.000Z</time>
      </trkpt>
      <trkpt lat="40.0736153684556484222412109375" lon="0.1133925653994083404541015625">
        <ele>115.8000030517578125</ele>
        <time>2023-01-27T11:01:14.000Z</time>
      </trkpt>
      <trkpt lat="40.0736153684556484222412109375" lon="0.1133925653994083404541015625">
        <ele>115.59999847412109375</ele>
        <time>2023-01-27T11:01:15.000Z</time>
      </trkpt>
      <trkpt lat="40.073706395924091339111328125" lon="0.11352223344147205352783203125">
        <ele>115.1999969482421875</ele>
        <time>2023-01-27T11:01:16.000Z</time>
      </trkpt>
      <trkpt lat="40.07375123910605907440185546875" lon="0.11358140967786312103271484375">
        <ele>115</ele>
        <time>2023-01-27T11:01:17.000Z</time>
      </trkpt>
      <trkpt lat="40.07383321411907672882080078125" lon="0.11369607411324977874755859375">
        <ele>114.8000030517578125</ele>
        <time>2023-01-27T11:01:19.000Z</time>
      </trkpt>
      <trkpt lat="40.07390789687633514404296875" lon="0.11380889452993869781494140625">
        <ele>114.59999847412109375</ele>
        <time>2023-01-27T11:01:21.000Z</time>
      </trkpt>
      <trkpt lat="40.07394586689770221710205078125" lon="0.11386555619537830352783203125">
        <ele>114.59999847412109375</ele>
        <time>2023-01-27T11:01:22.000Z</time>
      </trkpt>
      <trkpt lat="40.07398325018584728240966796875" lon="0.1139206252992153167724609375">
        <ele>114.40000152587890625</ele>
        <time>2023-01-27T11:01:23.000Z</time>
      </trkpt>
      <trkpt lat="40.07401652634143829345703125" lon="0.1139836572110652923583984375">
        <ele>114.40000152587890625</ele>
        <time>2023-01-27T11:01:24.000Z</time>
      </trkpt>
      <trkpt lat="40.07401652634143829345703125" lon="0.1139836572110652923583984375">
        <ele>114.40000152587890625</ele>
        <time>2023-01-27T11:01:25.000Z</time>
      </trkpt>
      <trkpt lat="40.074060447514057159423828125" lon="0.1141308434307575225830078125">
        <ele>114.40000152587890625</ele>
        <time>2023-01-27T11:01:26.000Z</time>
      </trkpt>
      <trkpt lat="40.07407109253108501434326171875" lon="0.11420820839703083038330078125">
        <ele>114.40000152587890625</ele>
        <time>2023-01-27T11:01:28.000Z</time>
      </trkpt>
      <trkpt lat="40.07405935786664485931396484375" lon="0.11436360888183116912841796875">
        <ele>114.40000152587890625</ele>
        <time>2023-01-27T11:01:29.000Z</time>
      </trkpt>
      <trkpt lat="40.07404527626931667327880859375" lon="0.11443912982940673828125">
        <ele>114.40000152587890625</ele>
        <time>2023-01-27T11:01:30.000Z</time>
      </trkpt>
      <trkpt lat="40.07403085939586162567138671875" lon="0.114515237510204315185546875">
        <ele>114.40000152587890625</ele>
        <time>2023-01-27T11:01:31.000Z</time>
      </trkpt>
      <trkpt lat="40.07401359267532825469970703125" lon="0.11459209956228733062744140625">
        <ele>114.40000152587890625</ele>
        <time>2023-01-27T11:01:32.000Z</time>
      </trkpt>
      <trkpt lat="40.07400118745863437652587890625" lon="0.1146679557859897613525390625">
        <ele>114.40000152587890625</ele>
        <time>2023-01-27T11:01:33.000Z</time>
      </trkpt>
      <trkpt lat="40.0740036182105541229248046875" lon="0.11498252861201763153076171875">
        <ele>114.8000030517578125</ele>
        <time>2023-01-27T11:01:37.000Z</time>
      </trkpt>
      <trkpt lat="40.0740156881511211395263671875" lon="0.11506031267344951629638671875">
        <ele>114.59999847412109375</ele>
        <time>2023-01-27T11:01:38.000Z</time>
      </trkpt>
      <trkpt lat="40.0741159357130527496337890625" lon="0.1156402565538883209228515625">
        <ele>114.59999847412109375</ele>
        <time>2023-01-27T11:01:45.000Z</time>
      </trkpt>
      <trkpt lat="40.07420319132506847381591796875" lon="0.1159658096730709075927734375">
        <ele>114.1999969482421875</ele>
        <time>2023-01-27T11:01:48.000Z</time>
      </trkpt>
      <trkpt lat="40.07423286326229572296142578125" lon="0.11608391068875789642333984375">
        <ele>114</ele>
        <time>2023-01-27T11:01:49.000Z</time>
      </trkpt>
      <trkpt lat="40.0742983259260654449462890625" lon="0.116316340863704681396484375">
        <ele>113</ele>
        <time>2023-01-27T11:01:51.000Z</time>
      </trkpt>
      <trkpt lat="40.0743710808455944061279296875" lon="0.1165364496409893035888671875">
        <ele>111.1999969482421875</ele>
        <time>2023-01-27T11:01:53.000Z</time>
      </trkpt>
      <trkpt lat="40.0744032673537731170654296875" lon="0.11664264835417270660400390625">
        <ele>111</ele>
        <time>2023-01-27T11:01:54.000Z</time>
      </trkpt>
      <trkpt lat="40.07443034090101718902587890625" lon="0.116744153201580047607421875">
        <ele>110.40000152587890625</ele>
        <time>2023-01-27T11:01:55.000Z</time>
      </trkpt>
      <trkpt lat="40.07443034090101718902587890625" lon="0.116744153201580047607421875">
        <ele>109.8000030517578125</ele>
        <time>2023-01-27T11:01:56.000Z</time>
      </trkpt>
      <trkpt lat="40.074454061686992645263671875" lon="0.1168415509164333343505859375">
        <ele>109.59999847412109375</ele>
        <time>2023-01-27T11:01:57.000Z</time>
      </trkpt>
      <trkpt lat="40.07449069060385227203369140625" lon="0.1170293055474758148193359375">
        <ele>109.1999969482421875</ele>
        <time>2023-01-27T11:01:58.000Z</time>
      </trkpt>
      <trkpt lat="40.0745061971247196197509765625" lon="0.11711723171174526214599609375">
        <ele>109</ele>
        <time>2023-01-27T11:01:59.000Z</time>
      </trkpt>
      <trkpt lat="40.0745149143040180206298828125" lon="0.11720490641891956329345703125">
        <ele>108.8000030517578125</ele>
        <time>2023-01-27T11:02:00.000Z</time>
      </trkpt>
      <trkpt lat="40.0745149143040180206298828125" lon="0.11720490641891956329345703125">
        <ele>108.8000030517578125</ele>
        <time>2023-01-27T11:02:01.000Z</time>
      </trkpt>
      <trkpt lat="40.07451533339917659759521484375" lon="0.117294676601886749267578125">
        <ele>108.59999847412109375</ele>
        <time>2023-01-27T11:02:02.000Z</time>
      </trkpt>
      <trkpt lat="40.07448884658515453338623046875" lon="0.11746927164494991302490234375">
        <ele>108.40000152587890625</ele>
        <time>2023-01-27T11:02:03.000Z</time>
      </trkpt>
      <trkpt lat="40.07446990348398685455322265625" lon="0.11755652725696563720703125">
        <ele>108</ele>
        <time>2023-01-27T11:02:04.000Z</time>
      </trkpt>
      <trkpt lat="40.07446990348398685455322265625" lon="0.11755652725696563720703125">
        <ele>108</ele>
        <time>2023-01-27T11:02:05.000Z</time>
      </trkpt>
      <trkpt lat="40.07443319074809551239013671875" lon="0.11773983947932720184326171875">
        <ele>107.8000030517578125</ele>
        <time>2023-01-27T11:02:06.000Z</time>
      </trkpt>
      <trkpt lat="40.0744133256375789642333984375" lon="0.11783413589000701904296875">
        <ele>107.59999847412109375</ele>
        <time>2023-01-27T11:02:07.000Z</time>
      </trkpt>
      <trkpt lat="40.0743670575320720672607421875" lon="0.11802448891103267669677734375">
        <ele>107</ele>
        <time>2023-01-27T11:02:09.000Z</time>
      </trkpt>
      <trkpt lat="40.0743499584496021270751953125" lon="0.11811803095042705535888671875">
        <ele>106.8000030517578125</ele>
        <time>2023-01-27T11:02:10.000Z</time>
      </trkpt>
      <trkpt lat="40.074341408908367156982421875" lon="0.11820503510534763336181640625">
        <ele>106.59999847412109375</ele>
        <time>2023-01-27T11:02:11.000Z</time>
      </trkpt>
      <trkpt lat="40.07434551604092121124267578125" lon="0.11828315444290637969970703125">
        <ele>105.59999847412109375</ele>
        <time>2023-01-27T11:02:13.000Z</time>
      </trkpt>
      <trkpt lat="40.0744029320776462554931640625" lon="0.118379630148410797119140625">
        <ele>105.40000152587890625</ele>
        <time>2023-01-27T11:02:14.000Z</time>
      </trkpt>
      <trkpt lat="40.0744450092315673828125" lon="0.11839480139315128326416015625">
        <ele>104.8000030517578125</ele>
        <time>2023-01-27T11:02:15.000Z</time>
      </trkpt>
      <trkpt lat="40.07448934949934482574462890625" lon="0.11838759295642375946044921875">
        <ele>104.40000152587890625</ele>
        <time>2023-01-27T11:02:16.000Z</time>
      </trkpt>
      <trkpt lat="40.07453779689967632293701171875" lon="0.11836244724690914154052734375">
        <ele>104</ele>
        <time>2023-01-27T11:02:17.000Z</time>
      </trkpt>
      <trkpt lat="40.07453779689967632293701171875" lon="0.11836244724690914154052734375">
        <ele>103.59999847412109375</ele>
        <time>2023-01-27T11:02:18.000Z</time>
      </trkpt>
      <trkpt lat="40.07465531118214130401611328125" lon="0.11828030459582805633544921875">
        <ele>102.8000030517578125</ele>
        <time>2023-01-27T11:02:19.000Z</time>
      </trkpt>
      <trkpt lat="40.0747231207787990570068359375" lon="0.11823588050901889801025390625">
        <ele>102.1999969482421875</ele>
        <time>2023-01-27T11:02:20.000Z</time>
      </trkpt>
      <trkpt lat="40.074798725545406341552734375" lon="0.11818726547062397003173828125">
        <ele>101.59999847412109375</ele>
        <time>2023-01-27T11:02:21.000Z</time>
      </trkpt>
      <trkpt lat="40.07506518624722957611083984375" lon="0.1179997622966766357421875">
        <ele>100.1999969482421875</ele>
        <time>2023-01-27T11:02:24.000Z</time>
      </trkpt>
      <trkpt lat="40.0751531124114990234375" lon="0.1179353892803192138671875">
        <ele>99.8000030517578125</ele>
        <time>2023-01-27T11:02:25.000Z</time>
      </trkpt>
      <trkpt lat="40.07524254731833934783935546875" lon="0.11787210591137409210205078125">
        <ele>99</ele>
        <time>2023-01-27T11:02:26.000Z</time>
      </trkpt>
      <trkpt lat="40.07541689090430736541748046875" lon="0.11774704791605472564697265625">
        <ele>98.1999969482421875</ele>
        <time>2023-01-27T11:02:28.000Z</time>
      </trkpt>
      <trkpt lat="40.07550171576440334320068359375" lon="0.11768418364226818084716796875">
        <ele>97.59999847412109375</ele>
        <time>2023-01-27T11:02:29.000Z</time>
      </trkpt>
      <trkpt lat="40.07558620534837245941162109375" lon="0.1176210679113864898681640625">
        <ele>96.40000152587890625</ele>
        <time>2023-01-27T11:02:30.000Z</time>
      </trkpt>
      <trkpt lat="40.07584176957607269287109375" lon="0.11742585338652133941650390625">
        <ele>95</ele>
        <time>2023-01-27T11:02:33.000Z</time>
      </trkpt>
      <trkpt lat="40.07599658332765102386474609375" lon="0.11733817867934703826904296875">
        <ele>93.59999847412109375</ele>
        <time>2023-01-27T11:02:35.000Z</time>
      </trkpt>
      <trkpt lat="40.0760628841817378997802734375" lon="0.11731571517884731292724609375">
        <ele>93</ele>
        <time>2023-01-27T11:02:36.000Z</time>
      </trkpt>
      <trkpt lat="40.07611761800944805145263671875" lon="0.11731370352208614349365234375">
        <ele>92.1999969482421875</ele>
        <time>2023-01-27T11:02:37.000Z</time>
      </trkpt>
      <trkpt lat="40.07616925053298473358154296875" lon="0.1173318922519683837890625">
        <ele>91.8000030517578125</ele>
        <time>2023-01-27T11:02:38.000Z</time>
      </trkpt>
      <trkpt lat="40.07616925053298473358154296875" lon="0.1173318922519683837890625">
        <ele>91.1999969482421875</ele>
        <time>2023-01-27T11:02:39.000Z</time>
      </trkpt>
      <trkpt lat="40.0762586854398250579833984375" lon="0.1174581237137317657470703125">
        <ele>90.8000030517578125</ele>
        <time>2023-01-27T11:02:40.000Z</time>
      </trkpt>
      <trkpt lat="40.07636069320142269134521484375" lon="0.11757018975913524627685546875">
        <ele>89.59999847412109375</ele>
        <time>2023-01-27T11:02:42.000Z</time>
      </trkpt>
      <trkpt lat="40.0764192827045917510986328125" lon="0.11758041568100452423095703125">
        <ele>89.40000152587890625</ele>
        <time>2023-01-27T11:02:43.000Z</time>
      </trkpt>
      <trkpt lat="40.0764910317957401275634765625" lon="0.11756834574043750762939453125">
        <ele>88.1999969482421875</ele>
        <time>2023-01-27T11:02:44.000Z</time>
      </trkpt>
      <trkpt lat="40.07657074369490146636962890625" lon="0.11754889972507953643798828125">
        <ele>87.59999847412109375</ele>
        <time>2023-01-27T11:02:45.000Z</time>
      </trkpt>
      <trkpt lat="40.07665255106985569000244140625" lon="0.117536075413227081298828125">
        <ele>86.1999969482421875</ele>
        <time>2023-01-27T11:02:46.000Z</time>
      </trkpt>
      <trkpt lat="40.07683309726417064666748046875" lon="0.11752492748200893402099609375">
        <ele>85</ele>
        <time>2023-01-27T11:02:48.000Z</time>
      </trkpt>
      <trkpt lat="40.0769305787980556488037109375" lon="0.1175251789391040802001953125">
        <ele>84.59999847412109375</ele>
        <time>2023-01-27T11:02:49.000Z</time>
      </trkpt>
      <trkpt lat="40.07703074254095554351806640625" lon="0.1175352372229099273681640625">
        <ele>83.8000030517578125</ele>
        <time>2023-01-27T11:02:50.000Z</time>
      </trkpt>
      <trkpt lat="40.07724213413894176483154296875" lon="0.11758879758417606353759765625">
        <ele>82.8000030517578125</ele>
        <time>2023-01-27T11:02:52.000Z</time>
      </trkpt>
      <trkpt lat="40.077350176870822906494140625" lon="0.11761914007365703582763671875">
        <ele>82.1999969482421875</ele>
        <time>2023-01-27T11:02:53.000Z</time>
      </trkpt>
      <trkpt lat="40.07745604030787944793701171875" lon="0.1176478900015354156494140625">
        <ele>81</ele>
        <time>2023-01-27T11:02:54.000Z</time>
      </trkpt>
      <trkpt lat="40.07745604030787944793701171875" lon="0.1176478900015354156494140625">
        <ele>79.59999847412109375</ele>
        <time>2023-01-27T11:02:55.000Z</time>
      </trkpt>
      <trkpt lat="40.07776600308716297149658203125" lon="0.117731876671314239501953125">
        <ele>77.1999969482421875</ele>
        <time>2023-01-27T11:02:57.000Z</time>
      </trkpt>
      <trkpt lat="40.07786356844007968902587890625" lon="0.11776439845561981201171875">
        <ele>76.8000030517578125</ele>
        <time>2023-01-27T11:02:58.000Z</time>
      </trkpt>
      <trkpt lat="40.07786356844007968902587890625" lon="0.11776439845561981201171875">
        <ele>75.8000030517578125</ele>
        <time>2023-01-27T11:02:59.000Z</time>
      </trkpt>
      <trkpt lat="40.0780244171619415283203125" lon="0.11781007982790470123291015625">
        <ele>75.1999969482421875</ele>
        <time>2023-01-27T11:03:00.000Z</time>
      </trkpt>
      <trkpt lat="40.078093819320201873779296875" lon="0.117810666561126708984375">
        <ele>73.8000030517578125</ele>
        <time>2023-01-27T11:03:01.000Z</time>
      </trkpt>
      <trkpt lat="40.078170597553253173828125" lon="0.11778309009969234466552734375">
        <ele>72.8000030517578125</ele>
        <time>2023-01-27T11:03:02.000Z</time>
      </trkpt>
      <trkpt lat="40.07824410684406757354736328125" lon="0.117733888328075408935546875">
        <ele>70.8000030517578125</ele>
        <time>2023-01-27T11:03:03.000Z</time>
      </trkpt>
      <trkpt lat="40.07830864749848842620849609375" lon="0.11766842566430568695068359375">
        <ele>69.8000030517578125</ele>
        <time>2023-01-27T11:03:04.000Z</time>
      </trkpt>
      <trkpt lat="40.078363381326198577880859375" lon="0.11759852059185504913330078125">
        <ele>68.8000030517578125</ele>
        <time>2023-01-27T11:03:05.000Z</time>
      </trkpt>
      <trkpt lat="40.078363381326198577880859375" lon="0.11759852059185504913330078125">
        <ele>67.8000030517578125</ele>
        <time>2023-01-27T11:03:06.000Z</time>
      </trkpt>
      <trkpt lat="40.07846840657293796539306640625" lon="0.1174467243254184722900390625">
        <ele>67.40000152587890625</ele>
        <time>2023-01-27T11:03:07.000Z</time>
      </trkpt>
      <trkpt lat="40.0785157643258571624755859375" lon="0.11735913343727588653564453125">
        <ele>67</ele>
        <time>2023-01-27T11:03:08.000Z</time>
      </trkpt>
      <trkpt lat="40.078561864793300628662109375" lon="0.1172764040529727935791015625">
        <ele>66.59999847412109375</ele>
        <time>2023-01-27T11:03:09.000Z</time>
      </trkpt>
      <trkpt lat="40.07860721088945865631103515625" lon="0.11720649898052215576171875">
        <ele>65.59999847412109375</ele>
        <time>2023-01-27T11:03:10.000Z</time>
      </trkpt>
      <trkpt lat="40.07865113206207752227783203125" lon="0.1171560399234294891357421875">
        <ele>65</ele>
        <time>2023-01-27T11:03:11.000Z</time>
      </trkpt>
      <trkpt lat="40.07870410569012165069580078125" lon="0.1171315647661685943603515625">
        <ele>64</ele>
        <time>2023-01-27T11:03:12.000Z</time>
      </trkpt>
      <trkpt lat="40.0787554867565631866455078125" lon="0.11713868938386440277099609375">
        <ele>63.799999237060546875</ele>
        <time>2023-01-27T11:03:13.000Z</time>
      </trkpt>
      <trkpt lat="40.078801251947879791259765625" lon="0.11717322282493114471435546875">
        <ele>63.200000762939453125</ele>
        <time>2023-01-27T11:03:14.000Z</time>
      </trkpt>
      <trkpt lat="40.07884316146373748779296875" lon="0.1172200776636600494384765625">
        <ele>62.799999237060546875</ele>
        <time>2023-01-27T11:03:15.000Z</time>
      </trkpt>
      <trkpt lat="40.07884316146373748779296875" lon="0.1172200776636600494384765625">
        <ele>62.40000152587890625</ele>
        <time>2023-01-27T11:03:16.000Z</time>
      </trkpt>
      <trkpt lat="40.07890074513852596282958984375" lon="0.11737992055714130401611328125">
        <ele>62.200000762939453125</ele>
        <time>2023-01-27T11:03:17.000Z</time>
      </trkpt>
      <trkpt lat="40.07893561385571956634521484375" lon="0.11746407486498355865478515625">
        <ele>62.200000762939453125</ele>
        <time>2023-01-27T11:03:18.000Z</time>
      </trkpt>
      <trkpt lat="40.07897484116256237030029296875" lon="0.11755040846765041351318359375">
        <ele>62</ele>
        <time>2023-01-27T11:03:19.000Z</time>
      </trkpt>
      <trkpt lat="40.079019851982593536376953125" lon="0.11764126829802989959716796875">
        <ele>61.59999847412109375</ele>
        <time>2023-01-27T11:03:21.000Z</time>
      </trkpt>
      <trkpt lat="40.07911616005003452301025390625" lon="0.1178093254566192626953125">
        <ele>61.59999847412109375</ele>
        <time>2023-01-27T11:03:22.000Z</time>
      </trkpt>
      <trkpt lat="40.07923015393316745758056640625" lon="0.11795626021921634674072265625">
        <ele>60.59999847412109375</ele>
        <time>2023-01-27T11:03:24.000Z</time>
      </trkpt>
      <trkpt lat="40.07928966544568538665771484375" lon="0.1180435158312320709228515625">
        <ele>59.59999847412109375</ele>
        <time>2023-01-27T11:03:25.000Z</time>
      </trkpt>
      <trkpt lat="40.07933811284601688385009765625" lon="0.1181172765791416168212890625">
        <ele>59.40000152587890625</ele>
        <time>2023-01-27T11:03:26.000Z</time>
      </trkpt>
      <trkpt lat="40.07938630878925323486328125" lon="0.11818760074675083160400390625">
        <ele>58.799999237060546875</ele>
        <time>2023-01-27T11:03:27.000Z</time>
      </trkpt>
      <trkpt lat="40.07944439537823200225830078125" lon="0.118272006511688232421875">
        <ele>58.59999847412109375</ele>
        <time>2023-01-27T11:03:28.000Z</time>
      </trkpt>
      <trkpt lat="40.079541541635990142822265625" lon="0.1184072904288768768310546875">
        <ele>57.200000762939453125</ele>
        <time>2023-01-27T11:03:30.000Z</time>
      </trkpt>
      <trkpt lat="40.08010991849005222320556640625" lon="0.119046159088611602783203125">
        <ele>55</ele>
        <time>2023-01-27T11:03:43.000Z</time>
      </trkpt>
      <trkpt lat="40.08019507862627506256103515625" lon="0.11907842941582202911376953125">
        <ele>55</ele>
        <time>2023-01-27T11:03:44.000Z</time>
      </trkpt>
      <trkpt lat="40.0802558474242687225341796875" lon="0.11909904889762401580810546875">
        <ele>54.799999237060546875</ele>
        <time>2023-01-27T11:03:45.000Z</time>
      </trkpt>
      <trkpt lat="40.0803115032613277435302734375" lon="0.11911413632333278656005859375">
        <ele>54.799999237060546875</ele>
        <time>2023-01-27T11:03:46.000Z</time>
      </trkpt>
      <trkpt lat="40.08037964813411235809326171875" lon="0.11912201531231403350830078125">
        <ele>54.799999237060546875</ele>
        <time>2023-01-27T11:03:47.000Z</time>
      </trkpt>
      <trkpt lat="40.08037964813411235809326171875" lon="0.11912201531231403350830078125">
        <ele>54.799999237060546875</ele>
        <time>2023-01-27T11:03:48.000Z</time>
      </trkpt>
      <trkpt lat="40.0805331207811832427978515625" lon="0.11916677467525005340576171875">
        <ele>54.799999237060546875</ele>
        <time>2023-01-27T11:03:49.000Z</time>
      </trkpt>
      <trkpt lat="40.08059673942625522613525390625" lon="0.11919242329895496368408203125">
        <ele>54.799999237060546875</ele>
        <time>2023-01-27T11:03:50.000Z</time>
      </trkpt>
      <trkpt lat="40.0807993300259113311767578125" lon="0.11929770000278949737548828125">
        <ele>54.40000152587890625</ele>
        <time>2023-01-27T11:03:53.000Z</time>
      </trkpt>
      <trkpt lat="40.080863200128078460693359375" lon="0.1193370111286640167236328125">
        <ele>54</ele>
        <time>2023-01-27T11:03:54.000Z</time>
      </trkpt>
      <trkpt lat="40.080983899533748626708984375" lon="0.1194469816982746124267578125">
        <ele>53.200000762939453125</ele>
        <time>2023-01-27T11:03:56.000Z</time>
      </trkpt>
      <trkpt lat="40.081110298633575439453125" lon="0.119557119905948638916015625">
        <ele>52.59999847412109375</ele>
        <time>2023-01-27T11:03:58.000Z</time>
      </trkpt>
      <trkpt lat="40.08127030916512012481689453125" lon="0.11972350068390369415283203125">
        <ele>52.200000762939453125</ele>
        <time>2023-01-27T11:04:01.000Z</time>
      </trkpt>
      <trkpt lat="40.08127030916512012481689453125" lon="0.11972350068390369415283203125">
        <ele>52</ele>
        <time>2023-01-27T11:04:02.000Z</time>
      </trkpt>
      <trkpt lat="40.08134742267429828643798828125" lon="0.1198050566017627716064453125">
        <ele>52</ele>
        <time>2023-01-27T11:04:03.000Z</time>
      </trkpt>
      <trkpt lat="40.08138715289533138275146484375" lon="0.1198416016995906829833984375">
        <ele>52</ele>
        <time>2023-01-27T11:04:04.000Z</time>
      </trkpt>
      <trkpt lat="40.081425793468952178955078125" lon="0.11987571604549884796142578125">
        <ele>52</ele>
        <time>2023-01-27T11:04:05.000Z</time>
      </trkpt>
      <trkpt lat="40.0814591534435749053955078125" lon="0.1199054718017578125">
        <ele>52</ele>
        <time>2023-01-27T11:04:06.000Z</time>
      </trkpt>
      <trkpt lat="40.0814846344292163848876953125" lon="0.119937323033809661865234375">
        <ele>52</ele>
        <time>2023-01-27T11:04:07.000Z</time>
      </trkpt>
      <trkpt lat="40.081511624157428741455078125" lon="0.11997277848422527313232421875">
        <ele>52.200000762939453125</ele>
        <time>2023-01-27T11:04:08.000Z</time>
      </trkpt>
      <trkpt lat="40.08153802715241909027099609375" lon="0.12000915594398975372314453125">
        <ele>52.59999847412109375</ele>
        <time>2023-01-27T11:04:09.000Z</time>
      </trkpt>
      <trkpt lat="40.08156769908964633941650390625" lon="0.120041929185390472412109375">
        <ele>52.799999237060546875</ele>
        <time>2023-01-27T11:04:10.000Z</time>
      </trkpt>
      <trkpt lat="40.08164900355041027069091796875" lon="0.120143853127956390380859375">
        <ele>53.40000152587890625</ele>
        <time>2023-01-27T11:04:13.000Z</time>
      </trkpt>
      <trkpt lat="40.0817032344639301300048828125" lon="0.12021753005683422088623046875">
        <ele>53.59999847412109375</ele>
        <time>2023-01-27T11:04:15.000Z</time>
      </trkpt>
      <trkpt lat="40.081767104566097259521484375" lon="0.12030780315399169921875">
        <ele>54.200000762939453125</ele>
        <time>2023-01-27T11:04:17.000Z</time>
      </trkpt>
      <trkpt lat="40.08187799714505672454833984375" lon="0.1204601861536502838134765625">
        <ele>54.59999847412109375</ele>
        <time>2023-01-27T11:04:20.000Z</time>
      </trkpt>
      <trkpt lat="40.08191403932869434356689453125" lon="0.1205161772668361663818359375">
        <ele>54.799999237060546875</ele>
        <time>2023-01-27T11:04:21.000Z</time>
      </trkpt>
      <trkpt lat="40.08199651725590229034423828125" lon="0.12063897214829921722412109375">
        <ele>54.799999237060546875</ele>
        <time>2023-01-27T11:04:23.000Z</time>
      </trkpt>
      <trkpt lat="40.0821525044739246368408203125" lon="0.12091222219169139862060546875">
        <ele>54.59999847412109375</ele>
        <time>2023-01-27T11:04:27.000Z</time>
      </trkpt>
      <trkpt lat="40.08221813477575778961181640625" lon="0.1210395433008670806884765625">
        <ele>54.200000762939453125</ele>
        <time>2023-01-27T11:04:29.000Z</time>
      </trkpt>
      <trkpt lat="40.0822319649159908294677734375" lon="0.1210988871753215789794921875">
        <ele>54</ele>
        <time>2023-01-27T11:04:30.000Z</time>
      </trkpt>
      <trkpt lat="40.08222986944019794464111328125" lon="0.12116267345845699310302734375">
        <ele>53.799999237060546875</ele>
        <time>2023-01-27T11:04:31.000Z</time>
      </trkpt>
      <trkpt lat="40.08220958523452281951904296875" lon="0.1212242804467678070068359375">
        <ele>53.59999847412109375</ele>
        <time>2023-01-27T11:04:32.000Z</time>
      </trkpt>
      <trkpt lat="40.0821799971163272857666015625" lon="0.12127532623708248138427734375">
        <ele>53.40000152587890625</ele>
        <time>2023-01-27T11:04:33.000Z</time>
      </trkpt>
      <trkpt lat="40.08214320056140422821044921875" lon="0.121316649019718170166015625">
        <ele>53.200000762939453125</ele>
        <time>2023-01-27T11:04:34.000Z</time>
      </trkpt>
      <trkpt lat="40.0821072421967983245849609375" lon="0.12135227210819721221923828125">
        <ele>53</ele>
        <time>2023-01-27T11:04:35.000Z</time>
      </trkpt>
      <trkpt lat="40.0820727087557315826416015625" lon="0.12138672173023223876953125">
        <ele>53</ele>
        <time>2023-01-27T11:04:36.000Z</time>
      </trkpt>
      <trkpt lat="40.08203540928661823272705078125" lon="0.12141932733356952667236328125">
        <ele>53</ele>
        <time>2023-01-27T11:04:37.000Z</time>
      </trkpt>
      <trkpt lat="40.0819147936999797821044921875" lon="0.1215186528861522674560546875">
        <ele>53</ele>
        <time>2023-01-27T11:04:40.000Z</time>
      </trkpt>
      <trkpt lat="40.08187833242118358612060546875" lon="0.121561400592327117919921875">
        <ele>53.200000762939453125</ele>
        <time>2023-01-27T11:04:41.000Z</time>
      </trkpt>
      <trkpt lat="40.08180725388228893280029296875" lon="0.1216537691652774810791015625">
        <ele>53.40000152587890625</ele>
        <time>2023-01-27T11:04:43.000Z</time>
      </trkpt>
      <trkpt lat="40.08172578178346157073974609375" lon="0.121744461357593536376953125">
        <ele>53.59999847412109375</ele>
        <time>2023-01-27T11:04:45.000Z</time>
      </trkpt>
      <trkpt lat="40.08154087699949741363525390625" lon="0.1218903064727783203125">
        <ele>54</ele>
        <time>2023-01-27T11:04:49.000Z</time>
      </trkpt>
      <trkpt lat="40.08138648234307765960693359375" lon="0.121959038078784942626953125">
        <ele>54.200000762939453125</ele>
        <time>2023-01-27T11:04:52.000Z</time>
      </trkpt>
      <trkpt lat="40.08128003217279911041259765625" lon="0.1219930686056613922119140625">
        <ele>54.200000762939453125</ele>
        <time>2023-01-27T11:04:54.000Z</time>
      </trkpt>
      <trkpt lat="40.08122898638248443603515625" lon="0.122006647288799285888671875">
        <ele>54.40000152587890625</ele>
        <time>2023-01-27T11:04:55.000Z</time>
      </trkpt>
      <trkpt lat="40.0811393000185489654541015625" lon="0.122005641460418701171875">
        <ele>54.40000152587890625</ele>
        <time>2023-01-27T11:04:57.000Z</time>
      </trkpt>
      <trkpt lat="40.0810893438756465911865234375" lon="0.1220014505088329315185546875">
        <ele>54.40000152587890625</ele>
        <time>2023-01-27T11:04:58.000Z</time>
      </trkpt>
      <trkpt lat="40.08103989064693450927734375" lon="0.1220058090984821319580078125">
        <ele>54.40000152587890625</ele>
        <time>2023-01-27T11:05:00.000Z</time>
      </trkpt>
      <trkpt lat="40.0809421576559543609619140625" lon="0.1220219023525714874267578125">
        <ele>54.40000152587890625</ele>
        <time>2023-01-27T11:05:01.000Z</time>
      </trkpt>
      <trkpt lat="40.08077627979218959808349609375" lon="0.12202986516058444976806640625">
        <ele>54.40000152587890625</ele>
        <time>2023-01-27T11:05:04.000Z</time>
      </trkpt>
      <trkpt lat="40.08067586459219455718994140625" lon="0.1220601238310337066650390625">
        <ele>54.40000152587890625</ele>
        <time>2023-01-27T11:05:06.000Z</time>
      </trkpt>
      <trkpt lat="40.0806288421154022216796875" lon="0.1220671646296977996826171875">
        <ele>54.59999847412109375</ele>
        <time>2023-01-27T11:05:07.000Z</time>
      </trkpt>
      <trkpt lat="40.08058483712375164031982421875" lon="0.1220668293535709381103515625">
        <ele>54.59999847412109375</ele>
        <time>2023-01-27T11:05:08.000Z</time>
      </trkpt>
      <trkpt lat="40.08053923957049846649169921875" lon="0.1220584474503993988037109375">
        <ele>54.59999847412109375</ele>
        <time>2023-01-27T11:05:09.000Z</time>
      </trkpt>
      <trkpt lat="40.08045642636716365814208984375" lon="0.1220148615539073944091796875">
        <ele>54.59999847412109375</ele>
        <time>2023-01-27T11:05:11.000Z</time>
      </trkpt>
      <trkpt lat="40.08042088709771633148193359375" lon="0.1219900511205196380615234375">
        <ele>54.59999847412109375</ele>
        <time>2023-01-27T11:05:12.000Z</time>
      </trkpt>
      <trkpt lat="40.08038551546633243560791015625" lon="0.12196415103971958160400390625">
        <ele>54.59999847412109375</ele>
        <time>2023-01-27T11:05:13.000Z</time>
      </trkpt>
      <trkpt lat="40.08034628815948963165283203125" lon="0.1219384185969829559326171875">
        <ele>54.59999847412109375</ele>
        <time>2023-01-27T11:05:14.000Z</time>
      </trkpt>
      <trkpt lat="40.08030538447201251983642578125" lon="0.1219146139919757843017578125">
        <ele>54.59999847412109375</ele>
        <time>2023-01-27T11:05:15.000Z</time>
      </trkpt>
      <trkpt lat="40.0801956653594970703125" lon="0.121879242360591888427734375">
        <ele>54.59999847412109375</ele>
        <time>2023-01-27T11:05:18.000Z</time>
      </trkpt>
      <trkpt lat="40.08016037754714488983154296875" lon="0.12186742387712001800537109375">
        <ele>54.799999237060546875</ele>
        <time>2023-01-27T11:05:19.000Z</time>
      </trkpt>
      <trkpt lat="40.0801254250109195709228515625" lon="0.12185401283204555511474609375">
        <ele>55</ele>
        <time>2023-01-27T11:05:20.000Z</time>
      </trkpt>
      <trkpt lat="40.0801254250109195709228515625" lon="0.12185401283204555511474609375">
        <ele>55.200000762939453125</ele>
        <time>2023-01-27T11:05:21.000Z</time>
      </trkpt>
      <trkpt lat="40.08004202507436275482177734375" lon="0.12183305807411670684814453125">
        <ele>55.59999847412109375</ele>
        <time>2023-01-27T11:05:22.000Z</time>
      </trkpt>
      <trkpt lat="40.08000212721526622772216796875" lon="0.12183372862637042999267578125">
        <ele>56</ele>
        <time>2023-01-27T11:05:23.000Z</time>
      </trkpt>
      <trkpt lat="40.079963319003582000732421875" lon="0.12183666229248046875">
        <ele>56.200000762939453125</ele>
        <time>2023-01-27T11:05:24.000Z</time>
      </trkpt>
      <trkpt lat="40.07991428487002849578857421875" lon="0.1218259334564208984375">
        <ele>56.40000152587890625</ele>
        <time>2023-01-27T11:05:25.000Z</time>
      </trkpt>
      <trkpt lat="40.079871118068695068359375" lon="0.1218197308480739593505859375">
        <ele>56.59999847412109375</ele>
        <time>2023-01-27T11:05:26.000Z</time>
      </trkpt>
      <trkpt lat="40.0798313878476619720458984375" lon="0.1218084990978240966796875">
        <ele>56.799999237060546875</ele>
        <time>2023-01-27T11:05:27.000Z</time>
      </trkpt>
      <trkpt lat="40.079745389521121978759765625" lon="0.1217711158096790313720703125">
        <ele>57.200000762939453125</ele>
        <time>2023-01-27T11:05:29.000Z</time>
      </trkpt>
      <trkpt lat="40.0797026418149471282958984375" lon="0.1217573694884777069091796875">
        <ele>57.40000152587890625</ele>
        <time>2023-01-27T11:05:30.000Z</time>
      </trkpt>
      <trkpt lat="40.0796530209481716156005859375" lon="0.12173398397862911224365234375">
        <ele>57.40000152587890625</ele>
        <time>2023-01-27T11:05:31.000Z</time>
      </trkpt>
      <trkpt lat="40.0796124525368213653564453125" lon="0.12171654962003231048583984375">
        <ele>58.200000762939453125</ele>
        <time>2023-01-27T11:05:32.000Z</time>
      </trkpt>
      <trkpt lat="40.0796124525368213653564453125" lon="0.12171654962003231048583984375">
        <ele>58.40000152587890625</ele>
        <time>2023-01-27T11:05:33.000Z</time>
      </trkpt>
      <trkpt lat="40.07953508757054805755615234375" lon="0.12167363427579402923583984375">
        <ele>58.799999237060546875</ele>
        <time>2023-01-27T11:05:34.000Z</time>
      </trkpt>
      <trkpt lat="40.07949720136821269989013671875" lon="0.1216497458517551422119140625">
        <ele>59</ele>
        <time>2023-01-27T11:05:35.000Z</time>
      </trkpt>
      <trkpt lat="40.0794578902423381805419921875" lon="0.1216209121048450469970703125">
        <ele>59.40000152587890625</ele>
        <time>2023-01-27T11:05:36.000Z</time>
      </trkpt>
      <trkpt lat="40.07941857911646366119384765625" lon="0.121598280966281890869140625">
        <ele>59.799999237060546875</ele>
        <time>2023-01-27T11:05:37.000Z</time>
      </trkpt>
      <trkpt lat="40.07938035763800144195556640625" lon="0.12157103978097438812255859375">
        <ele>60</ele>
        <time>2023-01-27T11:05:38.000Z</time>
      </trkpt>
      <trkpt lat="40.0793412141501903533935546875" lon="0.12153617106378078460693359375">
        <ele>60.200000762939453125</ele>
        <time>2023-01-27T11:05:39.000Z</time>
      </trkpt>
      <trkpt lat="40.07930575869977474212646484375" lon="0.1215220056474208831787109375">
        <ele>60.200000762939453125</ele>
        <time>2023-01-27T11:05:40.000Z</time>
      </trkpt>
      <trkpt lat="40.0792828761041164398193359375" lon="0.121500380337238311767578125">
        <ele>60.200000762939453125</ele>
        <time>2023-01-27T11:05:41.000Z</time>
      </trkpt>
      <trkpt lat="40.0792828761041164398193359375" lon="0.121500380337238311767578125">
        <ele>60.40000152587890625</ele>
        <time>2023-01-27T11:05:42.000Z</time>
      </trkpt>
      <trkpt lat="40.0792188383638858795166015625" lon="0.12142385356128215789794921875">
        <ele>60.200000762939453125</ele>
        <time>2023-01-27T11:05:43.000Z</time>
      </trkpt>
      <trkpt lat="40.0791789405047893524169921875" lon="0.12138512916862964630126953125">
        <ele>60.200000762939453125</ele>
        <time>2023-01-27T11:05:44.000Z</time>
      </trkpt>
      <trkpt lat="40.07914281450212001800537109375" lon="0.12135453522205352783203125">
        <ele>60.40000152587890625</ele>
        <time>2023-01-27T11:05:45.000Z</time>
      </trkpt>
      <trkpt lat="40.0791206024587154388427734375" lon="0.1213315688073635101318359375">
        <ele>60.40000152587890625</ele>
        <time>2023-01-27T11:05:46.000Z</time>
      </trkpt>
      <trkpt lat="40.0791206024587154388427734375" lon="0.1213315688073635101318359375">
        <ele>60.40000152587890625</ele>
        <time>2023-01-27T11:05:47.000Z</time>
      </trkpt>
      <trkpt lat="40.0790525414049625396728515625" lon="0.12126526795327663421630859375">
        <ele>60.40000152587890625</ele>
        <time>2023-01-27T11:05:48.000Z</time>
      </trkpt>
      <trkpt lat="40.0790116377174854278564453125" lon="0.121246241033077239990234375">
        <ele>60.59999847412109375</ele>
        <time>2023-01-27T11:05:49.000Z</time>
      </trkpt>
      <trkpt lat="40.07898556999862194061279296875" lon="0.121220760047435760498046875">
        <ele>60.59999847412109375</ele>
        <time>2023-01-27T11:05:50.000Z</time>
      </trkpt>
      <trkpt lat="40.0789539702236652374267578125" lon="0.121203325688838958740234375">
        <ele>60.799999237060546875</ele>
        <time>2023-01-27T11:05:51.000Z</time>
      </trkpt>
      <trkpt lat="40.07891817949712276458740234375" lon="0.1211756654083728790283203125">
        <ele>61</ele>
        <time>2023-01-27T11:05:52.000Z</time>
      </trkpt>
      <trkpt lat="40.07889387197792530059814453125" lon="0.12116217054426670074462890625">
        <ele>61.200000762939453125</ele>
        <time>2023-01-27T11:05:53.000Z</time>
      </trkpt>
      <trkpt lat="40.078859589993953704833984375" lon="0.12115328572690486907958984375">
        <ele>61.799999237060546875</ele>
        <time>2023-01-27T11:05:54.000Z</time>
      </trkpt>
      <trkpt lat="40.0788282416760921478271484375" lon="0.12114808894693851470947265625">
        <ele>62</ele>
        <time>2023-01-27T11:05:55.000Z</time>
      </trkpt>
      <trkpt lat="40.0788282416760921478271484375" lon="0.12114808894693851470947265625">
        <ele>62.40000152587890625</ele>
        <time>2023-01-27T11:05:56.000Z</time>
      </trkpt>
      <trkpt lat="40.0787645392119884490966796875" lon="0.1211485080420970916748046875">
        <ele>62.59999847412109375</ele>
        <time>2023-01-27T11:05:57.000Z</time>
      </trkpt>
      <trkpt lat="40.07873377762734889984130859375" lon="0.12115471065044403076171875">
        <ele>63</ele>
        <time>2023-01-27T11:05:58.000Z</time>
      </trkpt>
      <trkpt lat="40.07870100438594818115234375" lon="0.12116267345845699310302734375">
        <ele>63</ele>
        <time>2023-01-27T11:05:59.000Z</time>
      </trkpt>
      <trkpt lat="40.0786673091351985931396484375" lon="0.12117105536162853240966796875">
        <ele>63.200000762939453125</ele>
        <time>2023-01-27T11:06:00.000Z</time>
      </trkpt>
      <trkpt lat="40.0786351226270198822021484375" lon="0.1211813651025295257568359375">
        <ele>63.40000152587890625</ele>
        <time>2023-01-27T11:06:01.000Z</time>
      </trkpt>
      <trkpt lat="40.07860167883336544036865234375" lon="0.12118555605411529541015625">
        <ele>63.799999237060546875</ele>
        <time>2023-01-27T11:06:02.000Z</time>
      </trkpt>
      <trkpt lat="40.07857033051550388336181640625" lon="0.1211887411773204803466796875">
        <ele>63.799999237060546875</ele>
        <time>2023-01-27T11:06:03.000Z</time>
      </trkpt>
      <trkpt lat="40.0785412453114986419677734375" lon="0.12119117192924022674560546875">
        <ele>64.40000152587890625</ele>
        <time>2023-01-27T11:06:04.000Z</time>
      </trkpt>
      <trkpt lat="40.07851249538362026214599609375" lon="0.1211915910243988037109375">
        <ele>64.59999847412109375</ele>
        <time>2023-01-27T11:06:05.000Z</time>
      </trkpt>
      <trkpt lat="40.07848517037928104400634765625" lon="0.12119628489017486572265625">
        <ele>65</ele>
        <time>2023-01-27T11:06:06.000Z</time>
      </trkpt>
      <trkpt lat="40.0784534029662609100341796875" lon="0.1211961172521114349365234375">
        <ele>65.59999847412109375</ele>
        <time>2023-01-27T11:06:07.000Z</time>
      </trkpt>
      <trkpt lat="40.07842071354389190673828125" lon="0.12119360268115997314453125">
        <ele>65.8000030517578125</ele>
        <time>2023-01-27T11:06:08.000Z</time>
      </trkpt>
      <trkpt lat="40.078390538692474365234375" lon="0.12119318358600139617919921875">
        <ele>66</ele>
        <time>2023-01-27T11:06:09.000Z</time>
      </trkpt>
      <trkpt lat="40.07836229167878627777099609375" lon="0.12119083665311336517333984375">
        <ele>66</ele>
        <time>2023-01-27T11:06:10.000Z</time>
      </trkpt>
      <trkpt lat="40.07833354175090789794921875" lon="0.12118698097765445709228515625">
        <ele>66.40000152587890625</ele>
        <time>2023-01-27T11:06:11.000Z</time>
      </trkpt>
      <trkpt lat="40.07830244489014148712158203125" lon="0.121181197464466094970703125">
        <ele>66.40000152587890625</ele>
        <time>2023-01-27T11:06:12.000Z</time>
      </trkpt>
      <trkpt lat="40.07827478460967540740966796875" lon="0.1211728155612945556640625">
        <ele>66.59999847412109375</ele>
        <time>2023-01-27T11:06:13.000Z</time>
      </trkpt>
      <trkpt lat="40.07824980653822422027587890625" lon="0.12116401456296443939208984375">
        <ele>66.8000030517578125</ele>
        <time>2023-01-27T11:06:14.000Z</time>
      </trkpt>
      <trkpt lat="40.07822499610483646392822265625" lon="0.12115730904042720794677734375">
        <ele>67.1999969482421875</ele>
        <time>2023-01-27T11:06:15.000Z</time>
      </trkpt>
      <trkpt lat="40.07820119149982929229736328125" lon="0.121148340404033660888671875">
        <ele>67.40000152587890625</ele>
        <time>2023-01-27T11:06:16.000Z</time>
      </trkpt>
      <trkpt lat="40.07817889563739299774169921875" lon="0.12113886885344982147216796875">
        <ele>67.59999847412109375</ele>
        <time>2023-01-27T11:06:17.000Z</time>
      </trkpt>
      <trkpt lat="40.07815659977495670318603515625" lon="0.12112864293158054351806640625">
        <ele>68</ele>
        <time>2023-01-27T11:06:18.000Z</time>
      </trkpt>
      <trkpt lat="40.07815659977495670318603515625" lon="0.12112864293158054351806640625">
        <ele>68.1999969482421875</ele>
        <time>2023-01-27T11:06:19.000Z</time>
      </trkpt>
      <trkpt lat="40.0781077332794666290283203125" lon="0.12110802344977855682373046875">
        <ele>68.40000152587890625</ele>
        <time>2023-01-27T11:06:20.000Z</time>
      </trkpt>
      <trkpt lat="40.07808275520801544189453125" lon="0.121094025671482086181640625">
        <ele>68.59999847412109375</ele>
        <time>2023-01-27T11:06:21.000Z</time>
      </trkpt>
      <trkpt lat="40.0780591182410717010498046875" lon="0.12108673341572284698486328125">
        <ele>69</ele>
        <time>2023-01-27T11:06:22.000Z</time>
      </trkpt>
      <trkpt lat="40.0780591182410717010498046875" lon="0.12108673341572284698486328125">
        <ele>69.1999969482421875</ele>
        <time>2023-01-27T11:06:23.000Z</time>
      </trkpt>
      <trkpt lat="40.07801377214491367340087890625" lon="0.12106896378099918365478515625">
        <ele>69.59999847412109375</ele>
        <time>2023-01-27T11:06:24.000Z</time>
      </trkpt>
      <trkpt lat="40.07799013517796993255615234375" lon="0.1210593245923519134521484375">
        <ele>69.59999847412109375</ele>
        <time>2023-01-27T11:06:25.000Z</time>
      </trkpt>
      <trkpt lat="40.077967755496501922607421875" lon="0.1210465840995311737060546875">
        <ele>69.8000030517578125</ele>
        <time>2023-01-27T11:06:26.000Z</time>
      </trkpt>
      <trkpt lat="40.07794369943439960479736328125" lon="0.12103308923542499542236328125">
        <ele>70</ele>
        <time>2023-01-27T11:06:27.000Z</time>
      </trkpt>
      <trkpt lat="40.07791972719132900238037109375" lon="0.12101925909519195556640625">
        <ele>70.1999969482421875</ele>
        <time>2023-01-27T11:06:28.000Z</time>
      </trkpt>
      <trkpt lat="40.07791972719132900238037109375" lon="0.12101925909519195556640625">
        <ele>70.59999847412109375</ele>
        <time>2023-01-27T11:06:29.000Z</time>
      </trkpt>
      <trkpt lat="40.07787513546645641326904296875" lon="0.1209949515759944915771484375">
        <ele>71</ele>
        <time>2023-01-27T11:06:30.000Z</time>
      </trkpt>
      <trkpt lat="40.07785418070852756500244140625" lon="0.12098112143576145172119140625">
        <ele>71.40000152587890625</ele>
        <time>2023-01-27T11:06:31.000Z</time>
      </trkpt>
      <trkpt lat="40.0778331421315670013427734375" lon="0.12096804566681385040283203125">
        <ele>71.59999847412109375</ele>
        <time>2023-01-27T11:06:32.000Z</time>
      </trkpt>
      <trkpt lat="40.07781453430652618408203125" lon="0.12096016667783260345458984375">
        <ele>71.59999847412109375</ele>
        <time>2023-01-27T11:06:33.000Z</time>
      </trkpt>
      <trkpt lat="40.07779299281537532806396484375" lon="0.12094776146113872528076171875">
        <ele>71.8000030517578125</ele>
        <time>2023-01-27T11:06:34.000Z</time>
      </trkpt>
      <trkpt lat="40.0777691043913364410400390625" lon="0.12093208730220794677734375">
        <ele>72</ele>
        <time>2023-01-27T11:06:35.000Z</time>
      </trkpt>
      <trkpt lat="40.077746473252773284912109375" lon="0.12092043645679950714111328125">
        <ele>72.1999969482421875</ele>
        <time>2023-01-27T11:06:36.000Z</time>
      </trkpt>
      <trkpt lat="40.07772359065711498260498046875" lon="0.12090769596397876739501953125">
        <ele>72.40000152587890625</ele>
        <time>2023-01-27T11:06:37.000Z</time>
      </trkpt>
      <trkpt lat="40.07770297117531299591064453125" lon="0.12089981697499752044677734375">
        <ele>72.40000152587890625</ele>
        <time>2023-01-27T11:06:38.000Z</time>
      </trkpt>
      <trkpt lat="40.0776799209415912628173828125" lon="0.1208879984915256500244140625">
        <ele>72.8000030517578125</ele>
        <time>2023-01-27T11:06:39.000Z</time>
      </trkpt>
      <trkpt lat="40.0776799209415912628173828125" lon="0.1208879984915256500244140625">
        <ele>72.8000030517578125</ele>
        <time>2023-01-27T11:06:40.000Z</time>
      </trkpt>
      <trkpt lat="40.07764429785311222076416015625" lon="0.12086369097232818603515625">
        <ele>73.1999969482421875</ele>
        <time>2023-01-27T11:06:41.000Z</time>
      </trkpt>
      <trkpt lat="40.07762032561004161834716796875" lon="0.1208501122891902923583984375">
        <ele>73.1999969482421875</ele>
        <time>2023-01-27T11:06:42.000Z</time>
      </trkpt>
      <trkpt lat="40.07759400643408298492431640625" lon="0.12083351612091064453125">
        <ele>73.40000152587890625</ele>
        <time>2023-01-27T11:06:43.000Z</time>
      </trkpt>
      <trkpt lat="40.07757372222840785980224609375" lon="0.12081968598067760467529296875">
        <ele>73.59999847412109375</ele>
        <time>2023-01-27T11:06:44.000Z</time>
      </trkpt>
      <trkpt lat="40.07755511440336704254150390625" lon="0.120801664888858795166015625">
        <ele>74</ele>
        <time>2023-01-27T11:06:45.000Z</time>
      </trkpt>
      <trkpt lat="40.0775349140167236328125" lon="0.12078322470188140869140625">
        <ele>74.1999969482421875</ele>
        <time>2023-01-27T11:06:46.000Z</time>
      </trkpt>
      <trkpt lat="40.07751815021038055419921875" lon="0.120774172246456146240234375">
        <ele>74.59999847412109375</ele>
        <time>2023-01-27T11:06:47.000Z</time>
      </trkpt>
      <trkpt lat="40.0774933397769927978515625" lon="0.120762772858142852783203125">
        <ele>74.8000030517578125</ele>
        <time>2023-01-27T11:06:48.000Z</time>
      </trkpt>
      <trkpt lat="40.07746450603008270263671875" lon="0.12074810452759265899658203125">
        <ele>75.1999969482421875</ele>
        <time>2023-01-27T11:06:49.000Z</time>
      </trkpt>
      <trkpt lat="40.07743676193058490753173828125" lon="0.12073201127350330352783203125">
        <ele>75.59999847412109375</ele>
        <time>2023-01-27T11:06:50.000Z</time>
      </trkpt>
      <trkpt lat="40.077400468289852142333984375" lon="0.1207099668681621551513671875">
        <ele>75.8000030517578125</ele>
        <time>2023-01-27T11:06:51.000Z</time>
      </trkpt>
      <trkpt lat="40.07736601866781711578369140625" lon="0.12069026939570903778076171875">
        <ele>76.40000152587890625</ele>
        <time>2023-01-27T11:06:52.000Z</time>
      </trkpt>
      <trkpt lat="40.07733634673058986663818359375" lon="0.12066981755197048187255859375">
        <ele>76.59999847412109375</ele>
        <time>2023-01-27T11:06:53.000Z</time>
      </trkpt>
      <trkpt lat="40.077312290668487548828125" lon="0.12064911425113677978515625">
        <ele>76.8000030517578125</ele>
        <time>2023-01-27T11:06:54.000Z</time>
      </trkpt>
      <trkpt lat="40.07729007862508296966552734375" lon="0.1206315122544765472412109375">
        <ele>77</ele>
        <time>2023-01-27T11:06:55.000Z</time>
      </trkpt>
      <trkpt lat="40.07726744748651981353759765625" lon="0.12062069959938526153564453125">
        <ele>77.1999969482421875</ele>
        <time>2023-01-27T11:06:56.000Z</time>
      </trkpt>
      <trkpt lat="40.0772393681108951568603515625" lon="0.1206073723733425140380859375">
        <ele>77.40000152587890625</ele>
        <time>2023-01-27T11:06:57.000Z</time>
      </trkpt>
      <trkpt lat="40.0772169046103954315185546875" lon="0.12059052474796772003173828125">
        <ele>77.40000152587890625</ele>
        <time>2023-01-27T11:06:58.000Z</time>
      </trkpt>
      <trkpt lat="40.0771964527666568756103515625" lon="0.1205728389322757720947265625">
        <ele>77.8000030517578125</ele>
        <time>2023-01-27T11:06:59.000Z</time>
      </trkpt>
      <trkpt lat="40.077177174389362335205078125" lon="0.12055682949721813201904296875">
        <ele>77.8000030517578125</ele>
        <time>2023-01-27T11:07:00.000Z</time>
      </trkpt>
      <trkpt lat="40.07715898565948009490966796875" lon="0.120538137853145599365234375">
        <ele>78.1999969482421875</ele>
        <time>2023-01-27T11:07:01.000Z</time>
      </trkpt>
      <trkpt lat="40.07713920436799526214599609375" lon="0.12052279897034168243408203125">
        <ele>78.1999969482421875</ele>
        <time>2023-01-27T11:07:02.000Z</time>
      </trkpt>
      <trkpt lat="40.0771163217723369598388671875" lon="0.12051408179104328155517578125">
        <ele>78.40000152587890625</ele>
        <time>2023-01-27T11:07:03.000Z</time>
      </trkpt>
      <trkpt lat="40.07709478028118610382080078125" lon="0.12050368823111057281494140625">
        <ele>78.59999847412109375</ele>
        <time>2023-01-27T11:07:04.000Z</time>
      </trkpt>
      <trkpt lat="40.07707214914262294769287109375" lon="0.12049161829054355621337890625">
        <ele>78.59999847412109375</ele>
        <time>2023-01-27T11:07:05.000Z</time>
      </trkpt>
      <trkpt lat="40.07705119438469409942626953125" lon="0.1204913668334484100341796875">
        <ele>78.8000030517578125</ele>
        <time>2023-01-27T11:07:06.000Z</time>
      </trkpt>
      <trkpt lat="40.077034346759319305419921875" lon="0.120502598583698272705078125">
        <ele>79</ele>
        <time>2023-01-27T11:07:07.000Z</time>
      </trkpt>
      <trkpt lat="40.07702236063778400421142578125" lon="0.12052715755999088287353515625">
        <ele>79.40000152587890625</ele>
        <time>2023-01-27T11:07:08.000Z</time>
      </trkpt>
      <trkpt lat="40.077011883258819580078125" lon="0.12056420557200908660888671875">
        <ele>79.59999847412109375</ele>
        <time>2023-01-27T11:07:09.000Z</time>
      </trkpt>
      <trkpt lat="40.0770006515085697174072265625" lon="0.12060888111591339111328125">
        <ele>79.8000030517578125</ele>
        <time>2023-01-27T11:07:10.000Z</time>
      </trkpt>
      <trkpt lat="40.0769890844821929931640625" lon="0.1206522993743419647216796875">
        <ele>79.8000030517578125</ele>
        <time>2023-01-27T11:07:11.000Z</time>
      </trkpt>
      <trkpt lat="40.07698011584579944610595703125" lon="0.120696388185024261474609375">
        <ele>80</ele>
        <time>2023-01-27T11:07:12.000Z</time>
      </trkpt>
      <trkpt lat="40.07697290740907192230224609375" lon="0.12074701488018035888671875">
        <ele>80</ele>
        <time>2023-01-27T11:07:13.000Z</time>
      </trkpt>
      <trkpt lat="40.07696469314396381378173828125" lon="0.12079671956598758697509765625">
        <ele>80</ele>
        <time>2023-01-27T11:07:14.000Z</time>
      </trkpt>
      <trkpt lat="40.07694952189922332763671875" lon="0.120843239128589630126953125">
        <ele>80</ele>
        <time>2023-01-27T11:07:15.000Z</time>
      </trkpt>
      <trkpt lat="40.0769273936748504638671875" lon="0.12087265960872173309326171875">
        <ele>80</ele>
        <time>2023-01-27T11:07:16.000Z</time>
      </trkpt>
      <trkpt lat="40.0768923573195934295654296875" lon="0.12088540010154247283935546875">
        <ele>80</ele>
        <time>2023-01-27T11:07:17.000Z</time>
      </trkpt>
      <trkpt lat="40.076851956546306610107421875" lon="0.1208923570811748504638671875">
        <ele>80.1999969482421875</ele>
        <time>2023-01-27T11:07:18.000Z</time>
      </trkpt>
      <trkpt lat="40.076816082000732421875" lon="0.120900906622409820556640625">
        <ele>80.1999969482421875</ele>
        <time>2023-01-27T11:07:19.000Z</time>
      </trkpt>
      <trkpt lat="40.076783560216426849365234375" lon="0.12091934680938720703125">
        <ele>80.1999969482421875</ele>
        <time>2023-01-27T11:07:20.000Z</time>
      </trkpt>
      <trkpt lat="40.07675631903111934661865234375" lon="0.1209439896047115325927734375">
        <ele>80</ele>
        <time>2023-01-27T11:07:21.000Z</time>
      </trkpt>
      <trkpt lat="40.07673494517803192138671875" lon="0.12096754275262355804443359375">
        <ele>80</ele>
        <time>2023-01-27T11:07:22.000Z</time>
      </trkpt>
      <trkpt lat="40.07671474479138851165771484375" lon="0.12099855579435825347900390625">
        <ele>80</ele>
        <time>2023-01-27T11:07:23.000Z</time>
      </trkpt>
      <trkpt lat="40.07670409977436065673828125" lon="0.1210392080247402191162109375">
        <ele>80.1999969482421875</ele>
        <time>2023-01-27T11:07:24.000Z</time>
      </trkpt>
      <trkpt lat="40.07669697515666484832763671875" lon="0.12108572758734226226806640625">
        <ele>80.1999969482421875</ele>
        <time>2023-01-27T11:07:25.000Z</time>
      </trkpt>
      <trkpt lat="40.07669446058571338653564453125" lon="0.12112830765545368194580078125">
        <ele>80.1999969482421875</ele>
        <time>2023-01-27T11:07:26.000Z</time>
      </trkpt>
      <trkpt lat="40.0766891799867153167724609375" lon="0.1211689598858356475830078125">
        <ele>80.40000152587890625</ele>
        <time>2023-01-27T11:07:27.000Z</time>
      </trkpt>
      <trkpt lat="40.076676271855831146240234375" lon="0.12121816165745258331298828125">
        <ele>80.40000152587890625</ele>
        <time>2023-01-27T11:07:28.000Z</time>
      </trkpt>
      <trkpt lat="40.07666881196200847625732421875" lon="0.12126208283007144927978515625">
        <ele>80.59999847412109375</ele>
        <time>2023-01-27T11:07:29.000Z</time>
      </trkpt>
      <trkpt lat="40.0766583345830440521240234375" lon="0.1213121227920055389404296875">
        <ele>80.8000030517578125</ele>
        <time>2023-01-27T11:07:30.000Z</time>
      </trkpt>
      <trkpt lat="40.07664215750992298126220703125" lon="0.12135989964008331298828125">
        <ele>81</ele>
        <time>2023-01-27T11:07:31.000Z</time>
      </trkpt>
      <trkpt lat="40.0766207836568355560302734375" lon="0.1213999651372432708740234375">
        <ele>81</ele>
        <time>2023-01-27T11:07:32.000Z</time>
      </trkpt>
      <trkpt lat="40.0765761919319629669189453125" lon="0.1214898191392421722412109375">
        <ele>81.40000152587890625</ele>
        <time>2023-01-27T11:07:35.000Z</time>
      </trkpt>
      <trkpt lat="40.07658935151994228363037109375" lon="0.12151169590651988983154296875">
        <ele>81.1999969482421875</ele>
        <time>2023-01-27T11:07:36.000Z</time>
      </trkpt>
      <trkpt lat="40.07661298848688602447509765625" lon="0.12153734453022480010986328125">
        <ele>81.1999969482421875</ele>
        <time>2023-01-27T11:07:37.000Z</time>
      </trkpt>
      <trkpt lat="40.0766350328922271728515625" lon="0.1215826906263828277587890625">
        <ele>81.40000152587890625</ele>
        <time>2023-01-27T11:07:38.000Z</time>
      </trkpt>
      <trkpt lat="40.076665543019771575927734375" lon="0.12167179025709629058837890625">
        <ele>81.40000152587890625</ele>
        <time>2023-01-27T11:07:40.000Z</time>
      </trkpt>
      <trkpt lat="40.07667736150324344635009765625" lon="0.12170230038464069366455078125">
        <ele>81.40000152587890625</ele>
        <time>2023-01-27T11:07:41.000Z</time>
      </trkpt>
      <trkpt lat="40.07668054662644863128662109375" lon="0.1217627339065074920654296875">
        <ele>81.40000152587890625</ele>
        <time>2023-01-27T11:07:43.000Z</time>
      </trkpt>
      <trkpt lat="40.0766807980835437774658203125" lon="0.121795423328876495361328125">
        <ele>81.40000152587890625</ele>
        <time>2023-01-27T11:07:44.000Z</time>
      </trkpt>
      <trkpt lat="40.0766814686357975006103515625" lon="0.1218230836093425750732421875">
        <ele>81.40000152587890625</ele>
        <time>2023-01-27T11:07:45.000Z</time>
      </trkpt>
      <trkpt lat="40.0766806304454803466796875" lon="0.12184848077595233917236328125">
        <ele>81.40000152587890625</ele>
        <time>2023-01-27T11:07:46.000Z</time>
      </trkpt>
      <trkpt lat="40.0766942091286182403564453125" lon="0.12188670225441455841064453125">
        <ele>81.1999969482421875</ele>
        <time>2023-01-27T11:07:48.000Z</time>
      </trkpt>
      <trkpt lat="40.07670946419239044189453125" lon="0.12190799228847026824951171875">
        <ele>81.1999969482421875</ele>
        <time>2023-01-27T11:07:49.000Z</time>
      </trkpt>
      <trkpt lat="40.0767183490097522735595703125" lon="0.121932215988636016845703125">
        <ele>81</ele>
        <time>2023-01-27T11:07:50.000Z</time>
      </trkpt>
      <trkpt lat="40.07672228850424289703369140625" lon="0.121955685317516326904296875">
        <ele>80.8000030517578125</ele>
        <time>2023-01-27T11:07:51.000Z</time>
      </trkpt>
      <trkpt lat="40.07672027684748172760009765625" lon="0.12197840027511119842529296875">
        <ele>80.8000030517578125</ele>
        <time>2023-01-27T11:07:52.000Z</time>
      </trkpt>
      <trkpt lat="40.07671424187719821929931640625" lon="0.12200807221233844757080078125">
        <ele>80.8000030517578125</ele>
        <time>2023-01-27T11:07:53.000Z</time>
      </trkpt>
      <trkpt lat="40.07670653052628040313720703125" lon="0.1220410130918025970458984375">
        <ele>80.8000030517578125</ele>
        <time>2023-01-27T11:07:54.000Z</time>
      </trkpt>
      <trkpt lat="40.07671206258237361907958984375" lon="0.1220728643238544464111328125">
        <ele>80.8000030517578125</ele>
        <time>2023-01-27T11:07:55.000Z</time>
      </trkpt>
      <trkpt lat="40.07672513835132122039794921875" lon="0.12209557928144931793212890625">
        <ele>80.8000030517578125</ele>
        <time>2023-01-27T11:07:56.000Z</time>
      </trkpt>
      <trkpt lat="40.076738297939300537109375" lon="0.12212106026709079742431640625">
        <ele>80.59999847412109375</ele>
        <time>2023-01-27T11:07:57.000Z</time>
      </trkpt>
      <trkpt lat="40.0767414830625057220458984375" lon="0.12214536778628826141357421875">
        <ele>80.40000152587890625</ele>
        <time>2023-01-27T11:07:58.000Z</time>
      </trkpt>
      <trkpt lat="40.07674357853829860687255859375" lon="0.1221654005348682403564453125">
        <ele>80.1999969482421875</ele>
        <time>2023-01-27T11:07:59.000Z</time>
      </trkpt>
      <trkpt lat="40.0767445005476474761962890625" lon="0.12219767086207866668701171875">
        <ele>80</ele>
        <time>2023-01-27T11:08:00.000Z</time>
      </trkpt>
      <trkpt lat="40.0767377950251102447509765625" lon="0.1222321204841136932373046875">
        <ele>79.8000030517578125</ele>
        <time>2023-01-27T11:08:01.000Z</time>
      </trkpt>
      <trkpt lat="40.076732598245143890380859375" lon="0.12226539663970470428466796875">
        <ele>79.59999847412109375</ele>
        <time>2023-01-27T11:08:02.000Z</time>
      </trkpt>
      <trkpt lat="40.0767203606665134429931640625" lon="0.122288949787616729736328125">
        <ele>79.59999847412109375</ele>
        <time>2023-01-27T11:08:03.000Z</time>
      </trkpt>
      <trkpt lat="40.07670653052628040313720703125" lon="0.1223234832286834716796875">
        <ele>79.59999847412109375</ele>
        <time>2023-01-27T11:08:04.000Z</time>
      </trkpt>
      <trkpt lat="40.0766999088227748870849609375" lon="0.12236128561198711395263671875">
        <ele>79.59999847412109375</ele>
        <time>2023-01-27T11:08:05.000Z</time>
      </trkpt>
      <trkpt lat="40.07669546641409397125244140625" lon="0.1225244812667369842529296875">
        <ele>79.1999969482421875</ele>
        <time>2023-01-27T11:08:08.000Z</time>
      </trkpt>
      <trkpt lat="40.07670384831726551055908203125" lon="0.1225818134844303131103515625">
        <ele>79</ele>
        <time>2023-01-27T11:08:09.000Z</time>
      </trkpt>
      <trkpt lat="40.07670409977436065673828125" lon="0.1226292550563812255859375">
        <ele>79</ele>
        <time>2023-01-27T11:08:10.000Z</time>
      </trkpt>
      <trkpt lat="40.07669881917536258697509765625" lon="0.12266303412616252899169921875">
        <ele>79</ele>
        <time>2023-01-27T11:08:11.000Z</time>
      </trkpt>
      <trkpt lat="40.076721869409084320068359375" lon="0.12269857339560985565185546875">
        <ele>79</ele>
        <time>2023-01-27T11:08:12.000Z</time>
      </trkpt>
      <trkpt lat="40.076754055917263031005859375" lon="0.1227419078350067138671875">
        <ele>78.8000030517578125</ele>
        <time>2023-01-27T11:08:13.000Z</time>
      </trkpt>
      <trkpt lat="40.0767810456454753875732421875" lon="0.12280267663300037384033203125">
        <ele>78.8000030517578125</ele>
        <time>2023-01-27T11:08:14.000Z</time>
      </trkpt>
      <trkpt lat="40.07691733539104461669921875" lon="0.1229952089488506317138671875">
        <ele>78.59999847412109375</ele>
        <time>2023-01-27T11:08:19.000Z</time>
      </trkpt>
      <trkpt lat="40.07691021077334880828857421875" lon="0.12302823364734649658203125">
        <ele>78.59999847412109375</ele>
        <time>2023-01-27T11:08:20.000Z</time>
      </trkpt>
      <trkpt lat="40.07690032012760639190673828125" lon="0.1230458356440067291259765625">
        <ele>78.40000152587890625</ele>
        <time>2023-01-27T11:08:21.000Z</time>
      </trkpt>
      <trkpt lat="40.0768900103867053985595703125" lon="0.12305907905101776123046875">
        <ele>78.8000030517578125</ele>
        <time>2023-01-27T11:08:22.000Z</time>
      </trkpt>
      <trkpt lat="40.07688757963478565216064453125" lon="0.1230642758309841156005859375">
        <ele>78.8000030517578125</ele>
        <time>2023-01-27T11:08:23.000Z</time>
      </trkpt>
      <trkpt lat="40.07688757963478565216064453125" lon="0.1230642758309841156005859375">
        <ele>79</ele>
        <time>2023-01-27T11:08:24.000Z</time>
      </trkpt>
      <trkpt lat="40.07688757963478565216064453125" lon="0.1230642758309841156005859375">
        <ele>79.1999969482421875</ele>
        <time>2023-01-27T11:08:25.000Z</time>
      </trkpt>
      <trkpt lat="40.07688757963478565216064453125" lon="0.1230642758309841156005859375">
        <ele>79.40000152587890625</ele>
        <time>2023-01-27T11:08:26.000Z</time>
      </trkpt>
      <trkpt lat="40.07688757963478565216064453125" lon="0.1230642758309841156005859375">
        <ele>79.59999847412109375</ele>
        <time>2023-01-27T11:08:28.000Z</time>
      </trkpt>
      <trkpt lat="40.07688757963478565216064453125" lon="0.1230642758309841156005859375">
        <ele>79.59999847412109375</ele>
        <time>2023-01-27T11:08:29.000Z</time>
      </trkpt>
      <trkpt lat="40.07688757963478565216064453125" lon="0.1230642758309841156005859375">
        <ele>79.8000030517578125</ele>
        <time>2023-01-27T11:08:31.000Z</time>
      </trkpt>
      <trkpt lat="40.07688757963478565216064453125" lon="0.1230642758309841156005859375">
        <ele>79.8000030517578125</ele>
        <time>2023-01-27T11:08:33.000Z</time>
      </trkpt>
      <trkpt lat="40.07688757963478565216064453125" lon="0.1230642758309841156005859375">
        <ele>79.40000152587890625</ele>
        <time>2023-01-27T11:08:35.000Z</time>
      </trkpt>
      <trkpt lat="40.07688757963478565216064453125" lon="0.1230642758309841156005859375">
        <ele>79.1999969482421875</ele>
        <time>2023-01-27T11:08:38.000Z</time>
      </trkpt>
      <trkpt lat="40.07688757963478565216064453125" lon="0.1230642758309841156005859375">
        <ele>78.8000030517578125</ele>
        <time>2023-01-27T11:08:59.000Z</time>
      </trkpt>
      <trkpt lat="40.0768873281776905059814453125" lon="0.1230659522116184234619140625">
        <ele>79.59999847412109375</ele>
        <time>2023-01-27T11:09:17.000Z</time>
      </trkpt>
      <trkpt lat="40.0768873281776905059814453125" lon="0.1230659522116184234619140625">
        <ele>79.8000030517578125</ele>
        <time>2023-01-27T11:09:18.000Z</time>
      </trkpt>
      <trkpt lat="40.0768873281776905059814453125" lon="0.1230659522116184234619140625">
        <ele>80</ele>
        <time>2023-01-27T11:09:21.000Z</time>
      </trkpt>
      <trkpt lat="40.07686369121074676513671875" lon="0.123116411268711090087890625">
        <ele>80.1999969482421875</ele>
        <time>2023-01-27T11:11:05.000Z</time>
      </trkpt>
      <trkpt lat="40.0768497772514820098876953125" lon="0.12313493527472019195556640625">
        <ele>80.1999969482421875</ele>
        <time>2023-01-27T11:11:06.000Z</time>
      </trkpt>
      <trkpt lat="40.0768353603780269622802734375" lon="0.1231507770717144012451171875">
        <ele>80.1999969482421875</ele>
        <time>2023-01-27T11:11:07.000Z</time>
      </trkpt>
      <trkpt lat="40.07682153023779392242431640625" lon="0.12316443957388401031494140625">
        <ele>80.40000152587890625</ele>
        <time>2023-01-27T11:11:08.000Z</time>
      </trkpt>
      <trkpt lat="40.07682153023779392242431640625" lon="0.12316443957388401031494140625">
        <ele>80.40000152587890625</ele>
        <time>2023-01-27T11:11:09.000Z</time>
      </trkpt>
      <trkpt lat="40.07680644281208515167236328125" lon="0.1232040859758853912353515625">
        <ele>80.40000152587890625</ele>
        <time>2023-01-27T11:11:10.000Z</time>
      </trkpt>
      <trkpt lat="40.07680661045014858245849609375" lon="0.12323183007538318634033203125">
        <ele>80.40000152587890625</ele>
        <time>2023-01-27T11:11:11.000Z</time>
      </trkpt>
      <trkpt lat="40.07680862210690975189208984375" lon="0.12325714342296123504638671875">
        <ele>80.40000152587890625</ele>
        <time>2023-01-27T11:11:12.000Z</time>
      </trkpt>
      <trkpt lat="40.0768085382878780364990234375" lon="0.1232781819999217987060546875">
        <ele>80.59999847412109375</ele>
        <time>2023-01-27T11:11:13.000Z</time>
      </trkpt>
      <trkpt lat="40.0768112204968929290771484375" lon="0.12329938821494579315185546875">
        <ele>80.8000030517578125</ele>
        <time>2023-01-27T11:11:14.000Z</time>
      </trkpt>
      <trkpt lat="40.07681800983846187591552734375" lon="0.1233157329261302947998046875">
        <ele>80.8000030517578125</ele>
        <time>2023-01-27T11:11:15.000Z</time>
      </trkpt>
      <trkpt lat="40.07683410309255123138427734375" lon="0.12332285754382610321044921875">
        <ele>81.1999969482421875</ele>
        <time>2023-01-27T11:11:16.000Z</time>
      </trkpt>
      <trkpt lat="40.0768548063933849334716796875" lon="0.12332956306636333465576171875">
        <ele>81.1999969482421875</ele>
        <time>2023-01-27T11:11:17.000Z</time>
      </trkpt>
      <trkpt lat="40.0769369490444660186767578125" lon="0.12334783561527729034423828125">
        <ele>81.40000152587890625</ele>
        <time>2023-01-27T11:11:20.000Z</time>
      </trkpt>
      <trkpt lat="40.076961927115917205810546875" lon="0.1233552955090999603271484375">
        <ele>81.40000152587890625</ele>
        <time>2023-01-27T11:11:21.000Z</time>
      </trkpt>
      <trkpt lat="40.07698732428252696990966796875" lon="0.12336024083197116851806640625">
        <ele>81.1999969482421875</ele>
        <time>2023-01-27T11:11:22.000Z</time>
      </trkpt>
      <trkpt lat="40.07714138366281986236572265625" lon="0.12340902350842952728271484375">
        <ele>80.59999847412109375</ele>
        <time>2023-01-27T11:11:29.000Z</time>
      </trkpt>
      <trkpt lat="40.07716250605881214141845703125" lon="0.123420171439647674560546875">
        <ele>80.59999847412109375</ele>
        <time>2023-01-27T11:11:30.000Z</time>
      </trkpt>
      <trkpt lat="40.07718153297901153564453125" lon="0.123429559171199798583984375">
        <ele>80.59999847412109375</ele>
        <time>2023-01-27T11:11:31.000Z</time>
      </trkpt>
      <trkpt lat="40.07720525376498699188232421875" lon="0.1234461553394794464111328125">
        <ele>80.59999847412109375</ele>
        <time>2023-01-27T11:11:32.000Z</time>
      </trkpt>
      <trkpt lat="40.07722872309386730194091796875" lon="0.1234645955264568328857421875">
        <ele>80.40000152587890625</ele>
        <time>2023-01-27T11:11:33.000Z</time>
      </trkpt>
      <trkpt lat="40.07725663483142852783203125" lon="0.1234837062656879425048828125">
        <ele>80.40000152587890625</ele>
        <time>2023-01-27T11:11:34.000Z</time>
      </trkpt>
      <trkpt lat="40.07728270255029201507568359375" lon="0.1235038228332996368408203125">
        <ele>80</ele>
        <time>2023-01-27T11:11:35.000Z</time>
      </trkpt>
      <trkpt lat="40.0773077644407749176025390625" lon="0.1235256157815456390380859375">
        <ele>79.59999847412109375</ele>
        <time>2023-01-27T11:11:36.000Z</time>
      </trkpt>
      <trkpt lat="40.0773339159786701202392578125" lon="0.123542211949825286865234375">
        <ele>79.1999969482421875</ele>
        <time>2023-01-27T11:11:37.000Z</time>
      </trkpt>
      <trkpt lat="40.07736367173492908477783203125" lon="0.12355864048004150390625">
        <ele>79</ele>
        <time>2023-01-27T11:11:38.000Z</time>
      </trkpt>
      <trkpt lat="40.077423937618732452392578125" lon="0.123600549995899200439453125">
        <ele>78.59999847412109375</ele>
        <time>2023-01-27T11:11:40.000Z</time>
      </trkpt>
      <trkpt lat="40.07745905779302120208740234375" lon="0.12363432906568050384521484375">
        <ele>78.40000152587890625</ele>
        <time>2023-01-27T11:11:41.000Z</time>
      </trkpt>
      <trkpt lat="40.0776167213916778564453125" lon="0.12375620193779468536376953125">
        <ele>77.59999847412109375</ele>
        <time>2023-01-27T11:11:45.000Z</time>
      </trkpt>
      <trkpt lat="40.077711604535579681396484375" lon="0.12379509396851062774658203125">
        <ele>77</ele>
        <time>2023-01-27T11:11:47.000Z</time>
      </trkpt>
      <trkpt lat="40.07778326980769634246826171875" lon="0.12380833737552165985107421875">
        <ele>76.8000030517578125</ele>
        <time>2023-01-27T11:11:49.000Z</time>
      </trkpt>
      <trkpt lat="40.0778138637542724609375" lon="0.1238152943551540374755859375">
        <ele>76.59999847412109375</ele>
        <time>2023-01-27T11:11:50.000Z</time>
      </trkpt>
      <trkpt lat="40.07784244604408740997314453125" lon="0.1238243468105792999267578125">
        <ele>76.59999847412109375</ele>
        <time>2023-01-27T11:11:51.000Z</time>
      </trkpt>
      <trkpt lat="40.07786683738231658935546875" lon="0.123827867209911346435546875">
        <ele>76.59999847412109375</ele>
        <time>2023-01-27T11:11:52.000Z</time>
      </trkpt>
      <trkpt lat="40.07789139635860919952392578125" lon="0.12383247725665569305419921875">
        <ele>76.59999847412109375</ele>
        <time>2023-01-27T11:11:53.000Z</time>
      </trkpt>
      <trkpt lat="40.07791670970618724822998046875" lon="0.1238255202770233154296875">
        <ele>76.59999847412109375</ele>
        <time>2023-01-27T11:11:54.000Z</time>
      </trkpt>
      <trkpt lat="40.07793816737830638885498046875" lon="0.1238189823925495147705078125">
        <ele>76.59999847412109375</ele>
        <time>2023-01-27T11:11:55.000Z</time>
      </trkpt>
      <trkpt lat="40.07796197198331356048583984375" lon="0.1238169707357883453369140625">
        <ele>76.40000152587890625</ele>
        <time>2023-01-27T11:11:56.000Z</time>
      </trkpt>
      <trkpt lat="40.0780654884874820709228515625" lon="0.1238377578556537628173828125">
        <ele>76.40000152587890625</ele>
        <time>2023-01-27T11:11:59.000Z</time>
      </trkpt>
      <trkpt lat="40.078212507069110870361328125" lon="0.12388109229505062103271484375">
        <ele>76.1999969482421875</ele>
        <time>2023-01-27T11:12:02.000Z</time>
      </trkpt>
      <trkpt lat="40.07831074297428131103515625" lon="0.12391730211675167083740234375">
        <ele>76.1999969482421875</ele>
        <time>2023-01-27T11:12:04.000Z</time>
      </trkpt>
      <trkpt lat="40.0783434323966503143310546875" lon="0.12391931377351284027099609375">
        <ele>76.1999969482421875</ele>
        <time>2023-01-27T11:12:05.000Z</time>
      </trkpt>
      <trkpt lat="40.07851148955523967742919921875" lon="0.1240050606429576873779296875">
        <ele>75.59999847412109375</ele>
        <time>2023-01-27T11:12:11.000Z</time>
      </trkpt>
      <trkpt lat="40.078609474003314971923828125" lon="0.12407555244863033294677734375">
        <ele>75.40000152587890625</ele>
        <time>2023-01-27T11:12:14.000Z</time>
      </trkpt>
      <trkpt lat="40.078682564198970794677734375" lon="0.124133639037609100341796875">
        <ele>75.40000152587890625</ele>
        <time>2023-01-27T11:12:17.000Z</time>
      </trkpt>
      <trkpt lat="40.07870729081332683563232421875" lon="0.12415568344295024871826171875">
        <ele>75.40000152587890625</ele>
        <time>2023-01-27T11:12:18.000Z</time>
      </trkpt>
      <trkpt lat="40.0787403993308544158935546875" lon="0.1241737045347690582275390625">
        <ele>75.1999969482421875</ele>
        <time>2023-01-27T11:12:19.000Z</time>
      </trkpt>
      <trkpt lat="40.07888532243669033050537109375" lon="0.1242608763277530670166015625">
        <ele>75.1999969482421875</ele>
        <time>2023-01-27T11:12:23.000Z</time>
      </trkpt>
      <trkpt lat="40.07903871126472949981689453125" lon="0.124349556863307952880859375">
        <ele>74.40000152587890625</ele>
        <time>2023-01-27T11:12:27.000Z</time>
      </trkpt>
      <trkpt lat="40.07917952723801136016845703125" lon="0.1244315318763256072998046875">
        <ele>74.1999969482421875</ele>
        <time>2023-01-27T11:12:29.000Z</time>
      </trkpt>
      <trkpt lat="40.07923618890345096588134765625" lon="0.12446329928934574127197265625">
        <ele>74</ele>
        <time>2023-01-27T11:12:30.000Z</time>
      </trkpt>
      <trkpt lat="40.0793226063251495361328125" lon="0.1245093159377574920654296875">
        <ele>73.59999847412109375</ele>
        <time>2023-01-27T11:12:32.000Z</time>
      </trkpt>
      <trkpt lat="40.07936359383165836334228515625" lon="0.1245297677814960479736328125">
        <ele>73.40000152587890625</ele>
        <time>2023-01-27T11:12:33.000Z</time>
      </trkpt>
      <trkpt lat="40.07941153831779956817626953125" lon="0.1245532371103763580322265625">
        <ele>73</ele>
        <time>2023-01-27T11:12:34.000Z</time>
      </trkpt>
      <trkpt lat="40.0795054994523525238037109375" lon="0.12458383105695247650146484375">
        <ele>71.8000030517578125</ele>
        <time>2023-01-27T11:12:36.000Z</time>
      </trkpt>
      <trkpt lat="40.07955905981361865997314453125" lon="0.12457787990570068359375">
        <ele>70.8000030517578125</ele>
        <time>2023-01-27T11:12:38.000Z</time>
      </trkpt>
      <trkpt lat="40.07965729571878910064697265625" lon="0.12454242445528507232666015625">
        <ele>70.40000152587890625</ele>
        <time>2023-01-27T11:12:39.000Z</time>
      </trkpt>
      <trkpt lat="40.07970322854816913604736328125" lon="0.12455533258616924285888671875">
        <ele>70.1999969482421875</ele>
        <time>2023-01-27T11:12:40.000Z</time>
      </trkpt>
      <trkpt lat="40.0797385163605213165283203125" lon="0.12458232231438159942626953125">
        <ele>70</ele>
        <time>2023-01-27T11:12:41.000Z</time>
      </trkpt>
      <trkpt lat="40.079754777252674102783203125" lon="0.124611742794513702392578125">
        <ele>70</ele>
        <time>2023-01-27T11:12:42.000Z</time>
      </trkpt>
      <trkpt lat="40.079758800566196441650390625" lon="0.1246451027691364288330078125">
        <ele>70</ele>
        <time>2023-01-27T11:12:43.000Z</time>
      </trkpt>
      <trkpt lat="40.07976718246936798095703125" lon="0.1246819831430912017822265625">
        <ele>70</ele>
        <time>2023-01-27T11:12:44.000Z</time>
      </trkpt>
      <trkpt lat="40.07977548055350780487060546875" lon="0.12471945025026798248291015625">
        <ele>70.1999969482421875</ele>
        <time>2023-01-27T11:12:45.000Z</time>
      </trkpt>
      <trkpt lat="40.079783610999584197998046875" lon="0.1247560791671276092529296875">
        <ele>70.1999969482421875</ele>
        <time>2023-01-27T11:12:46.000Z</time>
      </trkpt>
      <trkpt lat="40.07978998124599456787109375" lon="0.12479170225560665130615234375">
        <ele>70.40000152587890625</ele>
        <time>2023-01-27T11:12:47.000Z</time>
      </trkpt>
      <trkpt lat="40.079802386462688446044921875" lon="0.124822296202182769775390625">
        <ele>70.40000152587890625</ele>
        <time>2023-01-27T11:12:48.000Z</time>
      </trkpt>
      <trkpt lat="40.0798112712800502777099609375" lon="0.1248519681394100189208984375">
        <ele>70.59999847412109375</ele>
        <time>2023-01-27T11:12:49.000Z</time>
      </trkpt>
      <trkpt lat="40.079811103641986846923828125" lon="0.12488055042922496795654296875">
        <ele>70.8000030517578125</ele>
        <time>2023-01-27T11:12:50.000Z</time>
      </trkpt>
      <trkpt lat="40.0798080861568450927734375" lon="0.12491223402321338653564453125">
        <ele>70.8000030517578125</ele>
        <time>2023-01-27T11:12:51.000Z</time>
      </trkpt>
      <trkpt lat="40.07980532012879848480224609375" lon="0.1249438337981700897216796875">
        <ele>71</ele>
        <time>2023-01-27T11:12:52.000Z</time>
      </trkpt>
      <trkpt lat="40.07979894988238811492919921875" lon="0.12497560121119022369384765625">
        <ele>71.40000152587890625</ele>
        <time>2023-01-27T11:12:53.000Z</time>
      </trkpt>
      <trkpt lat="40.079797692596912384033203125" lon="0.1250048540532588958740234375">
        <ele>71.59999847412109375</ele>
        <time>2023-01-27T11:12:54.000Z</time>
      </trkpt>
      <trkpt lat="40.0797978602349758148193359375" lon="0.12503276579082012176513671875">
        <ele>71.8000030517578125</ele>
        <time>2023-01-27T11:12:55.000Z</time>
      </trkpt>
      <trkpt lat="40.079795680940151214599609375" lon="0.125062353909015655517578125">
        <ele>72</ele>
        <time>2023-01-27T11:12:56.000Z</time>
      </trkpt>
      <trkpt lat="40.07979132235050201416015625" lon="0.1250920258462429046630859375">
        <ele>72.1999969482421875</ele>
        <time>2023-01-27T11:12:57.000Z</time>
      </trkpt>
      <trkpt lat="40.0797881372272968292236328125" lon="0.12512379325926303863525390625">
        <ele>72.40000152587890625</ele>
        <time>2023-01-27T11:12:58.000Z</time>
      </trkpt>
      <trkpt lat="40.079782940447330474853515625" lon="0.12515245936810970306396484375">
        <ele>72.59999847412109375</ele>
        <time>2023-01-27T11:12:59.000Z</time>
      </trkpt>
      <trkpt lat="40.07973994128406047821044921875" lon="0.12523929588496685028076171875">
        <ele>73.1999969482421875</ele>
        <time>2023-01-27T11:13:02.000Z</time>
      </trkpt>
      <trkpt lat="40.07973005063831806182861328125" lon="0.12527097947895526885986328125">
        <ele>73.1999969482421875</ele>
        <time>2023-01-27T11:13:03.000Z</time>
      </trkpt>
      <trkpt lat="40.07965511642396450042724609375" lon="0.125462003052234649658203125">
        <ele>74.1999969482421875</ele>
        <time>2023-01-27T11:13:09.000Z</time>
      </trkpt>
      <trkpt lat="40.079632736742496490478515625" lon="0.12552914209663867950439453125">
        <ele>74.59999847412109375</ele>
        <time>2023-01-27T11:13:11.000Z</time>
      </trkpt>
      <trkpt lat="40.0796198286116123199462890625" lon="0.125559903681278228759765625">
        <ele>74.8000030517578125</ele>
        <time>2023-01-27T11:13:12.000Z</time>
      </trkpt>
      <trkpt lat="40.07960264571011066436767578125" lon="0.1255878992378711700439453125">
        <ele>74.8000030517578125</ele>
        <time>2023-01-27T11:13:13.000Z</time>
      </trkpt>
      <trkpt lat="40.07958437316119670867919921875" lon="0.12561656534671783447265625">
        <ele>75</ele>
        <time>2023-01-27T11:13:14.000Z</time>
      </trkpt>
      <trkpt lat="40.07956827990710735321044921875" lon="0.12564497999846935272216796875">
        <ele>75.1999969482421875</ele>
        <time>2023-01-27T11:13:15.000Z</time>
      </trkpt>
      <trkpt lat="40.07955436594784259796142578125" lon="0.12567414902150630950927734375">
        <ele>75.40000152587890625</ele>
        <time>2023-01-27T11:13:16.000Z</time>
      </trkpt>
      <trkpt lat="40.0795425474643707275390625" lon="0.12570247985422611236572265625">
        <ele>75.8000030517578125</ele>
        <time>2023-01-27T11:13:17.000Z</time>
      </trkpt>
      <trkpt lat="40.07953324355185031890869140625" lon="0.12573215179145336151123046875">
        <ele>75.8000030517578125</ele>
        <time>2023-01-27T11:13:18.000Z</time>
      </trkpt>
      <trkpt lat="40.07952519692480564117431640625" lon="0.12576132081449031829833984375">
        <ele>76.1999969482421875</ele>
        <time>2023-01-27T11:13:19.000Z</time>
      </trkpt>
      <trkpt lat="40.07951446808874607086181640625" lon="0.1257867179811000823974609375">
        <ele>76.40000152587890625</ele>
        <time>2023-01-27T11:13:20.000Z</time>
      </trkpt>
      <trkpt lat="40.07950390689074993133544921875" lon="0.12581395916640758514404296875">
        <ele>76.40000152587890625</ele>
        <time>2023-01-27T11:13:21.000Z</time>
      </trkpt>
      <trkpt lat="40.0794942677021026611328125" lon="0.12584245763719081878662109375">
        <ele>76.59999847412109375</ele>
        <time>2023-01-27T11:13:22.000Z</time>
      </trkpt>
      <trkpt lat="40.0794847123324871063232421875" lon="0.125871039927005767822265625">
        <ele>76.8000030517578125</ele>
        <time>2023-01-27T11:13:23.000Z</time>
      </trkpt>
      <trkpt lat="40.07947557605803012847900390625" lon="0.12590012513101100921630859375">
        <ele>77.40000152587890625</ele>
        <time>2023-01-27T11:13:24.000Z</time>
      </trkpt>
      <trkpt lat="40.0794652663171291351318359375" lon="0.1259288750588893890380859375">
        <ele>77.40000152587890625</ele>
        <time>2023-01-27T11:13:25.000Z</time>
      </trkpt>
      <trkpt lat="40.07945428602397441864013671875" lon="0.125956200063228607177734375">
        <ele>78</ele>
        <time>2023-01-27T11:13:26.000Z</time>
      </trkpt>
      <trkpt lat="40.07944121025502681732177734375" lon="0.12598478235304355621337890625">
        <ele>78</ele>
        <time>2023-01-27T11:13:27.000Z</time>
      </trkpt>
      <trkpt lat="40.0794337503612041473388671875" lon="0.126013197004795074462890625">
        <ele>78.59999847412109375</ele>
        <time>2023-01-27T11:13:28.000Z</time>
      </trkpt>
      <trkpt lat="40.07942729629576206207275390625" lon="0.12604127638041973114013671875">
        <ele>78.8000030517578125</ele>
        <time>2023-01-27T11:13:29.000Z</time>
      </trkpt>
      <trkpt lat="40.07942729629576206207275390625" lon="0.12604127638041973114013671875">
        <ele>79.1999969482421875</ele>
        <time>2023-01-27T11:13:30.000Z</time>
      </trkpt>
      <trkpt lat="40.079406760632991790771484375" lon="0.12609156779944896697998046875">
        <ele>79.40000152587890625</ele>
        <time>2023-01-27T11:13:31.000Z</time>
      </trkpt>
      <trkpt lat="40.07939309813082218170166015625" lon="0.12611470185220241546630859375">
        <ele>79.8000030517578125</ele>
        <time>2023-01-27T11:13:32.000Z</time>
      </trkpt>
      <trkpt lat="40.0793750770390033721923828125" lon="0.12613951228559017181396484375">
        <ele>80.40000152587890625</ele>
        <time>2023-01-27T11:13:33.000Z</time>
      </trkpt>
      <trkpt lat="40.07935470901429653167724609375" lon="0.126162059605121612548828125">
        <ele>80.59999847412109375</ele>
        <time>2023-01-27T11:13:34.000Z</time>
      </trkpt>
      <trkpt lat="40.079330988228321075439453125" lon="0.1261778175830841064453125">
        <ele>81.1999969482421875</ele>
        <time>2023-01-27T11:13:35.000Z</time>
      </trkpt>
      <trkpt lat="40.07930341176688671112060546875" lon="0.1261924020946025848388671875">
        <ele>81.40000152587890625</ele>
        <time>2023-01-27T11:13:36.000Z</time>
      </trkpt>
      <trkpt lat="40.07927340455353260040283203125" lon="0.1262091659009456634521484375">
        <ele>81.59999847412109375</ele>
        <time>2023-01-27T11:13:37.000Z</time>
      </trkpt>
      <trkpt lat="40.0792413018643856048583984375" lon="0.12622810900211334228515625">
        <ele>81.59999847412109375</ele>
        <time>2023-01-27T11:13:38.000Z</time>
      </trkpt>
      <trkpt lat="40.0792107917368412017822265625" lon="0.12624126859009265899658203125">
        <ele>81.8000030517578125</ele>
        <time>2023-01-27T11:13:39.000Z</time>
      </trkpt>
      <trkpt lat="40.07917935959994792938232421875" lon="0.126254260540008544921875">
        <ele>81.8000030517578125</ele>
        <time>2023-01-27T11:13:40.000Z</time>
      </trkpt>
      <trkpt lat="40.0791517831385135650634765625" lon="0.12627236545085906982421875">
        <ele>81.8000030517578125</ele>
        <time>2023-01-27T11:13:41.000Z</time>
      </trkpt>
      <trkpt lat="40.07912437431514263153076171875" lon="0.1262903027236461639404296875">
        <ele>81.8000030517578125</ele>
        <time>2023-01-27T11:13:42.000Z</time>
      </trkpt>
      <trkpt lat="40.07909637875854969024658203125" lon="0.12630849145352840423583984375">
        <ele>82</ele>
        <time>2023-01-27T11:13:43.000Z</time>
      </trkpt>
      <trkpt lat="40.07906754501163959503173828125" lon="0.12632869184017181396484375">
        <ele>82.1999969482421875</ele>
        <time>2023-01-27T11:13:44.000Z</time>
      </trkpt>
      <trkpt lat="40.079041309654712677001953125" lon="0.12635123915970325469970703125">
        <ele>82.1999969482421875</ele>
        <time>2023-01-27T11:13:45.000Z</time>
      </trkpt>
      <trkpt lat="40.079041309654712677001953125" lon="0.12635123915970325469970703125">
        <ele>82.40000152587890625</ele>
        <time>2023-01-27T11:13:46.000Z</time>
      </trkpt>
      <trkpt lat="40.07899143733084201812744140625" lon="0.12639348395168781280517578125">
        <ele>82.40000152587890625</ele>
        <time>2023-01-27T11:13:47.000Z</time>
      </trkpt>
      <trkpt lat="40.07896662689745426177978515625" lon="0.1264123432338237762451171875">
        <ele>82.40000152587890625</ele>
        <time>2023-01-27T11:13:48.000Z</time>
      </trkpt>
      <trkpt lat="40.0789402239024639129638671875" lon="0.12643061578273773193359375">
        <ele>82.59999847412109375</ele>
        <time>2023-01-27T11:13:49.000Z</time>
      </trkpt>
      <trkpt lat="40.0789144076406955718994140625" lon="0.12644913978874683380126953125">
        <ele>83.40000152587890625</ele>
        <time>2023-01-27T11:13:50.000Z</time>
      </trkpt>
      <trkpt lat="40.07888817228376865386962890625" lon="0.12646590359508991241455078125">
        <ele>83.40000152587890625</ele>
        <time>2023-01-27T11:13:51.000Z</time>
      </trkpt>
      <trkpt lat="40.07886252366006374359130859375" lon="0.1264835894107818603515625">
        <ele>83.59999847412109375</ele>
        <time>2023-01-27T11:13:52.000Z</time>
      </trkpt>
      <trkpt lat="40.07883846759796142578125" lon="0.12649758718907833099365234375">
        <ele>83.8000030517578125</ele>
        <time>2023-01-27T11:13:53.000Z</time>
      </trkpt>
      <trkpt lat="40.07881290279328823089599609375" lon="0.1265085674822330474853515625">
        <ele>84</ele>
        <time>2023-01-27T11:13:54.000Z</time>
      </trkpt>
      <trkpt lat="40.078789182007312774658203125" lon="0.12652181088924407958984375">
        <ele>84</ele>
        <time>2023-01-27T11:13:55.000Z</time>
      </trkpt>
      <trkpt lat="40.07876529358327388763427734375" lon="0.12653731741011142730712890625">
        <ele>84.40000152587890625</ele>
        <time>2023-01-27T11:13:56.000Z</time>
      </trkpt>
      <trkpt lat="40.078743584454059600830078125" lon="0.1265534944832324981689453125">
        <ele>84.59999847412109375</ele>
        <time>2023-01-27T11:13:57.000Z</time>
      </trkpt>
      <trkpt lat="40.0787209533154964447021484375" lon="0.1265675760805606842041015625">
        <ele>84.59999847412109375</ele>
        <time>2023-01-27T11:13:58.000Z</time>
      </trkpt>
      <trkpt lat="40.0786998309195041656494140625" lon="0.12658207677304744720458984375">
        <ele>84.8000030517578125</ele>
        <time>2023-01-27T11:13:59.000Z</time>
      </trkpt>
      <trkpt lat="40.07868298329412937164306640625" lon="0.126595906913280487060546875">
        <ele>85.1999969482421875</ele>
        <time>2023-01-27T11:14:00.000Z</time>
      </trkpt>
      <trkpt lat="40.07866571657359600067138671875" lon="0.12661275453865528106689453125">
        <ele>85.59999847412109375</ele>
        <time>2023-01-27T11:14:01.000Z</time>
      </trkpt>
      <trkpt lat="40.078647024929523468017578125" lon="0.126631446182727813720703125">
        <ele>85.59999847412109375</ele>
        <time>2023-01-27T11:14:02.000Z</time>
      </trkpt>
      <trkpt lat="40.078629590570926666259765625" lon="0.126647539436817169189453125">
        <ele>86.1999969482421875</ele>
        <time>2023-01-27T11:14:03.000Z</time>
      </trkpt>
      <trkpt lat="40.07861517369747161865234375" lon="0.12666841037571430206298828125">
        <ele>86.1999969482421875</ele>
        <time>2023-01-27T11:14:04.000Z</time>
      </trkpt>
      <trkpt lat="40.07860469631850719451904296875" lon="0.12669053860008716583251953125">
        <ele>86.8000030517578125</ele>
        <time>2023-01-27T11:14:05.000Z</time>
      </trkpt>
      <trkpt lat="40.078598074615001678466796875" lon="0.12671551667153835296630859375">
        <ele>87</ele>
        <time>2023-01-27T11:14:06.000Z</time>
      </trkpt>
      <trkpt lat="40.078598074615001678466796875" lon="0.12671551667153835296630859375">
        <ele>87.40000152587890625</ele>
        <time>2023-01-27T11:14:07.000Z</time>
      </trkpt>
      <trkpt lat="40.07859849371016025543212890625" lon="0.12678424827754497528076171875">
        <ele>87.59999847412109375</ele>
        <time>2023-01-27T11:14:08.000Z</time>
      </trkpt>
      <trkpt lat="40.0786042772233486175537109375" lon="0.1268230564892292022705078125">
        <ele>87.8000030517578125</ele>
        <time>2023-01-27T11:14:09.000Z</time>
      </trkpt>
      <trkpt lat="40.078608803451061248779296875" lon="0.1268632896244525909423828125">
        <ele>88</ele>
        <time>2023-01-27T11:14:10.000Z</time>
      </trkpt>
      <trkpt lat="40.0786183588206768035888671875" lon="0.1269092224538326263427734375">
        <ele>88.1999969482421875</ele>
        <time>2023-01-27T11:14:11.000Z</time>
      </trkpt>
      <trkpt lat="40.078616850078105926513671875" lon="0.12696303427219390869140625">
        <ele>88.1999969482421875</ele>
        <time>2023-01-27T11:14:12.000Z</time>
      </trkpt>
      <trkpt lat="40.07861995138227939605712890625" lon="0.12702782638370990753173828125">
        <ele>88.1999969482421875</ele>
        <time>2023-01-27T11:14:13.000Z</time>
      </trkpt>
      <trkpt lat="40.078624226152896881103515625" lon="0.1270832307636737823486328125">
        <ele>88.1999969482421875</ele>
        <time>2023-01-27T11:14:14.000Z</time>
      </trkpt>
      <trkpt lat="40.078620873391628265380859375" lon="0.12716847471892833709716796875">
        <ele>88.1999969482421875</ele>
        <time>2023-01-27T11:14:15.000Z</time>
      </trkpt>
      <trkpt lat="40.0786196999251842498779296875" lon="0.12725095264613628387451171875">
        <ele>88.1999969482421875</ele>
        <time>2023-01-27T11:14:16.000Z</time>
      </trkpt>
      <trkpt lat="40.07861274294555187225341796875" lon="0.127342902123928070068359375">
        <ele>88.1999969482421875</ele>
        <time>2023-01-27T11:14:17.000Z</time>
      </trkpt>
      <trkpt lat="40.07860637269914150238037109375" lon="0.12744088657200336456298828125">
        <ele>87.8000030517578125</ele>
        <time>2023-01-27T11:14:18.000Z</time>
      </trkpt>
      <trkpt lat="40.07860871963202953338623046875" lon="0.12751984409987926483154296875">
        <ele>87.8000030517578125</ele>
        <time>2023-01-27T11:14:19.000Z</time>
      </trkpt>
      <trkpt lat="40.078645683825016021728515625" lon="0.12758254073560237884521484375">
        <ele>87.59999847412109375</ele>
        <time>2023-01-27T11:14:20.000Z</time>
      </trkpt>
      <trkpt lat="40.07868968881666660308837890625" lon="0.12763551436364650726318359375">
        <ele>87.1999969482421875</ele>
        <time>2023-01-27T11:14:21.000Z</time>
      </trkpt>
      <trkpt lat="40.07875875569880008697509765625" lon="0.1276632584631443023681640625">
        <ele>86.8000030517578125</ele>
        <time>2023-01-27T11:14:22.000Z</time>
      </trkpt>
      <trkpt lat="40.078836120665073394775390625" lon="0.12766485102474689483642578125">
        <ele>85.40000152587890625</ele>
        <time>2023-01-27T11:14:23.000Z</time>
      </trkpt>
      <trkpt lat="40.078913904726505279541015625" lon="0.127629227936267852783203125">
        <ele>84.8000030517578125</ele>
        <time>2023-01-27T11:14:24.000Z</time>
      </trkpt>
      <trkpt lat="40.0789766013622283935546875" lon="0.1275710575282573699951171875">
        <ele>84</ele>
        <time>2023-01-27T11:14:25.000Z</time>
      </trkpt>
      <trkpt lat="40.0790337659418582916259765625" lon="0.12749436311423778533935546875">
        <ele>83.59999847412109375</ele>
        <time>2023-01-27T11:14:26.000Z</time>
      </trkpt>
      <trkpt lat="40.0790921039879322052001953125" lon="0.12741029262542724609375">
        <ele>82.40000152587890625</ele>
        <time>2023-01-27T11:14:27.000Z</time>
      </trkpt>
      <trkpt lat="40.07915572263300418853759765625" lon="0.12733996845781803131103515625">
        <ele>81.8000030517578125</ele>
        <time>2023-01-27T11:14:28.000Z</time>
      </trkpt>
      <trkpt lat="40.0792255438864231109619140625" lon="0.12727559544146060943603515625">
        <ele>81.40000152587890625</ele>
        <time>2023-01-27T11:14:29.000Z</time>
      </trkpt>
      <trkpt lat="40.0793033279478549957275390625" lon="0.1272233761847019195556640625">
        <ele>80.8000030517578125</ele>
        <time>2023-01-27T11:14:30.000Z</time>
      </trkpt>
      <trkpt lat="40.0793871469795703887939453125" lon="0.1271992363035678863525390625">
        <ele>80.1999969482421875</ele>
        <time>2023-01-27T11:14:31.000Z</time>
      </trkpt>
      <trkpt lat="40.07947691716253757476806640625" lon="0.12720451690256595611572265625">
        <ele>79.8000030517578125</ele>
        <time>2023-01-27T11:14:32.000Z</time>
      </trkpt>
      <trkpt lat="40.07957532070577144622802734375" lon="0.12723083607852458953857421875">
        <ele>79</ele>
        <time>2023-01-27T11:14:33.000Z</time>
      </trkpt>
      <trkpt lat="40.0796697847545146942138671875" lon="0.12730392627418041229248046875">
        <ele>78.40000152587890625</ele>
        <time>2023-01-27T11:14:34.000Z</time>
      </trkpt>
      <trkpt lat="40.079776234924793243408203125" lon="0.12740199454128742218017578125">
        <ele>78.1999969482421875</ele>
        <time>2023-01-27T11:14:35.000Z</time>
      </trkpt>
      <trkpt lat="40.0798820145428180694580078125" lon="0.127509199082851409912109375">
        <ele>77.40000152587890625</ele>
        <time>2023-01-27T11:14:36.000Z</time>
      </trkpt>
      <trkpt lat="40.07996206171810626983642578125" lon="0.12759762816131114959716796875">
        <ele>76.59999847412109375</ele>
        <time>2023-01-27T11:14:37.000Z</time>
      </trkpt>
      <trkpt lat="40.08001386187970638275146484375" lon="0.12766577303409576416015625">
        <ele>75.1999969482421875</ele>
        <time>2023-01-27T11:14:38.000Z</time>
      </trkpt>
      <trkpt lat="40.0800523348152637481689453125" lon="0.12770726345479488372802734375">
        <ele>74.40000152587890625</ele>
        <time>2023-01-27T11:14:39.000Z</time>
      </trkpt>
      <trkpt lat="40.08007739670574665069580078125" lon="0.12773324735462665557861328125">
        <ele>72.59999847412109375</ele>
        <time>2023-01-27T11:14:40.000Z</time>
      </trkpt>
      <trkpt lat="40.0801016204059123992919921875" lon="0.12775403447449207305908203125">
        <ele>71.59999847412109375</ele>
        <time>2023-01-27T11:14:41.000Z</time>
      </trkpt>
      <trkpt lat="40.080128945410251617431640625" lon="0.1277819462120532989501953125">
        <ele>69.59999847412109375</ele>
        <time>2023-01-27T11:14:42.000Z</time>
      </trkpt>
      <trkpt lat="40.0801623053848743438720703125" lon="0.12781404890120029449462890625">
        <ele>68.8000030517578125</ele>
        <time>2023-01-27T11:14:43.000Z</time>
      </trkpt>
      <trkpt lat="40.08020463399589061737060546875" lon="0.12784388847649097442626953125">
        <ele>67.59999847412109375</ele>
        <time>2023-01-27T11:14:44.000Z</time>
      </trkpt>
      <trkpt lat="40.08030974306166172027587890625" lon="0.12791228480637073516845703125">
        <ele>66.40000152587890625</ele>
        <time>2023-01-27T11:14:46.000Z</time>
      </trkpt>
      <trkpt lat="40.080368332564830780029296875" lon="0.12795788235962390899658203125">
        <ele>65.8000030517578125</ele>
        <time>2023-01-27T11:14:47.000Z</time>
      </trkpt>
      <trkpt lat="40.08051107637584209442138671875" lon="0.1280712895095348358154296875">
        <ele>65</ele>
        <time>2023-01-27T11:14:49.000Z</time>
      </trkpt>
      <trkpt lat="40.08059330284595489501953125" lon="0.1281252689659595489501953125">
        <ele>64.8000030517578125</ele>
        <time>2023-01-27T11:14:50.000Z</time>
      </trkpt>
      <trkpt lat="40.08068039081990718841552734375" lon="0.12817111797630786895751953125">
        <ele>64.1999969482421875</ele>
        <time>2023-01-27T11:14:51.000Z</time>
      </trkpt>
      <trkpt lat="40.08077678270637989044189453125" lon="0.12821285985410213470458984375">
        <ele>63.799999237060546875</ele>
        <time>2023-01-27T11:14:52.000Z</time>
      </trkpt>
      <trkpt lat="40.08096571080386638641357421875" lon="0.1282748021185398101806640625">
        <ele>62.59999847412109375</ele>
        <time>2023-01-27T11:14:54.000Z</time>
      </trkpt>
      <trkpt lat="40.081052295863628387451171875" lon="0.12829097919166088104248046875">
        <ele>61.40000152587890625</ele>
        <time>2023-01-27T11:14:55.000Z</time>
      </trkpt>
      <trkpt lat="40.08113502524793148040771484375" lon="0.128305815160274505615234375">
        <ele>60.799999237060546875</ele>
        <time>2023-01-27T11:14:56.000Z</time>
      </trkpt>
      <trkpt lat="40.08121934719383716583251953125" lon="0.12832266278564929962158203125">
        <ele>58.59999847412109375</ele>
        <time>2023-01-27T11:14:57.000Z</time>
      </trkpt>
      <trkpt lat="40.08130433969199657440185546875" lon="0.12834546156227588653564453125">
        <ele>57</ele>
        <time>2023-01-27T11:14:58.000Z</time>
      </trkpt>
      <trkpt lat="40.08138916455209255218505859375" lon="0.12837781570851802825927734375">
        <ele>56</ele>
        <time>2023-01-27T11:14:59.000Z</time>
      </trkpt>
      <trkpt lat="40.08147683925926685333251953125" lon="0.12842291034758090972900390625">
        <ele>54</ele>
        <time>2023-01-27T11:15:00.000Z</time>
      </trkpt>
      <trkpt lat="40.08166082203388214111328125" lon="0.12856691144406795501708984375">
        <ele>51</ele>
        <time>2023-01-27T11:15:02.000Z</time>
      </trkpt>
      <trkpt lat="40.08176752366125583648681640625" lon="0.12864612042903900146484375">
        <ele>50</ele>
        <time>2023-01-27T11:15:03.000Z</time>
      </trkpt>
      <trkpt lat="40.08188202045857906341552734375" lon="0.1287166960537433624267578125">
        <ele>47.799999237060546875</ele>
        <time>2023-01-27T11:15:04.000Z</time>
      </trkpt>
      <trkpt lat="40.081990063190460205078125" lon="0.12878023087978363037109375">
        <ele>47</ele>
        <time>2023-01-27T11:15:05.000Z</time>
      </trkpt>
      <trkpt lat="40.08208201266825199127197265625" lon="0.1288373954594135284423828125">
        <ele>45.200000762939453125</ele>
        <time>2023-01-27T11:15:06.000Z</time>
      </trkpt>
      <trkpt lat="40.082162730395793914794921875" lon="0.128888189792633056640625">
        <ele>43.799999237060546875</ele>
        <time>2023-01-27T11:15:07.000Z</time>
      </trkpt>
      <trkpt lat="40.08223607204854488372802734375" lon="0.12893554754555225372314453125">
        <ele>42</ele>
        <time>2023-01-27T11:15:08.000Z</time>
      </trkpt>
      <trkpt lat="40.08230681531131267547607421875" lon="0.12897879816591739654541015625">
        <ele>41</ele>
        <time>2023-01-27T11:15:09.000Z</time>
      </trkpt>
      <trkpt lat="40.08238091133534908294677734375" lon="0.12901760637760162353515625">
        <ele>39.200000762939453125</ele>
        <time>2023-01-27T11:15:10.000Z</time>
      </trkpt>
      <trkpt lat="40.08245836012065410614013671875" lon="0.12905373238027095794677734375">
        <ele>37.59999847412109375</ele>
        <time>2023-01-27T11:15:11.000Z</time>
      </trkpt>
      <trkpt lat="40.08253631182014942169189453125" lon="0.12909430079162120819091796875">
        <ele>36.59999847412109375</ele>
        <time>2023-01-27T11:15:12.000Z</time>
      </trkpt>
      <trkpt lat="40.082610659301280975341796875" lon="0.12913671322166919708251953125">
        <ele>35.200000762939453125</ele>
        <time>2023-01-27T11:15:13.000Z</time>
      </trkpt>
      <trkpt lat="40.08274619467556476593017578125" lon="0.1292092166841030120849609375">
        <ele>33.799999237060546875</ele>
        <time>2023-01-27T11:15:15.000Z</time>
      </trkpt>
      <trkpt lat="40.08279782719910144805908203125" lon="0.129239894449710845947265625">
        <ele>33.40000152587890625</ele>
        <time>2023-01-27T11:15:16.000Z</time>
      </trkpt>
      <trkpt lat="40.08283856324851512908935546875" lon="0.12926562689244747161865234375">
        <ele>33</ele>
        <time>2023-01-27T11:15:17.000Z</time>
      </trkpt>
      <trkpt lat="40.082866810262203216552734375" lon="0.12928222306072711944580078125">
        <ele>32.59999847412109375</ele>
        <time>2023-01-27T11:15:18.000Z</time>
      </trkpt>
      <trkpt lat="40.08288365788757801055908203125" lon="0.12929127551615238189697265625">
        <ele>31.6000003814697265625</ele>
        <time>2023-01-27T11:15:19.000Z</time>
      </trkpt>
      <trkpt lat="40.08289019577205181121826171875" lon="0.12929387390613555908203125">
        <ele>31.200000762939453125</ele>
        <time>2023-01-27T11:15:20.000Z</time>
      </trkpt>
      <trkpt lat="40.08289019577205181121826171875" lon="0.12929387390613555908203125">
        <ele>30.200000762939453125</ele>
        <time>2023-01-27T11:15:22.000Z</time>
      </trkpt>
    </trkseg>
  </trk>
</gpx>
